<?xml version="1.0" encoding="UTF-8" standalone="no" ?>
<gpx xmlns="http://www.topografix.com/GPX/1/1" xmlns:xsi="http://www.w3.org/2001/XMLSchema-instance" xsi:schemaLocation="http://www.topografix.com/GPX/1/1 http://www.topografix.com/GPX/1/1/gpx.xsd" version="1.1" creator="VisuGPX - https://www.visugpx.com">
  <metadata>
    <name>Pot_Thur 60</name>
  </metadata>
  <wpt lat="48.87672" lon="-0.388">
    <ele>204.2</ele>
    <name><![CDATA[WP 1]]></name>
  </wpt>
  <wpt lat="48.87672" lon="-0.388">
    <ele>204.2</ele>
    <name><![CDATA[Départ Arrivee]]></name>
  </wpt>
  <trk>
    <name><![CDATA[Magnifique trace en Suisse Normande au départ de Pont-d'Ouilly]]></name>
    <extensions>
      <line xmlns="http://www.topografix.com/GPX/gpx_style/0/2">
        <color>00FF00</color>
        <width>4</width>
      </line>
    </extensions>
    <trkseg>
      <trkpt lat="48.87306" lon="-0.41182">
        <ele>48.599998474121</ele>
        <time>2017-06-11T08:05:43.000Z</time>
      </trkpt>
      <trkpt lat="48.87306" lon="-0.41182">
        <ele>48.599998474121</ele>
        <time>2017-06-11T08:05:43.000Z</time>
      </trkpt>
      <trkpt lat="48.87306" lon="-0.41182">
        <ele>48.599998474121</ele>
        <time>2017-06-11T08:05:43.000Z</time>
      </trkpt>
      <trkpt lat="48.87306" lon="-0.41182">
        <ele>48.599998474121</ele>
        <time>2017-06-11T08:05:43.000Z</time>
      </trkpt>
      <trkpt lat="48.87306" lon="-0.41182">
        <ele>48.599998474121</ele>
        <time>2017-06-11T08:05:43.000Z</time>
      </trkpt>
      <trkpt lat="48.87299" lon="-0.41189">
        <ele>48.599998474121</ele>
        <time>2017-06-11T08:05:46.000Z</time>
      </trkpt>
      <trkpt lat="48.87297" lon="-0.41192">
        <ele>48.799999237061</ele>
        <time>2017-06-11T08:05:47.000Z</time>
      </trkpt>
      <trkpt lat="48.87292" lon="-0.41197">
        <ele>48.799999237061</ele>
        <time>2017-06-11T08:05:49.000Z</time>
      </trkpt>
      <trkpt lat="48.87281" lon="-0.41201">
        <ele>48.799999237061</ele>
        <time>2017-06-11T08:05:53.000Z</time>
      </trkpt>
      <trkpt lat="48.87266" lon="-0.41192">
        <ele>48.799999237061</ele>
        <time>2017-06-11T08:05:58.000Z</time>
      </trkpt>
      <trkpt lat="48.8725" lon="-0.41179">
        <ele>48.799999237061</ele>
        <time>2017-06-11T08:06:04.000Z</time>
      </trkpt>
      <trkpt lat="48.87228" lon="-0.41163">
        <ele>48.799999237061</ele>
        <time>2017-06-11T08:06:11.000Z</time>
      </trkpt>
      <trkpt lat="48.8721" lon="-0.4115">
        <ele>48.799999237061</ele>
        <time>2017-06-11T08:06:17.000Z</time>
      </trkpt>
      <trkpt lat="48.87194" lon="-0.4114">
        <ele>48.799999237061</ele>
        <time>2017-06-11T08:06:23.000Z</time>
      </trkpt>
      <trkpt lat="48.87174" lon="-0.41125">
        <ele>48.799999237061</ele>
        <time>2017-06-11T08:06:30.000Z</time>
      </trkpt>
      <trkpt lat="48.87155" lon="-0.41112">
        <ele>48.799999237061</ele>
        <time>2017-06-11T08:06:37.000Z</time>
      </trkpt>
      <trkpt lat="48.87133" lon="-0.41097">
        <ele>48.799999237061</ele>
        <time>2017-06-11T08:06:44.000Z</time>
      </trkpt>
      <trkpt lat="48.87114" lon="-0.41083">
        <ele>48.799999237061</ele>
        <time>2017-06-11T08:06:51.000Z</time>
      </trkpt>
      <trkpt lat="48.87094" lon="-0.41069">
        <ele>48.799999237061</ele>
        <time>2017-06-11T08:06:59.000Z</time>
      </trkpt>
      <trkpt lat="48.87076" lon="-0.41055">
        <ele>48.799999237061</ele>
        <time>2017-06-11T08:07:06.000Z</time>
      </trkpt>
      <trkpt lat="48.87061" lon="-0.41044">
        <ele>48.799999237061</ele>
        <time>2017-06-11T08:07:12.000Z</time>
      </trkpt>
      <trkpt lat="48.87033" lon="-0.41024">
        <ele>48.799999237061</ele>
        <time>2017-06-11T08:07:22.000Z</time>
      </trkpt>
      <trkpt lat="48.8703" lon="-0.41022">
        <ele>48.799999237061</ele>
        <time>2017-06-11T08:07:23.000Z</time>
      </trkpt>
      <trkpt lat="48.8702" lon="-0.41014">
        <ele>49.200000762939</ele>
        <time>2017-06-11T08:07:27.000Z</time>
      </trkpt>
      <trkpt lat="48.87017" lon="-0.41012">
        <ele>49.599998474121</ele>
        <time>2017-06-11T08:07:28.000Z</time>
      </trkpt>
      <trkpt lat="48.87014" lon="-0.41009">
        <ele>50</ele>
        <time>2017-06-11T08:07:29.000Z</time>
      </trkpt>
      <trkpt lat="48.87011" lon="-0.41008">
        <ele>50.400001525879</ele>
        <time>2017-06-11T08:07:30.000Z</time>
      </trkpt>
      <trkpt lat="48.87009" lon="-0.41006">
        <ele>50.799999237061</ele>
        <time>2017-06-11T08:07:31.000Z</time>
      </trkpt>
      <trkpt lat="48.86996" lon="-0.40998">
        <ele>50.799999237061</ele>
        <time>2017-06-11T08:07:36.000Z</time>
      </trkpt>
      <trkpt lat="48.86977" lon="-0.40983">
        <ele>50.799999237061</ele>
        <time>2017-06-11T08:07:43.000Z</time>
      </trkpt>
      <trkpt lat="48.86972" lon="-0.40979">
        <ele>51.200000762939</ele>
        <time>2017-06-11T08:07:45.000Z</time>
      </trkpt>
      <trkpt lat="48.86969" lon="-0.40978">
        <ele>51.599998474121</ele>
        <time>2017-06-11T08:07:46.000Z</time>
      </trkpt>
      <trkpt lat="48.86966" lon="-0.40976">
        <ele>52</ele>
        <time>2017-06-11T08:07:47.000Z</time>
      </trkpt>
      <trkpt lat="48.86964" lon="-0.40974">
        <ele>52.400001525879</ele>
        <time>2017-06-11T08:07:48.000Z</time>
      </trkpt>
      <trkpt lat="48.86962" lon="-0.40972">
        <ele>52.799999237061</ele>
        <time>2017-06-11T08:07:49.000Z</time>
      </trkpt>
      <trkpt lat="48.86957" lon="-0.40968">
        <ele>52.799999237061</ele>
        <time>2017-06-11T08:07:51.000Z</time>
      </trkpt>
      <trkpt lat="48.86938" lon="-0.40956">
        <ele>53.200000762939</ele>
        <time>2017-06-11T08:07:58.000Z</time>
      </trkpt>
      <trkpt lat="48.86936" lon="-0.40955">
        <ele>53.599998474121</ele>
        <time>2017-06-11T08:07:59.000Z</time>
      </trkpt>
      <trkpt lat="48.86933" lon="-0.40954">
        <ele>54</ele>
        <time>2017-06-11T08:08:00.000Z</time>
      </trkpt>
      <trkpt lat="48.86931" lon="-0.40952">
        <ele>54.400001525879</ele>
        <time>2017-06-11T08:08:01.000Z</time>
      </trkpt>
      <trkpt lat="48.86929" lon="-0.40951">
        <ele>54.799999237061</ele>
        <time>2017-06-11T08:08:02.000Z</time>
      </trkpt>
      <trkpt lat="48.86924" lon="-0.40947">
        <ele>54.799999237061</ele>
        <time>2017-06-11T08:08:05.000Z</time>
      </trkpt>
      <trkpt lat="48.86906" lon="-0.40935">
        <ele>54.799999237061</ele>
        <time>2017-06-11T08:08:14.000Z</time>
      </trkpt>
      <trkpt lat="48.86904" lon="-0.40934">
        <ele>55.400001525879</ele>
        <time>2017-06-11T08:08:15.000Z</time>
      </trkpt>
      <trkpt lat="48.86902" lon="-0.40933">
        <ele>55.799999237061</ele>
        <time>2017-06-11T08:08:16.000Z</time>
      </trkpt>
      <trkpt lat="48.869" lon="-0.40932">
        <ele>56.200000762939</ele>
        <time>2017-06-11T08:08:17.000Z</time>
      </trkpt>
      <trkpt lat="48.86897" lon="-0.4093">
        <ele>56.599998474121</ele>
        <time>2017-06-11T08:08:18.000Z</time>
      </trkpt>
      <trkpt lat="48.86895" lon="-0.40927">
        <ele>57</ele>
        <time>2017-06-11T08:08:19.000Z</time>
      </trkpt>
      <trkpt lat="48.8689" lon="-0.40923">
        <ele>57</ele>
        <time>2017-06-11T08:08:21.000Z</time>
      </trkpt>
      <trkpt lat="48.86873" lon="-0.4091">
        <ele>57</ele>
        <time>2017-06-11T08:08:28.000Z</time>
      </trkpt>
      <trkpt lat="48.86871" lon="-0.40909">
        <ele>57.400001525879</ele>
        <time>2017-06-11T08:08:29.000Z</time>
      </trkpt>
      <trkpt lat="48.86868" lon="-0.40907">
        <ele>57.799999237061</ele>
        <time>2017-06-11T08:08:30.000Z</time>
      </trkpt>
      <trkpt lat="48.86866" lon="-0.40905">
        <ele>58.200000762939</ele>
        <time>2017-06-11T08:08:31.000Z</time>
      </trkpt>
      <trkpt lat="48.86863" lon="-0.40903">
        <ele>58.599998474121</ele>
        <time>2017-06-11T08:08:32.000Z</time>
      </trkpt>
      <trkpt lat="48.86861" lon="-0.40902">
        <ele>59</ele>
        <time>2017-06-11T08:08:33.000Z</time>
      </trkpt>
      <trkpt lat="48.86854" lon="-0.40897">
        <ele>59</ele>
        <time>2017-06-11T08:08:36.000Z</time>
      </trkpt>
      <trkpt lat="48.86835" lon="-0.40883">
        <ele>59</ele>
        <time>2017-06-11T08:08:44.000Z</time>
      </trkpt>
      <trkpt lat="48.86832" lon="-0.40881">
        <ele>59.400001525879</ele>
        <time>2017-06-11T08:08:45.000Z</time>
      </trkpt>
      <trkpt lat="48.8683" lon="-0.40879">
        <ele>59.799999237061</ele>
        <time>2017-06-11T08:08:46.000Z</time>
      </trkpt>
      <trkpt lat="48.86828" lon="-0.40878">
        <ele>60.200000762939</ele>
        <time>2017-06-11T08:08:47.000Z</time>
      </trkpt>
      <trkpt lat="48.86825" lon="-0.40876">
        <ele>60.799999237061</ele>
        <time>2017-06-11T08:08:48.000Z</time>
      </trkpt>
      <trkpt lat="48.86823" lon="-0.40875">
        <ele>61.200000762939</ele>
        <time>2017-06-11T08:08:49.000Z</time>
      </trkpt>
      <trkpt lat="48.86815" lon="-0.40871">
        <ele>61.200000762939</ele>
        <time>2017-06-11T08:08:52.000Z</time>
      </trkpt>
      <trkpt lat="48.86813" lon="-0.40869">
        <ele>61.200000762939</ele>
        <time>2017-06-11T08:08:53.000Z</time>
      </trkpt>
      <trkpt lat="48.86798" lon="-0.40857">
        <ele>61.599998474121</ele>
        <time>2017-06-11T08:08:59.000Z</time>
      </trkpt>
      <trkpt lat="48.86796" lon="-0.40855">
        <ele>62</ele>
        <time>2017-06-11T08:09:00.000Z</time>
      </trkpt>
      <trkpt lat="48.86794" lon="-0.40853">
        <ele>62.400001525879</ele>
        <time>2017-06-11T08:09:01.000Z</time>
      </trkpt>
      <trkpt lat="48.86792" lon="-0.40851">
        <ele>62.799999237061</ele>
        <time>2017-06-11T08:09:02.000Z</time>
      </trkpt>
      <trkpt lat="48.86789" lon="-0.4085">
        <ele>63.200000762939</ele>
        <time>2017-06-11T08:09:03.000Z</time>
      </trkpt>
      <trkpt lat="48.86774" lon="-0.40838">
        <ele>63.200000762939</ele>
        <time>2017-06-11T08:09:10.000Z</time>
      </trkpt>
      <trkpt lat="48.86762" lon="-0.40835">
        <ele>63.200000762939</ele>
        <time>2017-06-11T08:09:15.000Z</time>
      </trkpt>
      <trkpt lat="48.86759" lon="-0.40836">
        <ele>63.200000762939</ele>
        <time>2017-06-11T08:09:16.000Z</time>
      </trkpt>
      <trkpt lat="48.86757" lon="-0.40839">
        <ele>63.599998474121</ele>
        <time>2017-06-11T08:09:17.000Z</time>
      </trkpt>
      <trkpt lat="48.86756" lon="-0.40842">
        <ele>64</ele>
        <time>2017-06-11T08:09:18.000Z</time>
      </trkpt>
      <trkpt lat="48.86755" lon="-0.40845">
        <ele>64.800003051758</ele>
        <time>2017-06-11T08:09:19.000Z</time>
      </trkpt>
      <trkpt lat="48.86754" lon="-0.40847">
        <ele>65.199996948242</ele>
        <time>2017-06-11T08:09:20.000Z</time>
      </trkpt>
      <trkpt lat="48.86753" lon="-0.4085">
        <ele>65.199996948242</ele>
        <time>2017-06-11T08:09:21.000Z</time>
      </trkpt>
      <trkpt lat="48.86748" lon="-0.40861">
        <ele>65.800003051758</ele>
        <time>2017-06-11T08:09:25.000Z</time>
      </trkpt>
      <trkpt lat="48.86747" lon="-0.40863">
        <ele>66.199996948242</ele>
        <time>2017-06-11T08:09:26.000Z</time>
      </trkpt>
      <trkpt lat="48.86746" lon="-0.40865">
        <ele>66.599998474121</ele>
        <time>2017-06-11T08:09:27.000Z</time>
      </trkpt>
      <trkpt lat="48.86745" lon="-0.40867">
        <ele>67</ele>
        <time>2017-06-11T08:09:28.000Z</time>
      </trkpt>
      <trkpt lat="48.86744" lon="-0.40868">
        <ele>67.400001525879</ele>
        <time>2017-06-11T08:09:29.000Z</time>
      </trkpt>
      <trkpt lat="48.86736" lon="-0.40878">
        <ele>67.400001525879</ele>
        <time>2017-06-11T08:09:34.000Z</time>
      </trkpt>
      <trkpt lat="48.86733" lon="-0.40884">
        <ele>67.800003051758</ele>
        <time>2017-06-11T08:09:36.000Z</time>
      </trkpt>
      <trkpt lat="48.86732" lon="-0.40886">
        <ele>68.199996948242</ele>
        <time>2017-06-11T08:09:37.000Z</time>
      </trkpt>
      <trkpt lat="48.86731" lon="-0.40889">
        <ele>68.599998474121</ele>
        <time>2017-06-11T08:09:38.000Z</time>
      </trkpt>
      <trkpt lat="48.8673" lon="-0.40892">
        <ele>69</ele>
        <time>2017-06-11T08:09:39.000Z</time>
      </trkpt>
      <trkpt lat="48.86729" lon="-0.40894">
        <ele>69.599998474121</ele>
        <time>2017-06-11T08:09:40.000Z</time>
      </trkpt>
      <trkpt lat="48.86728" lon="-0.40897">
        <ele>69.599998474121</ele>
        <time>2017-06-11T08:09:41.000Z</time>
      </trkpt>
      <trkpt lat="48.8672" lon="-0.40915">
        <ele>70</ele>
        <time>2017-06-11T08:09:47.000Z</time>
      </trkpt>
      <trkpt lat="48.8672" lon="-0.40917">
        <ele>70.400001525879</ele>
        <time>2017-06-11T08:09:48.000Z</time>
      </trkpt>
      <trkpt lat="48.86719" lon="-0.4092">
        <ele>70.800003051758</ele>
        <time>2017-06-11T08:09:49.000Z</time>
      </trkpt>
      <trkpt lat="48.86717" lon="-0.40922">
        <ele>71.199996948242</ele>
        <time>2017-06-11T08:09:50.000Z</time>
      </trkpt>
      <trkpt lat="48.86716" lon="-0.40925">
        <ele>71.599998474121</ele>
        <time>2017-06-11T08:09:51.000Z</time>
      </trkpt>
      <trkpt lat="48.86713" lon="-0.40934">
        <ele>71.599998474121</ele>
        <time>2017-06-11T08:09:54.000Z</time>
      </trkpt>
      <trkpt lat="48.86707" lon="-0.40947">
        <ele>71.599998474121</ele>
        <time>2017-06-11T08:09:59.000Z</time>
      </trkpt>
      <trkpt lat="48.86706" lon="-0.4095">
        <ele>72</ele>
        <time>2017-06-11T08:10:00.000Z</time>
      </trkpt>
      <trkpt lat="48.86705" lon="-0.40953">
        <ele>72.400001525879</ele>
        <time>2017-06-11T08:10:01.000Z</time>
      </trkpt>
      <trkpt lat="48.86704" lon="-0.40956">
        <ele>72.800003051758</ele>
        <time>2017-06-11T08:10:02.000Z</time>
      </trkpt>
      <trkpt lat="48.86703" lon="-0.40958">
        <ele>73.400001525879</ele>
        <time>2017-06-11T08:10:03.000Z</time>
      </trkpt>
      <trkpt lat="48.86702" lon="-0.40961">
        <ele>73.800003051758</ele>
        <time>2017-06-11T08:10:04.000Z</time>
      </trkpt>
      <trkpt lat="48.86698" lon="-0.40972">
        <ele>73.800003051758</ele>
        <time>2017-06-11T08:10:08.000Z</time>
      </trkpt>
      <trkpt lat="48.86691" lon="-0.40987">
        <ele>74.199996948242</ele>
        <time>2017-06-11T08:10:14.000Z</time>
      </trkpt>
      <trkpt lat="48.8669" lon="-0.4099">
        <ele>74.599998474121</ele>
        <time>2017-06-11T08:10:15.000Z</time>
      </trkpt>
      <trkpt lat="48.86689" lon="-0.40993">
        <ele>75</ele>
        <time>2017-06-11T08:10:16.000Z</time>
      </trkpt>
      <trkpt lat="48.86687" lon="-0.40995">
        <ele>75.400001525879</ele>
        <time>2017-06-11T08:10:17.000Z</time>
      </trkpt>
      <trkpt lat="48.86686" lon="-0.40998">
        <ele>75.800003051758</ele>
        <time>2017-06-11T08:10:18.000Z</time>
      </trkpt>
      <trkpt lat="48.86681" lon="-0.41008">
        <ele>75.800003051758</ele>
        <time>2017-06-11T08:10:22.000Z</time>
      </trkpt>
      <trkpt lat="48.86677" lon="-0.4102">
        <ele>76.199996948242</ele>
        <time>2017-06-11T08:10:26.000Z</time>
      </trkpt>
      <trkpt lat="48.86675" lon="-0.41023">
        <ele>76.599998474121</ele>
        <time>2017-06-11T08:10:27.000Z</time>
      </trkpt>
      <trkpt lat="48.86674" lon="-0.41025">
        <ele>77</ele>
        <time>2017-06-11T08:10:28.000Z</time>
      </trkpt>
      <trkpt lat="48.86673" lon="-0.41028">
        <ele>77.599998474121</ele>
        <time>2017-06-11T08:10:29.000Z</time>
      </trkpt>
      <trkpt lat="48.86671" lon="-0.4103">
        <ele>78</ele>
        <time>2017-06-11T08:10:30.000Z</time>
      </trkpt>
      <trkpt lat="48.86666" lon="-0.4104">
        <ele>78</ele>
        <time>2017-06-11T08:10:34.000Z</time>
      </trkpt>
      <trkpt lat="48.86653" lon="-0.41063">
        <ele>78</ele>
        <time>2017-06-11T08:10:42.000Z</time>
      </trkpt>
      <trkpt lat="48.86649" lon="-0.41068">
        <ele>78.400001525879</ele>
        <time>2017-06-11T08:10:44.000Z</time>
      </trkpt>
      <trkpt lat="48.86648" lon="-0.41071">
        <ele>78.800003051758</ele>
        <time>2017-06-11T08:10:45.000Z</time>
      </trkpt>
      <trkpt lat="48.86646" lon="-0.41074">
        <ele>79.199996948242</ele>
        <time>2017-06-11T08:10:46.000Z</time>
      </trkpt>
      <trkpt lat="48.86644" lon="-0.41077">
        <ele>79.599998474121</ele>
        <time>2017-06-11T08:10:47.000Z</time>
      </trkpt>
      <trkpt lat="48.86643" lon="-0.4108">
        <ele>80</ele>
        <time>2017-06-11T08:10:48.000Z</time>
      </trkpt>
      <trkpt lat="48.86638" lon="-0.41087">
        <ele>80</ele>
        <time>2017-06-11T08:10:51.000Z</time>
      </trkpt>
      <trkpt lat="48.86628" lon="-0.41104">
        <ele>80</ele>
        <time>2017-06-11T08:10:57.000Z</time>
      </trkpt>
      <trkpt lat="48.86627" lon="-0.41107">
        <ele>80.400001525879</ele>
        <time>2017-06-11T08:10:58.000Z</time>
      </trkpt>
      <trkpt lat="48.86625" lon="-0.4111">
        <ele>80.800003051758</ele>
        <time>2017-06-11T08:10:59.000Z</time>
      </trkpt>
      <trkpt lat="48.86623" lon="-0.41112">
        <ele>81.400001525879</ele>
        <time>2017-06-11T08:11:00.000Z</time>
      </trkpt>
      <trkpt lat="48.86621" lon="-0.41115">
        <ele>81.800003051758</ele>
        <time>2017-06-11T08:11:01.000Z</time>
      </trkpt>
      <trkpt lat="48.8662" lon="-0.41118">
        <ele>82.199996948242</ele>
        <time>2017-06-11T08:11:02.000Z</time>
      </trkpt>
      <trkpt lat="48.86613" lon="-0.41128">
        <ele>82.199996948242</ele>
        <time>2017-06-11T08:11:06.000Z</time>
      </trkpt>
      <trkpt lat="48.86598" lon="-0.41147">
        <ele>82.599998474121</ele>
        <time>2017-06-11T08:11:14.000Z</time>
      </trkpt>
      <trkpt lat="48.86596" lon="-0.41149">
        <ele>83</ele>
        <time>2017-06-11T08:11:15.000Z</time>
      </trkpt>
      <trkpt lat="48.86594" lon="-0.4115">
        <ele>83.400001525879</ele>
        <time>2017-06-11T08:11:16.000Z</time>
      </trkpt>
      <trkpt lat="48.86592" lon="-0.41152">
        <ele>83.800003051758</ele>
        <time>2017-06-11T08:11:17.000Z</time>
      </trkpt>
      <trkpt lat="48.86589" lon="-0.41154">
        <ele>84.400001525879</ele>
        <time>2017-06-11T08:11:18.000Z</time>
      </trkpt>
      <trkpt lat="48.86579" lon="-0.41161">
        <ele>84.400001525879</ele>
        <time>2017-06-11T08:11:22.000Z</time>
      </trkpt>
      <trkpt lat="48.86555" lon="-0.41173">
        <ele>84.400001525879</ele>
        <time>2017-06-11T08:11:31.000Z</time>
      </trkpt>
      <trkpt lat="48.86536" lon="-0.41183">
        <ele>84.400001525879</ele>
        <time>2017-06-11T08:11:38.000Z</time>
      </trkpt>
      <trkpt lat="48.86523" lon="-0.41201">
        <ele>84.800003051758</ele>
        <time>2017-06-11T08:11:44.000Z</time>
      </trkpt>
      <trkpt lat="48.86522" lon="-0.41204">
        <ele>85.199996948242</ele>
        <time>2017-06-11T08:11:45.000Z</time>
      </trkpt>
      <trkpt lat="48.8652" lon="-0.41207">
        <ele>86</ele>
        <time>2017-06-11T08:11:46.000Z</time>
      </trkpt>
      <trkpt lat="48.86518" lon="-0.4121">
        <ele>86.400001525879</ele>
        <time>2017-06-11T08:11:47.000Z</time>
      </trkpt>
      <trkpt lat="48.86506" lon="-0.41223">
        <ele>86.400001525879</ele>
        <time>2017-06-11T08:11:52.000Z</time>
      </trkpt>
      <trkpt lat="48.86487" lon="-0.41239">
        <ele>86.400001525879</ele>
        <time>2017-06-11T08:11:59.000Z</time>
      </trkpt>
      <trkpt lat="48.86467" lon="-0.41249">
        <ele>86.400001525879</ele>
        <time>2017-06-11T08:12:06.000Z</time>
      </trkpt>
      <trkpt lat="48.86442" lon="-0.41265">
        <ele>86.400001525879</ele>
        <time>2017-06-11T08:12:15.000Z</time>
      </trkpt>
      <trkpt lat="48.86436" lon="-0.41274">
        <ele>86.800003051758</ele>
        <time>2017-06-11T08:12:18.000Z</time>
      </trkpt>
      <trkpt lat="48.86434" lon="-0.41277">
        <ele>87.199996948242</ele>
        <time>2017-06-11T08:12:19.000Z</time>
      </trkpt>
      <trkpt lat="48.86432" lon="-0.41281">
        <ele>87.800003051758</ele>
        <time>2017-06-11T08:12:20.000Z</time>
      </trkpt>
      <trkpt lat="48.8643" lon="-0.41284">
        <ele>88.199996948242</ele>
        <time>2017-06-11T08:12:21.000Z</time>
      </trkpt>
      <trkpt lat="48.86428" lon="-0.41288">
        <ele>88.599998474121</ele>
        <time>2017-06-11T08:12:22.000Z</time>
      </trkpt>
      <trkpt lat="48.86426" lon="-0.41292">
        <ele>88.599998474121</ele>
        <time>2017-06-11T08:12:23.000Z</time>
      </trkpt>
      <trkpt lat="48.86416" lon="-0.41314">
        <ele>88.599998474121</ele>
        <time>2017-06-11T08:12:29.000Z</time>
      </trkpt>
      <trkpt lat="48.864" lon="-0.41347">
        <ele>88.599998474121</ele>
        <time>2017-06-11T08:12:38.000Z</time>
      </trkpt>
      <trkpt lat="48.86399" lon="-0.41351">
        <ele>89</ele>
        <time>2017-06-11T08:12:39.000Z</time>
      </trkpt>
      <trkpt lat="48.86397" lon="-0.41355">
        <ele>89.400001525879</ele>
        <time>2017-06-11T08:12:40.000Z</time>
      </trkpt>
      <trkpt lat="48.86396" lon="-0.41359">
        <ele>89.800003051758</ele>
        <time>2017-06-11T08:12:41.000Z</time>
      </trkpt>
      <trkpt lat="48.86394" lon="-0.41363">
        <ele>90.199996948242</ele>
        <time>2017-06-11T08:12:42.000Z</time>
      </trkpt>
      <trkpt lat="48.86392" lon="-0.41366">
        <ele>90.599998474121</ele>
        <time>2017-06-11T08:12:43.000Z</time>
      </trkpt>
      <trkpt lat="48.8639" lon="-0.41373">
        <ele>90.599998474121</ele>
        <time>2017-06-11T08:12:45.000Z</time>
      </trkpt>
      <trkpt lat="48.86383" lon="-0.41392">
        <ele>91</ele>
        <time>2017-06-11T08:12:51.000Z</time>
      </trkpt>
      <trkpt lat="48.86382" lon="-0.41396">
        <ele>91.400001525879</ele>
        <time>2017-06-11T08:12:52.000Z</time>
      </trkpt>
      <trkpt lat="48.86381" lon="-0.41398">
        <ele>91.800003051758</ele>
        <time>2017-06-11T08:12:53.000Z</time>
      </trkpt>
      <trkpt lat="48.86379" lon="-0.41401">
        <ele>92.199996948242</ele>
        <time>2017-06-11T08:12:54.000Z</time>
      </trkpt>
      <trkpt lat="48.86378" lon="-0.41405">
        <ele>92.599998474121</ele>
        <time>2017-06-11T08:12:55.000Z</time>
      </trkpt>
      <trkpt lat="48.86373" lon="-0.41413">
        <ele>92.599998474121</ele>
        <time>2017-06-11T08:12:58.000Z</time>
      </trkpt>
      <trkpt lat="48.86359" lon="-0.41431">
        <ele>93</ele>
        <time>2017-06-11T08:13:05.000Z</time>
      </trkpt>
      <trkpt lat="48.86357" lon="-0.41433">
        <ele>93.400001525879</ele>
        <time>2017-06-11T08:13:06.000Z</time>
      </trkpt>
      <trkpt lat="48.86355" lon="-0.41435">
        <ele>93.800003051758</ele>
        <time>2017-06-11T08:13:07.000Z</time>
      </trkpt>
      <trkpt lat="48.86353" lon="-0.41437">
        <ele>94.199996948242</ele>
        <time>2017-06-11T08:13:08.000Z</time>
      </trkpt>
      <trkpt lat="48.86351" lon="-0.41439">
        <ele>94.599998474121</ele>
        <time>2017-06-11T08:13:09.000Z</time>
      </trkpt>
      <trkpt lat="48.86343" lon="-0.41448">
        <ele>94.599998474121</ele>
        <time>2017-06-11T08:13:13.000Z</time>
      </trkpt>
      <trkpt lat="48.8633" lon="-0.41463">
        <ele>94.599998474121</ele>
        <time>2017-06-11T08:13:19.000Z</time>
      </trkpt>
      <trkpt lat="48.86317" lon="-0.41466">
        <ele>94.599998474121</ele>
        <time>2017-06-11T08:13:25.000Z</time>
      </trkpt>
      <trkpt lat="48.86303" lon="-0.41446">
        <ele>94.599998474121</ele>
        <time>2017-06-11T08:13:31.000Z</time>
      </trkpt>
      <trkpt lat="48.86295" lon="-0.41432">
        <ele>94.599998474121</ele>
        <time>2017-06-11T08:13:34.000Z</time>
      </trkpt>
      <trkpt lat="48.86288" lon="-0.41419">
        <ele>94.599998474121</ele>
        <time>2017-06-11T08:13:37.000Z</time>
      </trkpt>
      <trkpt lat="48.8627" lon="-0.41393">
        <ele>94.599998474121</ele>
        <time>2017-06-11T08:13:44.000Z</time>
      </trkpt>
      <trkpt lat="48.86244" lon="-0.41365">
        <ele>94.599998474121</ele>
        <time>2017-06-11T08:13:53.000Z</time>
      </trkpt>
      <trkpt lat="48.86222" lon="-0.41338">
        <ele>94.599998474121</ele>
        <time>2017-06-11T08:14:01.000Z</time>
      </trkpt>
      <trkpt lat="48.86201" lon="-0.41314">
        <ele>94.599998474121</ele>
        <time>2017-06-11T08:14:09.000Z</time>
      </trkpt>
      <trkpt lat="48.86183" lon="-0.41292">
        <ele>94.599998474121</ele>
        <time>2017-06-11T08:14:16.000Z</time>
      </trkpt>
      <trkpt lat="48.86157" lon="-0.41266">
        <ele>94.599998474121</ele>
        <time>2017-06-11T08:14:23.000Z</time>
      </trkpt>
      <trkpt lat="48.86148" lon="-0.41259">
        <ele>94.599998474121</ele>
        <time>2017-06-11T08:14:25.000Z</time>
      </trkpt>
      <trkpt lat="48.86135" lon="-0.41252">
        <ele>94.199996948242</ele>
        <time>2017-06-11T08:14:28.000Z</time>
      </trkpt>
      <trkpt lat="48.8613" lon="-0.41249">
        <ele>93.599998474121</ele>
        <time>2017-06-11T08:14:29.000Z</time>
      </trkpt>
      <trkpt lat="48.86126" lon="-0.41245">
        <ele>93.199996948242</ele>
        <time>2017-06-11T08:14:30.000Z</time>
      </trkpt>
      <trkpt lat="48.86123" lon="-0.41238">
        <ele>92.800003051758</ele>
        <time>2017-06-11T08:14:31.000Z</time>
      </trkpt>
      <trkpt lat="48.86122" lon="-0.4123">
        <ele>92.199996948242</ele>
        <time>2017-06-11T08:14:32.000Z</time>
      </trkpt>
      <trkpt lat="48.86124" lon="-0.41207">
        <ele>92.199996948242</ele>
        <time>2017-06-11T08:14:35.000Z</time>
      </trkpt>
      <trkpt lat="48.86125" lon="-0.41201">
        <ele>92.199996948242</ele>
        <time>2017-06-11T08:14:36.000Z</time>
      </trkpt>
      <trkpt lat="48.86127" lon="-0.41182">
        <ele>92.199996948242</ele>
        <time>2017-06-11T08:14:40.000Z</time>
      </trkpt>
      <trkpt lat="48.86126" lon="-0.41152">
        <ele>92.199996948242</ele>
        <time>2017-06-11T08:14:47.000Z</time>
      </trkpt>
      <trkpt lat="48.86124" lon="-0.41144">
        <ele>92.199996948242</ele>
        <time>2017-06-11T08:14:50.000Z</time>
      </trkpt>
      <trkpt lat="48.86121" lon="-0.41143">
        <ele>92.199996948242</ele>
        <time>2017-06-11T08:14:52.000Z</time>
      </trkpt>
      <trkpt lat="48.86117" lon="-0.41147">
        <ele>92.199996948242</ele>
        <time>2017-06-11T08:14:55.000Z</time>
      </trkpt>
      <trkpt lat="48.86115" lon="-0.4115">
        <ele>92.199996948242</ele>
        <time>2017-06-11T08:14:57.000Z</time>
      </trkpt>
      <trkpt lat="48.86109" lon="-0.41159">
        <ele>92.599998474121</ele>
        <time>2017-06-11T08:15:02.000Z</time>
      </trkpt>
      <trkpt lat="48.86108" lon="-0.41161">
        <ele>93.599998474121</ele>
        <time>2017-06-11T08:15:03.000Z</time>
      </trkpt>
      <trkpt lat="48.86106" lon="-0.41163">
        <ele>94</ele>
        <time>2017-06-11T08:15:04.000Z</time>
      </trkpt>
      <trkpt lat="48.86104" lon="-0.41165">
        <ele>94.400001525879</ele>
        <time>2017-06-11T08:15:05.000Z</time>
      </trkpt>
      <trkpt lat="48.86093" lon="-0.41181">
        <ele>94.400001525879</ele>
        <time>2017-06-11T08:15:11.000Z</time>
      </trkpt>
      <trkpt lat="48.86083" lon="-0.41195">
        <ele>94.400001525879</ele>
        <time>2017-06-11T08:15:18.000Z</time>
      </trkpt>
      <trkpt lat="48.86081" lon="-0.41199">
        <ele>94.800003051758</ele>
        <time>2017-06-11T08:15:20.000Z</time>
      </trkpt>
      <trkpt lat="48.8608" lon="-0.41201">
        <ele>95.199996948242</ele>
        <time>2017-06-11T08:15:21.000Z</time>
      </trkpt>
      <trkpt lat="48.86079" lon="-0.41203">
        <ele>95.599998474121</ele>
        <time>2017-06-11T08:15:22.000Z</time>
      </trkpt>
      <trkpt lat="48.86077" lon="-0.41204">
        <ele>96</ele>
        <time>2017-06-11T08:15:23.000Z</time>
      </trkpt>
      <trkpt lat="48.86076" lon="-0.41206">
        <ele>96.400001525879</ele>
        <time>2017-06-11T08:15:24.000Z</time>
      </trkpt>
      <trkpt lat="48.86073" lon="-0.41212">
        <ele>96.400001525879</ele>
        <time>2017-06-11T08:15:27.000Z</time>
      </trkpt>
      <trkpt lat="48.86071" lon="-0.41218">
        <ele>96.400001525879</ele>
        <time>2017-06-11T08:15:30.000Z</time>
      </trkpt>
      <trkpt lat="48.86064" lon="-0.41232">
        <ele>96.800003051758</ele>
        <time>2017-06-11T08:15:36.000Z</time>
      </trkpt>
      <trkpt lat="48.86062" lon="-0.41234">
        <ele>97.199996948242</ele>
        <time>2017-06-11T08:15:37.000Z</time>
      </trkpt>
      <trkpt lat="48.86061" lon="-0.41236">
        <ele>97.599998474121</ele>
        <time>2017-06-11T08:15:38.000Z</time>
      </trkpt>
      <trkpt lat="48.86059" lon="-0.41236">
        <ele>98</ele>
        <time>2017-06-11T08:15:39.000Z</time>
      </trkpt>
      <trkpt lat="48.86057" lon="-0.41236">
        <ele>98.400001525879</ele>
        <time>2017-06-11T08:15:40.000Z</time>
      </trkpt>
      <trkpt lat="48.86055" lon="-0.41235">
        <ele>98.400001525879</ele>
        <time>2017-06-11T08:15:41.000Z</time>
      </trkpt>
      <trkpt lat="48.86042" lon="-0.41227">
        <ele>98.400001525879</ele>
        <time>2017-06-11T08:15:48.000Z</time>
      </trkpt>
      <trkpt lat="48.86029" lon="-0.41219">
        <ele>99</ele>
        <time>2017-06-11T08:15:55.000Z</time>
      </trkpt>
      <trkpt lat="48.86027" lon="-0.41218">
        <ele>99.400001525879</ele>
        <time>2017-06-11T08:15:56.000Z</time>
      </trkpt>
      <trkpt lat="48.86026" lon="-0.41217">
        <ele>99.800003051758</ele>
        <time>2017-06-11T08:15:57.000Z</time>
      </trkpt>
      <trkpt lat="48.86025" lon="-0.41215">
        <ele>100.19999694824</ele>
        <time>2017-06-11T08:15:58.000Z</time>
      </trkpt>
      <trkpt lat="48.86023" lon="-0.41214">
        <ele>100.59999847412</ele>
        <time>2017-06-11T08:15:59.000Z</time>
      </trkpt>
      <trkpt lat="48.86016" lon="-0.41208">
        <ele>100.59999847412</ele>
        <time>2017-06-11T08:16:02.000Z</time>
      </trkpt>
      <trkpt lat="48.85998" lon="-0.41197">
        <ele>100.59999847412</ele>
        <time>2017-06-11T08:16:09.000Z</time>
      </trkpt>
      <trkpt lat="48.85985" lon="-0.41189">
        <ele>101</ele>
        <time>2017-06-11T08:16:15.000Z</time>
      </trkpt>
      <trkpt lat="48.85982" lon="-0.41189">
        <ele>101.40000152588</ele>
        <time>2017-06-11T08:16:16.000Z</time>
      </trkpt>
      <trkpt lat="48.8598" lon="-0.4119">
        <ele>102.19999694824</ele>
        <time>2017-06-11T08:16:17.000Z</time>
      </trkpt>
      <trkpt lat="48.85978" lon="-0.41192">
        <ele>102.59999847412</ele>
        <time>2017-06-11T08:16:18.000Z</time>
      </trkpt>
      <trkpt lat="48.85973" lon="-0.41199">
        <ele>102.59999847412</ele>
        <time>2017-06-11T08:16:21.000Z</time>
      </trkpt>
      <trkpt lat="48.85964" lon="-0.41209">
        <ele>103</ele>
        <time>2017-06-11T08:16:27.000Z</time>
      </trkpt>
      <trkpt lat="48.85961" lon="-0.41208">
        <ele>103.59999847412</ele>
        <time>2017-06-11T08:16:28.000Z</time>
      </trkpt>
      <trkpt lat="48.8596" lon="-0.41209">
        <ele>104</ele>
        <time>2017-06-11T08:16:29.000Z</time>
      </trkpt>
      <trkpt lat="48.85957" lon="-0.41209">
        <ele>104.40000152588</ele>
        <time>2017-06-11T08:16:30.000Z</time>
      </trkpt>
      <trkpt lat="48.85954" lon="-0.41209">
        <ele>104.80000305176</ele>
        <time>2017-06-11T08:16:31.000Z</time>
      </trkpt>
      <trkpt lat="48.85949" lon="-0.41209">
        <ele>104.80000305176</ele>
        <time>2017-06-11T08:16:33.000Z</time>
      </trkpt>
      <trkpt lat="48.85928" lon="-0.41211">
        <ele>105.59999847412</ele>
        <time>2017-06-11T08:16:42.000Z</time>
      </trkpt>
      <trkpt lat="48.85926" lon="-0.41211">
        <ele>106</ele>
        <time>2017-06-11T08:16:43.000Z</time>
      </trkpt>
      <trkpt lat="48.85924" lon="-0.41211">
        <ele>106.40000152588</ele>
        <time>2017-06-11T08:16:44.000Z</time>
      </trkpt>
      <trkpt lat="48.85922" lon="-0.41212">
        <ele>106.80000305176</ele>
        <time>2017-06-11T08:16:45.000Z</time>
      </trkpt>
      <trkpt lat="48.85914" lon="-0.41214">
        <ele>106.80000305176</ele>
        <time>2017-06-11T08:16:49.000Z</time>
      </trkpt>
      <trkpt lat="48.85903" lon="-0.41218">
        <ele>107.19999694824</ele>
        <time>2017-06-11T08:16:55.000Z</time>
      </trkpt>
      <trkpt lat="48.85901" lon="-0.41218">
        <ele>107.59999847412</ele>
        <time>2017-06-11T08:16:56.000Z</time>
      </trkpt>
      <trkpt lat="48.85899" lon="-0.41219">
        <ele>108</ele>
        <time>2017-06-11T08:16:57.000Z</time>
      </trkpt>
      <trkpt lat="48.85897" lon="-0.41219">
        <ele>108.40000152588</ele>
        <time>2017-06-11T08:16:58.000Z</time>
      </trkpt>
      <trkpt lat="48.85895" lon="-0.4122">
        <ele>108.80000305176</ele>
        <time>2017-06-11T08:16:59.000Z</time>
      </trkpt>
      <trkpt lat="48.85885" lon="-0.41221">
        <ele>108.80000305176</ele>
        <time>2017-06-11T08:17:03.000Z</time>
      </trkpt>
      <trkpt lat="48.8587" lon="-0.41227">
        <ele>108.80000305176</ele>
        <time>2017-06-11T08:17:09.000Z</time>
      </trkpt>
      <trkpt lat="48.85858" lon="-0.41231">
        <ele>108.80000305176</ele>
        <time>2017-06-11T08:17:14.000Z</time>
      </trkpt>
      <trkpt lat="48.85854" lon="-0.41232">
        <ele>109.19999694824</ele>
        <time>2017-06-11T08:17:16.000Z</time>
      </trkpt>
      <trkpt lat="48.85852" lon="-0.41233">
        <ele>109.59999847412</ele>
        <time>2017-06-11T08:17:17.000Z</time>
      </trkpt>
      <trkpt lat="48.8585" lon="-0.41233">
        <ele>110</ele>
        <time>2017-06-11T08:17:18.000Z</time>
      </trkpt>
      <trkpt lat="48.85848" lon="-0.41234">
        <ele>110.40000152588</ele>
        <time>2017-06-11T08:17:19.000Z</time>
      </trkpt>
      <trkpt lat="48.85846" lon="-0.41234">
        <ele>110.80000305176</ele>
        <time>2017-06-11T08:17:20.000Z</time>
      </trkpt>
      <trkpt lat="48.85841" lon="-0.41236">
        <ele>110.80000305176</ele>
        <time>2017-06-11T08:17:22.000Z</time>
      </trkpt>
      <trkpt lat="48.8582" lon="-0.41244">
        <ele>110.80000305176</ele>
        <time>2017-06-11T08:17:30.000Z</time>
      </trkpt>
      <trkpt lat="48.85803" lon="-0.4125">
        <ele>110.80000305176</ele>
        <time>2017-06-11T08:17:37.000Z</time>
      </trkpt>
      <trkpt lat="48.8578" lon="-0.41257">
        <ele>110.80000305176</ele>
        <time>2017-06-11T08:17:46.000Z</time>
      </trkpt>
      <trkpt lat="48.85767" lon="-0.41259">
        <ele>111.19999694824</ele>
        <time>2017-06-11T08:17:50.000Z</time>
      </trkpt>
      <trkpt lat="48.85763" lon="-0.4126">
        <ele>111.59999847412</ele>
        <time>2017-06-11T08:17:51.000Z</time>
      </trkpt>
      <trkpt lat="48.8576" lon="-0.41261">
        <ele>112.19999694824</ele>
        <time>2017-06-11T08:17:52.000Z</time>
      </trkpt>
      <trkpt lat="48.85757" lon="-0.41261">
        <ele>112.59999847412</ele>
        <time>2017-06-11T08:17:53.000Z</time>
      </trkpt>
      <trkpt lat="48.85754" lon="-0.41262">
        <ele>113</ele>
        <time>2017-06-11T08:17:54.000Z</time>
      </trkpt>
      <trkpt lat="48.85742" lon="-0.41269">
        <ele>113</ele>
        <time>2017-06-11T08:17:59.000Z</time>
      </trkpt>
      <trkpt lat="48.85723" lon="-0.41284">
        <ele>113</ele>
        <time>2017-06-11T08:18:06.000Z</time>
      </trkpt>
      <trkpt lat="48.85707" lon="-0.4128">
        <ele>113</ele>
        <time>2017-06-11T08:18:12.000Z</time>
      </trkpt>
      <trkpt lat="48.85687" lon="-0.41275">
        <ele>113</ele>
        <time>2017-06-11T08:18:19.000Z</time>
      </trkpt>
      <trkpt lat="48.85672" lon="-0.41267">
        <ele>113</ele>
        <time>2017-06-11T08:18:25.000Z</time>
      </trkpt>
      <trkpt lat="48.85654" lon="-0.41255">
        <ele>113</ele>
        <time>2017-06-11T08:18:31.000Z</time>
      </trkpt>
      <trkpt lat="48.85636" lon="-0.41242">
        <ele>113</ele>
        <time>2017-06-11T08:18:37.000Z</time>
      </trkpt>
      <trkpt lat="48.85617" lon="-0.41228">
        <ele>113</ele>
        <time>2017-06-11T08:18:43.000Z</time>
      </trkpt>
      <trkpt lat="48.8561" lon="-0.41226">
        <ele>113.40000152588</ele>
        <time>2017-06-11T08:18:45.000Z</time>
      </trkpt>
      <trkpt lat="48.85606" lon="-0.41224">
        <ele>113.80000305176</ele>
        <time>2017-06-11T08:18:46.000Z</time>
      </trkpt>
      <trkpt lat="48.85603" lon="-0.41223">
        <ele>114.19999694824</ele>
        <time>2017-06-11T08:18:47.000Z</time>
      </trkpt>
      <trkpt lat="48.85599" lon="-0.41222">
        <ele>114.59999847412</ele>
        <time>2017-06-11T08:18:48.000Z</time>
      </trkpt>
      <trkpt lat="48.85595" lon="-0.4122">
        <ele>115</ele>
        <time>2017-06-11T08:18:49.000Z</time>
      </trkpt>
      <trkpt lat="48.85569" lon="-0.41212">
        <ele>115</ele>
        <time>2017-06-11T08:18:57.000Z</time>
      </trkpt>
      <trkpt lat="48.85553" lon="-0.4121">
        <ele>115</ele>
        <time>2017-06-11T08:19:01.000Z</time>
      </trkpt>
      <trkpt lat="48.85535" lon="-0.41209">
        <ele>115</ele>
        <time>2017-06-11T08:19:07.000Z</time>
      </trkpt>
      <trkpt lat="48.85517" lon="-0.41202">
        <ele>115</ele>
        <time>2017-06-11T08:19:13.000Z</time>
      </trkpt>
      <trkpt lat="48.85512" lon="-0.41198">
        <ele>115.40000152588</ele>
        <time>2017-06-11T08:19:15.000Z</time>
      </trkpt>
      <trkpt lat="48.85509" lon="-0.41197">
        <ele>115.80000305176</ele>
        <time>2017-06-11T08:19:16.000Z</time>
      </trkpt>
      <trkpt lat="48.85506" lon="-0.41195">
        <ele>116.19999694824</ele>
        <time>2017-06-11T08:19:17.000Z</time>
      </trkpt>
      <trkpt lat="48.85503" lon="-0.41193">
        <ele>116.59999847412</ele>
        <time>2017-06-11T08:19:18.000Z</time>
      </trkpt>
      <trkpt lat="48.85499" lon="-0.41191">
        <ele>117</ele>
        <time>2017-06-11T08:19:19.000Z</time>
      </trkpt>
      <trkpt lat="48.85496" lon="-0.41188">
        <ele>117</ele>
        <time>2017-06-11T08:19:20.000Z</time>
      </trkpt>
      <trkpt lat="48.85479" lon="-0.41176">
        <ele>117</ele>
        <time>2017-06-11T08:19:25.000Z</time>
      </trkpt>
      <trkpt lat="48.85453" lon="-0.41154">
        <ele>117</ele>
        <time>2017-06-11T08:19:34.000Z</time>
      </trkpt>
      <trkpt lat="48.85433" lon="-0.41138">
        <ele>117</ele>
        <time>2017-06-11T08:19:41.000Z</time>
      </trkpt>
      <trkpt lat="48.85428" lon="-0.41133">
        <ele>117.40000152588</ele>
        <time>2017-06-11T08:19:43.000Z</time>
      </trkpt>
      <trkpt lat="48.85425" lon="-0.41131">
        <ele>117.80000305176</ele>
        <time>2017-06-11T08:19:44.000Z</time>
      </trkpt>
      <trkpt lat="48.85423" lon="-0.41129">
        <ele>118.19999694824</ele>
        <time>2017-06-11T08:19:45.000Z</time>
      </trkpt>
      <trkpt lat="48.8542" lon="-0.41128">
        <ele>118.59999847412</ele>
        <time>2017-06-11T08:19:46.000Z</time>
      </trkpt>
      <trkpt lat="48.85417" lon="-0.41125">
        <ele>119</ele>
        <time>2017-06-11T08:19:47.000Z</time>
      </trkpt>
      <trkpt lat="48.85395" lon="-0.41111">
        <ele>119</ele>
        <time>2017-06-11T08:19:55.000Z</time>
      </trkpt>
      <trkpt lat="48.85378" lon="-0.41102">
        <ele>119</ele>
        <time>2017-06-11T08:20:01.000Z</time>
      </trkpt>
      <trkpt lat="48.85376" lon="-0.41102">
        <ele>119</ele>
        <time>2017-06-11T08:20:05.000Z</time>
      </trkpt>
      <trkpt lat="48.85367" lon="-0.41101">
        <ele>119</ele>
        <time>2017-06-11T08:20:09.000Z</time>
      </trkpt>
      <trkpt lat="48.85353" lon="-0.41109">
        <ele>119</ele>
        <time>2017-06-11T08:20:15.000Z</time>
      </trkpt>
      <trkpt lat="48.85343" lon="-0.41126">
        <ele>119</ele>
        <time>2017-06-11T08:20:21.000Z</time>
      </trkpt>
      <trkpt lat="48.85336" lon="-0.41142">
        <ele>119.40000152588</ele>
        <time>2017-06-11T08:20:26.000Z</time>
      </trkpt>
      <trkpt lat="48.85334" lon="-0.41145">
        <ele>120</ele>
        <time>2017-06-11T08:20:27.000Z</time>
      </trkpt>
      <trkpt lat="48.85333" lon="-0.41149">
        <ele>120.40000152588</ele>
        <time>2017-06-11T08:20:28.000Z</time>
      </trkpt>
      <trkpt lat="48.85332" lon="-0.41152">
        <ele>120.80000305176</ele>
        <time>2017-06-11T08:20:29.000Z</time>
      </trkpt>
      <trkpt lat="48.8533" lon="-0.41155">
        <ele>121.19999694824</ele>
        <time>2017-06-11T08:20:30.000Z</time>
      </trkpt>
      <trkpt lat="48.85324" lon="-0.41173">
        <ele>121.19999694824</ele>
        <time>2017-06-11T08:20:35.000Z</time>
      </trkpt>
      <trkpt lat="48.85315" lon="-0.4119">
        <ele>121.19999694824</ele>
        <time>2017-06-11T08:20:40.000Z</time>
      </trkpt>
      <trkpt lat="48.85312" lon="-0.41192">
        <ele>121.59999847412</ele>
        <time>2017-06-11T08:20:41.000Z</time>
      </trkpt>
      <trkpt lat="48.8531" lon="-0.41195">
        <ele>122</ele>
        <time>2017-06-11T08:20:42.000Z</time>
      </trkpt>
      <trkpt lat="48.85308" lon="-0.41198">
        <ele>122.59999847412</ele>
        <time>2017-06-11T08:20:43.000Z</time>
      </trkpt>
      <trkpt lat="48.85307" lon="-0.41201">
        <ele>123</ele>
        <time>2017-06-11T08:20:44.000Z</time>
      </trkpt>
      <trkpt lat="48.85306" lon="-0.41204">
        <ele>123.40000152588</ele>
        <time>2017-06-11T08:20:45.000Z</time>
      </trkpt>
      <trkpt lat="48.85304" lon="-0.41206">
        <ele>123.40000152588</ele>
        <time>2017-06-11T08:20:46.000Z</time>
      </trkpt>
      <trkpt lat="48.85299" lon="-0.41206">
        <ele>123.40000152588</ele>
        <time>2017-06-11T08:20:49.000Z</time>
      </trkpt>
      <trkpt lat="48.85295" lon="-0.41203">
        <ele>123.40000152588</ele>
        <time>2017-06-11T08:20:51.000Z</time>
      </trkpt>
      <trkpt lat="48.85292" lon="-0.41202">
        <ele>123.40000152588</ele>
        <time>2017-06-11T08:20:54.000Z</time>
      </trkpt>
      <trkpt lat="48.85292" lon="-0.41202">
        <ele>123.40000152588</ele>
        <time>2017-06-11T08:21:00.000Z</time>
      </trkpt>
      <trkpt lat="48.85284" lon="-0.41205">
        <ele>123.40000152588</ele>
        <time>2017-06-11T08:21:06.000Z</time>
      </trkpt>
      <trkpt lat="48.85279" lon="-0.41205">
        <ele>123.40000152588</ele>
        <time>2017-06-11T08:21:08.000Z</time>
      </trkpt>
      <trkpt lat="48.85273" lon="-0.41199">
        <ele>123.40000152588</ele>
        <time>2017-06-11T08:21:11.000Z</time>
      </trkpt>
      <trkpt lat="48.85266" lon="-0.41188">
        <ele>123.40000152588</ele>
        <time>2017-06-11T08:21:14.000Z</time>
      </trkpt>
      <trkpt lat="48.85263" lon="-0.41184">
        <ele>123.40000152588</ele>
        <time>2017-06-11T08:21:16.000Z</time>
      </trkpt>
      <trkpt lat="48.85264" lon="-0.41185">
        <ele>123.40000152588</ele>
        <time>2017-06-11T08:21:19.000Z</time>
      </trkpt>
      <trkpt lat="48.85265" lon="-0.41185">
        <ele>123.40000152588</ele>
        <time>2017-06-11T08:21:20.000Z</time>
      </trkpt>
      <trkpt lat="48.85272" lon="-0.41194">
        <ele>123.40000152588</ele>
        <time>2017-06-11T08:21:26.000Z</time>
      </trkpt>
      <trkpt lat="48.85275" lon="-0.41198">
        <ele>123</ele>
        <time>2017-06-11T08:21:31.000Z</time>
      </trkpt>
      <trkpt lat="48.85275" lon="-0.41198">
        <ele>122.59999847412</ele>
        <time>2017-06-11T08:21:32.000Z</time>
      </trkpt>
      <trkpt lat="48.85275" lon="-0.41198">
        <ele>122.19999694824</ele>
        <time>2017-06-11T08:21:33.000Z</time>
      </trkpt>
      <trkpt lat="48.85275" lon="-0.41198">
        <ele>121.80000305176</ele>
        <time>2017-06-11T08:21:34.000Z</time>
      </trkpt>
      <trkpt lat="48.85275" lon="-0.41198">
        <ele>121.40000152588</ele>
        <time>2017-06-11T08:21:35.000Z</time>
      </trkpt>
      <trkpt lat="48.85275" lon="-0.41199">
        <ele>121.80000305176</ele>
        <time>2017-06-11T08:21:37.000Z</time>
      </trkpt>
      <trkpt lat="48.85276" lon="-0.41201">
        <ele>122.59999847412</ele>
        <time>2017-06-11T08:21:38.000Z</time>
      </trkpt>
      <trkpt lat="48.85277" lon="-0.41202">
        <ele>123.19999694824</ele>
        <time>2017-06-11T08:21:39.000Z</time>
      </trkpt>
      <trkpt lat="48.85277" lon="-0.41204">
        <ele>123.59999847412</ele>
        <time>2017-06-11T08:21:40.000Z</time>
      </trkpt>
      <trkpt lat="48.85276" lon="-0.41214">
        <ele>123.59999847412</ele>
        <time>2017-06-11T08:21:43.000Z</time>
      </trkpt>
      <trkpt lat="48.85273" lon="-0.41228">
        <ele>123.59999847412</ele>
        <time>2017-06-11T08:21:47.000Z</time>
      </trkpt>
      <trkpt lat="48.85271" lon="-0.41237">
        <ele>123.59999847412</ele>
        <time>2017-06-11T08:21:49.000Z</time>
      </trkpt>
      <trkpt lat="48.85269" lon="-0.41253">
        <ele>123.59999847412</ele>
        <time>2017-06-11T08:21:55.000Z</time>
      </trkpt>
      <trkpt lat="48.85267" lon="-0.41255">
        <ele>123.59999847412</ele>
        <time>2017-06-11T08:21:57.000Z</time>
      </trkpt>
      <trkpt lat="48.85262" lon="-0.41255">
        <ele>123.59999847412</ele>
        <time>2017-06-11T08:21:59.000Z</time>
      </trkpt>
      <trkpt lat="48.85245" lon="-0.41252">
        <ele>123.19999694824</ele>
        <time>2017-06-11T08:22:03.000Z</time>
      </trkpt>
      <trkpt lat="48.85239" lon="-0.41251">
        <ele>122.80000305176</ele>
        <time>2017-06-11T08:22:04.000Z</time>
      </trkpt>
      <trkpt lat="48.85234" lon="-0.41251">
        <ele>122.40000152588</ele>
        <time>2017-06-11T08:22:05.000Z</time>
      </trkpt>
      <trkpt lat="48.85229" lon="-0.41248">
        <ele>122</ele>
        <time>2017-06-11T08:22:06.000Z</time>
      </trkpt>
      <trkpt lat="48.85222" lon="-0.41245">
        <ele>121.59999847412</ele>
        <time>2017-06-11T08:22:07.000Z</time>
      </trkpt>
      <trkpt lat="48.85216" lon="-0.4124">
        <ele>121</ele>
        <time>2017-06-11T08:22:08.000Z</time>
      </trkpt>
      <trkpt lat="48.8521" lon="-0.41239">
        <ele>120.59999847412</ele>
        <time>2017-06-11T08:22:09.000Z</time>
      </trkpt>
      <trkpt lat="48.85202" lon="-0.41236">
        <ele>120.19999694824</ele>
        <time>2017-06-11T08:22:10.000Z</time>
      </trkpt>
      <trkpt lat="48.85195" lon="-0.41235">
        <ele>119.80000305176</ele>
        <time>2017-06-11T08:22:11.000Z</time>
      </trkpt>
      <trkpt lat="48.85188" lon="-0.41234">
        <ele>119.19999694824</ele>
        <time>2017-06-11T08:22:12.000Z</time>
      </trkpt>
      <trkpt lat="48.8518" lon="-0.41235">
        <ele>118.59999847412</ele>
        <time>2017-06-11T08:22:13.000Z</time>
      </trkpt>
      <trkpt lat="48.85173" lon="-0.41237">
        <ele>118.19999694824</ele>
        <time>2017-06-11T08:22:14.000Z</time>
      </trkpt>
      <trkpt lat="48.85167" lon="-0.41241">
        <ele>117.59999847412</ele>
        <time>2017-06-11T08:22:15.000Z</time>
      </trkpt>
      <trkpt lat="48.85161" lon="-0.41244">
        <ele>117</ele>
        <time>2017-06-11T08:22:16.000Z</time>
      </trkpt>
      <trkpt lat="48.85155" lon="-0.41247">
        <ele>116.40000152588</ele>
        <time>2017-06-11T08:22:17.000Z</time>
      </trkpt>
      <trkpt lat="48.85148" lon="-0.41247">
        <ele>115.80000305176</ele>
        <time>2017-06-11T08:22:18.000Z</time>
      </trkpt>
      <trkpt lat="48.85142" lon="-0.41248">
        <ele>115.19999694824</ele>
        <time>2017-06-11T08:22:19.000Z</time>
      </trkpt>
      <trkpt lat="48.85135" lon="-0.41247">
        <ele>114.59999847412</ele>
        <time>2017-06-11T08:22:20.000Z</time>
      </trkpt>
      <trkpt lat="48.85128" lon="-0.41246">
        <ele>113.80000305176</ele>
        <time>2017-06-11T08:22:21.000Z</time>
      </trkpt>
      <trkpt lat="48.85122" lon="-0.41244">
        <ele>113.19999694824</ele>
        <time>2017-06-11T08:22:22.000Z</time>
      </trkpt>
      <trkpt lat="48.85115" lon="-0.4124">
        <ele>112.40000152588</ele>
        <time>2017-06-11T08:22:23.000Z</time>
      </trkpt>
      <trkpt lat="48.85108" lon="-0.41235">
        <ele>111.80000305176</ele>
        <time>2017-06-11T08:22:24.000Z</time>
      </trkpt>
      <trkpt lat="48.85102" lon="-0.41228">
        <ele>111</ele>
        <time>2017-06-11T08:22:25.000Z</time>
      </trkpt>
      <trkpt lat="48.85096" lon="-0.4122">
        <ele>110.40000152588</ele>
        <time>2017-06-11T08:22:26.000Z</time>
      </trkpt>
      <trkpt lat="48.85091" lon="-0.41213">
        <ele>109</ele>
        <time>2017-06-11T08:22:27.000Z</time>
      </trkpt>
      <trkpt lat="48.85087" lon="-0.41203">
        <ele>108.40000152588</ele>
        <time>2017-06-11T08:22:28.000Z</time>
      </trkpt>
      <trkpt lat="48.85083" lon="-0.41194">
        <ele>108.40000152588</ele>
        <time>2017-06-11T08:22:29.000Z</time>
      </trkpt>
      <trkpt lat="48.85081" lon="-0.41183">
        <ele>107.80000305176</ele>
        <time>2017-06-11T08:22:30.000Z</time>
      </trkpt>
      <trkpt lat="48.85079" lon="-0.41173">
        <ele>107.40000152588</ele>
        <time>2017-06-11T08:22:31.000Z</time>
      </trkpt>
      <trkpt lat="48.85077" lon="-0.41163">
        <ele>107</ele>
        <time>2017-06-11T08:22:32.000Z</time>
      </trkpt>
      <trkpt lat="48.85074" lon="-0.41153">
        <ele>106.59999847412</ele>
        <time>2017-06-11T08:22:33.000Z</time>
      </trkpt>
      <trkpt lat="48.85071" lon="-0.41144">
        <ele>106</ele>
        <time>2017-06-11T08:22:34.000Z</time>
      </trkpt>
      <trkpt lat="48.85057" lon="-0.41115">
        <ele>106</ele>
        <time>2017-06-11T08:22:38.000Z</time>
      </trkpt>
      <trkpt lat="48.85043" lon="-0.41105">
        <ele>106</ele>
        <time>2017-06-11T08:22:41.000Z</time>
      </trkpt>
      <trkpt lat="48.85038" lon="-0.41103">
        <ele>106</ele>
        <time>2017-06-11T08:22:42.000Z</time>
      </trkpt>
      <trkpt lat="48.85009" lon="-0.41098">
        <ele>106</ele>
        <time>2017-06-11T08:22:48.000Z</time>
      </trkpt>
      <trkpt lat="48.85005" lon="-0.41098">
        <ele>106</ele>
        <time>2017-06-11T08:22:49.000Z</time>
      </trkpt>
      <trkpt lat="48.84992" lon="-0.41097">
        <ele>107</ele>
        <time>2017-06-11T08:22:52.000Z</time>
      </trkpt>
      <trkpt lat="48.84989" lon="-0.41095">
        <ele>107.40000152588</ele>
        <time>2017-06-11T08:22:53.000Z</time>
      </trkpt>
      <trkpt lat="48.84985" lon="-0.41094">
        <ele>107.80000305176</ele>
        <time>2017-06-11T08:22:54.000Z</time>
      </trkpt>
      <trkpt lat="48.84981" lon="-0.41093">
        <ele>108.19999694824</ele>
        <time>2017-06-11T08:22:55.000Z</time>
      </trkpt>
      <trkpt lat="48.84961" lon="-0.41083">
        <ele>108.19999694824</ele>
        <time>2017-06-11T08:23:00.000Z</time>
      </trkpt>
      <trkpt lat="48.84937" lon="-0.41065">
        <ele>108.19999694824</ele>
        <time>2017-06-11T08:23:06.000Z</time>
      </trkpt>
      <trkpt lat="48.84929" lon="-0.41057">
        <ele>108.19999694824</ele>
        <time>2017-06-11T08:23:08.000Z</time>
      </trkpt>
      <trkpt lat="48.84918" lon="-0.41047">
        <ele>108.19999694824</ele>
        <time>2017-06-11T08:23:11.000Z</time>
      </trkpt>
      <trkpt lat="48.84907" lon="-0.41037">
        <ele>108.59999847412</ele>
        <time>2017-06-11T08:23:14.000Z</time>
      </trkpt>
      <trkpt lat="48.84903" lon="-0.41034">
        <ele>109</ele>
        <time>2017-06-11T08:23:15.000Z</time>
      </trkpt>
      <trkpt lat="48.84899" lon="-0.41031">
        <ele>109.80000305176</ele>
        <time>2017-06-11T08:23:16.000Z</time>
      </trkpt>
      <trkpt lat="48.84895" lon="-0.41027">
        <ele>110.19999694824</ele>
        <time>2017-06-11T08:23:17.000Z</time>
      </trkpt>
      <trkpt lat="48.8488" lon="-0.41014">
        <ele>110.19999694824</ele>
        <time>2017-06-11T08:23:21.000Z</time>
      </trkpt>
      <trkpt lat="48.8485" lon="-0.40994">
        <ele>110.19999694824</ele>
        <time>2017-06-11T08:23:28.000Z</time>
      </trkpt>
      <trkpt lat="48.84823" lon="-0.40971">
        <ele>110.19999694824</ele>
        <time>2017-06-11T08:23:33.000Z</time>
      </trkpt>
      <trkpt lat="48.848" lon="-0.4094">
        <ele>110.19999694824</ele>
        <time>2017-06-11T08:23:37.000Z</time>
      </trkpt>
      <trkpt lat="48.84789" lon="-0.40919">
        <ele>109.80000305176</ele>
        <time>2017-06-11T08:23:39.000Z</time>
      </trkpt>
      <trkpt lat="48.84784" lon="-0.40908">
        <ele>108.80000305176</ele>
        <time>2017-06-11T08:23:40.000Z</time>
      </trkpt>
      <trkpt lat="48.8478" lon="-0.40896">
        <ele>108.40000152588</ele>
        <time>2017-06-11T08:23:41.000Z</time>
      </trkpt>
      <trkpt lat="48.84776" lon="-0.40884">
        <ele>108</ele>
        <time>2017-06-11T08:23:42.000Z</time>
      </trkpt>
      <trkpt lat="48.84765" lon="-0.40851">
        <ele>107.59999847412</ele>
        <time>2017-06-11T08:23:45.000Z</time>
      </trkpt>
      <trkpt lat="48.84762" lon="-0.4084">
        <ele>107.19999694824</ele>
        <time>2017-06-11T08:23:46.000Z</time>
      </trkpt>
      <trkpt lat="48.84758" lon="-0.40831">
        <ele>106.80000305176</ele>
        <time>2017-06-11T08:23:47.000Z</time>
      </trkpt>
      <trkpt lat="48.84754" lon="-0.40822">
        <ele>106.40000152588</ele>
        <time>2017-06-11T08:23:48.000Z</time>
      </trkpt>
      <trkpt lat="48.84749" lon="-0.40815">
        <ele>105.80000305176</ele>
        <time>2017-06-11T08:23:49.000Z</time>
      </trkpt>
      <trkpt lat="48.84745" lon="-0.40809">
        <ele>105.80000305176</ele>
        <time>2017-06-11T08:23:50.000Z</time>
      </trkpt>
      <trkpt lat="48.84737" lon="-0.40799">
        <ele>105.80000305176</ele>
        <time>2017-06-11T08:23:52.000Z</time>
      </trkpt>
      <trkpt lat="48.84714" lon="-0.40774">
        <ele>105.80000305176</ele>
        <time>2017-06-11T08:23:58.000Z</time>
      </trkpt>
      <trkpt lat="48.84705" lon="-0.40765">
        <ele>106.40000152588</ele>
        <time>2017-06-11T08:24:01.000Z</time>
      </trkpt>
      <trkpt lat="48.84702" lon="-0.40762">
        <ele>106.80000305176</ele>
        <time>2017-06-11T08:24:02.000Z</time>
      </trkpt>
      <trkpt lat="48.84699" lon="-0.40758">
        <ele>107.19999694824</ele>
        <time>2017-06-11T08:24:03.000Z</time>
      </trkpt>
      <trkpt lat="48.84696" lon="-0.40755">
        <ele>107.59999847412</ele>
        <time>2017-06-11T08:24:04.000Z</time>
      </trkpt>
      <trkpt lat="48.84694" lon="-0.40751">
        <ele>108</ele>
        <time>2017-06-11T08:24:05.000Z</time>
      </trkpt>
      <trkpt lat="48.84688" lon="-0.40745">
        <ele>108</ele>
        <time>2017-06-11T08:24:07.000Z</time>
      </trkpt>
      <trkpt lat="48.8468" lon="-0.40735">
        <ele>108.40000152588</ele>
        <time>2017-06-11T08:24:10.000Z</time>
      </trkpt>
      <trkpt lat="48.84677" lon="-0.40731">
        <ele>108.80000305176</ele>
        <time>2017-06-11T08:24:11.000Z</time>
      </trkpt>
      <trkpt lat="48.84673" lon="-0.40728">
        <ele>109.19999694824</ele>
        <time>2017-06-11T08:24:12.000Z</time>
      </trkpt>
      <trkpt lat="48.84671" lon="-0.40725">
        <ele>109.59999847412</ele>
        <time>2017-06-11T08:24:13.000Z</time>
      </trkpt>
      <trkpt lat="48.84668" lon="-0.40721">
        <ele>110</ele>
        <time>2017-06-11T08:24:14.000Z</time>
      </trkpt>
      <trkpt lat="48.84665" lon="-0.40718">
        <ele>110</ele>
        <time>2017-06-11T08:24:15.000Z</time>
      </trkpt>
      <trkpt lat="48.84652" lon="-0.40704">
        <ele>110.40000152588</ele>
        <time>2017-06-11T08:24:19.000Z</time>
      </trkpt>
      <trkpt lat="48.84649" lon="-0.40701">
        <ele>110.80000305176</ele>
        <time>2017-06-11T08:24:20.000Z</time>
      </trkpt>
      <trkpt lat="48.84645" lon="-0.40698">
        <ele>111.19999694824</ele>
        <time>2017-06-11T08:24:21.000Z</time>
      </trkpt>
      <trkpt lat="48.84642" lon="-0.40695">
        <ele>111.80000305176</ele>
        <time>2017-06-11T08:24:22.000Z</time>
      </trkpt>
      <trkpt lat="48.84639" lon="-0.40692">
        <ele>112.19999694824</ele>
        <time>2017-06-11T08:24:23.000Z</time>
      </trkpt>
      <trkpt lat="48.84622" lon="-0.40678">
        <ele>112.59999847412</ele>
        <time>2017-06-11T08:24:28.000Z</time>
      </trkpt>
      <trkpt lat="48.84619" lon="-0.40676">
        <ele>113</ele>
        <time>2017-06-11T08:24:29.000Z</time>
      </trkpt>
      <trkpt lat="48.84615" lon="-0.40673">
        <ele>113.80000305176</ele>
        <time>2017-06-11T08:24:30.000Z</time>
      </trkpt>
      <trkpt lat="48.84612" lon="-0.40671">
        <ele>114.19999694824</ele>
        <time>2017-06-11T08:24:31.000Z</time>
      </trkpt>
      <trkpt lat="48.84599" lon="-0.4066">
        <ele>114.19999694824</ele>
        <time>2017-06-11T08:24:35.000Z</time>
      </trkpt>
      <trkpt lat="48.84579" lon="-0.40644">
        <ele>114.19999694824</ele>
        <time>2017-06-11T08:24:41.000Z</time>
      </trkpt>
      <trkpt lat="48.84555" lon="-0.40623">
        <ele>114.19999694824</ele>
        <time>2017-06-11T08:24:48.000Z</time>
      </trkpt>
      <trkpt lat="48.84525" lon="-0.40595">
        <ele>114.19999694824</ele>
        <time>2017-06-11T08:24:56.000Z</time>
      </trkpt>
      <trkpt lat="48.84504" lon="-0.40576">
        <ele>114.19999694824</ele>
        <time>2017-06-11T08:25:01.000Z</time>
      </trkpt>
      <trkpt lat="48.84493" lon="-0.40565">
        <ele>114.19999694824</ele>
        <time>2017-06-11T08:25:04.000Z</time>
      </trkpt>
      <trkpt lat="48.84475" lon="-0.40545">
        <ele>114.19999694824</ele>
        <time>2017-06-11T08:25:09.000Z</time>
      </trkpt>
      <trkpt lat="48.84473" lon="-0.4054">
        <ele>114.19999694824</ele>
        <time>2017-06-11T08:25:10.000Z</time>
      </trkpt>
      <trkpt lat="48.84468" lon="-0.40521">
        <ele>114.19999694824</ele>
        <time>2017-06-11T08:25:13.000Z</time>
      </trkpt>
      <trkpt lat="48.84467" lon="-0.40513">
        <ele>114.19999694824</ele>
        <time>2017-06-11T08:25:14.000Z</time>
      </trkpt>
      <trkpt lat="48.84463" lon="-0.40466">
        <ele>114.19999694824</ele>
        <time>2017-06-11T08:25:20.000Z</time>
      </trkpt>
      <trkpt lat="48.84458" lon="-0.40434">
        <ele>113.80000305176</ele>
        <time>2017-06-11T08:25:25.000Z</time>
      </trkpt>
      <trkpt lat="48.84456" lon="-0.40428">
        <ele>113.40000152588</ele>
        <time>2017-06-11T08:25:26.000Z</time>
      </trkpt>
      <trkpt lat="48.84454" lon="-0.40423">
        <ele>112.80000305176</ele>
        <time>2017-06-11T08:25:27.000Z</time>
      </trkpt>
      <trkpt lat="48.84451" lon="-0.40417">
        <ele>112.40000152588</ele>
        <time>2017-06-11T08:25:28.000Z</time>
      </trkpt>
      <trkpt lat="48.84448" lon="-0.40413">
        <ele>111.80000305176</ele>
        <time>2017-06-11T08:25:29.000Z</time>
      </trkpt>
      <trkpt lat="48.84445" lon="-0.40411">
        <ele>111.40000152588</ele>
        <time>2017-06-11T08:25:32.000Z</time>
      </trkpt>
      <trkpt lat="48.84445" lon="-0.40412">
        <ele>111</ele>
        <time>2017-06-11T08:25:33.000Z</time>
      </trkpt>
      <trkpt lat="48.84445" lon="-0.40411">
        <ele>110.59999847412</ele>
        <time>2017-06-11T08:25:34.000Z</time>
      </trkpt>
      <trkpt lat="48.84446" lon="-0.4041">
        <ele>110.19999694824</ele>
        <time>2017-06-11T08:25:35.000Z</time>
      </trkpt>
      <trkpt lat="48.84447" lon="-0.40409">
        <ele>109.80000305176</ele>
        <time>2017-06-11T08:25:36.000Z</time>
      </trkpt>
      <trkpt lat="48.84453" lon="-0.40413">
        <ele>109.80000305176</ele>
        <time>2017-06-11T08:25:41.000Z</time>
      </trkpt>
      <trkpt lat="48.84454" lon="-0.40414">
        <ele>109.80000305176</ele>
        <time>2017-06-11T08:25:42.000Z</time>
      </trkpt>
      <trkpt lat="48.84458" lon="-0.40418">
        <ele>109.80000305176</ele>
        <time>2017-06-11T08:25:48.000Z</time>
      </trkpt>
      <trkpt lat="48.8446" lon="-0.40419">
        <ele>109.80000305176</ele>
        <time>2017-06-11T08:25:54.000Z</time>
      </trkpt>
      <trkpt lat="48.84461" lon="-0.40418">
        <ele>109.80000305176</ele>
        <time>2017-06-11T08:25:56.000Z</time>
      </trkpt>
      <trkpt lat="48.84461" lon="-0.40418">
        <ele>109.80000305176</ele>
        <time>2017-06-11T08:26:05.000Z</time>
      </trkpt>
      <trkpt lat="48.84461" lon="-0.40418">
        <ele>109.80000305176</ele>
        <time>2017-06-11T08:26:19.000Z</time>
      </trkpt>
      <trkpt lat="48.84461" lon="-0.40418">
        <ele>109.80000305176</ele>
        <time>2017-06-11T08:26:36.000Z</time>
      </trkpt>
      <trkpt lat="48.84461" lon="-0.40418">
        <ele>109.80000305176</ele>
        <time>2017-06-11T08:26:52.000Z</time>
      </trkpt>
      <trkpt lat="48.84462" lon="-0.40418">
        <ele>109.80000305176</ele>
        <time>2017-06-11T08:27:04.000Z</time>
      </trkpt>
      <trkpt lat="48.84462" lon="-0.40416">
        <ele>109.80000305176</ele>
        <time>2017-06-11T08:27:05.000Z</time>
      </trkpt>
      <trkpt lat="48.84462" lon="-0.40416">
        <ele>109.80000305176</ele>
        <time>2017-06-11T08:27:07.000Z</time>
      </trkpt>
      <trkpt lat="48.84463" lon="-0.40412">
        <ele>109.80000305176</ele>
        <time>2017-06-11T08:27:09.000Z</time>
      </trkpt>
      <trkpt lat="48.84465" lon="-0.40395">
        <ele>109.80000305176</ele>
        <time>2017-06-11T08:27:15.000Z</time>
      </trkpt>
      <trkpt lat="48.84473" lon="-0.40373">
        <ele>109.80000305176</ele>
        <time>2017-06-11T08:27:22.000Z</time>
      </trkpt>
      <trkpt lat="48.84475" lon="-0.40366">
        <ele>109.40000152588</ele>
        <time>2017-06-11T08:27:24.000Z</time>
      </trkpt>
      <trkpt lat="48.84477" lon="-0.40362">
        <ele>109</ele>
        <time>2017-06-11T08:27:25.000Z</time>
      </trkpt>
      <trkpt lat="48.84478" lon="-0.40357">
        <ele>108.59999847412</ele>
        <time>2017-06-11T08:27:26.000Z</time>
      </trkpt>
      <trkpt lat="48.84479" lon="-0.40353">
        <ele>108.19999694824</ele>
        <time>2017-06-11T08:27:27.000Z</time>
      </trkpt>
      <trkpt lat="48.8448" lon="-0.40348">
        <ele>107.59999847412</ele>
        <time>2017-06-11T08:27:28.000Z</time>
      </trkpt>
      <trkpt lat="48.84482" lon="-0.4034">
        <ele>107.19999694824</ele>
        <time>2017-06-11T08:27:30.000Z</time>
      </trkpt>
      <trkpt lat="48.84483" lon="-0.40337">
        <ele>106.80000305176</ele>
        <time>2017-06-11T08:27:31.000Z</time>
      </trkpt>
      <trkpt lat="48.84484" lon="-0.40333">
        <ele>106.40000152588</ele>
        <time>2017-06-11T08:27:32.000Z</time>
      </trkpt>
      <trkpt lat="48.84485" lon="-0.40329">
        <ele>105.80000305176</ele>
        <time>2017-06-11T08:27:33.000Z</time>
      </trkpt>
      <trkpt lat="48.84486" lon="-0.40326">
        <ele>105.40000152588</ele>
        <time>2017-06-11T08:27:34.000Z</time>
      </trkpt>
      <trkpt lat="48.84486" lon="-0.40323">
        <ele>105</ele>
        <time>2017-06-11T08:27:35.000Z</time>
      </trkpt>
      <trkpt lat="48.84487" lon="-0.40319">
        <ele>104.40000152588</ele>
        <time>2017-06-11T08:27:36.000Z</time>
      </trkpt>
      <trkpt lat="48.84487" lon="-0.40316">
        <ele>104</ele>
        <time>2017-06-11T08:27:37.000Z</time>
      </trkpt>
      <trkpt lat="48.84488" lon="-0.40314">
        <ele>103.59999847412</ele>
        <time>2017-06-11T08:27:38.000Z</time>
      </trkpt>
      <trkpt lat="48.84488" lon="-0.40314">
        <ele>103</ele>
        <time>2017-06-11T08:27:39.000Z</time>
      </trkpt>
      <trkpt lat="48.84488" lon="-0.40313">
        <ele>103</ele>
        <time>2017-06-11T08:27:43.000Z</time>
      </trkpt>
      <trkpt lat="48.84488" lon="-0.40313">
        <ele>102.59999847412</ele>
        <time>2017-06-11T08:27:52.000Z</time>
      </trkpt>
      <trkpt lat="48.84488" lon="-0.40313">
        <ele>102.19999694824</ele>
        <time>2017-06-11T08:27:53.000Z</time>
      </trkpt>
      <trkpt lat="48.84488" lon="-0.40313">
        <ele>101.80000305176</ele>
        <time>2017-06-11T08:27:54.000Z</time>
      </trkpt>
      <trkpt lat="48.84488" lon="-0.40313">
        <ele>101.40000152588</ele>
        <time>2017-06-11T08:27:55.000Z</time>
      </trkpt>
      <trkpt lat="48.84488" lon="-0.40313">
        <ele>101</ele>
        <time>2017-06-11T08:27:56.000Z</time>
      </trkpt>
      <trkpt lat="48.84488" lon="-0.40313">
        <ele>101</ele>
        <time>2017-06-11T08:27:58.000Z</time>
      </trkpt>
      <trkpt lat="48.84488" lon="-0.40313">
        <ele>101</ele>
        <time>2017-06-11T08:28:00.000Z</time>
      </trkpt>
      <trkpt lat="48.84488" lon="-0.40314">
        <ele>101</ele>
        <time>2017-06-11T08:28:02.000Z</time>
      </trkpt>
      <trkpt lat="48.84487" lon="-0.40322">
        <ele>101</ele>
        <time>2017-06-11T08:28:08.000Z</time>
      </trkpt>
      <trkpt lat="48.84486" lon="-0.40327">
        <ele>101</ele>
        <time>2017-06-11T08:28:13.000Z</time>
      </trkpt>
      <trkpt lat="48.84485" lon="-0.40328">
        <ele>101</ele>
        <time>2017-06-11T08:28:14.000Z</time>
      </trkpt>
      <trkpt lat="48.84484" lon="-0.40335">
        <ele>101</ele>
        <time>2017-06-11T08:28:18.000Z</time>
      </trkpt>
      <trkpt lat="48.84484" lon="-0.40336">
        <ele>101.40000152588</ele>
        <time>2017-06-11T08:28:19.000Z</time>
      </trkpt>
      <trkpt lat="48.84483" lon="-0.40338">
        <ele>101.80000305176</ele>
        <time>2017-06-11T08:28:20.000Z</time>
      </trkpt>
      <trkpt lat="48.84483" lon="-0.40339">
        <ele>102.40000152588</ele>
        <time>2017-06-11T08:28:21.000Z</time>
      </trkpt>
      <trkpt lat="48.84482" lon="-0.40341">
        <ele>102.80000305176</ele>
        <time>2017-06-11T08:28:22.000Z</time>
      </trkpt>
      <trkpt lat="48.84482" lon="-0.40343">
        <ele>103.19999694824</ele>
        <time>2017-06-11T08:28:23.000Z</time>
      </trkpt>
      <trkpt lat="48.84479" lon="-0.40356">
        <ele>103.19999694824</ele>
        <time>2017-06-11T08:28:31.000Z</time>
      </trkpt>
      <trkpt lat="48.84479" lon="-0.40358">
        <ele>103.59999847412</ele>
        <time>2017-06-11T08:28:32.000Z</time>
      </trkpt>
      <trkpt lat="48.84478" lon="-0.4036">
        <ele>104</ele>
        <time>2017-06-11T08:28:33.000Z</time>
      </trkpt>
      <trkpt lat="48.84478" lon="-0.40361">
        <ele>104.40000152588</ele>
        <time>2017-06-11T08:28:34.000Z</time>
      </trkpt>
      <trkpt lat="48.84478" lon="-0.40363">
        <ele>104.80000305176</ele>
        <time>2017-06-11T08:28:35.000Z</time>
      </trkpt>
      <trkpt lat="48.84477" lon="-0.40365">
        <ele>105.19999694824</ele>
        <time>2017-06-11T08:28:36.000Z</time>
      </trkpt>
      <trkpt lat="48.84475" lon="-0.40371">
        <ele>105.19999694824</ele>
        <time>2017-06-11T08:28:40.000Z</time>
      </trkpt>
      <trkpt lat="48.84474" lon="-0.40376">
        <ele>105.59999847412</ele>
        <time>2017-06-11T08:28:43.000Z</time>
      </trkpt>
      <trkpt lat="48.84473" lon="-0.40378">
        <ele>106.19999694824</ele>
        <time>2017-06-11T08:28:44.000Z</time>
      </trkpt>
      <trkpt lat="48.84473" lon="-0.4038">
        <ele>106.59999847412</ele>
        <time>2017-06-11T08:28:45.000Z</time>
      </trkpt>
      <trkpt lat="48.84472" lon="-0.40382">
        <ele>107</ele>
        <time>2017-06-11T08:28:46.000Z</time>
      </trkpt>
      <trkpt lat="48.84471" lon="-0.40384">
        <ele>107.40000152588</ele>
        <time>2017-06-11T08:28:47.000Z</time>
      </trkpt>
      <trkpt lat="48.84471" lon="-0.40385">
        <ele>107.40000152588</ele>
        <time>2017-06-11T08:28:48.000Z</time>
      </trkpt>
      <trkpt lat="48.84466" lon="-0.404">
        <ele>107.80000305176</ele>
        <time>2017-06-11T08:28:56.000Z</time>
      </trkpt>
      <trkpt lat="48.84466" lon="-0.40401">
        <ele>108.19999694824</ele>
        <time>2017-06-11T08:28:57.000Z</time>
      </trkpt>
      <trkpt lat="48.84465" lon="-0.40403">
        <ele>108.59999847412</ele>
        <time>2017-06-11T08:28:58.000Z</time>
      </trkpt>
      <trkpt lat="48.84465" lon="-0.40405">
        <ele>109</ele>
        <time>2017-06-11T08:28:59.000Z</time>
      </trkpt>
      <trkpt lat="48.84465" lon="-0.40407">
        <ele>109.40000152588</ele>
        <time>2017-06-11T08:29:00.000Z</time>
      </trkpt>
      <trkpt lat="48.84465" lon="-0.40412">
        <ele>109.40000152588</ele>
        <time>2017-06-11T08:29:03.000Z</time>
      </trkpt>
      <trkpt lat="48.84465" lon="-0.40416">
        <ele>109.40000152588</ele>
        <time>2017-06-11T08:29:09.000Z</time>
      </trkpt>
      <trkpt lat="48.84464" lon="-0.40418">
        <ele>109.40000152588</ele>
        <time>2017-06-11T08:29:13.000Z</time>
      </trkpt>
      <trkpt lat="48.84462" lon="-0.40422">
        <ele>109.40000152588</ele>
        <time>2017-06-11T08:29:16.000Z</time>
      </trkpt>
      <trkpt lat="48.84457" lon="-0.40423">
        <ele>109.40000152588</ele>
        <time>2017-06-11T08:29:21.000Z</time>
      </trkpt>
      <trkpt lat="48.84445" lon="-0.40408">
        <ele>109.40000152588</ele>
        <time>2017-06-11T08:29:26.000Z</time>
      </trkpt>
      <trkpt lat="48.84429" lon="-0.40394">
        <ele>109.40000152588</ele>
        <time>2017-06-11T08:29:31.000Z</time>
      </trkpt>
      <trkpt lat="48.84404" lon="-0.40378">
        <ele>109</ele>
        <time>2017-06-11T08:29:37.000Z</time>
      </trkpt>
      <trkpt lat="48.844" lon="-0.40375">
        <ele>108.59999847412</ele>
        <time>2017-06-11T08:29:38.000Z</time>
      </trkpt>
      <trkpt lat="48.84395" lon="-0.40373">
        <ele>108.19999694824</ele>
        <time>2017-06-11T08:29:39.000Z</time>
      </trkpt>
      <trkpt lat="48.84391" lon="-0.40369">
        <ele>107.59999847412</ele>
        <time>2017-06-11T08:29:40.000Z</time>
      </trkpt>
      <trkpt lat="48.84386" lon="-0.40366">
        <ele>107.19999694824</ele>
        <time>2017-06-11T08:29:41.000Z</time>
      </trkpt>
      <trkpt lat="48.84376" lon="-0.4036">
        <ele>107.19999694824</ele>
        <time>2017-06-11T08:29:43.000Z</time>
      </trkpt>
      <trkpt lat="48.84371" lon="-0.40356">
        <ele>106.80000305176</ele>
        <time>2017-06-11T08:29:44.000Z</time>
      </trkpt>
      <trkpt lat="48.84366" lon="-0.40353">
        <ele>106.40000152588</ele>
        <time>2017-06-11T08:29:45.000Z</time>
      </trkpt>
      <trkpt lat="48.8436" lon="-0.4035">
        <ele>106</ele>
        <time>2017-06-11T08:29:46.000Z</time>
      </trkpt>
      <trkpt lat="48.84356" lon="-0.40347">
        <ele>105.59999847412</ele>
        <time>2017-06-11T08:29:47.000Z</time>
      </trkpt>
      <trkpt lat="48.84351" lon="-0.40344">
        <ele>105.19999694824</ele>
        <time>2017-06-11T08:29:48.000Z</time>
      </trkpt>
      <trkpt lat="48.84346" lon="-0.40341">
        <ele>104.59999847412</ele>
        <time>2017-06-11T08:29:49.000Z</time>
      </trkpt>
      <trkpt lat="48.84341" lon="-0.40337">
        <ele>104.19999694824</ele>
        <time>2017-06-11T08:29:50.000Z</time>
      </trkpt>
      <trkpt lat="48.84337" lon="-0.40334">
        <ele>103.40000152588</ele>
        <time>2017-06-11T08:29:51.000Z</time>
      </trkpt>
      <trkpt lat="48.84333" lon="-0.40332">
        <ele>102.80000305176</ele>
        <time>2017-06-11T08:29:52.000Z</time>
      </trkpt>
      <trkpt lat="48.84329" lon="-0.4033">
        <ele>102.40000152588</ele>
        <time>2017-06-11T08:29:53.000Z</time>
      </trkpt>
      <trkpt lat="48.84325" lon="-0.40327">
        <ele>101.80000305176</ele>
        <time>2017-06-11T08:29:54.000Z</time>
      </trkpt>
      <trkpt lat="48.8432" lon="-0.40325">
        <ele>101.40000152588</ele>
        <time>2017-06-11T08:29:55.000Z</time>
      </trkpt>
      <trkpt lat="48.84315" lon="-0.40322">
        <ele>100.80000305176</ele>
        <time>2017-06-11T08:29:56.000Z</time>
      </trkpt>
      <trkpt lat="48.84305" lon="-0.40317">
        <ele>100.40000152588</ele>
        <time>2017-06-11T08:29:58.000Z</time>
      </trkpt>
      <trkpt lat="48.84299" lon="-0.40314">
        <ele>100</ele>
        <time>2017-06-11T08:29:59.000Z</time>
      </trkpt>
      <trkpt lat="48.84293" lon="-0.40312">
        <ele>99.599998474121</ele>
        <time>2017-06-11T08:30:00.000Z</time>
      </trkpt>
      <trkpt lat="48.84286" lon="-0.40309">
        <ele>99.199996948242</ele>
        <time>2017-06-11T08:30:01.000Z</time>
      </trkpt>
      <trkpt lat="48.84279" lon="-0.40307">
        <ele>98.599998474121</ele>
        <time>2017-06-11T08:30:02.000Z</time>
      </trkpt>
      <trkpt lat="48.84272" lon="-0.40304">
        <ele>98.199996948242</ele>
        <time>2017-06-11T08:30:03.000Z</time>
      </trkpt>
      <trkpt lat="48.84265" lon="-0.40302">
        <ele>97.800003051758</ele>
        <time>2017-06-11T08:30:04.000Z</time>
      </trkpt>
      <trkpt lat="48.84257" lon="-0.40299">
        <ele>97.400001525879</ele>
        <time>2017-06-11T08:30:05.000Z</time>
      </trkpt>
      <trkpt lat="48.84249" lon="-0.40297">
        <ele>97</ele>
        <time>2017-06-11T08:30:06.000Z</time>
      </trkpt>
      <trkpt lat="48.8424" lon="-0.40293">
        <ele>96.599998474121</ele>
        <time>2017-06-11T08:30:07.000Z</time>
      </trkpt>
      <trkpt lat="48.84232" lon="-0.40291">
        <ele>96.199996948242</ele>
        <time>2017-06-11T08:30:08.000Z</time>
      </trkpt>
      <trkpt lat="48.84224" lon="-0.40288">
        <ele>95.599998474121</ele>
        <time>2017-06-11T08:30:09.000Z</time>
      </trkpt>
      <trkpt lat="48.84216" lon="-0.40286">
        <ele>95.199996948242</ele>
        <time>2017-06-11T08:30:10.000Z</time>
      </trkpt>
      <trkpt lat="48.84208" lon="-0.40284">
        <ele>94.800003051758</ele>
        <time>2017-06-11T08:30:11.000Z</time>
      </trkpt>
      <trkpt lat="48.842" lon="-0.40281">
        <ele>94.199996948242</ele>
        <time>2017-06-11T08:30:12.000Z</time>
      </trkpt>
      <trkpt lat="48.84192" lon="-0.40279">
        <ele>93.599998474121</ele>
        <time>2017-06-11T08:30:13.000Z</time>
      </trkpt>
      <trkpt lat="48.84186" lon="-0.40276">
        <ele>93.199996948242</ele>
        <time>2017-06-11T08:30:14.000Z</time>
      </trkpt>
      <trkpt lat="48.84178" lon="-0.40273">
        <ele>92.400001525879</ele>
        <time>2017-06-11T08:30:15.000Z</time>
      </trkpt>
      <trkpt lat="48.84171" lon="-0.40271">
        <ele>90.800003051758</ele>
        <time>2017-06-11T08:30:16.000Z</time>
      </trkpt>
      <trkpt lat="48.84164" lon="-0.40269">
        <ele>90.199996948242</ele>
        <time>2017-06-11T08:30:17.000Z</time>
      </trkpt>
      <trkpt lat="48.84157" lon="-0.40265">
        <ele>89.400001525879</ele>
        <time>2017-06-11T08:30:18.000Z</time>
      </trkpt>
      <trkpt lat="48.84151" lon="-0.40261">
        <ele>88.599998474121</ele>
        <time>2017-06-11T08:30:19.000Z</time>
      </trkpt>
      <trkpt lat="48.84144" lon="-0.40255">
        <ele>88</ele>
        <time>2017-06-11T08:30:20.000Z</time>
      </trkpt>
      <trkpt lat="48.84138" lon="-0.40249">
        <ele>87.199996948242</ele>
        <time>2017-06-11T08:30:21.000Z</time>
      </trkpt>
      <trkpt lat="48.84131" lon="-0.40242">
        <ele>86.800003051758</ele>
        <time>2017-06-11T08:30:22.000Z</time>
      </trkpt>
      <trkpt lat="48.84126" lon="-0.40235">
        <ele>86.400001525879</ele>
        <time>2017-06-11T08:30:23.000Z</time>
      </trkpt>
      <trkpt lat="48.8412" lon="-0.40226">
        <ele>85.800003051758</ele>
        <time>2017-06-11T08:30:24.000Z</time>
      </trkpt>
      <trkpt lat="48.84116" lon="-0.40217">
        <ele>85.400001525879</ele>
        <time>2017-06-11T08:30:25.000Z</time>
      </trkpt>
      <trkpt lat="48.84111" lon="-0.40208">
        <ele>85</ele>
        <time>2017-06-11T08:30:26.000Z</time>
      </trkpt>
      <trkpt lat="48.84108" lon="-0.40198">
        <ele>84.400001525879</ele>
        <time>2017-06-11T08:30:27.000Z</time>
      </trkpt>
      <trkpt lat="48.84105" lon="-0.40187">
        <ele>83.800003051758</ele>
        <time>2017-06-11T08:30:28.000Z</time>
      </trkpt>
      <trkpt lat="48.84102" lon="-0.40177">
        <ele>83.400001525879</ele>
        <time>2017-06-11T08:30:29.000Z</time>
      </trkpt>
      <trkpt lat="48.84099" lon="-0.40166">
        <ele>82.800003051758</ele>
        <time>2017-06-11T08:30:30.000Z</time>
      </trkpt>
      <trkpt lat="48.84096" lon="-0.40156">
        <ele>82.400001525879</ele>
        <time>2017-06-11T08:30:31.000Z</time>
      </trkpt>
      <trkpt lat="48.84093" lon="-0.40146">
        <ele>81.800003051758</ele>
        <time>2017-06-11T08:30:32.000Z</time>
      </trkpt>
      <trkpt lat="48.84091" lon="-0.40137">
        <ele>81.400001525879</ele>
        <time>2017-06-11T08:30:33.000Z</time>
      </trkpt>
      <trkpt lat="48.84089" lon="-0.40127">
        <ele>80.800003051758</ele>
        <time>2017-06-11T08:30:34.000Z</time>
      </trkpt>
      <trkpt lat="48.84087" lon="-0.40118">
        <ele>80.400001525879</ele>
        <time>2017-06-11T08:30:35.000Z</time>
      </trkpt>
      <trkpt lat="48.84085" lon="-0.4011">
        <ele>79.800003051758</ele>
        <time>2017-06-11T08:30:36.000Z</time>
      </trkpt>
      <trkpt lat="48.84083" lon="-0.40103">
        <ele>79.199996948242</ele>
        <time>2017-06-11T08:30:37.000Z</time>
      </trkpt>
      <trkpt lat="48.84081" lon="-0.40097">
        <ele>78.800003051758</ele>
        <time>2017-06-11T08:30:38.000Z</time>
      </trkpt>
      <trkpt lat="48.8408" lon="-0.40093">
        <ele>78.199996948242</ele>
        <time>2017-06-11T08:30:39.000Z</time>
      </trkpt>
      <trkpt lat="48.84078" lon="-0.40091">
        <ele>77.599998474121</ele>
        <time>2017-06-11T08:30:40.000Z</time>
      </trkpt>
      <trkpt lat="48.84077" lon="-0.40089">
        <ele>76.599998474121</ele>
        <time>2017-06-11T08:30:41.000Z</time>
      </trkpt>
      <trkpt lat="48.84077" lon="-0.40086">
        <ele>76</ele>
        <time>2017-06-11T08:30:42.000Z</time>
      </trkpt>
      <trkpt lat="48.84077" lon="-0.40083">
        <ele>76</ele>
        <time>2017-06-11T08:30:43.000Z</time>
      </trkpt>
      <trkpt lat="48.84081" lon="-0.40074">
        <ele>76</ele>
        <time>2017-06-11T08:30:46.000Z</time>
      </trkpt>
      <trkpt lat="48.84084" lon="-0.40071">
        <ele>76</ele>
        <time>2017-06-11T08:30:47.000Z</time>
      </trkpt>
      <trkpt lat="48.84103" lon="-0.4005">
        <ele>76</ele>
        <time>2017-06-11T08:30:55.000Z</time>
      </trkpt>
      <trkpt lat="48.84119" lon="-0.40032">
        <ele>76</ele>
        <time>2017-06-11T08:31:02.000Z</time>
      </trkpt>
      <trkpt lat="48.84123" lon="-0.40027">
        <ele>76</ele>
        <time>2017-06-11T08:31:04.000Z</time>
      </trkpt>
      <trkpt lat="48.84125" lon="-0.40023">
        <ele>76</ele>
        <time>2017-06-11T08:31:07.000Z</time>
      </trkpt>
      <trkpt lat="48.84126" lon="-0.40022">
        <ele>76</ele>
        <time>2017-06-11T08:31:14.000Z</time>
      </trkpt>
      <trkpt lat="48.84128" lon="-0.40021">
        <ele>76</ele>
        <time>2017-06-11T08:31:15.000Z</time>
      </trkpt>
      <trkpt lat="48.84133" lon="-0.40017">
        <ele>76</ele>
        <time>2017-06-11T08:31:18.000Z</time>
      </trkpt>
      <trkpt lat="48.84138" lon="-0.40014">
        <ele>76</ele>
        <time>2017-06-11T08:31:20.000Z</time>
      </trkpt>
      <trkpt lat="48.84153" lon="-0.39997">
        <ele>76</ele>
        <time>2017-06-11T08:31:27.000Z</time>
      </trkpt>
      <trkpt lat="48.84154" lon="-0.39993">
        <ele>76</ele>
        <time>2017-06-11T08:31:28.000Z</time>
      </trkpt>
      <trkpt lat="48.84155" lon="-0.39989">
        <ele>76.400001525879</ele>
        <time>2017-06-11T08:31:29.000Z</time>
      </trkpt>
      <trkpt lat="48.84156" lon="-0.39984">
        <ele>77.199996948242</ele>
        <time>2017-06-11T08:31:30.000Z</time>
      </trkpt>
      <trkpt lat="48.84157" lon="-0.3998">
        <ele>77.800003051758</ele>
        <time>2017-06-11T08:31:31.000Z</time>
      </trkpt>
      <trkpt lat="48.84158" lon="-0.39975">
        <ele>78.199996948242</ele>
        <time>2017-06-11T08:31:32.000Z</time>
      </trkpt>
      <trkpt lat="48.84159" lon="-0.39966">
        <ele>78.199996948242</ele>
        <time>2017-06-11T08:31:34.000Z</time>
      </trkpt>
      <trkpt lat="48.84161" lon="-0.39933">
        <ele>78.199996948242</ele>
        <time>2017-06-11T08:31:41.000Z</time>
      </trkpt>
      <trkpt lat="48.8416" lon="-0.39928">
        <ele>78.599998474121</ele>
        <time>2017-06-11T08:31:42.000Z</time>
      </trkpt>
      <trkpt lat="48.8416" lon="-0.39924">
        <ele>79</ele>
        <time>2017-06-11T08:31:43.000Z</time>
      </trkpt>
      <trkpt lat="48.8416" lon="-0.39919">
        <ele>79.400001525879</ele>
        <time>2017-06-11T08:31:44.000Z</time>
      </trkpt>
      <trkpt lat="48.84159" lon="-0.39915">
        <ele>79.800003051758</ele>
        <time>2017-06-11T08:31:45.000Z</time>
      </trkpt>
      <trkpt lat="48.84159" lon="-0.3991">
        <ele>80.199996948242</ele>
        <time>2017-06-11T08:31:46.000Z</time>
      </trkpt>
      <trkpt lat="48.84158" lon="-0.39891">
        <ele>80.199996948242</ele>
        <time>2017-06-11T08:31:51.000Z</time>
      </trkpt>
      <trkpt lat="48.84158" lon="-0.39859">
        <ele>80.199996948242</ele>
        <time>2017-06-11T08:31:58.000Z</time>
      </trkpt>
      <trkpt lat="48.84169" lon="-0.39833">
        <ele>80.599998474121</ele>
        <time>2017-06-11T08:32:05.000Z</time>
      </trkpt>
      <trkpt lat="48.84171" lon="-0.39831">
        <ele>81</ele>
        <time>2017-06-11T08:32:06.000Z</time>
      </trkpt>
      <trkpt lat="48.84173" lon="-0.39828">
        <ele>81.400001525879</ele>
        <time>2017-06-11T08:32:07.000Z</time>
      </trkpt>
      <trkpt lat="48.84176" lon="-0.39826">
        <ele>81.800003051758</ele>
        <time>2017-06-11T08:32:08.000Z</time>
      </trkpt>
      <trkpt lat="48.84178" lon="-0.39825">
        <ele>82.400001525879</ele>
        <time>2017-06-11T08:32:09.000Z</time>
      </trkpt>
      <trkpt lat="48.84183" lon="-0.39822">
        <ele>82.400001525879</ele>
        <time>2017-06-11T08:32:11.000Z</time>
      </trkpt>
      <trkpt lat="48.84198" lon="-0.39821">
        <ele>82.400001525879</ele>
        <time>2017-06-11T08:32:18.000Z</time>
      </trkpt>
      <trkpt lat="48.84198" lon="-0.39822">
        <ele>82.400001525879</ele>
        <time>2017-06-11T08:32:23.000Z</time>
      </trkpt>
      <trkpt lat="48.84198" lon="-0.39822">
        <ele>82.400001525879</ele>
        <time>2017-06-11T08:32:31.000Z</time>
      </trkpt>
      <trkpt lat="48.84204" lon="-0.39826">
        <ele>82.400001525879</ele>
        <time>2017-06-11T08:32:35.000Z</time>
      </trkpt>
      <trkpt lat="48.84215" lon="-0.39835">
        <ele>83.199996948242</ele>
        <time>2017-06-11T08:32:39.000Z</time>
      </trkpt>
      <trkpt lat="48.84217" lon="-0.39837">
        <ele>83.599998474121</ele>
        <time>2017-06-11T08:32:40.000Z</time>
      </trkpt>
      <trkpt lat="48.8422" lon="-0.39839">
        <ele>84</ele>
        <time>2017-06-11T08:32:41.000Z</time>
      </trkpt>
      <trkpt lat="48.84222" lon="-0.39841">
        <ele>84.400001525879</ele>
        <time>2017-06-11T08:32:42.000Z</time>
      </trkpt>
      <trkpt lat="48.84234" lon="-0.39861">
        <ele>84.400001525879</ele>
        <time>2017-06-11T08:32:49.000Z</time>
      </trkpt>
      <trkpt lat="48.84246" lon="-0.39879">
        <ele>84.400001525879</ele>
        <time>2017-06-11T08:32:56.000Z</time>
      </trkpt>
      <trkpt lat="48.84258" lon="-0.39898">
        <ele>85</ele>
        <time>2017-06-11T08:33:03.000Z</time>
      </trkpt>
      <trkpt lat="48.8426" lon="-0.399">
        <ele>85.800003051758</ele>
        <time>2017-06-11T08:33:04.000Z</time>
      </trkpt>
      <trkpt lat="48.84262" lon="-0.39902">
        <ele>86.199996948242</ele>
        <time>2017-06-11T08:33:05.000Z</time>
      </trkpt>
      <trkpt lat="48.84264" lon="-0.39904">
        <ele>86.599998474121</ele>
        <time>2017-06-11T08:33:06.000Z</time>
      </trkpt>
      <trkpt lat="48.84271" lon="-0.39914">
        <ele>86.599998474121</ele>
        <time>2017-06-11T08:33:10.000Z</time>
      </trkpt>
      <trkpt lat="48.84285" lon="-0.39929">
        <ele>86.599998474121</ele>
        <time>2017-06-11T08:33:18.000Z</time>
      </trkpt>
      <trkpt lat="48.843" lon="-0.39939">
        <ele>86.599998474121</ele>
        <time>2017-06-11T08:33:25.000Z</time>
      </trkpt>
      <trkpt lat="48.84305" lon="-0.39941">
        <ele>87</ele>
        <time>2017-06-11T08:33:27.000Z</time>
      </trkpt>
      <trkpt lat="48.84307" lon="-0.39941">
        <ele>87.800003051758</ele>
        <time>2017-06-11T08:33:28.000Z</time>
      </trkpt>
      <trkpt lat="48.8431" lon="-0.39942">
        <ele>88.199996948242</ele>
        <time>2017-06-11T08:33:29.000Z</time>
      </trkpt>
      <trkpt lat="48.84313" lon="-0.39942">
        <ele>88.599998474121</ele>
        <time>2017-06-11T08:33:30.000Z</time>
      </trkpt>
      <trkpt lat="48.84317" lon="-0.39943">
        <ele>88.599998474121</ele>
        <time>2017-06-11T08:33:32.000Z</time>
      </trkpt>
      <trkpt lat="48.84334" lon="-0.39938">
        <ele>88.599998474121</ele>
        <time>2017-06-11T08:33:39.000Z</time>
      </trkpt>
      <trkpt lat="48.8435" lon="-0.39931">
        <ele>88.599998474121</ele>
        <time>2017-06-11T08:33:46.000Z</time>
      </trkpt>
      <trkpt lat="48.84356" lon="-0.39927">
        <ele>89</ele>
        <time>2017-06-11T08:33:49.000Z</time>
      </trkpt>
      <trkpt lat="48.84358" lon="-0.39926">
        <ele>89.400001525879</ele>
        <time>2017-06-11T08:33:50.000Z</time>
      </trkpt>
      <trkpt lat="48.8436" lon="-0.39924">
        <ele>89.800003051758</ele>
        <time>2017-06-11T08:33:51.000Z</time>
      </trkpt>
      <trkpt lat="48.84362" lon="-0.39922">
        <ele>90.400001525879</ele>
        <time>2017-06-11T08:33:52.000Z</time>
      </trkpt>
      <trkpt lat="48.84364" lon="-0.39921">
        <ele>90.800003051758</ele>
        <time>2017-06-11T08:33:53.000Z</time>
      </trkpt>
      <trkpt lat="48.84378" lon="-0.39915">
        <ele>90.800003051758</ele>
        <time>2017-06-11T08:33:59.000Z</time>
      </trkpt>
      <trkpt lat="48.844" lon="-0.3991">
        <ele>90.800003051758</ele>
        <time>2017-06-11T08:34:07.000Z</time>
      </trkpt>
      <trkpt lat="48.84418" lon="-0.39904">
        <ele>90.800003051758</ele>
        <time>2017-06-11T08:34:14.000Z</time>
      </trkpt>
      <trkpt lat="48.84431" lon="-0.39896">
        <ele>90.800003051758</ele>
        <time>2017-06-11T08:34:20.000Z</time>
      </trkpt>
      <trkpt lat="48.8445" lon="-0.39878">
        <ele>90.800003051758</ele>
        <time>2017-06-11T08:34:28.000Z</time>
      </trkpt>
      <trkpt lat="48.84464" lon="-0.39862">
        <ele>90.800003051758</ele>
        <time>2017-06-11T08:34:34.000Z</time>
      </trkpt>
      <trkpt lat="48.84483" lon="-0.39844">
        <ele>90.800003051758</ele>
        <time>2017-06-11T08:34:41.000Z</time>
      </trkpt>
      <trkpt lat="48.84498" lon="-0.39824">
        <ele>90.800003051758</ele>
        <time>2017-06-11T08:34:47.000Z</time>
      </trkpt>
      <trkpt lat="48.845" lon="-0.39821">
        <ele>91.199996948242</ele>
        <time>2017-06-11T08:34:48.000Z</time>
      </trkpt>
      <trkpt lat="48.84502" lon="-0.39817">
        <ele>91.599998474121</ele>
        <time>2017-06-11T08:34:49.000Z</time>
      </trkpt>
      <trkpt lat="48.84504" lon="-0.39814">
        <ele>92</ele>
        <time>2017-06-11T08:34:50.000Z</time>
      </trkpt>
      <trkpt lat="48.84506" lon="-0.39811">
        <ele>92.400001525879</ele>
        <time>2017-06-11T08:34:51.000Z</time>
      </trkpt>
      <trkpt lat="48.84507" lon="-0.39808">
        <ele>92.800003051758</ele>
        <time>2017-06-11T08:34:52.000Z</time>
      </trkpt>
      <trkpt lat="48.84513" lon="-0.39799">
        <ele>92.800003051758</ele>
        <time>2017-06-11T08:34:55.000Z</time>
      </trkpt>
      <trkpt lat="48.84526" lon="-0.39775">
        <ele>92.800003051758</ele>
        <time>2017-06-11T08:35:02.000Z</time>
      </trkpt>
      <trkpt lat="48.8454" lon="-0.39751">
        <ele>93.199996948242</ele>
        <time>2017-06-11T08:35:09.000Z</time>
      </trkpt>
      <trkpt lat="48.84542" lon="-0.39749">
        <ele>93.599998474121</ele>
        <time>2017-06-11T08:35:10.000Z</time>
      </trkpt>
      <trkpt lat="48.84544" lon="-0.39746">
        <ele>94</ele>
        <time>2017-06-11T08:35:11.000Z</time>
      </trkpt>
      <trkpt lat="48.84545" lon="-0.39744">
        <ele>94.400001525879</ele>
        <time>2017-06-11T08:35:12.000Z</time>
      </trkpt>
      <trkpt lat="48.84546" lon="-0.39741">
        <ele>94.800003051758</ele>
        <time>2017-06-11T08:35:13.000Z</time>
      </trkpt>
      <trkpt lat="48.8455" lon="-0.39735">
        <ele>94.800003051758</ele>
        <time>2017-06-11T08:35:15.000Z</time>
      </trkpt>
      <trkpt lat="48.84565" lon="-0.39715">
        <ele>94.800003051758</ele>
        <time>2017-06-11T08:35:22.000Z</time>
      </trkpt>
      <trkpt lat="48.84574" lon="-0.39697">
        <ele>94.800003051758</ele>
        <time>2017-06-11T08:35:28.000Z</time>
      </trkpt>
      <trkpt lat="48.84576" lon="-0.39694">
        <ele>95.199996948242</ele>
        <time>2017-06-11T08:35:29.000Z</time>
      </trkpt>
      <trkpt lat="48.84577" lon="-0.3969">
        <ele>95.599998474121</ele>
        <time>2017-06-11T08:35:30.000Z</time>
      </trkpt>
      <trkpt lat="48.84579" lon="-0.39687">
        <ele>96.199996948242</ele>
        <time>2017-06-11T08:35:31.000Z</time>
      </trkpt>
      <trkpt lat="48.8458" lon="-0.39683">
        <ele>97</ele>
        <time>2017-06-11T08:35:32.000Z</time>
      </trkpt>
      <trkpt lat="48.84585" lon="-0.39673">
        <ele>97</ele>
        <time>2017-06-11T08:35:36.000Z</time>
      </trkpt>
      <trkpt lat="48.84594" lon="-0.39652">
        <ele>97</ele>
        <time>2017-06-11T08:35:42.000Z</time>
      </trkpt>
      <trkpt lat="48.84603" lon="-0.39631">
        <ele>97.400001525879</ele>
        <time>2017-06-11T08:35:47.000Z</time>
      </trkpt>
      <trkpt lat="48.84605" lon="-0.39628">
        <ele>97.800003051758</ele>
        <time>2017-06-11T08:35:48.000Z</time>
      </trkpt>
      <trkpt lat="48.84606" lon="-0.39625">
        <ele>98.199996948242</ele>
        <time>2017-06-11T08:35:49.000Z</time>
      </trkpt>
      <trkpt lat="48.84608" lon="-0.39622">
        <ele>98.599998474121</ele>
        <time>2017-06-11T08:35:50.000Z</time>
      </trkpt>
      <trkpt lat="48.8461" lon="-0.39618">
        <ele>99</ele>
        <time>2017-06-11T08:35:51.000Z</time>
      </trkpt>
      <trkpt lat="48.84619" lon="-0.39596">
        <ele>99</ele>
        <time>2017-06-11T08:35:57.000Z</time>
      </trkpt>
      <trkpt lat="48.84628" lon="-0.39562">
        <ele>99</ele>
        <time>2017-06-11T08:36:06.000Z</time>
      </trkpt>
      <trkpt lat="48.84632" lon="-0.39535">
        <ele>99.400001525879</ele>
        <time>2017-06-11T08:36:13.000Z</time>
      </trkpt>
      <trkpt lat="48.84633" lon="-0.3953">
        <ele>99.800003051758</ele>
        <time>2017-06-11T08:36:14.000Z</time>
      </trkpt>
      <trkpt lat="48.84634" lon="-0.39526">
        <ele>100.19999694824</ele>
        <time>2017-06-11T08:36:15.000Z</time>
      </trkpt>
      <trkpt lat="48.84634" lon="-0.39521">
        <ele>100.59999847412</ele>
        <time>2017-06-11T08:36:16.000Z</time>
      </trkpt>
      <trkpt lat="48.84635" lon="-0.39516">
        <ele>101</ele>
        <time>2017-06-11T08:36:17.000Z</time>
      </trkpt>
      <trkpt lat="48.84638" lon="-0.39497">
        <ele>101</ele>
        <time>2017-06-11T08:36:21.000Z</time>
      </trkpt>
      <trkpt lat="48.84644" lon="-0.39465">
        <ele>101</ele>
        <time>2017-06-11T08:36:28.000Z</time>
      </trkpt>
      <trkpt lat="48.84654" lon="-0.3942">
        <ele>101</ele>
        <time>2017-06-11T08:36:37.000Z</time>
      </trkpt>
      <trkpt lat="48.84669" lon="-0.39385">
        <ele>101</ele>
        <time>2017-06-11T08:36:45.000Z</time>
      </trkpt>
      <trkpt lat="48.84675" lon="-0.39362">
        <ele>101</ele>
        <time>2017-06-11T08:36:51.000Z</time>
      </trkpt>
      <trkpt lat="48.84678" lon="-0.3933">
        <ele>101</ele>
        <time>2017-06-11T08:36:58.000Z</time>
      </trkpt>
      <trkpt lat="48.84678" lon="-0.39299">
        <ele>101.40000152588</ele>
        <time>2017-06-11T08:37:05.000Z</time>
      </trkpt>
      <trkpt lat="48.84677" lon="-0.39296">
        <ele>101.80000305176</ele>
        <time>2017-06-11T08:37:06.000Z</time>
      </trkpt>
      <trkpt lat="48.84677" lon="-0.39292">
        <ele>102.40000152588</ele>
        <time>2017-06-11T08:37:07.000Z</time>
      </trkpt>
      <trkpt lat="48.84677" lon="-0.39289">
        <ele>102.80000305176</ele>
        <time>2017-06-11T08:37:08.000Z</time>
      </trkpt>
      <trkpt lat="48.84677" lon="-0.39286">
        <ele>103.19999694824</ele>
        <time>2017-06-11T08:37:09.000Z</time>
      </trkpt>
      <trkpt lat="48.84676" lon="-0.39269">
        <ele>103.19999694824</ele>
        <time>2017-06-11T08:37:14.000Z</time>
      </trkpt>
      <trkpt lat="48.84675" lon="-0.39262">
        <ele>103.59999847412</ele>
        <time>2017-06-11T08:37:16.000Z</time>
      </trkpt>
      <trkpt lat="48.84675" lon="-0.39259">
        <ele>104</ele>
        <time>2017-06-11T08:37:17.000Z</time>
      </trkpt>
      <trkpt lat="48.84675" lon="-0.39256">
        <ele>104.40000152588</ele>
        <time>2017-06-11T08:37:18.000Z</time>
      </trkpt>
      <trkpt lat="48.84675" lon="-0.39253">
        <ele>104.80000305176</ele>
        <time>2017-06-11T08:37:19.000Z</time>
      </trkpt>
      <trkpt lat="48.84675" lon="-0.3925">
        <ele>105.19999694824</ele>
        <time>2017-06-11T08:37:20.000Z</time>
      </trkpt>
      <trkpt lat="48.84674" lon="-0.39248">
        <ele>105.19999694824</ele>
        <time>2017-06-11T08:37:21.000Z</time>
      </trkpt>
      <trkpt lat="48.84672" lon="-0.3924">
        <ele>105.19999694824</ele>
        <time>2017-06-11T08:37:24.000Z</time>
      </trkpt>
      <trkpt lat="48.84671" lon="-0.39234">
        <ele>105.59999847412</ele>
        <time>2017-06-11T08:37:26.000Z</time>
      </trkpt>
      <trkpt lat="48.84671" lon="-0.39231">
        <ele>106.19999694824</ele>
        <time>2017-06-11T08:37:27.000Z</time>
      </trkpt>
      <trkpt lat="48.84671" lon="-0.39228">
        <ele>106.59999847412</ele>
        <time>2017-06-11T08:37:28.000Z</time>
      </trkpt>
      <trkpt lat="48.84671" lon="-0.39225">
        <ele>107</ele>
        <time>2017-06-11T08:37:29.000Z</time>
      </trkpt>
      <trkpt lat="48.84671" lon="-0.39222">
        <ele>107.40000152588</ele>
        <time>2017-06-11T08:37:30.000Z</time>
      </trkpt>
      <trkpt lat="48.84669" lon="-0.39209">
        <ele>107.80000305176</ele>
        <time>2017-06-11T08:37:34.000Z</time>
      </trkpt>
      <trkpt lat="48.84669" lon="-0.39206">
        <ele>108.19999694824</ele>
        <time>2017-06-11T08:37:35.000Z</time>
      </trkpt>
      <trkpt lat="48.84668" lon="-0.39202">
        <ele>108.59999847412</ele>
        <time>2017-06-11T08:37:36.000Z</time>
      </trkpt>
      <trkpt lat="48.84668" lon="-0.39199">
        <ele>109.40000152588</ele>
        <time>2017-06-11T08:37:37.000Z</time>
      </trkpt>
      <trkpt lat="48.84666" lon="-0.39182">
        <ele>109.40000152588</ele>
        <time>2017-06-11T08:37:42.000Z</time>
      </trkpt>
      <trkpt lat="48.84663" lon="-0.39167">
        <ele>109.80000305176</ele>
        <time>2017-06-11T08:37:46.000Z</time>
      </trkpt>
      <trkpt lat="48.84662" lon="-0.39163">
        <ele>110.19999694824</ele>
        <time>2017-06-11T08:37:47.000Z</time>
      </trkpt>
      <trkpt lat="48.84662" lon="-0.39159">
        <ele>110.80000305176</ele>
        <time>2017-06-11T08:37:48.000Z</time>
      </trkpt>
      <trkpt lat="48.84661" lon="-0.39155">
        <ele>111.19999694824</ele>
        <time>2017-06-11T08:37:49.000Z</time>
      </trkpt>
      <trkpt lat="48.8466" lon="-0.39152">
        <ele>111.59999847412</ele>
        <time>2017-06-11T08:37:50.000Z</time>
      </trkpt>
      <trkpt lat="48.84655" lon="-0.3914">
        <ele>111.59999847412</ele>
        <time>2017-06-11T08:37:54.000Z</time>
      </trkpt>
      <trkpt lat="48.84651" lon="-0.39118">
        <ele>111.59999847412</ele>
        <time>2017-06-11T08:38:01.000Z</time>
      </trkpt>
      <trkpt lat="48.84649" lon="-0.39108">
        <ele>112</ele>
        <time>2017-06-11T08:38:04.000Z</time>
      </trkpt>
      <trkpt lat="48.84649" lon="-0.39105">
        <ele>112.40000152588</ele>
        <time>2017-06-11T08:38:05.000Z</time>
      </trkpt>
      <trkpt lat="48.84649" lon="-0.39101">
        <ele>112.80000305176</ele>
        <time>2017-06-11T08:38:06.000Z</time>
      </trkpt>
      <trkpt lat="48.84649" lon="-0.39097">
        <ele>113.40000152588</ele>
        <time>2017-06-11T08:38:07.000Z</time>
      </trkpt>
      <trkpt lat="48.84649" lon="-0.39094">
        <ele>113.80000305176</ele>
        <time>2017-06-11T08:38:08.000Z</time>
      </trkpt>
      <trkpt lat="48.84647" lon="-0.39068">
        <ele>113.80000305176</ele>
        <time>2017-06-11T08:38:15.000Z</time>
      </trkpt>
      <trkpt lat="48.84638" lon="-0.39046">
        <ele>113.80000305176</ele>
        <time>2017-06-11T08:38:21.000Z</time>
      </trkpt>
      <trkpt lat="48.8463" lon="-0.39022">
        <ele>113.80000305176</ele>
        <time>2017-06-11T08:38:27.000Z</time>
      </trkpt>
      <trkpt lat="48.84622" lon="-0.39002">
        <ele>113.80000305176</ele>
        <time>2017-06-11T08:38:33.000Z</time>
      </trkpt>
      <trkpt lat="48.84613" lon="-0.38983">
        <ele>113.80000305176</ele>
        <time>2017-06-11T08:38:39.000Z</time>
      </trkpt>
      <trkpt lat="48.84596" lon="-0.38958">
        <ele>113.80000305176</ele>
        <time>2017-06-11T08:38:46.000Z</time>
      </trkpt>
      <trkpt lat="48.84576" lon="-0.38926">
        <ele>113.80000305176</ele>
        <time>2017-06-11T08:38:53.000Z</time>
      </trkpt>
      <trkpt lat="48.84564" lon="-0.389">
        <ele>113.40000152588</ele>
        <time>2017-06-11T08:38:58.000Z</time>
      </trkpt>
      <trkpt lat="48.84562" lon="-0.38895">
        <ele>113</ele>
        <time>2017-06-11T08:38:59.000Z</time>
      </trkpt>
      <trkpt lat="48.84561" lon="-0.38892">
        <ele>112.59999847412</ele>
        <time>2017-06-11T08:39:00.000Z</time>
      </trkpt>
      <trkpt lat="48.84559" lon="-0.38888">
        <ele>112.19999694824</ele>
        <time>2017-06-11T08:39:01.000Z</time>
      </trkpt>
      <trkpt lat="48.84557" lon="-0.38884">
        <ele>111.59999847412</ele>
        <time>2017-06-11T08:39:02.000Z</time>
      </trkpt>
      <trkpt lat="48.84555" lon="-0.38875">
        <ele>111.19999694824</ele>
        <time>2017-06-11T08:39:04.000Z</time>
      </trkpt>
      <trkpt lat="48.84553" lon="-0.38871">
        <ele>110.80000305176</ele>
        <time>2017-06-11T08:39:05.000Z</time>
      </trkpt>
      <trkpt lat="48.84551" lon="-0.38868">
        <ele>110.40000152588</ele>
        <time>2017-06-11T08:39:06.000Z</time>
      </trkpt>
      <trkpt lat="48.8455" lon="-0.38864">
        <ele>110</ele>
        <time>2017-06-11T08:39:07.000Z</time>
      </trkpt>
      <trkpt lat="48.84548" lon="-0.3886">
        <ele>109.59999847412</ele>
        <time>2017-06-11T08:39:08.000Z</time>
      </trkpt>
      <trkpt lat="48.84544" lon="-0.38851">
        <ele>109.19999694824</ele>
        <time>2017-06-11T08:39:10.000Z</time>
      </trkpt>
      <trkpt lat="48.84543" lon="-0.38846">
        <ele>108.80000305176</ele>
        <time>2017-06-11T08:39:11.000Z</time>
      </trkpt>
      <trkpt lat="48.84541" lon="-0.38841">
        <ele>108.40000152588</ele>
        <time>2017-06-11T08:39:12.000Z</time>
      </trkpt>
      <trkpt lat="48.84539" lon="-0.38837">
        <ele>108</ele>
        <time>2017-06-11T08:39:13.000Z</time>
      </trkpt>
      <trkpt lat="48.84537" lon="-0.38833">
        <ele>107.59999847412</ele>
        <time>2017-06-11T08:39:14.000Z</time>
      </trkpt>
      <trkpt lat="48.84536" lon="-0.3883">
        <ele>106.59999847412</ele>
        <time>2017-06-11T08:39:15.000Z</time>
      </trkpt>
      <trkpt lat="48.84535" lon="-0.38827">
        <ele>106</ele>
        <time>2017-06-11T08:39:16.000Z</time>
      </trkpt>
      <trkpt lat="48.84533" lon="-0.38824">
        <ele>105.59999847412</ele>
        <time>2017-06-11T08:39:17.000Z</time>
      </trkpt>
      <trkpt lat="48.84531" lon="-0.38821">
        <ele>105</ele>
        <time>2017-06-11T08:39:18.000Z</time>
      </trkpt>
      <trkpt lat="48.84523" lon="-0.38802">
        <ele>104.59999847412</ele>
        <time>2017-06-11T08:39:24.000Z</time>
      </trkpt>
      <trkpt lat="48.84522" lon="-0.38799">
        <ele>104.19999694824</ele>
        <time>2017-06-11T08:39:25.000Z</time>
      </trkpt>
      <trkpt lat="48.8452" lon="-0.38797">
        <ele>103.80000305176</ele>
        <time>2017-06-11T08:39:26.000Z</time>
      </trkpt>
      <trkpt lat="48.84519" lon="-0.38794">
        <ele>103.40000152588</ele>
        <time>2017-06-11T08:39:27.000Z</time>
      </trkpt>
      <trkpt lat="48.84518" lon="-0.38793">
        <ele>103</ele>
        <time>2017-06-11T08:39:28.000Z</time>
      </trkpt>
      <trkpt lat="48.84515" lon="-0.38789">
        <ele>103</ele>
        <time>2017-06-11T08:39:30.000Z</time>
      </trkpt>
      <trkpt lat="48.84515" lon="-0.38786">
        <ele>102.59999847412</ele>
        <time>2017-06-11T08:39:31.000Z</time>
      </trkpt>
      <trkpt lat="48.84514" lon="-0.38783">
        <ele>102.19999694824</ele>
        <time>2017-06-11T08:39:32.000Z</time>
      </trkpt>
      <trkpt lat="48.84513" lon="-0.38779">
        <ele>101.80000305176</ele>
        <time>2017-06-11T08:39:33.000Z</time>
      </trkpt>
      <trkpt lat="48.84511" lon="-0.38776">
        <ele>101.19999694824</ele>
        <time>2017-06-11T08:39:34.000Z</time>
      </trkpt>
      <trkpt lat="48.8451" lon="-0.38773">
        <ele>100.80000305176</ele>
        <time>2017-06-11T08:39:35.000Z</time>
      </trkpt>
      <trkpt lat="48.84504" lon="-0.38759">
        <ele>100.40000152588</ele>
        <time>2017-06-11T08:39:40.000Z</time>
      </trkpt>
      <trkpt lat="48.84503" lon="-0.38757">
        <ele>100</ele>
        <time>2017-06-11T08:39:41.000Z</time>
      </trkpt>
      <trkpt lat="48.84502" lon="-0.38755">
        <ele>99.599998474121</ele>
        <time>2017-06-11T08:39:42.000Z</time>
      </trkpt>
      <trkpt lat="48.84501" lon="-0.38753">
        <ele>99</ele>
        <time>2017-06-11T08:39:43.000Z</time>
      </trkpt>
      <trkpt lat="48.845" lon="-0.38751">
        <ele>98.599998474121</ele>
        <time>2017-06-11T08:39:44.000Z</time>
      </trkpt>
      <trkpt lat="48.84498" lon="-0.38744">
        <ele>98.599998474121</ele>
        <time>2017-06-11T08:39:47.000Z</time>
      </trkpt>
      <trkpt lat="48.84495" lon="-0.38736">
        <ele>98.199996948242</ele>
        <time>2017-06-11T08:39:50.000Z</time>
      </trkpt>
      <trkpt lat="48.84494" lon="-0.38734">
        <ele>97.800003051758</ele>
        <time>2017-06-11T08:39:51.000Z</time>
      </trkpt>
      <trkpt lat="48.84493" lon="-0.38732">
        <ele>97.400001525879</ele>
        <time>2017-06-11T08:39:52.000Z</time>
      </trkpt>
      <trkpt lat="48.84493" lon="-0.38729">
        <ele>97</ele>
        <time>2017-06-11T08:39:53.000Z</time>
      </trkpt>
      <trkpt lat="48.84492" lon="-0.38727">
        <ele>96.599998474121</ele>
        <time>2017-06-11T08:39:54.000Z</time>
      </trkpt>
      <trkpt lat="48.84487" lon="-0.38709">
        <ele>96.599998474121</ele>
        <time>2017-06-11T08:40:00.000Z</time>
      </trkpt>
      <trkpt lat="48.84486" lon="-0.38705">
        <ele>96.199996948242</ele>
        <time>2017-06-11T08:40:01.000Z</time>
      </trkpt>
      <trkpt lat="48.84485" lon="-0.387">
        <ele>95.800003051758</ele>
        <time>2017-06-11T08:40:02.000Z</time>
      </trkpt>
      <trkpt lat="48.84484" lon="-0.38695">
        <ele>95.400001525879</ele>
        <time>2017-06-11T08:40:03.000Z</time>
      </trkpt>
      <trkpt lat="48.84483" lon="-0.38689">
        <ele>95</ele>
        <time>2017-06-11T08:40:04.000Z</time>
      </trkpt>
      <trkpt lat="48.84482" lon="-0.38685">
        <ele>94.599998474121</ele>
        <time>2017-06-11T08:40:05.000Z</time>
      </trkpt>
      <trkpt lat="48.8448" lon="-0.38683">
        <ele>94.599998474121</ele>
        <time>2017-06-11T08:40:06.000Z</time>
      </trkpt>
      <trkpt lat="48.84477" lon="-0.38669">
        <ele>94.599998474121</ele>
        <time>2017-06-11T08:40:10.000Z</time>
      </trkpt>
      <trkpt lat="48.84476" lon="-0.38666">
        <ele>94.599998474121</ele>
        <time>2017-06-11T08:40:11.000Z</time>
      </trkpt>
      <trkpt lat="48.84475" lon="-0.38665">
        <ele>94.199996948242</ele>
        <time>2017-06-11T08:40:13.000Z</time>
      </trkpt>
      <trkpt lat="48.84475" lon="-0.38663">
        <ele>93.800003051758</ele>
        <time>2017-06-11T08:40:14.000Z</time>
      </trkpt>
      <trkpt lat="48.84475" lon="-0.38661">
        <ele>93.199996948242</ele>
        <time>2017-06-11T08:40:15.000Z</time>
      </trkpt>
      <trkpt lat="48.84474" lon="-0.38659">
        <ele>92.800003051758</ele>
        <time>2017-06-11T08:40:16.000Z</time>
      </trkpt>
      <trkpt lat="48.84473" lon="-0.38658">
        <ele>92.400001525879</ele>
        <time>2017-06-11T08:40:17.000Z</time>
      </trkpt>
      <trkpt lat="48.84473" lon="-0.38654">
        <ele>92.400001525879</ele>
        <time>2017-06-11T08:40:22.000Z</time>
      </trkpt>
      <trkpt lat="48.84468" lon="-0.38644">
        <ele>92.400001525879</ele>
        <time>2017-06-11T08:40:27.000Z</time>
      </trkpt>
      <trkpt lat="48.84466" lon="-0.3864">
        <ele>92</ele>
        <time>2017-06-11T08:40:29.000Z</time>
      </trkpt>
      <trkpt lat="48.84466" lon="-0.38637">
        <ele>91</ele>
        <time>2017-06-11T08:40:30.000Z</time>
      </trkpt>
      <trkpt lat="48.84466" lon="-0.38635">
        <ele>90.599998474121</ele>
        <time>2017-06-11T08:40:31.000Z</time>
      </trkpt>
      <trkpt lat="48.84464" lon="-0.38632">
        <ele>90.199996948242</ele>
        <time>2017-06-11T08:40:32.000Z</time>
      </trkpt>
      <trkpt lat="48.84463" lon="-0.38629">
        <ele>90.199996948242</ele>
        <time>2017-06-11T08:40:33.000Z</time>
      </trkpt>
      <trkpt lat="48.84458" lon="-0.38614">
        <ele>89.800003051758</ele>
        <time>2017-06-11T08:40:37.000Z</time>
      </trkpt>
      <trkpt lat="48.84457" lon="-0.3861">
        <ele>89.400001525879</ele>
        <time>2017-06-11T08:40:38.000Z</time>
      </trkpt>
      <trkpt lat="48.84455" lon="-0.38605">
        <ele>89</ele>
        <time>2017-06-11T08:40:39.000Z</time>
      </trkpt>
      <trkpt lat="48.84454" lon="-0.38601">
        <ele>88.599998474121</ele>
        <time>2017-06-11T08:40:40.000Z</time>
      </trkpt>
      <trkpt lat="48.84453" lon="-0.38597">
        <ele>88.199996948242</ele>
        <time>2017-06-11T08:40:41.000Z</time>
      </trkpt>
      <trkpt lat="48.84451" lon="-0.38589">
        <ele>88.199996948242</ele>
        <time>2017-06-11T08:40:45.000Z</time>
      </trkpt>
      <trkpt lat="48.84448" lon="-0.3858">
        <ele>88.199996948242</ele>
        <time>2017-06-11T08:40:49.000Z</time>
      </trkpt>
      <trkpt lat="48.84448" lon="-0.38576">
        <ele>88.199996948242</ele>
        <time>2017-06-11T08:40:53.000Z</time>
      </trkpt>
      <trkpt lat="48.84449" lon="-0.38573">
        <ele>88.199996948242</ele>
        <time>2017-06-11T08:40:54.000Z</time>
      </trkpt>
      <trkpt lat="48.84448" lon="-0.3856">
        <ele>88.199996948242</ele>
        <time>2017-06-11T08:40:57.000Z</time>
      </trkpt>
      <trkpt lat="48.84449" lon="-0.38538">
        <ele>88.199996948242</ele>
        <time>2017-06-11T08:41:02.000Z</time>
      </trkpt>
      <trkpt lat="48.84448" lon="-0.38515">
        <ele>88.199996948242</ele>
        <time>2017-06-11T08:41:08.000Z</time>
      </trkpt>
      <trkpt lat="48.84448" lon="-0.38515">
        <ele>87.800003051758</ele>
        <time>2017-06-11T08:41:09.000Z</time>
      </trkpt>
      <trkpt lat="48.84448" lon="-0.38514">
        <ele>87.199996948242</ele>
        <time>2017-06-11T08:41:10.000Z</time>
      </trkpt>
      <trkpt lat="48.84448" lon="-0.38512">
        <ele>86.800003051758</ele>
        <time>2017-06-11T08:41:11.000Z</time>
      </trkpt>
      <trkpt lat="48.84448" lon="-0.3851">
        <ele>86.400001525879</ele>
        <time>2017-06-11T08:41:12.000Z</time>
      </trkpt>
      <trkpt lat="48.84448" lon="-0.38508">
        <ele>86</ele>
        <time>2017-06-11T08:41:13.000Z</time>
      </trkpt>
      <trkpt lat="48.84448" lon="-0.38502">
        <ele>86</ele>
        <time>2017-06-11T08:41:17.000Z</time>
      </trkpt>
      <trkpt lat="48.84452" lon="-0.38489">
        <ele>86</ele>
        <time>2017-06-11T08:41:22.000Z</time>
      </trkpt>
      <trkpt lat="48.84451" lon="-0.38471">
        <ele>86</ele>
        <time>2017-06-11T08:41:28.000Z</time>
      </trkpt>
      <trkpt lat="48.84451" lon="-0.38458">
        <ele>86</ele>
        <time>2017-06-11T08:41:32.000Z</time>
      </trkpt>
      <trkpt lat="48.84451" lon="-0.38456">
        <ele>86</ele>
        <time>2017-06-11T08:41:33.000Z</time>
      </trkpt>
      <trkpt lat="48.84451" lon="-0.38452">
        <ele>85.599998474121</ele>
        <time>2017-06-11T08:41:37.000Z</time>
      </trkpt>
      <trkpt lat="48.84451" lon="-0.38451">
        <ele>85.199996948242</ele>
        <time>2017-06-11T08:41:38.000Z</time>
      </trkpt>
      <trkpt lat="48.84451" lon="-0.38449">
        <ele>84.800003051758</ele>
        <time>2017-06-11T08:41:39.000Z</time>
      </trkpt>
      <trkpt lat="48.8445" lon="-0.38447">
        <ele>84.400001525879</ele>
        <time>2017-06-11T08:41:40.000Z</time>
      </trkpt>
      <trkpt lat="48.84449" lon="-0.38446">
        <ele>84</ele>
        <time>2017-06-11T08:41:41.000Z</time>
      </trkpt>
      <trkpt lat="48.84449" lon="-0.38445">
        <ele>84</ele>
        <time>2017-06-11T08:41:43.000Z</time>
      </trkpt>
      <trkpt lat="48.8445" lon="-0.38443">
        <ele>84</ele>
        <time>2017-06-11T08:41:44.000Z</time>
      </trkpt>
      <trkpt lat="48.84448" lon="-0.38439">
        <ele>83.400001525879</ele>
        <time>2017-06-11T08:41:47.000Z</time>
      </trkpt>
      <trkpt lat="48.84448" lon="-0.38438">
        <ele>83</ele>
        <time>2017-06-11T08:41:48.000Z</time>
      </trkpt>
      <trkpt lat="48.84448" lon="-0.38436">
        <ele>82.599998474121</ele>
        <time>2017-06-11T08:41:49.000Z</time>
      </trkpt>
      <trkpt lat="48.84447" lon="-0.38434">
        <ele>82.199996948242</ele>
        <time>2017-06-11T08:41:50.000Z</time>
      </trkpt>
      <trkpt lat="48.84447" lon="-0.38431">
        <ele>81.800003051758</ele>
        <time>2017-06-11T08:41:51.000Z</time>
      </trkpt>
      <trkpt lat="48.84447" lon="-0.38429">
        <ele>81.800003051758</ele>
        <time>2017-06-11T08:41:52.000Z</time>
      </trkpt>
      <trkpt lat="48.84448" lon="-0.38425">
        <ele>81.800003051758</ele>
        <time>2017-06-11T08:41:54.000Z</time>
      </trkpt>
      <trkpt lat="48.84448" lon="-0.38419">
        <ele>81.800003051758</ele>
        <time>2017-06-11T08:41:56.000Z</time>
      </trkpt>
      <trkpt lat="48.84447" lon="-0.38392">
        <ele>81.800003051758</ele>
        <time>2017-06-11T08:42:02.000Z</time>
      </trkpt>
      <trkpt lat="48.84447" lon="-0.3839">
        <ele>81.400001525879</ele>
        <time>2017-06-11T08:42:04.000Z</time>
      </trkpt>
      <trkpt lat="48.84448" lon="-0.38388">
        <ele>81</ele>
        <time>2017-06-11T08:42:05.000Z</time>
      </trkpt>
      <trkpt lat="48.84449" lon="-0.38386">
        <ele>80.599998474121</ele>
        <time>2017-06-11T08:42:06.000Z</time>
      </trkpt>
      <trkpt lat="48.84449" lon="-0.38385">
        <ele>80.199996948242</ele>
        <time>2017-06-11T08:42:07.000Z</time>
      </trkpt>
      <trkpt lat="48.84449" lon="-0.38384">
        <ele>79.800003051758</ele>
        <time>2017-06-11T08:42:08.000Z</time>
      </trkpt>
      <trkpt lat="48.84452" lon="-0.38377">
        <ele>79.800003051758</ele>
        <time>2017-06-11T08:42:13.000Z</time>
      </trkpt>
      <trkpt lat="48.84454" lon="-0.38372">
        <ele>79.199996948242</ele>
        <time>2017-06-11T08:42:18.000Z</time>
      </trkpt>
      <trkpt lat="48.84454" lon="-0.3837">
        <ele>78.800003051758</ele>
        <time>2017-06-11T08:42:19.000Z</time>
      </trkpt>
      <trkpt lat="48.84454" lon="-0.3837">
        <ele>78.400001525879</ele>
        <time>2017-06-11T08:42:20.000Z</time>
      </trkpt>
      <trkpt lat="48.84455" lon="-0.38368">
        <ele>77.800003051758</ele>
        <time>2017-06-11T08:42:21.000Z</time>
      </trkpt>
      <trkpt lat="48.84455" lon="-0.38367">
        <ele>77.400001525879</ele>
        <time>2017-06-11T08:42:22.000Z</time>
      </trkpt>
      <trkpt lat="48.84457" lon="-0.38358">
        <ele>77</ele>
        <time>2017-06-11T08:42:28.000Z</time>
      </trkpt>
      <trkpt lat="48.84457" lon="-0.38358">
        <ele>76.599998474121</ele>
        <time>2017-06-11T08:42:29.000Z</time>
      </trkpt>
      <trkpt lat="48.84457" lon="-0.38358">
        <ele>76.199996948242</ele>
        <time>2017-06-11T08:42:30.000Z</time>
      </trkpt>
      <trkpt lat="48.84457" lon="-0.38358">
        <ele>75.599998474121</ele>
        <time>2017-06-11T08:42:31.000Z</time>
      </trkpt>
      <trkpt lat="48.84458" lon="-0.38357">
        <ele>75.199996948242</ele>
        <time>2017-06-11T08:42:32.000Z</time>
      </trkpt>
      <trkpt lat="48.84458" lon="-0.38349">
        <ele>75.199996948242</ele>
        <time>2017-06-11T08:42:34.000Z</time>
      </trkpt>
      <trkpt lat="48.84461" lon="-0.38326">
        <ele>74.800003051758</ele>
        <time>2017-06-11T08:42:39.000Z</time>
      </trkpt>
      <trkpt lat="48.84463" lon="-0.38322">
        <ele>74.400001525879</ele>
        <time>2017-06-11T08:42:40.000Z</time>
      </trkpt>
      <trkpt lat="48.84465" lon="-0.38316">
        <ele>73.800003051758</ele>
        <time>2017-06-11T08:42:41.000Z</time>
      </trkpt>
      <trkpt lat="48.84466" lon="-0.38309">
        <ele>73.400001525879</ele>
        <time>2017-06-11T08:42:42.000Z</time>
      </trkpt>
      <trkpt lat="48.84468" lon="-0.38302">
        <ele>73</ele>
        <time>2017-06-11T08:42:43.000Z</time>
      </trkpt>
      <trkpt lat="48.8447" lon="-0.38296">
        <ele>73</ele>
        <time>2017-06-11T08:42:44.000Z</time>
      </trkpt>
      <trkpt lat="48.84473" lon="-0.38284">
        <ele>72.400001525879</ele>
        <time>2017-06-11T08:42:46.000Z</time>
      </trkpt>
      <trkpt lat="48.84475" lon="-0.3828">
        <ele>72</ele>
        <time>2017-06-11T08:42:47.000Z</time>
      </trkpt>
      <trkpt lat="48.84475" lon="-0.38277">
        <ele>71.599998474121</ele>
        <time>2017-06-11T08:42:48.000Z</time>
      </trkpt>
      <trkpt lat="48.84475" lon="-0.38277">
        <ele>71.199996948242</ele>
        <time>2017-06-11T08:42:49.000Z</time>
      </trkpt>
      <trkpt lat="48.84475" lon="-0.38276">
        <ele>70.800003051758</ele>
        <time>2017-06-11T08:42:50.000Z</time>
      </trkpt>
      <trkpt lat="48.84475" lon="-0.38276">
        <ele>70.800003051758</ele>
        <time>2017-06-11T08:42:55.000Z</time>
      </trkpt>
      <trkpt lat="48.84477" lon="-0.38269">
        <ele>70.800003051758</ele>
        <time>2017-06-11T08:43:00.000Z</time>
      </trkpt>
      <trkpt lat="48.84483" lon="-0.38253">
        <ele>70.199996948242</ele>
        <time>2017-06-11T08:43:04.000Z</time>
      </trkpt>
      <trkpt lat="48.84485" lon="-0.38249">
        <ele>69.800003051758</ele>
        <time>2017-06-11T08:43:05.000Z</time>
      </trkpt>
      <trkpt lat="48.84486" lon="-0.38247">
        <ele>69.400001525879</ele>
        <time>2017-06-11T08:43:06.000Z</time>
      </trkpt>
      <trkpt lat="48.84487" lon="-0.38245">
        <ele>69</ele>
        <time>2017-06-11T08:43:07.000Z</time>
      </trkpt>
      <trkpt lat="48.84489" lon="-0.38242">
        <ele>68.400001525879</ele>
        <time>2017-06-11T08:43:08.000Z</time>
      </trkpt>
      <trkpt lat="48.8449" lon="-0.38239">
        <ele>68.400001525879</ele>
        <time>2017-06-11T08:43:09.000Z</time>
      </trkpt>
      <trkpt lat="48.84494" lon="-0.38233">
        <ele>68</ele>
        <time>2017-06-11T08:43:11.000Z</time>
      </trkpt>
      <trkpt lat="48.84496" lon="-0.3823">
        <ele>67.599998474121</ele>
        <time>2017-06-11T08:43:12.000Z</time>
      </trkpt>
      <trkpt lat="48.84498" lon="-0.38227">
        <ele>67.199996948242</ele>
        <time>2017-06-11T08:43:13.000Z</time>
      </trkpt>
      <trkpt lat="48.845" lon="-0.38225">
        <ele>66.800003051758</ele>
        <time>2017-06-11T08:43:14.000Z</time>
      </trkpt>
      <trkpt lat="48.845" lon="-0.38221">
        <ele>66.400001525879</ele>
        <time>2017-06-11T08:43:15.000Z</time>
      </trkpt>
      <trkpt lat="48.84501" lon="-0.38215">
        <ele>66</ele>
        <time>2017-06-11T08:43:17.000Z</time>
      </trkpt>
      <trkpt lat="48.84502" lon="-0.38212">
        <ele>65.400001525879</ele>
        <time>2017-06-11T08:43:18.000Z</time>
      </trkpt>
      <trkpt lat="48.84502" lon="-0.3821">
        <ele>65</ele>
        <time>2017-06-11T08:43:19.000Z</time>
      </trkpt>
      <trkpt lat="48.84502" lon="-0.38207">
        <ele>64.599998474121</ele>
        <time>2017-06-11T08:43:20.000Z</time>
      </trkpt>
      <trkpt lat="48.84502" lon="-0.38205">
        <ele>64.199996948242</ele>
        <time>2017-06-11T08:43:21.000Z</time>
      </trkpt>
      <trkpt lat="48.84503" lon="-0.38202">
        <ele>63.799999237061</ele>
        <time>2017-06-11T08:43:24.000Z</time>
      </trkpt>
      <trkpt lat="48.84503" lon="-0.38201">
        <ele>63.400001525879</ele>
        <time>2017-06-11T08:43:25.000Z</time>
      </trkpt>
      <trkpt lat="48.84503" lon="-0.38201">
        <ele>63</ele>
        <time>2017-06-11T08:43:26.000Z</time>
      </trkpt>
      <trkpt lat="48.84503" lon="-0.38201">
        <ele>62.400001525879</ele>
        <time>2017-06-11T08:43:27.000Z</time>
      </trkpt>
      <trkpt lat="48.84503" lon="-0.38201">
        <ele>62</ele>
        <time>2017-06-11T08:43:28.000Z</time>
      </trkpt>
      <trkpt lat="48.84503" lon="-0.38201">
        <ele>62</ele>
        <time>2017-06-11T08:43:33.000Z</time>
      </trkpt>
      <trkpt lat="48.84505" lon="-0.38196">
        <ele>62</ele>
        <time>2017-06-11T08:43:36.000Z</time>
      </trkpt>
      <trkpt lat="48.84506" lon="-0.38193">
        <ele>62</ele>
        <time>2017-06-11T08:43:38.000Z</time>
      </trkpt>
      <trkpt lat="48.84507" lon="-0.38188">
        <ele>61.599998474121</ele>
        <time>2017-06-11T08:43:43.000Z</time>
      </trkpt>
      <trkpt lat="48.84508" lon="-0.38187">
        <ele>61.200000762939</ele>
        <time>2017-06-11T08:43:44.000Z</time>
      </trkpt>
      <trkpt lat="48.84509" lon="-0.38187">
        <ele>60.799999237061</ele>
        <time>2017-06-11T08:43:45.000Z</time>
      </trkpt>
      <trkpt lat="48.8451" lon="-0.38186">
        <ele>60.400001525879</ele>
        <time>2017-06-11T08:43:46.000Z</time>
      </trkpt>
      <trkpt lat="48.84511" lon="-0.38185">
        <ele>60</ele>
        <time>2017-06-11T08:43:47.000Z</time>
      </trkpt>
      <trkpt lat="48.84513" lon="-0.38182">
        <ele>60</ele>
        <time>2017-06-11T08:43:50.000Z</time>
      </trkpt>
      <trkpt lat="48.84515" lon="-0.38177">
        <ele>59.599998474121</ele>
        <time>2017-06-11T08:43:54.000Z</time>
      </trkpt>
      <trkpt lat="48.84516" lon="-0.38177">
        <ele>59</ele>
        <time>2017-06-11T08:43:55.000Z</time>
      </trkpt>
      <trkpt lat="48.84516" lon="-0.38176">
        <ele>58.599998474121</ele>
        <time>2017-06-11T08:43:56.000Z</time>
      </trkpt>
      <trkpt lat="48.84517" lon="-0.38175">
        <ele>58.200000762939</ele>
        <time>2017-06-11T08:43:57.000Z</time>
      </trkpt>
      <trkpt lat="48.84517" lon="-0.38174">
        <ele>57.799999237061</ele>
        <time>2017-06-11T08:43:58.000Z</time>
      </trkpt>
      <trkpt lat="48.84521" lon="-0.38173">
        <ele>57.799999237061</ele>
        <time>2017-06-11T08:44:03.000Z</time>
      </trkpt>
      <trkpt lat="48.84525" lon="-0.38165">
        <ele>57.400001525879</ele>
        <time>2017-06-11T08:44:07.000Z</time>
      </trkpt>
      <trkpt lat="48.84525" lon="-0.38165">
        <ele>57</ele>
        <time>2017-06-11T08:44:08.000Z</time>
      </trkpt>
      <trkpt lat="48.84525" lon="-0.38164">
        <ele>56.400001525879</ele>
        <time>2017-06-11T08:44:09.000Z</time>
      </trkpt>
      <trkpt lat="48.84525" lon="-0.38164">
        <ele>56</ele>
        <time>2017-06-11T08:44:10.000Z</time>
      </trkpt>
      <trkpt lat="48.84525" lon="-0.38163">
        <ele>55.599998474121</ele>
        <time>2017-06-11T08:44:11.000Z</time>
      </trkpt>
      <trkpt lat="48.84526" lon="-0.38161">
        <ele>55.599998474121</ele>
        <time>2017-06-11T08:44:13.000Z</time>
      </trkpt>
      <trkpt lat="48.84526" lon="-0.38158">
        <ele>55.599998474121</ele>
        <time>2017-06-11T08:44:19.000Z</time>
      </trkpt>
      <trkpt lat="48.84522" lon="-0.38158">
        <ele>55.200000762939</ele>
        <time>2017-06-11T08:44:23.000Z</time>
      </trkpt>
      <trkpt lat="48.8452" lon="-0.38158">
        <ele>54.799999237061</ele>
        <time>2017-06-11T08:44:24.000Z</time>
      </trkpt>
      <trkpt lat="48.84518" lon="-0.38157">
        <ele>54.400001525879</ele>
        <time>2017-06-11T08:44:25.000Z</time>
      </trkpt>
      <trkpt lat="48.84515" lon="-0.38157">
        <ele>54</ele>
        <time>2017-06-11T08:44:26.000Z</time>
      </trkpt>
      <trkpt lat="48.84512" lon="-0.38157">
        <ele>53.599998474121</ele>
        <time>2017-06-11T08:44:27.000Z</time>
      </trkpt>
      <trkpt lat="48.84501" lon="-0.38154">
        <ele>53.599998474121</ele>
        <time>2017-06-11T08:44:30.000Z</time>
      </trkpt>
      <trkpt lat="48.84477" lon="-0.38165">
        <ele>53.599998474121</ele>
        <time>2017-06-11T08:44:36.000Z</time>
      </trkpt>
      <trkpt lat="48.84461" lon="-0.38184">
        <ele>53.599998474121</ele>
        <time>2017-06-11T08:44:41.000Z</time>
      </trkpt>
      <trkpt lat="48.84445" lon="-0.3821">
        <ele>53.599998474121</ele>
        <time>2017-06-11T08:44:47.000Z</time>
      </trkpt>
      <trkpt lat="48.84434" lon="-0.38239">
        <ele>53.599998474121</ele>
        <time>2017-06-11T08:44:52.000Z</time>
      </trkpt>
      <trkpt lat="48.84432" lon="-0.38245">
        <ele>53.599998474121</ele>
        <time>2017-06-11T08:44:53.000Z</time>
      </trkpt>
      <trkpt lat="48.84428" lon="-0.38257">
        <ele>53.599998474121</ele>
        <time>2017-06-11T08:44:55.000Z</time>
      </trkpt>
      <trkpt lat="48.84424" lon="-0.38277">
        <ele>53.599998474121</ele>
        <time>2017-06-11T08:44:58.000Z</time>
      </trkpt>
      <trkpt lat="48.84422" lon="-0.38283">
        <ele>53.599998474121</ele>
        <time>2017-06-11T08:44:59.000Z</time>
      </trkpt>
      <trkpt lat="48.84416" lon="-0.38308">
        <ele>53.599998474121</ele>
        <time>2017-06-11T08:45:03.000Z</time>
      </trkpt>
      <trkpt lat="48.84404" lon="-0.38357">
        <ele>53.599998474121</ele>
        <time>2017-06-11T08:45:10.000Z</time>
      </trkpt>
      <trkpt lat="48.8439" lon="-0.38396">
        <ele>53.599998474121</ele>
        <time>2017-06-11T08:45:16.000Z</time>
      </trkpt>
      <trkpt lat="48.84372" lon="-0.38446">
        <ele>53.599998474121</ele>
        <time>2017-06-11T08:45:24.000Z</time>
      </trkpt>
      <trkpt lat="48.84369" lon="-0.38458">
        <ele>53.599998474121</ele>
        <time>2017-06-11T08:45:26.000Z</time>
      </trkpt>
      <trkpt lat="48.84363" lon="-0.38475">
        <ele>53.599998474121</ele>
        <time>2017-06-11T08:45:29.000Z</time>
      </trkpt>
      <trkpt lat="48.84362" lon="-0.38481">
        <ele>53.599998474121</ele>
        <time>2017-06-11T08:45:30.000Z</time>
      </trkpt>
      <trkpt lat="48.84358" lon="-0.38493">
        <ele>53.599998474121</ele>
        <time>2017-06-11T08:45:32.000Z</time>
      </trkpt>
      <trkpt lat="48.84354" lon="-0.38506">
        <ele>53.599998474121</ele>
        <time>2017-06-11T08:45:34.000Z</time>
      </trkpt>
      <trkpt lat="48.84342" lon="-0.38547">
        <ele>53.599998474121</ele>
        <time>2017-06-11T08:45:41.000Z</time>
      </trkpt>
      <trkpt lat="48.8434" lon="-0.3856">
        <ele>53.599998474121</ele>
        <time>2017-06-11T08:45:43.000Z</time>
      </trkpt>
      <trkpt lat="48.84334" lon="-0.38588">
        <ele>53.599998474121</ele>
        <time>2017-06-11T08:45:47.000Z</time>
      </trkpt>
      <trkpt lat="48.84328" lon="-0.38632">
        <ele>53.599998474121</ele>
        <time>2017-06-11T08:45:53.000Z</time>
      </trkpt>
      <trkpt lat="48.84325" lon="-0.38673">
        <ele>53.599998474121</ele>
        <time>2017-06-11T08:45:59.000Z</time>
      </trkpt>
      <trkpt lat="48.84327" lon="-0.3872">
        <ele>53.599998474121</ele>
        <time>2017-06-11T08:46:06.000Z</time>
      </trkpt>
      <trkpt lat="48.84329" lon="-0.38746">
        <ele>53.599998474121</ele>
        <time>2017-06-11T08:46:10.000Z</time>
      </trkpt>
      <trkpt lat="48.84331" lon="-0.38758">
        <ele>53.599998474121</ele>
        <time>2017-06-11T08:46:12.000Z</time>
      </trkpt>
      <trkpt lat="48.84332" lon="-0.38779">
        <ele>53.599998474121</ele>
        <time>2017-06-11T08:46:15.000Z</time>
      </trkpt>
      <trkpt lat="48.84334" lon="-0.388">
        <ele>53.599998474121</ele>
        <time>2017-06-11T08:46:18.000Z</time>
      </trkpt>
      <trkpt lat="48.84342" lon="-0.38838">
        <ele>53.599998474121</ele>
        <time>2017-06-11T08:46:24.000Z</time>
      </trkpt>
      <trkpt lat="48.84356" lon="-0.38865">
        <ele>53.599998474121</ele>
        <time>2017-06-11T08:46:30.000Z</time>
      </trkpt>
      <trkpt lat="48.84366" lon="-0.38876">
        <ele>53.599998474121</ele>
        <time>2017-06-11T08:46:33.000Z</time>
      </trkpt>
      <trkpt lat="48.84372" lon="-0.38884">
        <ele>53.599998474121</ele>
        <time>2017-06-11T08:46:35.000Z</time>
      </trkpt>
      <trkpt lat="48.84389" lon="-0.38908">
        <ele>53.599998474121</ele>
        <time>2017-06-11T08:46:41.000Z</time>
      </trkpt>
      <trkpt lat="48.84396" lon="-0.38918">
        <ele>53.599998474121</ele>
        <time>2017-06-11T08:46:43.000Z</time>
      </trkpt>
      <trkpt lat="48.84408" lon="-0.3893">
        <ele>53.599998474121</ele>
        <time>2017-06-11T08:46:46.000Z</time>
      </trkpt>
      <trkpt lat="48.84412" lon="-0.38935">
        <ele>53.599998474121</ele>
        <time>2017-06-11T08:46:47.000Z</time>
      </trkpt>
      <trkpt lat="48.84428" lon="-0.38955">
        <ele>53.599998474121</ele>
        <time>2017-06-11T08:46:52.000Z</time>
      </trkpt>
      <trkpt lat="48.84451" lon="-0.38983">
        <ele>53.599998474121</ele>
        <time>2017-06-11T08:46:59.000Z</time>
      </trkpt>
      <trkpt lat="48.84468" lon="-0.39005">
        <ele>53.599998474121</ele>
        <time>2017-06-11T08:47:04.000Z</time>
      </trkpt>
      <trkpt lat="48.84488" lon="-0.39028">
        <ele>53.599998474121</ele>
        <time>2017-06-11T08:47:10.000Z</time>
      </trkpt>
      <trkpt lat="48.84503" lon="-0.39052">
        <ele>53.599998474121</ele>
        <time>2017-06-11T08:47:15.000Z</time>
      </trkpt>
      <trkpt lat="48.84508" lon="-0.39063">
        <ele>53.599998474121</ele>
        <time>2017-06-11T08:47:17.000Z</time>
      </trkpt>
      <trkpt lat="48.84525" lon="-0.39092">
        <ele>53.599998474121</ele>
        <time>2017-06-11T08:47:23.000Z</time>
      </trkpt>
      <trkpt lat="48.8454" lon="-0.39127">
        <ele>53.599998474121</ele>
        <time>2017-06-11T08:47:30.000Z</time>
      </trkpt>
      <trkpt lat="48.8456" lon="-0.39162">
        <ele>53.599998474121</ele>
        <time>2017-06-11T08:47:37.000Z</time>
      </trkpt>
      <trkpt lat="48.84573" lon="-0.39188">
        <ele>53.599998474121</ele>
        <time>2017-06-11T08:47:43.000Z</time>
      </trkpt>
      <trkpt lat="48.84582" lon="-0.39197">
        <ele>53.599998474121</ele>
        <time>2017-06-11T08:47:49.000Z</time>
      </trkpt>
      <trkpt lat="48.84583" lon="-0.39198">
        <ele>53.599998474121</ele>
        <time>2017-06-11T08:47:56.000Z</time>
      </trkpt>
      <trkpt lat="48.84583" lon="-0.39198">
        <ele>53.599998474121</ele>
        <time>2017-06-11T08:48:09.000Z</time>
      </trkpt>
      <trkpt lat="48.84583" lon="-0.39198">
        <ele>53.599998474121</ele>
        <time>2017-06-11T08:48:17.000Z</time>
      </trkpt>
      <trkpt lat="48.84583" lon="-0.39198">
        <ele>53.599998474121</ele>
        <time>2017-06-11T08:48:24.000Z</time>
      </trkpt>
      <trkpt lat="48.84583" lon="-0.39198">
        <ele>53.599998474121</ele>
        <time>2017-06-11T08:48:39.000Z</time>
      </trkpt>
      <trkpt lat="48.84583" lon="-0.39198">
        <ele>53.599998474121</ele>
        <time>2017-06-11T08:48:55.000Z</time>
      </trkpt>
      <trkpt lat="48.84578" lon="-0.39199">
        <ele>53.599998474121</ele>
        <time>2017-06-11T08:49:05.000Z</time>
      </trkpt>
      <trkpt lat="48.84578" lon="-0.39199">
        <ele>53.599998474121</ele>
        <time>2017-06-11T08:49:19.000Z</time>
      </trkpt>
      <trkpt lat="48.84578" lon="-0.39199">
        <ele>53.599998474121</ele>
        <time>2017-06-11T08:49:34.000Z</time>
      </trkpt>
      <trkpt lat="48.84578" lon="-0.39199">
        <ele>53.599998474121</ele>
        <time>2017-06-11T08:49:49.000Z</time>
      </trkpt>
      <trkpt lat="48.84578" lon="-0.39199">
        <ele>53.599998474121</ele>
        <time>2017-06-11T08:50:01.000Z</time>
      </trkpt>
      <trkpt lat="48.84578" lon="-0.39199">
        <ele>53.599998474121</ele>
        <time>2017-06-11T08:50:15.000Z</time>
      </trkpt>
      <trkpt lat="48.84578" lon="-0.39204">
        <ele>53.599998474121</ele>
        <time>2017-06-11T08:50:23.000Z</time>
      </trkpt>
      <trkpt lat="48.84581" lon="-0.39217">
        <ele>53.599998474121</ele>
        <time>2017-06-11T08:50:28.000Z</time>
      </trkpt>
      <trkpt lat="48.84581" lon="-0.39224">
        <ele>53.599998474121</ele>
        <time>2017-06-11T08:50:30.000Z</time>
      </trkpt>
      <trkpt lat="48.84584" lon="-0.39249">
        <ele>53.599998474121</ele>
        <time>2017-06-11T08:50:37.000Z</time>
      </trkpt>
      <trkpt lat="48.84587" lon="-0.39264">
        <ele>54</ele>
        <time>2017-06-11T08:50:42.000Z</time>
      </trkpt>
      <trkpt lat="48.84587" lon="-0.39266">
        <ele>54.400001525879</ele>
        <time>2017-06-11T08:50:43.000Z</time>
      </trkpt>
      <trkpt lat="48.84587" lon="-0.39269">
        <ele>54.799999237061</ele>
        <time>2017-06-11T08:50:44.000Z</time>
      </trkpt>
      <trkpt lat="48.84587" lon="-0.39271">
        <ele>55.200000762939</ele>
        <time>2017-06-11T08:50:45.000Z</time>
      </trkpt>
      <trkpt lat="48.84587" lon="-0.39271">
        <ele>55.599998474121</ele>
        <time>2017-06-11T08:50:46.000Z</time>
      </trkpt>
      <trkpt lat="48.84589" lon="-0.39281">
        <ele>55.599998474121</ele>
        <time>2017-06-11T08:50:50.000Z</time>
      </trkpt>
      <trkpt lat="48.8459" lon="-0.39303">
        <ele>55.599998474121</ele>
        <time>2017-06-11T08:50:57.000Z</time>
      </trkpt>
      <trkpt lat="48.84589" lon="-0.39324">
        <ele>55.599998474121</ele>
        <time>2017-06-11T08:51:03.000Z</time>
      </trkpt>
      <trkpt lat="48.84586" lon="-0.39356">
        <ele>55.599998474121</ele>
        <time>2017-06-11T08:51:09.000Z</time>
      </trkpt>
      <trkpt lat="48.84581" lon="-0.39389">
        <ele>55.599998474121</ele>
        <time>2017-06-11T08:51:16.000Z</time>
      </trkpt>
      <trkpt lat="48.84575" lon="-0.3943">
        <ele>55.599998474121</ele>
        <time>2017-06-11T08:51:23.000Z</time>
      </trkpt>
      <trkpt lat="48.84566" lon="-0.39467">
        <ele>55.599998474121</ele>
        <time>2017-06-11T08:51:29.000Z</time>
      </trkpt>
      <trkpt lat="48.84562" lon="-0.3948">
        <ele>55.599998474121</ele>
        <time>2017-06-11T08:51:31.000Z</time>
      </trkpt>
      <trkpt lat="48.84554" lon="-0.39504">
        <ele>55.599998474121</ele>
        <time>2017-06-11T08:51:35.000Z</time>
      </trkpt>
      <trkpt lat="48.84542" lon="-0.39545">
        <ele>55.599998474121</ele>
        <time>2017-06-11T08:51:42.000Z</time>
      </trkpt>
      <trkpt lat="48.84537" lon="-0.39574">
        <ele>56</ele>
        <time>2017-06-11T08:51:48.000Z</time>
      </trkpt>
      <trkpt lat="48.84535" lon="-0.39579">
        <ele>56.400001525879</ele>
        <time>2017-06-11T08:51:49.000Z</time>
      </trkpt>
      <trkpt lat="48.84534" lon="-0.39583">
        <ele>56.799999237061</ele>
        <time>2017-06-11T08:51:50.000Z</time>
      </trkpt>
      <trkpt lat="48.84533" lon="-0.39587">
        <ele>57.200000762939</ele>
        <time>2017-06-11T08:51:51.000Z</time>
      </trkpt>
      <trkpt lat="48.84531" lon="-0.39593">
        <ele>57.599998474121</ele>
        <time>2017-06-11T08:51:52.000Z</time>
      </trkpt>
      <trkpt lat="48.84524" lon="-0.39614">
        <ele>57.599998474121</ele>
        <time>2017-06-11T08:51:56.000Z</time>
      </trkpt>
      <trkpt lat="48.84517" lon="-0.3964">
        <ele>57.599998474121</ele>
        <time>2017-06-11T08:52:02.000Z</time>
      </trkpt>
      <trkpt lat="48.84506" lon="-0.39677">
        <ele>57.599998474121</ele>
        <time>2017-06-11T08:52:10.000Z</time>
      </trkpt>
      <trkpt lat="48.8449" lon="-0.39705">
        <ele>57.599998474121</ele>
        <time>2017-06-11T08:52:16.000Z</time>
      </trkpt>
      <trkpt lat="48.84472" lon="-0.39735">
        <ele>57.599998474121</ele>
        <time>2017-06-11T08:52:23.000Z</time>
      </trkpt>
      <trkpt lat="48.84466" lon="-0.39744">
        <ele>57.599998474121</ele>
        <time>2017-06-11T08:52:25.000Z</time>
      </trkpt>
      <trkpt lat="48.84457" lon="-0.39756">
        <ele>57.599998474121</ele>
        <time>2017-06-11T08:52:28.000Z</time>
      </trkpt>
      <trkpt lat="48.84437" lon="-0.39782">
        <ele>57.599998474121</ele>
        <time>2017-06-11T08:52:34.000Z</time>
      </trkpt>
      <trkpt lat="48.84434" lon="-0.39786">
        <ele>57.599998474121</ele>
        <time>2017-06-11T08:52:35.000Z</time>
      </trkpt>
      <trkpt lat="48.84416" lon="-0.39808">
        <ele>57.599998474121</ele>
        <time>2017-06-11T08:52:41.000Z</time>
      </trkpt>
      <trkpt lat="48.84391" lon="-0.39832">
        <ele>57.599998474121</ele>
        <time>2017-06-11T08:52:49.000Z</time>
      </trkpt>
      <trkpt lat="48.84371" lon="-0.39846">
        <ele>57.599998474121</ele>
        <time>2017-06-11T08:52:55.000Z</time>
      </trkpt>
      <trkpt lat="48.84349" lon="-0.39852">
        <ele>57.599998474121</ele>
        <time>2017-06-11T08:53:01.000Z</time>
      </trkpt>
      <trkpt lat="48.84333" lon="-0.39852">
        <ele>58</ele>
        <time>2017-06-11T08:53:05.000Z</time>
      </trkpt>
      <trkpt lat="48.84329" lon="-0.39852">
        <ele>58.599998474121</ele>
        <time>2017-06-11T08:53:06.000Z</time>
      </trkpt>
      <trkpt lat="48.84326" lon="-0.39852">
        <ele>59</ele>
        <time>2017-06-11T08:53:07.000Z</time>
      </trkpt>
      <trkpt lat="48.84323" lon="-0.39851">
        <ele>59.400001525879</ele>
        <time>2017-06-11T08:53:08.000Z</time>
      </trkpt>
      <trkpt lat="48.84319" lon="-0.39849">
        <ele>59.799999237061</ele>
        <time>2017-06-11T08:53:09.000Z</time>
      </trkpt>
      <trkpt lat="48.84298" lon="-0.39843">
        <ele>59.799999237061</ele>
        <time>2017-06-11T08:53:15.000Z</time>
      </trkpt>
      <trkpt lat="48.84275" lon="-0.39831">
        <ele>59.799999237061</ele>
        <time>2017-06-11T08:53:22.000Z</time>
      </trkpt>
      <trkpt lat="48.84263" lon="-0.39813">
        <ele>60.200000762939</ele>
        <time>2017-06-11T08:53:27.000Z</time>
      </trkpt>
      <trkpt lat="48.84261" lon="-0.39808">
        <ele>60.599998474121</ele>
        <time>2017-06-11T08:53:28.000Z</time>
      </trkpt>
      <trkpt lat="48.84258" lon="-0.39805">
        <ele>61</ele>
        <time>2017-06-11T08:53:29.000Z</time>
      </trkpt>
      <trkpt lat="48.84254" lon="-0.39801">
        <ele>61.400001525879</ele>
        <time>2017-06-11T08:53:30.000Z</time>
      </trkpt>
      <trkpt lat="48.8425" lon="-0.39796">
        <ele>61.799999237061</ele>
        <time>2017-06-11T08:53:31.000Z</time>
      </trkpt>
      <trkpt lat="48.84236" lon="-0.39778">
        <ele>61.799999237061</ele>
        <time>2017-06-11T08:53:35.000Z</time>
      </trkpt>
      <trkpt lat="48.84213" lon="-0.39746">
        <ele>61</ele>
        <time>2017-06-11T08:53:41.000Z</time>
      </trkpt>
      <trkpt lat="48.8421" lon="-0.3974">
        <ele>60.599998474121</ele>
        <time>2017-06-11T08:53:42.000Z</time>
      </trkpt>
      <trkpt lat="48.84207" lon="-0.39735">
        <ele>60.200000762939</ele>
        <time>2017-06-11T08:53:43.000Z</time>
      </trkpt>
      <trkpt lat="48.84204" lon="-0.3973">
        <ele>59.799999237061</ele>
        <time>2017-06-11T08:53:44.000Z</time>
      </trkpt>
      <trkpt lat="48.84198" lon="-0.3972">
        <ele>59.799999237061</ele>
        <time>2017-06-11T08:53:46.000Z</time>
      </trkpt>
      <trkpt lat="48.84195" lon="-0.39714">
        <ele>59.799999237061</ele>
        <time>2017-06-11T08:53:47.000Z</time>
      </trkpt>
      <trkpt lat="48.84183" lon="-0.39684">
        <ele>59.799999237061</ele>
        <time>2017-06-11T08:53:53.000Z</time>
      </trkpt>
      <trkpt lat="48.84174" lon="-0.39652">
        <ele>59.799999237061</ele>
        <time>2017-06-11T08:54:00.000Z</time>
      </trkpt>
      <trkpt lat="48.84174" lon="-0.3964">
        <ele>59.200000762939</ele>
        <time>2017-06-11T08:54:03.000Z</time>
      </trkpt>
      <trkpt lat="48.84176" lon="-0.39637">
        <ele>58.799999237061</ele>
        <time>2017-06-11T08:54:04.000Z</time>
      </trkpt>
      <trkpt lat="48.84177" lon="-0.39635">
        <ele>58.400001525879</ele>
        <time>2017-06-11T08:54:05.000Z</time>
      </trkpt>
      <trkpt lat="48.84177" lon="-0.39635">
        <ele>57.400001525879</ele>
        <time>2017-06-11T08:54:06.000Z</time>
      </trkpt>
      <trkpt lat="48.84177" lon="-0.39635">
        <ele>57.400001525879</ele>
        <time>2017-06-11T08:54:08.000Z</time>
      </trkpt>
      <trkpt lat="48.84177" lon="-0.39635">
        <ele>57.400001525879</ele>
        <time>2017-06-11T08:54:11.000Z</time>
      </trkpt>
      <trkpt lat="48.84175" lon="-0.39634">
        <ele>57.400001525879</ele>
        <time>2017-06-11T08:54:14.000Z</time>
      </trkpt>
      <trkpt lat="48.84174" lon="-0.39633">
        <ele>57.400001525879</ele>
        <time>2017-06-11T08:54:18.000Z</time>
      </trkpt>
      <trkpt lat="48.84167" lon="-0.39623">
        <ele>57.400001525879</ele>
        <time>2017-06-11T08:54:24.000Z</time>
      </trkpt>
      <trkpt lat="48.84156" lon="-0.39607">
        <ele>57.400001525879</ele>
        <time>2017-06-11T08:54:30.000Z</time>
      </trkpt>
      <trkpt lat="48.84144" lon="-0.39588">
        <ele>57.400001525879</ele>
        <time>2017-06-11T08:54:36.000Z</time>
      </trkpt>
      <trkpt lat="48.84131" lon="-0.39569">
        <ele>57.400001525879</ele>
        <time>2017-06-11T08:54:42.000Z</time>
      </trkpt>
      <trkpt lat="48.84121" lon="-0.39546">
        <ele>57.400001525879</ele>
        <time>2017-06-11T08:54:48.000Z</time>
      </trkpt>
      <trkpt lat="48.84109" lon="-0.39515">
        <ele>57.400001525879</ele>
        <time>2017-06-11T08:54:55.000Z</time>
      </trkpt>
      <trkpt lat="48.84099" lon="-0.39498">
        <ele>57.400001525879</ele>
        <time>2017-06-11T08:55:01.000Z</time>
      </trkpt>
      <trkpt lat="48.84095" lon="-0.39494">
        <ele>57.400001525879</ele>
        <time>2017-06-11T08:55:07.000Z</time>
      </trkpt>
      <trkpt lat="48.84094" lon="-0.39491">
        <ele>57.400001525879</ele>
        <time>2017-06-11T08:55:18.000Z</time>
      </trkpt>
      <trkpt lat="48.84094" lon="-0.3949">
        <ele>57.400001525879</ele>
        <time>2017-06-11T08:55:24.000Z</time>
      </trkpt>
      <trkpt lat="48.84094" lon="-0.3949">
        <ele>57.400001525879</ele>
        <time>2017-06-11T08:55:37.000Z</time>
      </trkpt>
      <trkpt lat="48.84094" lon="-0.3949">
        <ele>57.400001525879</ele>
        <time>2017-06-11T08:55:47.000Z</time>
      </trkpt>
      <trkpt lat="48.84091" lon="-0.39483">
        <ele>57.400001525879</ele>
        <time>2017-06-11T08:55:55.000Z</time>
      </trkpt>
      <trkpt lat="48.84084" lon="-0.3947">
        <ele>57.400001525879</ele>
        <time>2017-06-11T08:56:01.000Z</time>
      </trkpt>
      <trkpt lat="48.84073" lon="-0.39447">
        <ele>57.400001525879</ele>
        <time>2017-06-11T08:56:08.000Z</time>
      </trkpt>
      <trkpt lat="48.84065" lon="-0.39429">
        <ele>57.400001525879</ele>
        <time>2017-06-11T08:56:13.000Z</time>
      </trkpt>
      <trkpt lat="48.84056" lon="-0.39419">
        <ele>57.799999237061</ele>
        <time>2017-06-11T08:56:16.000Z</time>
      </trkpt>
      <trkpt lat="48.84051" lon="-0.39415">
        <ele>58.200000762939</ele>
        <time>2017-06-11T08:56:17.000Z</time>
      </trkpt>
      <trkpt lat="48.84048" lon="-0.39411">
        <ele>58.599998474121</ele>
        <time>2017-06-11T08:56:18.000Z</time>
      </trkpt>
      <trkpt lat="48.84044" lon="-0.39407">
        <ele>59</ele>
        <time>2017-06-11T08:56:19.000Z</time>
      </trkpt>
      <trkpt lat="48.8404" lon="-0.39403">
        <ele>59.400001525879</ele>
        <time>2017-06-11T08:56:20.000Z</time>
      </trkpt>
      <trkpt lat="48.8403" lon="-0.39396">
        <ele>59.400001525879</ele>
        <time>2017-06-11T08:56:23.000Z</time>
      </trkpt>
      <trkpt lat="48.84021" lon="-0.39392">
        <ele>59.799999237061</ele>
        <time>2017-06-11T08:56:26.000Z</time>
      </trkpt>
      <trkpt lat="48.84018" lon="-0.39391">
        <ele>60.400001525879</ele>
        <time>2017-06-11T08:56:27.000Z</time>
      </trkpt>
      <trkpt lat="48.84015" lon="-0.39391">
        <ele>60.799999237061</ele>
        <time>2017-06-11T08:56:28.000Z</time>
      </trkpt>
      <trkpt lat="48.84012" lon="-0.3939">
        <ele>61.200000762939</ele>
        <time>2017-06-11T08:56:29.000Z</time>
      </trkpt>
      <trkpt lat="48.84011" lon="-0.3939">
        <ele>61.599998474121</ele>
        <time>2017-06-11T08:56:30.000Z</time>
      </trkpt>
      <trkpt lat="48.84009" lon="-0.39389">
        <ele>62.400001525879</ele>
        <time>2017-06-11T08:56:34.000Z</time>
      </trkpt>
      <trkpt lat="48.84009" lon="-0.39389">
        <ele>62.799999237061</ele>
        <time>2017-06-11T08:56:35.000Z</time>
      </trkpt>
      <trkpt lat="48.84008" lon="-0.39389">
        <ele>63.400001525879</ele>
        <time>2017-06-11T08:56:36.000Z</time>
      </trkpt>
      <trkpt lat="48.84008" lon="-0.39389">
        <ele>63.799999237061</ele>
        <time>2017-06-11T08:56:37.000Z</time>
      </trkpt>
      <trkpt lat="48.84004" lon="-0.39389">
        <ele>63.799999237061</ele>
        <time>2017-06-11T08:56:41.000Z</time>
      </trkpt>
      <trkpt lat="48.84001" lon="-0.39389">
        <ele>64.199996948242</ele>
        <time>2017-06-11T08:56:45.000Z</time>
      </trkpt>
      <trkpt lat="48.84001" lon="-0.39389">
        <ele>64.599998474121</ele>
        <time>2017-06-11T08:56:46.000Z</time>
      </trkpt>
      <trkpt lat="48.84001" lon="-0.39389">
        <ele>65</ele>
        <time>2017-06-11T08:56:47.000Z</time>
      </trkpt>
      <trkpt lat="48.84001" lon="-0.39389">
        <ele>65.400001525879</ele>
        <time>2017-06-11T08:56:48.000Z</time>
      </trkpt>
      <trkpt lat="48.83999" lon="-0.39389">
        <ele>65.800003051758</ele>
        <time>2017-06-11T08:56:49.000Z</time>
      </trkpt>
      <trkpt lat="48.83997" lon="-0.39386">
        <ele>65.800003051758</ele>
        <time>2017-06-11T08:56:52.000Z</time>
      </trkpt>
      <trkpt lat="48.83994" lon="-0.39384">
        <ele>65.800003051758</ele>
        <time>2017-06-11T08:56:58.000Z</time>
      </trkpt>
      <trkpt lat="48.83982" lon="-0.39373">
        <ele>65.800003051758</ele>
        <time>2017-06-11T08:57:05.000Z</time>
      </trkpt>
      <trkpt lat="48.83968" lon="-0.39355">
        <ele>65.800003051758</ele>
        <time>2017-06-11T08:57:12.000Z</time>
      </trkpt>
      <trkpt lat="48.8395" lon="-0.39338">
        <ele>65.800003051758</ele>
        <time>2017-06-11T08:57:19.000Z</time>
      </trkpt>
      <trkpt lat="48.83941" lon="-0.39329">
        <ele>66.400001525879</ele>
        <time>2017-06-11T08:57:22.000Z</time>
      </trkpt>
      <trkpt lat="48.83938" lon="-0.39326">
        <ele>67.199996948242</ele>
        <time>2017-06-11T08:57:23.000Z</time>
      </trkpt>
      <trkpt lat="48.83934" lon="-0.39323">
        <ele>67.599998474121</ele>
        <time>2017-06-11T08:57:24.000Z</time>
      </trkpt>
      <trkpt lat="48.83931" lon="-0.3932">
        <ele>68</ele>
        <time>2017-06-11T08:57:25.000Z</time>
      </trkpt>
      <trkpt lat="48.83907" lon="-0.39306">
        <ele>68</ele>
        <time>2017-06-11T08:57:30.000Z</time>
      </trkpt>
      <trkpt lat="48.83891" lon="-0.39297">
        <ele>68</ele>
        <time>2017-06-11T08:57:35.000Z</time>
      </trkpt>
      <trkpt lat="48.83888" lon="-0.39295">
        <ele>67.599998474121</ele>
        <time>2017-06-11T08:57:37.000Z</time>
      </trkpt>
      <trkpt lat="48.83887" lon="-0.39293">
        <ele>67.199996948242</ele>
        <time>2017-06-11T08:57:38.000Z</time>
      </trkpt>
      <trkpt lat="48.83884" lon="-0.3929">
        <ele>66.800003051758</ele>
        <time>2017-06-11T08:57:39.000Z</time>
      </trkpt>
      <trkpt lat="48.83883" lon="-0.39288">
        <ele>66.199996948242</ele>
        <time>2017-06-11T08:57:40.000Z</time>
      </trkpt>
      <trkpt lat="48.83883" lon="-0.39288">
        <ele>65.800003051758</ele>
        <time>2017-06-11T08:57:41.000Z</time>
      </trkpt>
      <trkpt lat="48.83879" lon="-0.39283">
        <ele>65.800003051758</ele>
        <time>2017-06-11T08:57:46.000Z</time>
      </trkpt>
      <trkpt lat="48.83877" lon="-0.39283">
        <ele>65</ele>
        <time>2017-06-11T08:57:48.000Z</time>
      </trkpt>
      <trkpt lat="48.83877" lon="-0.39283">
        <ele>64.599998474121</ele>
        <time>2017-06-11T08:57:49.000Z</time>
      </trkpt>
      <trkpt lat="48.83876" lon="-0.39282">
        <ele>64.199996948242</ele>
        <time>2017-06-11T08:57:50.000Z</time>
      </trkpt>
      <trkpt lat="48.83873" lon="-0.39282">
        <ele>63.799999237061</ele>
        <time>2017-06-11T08:57:51.000Z</time>
      </trkpt>
      <trkpt lat="48.83858" lon="-0.39282">
        <ele>63.799999237061</ele>
        <time>2017-06-11T08:57:55.000Z</time>
      </trkpt>
      <trkpt lat="48.83854" lon="-0.39283">
        <ele>63.400001525879</ele>
        <time>2017-06-11T08:57:56.000Z</time>
      </trkpt>
      <trkpt lat="48.83851" lon="-0.39284">
        <ele>62.799999237061</ele>
        <time>2017-06-11T08:57:57.000Z</time>
      </trkpt>
      <trkpt lat="48.83847" lon="-0.39285">
        <ele>62.400001525879</ele>
        <time>2017-06-11T08:57:58.000Z</time>
      </trkpt>
      <trkpt lat="48.83844" lon="-0.39286">
        <ele>62</ele>
        <time>2017-06-11T08:57:59.000Z</time>
      </trkpt>
      <trkpt lat="48.83841" lon="-0.39286">
        <ele>61.599998474121</ele>
        <time>2017-06-11T08:58:00.000Z</time>
      </trkpt>
      <trkpt lat="48.83837" lon="-0.39288">
        <ele>61.599998474121</ele>
        <time>2017-06-11T08:58:01.000Z</time>
      </trkpt>
      <trkpt lat="48.83823" lon="-0.39297">
        <ele>61.599998474121</ele>
        <time>2017-06-11T08:58:06.000Z</time>
      </trkpt>
      <trkpt lat="48.83822" lon="-0.393">
        <ele>61.599998474121</ele>
        <time>2017-06-11T08:58:07.000Z</time>
      </trkpt>
      <trkpt lat="48.83821" lon="-0.39306">
        <ele>61.599998474121</ele>
        <time>2017-06-11T08:58:10.000Z</time>
      </trkpt>
      <trkpt lat="48.83814" lon="-0.39311">
        <ele>61.599998474121</ele>
        <time>2017-06-11T08:58:17.000Z</time>
      </trkpt>
      <trkpt lat="48.8381" lon="-0.39317">
        <ele>61.599998474121</ele>
        <time>2017-06-11T08:58:19.000Z</time>
      </trkpt>
      <trkpt lat="48.83807" lon="-0.39326">
        <ele>61.599998474121</ele>
        <time>2017-06-11T08:58:21.000Z</time>
      </trkpt>
      <trkpt lat="48.83796" lon="-0.39351">
        <ele>61.599998474121</ele>
        <time>2017-06-11T08:58:26.000Z</time>
      </trkpt>
      <trkpt lat="48.83789" lon="-0.39375">
        <ele>61.599998474121</ele>
        <time>2017-06-11T08:58:30.000Z</time>
      </trkpt>
      <trkpt lat="48.83787" lon="-0.39381">
        <ele>61.599998474121</ele>
        <time>2017-06-11T08:58:31.000Z</time>
      </trkpt>
      <trkpt lat="48.83781" lon="-0.39397">
        <ele>61.599998474121</ele>
        <time>2017-06-11T08:58:34.000Z</time>
      </trkpt>
      <trkpt lat="48.83777" lon="-0.39408">
        <ele>61.599998474121</ele>
        <time>2017-06-11T08:58:36.000Z</time>
      </trkpt>
      <trkpt lat="48.83772" lon="-0.39433">
        <ele>61.599998474121</ele>
        <time>2017-06-11T08:58:40.000Z</time>
      </trkpt>
      <trkpt lat="48.83771" lon="-0.3944">
        <ele>61.599998474121</ele>
        <time>2017-06-11T08:58:41.000Z</time>
      </trkpt>
      <trkpt lat="48.83773" lon="-0.39472">
        <ele>61.599998474121</ele>
        <time>2017-06-11T08:58:46.000Z</time>
      </trkpt>
      <trkpt lat="48.83779" lon="-0.39503">
        <ele>61.599998474121</ele>
        <time>2017-06-11T08:58:51.000Z</time>
      </trkpt>
      <trkpt lat="48.83782" lon="-0.39516">
        <ele>61.599998474121</ele>
        <time>2017-06-11T08:58:53.000Z</time>
      </trkpt>
      <trkpt lat="48.83789" lon="-0.39532">
        <ele>61.599998474121</ele>
        <time>2017-06-11T08:58:56.000Z</time>
      </trkpt>
      <trkpt lat="48.83807" lon="-0.39555">
        <ele>61.599998474121</ele>
        <time>2017-06-11T08:59:02.000Z</time>
      </trkpt>
      <trkpt lat="48.83828" lon="-0.39578">
        <ele>61.599998474121</ele>
        <time>2017-06-11T08:59:08.000Z</time>
      </trkpt>
      <trkpt lat="48.83844" lon="-0.39591">
        <ele>61.599998474121</ele>
        <time>2017-06-11T08:59:13.000Z</time>
      </trkpt>
      <trkpt lat="48.83861" lon="-0.39599">
        <ele>61.599998474121</ele>
        <time>2017-06-11T08:59:18.000Z</time>
      </trkpt>
      <trkpt lat="48.83879" lon="-0.39607">
        <ele>61.599998474121</ele>
        <time>2017-06-11T08:59:22.000Z</time>
      </trkpt>
      <trkpt lat="48.83906" lon="-0.39619">
        <ele>61.599998474121</ele>
        <time>2017-06-11T08:59:28.000Z</time>
      </trkpt>
      <trkpt lat="48.83939" lon="-0.39622">
        <ele>61.599998474121</ele>
        <time>2017-06-11T08:59:35.000Z</time>
      </trkpt>
      <trkpt lat="48.83958" lon="-0.39618">
        <ele>61.599998474121</ele>
        <time>2017-06-11T08:59:39.000Z</time>
      </trkpt>
      <trkpt lat="48.83965" lon="-0.39616">
        <ele>61.599998474121</ele>
        <time>2017-06-11T08:59:41.000Z</time>
      </trkpt>
      <trkpt lat="48.83982" lon="-0.39603">
        <ele>61.599998474121</ele>
        <time>2017-06-11T08:59:46.000Z</time>
      </trkpt>
      <trkpt lat="48.83994" lon="-0.39583">
        <ele>61.599998474121</ele>
        <time>2017-06-11T08:59:51.000Z</time>
      </trkpt>
      <trkpt lat="48.83998" lon="-0.39576">
        <ele>61.599998474121</ele>
        <time>2017-06-11T08:59:53.000Z</time>
      </trkpt>
      <trkpt lat="48.84004" lon="-0.39573">
        <ele>61.599998474121</ele>
        <time>2017-06-11T08:59:55.000Z</time>
      </trkpt>
      <trkpt lat="48.84022" lon="-0.39575">
        <ele>61.599998474121</ele>
        <time>2017-06-11T09:00:00.000Z</time>
      </trkpt>
      <trkpt lat="48.84039" lon="-0.39584">
        <ele>61.599998474121</ele>
        <time>2017-06-11T09:00:05.000Z</time>
      </trkpt>
      <trkpt lat="48.84042" lon="-0.39587">
        <ele>61.599998474121</ele>
        <time>2017-06-11T09:00:06.000Z</time>
      </trkpt>
      <trkpt lat="48.84056" lon="-0.39601">
        <ele>61.599998474121</ele>
        <time>2017-06-11T09:00:10.000Z</time>
      </trkpt>
      <trkpt lat="48.84073" lon="-0.39619">
        <ele>61.599998474121</ele>
        <time>2017-06-11T09:00:15.000Z</time>
      </trkpt>
      <trkpt lat="48.84092" lon="-0.39646">
        <ele>61.599998474121</ele>
        <time>2017-06-11T09:00:21.000Z</time>
      </trkpt>
      <trkpt lat="48.84105" lon="-0.39674">
        <ele>61.599998474121</ele>
        <time>2017-06-11T09:00:27.000Z</time>
      </trkpt>
      <trkpt lat="48.84112" lon="-0.39692">
        <ele>61.599998474121</ele>
        <time>2017-06-11T09:00:32.000Z</time>
      </trkpt>
      <trkpt lat="48.84111" lon="-0.39694">
        <ele>61.599998474121</ele>
        <time>2017-06-11T09:00:33.000Z</time>
      </trkpt>
      <trkpt lat="48.84105" lon="-0.39696">
        <ele>62</ele>
        <time>2017-06-11T09:00:35.000Z</time>
      </trkpt>
      <trkpt lat="48.84102" lon="-0.39696">
        <ele>62.400001525879</ele>
        <time>2017-06-11T09:00:36.000Z</time>
      </trkpt>
      <trkpt lat="48.84099" lon="-0.39695">
        <ele>62.799999237061</ele>
        <time>2017-06-11T09:00:37.000Z</time>
      </trkpt>
      <trkpt lat="48.84096" lon="-0.39694">
        <ele>63.200000762939</ele>
        <time>2017-06-11T09:00:38.000Z</time>
      </trkpt>
      <trkpt lat="48.84092" lon="-0.39693">
        <ele>63.599998474121</ele>
        <time>2017-06-11T09:00:39.000Z</time>
      </trkpt>
      <trkpt lat="48.84084" lon="-0.39691">
        <ele>63.599998474121</ele>
        <time>2017-06-11T09:00:41.000Z</time>
      </trkpt>
      <trkpt lat="48.84071" lon="-0.39688">
        <ele>63.599998474121</ele>
        <time>2017-06-11T09:00:44.000Z</time>
      </trkpt>
      <trkpt lat="48.84063" lon="-0.39691">
        <ele>63.599998474121</ele>
        <time>2017-06-11T09:00:46.000Z</time>
      </trkpt>
      <trkpt lat="48.84055" lon="-0.39695">
        <ele>63.599998474121</ele>
        <time>2017-06-11T09:00:48.000Z</time>
      </trkpt>
      <trkpt lat="48.8404" lon="-0.39707">
        <ele>63.599998474121</ele>
        <time>2017-06-11T09:00:52.000Z</time>
      </trkpt>
      <trkpt lat="48.84017" lon="-0.39735">
        <ele>63.599998474121</ele>
        <time>2017-06-11T09:01:00.000Z</time>
      </trkpt>
      <trkpt lat="48.84009" lon="-0.3974">
        <ele>63.599998474121</ele>
        <time>2017-06-11T09:01:03.000Z</time>
      </trkpt>
      <trkpt lat="48.84007" lon="-0.39739">
        <ele>63.599998474121</ele>
        <time>2017-06-11T09:01:04.000Z</time>
      </trkpt>
      <trkpt lat="48.84001" lon="-0.39728">
        <ele>63.599998474121</ele>
        <time>2017-06-11T09:01:07.000Z</time>
      </trkpt>
      <trkpt lat="48.83997" lon="-0.39722">
        <ele>63.599998474121</ele>
        <time>2017-06-11T09:01:09.000Z</time>
      </trkpt>
      <trkpt lat="48.83987" lon="-0.39721">
        <ele>63.599998474121</ele>
        <time>2017-06-11T09:01:13.000Z</time>
      </trkpt>
      <trkpt lat="48.83971" lon="-0.3973">
        <ele>63.599998474121</ele>
        <time>2017-06-11T09:01:20.000Z</time>
      </trkpt>
      <trkpt lat="48.83964" lon="-0.39733">
        <ele>64</ele>
        <time>2017-06-11T09:01:23.000Z</time>
      </trkpt>
      <trkpt lat="48.83962" lon="-0.39734">
        <ele>64.599998474121</ele>
        <time>2017-06-11T09:01:24.000Z</time>
      </trkpt>
      <trkpt lat="48.83959" lon="-0.39735">
        <ele>65</ele>
        <time>2017-06-11T09:01:25.000Z</time>
      </trkpt>
      <trkpt lat="48.83957" lon="-0.39736">
        <ele>65.400001525879</ele>
        <time>2017-06-11T09:01:26.000Z</time>
      </trkpt>
      <trkpt lat="48.83955" lon="-0.39737">
        <ele>65.800003051758</ele>
        <time>2017-06-11T09:01:27.000Z</time>
      </trkpt>
      <trkpt lat="48.83945" lon="-0.39742">
        <ele>66.199996948242</ele>
        <time>2017-06-11T09:01:32.000Z</time>
      </trkpt>
      <trkpt lat="48.83943" lon="-0.39742">
        <ele>66.599998474121</ele>
        <time>2017-06-11T09:01:33.000Z</time>
      </trkpt>
      <trkpt lat="48.8394" lon="-0.39744">
        <ele>67</ele>
        <time>2017-06-11T09:01:34.000Z</time>
      </trkpt>
      <trkpt lat="48.83938" lon="-0.39745">
        <ele>67.400001525879</ele>
        <time>2017-06-11T09:01:35.000Z</time>
      </trkpt>
      <trkpt lat="48.83937" lon="-0.39746">
        <ele>67.800003051758</ele>
        <time>2017-06-11T09:01:36.000Z</time>
      </trkpt>
      <trkpt lat="48.83931" lon="-0.3975">
        <ele>67.800003051758</ele>
        <time>2017-06-11T09:01:39.000Z</time>
      </trkpt>
      <trkpt lat="48.83918" lon="-0.39756">
        <ele>68.199996948242</ele>
        <time>2017-06-11T09:01:45.000Z</time>
      </trkpt>
      <trkpt lat="48.83915" lon="-0.39757">
        <ele>68.599998474121</ele>
        <time>2017-06-11T09:01:46.000Z</time>
      </trkpt>
      <trkpt lat="48.83913" lon="-0.39757">
        <ele>69.199996948242</ele>
        <time>2017-06-11T09:01:47.000Z</time>
      </trkpt>
      <trkpt lat="48.83911" lon="-0.39758">
        <ele>69.599998474121</ele>
        <time>2017-06-11T09:01:48.000Z</time>
      </trkpt>
      <trkpt lat="48.83909" lon="-0.39759">
        <ele>70</ele>
        <time>2017-06-11T09:01:49.000Z</time>
      </trkpt>
      <trkpt lat="48.83903" lon="-0.39762">
        <ele>70</ele>
        <time>2017-06-11T09:01:52.000Z</time>
      </trkpt>
      <trkpt lat="48.83898" lon="-0.39765">
        <ele>70.400001525879</ele>
        <time>2017-06-11T09:01:55.000Z</time>
      </trkpt>
      <trkpt lat="48.83897" lon="-0.39766">
        <ele>70.800003051758</ele>
        <time>2017-06-11T09:01:56.000Z</time>
      </trkpt>
      <trkpt lat="48.83895" lon="-0.39766">
        <ele>71.199996948242</ele>
        <time>2017-06-11T09:01:57.000Z</time>
      </trkpt>
      <trkpt lat="48.83892" lon="-0.39766">
        <ele>71.599998474121</ele>
        <time>2017-06-11T09:01:58.000Z</time>
      </trkpt>
      <trkpt lat="48.8389" lon="-0.39766">
        <ele>72</ele>
        <time>2017-06-11T09:01:59.000Z</time>
      </trkpt>
      <trkpt lat="48.83882" lon="-0.39767">
        <ele>72.400001525879</ele>
        <time>2017-06-11T09:02:03.000Z</time>
      </trkpt>
      <trkpt lat="48.8388" lon="-0.39767">
        <ele>72.800003051758</ele>
        <time>2017-06-11T09:02:04.000Z</time>
      </trkpt>
      <trkpt lat="48.83878" lon="-0.39768">
        <ele>73.199996948242</ele>
        <time>2017-06-11T09:02:05.000Z</time>
      </trkpt>
      <trkpt lat="48.83876" lon="-0.39768">
        <ele>73.599998474121</ele>
        <time>2017-06-11T09:02:06.000Z</time>
      </trkpt>
      <trkpt lat="48.83874" lon="-0.39768">
        <ele>74</ele>
        <time>2017-06-11T09:02:07.000Z</time>
      </trkpt>
      <trkpt lat="48.8386" lon="-0.39772">
        <ele>74</ele>
        <time>2017-06-11T09:02:13.000Z</time>
      </trkpt>
      <trkpt lat="48.83858" lon="-0.39773">
        <ele>74.400001525879</ele>
        <time>2017-06-11T09:02:14.000Z</time>
      </trkpt>
      <trkpt lat="48.83856" lon="-0.39773">
        <ele>74.800003051758</ele>
        <time>2017-06-11T09:02:15.000Z</time>
      </trkpt>
      <trkpt lat="48.83854" lon="-0.39773">
        <ele>75.199996948242</ele>
        <time>2017-06-11T09:02:16.000Z</time>
      </trkpt>
      <trkpt lat="48.83852" lon="-0.39774">
        <ele>75.800003051758</ele>
        <time>2017-06-11T09:02:17.000Z</time>
      </trkpt>
      <trkpt lat="48.8385" lon="-0.39774">
        <ele>76.199996948242</ele>
        <time>2017-06-11T09:02:18.000Z</time>
      </trkpt>
      <trkpt lat="48.83848" lon="-0.39775">
        <ele>76.199996948242</ele>
        <time>2017-06-11T09:02:19.000Z</time>
      </trkpt>
      <trkpt lat="48.83837" lon="-0.39773">
        <ele>76.599998474121</ele>
        <time>2017-06-11T09:02:24.000Z</time>
      </trkpt>
      <trkpt lat="48.83834" lon="-0.39772">
        <ele>77</ele>
        <time>2017-06-11T09:02:25.000Z</time>
      </trkpt>
      <trkpt lat="48.83832" lon="-0.39772">
        <ele>77.400001525879</ele>
        <time>2017-06-11T09:02:26.000Z</time>
      </trkpt>
      <trkpt lat="48.8383" lon="-0.39771">
        <ele>78</ele>
        <time>2017-06-11T09:02:27.000Z</time>
      </trkpt>
      <trkpt lat="48.83829" lon="-0.39771">
        <ele>78.400001525879</ele>
        <time>2017-06-11T09:02:28.000Z</time>
      </trkpt>
      <trkpt lat="48.83822" lon="-0.39769">
        <ele>78.400001525879</ele>
        <time>2017-06-11T09:02:31.000Z</time>
      </trkpt>
      <trkpt lat="48.8381" lon="-0.39768">
        <ele>78.800003051758</ele>
        <time>2017-06-11T09:02:37.000Z</time>
      </trkpt>
      <trkpt lat="48.83807" lon="-0.39768">
        <ele>79.199996948242</ele>
        <time>2017-06-11T09:02:38.000Z</time>
      </trkpt>
      <trkpt lat="48.83805" lon="-0.39767">
        <ele>79.599998474121</ele>
        <time>2017-06-11T09:02:39.000Z</time>
      </trkpt>
      <trkpt lat="48.83803" lon="-0.39766">
        <ele>80</ele>
        <time>2017-06-11T09:02:40.000Z</time>
      </trkpt>
      <trkpt lat="48.838" lon="-0.39766">
        <ele>80.400001525879</ele>
        <time>2017-06-11T09:02:41.000Z</time>
      </trkpt>
      <trkpt lat="48.83791" lon="-0.39766">
        <ele>80.400001525879</ele>
        <time>2017-06-11T09:02:45.000Z</time>
      </trkpt>
      <trkpt lat="48.83787" lon="-0.39765">
        <ele>80.800003051758</ele>
        <time>2017-06-11T09:02:47.000Z</time>
      </trkpt>
      <trkpt lat="48.83784" lon="-0.39764">
        <ele>81.199996948242</ele>
        <time>2017-06-11T09:02:48.000Z</time>
      </trkpt>
      <trkpt lat="48.83781" lon="-0.39763">
        <ele>81.800003051758</ele>
        <time>2017-06-11T09:02:49.000Z</time>
      </trkpt>
      <trkpt lat="48.83778" lon="-0.39762">
        <ele>82.199996948242</ele>
        <time>2017-06-11T09:02:50.000Z</time>
      </trkpt>
      <trkpt lat="48.83775" lon="-0.39762">
        <ele>82.599998474121</ele>
        <time>2017-06-11T09:02:51.000Z</time>
      </trkpt>
      <trkpt lat="48.83772" lon="-0.39762">
        <ele>82.599998474121</ele>
        <time>2017-06-11T09:02:52.000Z</time>
      </trkpt>
      <trkpt lat="48.83747" lon="-0.39756">
        <ele>82.599998474121</ele>
        <time>2017-06-11T09:03:00.000Z</time>
      </trkpt>
      <trkpt lat="48.83726" lon="-0.39749">
        <ele>82.599998474121</ele>
        <time>2017-06-11T09:03:06.000Z</time>
      </trkpt>
      <trkpt lat="48.83699" lon="-0.39737">
        <ele>82.599998474121</ele>
        <time>2017-06-11T09:03:14.000Z</time>
      </trkpt>
      <trkpt lat="48.83696" lon="-0.39735">
        <ele>83</ele>
        <time>2017-06-11T09:03:15.000Z</time>
      </trkpt>
      <trkpt lat="48.83692" lon="-0.39732">
        <ele>83.400001525879</ele>
        <time>2017-06-11T09:03:16.000Z</time>
      </trkpt>
      <trkpt lat="48.83688" lon="-0.39731">
        <ele>83.800003051758</ele>
        <time>2017-06-11T09:03:17.000Z</time>
      </trkpt>
      <trkpt lat="48.83685" lon="-0.39729">
        <ele>84.199996948242</ele>
        <time>2017-06-11T09:03:18.000Z</time>
      </trkpt>
      <trkpt lat="48.83681" lon="-0.39727">
        <ele>84.599998474121</ele>
        <time>2017-06-11T09:03:19.000Z</time>
      </trkpt>
      <trkpt lat="48.83678" lon="-0.39725">
        <ele>84.599998474121</ele>
        <time>2017-06-11T09:03:20.000Z</time>
      </trkpt>
      <trkpt lat="48.83658" lon="-0.3971">
        <ele>84.599998474121</ele>
        <time>2017-06-11T09:03:27.000Z</time>
      </trkpt>
      <trkpt lat="48.83641" lon="-0.39696">
        <ele>84.599998474121</ele>
        <time>2017-06-11T09:03:34.000Z</time>
      </trkpt>
      <trkpt lat="48.83629" lon="-0.39683">
        <ele>84.599998474121</ele>
        <time>2017-06-11T09:03:40.000Z</time>
      </trkpt>
      <trkpt lat="48.83626" lon="-0.3968">
        <ele>85</ele>
        <time>2017-06-11T09:03:42.000Z</time>
      </trkpt>
      <trkpt lat="48.83624" lon="-0.39678">
        <ele>85.400001525879</ele>
        <time>2017-06-11T09:03:43.000Z</time>
      </trkpt>
      <trkpt lat="48.83623" lon="-0.39677">
        <ele>85.800003051758</ele>
        <time>2017-06-11T09:03:44.000Z</time>
      </trkpt>
      <trkpt lat="48.83621" lon="-0.39675">
        <ele>86.199996948242</ele>
        <time>2017-06-11T09:03:45.000Z</time>
      </trkpt>
      <trkpt lat="48.83619" lon="-0.39673">
        <ele>86.599998474121</ele>
        <time>2017-06-11T09:03:46.000Z</time>
      </trkpt>
      <trkpt lat="48.83618" lon="-0.39671">
        <ele>86.599998474121</ele>
        <time>2017-06-11T09:03:47.000Z</time>
      </trkpt>
      <trkpt lat="48.83612" lon="-0.39661">
        <ele>87</ele>
        <time>2017-06-11T09:03:51.000Z</time>
      </trkpt>
      <trkpt lat="48.8361" lon="-0.39658">
        <ele>87.400001525879</ele>
        <time>2017-06-11T09:03:52.000Z</time>
      </trkpt>
      <trkpt lat="48.83609" lon="-0.39655">
        <ele>88</ele>
        <time>2017-06-11T09:03:53.000Z</time>
      </trkpt>
      <trkpt lat="48.83608" lon="-0.39652">
        <ele>88.400001525879</ele>
        <time>2017-06-11T09:03:54.000Z</time>
      </trkpt>
      <trkpt lat="48.83607" lon="-0.3965">
        <ele>88.800003051758</ele>
        <time>2017-06-11T09:03:55.000Z</time>
      </trkpt>
      <trkpt lat="48.83606" lon="-0.39642">
        <ele>88.800003051758</ele>
        <time>2017-06-11T09:03:59.000Z</time>
      </trkpt>
      <trkpt lat="48.83604" lon="-0.39633">
        <ele>89.199996948242</ele>
        <time>2017-06-11T09:04:03.000Z</time>
      </trkpt>
      <trkpt lat="48.83604" lon="-0.39631">
        <ele>89.599998474121</ele>
        <time>2017-06-11T09:04:04.000Z</time>
      </trkpt>
      <trkpt lat="48.83604" lon="-0.39629">
        <ele>90.199996948242</ele>
        <time>2017-06-11T09:04:05.000Z</time>
      </trkpt>
      <trkpt lat="48.83604" lon="-0.39626">
        <ele>90.599998474121</ele>
        <time>2017-06-11T09:04:06.000Z</time>
      </trkpt>
      <trkpt lat="48.83603" lon="-0.39624">
        <ele>91</ele>
        <time>2017-06-11T09:04:07.000Z</time>
      </trkpt>
      <trkpt lat="48.83602" lon="-0.3961">
        <ele>91</ele>
        <time>2017-06-11T09:04:14.000Z</time>
      </trkpt>
      <trkpt lat="48.83602" lon="-0.39606">
        <ele>91.400001525879</ele>
        <time>2017-06-11T09:04:16.000Z</time>
      </trkpt>
      <trkpt lat="48.83601" lon="-0.39604">
        <ele>92</ele>
        <time>2017-06-11T09:04:17.000Z</time>
      </trkpt>
      <trkpt lat="48.83601" lon="-0.39602">
        <ele>92.400001525879</ele>
        <time>2017-06-11T09:04:18.000Z</time>
      </trkpt>
      <trkpt lat="48.83601" lon="-0.396">
        <ele>92.800003051758</ele>
        <time>2017-06-11T09:04:19.000Z</time>
      </trkpt>
      <trkpt lat="48.836" lon="-0.39597">
        <ele>93.199996948242</ele>
        <time>2017-06-11T09:04:20.000Z</time>
      </trkpt>
      <trkpt lat="48.83599" lon="-0.39594">
        <ele>93.199996948242</ele>
        <time>2017-06-11T09:04:22.000Z</time>
      </trkpt>
      <trkpt lat="48.83596" lon="-0.39587">
        <ele>93.599998474121</ele>
        <time>2017-06-11T09:04:26.000Z</time>
      </trkpt>
      <trkpt lat="48.83596" lon="-0.39585">
        <ele>94.199996948242</ele>
        <time>2017-06-11T09:04:27.000Z</time>
      </trkpt>
      <trkpt lat="48.83596" lon="-0.39582">
        <ele>94.599998474121</ele>
        <time>2017-06-11T09:04:28.000Z</time>
      </trkpt>
      <trkpt lat="48.83596" lon="-0.3958">
        <ele>95</ele>
        <time>2017-06-11T09:04:29.000Z</time>
      </trkpt>
      <trkpt lat="48.83595" lon="-0.39578">
        <ele>95.400001525879</ele>
        <time>2017-06-11T09:04:30.000Z</time>
      </trkpt>
      <trkpt lat="48.8359" lon="-0.39561">
        <ele>95.800003051758</ele>
        <time>2017-06-11T09:04:37.000Z</time>
      </trkpt>
      <trkpt lat="48.83589" lon="-0.39559">
        <ele>96.199996948242</ele>
        <time>2017-06-11T09:04:38.000Z</time>
      </trkpt>
      <trkpt lat="48.83588" lon="-0.39557">
        <ele>96.599998474121</ele>
        <time>2017-06-11T09:04:39.000Z</time>
      </trkpt>
      <trkpt lat="48.83588" lon="-0.39556">
        <ele>97</ele>
        <time>2017-06-11T09:04:40.000Z</time>
      </trkpt>
      <trkpt lat="48.83587" lon="-0.39554">
        <ele>97.400001525879</ele>
        <time>2017-06-11T09:04:41.000Z</time>
      </trkpt>
      <trkpt lat="48.83582" lon="-0.39545">
        <ele>97.400001525879</ele>
        <time>2017-06-11T09:04:46.000Z</time>
      </trkpt>
      <trkpt lat="48.83581" lon="-0.39543">
        <ele>97.800003051758</ele>
        <time>2017-06-11T09:04:47.000Z</time>
      </trkpt>
      <trkpt lat="48.8358" lon="-0.39541">
        <ele>98.199996948242</ele>
        <time>2017-06-11T09:04:48.000Z</time>
      </trkpt>
      <trkpt lat="48.83579" lon="-0.3954">
        <ele>98.599998474121</ele>
        <time>2017-06-11T09:04:49.000Z</time>
      </trkpt>
      <trkpt lat="48.83579" lon="-0.39538">
        <ele>99</ele>
        <time>2017-06-11T09:04:50.000Z</time>
      </trkpt>
      <trkpt lat="48.83578" lon="-0.39536">
        <ele>99.599998474121</ele>
        <time>2017-06-11T09:04:51.000Z</time>
      </trkpt>
      <trkpt lat="48.83575" lon="-0.39532">
        <ele>99.599998474121</ele>
        <time>2017-06-11T09:04:54.000Z</time>
      </trkpt>
      <trkpt lat="48.83572" lon="-0.39527">
        <ele>100</ele>
        <time>2017-06-11T09:04:57.000Z</time>
      </trkpt>
      <trkpt lat="48.83572" lon="-0.39526">
        <ele>100.40000152588</ele>
        <time>2017-06-11T09:04:58.000Z</time>
      </trkpt>
      <trkpt lat="48.83571" lon="-0.39525">
        <ele>100.80000305176</ele>
        <time>2017-06-11T09:04:59.000Z</time>
      </trkpt>
      <trkpt lat="48.8357" lon="-0.39524">
        <ele>101.19999694824</ele>
        <time>2017-06-11T09:05:00.000Z</time>
      </trkpt>
      <trkpt lat="48.83569" lon="-0.39524">
        <ele>101.59999847412</ele>
        <time>2017-06-11T09:05:01.000Z</time>
      </trkpt>
      <trkpt lat="48.83567" lon="-0.39523">
        <ele>101.59999847412</ele>
        <time>2017-06-11T09:05:03.000Z</time>
      </trkpt>
      <trkpt lat="48.83564" lon="-0.39523">
        <ele>101.59999847412</ele>
        <time>2017-06-11T09:05:05.000Z</time>
      </trkpt>
      <trkpt lat="48.83562" lon="-0.39523">
        <ele>102</ele>
        <time>2017-06-11T09:05:06.000Z</time>
      </trkpt>
      <trkpt lat="48.83561" lon="-0.39524">
        <ele>102.40000152588</ele>
        <time>2017-06-11T09:05:07.000Z</time>
      </trkpt>
      <trkpt lat="48.8356" lon="-0.39524">
        <ele>102.80000305176</ele>
        <time>2017-06-11T09:05:08.000Z</time>
      </trkpt>
      <trkpt lat="48.83558" lon="-0.39524">
        <ele>103.19999694824</ele>
        <time>2017-06-11T09:05:09.000Z</time>
      </trkpt>
      <trkpt lat="48.83557" lon="-0.39524">
        <ele>103.59999847412</ele>
        <time>2017-06-11T09:05:10.000Z</time>
      </trkpt>
      <trkpt lat="48.83554" lon="-0.39525">
        <ele>103.59999847412</ele>
        <time>2017-06-11T09:05:14.000Z</time>
      </trkpt>
      <trkpt lat="48.83552" lon="-0.39525">
        <ele>104</ele>
        <time>2017-06-11T09:05:15.000Z</time>
      </trkpt>
      <trkpt lat="48.83552" lon="-0.39525">
        <ele>104.40000152588</ele>
        <time>2017-06-11T09:05:16.000Z</time>
      </trkpt>
      <trkpt lat="48.83551" lon="-0.39525">
        <ele>104.80000305176</ele>
        <time>2017-06-11T09:05:17.000Z</time>
      </trkpt>
      <trkpt lat="48.8355" lon="-0.39526">
        <ele>105.19999694824</ele>
        <time>2017-06-11T09:05:18.000Z</time>
      </trkpt>
      <trkpt lat="48.83549" lon="-0.39526">
        <ele>105.80000305176</ele>
        <time>2017-06-11T09:05:19.000Z</time>
      </trkpt>
      <trkpt lat="48.83545" lon="-0.39527">
        <ele>105.80000305176</ele>
        <time>2017-06-11T09:05:22.000Z</time>
      </trkpt>
      <trkpt lat="48.83539" lon="-0.39528">
        <ele>106.19999694824</ele>
        <time>2017-06-11T09:05:27.000Z</time>
      </trkpt>
      <trkpt lat="48.83537" lon="-0.39528">
        <ele>106.59999847412</ele>
        <time>2017-06-11T09:05:28.000Z</time>
      </trkpt>
      <trkpt lat="48.83536" lon="-0.39529">
        <ele>107</ele>
        <time>2017-06-11T09:05:29.000Z</time>
      </trkpt>
      <trkpt lat="48.83534" lon="-0.39529">
        <ele>107.40000152588</ele>
        <time>2017-06-11T09:05:30.000Z</time>
      </trkpt>
      <trkpt lat="48.83534" lon="-0.39529">
        <ele>107.80000305176</ele>
        <time>2017-06-11T09:05:31.000Z</time>
      </trkpt>
      <trkpt lat="48.83528" lon="-0.39531">
        <ele>107.80000305176</ele>
        <time>2017-06-11T09:05:36.000Z</time>
      </trkpt>
      <trkpt lat="48.83526" lon="-0.39531">
        <ele>108.40000152588</ele>
        <time>2017-06-11T09:05:37.000Z</time>
      </trkpt>
      <trkpt lat="48.83524" lon="-0.3953">
        <ele>108.80000305176</ele>
        <time>2017-06-11T09:05:38.000Z</time>
      </trkpt>
      <trkpt lat="48.83523" lon="-0.39529">
        <ele>109.19999694824</ele>
        <time>2017-06-11T09:05:39.000Z</time>
      </trkpt>
      <trkpt lat="48.83522" lon="-0.39529">
        <ele>109.59999847412</ele>
        <time>2017-06-11T09:05:40.000Z</time>
      </trkpt>
      <trkpt lat="48.8352" lon="-0.39528">
        <ele>110</ele>
        <time>2017-06-11T09:05:41.000Z</time>
      </trkpt>
      <trkpt lat="48.83519" lon="-0.39527">
        <ele>110</ele>
        <time>2017-06-11T09:05:42.000Z</time>
      </trkpt>
      <trkpt lat="48.83511" lon="-0.3952">
        <ele>110</ele>
        <time>2017-06-11T09:05:48.000Z</time>
      </trkpt>
      <trkpt lat="48.83505" lon="-0.39511">
        <ele>110.40000152588</ele>
        <time>2017-06-11T09:05:54.000Z</time>
      </trkpt>
      <trkpt lat="48.83504" lon="-0.3951">
        <ele>110.80000305176</ele>
        <time>2017-06-11T09:05:55.000Z</time>
      </trkpt>
      <trkpt lat="48.83503" lon="-0.39508">
        <ele>111.19999694824</ele>
        <time>2017-06-11T09:05:56.000Z</time>
      </trkpt>
      <trkpt lat="48.83502" lon="-0.39506">
        <ele>111.59999847412</ele>
        <time>2017-06-11T09:05:57.000Z</time>
      </trkpt>
      <trkpt lat="48.83501" lon="-0.39505">
        <ele>112</ele>
        <time>2017-06-11T09:05:58.000Z</time>
      </trkpt>
      <trkpt lat="48.83498" lon="-0.39501">
        <ele>112</ele>
        <time>2017-06-11T09:06:02.000Z</time>
      </trkpt>
      <trkpt lat="48.83493" lon="-0.39495">
        <ele>112.40000152588</ele>
        <time>2017-06-11T09:06:08.000Z</time>
      </trkpt>
      <trkpt lat="48.83491" lon="-0.39494">
        <ele>112.80000305176</ele>
        <time>2017-06-11T09:06:09.000Z</time>
      </trkpt>
      <trkpt lat="48.8349" lon="-0.39493">
        <ele>113.19999694824</ele>
        <time>2017-06-11T09:06:10.000Z</time>
      </trkpt>
      <trkpt lat="48.83488" lon="-0.39491">
        <ele>113.59999847412</ele>
        <time>2017-06-11T09:06:11.000Z</time>
      </trkpt>
      <trkpt lat="48.83487" lon="-0.39489">
        <ele>114</ele>
        <time>2017-06-11T09:06:12.000Z</time>
      </trkpt>
      <trkpt lat="48.83485" lon="-0.39483">
        <ele>114</ele>
        <time>2017-06-11T09:06:15.000Z</time>
      </trkpt>
      <trkpt lat="48.83479" lon="-0.39473">
        <ele>114.40000152588</ele>
        <time>2017-06-11T09:06:21.000Z</time>
      </trkpt>
      <trkpt lat="48.83478" lon="-0.39471">
        <ele>115</ele>
        <time>2017-06-11T09:06:22.000Z</time>
      </trkpt>
      <trkpt lat="48.83477" lon="-0.39469">
        <ele>115.40000152588</ele>
        <time>2017-06-11T09:06:23.000Z</time>
      </trkpt>
      <trkpt lat="48.83476" lon="-0.39468">
        <ele>115.80000305176</ele>
        <time>2017-06-11T09:06:24.000Z</time>
      </trkpt>
      <trkpt lat="48.83475" lon="-0.39466">
        <ele>116.19999694824</ele>
        <time>2017-06-11T09:06:25.000Z</time>
      </trkpt>
      <trkpt lat="48.83472" lon="-0.39462">
        <ele>116.19999694824</ele>
        <time>2017-06-11T09:06:28.000Z</time>
      </trkpt>
      <trkpt lat="48.8347" lon="-0.39459">
        <ele>116.59999847412</ele>
        <time>2017-06-11T09:06:30.000Z</time>
      </trkpt>
      <trkpt lat="48.83469" lon="-0.39457">
        <ele>117</ele>
        <time>2017-06-11T09:06:31.000Z</time>
      </trkpt>
      <trkpt lat="48.83468" lon="-0.39455">
        <ele>117.40000152588</ele>
        <time>2017-06-11T09:06:32.000Z</time>
      </trkpt>
      <trkpt lat="48.83467" lon="-0.39453">
        <ele>117.80000305176</ele>
        <time>2017-06-11T09:06:33.000Z</time>
      </trkpt>
      <trkpt lat="48.83466" lon="-0.39451">
        <ele>118.19999694824</ele>
        <time>2017-06-11T09:06:34.000Z</time>
      </trkpt>
      <trkpt lat="48.83466" lon="-0.39448">
        <ele>118.19999694824</ele>
        <time>2017-06-11T09:06:35.000Z</time>
      </trkpt>
      <trkpt lat="48.83464" lon="-0.39443">
        <ele>118.80000305176</ele>
        <time>2017-06-11T09:06:38.000Z</time>
      </trkpt>
      <trkpt lat="48.83464" lon="-0.39441">
        <ele>119.19999694824</ele>
        <time>2017-06-11T09:06:39.000Z</time>
      </trkpt>
      <trkpt lat="48.83464" lon="-0.3944">
        <ele>119.59999847412</ele>
        <time>2017-06-11T09:06:40.000Z</time>
      </trkpt>
      <trkpt lat="48.83463" lon="-0.39439">
        <ele>120</ele>
        <time>2017-06-11T09:06:41.000Z</time>
      </trkpt>
      <trkpt lat="48.83462" lon="-0.39437">
        <ele>120.40000152588</ele>
        <time>2017-06-11T09:06:42.000Z</time>
      </trkpt>
      <trkpt lat="48.83459" lon="-0.39429">
        <ele>120.80000305176</ele>
        <time>2017-06-11T09:06:48.000Z</time>
      </trkpt>
      <trkpt lat="48.83458" lon="-0.39428">
        <ele>121.59999847412</ele>
        <time>2017-06-11T09:06:49.000Z</time>
      </trkpt>
      <trkpt lat="48.83458" lon="-0.39426">
        <ele>122.19999694824</ele>
        <time>2017-06-11T09:06:50.000Z</time>
      </trkpt>
      <trkpt lat="48.83457" lon="-0.39425">
        <ele>122.59999847412</ele>
        <time>2017-06-11T09:06:51.000Z</time>
      </trkpt>
      <trkpt lat="48.83456" lon="-0.3942">
        <ele>122.59999847412</ele>
        <time>2017-06-11T09:06:54.000Z</time>
      </trkpt>
      <trkpt lat="48.83456" lon="-0.39413">
        <ele>123</ele>
        <time>2017-06-11T09:06:58.000Z</time>
      </trkpt>
      <trkpt lat="48.83456" lon="-0.39411">
        <ele>123.40000152588</ele>
        <time>2017-06-11T09:06:59.000Z</time>
      </trkpt>
      <trkpt lat="48.83455" lon="-0.39408">
        <ele>124</ele>
        <time>2017-06-11T09:07:00.000Z</time>
      </trkpt>
      <trkpt lat="48.83455" lon="-0.39407">
        <ele>124.40000152588</ele>
        <time>2017-06-11T09:07:01.000Z</time>
      </trkpt>
      <trkpt lat="48.83455" lon="-0.39407">
        <ele>124.80000305176</ele>
        <time>2017-06-11T09:07:02.000Z</time>
      </trkpt>
      <trkpt lat="48.83455" lon="-0.39406">
        <ele>124.80000305176</ele>
        <time>2017-06-11T09:07:06.000Z</time>
      </trkpt>
      <trkpt lat="48.83454" lon="-0.39398">
        <ele>124.80000305176</ele>
        <time>2017-06-11T09:07:11.000Z</time>
      </trkpt>
      <trkpt lat="48.83454" lon="-0.39396">
        <ele>124.80000305176</ele>
        <time>2017-06-11T09:07:13.000Z</time>
      </trkpt>
      <trkpt lat="48.83453" lon="-0.39394">
        <ele>125.19999694824</ele>
        <time>2017-06-11T09:07:14.000Z</time>
      </trkpt>
      <trkpt lat="48.83453" lon="-0.39393">
        <ele>125.59999847412</ele>
        <time>2017-06-11T09:07:15.000Z</time>
      </trkpt>
      <trkpt lat="48.83453" lon="-0.39393">
        <ele>126.19999694824</ele>
        <time>2017-06-11T09:07:16.000Z</time>
      </trkpt>
      <trkpt lat="48.83453" lon="-0.39393">
        <ele>126.59999847412</ele>
        <time>2017-06-11T09:07:17.000Z</time>
      </trkpt>
      <trkpt lat="48.83453" lon="-0.39393">
        <ele>127</ele>
        <time>2017-06-11T09:07:18.000Z</time>
      </trkpt>
      <trkpt lat="48.83453" lon="-0.39393">
        <ele>127</ele>
        <time>2017-06-11T09:07:30.000Z</time>
      </trkpt>
      <trkpt lat="48.83453" lon="-0.39393">
        <ele>127</ele>
        <time>2017-06-11T09:07:38.000Z</time>
      </trkpt>
      <trkpt lat="48.83453" lon="-0.39393">
        <ele>127</ele>
        <time>2017-06-11T09:07:48.000Z</time>
      </trkpt>
      <trkpt lat="48.83453" lon="-0.39392">
        <ele>127</ele>
        <time>2017-06-11T09:08:02.000Z</time>
      </trkpt>
      <trkpt lat="48.83453" lon="-0.39392">
        <ele>127</ele>
        <time>2017-06-11T09:08:13.000Z</time>
      </trkpt>
      <trkpt lat="48.83453" lon="-0.39392">
        <ele>127</ele>
        <time>2017-06-11T09:08:21.000Z</time>
      </trkpt>
      <trkpt lat="48.83453" lon="-0.39392">
        <ele>127</ele>
        <time>2017-06-11T09:08:30.000Z</time>
      </trkpt>
      <trkpt lat="48.83453" lon="-0.39393">
        <ele>127</ele>
        <time>2017-06-11T09:08:42.000Z</time>
      </trkpt>
      <trkpt lat="48.83453" lon="-0.39393">
        <ele>127</ele>
        <time>2017-06-11T09:08:54.000Z</time>
      </trkpt>
      <trkpt lat="48.83455" lon="-0.3939">
        <ele>127</ele>
        <time>2017-06-11T09:08:59.000Z</time>
      </trkpt>
      <trkpt lat="48.83457" lon="-0.39376">
        <ele>127.40000152588</ele>
        <time>2017-06-11T09:09:07.000Z</time>
      </trkpt>
      <trkpt lat="48.83458" lon="-0.39375">
        <ele>127.80000305176</ele>
        <time>2017-06-11T09:09:08.000Z</time>
      </trkpt>
      <trkpt lat="48.83459" lon="-0.39373">
        <ele>128.39999389648</ele>
        <time>2017-06-11T09:09:09.000Z</time>
      </trkpt>
      <trkpt lat="48.83459" lon="-0.39371">
        <ele>128.80000305176</ele>
        <time>2017-06-11T09:09:10.000Z</time>
      </trkpt>
      <trkpt lat="48.8346" lon="-0.39369">
        <ele>129.19999694824</ele>
        <time>2017-06-11T09:09:11.000Z</time>
      </trkpt>
      <trkpt lat="48.83463" lon="-0.39362">
        <ele>129.19999694824</ele>
        <time>2017-06-11T09:09:16.000Z</time>
      </trkpt>
      <trkpt lat="48.83463" lon="-0.3936">
        <ele>129.60000610352</ele>
        <time>2017-06-11T09:09:17.000Z</time>
      </trkpt>
      <trkpt lat="48.83464" lon="-0.39358">
        <ele>130</ele>
        <time>2017-06-11T09:09:18.000Z</time>
      </trkpt>
      <trkpt lat="48.83464" lon="-0.39358">
        <ele>130.80000305176</ele>
        <time>2017-06-11T09:09:19.000Z</time>
      </trkpt>
      <trkpt lat="48.83465" lon="-0.39356">
        <ele>131.39999389648</ele>
        <time>2017-06-11T09:09:20.000Z</time>
      </trkpt>
      <trkpt lat="48.83465" lon="-0.39354">
        <ele>131.39999389648</ele>
        <time>2017-06-11T09:09:22.000Z</time>
      </trkpt>
      <trkpt lat="48.83467" lon="-0.39349">
        <ele>131.80000305176</ele>
        <time>2017-06-11T09:09:25.000Z</time>
      </trkpt>
      <trkpt lat="48.83468" lon="-0.39347">
        <ele>132.19999694824</ele>
        <time>2017-06-11T09:09:26.000Z</time>
      </trkpt>
      <trkpt lat="48.83468" lon="-0.39346">
        <ele>132.60000610352</ele>
        <time>2017-06-11T09:09:27.000Z</time>
      </trkpt>
      <trkpt lat="48.83469" lon="-0.39343">
        <ele>133</ele>
        <time>2017-06-11T09:09:28.000Z</time>
      </trkpt>
      <trkpt lat="48.83469" lon="-0.3934">
        <ele>133.39999389648</ele>
        <time>2017-06-11T09:09:29.000Z</time>
      </trkpt>
      <trkpt lat="48.8347" lon="-0.39337">
        <ele>133.39999389648</ele>
        <time>2017-06-11T09:09:30.000Z</time>
      </trkpt>
      <trkpt lat="48.83474" lon="-0.39328">
        <ele>133.39999389648</ele>
        <time>2017-06-11T09:09:34.000Z</time>
      </trkpt>
      <trkpt lat="48.83475" lon="-0.39326">
        <ele>133.80000305176</ele>
        <time>2017-06-11T09:09:35.000Z</time>
      </trkpt>
      <trkpt lat="48.83475" lon="-0.39323">
        <ele>134.19999694824</ele>
        <time>2017-06-11T09:09:36.000Z</time>
      </trkpt>
      <trkpt lat="48.83475" lon="-0.3932">
        <ele>134.60000610352</ele>
        <time>2017-06-11T09:09:37.000Z</time>
      </trkpt>
      <trkpt lat="48.83475" lon="-0.39318">
        <ele>135</ele>
        <time>2017-06-11T09:09:38.000Z</time>
      </trkpt>
      <trkpt lat="48.83475" lon="-0.39316">
        <ele>135.39999389648</ele>
        <time>2017-06-11T09:09:39.000Z</time>
      </trkpt>
      <trkpt lat="48.83478" lon="-0.39303">
        <ele>135.80000305176</ele>
        <time>2017-06-11T09:09:46.000Z</time>
      </trkpt>
      <trkpt lat="48.83479" lon="-0.393">
        <ele>136.19999694824</ele>
        <time>2017-06-11T09:09:47.000Z</time>
      </trkpt>
      <trkpt lat="48.83479" lon="-0.39298">
        <ele>136.60000610352</ele>
        <time>2017-06-11T09:09:48.000Z</time>
      </trkpt>
      <trkpt lat="48.83479" lon="-0.39296">
        <ele>137.19999694824</ele>
        <time>2017-06-11T09:09:49.000Z</time>
      </trkpt>
      <trkpt lat="48.83479" lon="-0.39293">
        <ele>137.60000610352</ele>
        <time>2017-06-11T09:09:50.000Z</time>
      </trkpt>
      <trkpt lat="48.8348" lon="-0.3929">
        <ele>137.60000610352</ele>
        <time>2017-06-11T09:09:51.000Z</time>
      </trkpt>
      <trkpt lat="48.8348" lon="-0.39285">
        <ele>137.60000610352</ele>
        <time>2017-06-11T09:09:53.000Z</time>
      </trkpt>
      <trkpt lat="48.83481" lon="-0.39276">
        <ele>138</ele>
        <time>2017-06-11T09:09:57.000Z</time>
      </trkpt>
      <trkpt lat="48.83481" lon="-0.39275">
        <ele>138.39999389648</ele>
        <time>2017-06-11T09:09:58.000Z</time>
      </trkpt>
      <trkpt lat="48.83481" lon="-0.39274">
        <ele>138.80000305176</ele>
        <time>2017-06-11T09:09:59.000Z</time>
      </trkpt>
      <trkpt lat="48.83481" lon="-0.39272">
        <ele>139.19999694824</ele>
        <time>2017-06-11T09:10:00.000Z</time>
      </trkpt>
      <trkpt lat="48.83481" lon="-0.3927">
        <ele>139.60000610352</ele>
        <time>2017-06-11T09:10:01.000Z</time>
      </trkpt>
      <trkpt lat="48.83481" lon="-0.39267">
        <ele>139.60000610352</ele>
        <time>2017-06-11T09:10:05.000Z</time>
      </trkpt>
      <trkpt lat="48.83483" lon="-0.39261">
        <ele>139.60000610352</ele>
        <time>2017-06-11T09:10:14.000Z</time>
      </trkpt>
      <trkpt lat="48.83485" lon="-0.39253">
        <ele>139.60000610352</ele>
        <time>2017-06-11T09:10:19.000Z</time>
      </trkpt>
      <trkpt lat="48.83486" lon="-0.39251">
        <ele>139.60000610352</ele>
        <time>2017-06-11T09:10:20.000Z</time>
      </trkpt>
      <trkpt lat="48.83494" lon="-0.39236">
        <ele>139.60000610352</ele>
        <time>2017-06-11T09:10:26.000Z</time>
      </trkpt>
      <trkpt lat="48.83502" lon="-0.39207">
        <ele>139.60000610352</ele>
        <time>2017-06-11T09:10:33.000Z</time>
      </trkpt>
      <trkpt lat="48.83509" lon="-0.39178">
        <ele>139.60000610352</ele>
        <time>2017-06-11T09:10:39.000Z</time>
      </trkpt>
      <trkpt lat="48.8351" lon="-0.39175">
        <ele>140</ele>
        <time>2017-06-11T09:10:40.000Z</time>
      </trkpt>
      <trkpt lat="48.83511" lon="-0.39171">
        <ele>140.60000610352</ele>
        <time>2017-06-11T09:10:41.000Z</time>
      </trkpt>
      <trkpt lat="48.83511" lon="-0.39168">
        <ele>141</ele>
        <time>2017-06-11T09:10:42.000Z</time>
      </trkpt>
      <trkpt lat="48.83512" lon="-0.39164">
        <ele>141.39999389648</ele>
        <time>2017-06-11T09:10:43.000Z</time>
      </trkpt>
      <trkpt lat="48.83513" lon="-0.39161">
        <ele>141.80000305176</ele>
        <time>2017-06-11T09:10:44.000Z</time>
      </trkpt>
      <trkpt lat="48.83521" lon="-0.39138">
        <ele>141.80000305176</ele>
        <time>2017-06-11T09:10:50.000Z</time>
      </trkpt>
      <trkpt lat="48.83524" lon="-0.39131">
        <ele>142.19999694824</ele>
        <time>2017-06-11T09:10:52.000Z</time>
      </trkpt>
      <trkpt lat="48.83525" lon="-0.39127">
        <ele>142.60000610352</ele>
        <time>2017-06-11T09:10:53.000Z</time>
      </trkpt>
      <trkpt lat="48.83525" lon="-0.39124">
        <ele>143</ele>
        <time>2017-06-11T09:10:54.000Z</time>
      </trkpt>
      <trkpt lat="48.83526" lon="-0.39119">
        <ele>143.39999389648</ele>
        <time>2017-06-11T09:10:55.000Z</time>
      </trkpt>
      <trkpt lat="48.83527" lon="-0.39116">
        <ele>143.80000305176</ele>
        <time>2017-06-11T09:10:56.000Z</time>
      </trkpt>
      <trkpt lat="48.8353" lon="-0.39108">
        <ele>143.80000305176</ele>
        <time>2017-06-11T09:10:58.000Z</time>
      </trkpt>
      <trkpt lat="48.83531" lon="-0.39106">
        <ele>143.80000305176</ele>
        <time>2017-06-11T09:10:59.000Z</time>
      </trkpt>
      <trkpt lat="48.83539" lon="-0.39095">
        <ele>143.80000305176</ele>
        <time>2017-06-11T09:11:02.000Z</time>
      </trkpt>
      <trkpt lat="48.83545" lon="-0.39088">
        <ele>144.19999694824</ele>
        <time>2017-06-11T09:11:05.000Z</time>
      </trkpt>
      <trkpt lat="48.83547" lon="-0.39085">
        <ele>144.60000610352</ele>
        <time>2017-06-11T09:11:06.000Z</time>
      </trkpt>
      <trkpt lat="48.83549" lon="-0.39082">
        <ele>145</ele>
        <time>2017-06-11T09:11:07.000Z</time>
      </trkpt>
      <trkpt lat="48.83551" lon="-0.3908">
        <ele>145.60000610352</ele>
        <time>2017-06-11T09:11:08.000Z</time>
      </trkpt>
      <trkpt lat="48.83553" lon="-0.39078">
        <ele>146</ele>
        <time>2017-06-11T09:11:09.000Z</time>
      </trkpt>
      <trkpt lat="48.8357" lon="-0.3906">
        <ele>146</ele>
        <time>2017-06-11T09:11:16.000Z</time>
      </trkpt>
      <trkpt lat="48.83598" lon="-0.39029">
        <ele>146</ele>
        <time>2017-06-11T09:11:22.000Z</time>
      </trkpt>
      <trkpt lat="48.83623" lon="-0.39007">
        <ele>146</ele>
        <time>2017-06-11T09:11:28.000Z</time>
      </trkpt>
      <trkpt lat="48.83645" lon="-0.38991">
        <ele>146</ele>
        <time>2017-06-11T09:11:34.000Z</time>
      </trkpt>
      <trkpt lat="48.83677" lon="-0.38966">
        <ele>146</ele>
        <time>2017-06-11T09:11:40.000Z</time>
      </trkpt>
      <trkpt lat="48.83702" lon="-0.3895">
        <ele>145.60000610352</ele>
        <time>2017-06-11T09:11:44.000Z</time>
      </trkpt>
      <trkpt lat="48.83708" lon="-0.38946">
        <ele>145</ele>
        <time>2017-06-11T09:11:45.000Z</time>
      </trkpt>
      <trkpt lat="48.83713" lon="-0.38942">
        <ele>144.60000610352</ele>
        <time>2017-06-11T09:11:46.000Z</time>
      </trkpt>
      <trkpt lat="48.83719" lon="-0.38938">
        <ele>144.19999694824</ele>
        <time>2017-06-11T09:11:47.000Z</time>
      </trkpt>
      <trkpt lat="48.83724" lon="-0.38934">
        <ele>143.80000305176</ele>
        <time>2017-06-11T09:11:48.000Z</time>
      </trkpt>
      <trkpt lat="48.8374" lon="-0.3892">
        <ele>143.80000305176</ele>
        <time>2017-06-11T09:11:51.000Z</time>
      </trkpt>
      <trkpt lat="48.83747" lon="-0.38915">
        <ele>143.80000305176</ele>
        <time>2017-06-11T09:11:54.000Z</time>
      </trkpt>
      <trkpt lat="48.8375" lon="-0.38918">
        <ele>143.39999389648</ele>
        <time>2017-06-11T09:12:01.000Z</time>
      </trkpt>
      <trkpt lat="48.8375" lon="-0.38918">
        <ele>143</ele>
        <time>2017-06-11T09:12:02.000Z</time>
      </trkpt>
      <trkpt lat="48.83752" lon="-0.3892">
        <ele>142.60000610352</ele>
        <time>2017-06-11T09:12:03.000Z</time>
      </trkpt>
      <trkpt lat="48.83753" lon="-0.38921">
        <ele>142.19999694824</ele>
        <time>2017-06-11T09:12:04.000Z</time>
      </trkpt>
      <trkpt lat="48.83756" lon="-0.3892">
        <ele>141.80000305176</ele>
        <time>2017-06-11T09:12:05.000Z</time>
      </trkpt>
      <trkpt lat="48.83759" lon="-0.38919">
        <ele>141.80000305176</ele>
        <time>2017-06-11T09:12:06.000Z</time>
      </trkpt>
      <trkpt lat="48.83768" lon="-0.38921">
        <ele>141.80000305176</ele>
        <time>2017-06-11T09:12:10.000Z</time>
      </trkpt>
      <trkpt lat="48.8377" lon="-0.38921">
        <ele>141.80000305176</ele>
        <time>2017-06-11T09:12:11.000Z</time>
      </trkpt>
      <trkpt lat="48.83775" lon="-0.38922">
        <ele>141</ele>
        <time>2017-06-11T09:12:13.000Z</time>
      </trkpt>
      <trkpt lat="48.83777" lon="-0.38922">
        <ele>140.60000610352</ele>
        <time>2017-06-11T09:12:14.000Z</time>
      </trkpt>
      <trkpt lat="48.8378" lon="-0.38923">
        <ele>140</ele>
        <time>2017-06-11T09:12:15.000Z</time>
      </trkpt>
      <trkpt lat="48.83784" lon="-0.38925">
        <ele>139.60000610352</ele>
        <time>2017-06-11T09:12:16.000Z</time>
      </trkpt>
      <trkpt lat="48.83788" lon="-0.38926">
        <ele>139.60000610352</ele>
        <time>2017-06-11T09:12:17.000Z</time>
      </trkpt>
      <trkpt lat="48.83809" lon="-0.38939">
        <ele>139.60000610352</ele>
        <time>2017-06-11T09:12:22.000Z</time>
      </trkpt>
      <trkpt lat="48.83821" lon="-0.38948">
        <ele>139.60000610352</ele>
        <time>2017-06-11T09:12:26.000Z</time>
      </trkpt>
      <trkpt lat="48.83824" lon="-0.3895">
        <ele>139.60000610352</ele>
        <time>2017-06-11T09:12:27.000Z</time>
      </trkpt>
      <trkpt lat="48.83833" lon="-0.38953">
        <ele>139.60000610352</ele>
        <time>2017-06-11T09:12:30.000Z</time>
      </trkpt>
      <trkpt lat="48.83835" lon="-0.38955">
        <ele>139.60000610352</ele>
        <time>2017-06-11T09:12:31.000Z</time>
      </trkpt>
      <trkpt lat="48.83842" lon="-0.38961">
        <ele>139.60000610352</ele>
        <time>2017-06-11T09:12:34.000Z</time>
      </trkpt>
      <trkpt lat="48.83848" lon="-0.38967">
        <ele>139.60000610352</ele>
        <time>2017-06-11T09:12:36.000Z</time>
      </trkpt>
      <trkpt lat="48.83853" lon="-0.38972">
        <ele>139.60000610352</ele>
        <time>2017-06-11T09:12:38.000Z</time>
      </trkpt>
      <trkpt lat="48.83856" lon="-0.38973">
        <ele>139.60000610352</ele>
        <time>2017-06-11T09:12:39.000Z</time>
      </trkpt>
      <trkpt lat="48.83871" lon="-0.38987">
        <ele>139.60000610352</ele>
        <time>2017-06-11T09:12:45.000Z</time>
      </trkpt>
      <trkpt lat="48.83883" lon="-0.39">
        <ele>139.19999694824</ele>
        <time>2017-06-11T09:12:49.000Z</time>
      </trkpt>
      <trkpt lat="48.83885" lon="-0.39001">
        <ele>138.80000305176</ele>
        <time>2017-06-11T09:12:50.000Z</time>
      </trkpt>
      <trkpt lat="48.83888" lon="-0.39004">
        <ele>138.39999389648</ele>
        <time>2017-06-11T09:12:51.000Z</time>
      </trkpt>
      <trkpt lat="48.83892" lon="-0.39008">
        <ele>138</ele>
        <time>2017-06-11T09:12:52.000Z</time>
      </trkpt>
      <trkpt lat="48.83895" lon="-0.3901">
        <ele>137.60000610352</ele>
        <time>2017-06-11T09:12:53.000Z</time>
      </trkpt>
      <trkpt lat="48.83899" lon="-0.39013">
        <ele>137.60000610352</ele>
        <time>2017-06-11T09:12:55.000Z</time>
      </trkpt>
      <trkpt lat="48.83901" lon="-0.39014">
        <ele>137.19999694824</ele>
        <time>2017-06-11T09:12:56.000Z</time>
      </trkpt>
      <trkpt lat="48.83904" lon="-0.39014">
        <ele>136.60000610352</ele>
        <time>2017-06-11T09:12:57.000Z</time>
      </trkpt>
      <trkpt lat="48.83907" lon="-0.39015">
        <ele>136.19999694824</ele>
        <time>2017-06-11T09:12:58.000Z</time>
      </trkpt>
      <trkpt lat="48.83909" lon="-0.39015">
        <ele>135.60000610352</ele>
        <time>2017-06-11T09:12:59.000Z</time>
      </trkpt>
      <trkpt lat="48.83912" lon="-0.39016">
        <ele>135.19999694824</ele>
        <time>2017-06-11T09:13:00.000Z</time>
      </trkpt>
      <trkpt lat="48.83915" lon="-0.39017">
        <ele>134.80000305176</ele>
        <time>2017-06-11T09:13:01.000Z</time>
      </trkpt>
      <trkpt lat="48.83918" lon="-0.39018">
        <ele>133.80000305176</ele>
        <time>2017-06-11T09:13:02.000Z</time>
      </trkpt>
      <trkpt lat="48.83921" lon="-0.39019">
        <ele>133.39999389648</ele>
        <time>2017-06-11T09:13:03.000Z</time>
      </trkpt>
      <trkpt lat="48.83925" lon="-0.39021">
        <ele>132.80000305176</ele>
        <time>2017-06-11T09:13:04.000Z</time>
      </trkpt>
      <trkpt lat="48.83934" lon="-0.39024">
        <ele>132.39999389648</ele>
        <time>2017-06-11T09:13:06.000Z</time>
      </trkpt>
      <trkpt lat="48.83938" lon="-0.39026">
        <ele>132</ele>
        <time>2017-06-11T09:13:07.000Z</time>
      </trkpt>
      <trkpt lat="48.83941" lon="-0.39028">
        <ele>131.60000610352</ele>
        <time>2017-06-11T09:13:08.000Z</time>
      </trkpt>
      <trkpt lat="48.83944" lon="-0.39029">
        <ele>131.19999694824</ele>
        <time>2017-06-11T09:13:09.000Z</time>
      </trkpt>
      <trkpt lat="48.83946" lon="-0.39031">
        <ele>130.80000305176</ele>
        <time>2017-06-11T09:13:10.000Z</time>
      </trkpt>
      <trkpt lat="48.8395" lon="-0.39036">
        <ele>130.80000305176</ele>
        <time>2017-06-11T09:13:12.000Z</time>
      </trkpt>
      <trkpt lat="48.83953" lon="-0.3904">
        <ele>130.39999389648</ele>
        <time>2017-06-11T09:13:14.000Z</time>
      </trkpt>
      <trkpt lat="48.83955" lon="-0.39043">
        <ele>130</ele>
        <time>2017-06-11T09:13:15.000Z</time>
      </trkpt>
      <trkpt lat="48.83957" lon="-0.39045">
        <ele>129.39999389648</ele>
        <time>2017-06-11T09:13:16.000Z</time>
      </trkpt>
      <trkpt lat="48.83959" lon="-0.39047">
        <ele>129</ele>
        <time>2017-06-11T09:13:17.000Z</time>
      </trkpt>
      <trkpt lat="48.83962" lon="-0.39049">
        <ele>128.60000610352</ele>
        <time>2017-06-11T09:13:18.000Z</time>
      </trkpt>
      <trkpt lat="48.83966" lon="-0.39051">
        <ele>128</ele>
        <time>2017-06-11T09:13:19.000Z</time>
      </trkpt>
      <trkpt lat="48.83969" lon="-0.39053">
        <ele>127.59999847412</ele>
        <time>2017-06-11T09:13:20.000Z</time>
      </trkpt>
      <trkpt lat="48.83971" lon="-0.39055">
        <ele>127.19999694824</ele>
        <time>2017-06-11T09:13:21.000Z</time>
      </trkpt>
      <trkpt lat="48.83973" lon="-0.39058">
        <ele>126.59999847412</ele>
        <time>2017-06-11T09:13:22.000Z</time>
      </trkpt>
      <trkpt lat="48.83975" lon="-0.39061">
        <ele>126</ele>
        <time>2017-06-11T09:13:23.000Z</time>
      </trkpt>
      <trkpt lat="48.83977" lon="-0.39065">
        <ele>125.59999847412</ele>
        <time>2017-06-11T09:13:24.000Z</time>
      </trkpt>
      <trkpt lat="48.8398" lon="-0.39068">
        <ele>125</ele>
        <time>2017-06-11T09:13:25.000Z</time>
      </trkpt>
      <trkpt lat="48.83982" lon="-0.39071">
        <ele>124.40000152588</ele>
        <time>2017-06-11T09:13:26.000Z</time>
      </trkpt>
      <trkpt lat="48.83983" lon="-0.39073">
        <ele>123.80000305176</ele>
        <time>2017-06-11T09:13:27.000Z</time>
      </trkpt>
      <trkpt lat="48.83984" lon="-0.39073">
        <ele>123.40000152588</ele>
        <time>2017-06-11T09:13:28.000Z</time>
      </trkpt>
      <trkpt lat="48.83985" lon="-0.39073">
        <ele>123</ele>
        <time>2017-06-11T09:13:29.000Z</time>
      </trkpt>
      <trkpt lat="48.83985" lon="-0.39073">
        <ele>122.59999847412</ele>
        <time>2017-06-11T09:13:30.000Z</time>
      </trkpt>
      <trkpt lat="48.83985" lon="-0.39073">
        <ele>122.19999694824</ele>
        <time>2017-06-11T09:13:31.000Z</time>
      </trkpt>
      <trkpt lat="48.83985" lon="-0.39074">
        <ele>121.80000305176</ele>
        <time>2017-06-11T09:13:32.000Z</time>
      </trkpt>
      <trkpt lat="48.83986" lon="-0.39076">
        <ele>121.80000305176</ele>
        <time>2017-06-11T09:13:34.000Z</time>
      </trkpt>
      <trkpt lat="48.83986" lon="-0.39077">
        <ele>121.80000305176</ele>
        <time>2017-06-11T09:13:36.000Z</time>
      </trkpt>
      <trkpt lat="48.83988" lon="-0.39078">
        <ele>121.80000305176</ele>
        <time>2017-06-11T09:13:40.000Z</time>
      </trkpt>
      <trkpt lat="48.83988" lon="-0.39079">
        <ele>121.80000305176</ele>
        <time>2017-06-11T09:13:46.000Z</time>
      </trkpt>
      <trkpt lat="48.83988" lon="-0.39079">
        <ele>121.80000305176</ele>
        <time>2017-06-11T09:13:59.000Z</time>
      </trkpt>
      <trkpt lat="48.83988" lon="-0.39078">
        <ele>121.80000305176</ele>
        <time>2017-06-11T09:14:06.000Z</time>
      </trkpt>
      <trkpt lat="48.83988" lon="-0.39078">
        <ele>121.80000305176</ele>
        <time>2017-06-11T09:14:12.000Z</time>
      </trkpt>
      <trkpt lat="48.83989" lon="-0.39078">
        <ele>121.80000305176</ele>
        <time>2017-06-11T09:14:18.000Z</time>
      </trkpt>
      <trkpt lat="48.83993" lon="-0.39079">
        <ele>121.40000152588</ele>
        <time>2017-06-11T09:14:24.000Z</time>
      </trkpt>
      <trkpt lat="48.83993" lon="-0.39079">
        <ele>121</ele>
        <time>2017-06-11T09:14:25.000Z</time>
      </trkpt>
      <trkpt lat="48.83995" lon="-0.39079">
        <ele>120.59999847412</ele>
        <time>2017-06-11T09:14:26.000Z</time>
      </trkpt>
      <trkpt lat="48.83997" lon="-0.39079">
        <ele>120.19999694824</ele>
        <time>2017-06-11T09:14:27.000Z</time>
      </trkpt>
      <trkpt lat="48.83999" lon="-0.39078">
        <ele>119.80000305176</ele>
        <time>2017-06-11T09:14:28.000Z</time>
      </trkpt>
      <trkpt lat="48.84013" lon="-0.39081">
        <ele>119.80000305176</ele>
        <time>2017-06-11T09:14:32.000Z</time>
      </trkpt>
      <trkpt lat="48.84021" lon="-0.3909">
        <ele>119.80000305176</ele>
        <time>2017-06-11T09:14:34.000Z</time>
      </trkpt>
      <trkpt lat="48.84025" lon="-0.39095">
        <ele>119.80000305176</ele>
        <time>2017-06-11T09:14:35.000Z</time>
      </trkpt>
      <trkpt lat="48.84028" lon="-0.39101">
        <ele>119.40000152588</ele>
        <time>2017-06-11T09:14:36.000Z</time>
      </trkpt>
      <trkpt lat="48.84031" lon="-0.39107">
        <ele>119</ele>
        <time>2017-06-11T09:14:37.000Z</time>
      </trkpt>
      <trkpt lat="48.84034" lon="-0.39112">
        <ele>118.59999847412</ele>
        <time>2017-06-11T09:14:38.000Z</time>
      </trkpt>
      <trkpt lat="48.84038" lon="-0.39117">
        <ele>118</ele>
        <time>2017-06-11T09:14:39.000Z</time>
      </trkpt>
      <trkpt lat="48.84041" lon="-0.39122">
        <ele>117.59999847412</ele>
        <time>2017-06-11T09:14:40.000Z</time>
      </trkpt>
      <trkpt lat="48.84047" lon="-0.39131">
        <ele>116.80000305176</ele>
        <time>2017-06-11T09:14:42.000Z</time>
      </trkpt>
      <trkpt lat="48.84051" lon="-0.39135">
        <ele>116.19999694824</ele>
        <time>2017-06-11T09:14:43.000Z</time>
      </trkpt>
      <trkpt lat="48.84055" lon="-0.3914">
        <ele>115.80000305176</ele>
        <time>2017-06-11T09:14:44.000Z</time>
      </trkpt>
      <trkpt lat="48.84058" lon="-0.39144">
        <ele>115.19999694824</ele>
        <time>2017-06-11T09:14:45.000Z</time>
      </trkpt>
      <trkpt lat="48.84062" lon="-0.39148">
        <ele>114.59999847412</ele>
        <time>2017-06-11T09:14:46.000Z</time>
      </trkpt>
      <trkpt lat="48.84066" lon="-0.39152">
        <ele>114</ele>
        <time>2017-06-11T09:14:47.000Z</time>
      </trkpt>
      <trkpt lat="48.84069" lon="-0.39157">
        <ele>113.19999694824</ele>
        <time>2017-06-11T09:14:48.000Z</time>
      </trkpt>
      <trkpt lat="48.84073" lon="-0.39161">
        <ele>112.59999847412</ele>
        <time>2017-06-11T09:14:49.000Z</time>
      </trkpt>
      <trkpt lat="48.84076" lon="-0.39165">
        <ele>112</ele>
        <time>2017-06-11T09:14:50.000Z</time>
      </trkpt>
      <trkpt lat="48.84079" lon="-0.3917">
        <ele>111.19999694824</ele>
        <time>2017-06-11T09:14:51.000Z</time>
      </trkpt>
      <trkpt lat="48.84081" lon="-0.39174">
        <ele>110.59999847412</ele>
        <time>2017-06-11T09:14:52.000Z</time>
      </trkpt>
      <trkpt lat="48.84082" lon="-0.39177">
        <ele>110</ele>
        <time>2017-06-11T09:14:53.000Z</time>
      </trkpt>
      <trkpt lat="48.84082" lon="-0.39181">
        <ele>109.59999847412</ele>
        <time>2017-06-11T09:14:54.000Z</time>
      </trkpt>
      <trkpt lat="48.84083" lon="-0.39185">
        <ele>108.80000305176</ele>
        <time>2017-06-11T09:14:55.000Z</time>
      </trkpt>
      <trkpt lat="48.84084" lon="-0.39188">
        <ele>108</ele>
        <time>2017-06-11T09:14:56.000Z</time>
      </trkpt>
      <trkpt lat="48.84085" lon="-0.39191">
        <ele>107.40000152588</ele>
        <time>2017-06-11T09:14:57.000Z</time>
      </trkpt>
      <trkpt lat="48.84086" lon="-0.39194">
        <ele>106.59999847412</ele>
        <time>2017-06-11T09:14:58.000Z</time>
      </trkpt>
      <trkpt lat="48.84087" lon="-0.39198">
        <ele>106</ele>
        <time>2017-06-11T09:14:59.000Z</time>
      </trkpt>
      <trkpt lat="48.84089" lon="-0.39202">
        <ele>105.19999694824</ele>
        <time>2017-06-11T09:15:00.000Z</time>
      </trkpt>
      <trkpt lat="48.8409" lon="-0.39206">
        <ele>104.59999847412</ele>
        <time>2017-06-11T09:15:01.000Z</time>
      </trkpt>
      <trkpt lat="48.84092" lon="-0.39211">
        <ele>103.80000305176</ele>
        <time>2017-06-11T09:15:02.000Z</time>
      </trkpt>
      <trkpt lat="48.84093" lon="-0.39215">
        <ele>103.40000152588</ele>
        <time>2017-06-11T09:15:03.000Z</time>
      </trkpt>
      <trkpt lat="48.84095" lon="-0.3922">
        <ele>103</ele>
        <time>2017-06-11T09:15:04.000Z</time>
      </trkpt>
      <trkpt lat="48.84096" lon="-0.39225">
        <ele>102.59999847412</ele>
        <time>2017-06-11T09:15:05.000Z</time>
      </trkpt>
      <trkpt lat="48.84098" lon="-0.39232">
        <ele>101.80000305176</ele>
        <time>2017-06-11T09:15:06.000Z</time>
      </trkpt>
      <trkpt lat="48.84102" lon="-0.39244">
        <ele>101.80000305176</ele>
        <time>2017-06-11T09:15:08.000Z</time>
      </trkpt>
      <trkpt lat="48.84108" lon="-0.39253">
        <ele>101.40000152588</ele>
        <time>2017-06-11T09:15:10.000Z</time>
      </trkpt>
      <trkpt lat="48.8411" lon="-0.39257">
        <ele>101</ele>
        <time>2017-06-11T09:15:11.000Z</time>
      </trkpt>
      <trkpt lat="48.84113" lon="-0.3926">
        <ele>100.59999847412</ele>
        <time>2017-06-11T09:15:12.000Z</time>
      </trkpt>
      <trkpt lat="48.84115" lon="-0.39261">
        <ele>100</ele>
        <time>2017-06-11T09:15:13.000Z</time>
      </trkpt>
      <trkpt lat="48.84116" lon="-0.39263">
        <ele>99.599998474121</ele>
        <time>2017-06-11T09:15:14.000Z</time>
      </trkpt>
      <trkpt lat="48.84119" lon="-0.39265">
        <ele>99.599998474121</ele>
        <time>2017-06-11T09:15:15.000Z</time>
      </trkpt>
      <trkpt lat="48.8412" lon="-0.39268">
        <ele>99.199996948242</ele>
        <time>2017-06-11T09:15:16.000Z</time>
      </trkpt>
      <trkpt lat="48.84122" lon="-0.39271">
        <ele>98.800003051758</ele>
        <time>2017-06-11T09:15:17.000Z</time>
      </trkpt>
      <trkpt lat="48.84124" lon="-0.39273">
        <ele>98.400001525879</ele>
        <time>2017-06-11T09:15:18.000Z</time>
      </trkpt>
      <trkpt lat="48.84126" lon="-0.39277">
        <ele>98</ele>
        <time>2017-06-11T09:15:19.000Z</time>
      </trkpt>
      <trkpt lat="48.84128" lon="-0.39282">
        <ele>97.599998474121</ele>
        <time>2017-06-11T09:15:20.000Z</time>
      </trkpt>
      <trkpt lat="48.84134" lon="-0.39293">
        <ele>97</ele>
        <time>2017-06-11T09:15:23.000Z</time>
      </trkpt>
      <trkpt lat="48.84136" lon="-0.39297">
        <ele>96.599998474121</ele>
        <time>2017-06-11T09:15:24.000Z</time>
      </trkpt>
      <trkpt lat="48.84138" lon="-0.39301">
        <ele>96.199996948242</ele>
        <time>2017-06-11T09:15:25.000Z</time>
      </trkpt>
      <trkpt lat="48.84139" lon="-0.39304">
        <ele>95.800003051758</ele>
        <time>2017-06-11T09:15:26.000Z</time>
      </trkpt>
      <trkpt lat="48.8414" lon="-0.39308">
        <ele>95.199996948242</ele>
        <time>2017-06-11T09:15:27.000Z</time>
      </trkpt>
      <trkpt lat="48.8414" lon="-0.39318">
        <ele>94.800003051758</ele>
        <time>2017-06-11T09:15:29.000Z</time>
      </trkpt>
      <trkpt lat="48.84141" lon="-0.39323">
        <ele>94.400001525879</ele>
        <time>2017-06-11T09:15:30.000Z</time>
      </trkpt>
      <trkpt lat="48.84141" lon="-0.39328">
        <ele>93.599998474121</ele>
        <time>2017-06-11T09:15:31.000Z</time>
      </trkpt>
      <trkpt lat="48.84141" lon="-0.39331">
        <ele>93.199996948242</ele>
        <time>2017-06-11T09:15:32.000Z</time>
      </trkpt>
      <trkpt lat="48.84142" lon="-0.39334">
        <ele>92.800003051758</ele>
        <time>2017-06-11T09:15:33.000Z</time>
      </trkpt>
      <trkpt lat="48.84143" lon="-0.39337">
        <ele>92.400001525879</ele>
        <time>2017-06-11T09:15:34.000Z</time>
      </trkpt>
      <trkpt lat="48.84145" lon="-0.39339">
        <ele>92</ele>
        <time>2017-06-11T09:15:35.000Z</time>
      </trkpt>
      <trkpt lat="48.84146" lon="-0.39342">
        <ele>91.599998474121</ele>
        <time>2017-06-11T09:15:36.000Z</time>
      </trkpt>
      <trkpt lat="48.84149" lon="-0.39346">
        <ele>91.199996948242</ele>
        <time>2017-06-11T09:15:37.000Z</time>
      </trkpt>
      <trkpt lat="48.84153" lon="-0.39352">
        <ele>90.800003051758</ele>
        <time>2017-06-11T09:15:39.000Z</time>
      </trkpt>
      <trkpt lat="48.84154" lon="-0.39355">
        <ele>90.400001525879</ele>
        <time>2017-06-11T09:15:40.000Z</time>
      </trkpt>
      <trkpt lat="48.84156" lon="-0.39358">
        <ele>90</ele>
        <time>2017-06-11T09:15:41.000Z</time>
      </trkpt>
      <trkpt lat="48.84157" lon="-0.39361">
        <ele>89.599998474121</ele>
        <time>2017-06-11T09:15:42.000Z</time>
      </trkpt>
      <trkpt lat="48.84159" lon="-0.39365">
        <ele>89.199996948242</ele>
        <time>2017-06-11T09:15:43.000Z</time>
      </trkpt>
      <trkpt lat="48.84161" lon="-0.39369">
        <ele>88.599998474121</ele>
        <time>2017-06-11T09:15:44.000Z</time>
      </trkpt>
      <trkpt lat="48.84164" lon="-0.39374">
        <ele>88.199996948242</ele>
        <time>2017-06-11T09:15:45.000Z</time>
      </trkpt>
      <trkpt lat="48.84166" lon="-0.39379">
        <ele>87.800003051758</ele>
        <time>2017-06-11T09:15:46.000Z</time>
      </trkpt>
      <trkpt lat="48.84168" lon="-0.39383">
        <ele>87.400001525879</ele>
        <time>2017-06-11T09:15:47.000Z</time>
      </trkpt>
      <trkpt lat="48.8417" lon="-0.39389">
        <ele>86.800003051758</ele>
        <time>2017-06-11T09:15:48.000Z</time>
      </trkpt>
      <trkpt lat="48.84172" lon="-0.39393">
        <ele>86.400001525879</ele>
        <time>2017-06-11T09:15:49.000Z</time>
      </trkpt>
      <trkpt lat="48.84173" lon="-0.39397">
        <ele>85.800003051758</ele>
        <time>2017-06-11T09:15:50.000Z</time>
      </trkpt>
      <trkpt lat="48.84174" lon="-0.39401">
        <ele>85.400001525879</ele>
        <time>2017-06-11T09:15:51.000Z</time>
      </trkpt>
      <trkpt lat="48.84176" lon="-0.39404">
        <ele>84.800003051758</ele>
        <time>2017-06-11T09:15:52.000Z</time>
      </trkpt>
      <trkpt lat="48.84177" lon="-0.39406">
        <ele>84.400001525879</ele>
        <time>2017-06-11T09:15:53.000Z</time>
      </trkpt>
      <trkpt lat="48.84178" lon="-0.39408">
        <ele>84</ele>
        <time>2017-06-11T09:15:54.000Z</time>
      </trkpt>
      <trkpt lat="48.84179" lon="-0.3941">
        <ele>83.199996948242</ele>
        <time>2017-06-11T09:15:55.000Z</time>
      </trkpt>
      <trkpt lat="48.84179" lon="-0.39411">
        <ele>82.800003051758</ele>
        <time>2017-06-11T09:15:56.000Z</time>
      </trkpt>
      <trkpt lat="48.8418" lon="-0.39411">
        <ele>82.800003051758</ele>
        <time>2017-06-11T09:15:59.000Z</time>
      </trkpt>
      <trkpt lat="48.84186" lon="-0.39407">
        <ele>82.800003051758</ele>
        <time>2017-06-11T09:16:05.000Z</time>
      </trkpt>
      <trkpt lat="48.84187" lon="-0.39406">
        <ele>82.800003051758</ele>
        <time>2017-06-11T09:16:06.000Z</time>
      </trkpt>
      <trkpt lat="48.84189" lon="-0.39399">
        <ele>82.800003051758</ele>
        <time>2017-06-11T09:16:11.000Z</time>
      </trkpt>
      <trkpt lat="48.84192" lon="-0.39395">
        <ele>83.199996948242</ele>
        <time>2017-06-11T09:16:16.000Z</time>
      </trkpt>
      <trkpt lat="48.84193" lon="-0.39393">
        <ele>83.599998474121</ele>
        <time>2017-06-11T09:16:17.000Z</time>
      </trkpt>
      <trkpt lat="48.84194" lon="-0.39393">
        <ele>84</ele>
        <time>2017-06-11T09:16:18.000Z</time>
      </trkpt>
      <trkpt lat="48.84194" lon="-0.39392">
        <ele>84.400001525879</ele>
        <time>2017-06-11T09:16:19.000Z</time>
      </trkpt>
      <trkpt lat="48.84194" lon="-0.39392">
        <ele>84.800003051758</ele>
        <time>2017-06-11T09:16:20.000Z</time>
      </trkpt>
      <trkpt lat="48.84197" lon="-0.39389">
        <ele>84.800003051758</ele>
        <time>2017-06-11T09:16:24.000Z</time>
      </trkpt>
      <trkpt lat="48.84199" lon="-0.39386">
        <ele>84.800003051758</ele>
        <time>2017-06-11T09:16:29.000Z</time>
      </trkpt>
      <trkpt lat="48.84201" lon="-0.39379">
        <ele>85.199996948242</ele>
        <time>2017-06-11T09:16:32.000Z</time>
      </trkpt>
      <trkpt lat="48.84201" lon="-0.39377">
        <ele>85.599998474121</ele>
        <time>2017-06-11T09:16:33.000Z</time>
      </trkpt>
      <trkpt lat="48.84201" lon="-0.39378">
        <ele>86.199996948242</ele>
        <time>2017-06-11T09:16:34.000Z</time>
      </trkpt>
      <trkpt lat="48.84202" lon="-0.39376">
        <ele>86.599998474121</ele>
        <time>2017-06-11T09:16:35.000Z</time>
      </trkpt>
      <trkpt lat="48.84203" lon="-0.39374">
        <ele>87</ele>
        <time>2017-06-11T09:16:36.000Z</time>
      </trkpt>
      <trkpt lat="48.84203" lon="-0.39371">
        <ele>87</ele>
        <time>2017-06-11T09:16:41.000Z</time>
      </trkpt>
      <trkpt lat="48.84203" lon="-0.39369">
        <ele>87</ele>
        <time>2017-06-11T09:16:47.000Z</time>
      </trkpt>
      <trkpt lat="48.84205" lon="-0.39362">
        <ele>87</ele>
        <time>2017-06-11T09:16:53.000Z</time>
      </trkpt>
      <trkpt lat="48.8421" lon="-0.39344">
        <ele>87.400001525879</ele>
        <time>2017-06-11T09:16:58.000Z</time>
      </trkpt>
      <trkpt lat="48.8421" lon="-0.3934">
        <ele>87.800003051758</ele>
        <time>2017-06-11T09:16:59.000Z</time>
      </trkpt>
      <trkpt lat="48.84211" lon="-0.39336">
        <ele>88.199996948242</ele>
        <time>2017-06-11T09:17:00.000Z</time>
      </trkpt>
      <trkpt lat="48.84212" lon="-0.39331">
        <ele>88.599998474121</ele>
        <time>2017-06-11T09:17:01.000Z</time>
      </trkpt>
      <trkpt lat="48.84213" lon="-0.39327">
        <ele>89</ele>
        <time>2017-06-11T09:17:02.000Z</time>
      </trkpt>
      <trkpt lat="48.84215" lon="-0.39313">
        <ele>89</ele>
        <time>2017-06-11T09:17:05.000Z</time>
      </trkpt>
      <trkpt lat="48.84218" lon="-0.39291">
        <ele>89.800003051758</ele>
        <time>2017-06-11T09:17:10.000Z</time>
      </trkpt>
      <trkpt lat="48.84218" lon="-0.39287">
        <ele>90.199996948242</ele>
        <time>2017-06-11T09:17:11.000Z</time>
      </trkpt>
      <trkpt lat="48.84217" lon="-0.39282">
        <ele>90.599998474121</ele>
        <time>2017-06-11T09:17:12.000Z</time>
      </trkpt>
      <trkpt lat="48.84217" lon="-0.39278">
        <ele>91</ele>
        <time>2017-06-11T09:17:13.000Z</time>
      </trkpt>
      <trkpt lat="48.84218" lon="-0.39256">
        <ele>91</ele>
        <time>2017-06-11T09:17:18.000Z</time>
      </trkpt>
      <trkpt lat="48.84218" lon="-0.39247">
        <ele>91.400001525879</ele>
        <time>2017-06-11T09:17:20.000Z</time>
      </trkpt>
      <trkpt lat="48.84218" lon="-0.39243">
        <ele>92</ele>
        <time>2017-06-11T09:17:21.000Z</time>
      </trkpt>
      <trkpt lat="48.84218" lon="-0.39239">
        <ele>92.400001525879</ele>
        <time>2017-06-11T09:17:22.000Z</time>
      </trkpt>
      <trkpt lat="48.84218" lon="-0.39234">
        <ele>92.800003051758</ele>
        <time>2017-06-11T09:17:23.000Z</time>
      </trkpt>
      <trkpt lat="48.84218" lon="-0.39229">
        <ele>93.199996948242</ele>
        <time>2017-06-11T09:17:24.000Z</time>
      </trkpt>
      <trkpt lat="48.84217" lon="-0.39225">
        <ele>93.199996948242</ele>
        <time>2017-06-11T09:17:25.000Z</time>
      </trkpt>
      <trkpt lat="48.84214" lon="-0.39187">
        <ele>94</ele>
        <time>2017-06-11T09:17:34.000Z</time>
      </trkpt>
      <trkpt lat="48.84214" lon="-0.39183">
        <ele>94.400001525879</ele>
        <time>2017-06-11T09:17:35.000Z</time>
      </trkpt>
      <trkpt lat="48.84213" lon="-0.39178">
        <ele>95</ele>
        <time>2017-06-11T09:17:36.000Z</time>
      </trkpt>
      <trkpt lat="48.84212" lon="-0.39174">
        <ele>95.400001525879</ele>
        <time>2017-06-11T09:17:37.000Z</time>
      </trkpt>
      <trkpt lat="48.8421" lon="-0.39146">
        <ele>95.400001525879</ele>
        <time>2017-06-11T09:17:43.000Z</time>
      </trkpt>
      <trkpt lat="48.84209" lon="-0.39132">
        <ele>95.800003051758</ele>
        <time>2017-06-11T09:17:46.000Z</time>
      </trkpt>
      <trkpt lat="48.84208" lon="-0.39126">
        <ele>96.199996948242</ele>
        <time>2017-06-11T09:17:47.000Z</time>
      </trkpt>
      <trkpt lat="48.84208" lon="-0.39121">
        <ele>96.599998474121</ele>
        <time>2017-06-11T09:17:48.000Z</time>
      </trkpt>
      <trkpt lat="48.84207" lon="-0.39116">
        <ele>97</ele>
        <time>2017-06-11T09:17:49.000Z</time>
      </trkpt>
      <trkpt lat="48.84207" lon="-0.39111">
        <ele>97.400001525879</ele>
        <time>2017-06-11T09:17:50.000Z</time>
      </trkpt>
      <trkpt lat="48.84202" lon="-0.39066">
        <ele>97.400001525879</ele>
        <time>2017-06-11T09:17:57.000Z</time>
      </trkpt>
      <trkpt lat="48.84193" lon="-0.39018">
        <ele>97.400001525879</ele>
        <time>2017-06-11T09:18:04.000Z</time>
      </trkpt>
      <trkpt lat="48.84183" lon="-0.38973">
        <ele>97.400001525879</ele>
        <time>2017-06-11T09:18:11.000Z</time>
      </trkpt>
      <trkpt lat="48.84176" lon="-0.3894">
        <ele>97.800003051758</ele>
        <time>2017-06-11T09:18:17.000Z</time>
      </trkpt>
      <trkpt lat="48.84175" lon="-0.38934">
        <ele>98.199996948242</ele>
        <time>2017-06-11T09:18:18.000Z</time>
      </trkpt>
      <trkpt lat="48.84174" lon="-0.38928">
        <ele>98.599998474121</ele>
        <time>2017-06-11T09:18:19.000Z</time>
      </trkpt>
      <trkpt lat="48.84173" lon="-0.38922">
        <ele>99</ele>
        <time>2017-06-11T09:18:20.000Z</time>
      </trkpt>
      <trkpt lat="48.84172" lon="-0.38916">
        <ele>99.400001525879</ele>
        <time>2017-06-11T09:18:21.000Z</time>
      </trkpt>
      <trkpt lat="48.84166" lon="-0.38887">
        <ele>99.400001525879</ele>
        <time>2017-06-11T09:18:26.000Z</time>
      </trkpt>
      <trkpt lat="48.84168" lon="-0.3886">
        <ele>99.400001525879</ele>
        <time>2017-06-11T09:18:31.000Z</time>
      </trkpt>
      <trkpt lat="48.84176" lon="-0.38845">
        <ele>99.400001525879</ele>
        <time>2017-06-11T09:18:34.000Z</time>
      </trkpt>
      <trkpt lat="48.84179" lon="-0.38838">
        <ele>99.400001525879</ele>
        <time>2017-06-11T09:18:35.000Z</time>
      </trkpt>
      <trkpt lat="48.84181" lon="-0.38813">
        <ele>99.400001525879</ele>
        <time>2017-06-11T09:18:38.000Z</time>
      </trkpt>
      <trkpt lat="48.84176" lon="-0.3878">
        <ele>99.400001525879</ele>
        <time>2017-06-11T09:18:42.000Z</time>
      </trkpt>
      <trkpt lat="48.84174" lon="-0.38772">
        <ele>99.400001525879</ele>
        <time>2017-06-11T09:18:43.000Z</time>
      </trkpt>
      <trkpt lat="48.84168" lon="-0.38744">
        <ele>99</ele>
        <time>2017-06-11T09:18:47.000Z</time>
      </trkpt>
      <trkpt lat="48.84167" lon="-0.38736">
        <ele>98.599998474121</ele>
        <time>2017-06-11T09:18:48.000Z</time>
      </trkpt>
      <trkpt lat="48.84166" lon="-0.38729">
        <ele>97.800003051758</ele>
        <time>2017-06-11T09:18:49.000Z</time>
      </trkpt>
      <trkpt lat="48.84165" lon="-0.38721">
        <ele>97.400001525879</ele>
        <time>2017-06-11T09:18:50.000Z</time>
      </trkpt>
      <trkpt lat="48.84163" lon="-0.3869">
        <ele>97.400001525879</ele>
        <time>2017-06-11T09:18:54.000Z</time>
      </trkpt>
      <trkpt lat="48.84162" lon="-0.38672">
        <ele>97</ele>
        <time>2017-06-11T09:18:56.000Z</time>
      </trkpt>
      <trkpt lat="48.84161" lon="-0.38663">
        <ele>96.599998474121</ele>
        <time>2017-06-11T09:18:57.000Z</time>
      </trkpt>
      <trkpt lat="48.8416" lon="-0.38655">
        <ele>96</ele>
        <time>2017-06-11T09:18:58.000Z</time>
      </trkpt>
      <trkpt lat="48.8416" lon="-0.38645">
        <ele>95.599998474121</ele>
        <time>2017-06-11T09:18:59.000Z</time>
      </trkpt>
      <trkpt lat="48.8416" lon="-0.38636">
        <ele>95.199996948242</ele>
        <time>2017-06-11T09:19:00.000Z</time>
      </trkpt>
      <trkpt lat="48.84159" lon="-0.38626">
        <ele>95.199996948242</ele>
        <time>2017-06-11T09:19:01.000Z</time>
      </trkpt>
      <trkpt lat="48.84159" lon="-0.38588">
        <ele>95.199996948242</ele>
        <time>2017-06-11T09:19:05.000Z</time>
      </trkpt>
      <trkpt lat="48.84165" lon="-0.38517">
        <ele>95.199996948242</ele>
        <time>2017-06-11T09:19:12.000Z</time>
      </trkpt>
      <trkpt lat="48.84168" lon="-0.38462">
        <ele>95.199996948242</ele>
        <time>2017-06-11T09:19:18.000Z</time>
      </trkpt>
      <trkpt lat="48.84163" lon="-0.38417">
        <ele>95.199996948242</ele>
        <time>2017-06-11T09:19:24.000Z</time>
      </trkpt>
      <trkpt lat="48.84158" lon="-0.38378">
        <ele>95.199996948242</ele>
        <time>2017-06-11T09:19:30.000Z</time>
      </trkpt>
      <trkpt lat="48.8415" lon="-0.38347">
        <ele>95.199996948242</ele>
        <time>2017-06-11T09:19:36.000Z</time>
      </trkpt>
      <trkpt lat="48.84141" lon="-0.38333">
        <ele>95.599998474121</ele>
        <time>2017-06-11T09:19:40.000Z</time>
      </trkpt>
      <trkpt lat="48.84139" lon="-0.3833">
        <ele>96</ele>
        <time>2017-06-11T09:19:41.000Z</time>
      </trkpt>
      <trkpt lat="48.84137" lon="-0.38326">
        <ele>96.599998474121</ele>
        <time>2017-06-11T09:19:42.000Z</time>
      </trkpt>
      <trkpt lat="48.84135" lon="-0.38322">
        <ele>97</ele>
        <time>2017-06-11T09:19:43.000Z</time>
      </trkpt>
      <trkpt lat="48.84133" lon="-0.38318">
        <ele>97.400001525879</ele>
        <time>2017-06-11T09:19:44.000Z</time>
      </trkpt>
      <trkpt lat="48.8413" lon="-0.3831">
        <ele>97.800003051758</ele>
        <time>2017-06-11T09:19:46.000Z</time>
      </trkpt>
      <trkpt lat="48.84129" lon="-0.38307">
        <ele>98.199996948242</ele>
        <time>2017-06-11T09:19:47.000Z</time>
      </trkpt>
      <trkpt lat="48.84129" lon="-0.38304">
        <ele>98.599998474121</ele>
        <time>2017-06-11T09:19:48.000Z</time>
      </trkpt>
      <trkpt lat="48.84127" lon="-0.38302">
        <ele>99</ele>
        <time>2017-06-11T09:19:49.000Z</time>
      </trkpt>
      <trkpt lat="48.84126" lon="-0.38304">
        <ele>99.400001525879</ele>
        <time>2017-06-11T09:19:50.000Z</time>
      </trkpt>
      <trkpt lat="48.84124" lon="-0.3831">
        <ele>99.400001525879</ele>
        <time>2017-06-11T09:19:52.000Z</time>
      </trkpt>
      <trkpt lat="48.84123" lon="-0.38312">
        <ele>99.400001525879</ele>
        <time>2017-06-11T09:19:53.000Z</time>
      </trkpt>
      <trkpt lat="48.84122" lon="-0.38315">
        <ele>99.400001525879</ele>
        <time>2017-06-11T09:19:54.000Z</time>
      </trkpt>
      <trkpt lat="48.84116" lon="-0.38315">
        <ele>99.400001525879</ele>
        <time>2017-06-11T09:19:57.000Z</time>
      </trkpt>
      <trkpt lat="48.84115" lon="-0.38315">
        <ele>99.400001525879</ele>
        <time>2017-06-11T09:19:58.000Z</time>
      </trkpt>
      <trkpt lat="48.84109" lon="-0.38311">
        <ele>100</ele>
        <time>2017-06-11T09:20:02.000Z</time>
      </trkpt>
      <trkpt lat="48.84108" lon="-0.38309">
        <ele>100.80000305176</ele>
        <time>2017-06-11T09:20:03.000Z</time>
      </trkpt>
      <trkpt lat="48.84107" lon="-0.38308">
        <ele>101.19999694824</ele>
        <time>2017-06-11T09:20:04.000Z</time>
      </trkpt>
      <trkpt lat="48.84106" lon="-0.38307">
        <ele>101.59999847412</ele>
        <time>2017-06-11T09:20:05.000Z</time>
      </trkpt>
      <trkpt lat="48.84102" lon="-0.38303">
        <ele>101.59999847412</ele>
        <time>2017-06-11T09:20:08.000Z</time>
      </trkpt>
      <trkpt lat="48.84098" lon="-0.38296">
        <ele>102</ele>
        <time>2017-06-11T09:20:12.000Z</time>
      </trkpt>
      <trkpt lat="48.84097" lon="-0.38294">
        <ele>102.40000152588</ele>
        <time>2017-06-11T09:20:13.000Z</time>
      </trkpt>
      <trkpt lat="48.84096" lon="-0.38292">
        <ele>102.80000305176</ele>
        <time>2017-06-11T09:20:14.000Z</time>
      </trkpt>
      <trkpt lat="48.84095" lon="-0.3829">
        <ele>103.19999694824</ele>
        <time>2017-06-11T09:20:15.000Z</time>
      </trkpt>
      <trkpt lat="48.84094" lon="-0.38288">
        <ele>103.59999847412</ele>
        <time>2017-06-11T09:20:16.000Z</time>
      </trkpt>
      <trkpt lat="48.84091" lon="-0.38278">
        <ele>103.59999847412</ele>
        <time>2017-06-11T09:20:22.000Z</time>
      </trkpt>
      <trkpt lat="48.84089" lon="-0.38272">
        <ele>104</ele>
        <time>2017-06-11T09:20:25.000Z</time>
      </trkpt>
      <trkpt lat="48.84089" lon="-0.38272">
        <ele>104.59999847412</ele>
        <time>2017-06-11T09:20:26.000Z</time>
      </trkpt>
      <trkpt lat="48.84088" lon="-0.38269">
        <ele>105.40000152588</ele>
        <time>2017-06-11T09:20:27.000Z</time>
      </trkpt>
      <trkpt lat="48.84088" lon="-0.38268">
        <ele>105.80000305176</ele>
        <time>2017-06-11T09:20:28.000Z</time>
      </trkpt>
      <trkpt lat="48.84087" lon="-0.38264">
        <ele>105.80000305176</ele>
        <time>2017-06-11T09:20:30.000Z</time>
      </trkpt>
      <trkpt lat="48.84083" lon="-0.38253">
        <ele>106.19999694824</ele>
        <time>2017-06-11T09:20:37.000Z</time>
      </trkpt>
      <trkpt lat="48.84082" lon="-0.38251">
        <ele>106.59999847412</ele>
        <time>2017-06-11T09:20:38.000Z</time>
      </trkpt>
      <trkpt lat="48.84081" lon="-0.3825">
        <ele>107.19999694824</ele>
        <time>2017-06-11T09:20:39.000Z</time>
      </trkpt>
      <trkpt lat="48.84081" lon="-0.38248">
        <ele>107.59999847412</ele>
        <time>2017-06-11T09:20:40.000Z</time>
      </trkpt>
      <trkpt lat="48.8408" lon="-0.38247">
        <ele>108</ele>
        <time>2017-06-11T09:20:41.000Z</time>
      </trkpt>
      <trkpt lat="48.84076" lon="-0.3824">
        <ele>108</ele>
        <time>2017-06-11T09:20:45.000Z</time>
      </trkpt>
      <trkpt lat="48.8407" lon="-0.3823">
        <ele>108.40000152588</ele>
        <time>2017-06-11T09:20:50.000Z</time>
      </trkpt>
      <trkpt lat="48.84069" lon="-0.38228">
        <ele>108.80000305176</ele>
        <time>2017-06-11T09:20:51.000Z</time>
      </trkpt>
      <trkpt lat="48.84068" lon="-0.38226">
        <ele>109.59999847412</ele>
        <time>2017-06-11T09:20:52.000Z</time>
      </trkpt>
      <trkpt lat="48.84067" lon="-0.38224">
        <ele>110</ele>
        <time>2017-06-11T09:20:53.000Z</time>
      </trkpt>
      <trkpt lat="48.84061" lon="-0.3822">
        <ele>110</ele>
        <time>2017-06-11T09:20:59.000Z</time>
      </trkpt>
      <trkpt lat="48.84061" lon="-0.38219">
        <ele>110.40000152588</ele>
        <time>2017-06-11T09:21:00.000Z</time>
      </trkpt>
      <trkpt lat="48.84061" lon="-0.38219">
        <ele>111</ele>
        <time>2017-06-11T09:21:01.000Z</time>
      </trkpt>
      <trkpt lat="48.84061" lon="-0.38219">
        <ele>111.40000152588</ele>
        <time>2017-06-11T09:21:02.000Z</time>
      </trkpt>
      <trkpt lat="48.84061" lon="-0.38219">
        <ele>111.80000305176</ele>
        <time>2017-06-11T09:21:03.000Z</time>
      </trkpt>
      <trkpt lat="48.8406" lon="-0.38218">
        <ele>112.19999694824</ele>
        <time>2017-06-11T09:21:04.000Z</time>
      </trkpt>
      <trkpt lat="48.84057" lon="-0.38216">
        <ele>112.19999694824</ele>
        <time>2017-06-11T09:21:06.000Z</time>
      </trkpt>
      <trkpt lat="48.84055" lon="-0.38213">
        <ele>112.19999694824</ele>
        <time>2017-06-11T09:21:14.000Z</time>
      </trkpt>
      <trkpt lat="48.84054" lon="-0.38207">
        <ele>112.19999694824</ele>
        <time>2017-06-11T09:21:21.000Z</time>
      </trkpt>
      <trkpt lat="48.84053" lon="-0.38205">
        <ele>112.59999847412</ele>
        <time>2017-06-11T09:21:26.000Z</time>
      </trkpt>
      <trkpt lat="48.84053" lon="-0.38203">
        <ele>113</ele>
        <time>2017-06-11T09:21:27.000Z</time>
      </trkpt>
      <trkpt lat="48.84052" lon="-0.38201">
        <ele>113.40000152588</ele>
        <time>2017-06-11T09:21:28.000Z</time>
      </trkpt>
      <trkpt lat="48.84052" lon="-0.38199">
        <ele>113.80000305176</ele>
        <time>2017-06-11T09:21:29.000Z</time>
      </trkpt>
      <trkpt lat="48.84051" lon="-0.38198">
        <ele>114.19999694824</ele>
        <time>2017-06-11T09:21:30.000Z</time>
      </trkpt>
      <trkpt lat="48.84048" lon="-0.38192">
        <ele>114.19999694824</ele>
        <time>2017-06-11T09:21:34.000Z</time>
      </trkpt>
      <trkpt lat="48.84047" lon="-0.38189">
        <ele>114.59999847412</ele>
        <time>2017-06-11T09:21:36.000Z</time>
      </trkpt>
      <trkpt lat="48.84046" lon="-0.38189">
        <ele>115.19999694824</ele>
        <time>2017-06-11T09:21:37.000Z</time>
      </trkpt>
      <trkpt lat="48.84045" lon="-0.38187">
        <ele>115.59999847412</ele>
        <time>2017-06-11T09:21:38.000Z</time>
      </trkpt>
      <trkpt lat="48.84044" lon="-0.38185">
        <ele>116</ele>
        <time>2017-06-11T09:21:39.000Z</time>
      </trkpt>
      <trkpt lat="48.84043" lon="-0.38183">
        <ele>116.40000152588</ele>
        <time>2017-06-11T09:21:40.000Z</time>
      </trkpt>
      <trkpt lat="48.84042" lon="-0.38182">
        <ele>116.40000152588</ele>
        <time>2017-06-11T09:21:41.000Z</time>
      </trkpt>
      <trkpt lat="48.8404" lon="-0.38177">
        <ele>116.80000305176</ele>
        <time>2017-06-11T09:21:44.000Z</time>
      </trkpt>
      <trkpt lat="48.8404" lon="-0.38174">
        <ele>117.19999694824</ele>
        <time>2017-06-11T09:21:45.000Z</time>
      </trkpt>
      <trkpt lat="48.84039" lon="-0.38174">
        <ele>117.59999847412</ele>
        <time>2017-06-11T09:21:46.000Z</time>
      </trkpt>
      <trkpt lat="48.84038" lon="-0.38173">
        <ele>118</ele>
        <time>2017-06-11T09:21:47.000Z</time>
      </trkpt>
      <trkpt lat="48.84038" lon="-0.38172">
        <ele>118.40000152588</ele>
        <time>2017-06-11T09:21:48.000Z</time>
      </trkpt>
      <trkpt lat="48.84031" lon="-0.38157">
        <ele>118.80000305176</ele>
        <time>2017-06-11T09:21:53.000Z</time>
      </trkpt>
      <trkpt lat="48.84031" lon="-0.38155">
        <ele>119.19999694824</ele>
        <time>2017-06-11T09:21:54.000Z</time>
      </trkpt>
      <trkpt lat="48.84031" lon="-0.38152">
        <ele>119.59999847412</ele>
        <time>2017-06-11T09:21:55.000Z</time>
      </trkpt>
      <trkpt lat="48.8403" lon="-0.3815">
        <ele>120</ele>
        <time>2017-06-11T09:21:56.000Z</time>
      </trkpt>
      <trkpt lat="48.84029" lon="-0.38148">
        <ele>120.40000152588</ele>
        <time>2017-06-11T09:21:57.000Z</time>
      </trkpt>
      <trkpt lat="48.84028" lon="-0.38142">
        <ele>120.40000152588</ele>
        <time>2017-06-11T09:22:00.000Z</time>
      </trkpt>
      <trkpt lat="48.84025" lon="-0.38135">
        <ele>120.80000305176</ele>
        <time>2017-06-11T09:22:04.000Z</time>
      </trkpt>
      <trkpt lat="48.84025" lon="-0.38132">
        <ele>121.59999847412</ele>
        <time>2017-06-11T09:22:05.000Z</time>
      </trkpt>
      <trkpt lat="48.84024" lon="-0.3813">
        <ele>122</ele>
        <time>2017-06-11T09:22:06.000Z</time>
      </trkpt>
      <trkpt lat="48.84023" lon="-0.38128">
        <ele>122.40000152588</ele>
        <time>2017-06-11T09:22:07.000Z</time>
      </trkpt>
      <trkpt lat="48.84022" lon="-0.38125">
        <ele>122.40000152588</ele>
        <time>2017-06-11T09:22:09.000Z</time>
      </trkpt>
      <trkpt lat="48.84015" lon="-0.38107">
        <ele>122.80000305176</ele>
        <time>2017-06-11T09:22:16.000Z</time>
      </trkpt>
      <trkpt lat="48.84014" lon="-0.38104">
        <ele>123.19999694824</ele>
        <time>2017-06-11T09:22:17.000Z</time>
      </trkpt>
      <trkpt lat="48.84013" lon="-0.38101">
        <ele>123.59999847412</ele>
        <time>2017-06-11T09:22:18.000Z</time>
      </trkpt>
      <trkpt lat="48.84011" lon="-0.38098">
        <ele>124</ele>
        <time>2017-06-11T09:22:19.000Z</time>
      </trkpt>
      <trkpt lat="48.84011" lon="-0.38095">
        <ele>124.40000152588</ele>
        <time>2017-06-11T09:22:20.000Z</time>
      </trkpt>
      <trkpt lat="48.84006" lon="-0.38085">
        <ele>124.40000152588</ele>
        <time>2017-06-11T09:22:24.000Z</time>
      </trkpt>
      <trkpt lat="48.84005" lon="-0.38082">
        <ele>124.40000152588</ele>
        <time>2017-06-11T09:22:25.000Z</time>
      </trkpt>
      <trkpt lat="48.84" lon="-0.38071">
        <ele>124.80000305176</ele>
        <time>2017-06-11T09:22:29.000Z</time>
      </trkpt>
      <trkpt lat="48.83999" lon="-0.38069">
        <ele>125.59999847412</ele>
        <time>2017-06-11T09:22:30.000Z</time>
      </trkpt>
      <trkpt lat="48.83997" lon="-0.38067">
        <ele>126</ele>
        <time>2017-06-11T09:22:31.000Z</time>
      </trkpt>
      <trkpt lat="48.83995" lon="-0.38066">
        <ele>126.40000152588</ele>
        <time>2017-06-11T09:22:32.000Z</time>
      </trkpt>
      <trkpt lat="48.83987" lon="-0.38057">
        <ele>126.40000152588</ele>
        <time>2017-06-11T09:22:36.000Z</time>
      </trkpt>
      <trkpt lat="48.83984" lon="-0.38055">
        <ele>126.40000152588</ele>
        <time>2017-06-11T09:22:38.000Z</time>
      </trkpt>
      <trkpt lat="48.83983" lon="-0.38053">
        <ele>126.80000305176</ele>
        <time>2017-06-11T09:22:39.000Z</time>
      </trkpt>
      <trkpt lat="48.83981" lon="-0.38052">
        <ele>127.40000152588</ele>
        <time>2017-06-11T09:22:40.000Z</time>
      </trkpt>
      <trkpt lat="48.8398" lon="-0.3805">
        <ele>127.80000305176</ele>
        <time>2017-06-11T09:22:41.000Z</time>
      </trkpt>
      <trkpt lat="48.83979" lon="-0.38049">
        <ele>128.19999694824</ele>
        <time>2017-06-11T09:22:42.000Z</time>
      </trkpt>
      <trkpt lat="48.83978" lon="-0.38048">
        <ele>128.60000610352</ele>
        <time>2017-06-11T09:22:43.000Z</time>
      </trkpt>
      <trkpt lat="48.83969" lon="-0.3804">
        <ele>128.60000610352</ele>
        <time>2017-06-11T09:22:48.000Z</time>
      </trkpt>
      <trkpt lat="48.83965" lon="-0.38033">
        <ele>129</ele>
        <time>2017-06-11T09:22:51.000Z</time>
      </trkpt>
      <trkpt lat="48.83963" lon="-0.3803">
        <ele>129.39999389648</ele>
        <time>2017-06-11T09:22:52.000Z</time>
      </trkpt>
      <trkpt lat="48.83961" lon="-0.38028">
        <ele>129.80000305176</ele>
        <time>2017-06-11T09:22:53.000Z</time>
      </trkpt>
      <trkpt lat="48.83959" lon="-0.38025">
        <ele>130.60000610352</ele>
        <time>2017-06-11T09:22:54.000Z</time>
      </trkpt>
      <trkpt lat="48.83952" lon="-0.38017">
        <ele>130.60000610352</ele>
        <time>2017-06-11T09:22:58.000Z</time>
      </trkpt>
      <trkpt lat="48.83942" lon="-0.38004">
        <ele>130.60000610352</ele>
        <time>2017-06-11T09:23:04.000Z</time>
      </trkpt>
      <trkpt lat="48.83933" lon="-0.37994">
        <ele>131</ele>
        <time>2017-06-11T09:23:08.000Z</time>
      </trkpt>
      <trkpt lat="48.83931" lon="-0.37991">
        <ele>131.39999389648</ele>
        <time>2017-06-11T09:23:09.000Z</time>
      </trkpt>
      <trkpt lat="48.83929" lon="-0.37989">
        <ele>131.80000305176</ele>
        <time>2017-06-11T09:23:10.000Z</time>
      </trkpt>
      <trkpt lat="48.83927" lon="-0.37986">
        <ele>132.19999694824</ele>
        <time>2017-06-11T09:23:11.000Z</time>
      </trkpt>
      <trkpt lat="48.83926" lon="-0.37983">
        <ele>132.60000610352</ele>
        <time>2017-06-11T09:23:12.000Z</time>
      </trkpt>
      <trkpt lat="48.83916" lon="-0.3797">
        <ele>132.60000610352</ele>
        <time>2017-06-11T09:23:17.000Z</time>
      </trkpt>
      <trkpt lat="48.839" lon="-0.37951">
        <ele>132.60000610352</ele>
        <time>2017-06-11T09:23:24.000Z</time>
      </trkpt>
      <trkpt lat="48.83888" lon="-0.37936">
        <ele>133</ele>
        <time>2017-06-11T09:23:30.000Z</time>
      </trkpt>
      <trkpt lat="48.83887" lon="-0.37934">
        <ele>133.39999389648</ele>
        <time>2017-06-11T09:23:31.000Z</time>
      </trkpt>
      <trkpt lat="48.83885" lon="-0.3793">
        <ele>133.80000305176</ele>
        <time>2017-06-11T09:23:32.000Z</time>
      </trkpt>
      <trkpt lat="48.83883" lon="-0.37928">
        <ele>134.19999694824</ele>
        <time>2017-06-11T09:23:33.000Z</time>
      </trkpt>
      <trkpt lat="48.83881" lon="-0.37926">
        <ele>134.60000610352</ele>
        <time>2017-06-11T09:23:34.000Z</time>
      </trkpt>
      <trkpt lat="48.83876" lon="-0.37918">
        <ele>134.60000610352</ele>
        <time>2017-06-11T09:23:37.000Z</time>
      </trkpt>
      <trkpt lat="48.8386" lon="-0.37903">
        <ele>134.60000610352</ele>
        <time>2017-06-11T09:23:45.000Z</time>
      </trkpt>
      <trkpt lat="48.83854" lon="-0.37897">
        <ele>135.19999694824</ele>
        <time>2017-06-11T09:23:48.000Z</time>
      </trkpt>
      <trkpt lat="48.83852" lon="-0.37895">
        <ele>135.60000610352</ele>
        <time>2017-06-11T09:23:49.000Z</time>
      </trkpt>
      <trkpt lat="48.8385" lon="-0.37893">
        <ele>136</ele>
        <time>2017-06-11T09:23:50.000Z</time>
      </trkpt>
      <trkpt lat="48.83848" lon="-0.3789">
        <ele>136.39999389648</ele>
        <time>2017-06-11T09:23:51.000Z</time>
      </trkpt>
      <trkpt lat="48.83846" lon="-0.37887">
        <ele>136.80000305176</ele>
        <time>2017-06-11T09:23:52.000Z</time>
      </trkpt>
      <trkpt lat="48.83845" lon="-0.37884">
        <ele>136.80000305176</ele>
        <time>2017-06-11T09:23:53.000Z</time>
      </trkpt>
      <trkpt lat="48.83838" lon="-0.3787">
        <ele>136.80000305176</ele>
        <time>2017-06-11T09:23:57.000Z</time>
      </trkpt>
      <trkpt lat="48.83832" lon="-0.37869">
        <ele>136.80000305176</ele>
        <time>2017-06-11T09:24:00.000Z</time>
      </trkpt>
      <trkpt lat="48.8383" lon="-0.37871">
        <ele>136.80000305176</ele>
        <time>2017-06-11T09:24:01.000Z</time>
      </trkpt>
      <trkpt lat="48.83827" lon="-0.37875">
        <ele>136.80000305176</ele>
        <time>2017-06-11T09:24:03.000Z</time>
      </trkpt>
      <trkpt lat="48.83825" lon="-0.37882">
        <ele>136.80000305176</ele>
        <time>2017-06-11T09:24:06.000Z</time>
      </trkpt>
      <trkpt lat="48.83822" lon="-0.37886">
        <ele>136.80000305176</ele>
        <time>2017-06-11T09:24:08.000Z</time>
      </trkpt>
      <trkpt lat="48.83821" lon="-0.37888">
        <ele>136.80000305176</ele>
        <time>2017-06-11T09:24:09.000Z</time>
      </trkpt>
      <trkpt lat="48.8382" lon="-0.3789">
        <ele>137.19999694824</ele>
        <time>2017-06-11T09:24:10.000Z</time>
      </trkpt>
      <trkpt lat="48.8382" lon="-0.37891">
        <ele>137.60000610352</ele>
        <time>2017-06-11T09:24:11.000Z</time>
      </trkpt>
      <trkpt lat="48.8382" lon="-0.37894">
        <ele>138</ele>
        <time>2017-06-11T09:24:12.000Z</time>
      </trkpt>
      <trkpt lat="48.83819" lon="-0.37896">
        <ele>138.39999389648</ele>
        <time>2017-06-11T09:24:13.000Z</time>
      </trkpt>
      <trkpt lat="48.83818" lon="-0.37898">
        <ele>138.80000305176</ele>
        <time>2017-06-11T09:24:14.000Z</time>
      </trkpt>
      <trkpt lat="48.83809" lon="-0.37916">
        <ele>138.80000305176</ele>
        <time>2017-06-11T09:24:22.000Z</time>
      </trkpt>
      <trkpt lat="48.83807" lon="-0.37918">
        <ele>138.80000305176</ele>
        <time>2017-06-11T09:24:23.000Z</time>
      </trkpt>
      <trkpt lat="48.83805" lon="-0.37921">
        <ele>139.19999694824</ele>
        <time>2017-06-11T09:24:24.000Z</time>
      </trkpt>
      <trkpt lat="48.83804" lon="-0.37923">
        <ele>139.60000610352</ele>
        <time>2017-06-11T09:24:25.000Z</time>
      </trkpt>
      <trkpt lat="48.83803" lon="-0.37926">
        <ele>140</ele>
        <time>2017-06-11T09:24:26.000Z</time>
      </trkpt>
      <trkpt lat="48.83801" lon="-0.37928">
        <ele>140.39999389648</ele>
        <time>2017-06-11T09:24:27.000Z</time>
      </trkpt>
      <trkpt lat="48.838" lon="-0.37931">
        <ele>140.80000305176</ele>
        <time>2017-06-11T09:24:28.000Z</time>
      </trkpt>
      <trkpt lat="48.83793" lon="-0.37944">
        <ele>141.39999389648</ele>
        <time>2017-06-11T09:24:35.000Z</time>
      </trkpt>
      <trkpt lat="48.83791" lon="-0.37946">
        <ele>141.80000305176</ele>
        <time>2017-06-11T09:24:36.000Z</time>
      </trkpt>
      <trkpt lat="48.8379" lon="-0.37948">
        <ele>142.19999694824</ele>
        <time>2017-06-11T09:24:37.000Z</time>
      </trkpt>
      <trkpt lat="48.83789" lon="-0.3795">
        <ele>142.60000610352</ele>
        <time>2017-06-11T09:24:38.000Z</time>
      </trkpt>
      <trkpt lat="48.83788" lon="-0.37952">
        <ele>143</ele>
        <time>2017-06-11T09:24:39.000Z</time>
      </trkpt>
      <trkpt lat="48.83783" lon="-0.37958">
        <ele>143</ele>
        <time>2017-06-11T09:24:42.000Z</time>
      </trkpt>
      <trkpt lat="48.83778" lon="-0.37964">
        <ele>143.39999389648</ele>
        <time>2017-06-11T09:24:45.000Z</time>
      </trkpt>
      <trkpt lat="48.83777" lon="-0.37965">
        <ele>143.80000305176</ele>
        <time>2017-06-11T09:24:46.000Z</time>
      </trkpt>
      <trkpt lat="48.83776" lon="-0.37967">
        <ele>144.19999694824</ele>
        <time>2017-06-11T09:24:47.000Z</time>
      </trkpt>
      <trkpt lat="48.83775" lon="-0.37968">
        <ele>144.80000305176</ele>
        <time>2017-06-11T09:24:48.000Z</time>
      </trkpt>
      <trkpt lat="48.83773" lon="-0.3797">
        <ele>145.19999694824</ele>
        <time>2017-06-11T09:24:49.000Z</time>
      </trkpt>
      <trkpt lat="48.83772" lon="-0.37972">
        <ele>145.19999694824</ele>
        <time>2017-06-11T09:24:50.000Z</time>
      </trkpt>
      <trkpt lat="48.83763" lon="-0.37982">
        <ele>145.19999694824</ele>
        <time>2017-06-11T09:24:56.000Z</time>
      </trkpt>
      <trkpt lat="48.83761" lon="-0.37985">
        <ele>146</ele>
        <time>2017-06-11T09:24:58.000Z</time>
      </trkpt>
      <trkpt lat="48.83759" lon="-0.37987">
        <ele>146.39999389648</ele>
        <time>2017-06-11T09:24:59.000Z</time>
      </trkpt>
      <trkpt lat="48.83758" lon="-0.37988">
        <ele>146.80000305176</ele>
        <time>2017-06-11T09:25:00.000Z</time>
      </trkpt>
      <trkpt lat="48.83757" lon="-0.3799">
        <ele>147.19999694824</ele>
        <time>2017-06-11T09:25:01.000Z</time>
      </trkpt>
      <trkpt lat="48.83753" lon="-0.37995">
        <ele>147.19999694824</ele>
        <time>2017-06-11T09:25:04.000Z</time>
      </trkpt>
      <trkpt lat="48.8375" lon="-0.38">
        <ele>147.60000610352</ele>
        <time>2017-06-11T09:25:06.000Z</time>
      </trkpt>
      <trkpt lat="48.83748" lon="-0.38002">
        <ele>148</ele>
        <time>2017-06-11T09:25:07.000Z</time>
      </trkpt>
      <trkpt lat="48.83747" lon="-0.38004">
        <ele>148.39999389648</ele>
        <time>2017-06-11T09:25:08.000Z</time>
      </trkpt>
      <trkpt lat="48.83745" lon="-0.38006">
        <ele>148.80000305176</ele>
        <time>2017-06-11T09:25:09.000Z</time>
      </trkpt>
      <trkpt lat="48.83744" lon="-0.38008">
        <ele>149.19999694824</ele>
        <time>2017-06-11T09:25:10.000Z</time>
      </trkpt>
      <trkpt lat="48.83734" lon="-0.38023">
        <ele>149.60000610352</ele>
        <time>2017-06-11T09:25:17.000Z</time>
      </trkpt>
      <trkpt lat="48.83733" lon="-0.38026">
        <ele>150</ele>
        <time>2017-06-11T09:25:18.000Z</time>
      </trkpt>
      <trkpt lat="48.83731" lon="-0.38028">
        <ele>150.60000610352</ele>
        <time>2017-06-11T09:25:19.000Z</time>
      </trkpt>
      <trkpt lat="48.8373" lon="-0.3803">
        <ele>151</ele>
        <time>2017-06-11T09:25:20.000Z</time>
      </trkpt>
      <trkpt lat="48.83729" lon="-0.38032">
        <ele>151.39999389648</ele>
        <time>2017-06-11T09:25:21.000Z</time>
      </trkpt>
      <trkpt lat="48.83726" lon="-0.38039">
        <ele>151.39999389648</ele>
        <time>2017-06-11T09:25:24.000Z</time>
      </trkpt>
      <trkpt lat="48.8372" lon="-0.38047">
        <ele>151.80000305176</ele>
        <time>2017-06-11T09:25:28.000Z</time>
      </trkpt>
      <trkpt lat="48.83719" lon="-0.3805">
        <ele>152.19999694824</ele>
        <time>2017-06-11T09:25:29.000Z</time>
      </trkpt>
      <trkpt lat="48.83718" lon="-0.38052">
        <ele>152.60000610352</ele>
        <time>2017-06-11T09:25:30.000Z</time>
      </trkpt>
      <trkpt lat="48.83717" lon="-0.38055">
        <ele>153</ele>
        <time>2017-06-11T09:25:31.000Z</time>
      </trkpt>
      <trkpt lat="48.83716" lon="-0.38057">
        <ele>153.39999389648</ele>
        <time>2017-06-11T09:25:32.000Z</time>
      </trkpt>
      <trkpt lat="48.83708" lon="-0.38068">
        <ele>153.39999389648</ele>
        <time>2017-06-11T09:25:37.000Z</time>
      </trkpt>
      <trkpt lat="48.83705" lon="-0.38076">
        <ele>153.80000305176</ele>
        <time>2017-06-11T09:25:40.000Z</time>
      </trkpt>
      <trkpt lat="48.83704" lon="-0.38079">
        <ele>154.19999694824</ele>
        <time>2017-06-11T09:25:41.000Z</time>
      </trkpt>
      <trkpt lat="48.83702" lon="-0.38081">
        <ele>154.60000610352</ele>
        <time>2017-06-11T09:25:42.000Z</time>
      </trkpt>
      <trkpt lat="48.83701" lon="-0.38083">
        <ele>155</ele>
        <time>2017-06-11T09:25:43.000Z</time>
      </trkpt>
      <trkpt lat="48.83699" lon="-0.38086">
        <ele>155.39999389648</ele>
        <time>2017-06-11T09:25:44.000Z</time>
      </trkpt>
      <trkpt lat="48.83696" lon="-0.3809">
        <ele>155.39999389648</ele>
        <time>2017-06-11T09:25:46.000Z</time>
      </trkpt>
      <trkpt lat="48.83685" lon="-0.38106">
        <ele>155.39999389648</ele>
        <time>2017-06-11T09:25:52.000Z</time>
      </trkpt>
      <trkpt lat="48.83681" lon="-0.38111">
        <ele>155.80000305176</ele>
        <time>2017-06-11T09:25:54.000Z</time>
      </trkpt>
      <trkpt lat="48.83679" lon="-0.38113">
        <ele>156.19999694824</ele>
        <time>2017-06-11T09:25:55.000Z</time>
      </trkpt>
      <trkpt lat="48.83677" lon="-0.38115">
        <ele>156.60000610352</ele>
        <time>2017-06-11T09:25:56.000Z</time>
      </trkpt>
      <trkpt lat="48.83674" lon="-0.38117">
        <ele>157</ele>
        <time>2017-06-11T09:25:57.000Z</time>
      </trkpt>
      <trkpt lat="48.83672" lon="-0.3812">
        <ele>157.39999389648</ele>
        <time>2017-06-11T09:25:58.000Z</time>
      </trkpt>
      <trkpt lat="48.83657" lon="-0.38132">
        <ele>157.39999389648</ele>
        <time>2017-06-11T09:26:04.000Z</time>
      </trkpt>
      <trkpt lat="48.83647" lon="-0.38139">
        <ele>157.80000305176</ele>
        <time>2017-06-11T09:26:08.000Z</time>
      </trkpt>
      <trkpt lat="48.83644" lon="-0.38141">
        <ele>158.19999694824</ele>
        <time>2017-06-11T09:26:09.000Z</time>
      </trkpt>
      <trkpt lat="48.8364" lon="-0.38142">
        <ele>158.60000610352</ele>
        <time>2017-06-11T09:26:10.000Z</time>
      </trkpt>
      <trkpt lat="48.83637" lon="-0.38144">
        <ele>159</ele>
        <time>2017-06-11T09:26:11.000Z</time>
      </trkpt>
      <trkpt lat="48.83634" lon="-0.38146">
        <ele>159.60000610352</ele>
        <time>2017-06-11T09:26:12.000Z</time>
      </trkpt>
      <trkpt lat="48.83611" lon="-0.38157">
        <ele>159.60000610352</ele>
        <time>2017-06-11T09:26:19.000Z</time>
      </trkpt>
      <trkpt lat="48.836" lon="-0.38162">
        <ele>159.60000610352</ele>
        <time>2017-06-11T09:26:22.000Z</time>
      </trkpt>
      <trkpt lat="48.83584" lon="-0.38169">
        <ele>159.60000610352</ele>
        <time>2017-06-11T09:26:26.000Z</time>
      </trkpt>
      <trkpt lat="48.83557" lon="-0.38183">
        <ele>159.60000610352</ele>
        <time>2017-06-11T09:26:33.000Z</time>
      </trkpt>
      <trkpt lat="48.83547" lon="-0.38189">
        <ele>160</ele>
        <time>2017-06-11T09:26:36.000Z</time>
      </trkpt>
      <trkpt lat="48.83543" lon="-0.38191">
        <ele>160.80000305176</ele>
        <time>2017-06-11T09:26:37.000Z</time>
      </trkpt>
      <trkpt lat="48.83541" lon="-0.38194">
        <ele>161.19999694824</ele>
        <time>2017-06-11T09:26:38.000Z</time>
      </trkpt>
      <trkpt lat="48.83537" lon="-0.38197">
        <ele>161.60000610352</ele>
        <time>2017-06-11T09:26:39.000Z</time>
      </trkpt>
      <trkpt lat="48.83531" lon="-0.38202">
        <ele>161.60000610352</ele>
        <time>2017-06-11T09:26:41.000Z</time>
      </trkpt>
      <trkpt lat="48.83514" lon="-0.38226">
        <ele>161.60000610352</ele>
        <time>2017-06-11T09:26:48.000Z</time>
      </trkpt>
      <trkpt lat="48.83502" lon="-0.38262">
        <ele>161.60000610352</ele>
        <time>2017-06-11T09:26:56.000Z</time>
      </trkpt>
      <trkpt lat="48.83493" lon="-0.38298">
        <ele>161.60000610352</ele>
        <time>2017-06-11T09:27:04.000Z</time>
      </trkpt>
      <trkpt lat="48.83485" lon="-0.38333">
        <ele>161.60000610352</ele>
        <time>2017-06-11T09:27:12.000Z</time>
      </trkpt>
      <trkpt lat="48.83476" lon="-0.38364">
        <ele>161.60000610352</ele>
        <time>2017-06-11T09:27:19.000Z</time>
      </trkpt>
      <trkpt lat="48.83464" lon="-0.38403">
        <ele>161.60000610352</ele>
        <time>2017-06-11T09:27:26.000Z</time>
      </trkpt>
      <trkpt lat="48.83446" lon="-0.38449">
        <ele>161.60000610352</ele>
        <time>2017-06-11T09:27:34.000Z</time>
      </trkpt>
      <trkpt lat="48.83424" lon="-0.38491">
        <ele>161.60000610352</ele>
        <time>2017-06-11T09:27:40.000Z</time>
      </trkpt>
      <trkpt lat="48.83405" lon="-0.38519">
        <ele>161.19999694824</ele>
        <time>2017-06-11T09:27:44.000Z</time>
      </trkpt>
      <trkpt lat="48.83401" lon="-0.38526">
        <ele>160.80000305176</ele>
        <time>2017-06-11T09:27:45.000Z</time>
      </trkpt>
      <trkpt lat="48.83395" lon="-0.38533">
        <ele>160.39999389648</ele>
        <time>2017-06-11T09:27:46.000Z</time>
      </trkpt>
      <trkpt lat="48.8339" lon="-0.38538">
        <ele>160</ele>
        <time>2017-06-11T09:27:47.000Z</time>
      </trkpt>
      <trkpt lat="48.83384" lon="-0.38544">
        <ele>159.60000610352</ele>
        <time>2017-06-11T09:27:48.000Z</time>
      </trkpt>
      <trkpt lat="48.83372" lon="-0.38556">
        <ele>159.19999694824</ele>
        <time>2017-06-11T09:27:50.000Z</time>
      </trkpt>
      <trkpt lat="48.83367" lon="-0.38564">
        <ele>158.39999389648</ele>
        <time>2017-06-11T09:27:51.000Z</time>
      </trkpt>
      <trkpt lat="48.83362" lon="-0.38572">
        <ele>158</ele>
        <time>2017-06-11T09:27:52.000Z</time>
      </trkpt>
      <trkpt lat="48.83356" lon="-0.38578">
        <ele>157.39999389648</ele>
        <time>2017-06-11T09:27:53.000Z</time>
      </trkpt>
      <trkpt lat="48.83351" lon="-0.38584">
        <ele>156.80000305176</ele>
        <time>2017-06-11T09:27:54.000Z</time>
      </trkpt>
      <trkpt lat="48.83347" lon="-0.3859">
        <ele>156.19999694824</ele>
        <time>2017-06-11T09:27:55.000Z</time>
      </trkpt>
      <trkpt lat="48.83341" lon="-0.38597">
        <ele>155.39999389648</ele>
        <time>2017-06-11T09:27:56.000Z</time>
      </trkpt>
      <trkpt lat="48.83337" lon="-0.38601">
        <ele>154.80000305176</ele>
        <time>2017-06-11T09:27:57.000Z</time>
      </trkpt>
      <trkpt lat="48.83332" lon="-0.38603">
        <ele>154.19999694824</ele>
        <time>2017-06-11T09:27:58.000Z</time>
      </trkpt>
      <trkpt lat="48.83328" lon="-0.38602">
        <ele>153.39999389648</ele>
        <time>2017-06-11T09:27:59.000Z</time>
      </trkpt>
      <trkpt lat="48.83324" lon="-0.38599">
        <ele>152.80000305176</ele>
        <time>2017-06-11T09:28:00.000Z</time>
      </trkpt>
      <trkpt lat="48.8332" lon="-0.38595">
        <ele>152.80000305176</ele>
        <time>2017-06-11T09:28:01.000Z</time>
      </trkpt>
      <trkpt lat="48.83317" lon="-0.3859">
        <ele>152.39999389648</ele>
        <time>2017-06-11T09:28:02.000Z</time>
      </trkpt>
      <trkpt lat="48.83314" lon="-0.38586">
        <ele>152</ele>
        <time>2017-06-11T09:28:03.000Z</time>
      </trkpt>
      <trkpt lat="48.83312" lon="-0.38581">
        <ele>151.60000610352</ele>
        <time>2017-06-11T09:28:04.000Z</time>
      </trkpt>
      <trkpt lat="48.8331" lon="-0.38577">
        <ele>151.19999694824</ele>
        <time>2017-06-11T09:28:05.000Z</time>
      </trkpt>
      <trkpt lat="48.83308" lon="-0.38572">
        <ele>150.80000305176</ele>
        <time>2017-06-11T09:28:06.000Z</time>
      </trkpt>
      <trkpt lat="48.83298" lon="-0.38552">
        <ele>150.80000305176</ele>
        <time>2017-06-11T09:28:11.000Z</time>
      </trkpt>
      <trkpt lat="48.83292" lon="-0.38538">
        <ele>151.19999694824</ele>
        <time>2017-06-11T09:28:14.000Z</time>
      </trkpt>
      <trkpt lat="48.8329" lon="-0.38533">
        <ele>151.60000610352</ele>
        <time>2017-06-11T09:28:15.000Z</time>
      </trkpt>
      <trkpt lat="48.83288" lon="-0.38529">
        <ele>152</ele>
        <time>2017-06-11T09:28:16.000Z</time>
      </trkpt>
      <trkpt lat="48.83286" lon="-0.38524">
        <ele>152.39999389648</ele>
        <time>2017-06-11T09:28:17.000Z</time>
      </trkpt>
      <trkpt lat="48.83284" lon="-0.38519">
        <ele>152.80000305176</ele>
        <time>2017-06-11T09:28:18.000Z</time>
      </trkpt>
      <trkpt lat="48.83282" lon="-0.38514">
        <ele>152.80000305176</ele>
        <time>2017-06-11T09:28:19.000Z</time>
      </trkpt>
      <trkpt lat="48.83267" lon="-0.38471">
        <ele>152.80000305176</ele>
        <time>2017-06-11T09:28:27.000Z</time>
      </trkpt>
      <trkpt lat="48.83249" lon="-0.3843">
        <ele>152.80000305176</ele>
        <time>2017-06-11T09:28:34.000Z</time>
      </trkpt>
      <trkpt lat="48.83243" lon="-0.38413">
        <ele>153.19999694824</ele>
        <time>2017-06-11T09:28:37.000Z</time>
      </trkpt>
      <trkpt lat="48.8324" lon="-0.38407">
        <ele>153.60000610352</ele>
        <time>2017-06-11T09:28:38.000Z</time>
      </trkpt>
      <trkpt lat="48.83238" lon="-0.38402">
        <ele>154</ele>
        <time>2017-06-11T09:28:39.000Z</time>
      </trkpt>
      <trkpt lat="48.83236" lon="-0.38396">
        <ele>154.39999389648</ele>
        <time>2017-06-11T09:28:40.000Z</time>
      </trkpt>
      <trkpt lat="48.83234" lon="-0.38391">
        <ele>155</ele>
        <time>2017-06-11T09:28:41.000Z</time>
      </trkpt>
      <trkpt lat="48.8323" lon="-0.38381">
        <ele>155</ele>
        <time>2017-06-11T09:28:43.000Z</time>
      </trkpt>
      <trkpt lat="48.83216" lon="-0.3835">
        <ele>155</ele>
        <time>2017-06-11T09:28:48.000Z</time>
      </trkpt>
      <trkpt lat="48.83205" lon="-0.38324">
        <ele>154.39999389648</ele>
        <time>2017-06-11T09:28:52.000Z</time>
      </trkpt>
      <trkpt lat="48.83201" lon="-0.38317">
        <ele>154</ele>
        <time>2017-06-11T09:28:53.000Z</time>
      </trkpt>
      <trkpt lat="48.83198" lon="-0.3831">
        <ele>153.39999389648</ele>
        <time>2017-06-11T09:28:54.000Z</time>
      </trkpt>
      <trkpt lat="48.83194" lon="-0.38304">
        <ele>153</ele>
        <time>2017-06-11T09:28:55.000Z</time>
      </trkpt>
      <trkpt lat="48.83191" lon="-0.38298">
        <ele>152.39999389648</ele>
        <time>2017-06-11T09:28:56.000Z</time>
      </trkpt>
      <trkpt lat="48.83185" lon="-0.38287">
        <ele>151.60000610352</ele>
        <time>2017-06-11T09:28:58.000Z</time>
      </trkpt>
      <trkpt lat="48.83182" lon="-0.38281">
        <ele>151.19999694824</ele>
        <time>2017-06-11T09:28:59.000Z</time>
      </trkpt>
      <trkpt lat="48.83178" lon="-0.38275">
        <ele>150.80000305176</ele>
        <time>2017-06-11T09:29:00.000Z</time>
      </trkpt>
      <trkpt lat="48.83174" lon="-0.38269">
        <ele>150.19999694824</ele>
        <time>2017-06-11T09:29:01.000Z</time>
      </trkpt>
      <trkpt lat="48.83168" lon="-0.38259">
        <ele>149.80000305176</ele>
        <time>2017-06-11T09:29:03.000Z</time>
      </trkpt>
      <trkpt lat="48.83164" lon="-0.38253">
        <ele>149.39999389648</ele>
        <time>2017-06-11T09:29:04.000Z</time>
      </trkpt>
      <trkpt lat="48.83161" lon="-0.38248">
        <ele>149</ele>
        <time>2017-06-11T09:29:05.000Z</time>
      </trkpt>
      <trkpt lat="48.83158" lon="-0.38242">
        <ele>148.60000610352</ele>
        <time>2017-06-11T09:29:06.000Z</time>
      </trkpt>
      <trkpt lat="48.83155" lon="-0.38236">
        <ele>148.19999694824</ele>
        <time>2017-06-11T09:29:07.000Z</time>
      </trkpt>
      <trkpt lat="48.83146" lon="-0.3822">
        <ele>148.19999694824</ele>
        <time>2017-06-11T09:29:10.000Z</time>
      </trkpt>
      <trkpt lat="48.83132" lon="-0.382">
        <ele>148.19999694824</ele>
        <time>2017-06-11T09:29:15.000Z</time>
      </trkpt>
      <trkpt lat="48.83115" lon="-0.38176">
        <ele>148.19999694824</ele>
        <time>2017-06-11T09:29:22.000Z</time>
      </trkpt>
      <trkpt lat="48.83102" lon="-0.38162">
        <ele>148.60000610352</ele>
        <time>2017-06-11T09:29:27.000Z</time>
      </trkpt>
      <trkpt lat="48.831" lon="-0.38159">
        <ele>149</ele>
        <time>2017-06-11T09:29:28.000Z</time>
      </trkpt>
      <trkpt lat="48.83097" lon="-0.38156">
        <ele>149.39999389648</ele>
        <time>2017-06-11T09:29:29.000Z</time>
      </trkpt>
      <trkpt lat="48.83095" lon="-0.38153">
        <ele>149.80000305176</ele>
        <time>2017-06-11T09:29:30.000Z</time>
      </trkpt>
      <trkpt lat="48.83092" lon="-0.38151">
        <ele>150.19999694824</ele>
        <time>2017-06-11T09:29:31.000Z</time>
      </trkpt>
      <trkpt lat="48.83076" lon="-0.38139">
        <ele>150.19999694824</ele>
        <time>2017-06-11T09:29:37.000Z</time>
      </trkpt>
      <trkpt lat="48.83059" lon="-0.38132">
        <ele>150.80000305176</ele>
        <time>2017-06-11T09:29:43.000Z</time>
      </trkpt>
      <trkpt lat="48.83056" lon="-0.38132">
        <ele>151.19999694824</ele>
        <time>2017-06-11T09:29:44.000Z</time>
      </trkpt>
      <trkpt lat="48.83053" lon="-0.38131">
        <ele>151.60000610352</ele>
        <time>2017-06-11T09:29:45.000Z</time>
      </trkpt>
      <trkpt lat="48.8305" lon="-0.3813">
        <ele>152</ele>
        <time>2017-06-11T09:29:46.000Z</time>
      </trkpt>
      <trkpt lat="48.83047" lon="-0.3813">
        <ele>152.39999389648</ele>
        <time>2017-06-11T09:29:47.000Z</time>
      </trkpt>
      <trkpt lat="48.83036" lon="-0.38128">
        <ele>152.39999389648</ele>
        <time>2017-06-11T09:29:51.000Z</time>
      </trkpt>
      <trkpt lat="48.83023" lon="-0.38129">
        <ele>152.80000305176</ele>
        <time>2017-06-11T09:29:56.000Z</time>
      </trkpt>
      <trkpt lat="48.83021" lon="-0.38129">
        <ele>153.19999694824</ele>
        <time>2017-06-11T09:29:57.000Z</time>
      </trkpt>
      <trkpt lat="48.83018" lon="-0.38129">
        <ele>153.60000610352</ele>
        <time>2017-06-11T09:29:58.000Z</time>
      </trkpt>
      <trkpt lat="48.83016" lon="-0.38129">
        <ele>154</ele>
        <time>2017-06-11T09:29:59.000Z</time>
      </trkpt>
      <trkpt lat="48.83013" lon="-0.38128">
        <ele>154.39999389648</ele>
        <time>2017-06-11T09:30:00.000Z</time>
      </trkpt>
      <trkpt lat="48.82991" lon="-0.38129">
        <ele>154.39999389648</ele>
        <time>2017-06-11T09:30:07.000Z</time>
      </trkpt>
      <trkpt lat="48.82988" lon="-0.38128">
        <ele>155</ele>
        <time>2017-06-11T09:30:08.000Z</time>
      </trkpt>
      <trkpt lat="48.82985" lon="-0.38128">
        <ele>155.39999389648</ele>
        <time>2017-06-11T09:30:09.000Z</time>
      </trkpt>
      <trkpt lat="48.82982" lon="-0.38128">
        <ele>155.80000305176</ele>
        <time>2017-06-11T09:30:10.000Z</time>
      </trkpt>
      <trkpt lat="48.82979" lon="-0.38127">
        <ele>156.19999694824</ele>
        <time>2017-06-11T09:30:11.000Z</time>
      </trkpt>
      <trkpt lat="48.82976" lon="-0.38127">
        <ele>156.60000610352</ele>
        <time>2017-06-11T09:30:12.000Z</time>
      </trkpt>
      <trkpt lat="48.82971" lon="-0.38126">
        <ele>156.60000610352</ele>
        <time>2017-06-11T09:30:14.000Z</time>
      </trkpt>
      <trkpt lat="48.82951" lon="-0.38119">
        <ele>156.60000610352</ele>
        <time>2017-06-11T09:30:21.000Z</time>
      </trkpt>
      <trkpt lat="48.82948" lon="-0.38119">
        <ele>157</ele>
        <time>2017-06-11T09:30:23.000Z</time>
      </trkpt>
      <trkpt lat="48.82946" lon="-0.38121">
        <ele>157.39999389648</ele>
        <time>2017-06-11T09:30:24.000Z</time>
      </trkpt>
      <trkpt lat="48.82945" lon="-0.38123">
        <ele>157.80000305176</ele>
        <time>2017-06-11T09:30:25.000Z</time>
      </trkpt>
      <trkpt lat="48.82943" lon="-0.38126">
        <ele>158.19999694824</ele>
        <time>2017-06-11T09:30:26.000Z</time>
      </trkpt>
      <trkpt lat="48.82942" lon="-0.3813">
        <ele>158.60000610352</ele>
        <time>2017-06-11T09:30:27.000Z</time>
      </trkpt>
      <trkpt lat="48.82936" lon="-0.38149">
        <ele>158.60000610352</ele>
        <time>2017-06-11T09:30:31.000Z</time>
      </trkpt>
      <trkpt lat="48.82935" lon="-0.38175">
        <ele>158.60000610352</ele>
        <time>2017-06-11T09:30:35.000Z</time>
      </trkpt>
      <trkpt lat="48.82926" lon="-0.38184">
        <ele>158.60000610352</ele>
        <time>2017-06-11T09:30:38.000Z</time>
      </trkpt>
      <trkpt lat="48.82923" lon="-0.38187">
        <ele>158.60000610352</ele>
        <time>2017-06-11T09:30:39.000Z</time>
      </trkpt>
      <trkpt lat="48.82917" lon="-0.3819">
        <ele>158.60000610352</ele>
        <time>2017-06-11T09:30:43.000Z</time>
      </trkpt>
      <trkpt lat="48.82916" lon="-0.3819">
        <ele>158.60000610352</ele>
        <time>2017-06-11T09:30:47.000Z</time>
      </trkpt>
      <trkpt lat="48.82916" lon="-0.38188">
        <ele>158.60000610352</ele>
        <time>2017-06-11T09:30:49.000Z</time>
      </trkpt>
      <trkpt lat="48.82916" lon="-0.38187">
        <ele>158.60000610352</ele>
        <time>2017-06-11T09:30:52.000Z</time>
      </trkpt>
      <trkpt lat="48.82919" lon="-0.38185">
        <ele>158.60000610352</ele>
        <time>2017-06-11T09:30:54.000Z</time>
      </trkpt>
      <trkpt lat="48.82927" lon="-0.38174">
        <ele>158.60000610352</ele>
        <time>2017-06-11T09:30:58.000Z</time>
      </trkpt>
      <trkpt lat="48.82923" lon="-0.38158">
        <ele>158.60000610352</ele>
        <time>2017-06-11T09:31:02.000Z</time>
      </trkpt>
      <trkpt lat="48.82912" lon="-0.38123">
        <ele>158.60000610352</ele>
        <time>2017-06-11T09:31:10.000Z</time>
      </trkpt>
      <trkpt lat="48.82901" lon="-0.38103">
        <ele>158.60000610352</ele>
        <time>2017-06-11T09:31:16.000Z</time>
      </trkpt>
      <trkpt lat="48.82895" lon="-0.38089">
        <ele>158.60000610352</ele>
        <time>2017-06-11T09:31:21.000Z</time>
      </trkpt>
      <trkpt lat="48.82892" lon="-0.38083">
        <ele>158.60000610352</ele>
        <time>2017-06-11T09:31:25.000Z</time>
      </trkpt>
      <trkpt lat="48.82892" lon="-0.38084">
        <ele>158.60000610352</ele>
        <time>2017-06-11T09:31:26.000Z</time>
      </trkpt>
      <trkpt lat="48.8289" lon="-0.3809">
        <ele>158.60000610352</ele>
        <time>2017-06-11T09:31:31.000Z</time>
      </trkpt>
      <trkpt lat="48.82879" lon="-0.38095">
        <ele>158.60000610352</ele>
        <time>2017-06-11T09:31:36.000Z</time>
      </trkpt>
      <trkpt lat="48.82877" lon="-0.38098">
        <ele>158.60000610352</ele>
        <time>2017-06-11T09:31:37.000Z</time>
      </trkpt>
      <trkpt lat="48.82873" lon="-0.38104">
        <ele>158.60000610352</ele>
        <time>2017-06-11T09:31:41.000Z</time>
      </trkpt>
      <trkpt lat="48.82872" lon="-0.38104">
        <ele>158.60000610352</ele>
        <time>2017-06-11T09:31:46.000Z</time>
      </trkpt>
      <trkpt lat="48.82871" lon="-0.38104">
        <ele>158.60000610352</ele>
        <time>2017-06-11T09:31:54.000Z</time>
      </trkpt>
      <trkpt lat="48.82871" lon="-0.38102">
        <ele>158.60000610352</ele>
        <time>2017-06-11T09:31:57.000Z</time>
      </trkpt>
      <trkpt lat="48.8287" lon="-0.381">
        <ele>158.60000610352</ele>
        <time>2017-06-11T09:31:58.000Z</time>
      </trkpt>
      <trkpt lat="48.8287" lon="-0.38098">
        <ele>158.60000610352</ele>
        <time>2017-06-11T09:32:03.000Z</time>
      </trkpt>
      <trkpt lat="48.82866" lon="-0.38089">
        <ele>158.60000610352</ele>
        <time>2017-06-11T09:32:06.000Z</time>
      </trkpt>
      <trkpt lat="48.82862" lon="-0.38081">
        <ele>159</ele>
        <time>2017-06-11T09:32:08.000Z</time>
      </trkpt>
      <trkpt lat="48.8286" lon="-0.38078">
        <ele>159.39999389648</ele>
        <time>2017-06-11T09:32:09.000Z</time>
      </trkpt>
      <trkpt lat="48.82858" lon="-0.38075">
        <ele>160</ele>
        <time>2017-06-11T09:32:10.000Z</time>
      </trkpt>
      <trkpt lat="48.82856" lon="-0.38072">
        <ele>160.39999389648</ele>
        <time>2017-06-11T09:32:11.000Z</time>
      </trkpt>
      <trkpt lat="48.82854" lon="-0.3807">
        <ele>160.80000305176</ele>
        <time>2017-06-11T09:32:12.000Z</time>
      </trkpt>
      <trkpt lat="48.82852" lon="-0.38068">
        <ele>160.80000305176</ele>
        <time>2017-06-11T09:32:13.000Z</time>
      </trkpt>
      <trkpt lat="48.8284" lon="-0.38057">
        <ele>160.80000305176</ele>
        <time>2017-06-11T09:32:19.000Z</time>
      </trkpt>
      <trkpt lat="48.82839" lon="-0.38054">
        <ele>160.80000305176</ele>
        <time>2017-06-11T09:32:20.000Z</time>
      </trkpt>
      <trkpt lat="48.82837" lon="-0.38046">
        <ele>160.80000305176</ele>
        <time>2017-06-11T09:32:23.000Z</time>
      </trkpt>
      <trkpt lat="48.82838" lon="-0.38036">
        <ele>160.80000305176</ele>
        <time>2017-06-11T09:32:26.000Z</time>
      </trkpt>
      <trkpt lat="48.82839" lon="-0.38027">
        <ele>160.80000305176</ele>
        <time>2017-06-11T09:32:28.000Z</time>
      </trkpt>
      <trkpt lat="48.8284" lon="-0.38015">
        <ele>160.80000305176</ele>
        <time>2017-06-11T09:32:32.000Z</time>
      </trkpt>
      <trkpt lat="48.82838" lon="-0.38012">
        <ele>160.80000305176</ele>
        <time>2017-06-11T09:32:33.000Z</time>
      </trkpt>
      <trkpt lat="48.82833" lon="-0.38006">
        <ele>160.80000305176</ele>
        <time>2017-06-11T09:32:36.000Z</time>
      </trkpt>
      <trkpt lat="48.82828" lon="-0.38">
        <ele>160.80000305176</ele>
        <time>2017-06-11T09:32:39.000Z</time>
      </trkpt>
      <trkpt lat="48.82818" lon="-0.37986">
        <ele>160.80000305176</ele>
        <time>2017-06-11T09:32:44.000Z</time>
      </trkpt>
      <trkpt lat="48.82815" lon="-0.3798">
        <ele>160.80000305176</ele>
        <time>2017-06-11T09:32:46.000Z</time>
      </trkpt>
      <trkpt lat="48.82816" lon="-0.37974">
        <ele>160.80000305176</ele>
        <time>2017-06-11T09:32:48.000Z</time>
      </trkpt>
      <trkpt lat="48.82817" lon="-0.37973">
        <ele>161.19999694824</ele>
        <time>2017-06-11T09:32:50.000Z</time>
      </trkpt>
      <trkpt lat="48.82817" lon="-0.37973">
        <ele>161.60000610352</ele>
        <time>2017-06-11T09:32:51.000Z</time>
      </trkpt>
      <trkpt lat="48.82817" lon="-0.37973">
        <ele>162</ele>
        <time>2017-06-11T09:32:52.000Z</time>
      </trkpt>
      <trkpt lat="48.82816" lon="-0.37973">
        <ele>162.39999389648</ele>
        <time>2017-06-11T09:32:53.000Z</time>
      </trkpt>
      <trkpt lat="48.82816" lon="-0.37973">
        <ele>162.80000305176</ele>
        <time>2017-06-11T09:32:54.000Z</time>
      </trkpt>
      <trkpt lat="48.82816" lon="-0.37973">
        <ele>162.80000305176</ele>
        <time>2017-06-11T09:33:09.000Z</time>
      </trkpt>
      <trkpt lat="48.82816" lon="-0.37973">
        <ele>162.80000305176</ele>
        <time>2017-06-11T09:33:19.000Z</time>
      </trkpt>
      <trkpt lat="48.8282" lon="-0.37972">
        <ele>95.199996948242</ele>
        <time>2017-06-11T10:14:09.000Z</time>
      </trkpt>
      <trkpt lat="48.8282" lon="-0.37971">
        <ele>97</ele>
        <time>2017-06-11T10:14:10.000Z</time>
      </trkpt>
      <trkpt lat="48.82821" lon="-0.38106">
        <ele>163.39999389648</ele>
        <time>2017-06-11T10:18:47.000Z</time>
      </trkpt>
      <trkpt lat="48.82823" lon="-0.381">
        <ele>163.39999389648</ele>
        <time>2017-06-11T10:18:51.000Z</time>
      </trkpt>
      <trkpt lat="48.82825" lon="-0.38084">
        <ele>163.39999389648</ele>
        <time>2017-06-11T10:18:55.000Z</time>
      </trkpt>
      <trkpt lat="48.82832" lon="-0.38068">
        <ele>163.39999389648</ele>
        <time>2017-06-11T10:19:00.000Z</time>
      </trkpt>
      <trkpt lat="48.82835" lon="-0.38053">
        <ele>163.39999389648</ele>
        <time>2017-06-11T10:19:05.000Z</time>
      </trkpt>
      <trkpt lat="48.82834" lon="-0.38029">
        <ele>163.39999389648</ele>
        <time>2017-06-11T10:19:10.000Z</time>
      </trkpt>
      <trkpt lat="48.82832" lon="-0.38024">
        <ele>163.39999389648</ele>
        <time>2017-06-11T10:19:11.000Z</time>
      </trkpt>
      <trkpt lat="48.82825" lon="-0.38011">
        <ele>163.39999389648</ele>
        <time>2017-06-11T10:19:14.000Z</time>
      </trkpt>
      <trkpt lat="48.82821" lon="-0.38005">
        <ele>163.39999389648</ele>
        <time>2017-06-11T10:19:16.000Z</time>
      </trkpt>
      <trkpt lat="48.82818" lon="-0.37999">
        <ele>163.39999389648</ele>
        <time>2017-06-11T10:19:18.000Z</time>
      </trkpt>
      <trkpt lat="48.82814" lon="-0.37989">
        <ele>163.39999389648</ele>
        <time>2017-06-11T10:19:23.000Z</time>
      </trkpt>
      <trkpt lat="48.82811" lon="-0.37977">
        <ele>163.39999389648</ele>
        <time>2017-06-11T10:19:28.000Z</time>
      </trkpt>
      <trkpt lat="48.82803" lon="-0.37959">
        <ele>163.39999389648</ele>
        <time>2017-06-11T10:19:34.000Z</time>
      </trkpt>
      <trkpt lat="48.82794" lon="-0.37934">
        <ele>163.39999389648</ele>
        <time>2017-06-11T10:19:41.000Z</time>
      </trkpt>
      <trkpt lat="48.82781" lon="-0.37909">
        <ele>163.39999389648</ele>
        <time>2017-06-11T10:19:48.000Z</time>
      </trkpt>
      <trkpt lat="48.82776" lon="-0.37905">
        <ele>163.80000305176</ele>
        <time>2017-06-11T10:19:50.000Z</time>
      </trkpt>
      <trkpt lat="48.82774" lon="-0.37903">
        <ele>164.19999694824</ele>
        <time>2017-06-11T10:19:51.000Z</time>
      </trkpt>
      <trkpt lat="48.82771" lon="-0.37901">
        <ele>164.60000610352</ele>
        <time>2017-06-11T10:19:52.000Z</time>
      </trkpt>
      <trkpt lat="48.82768" lon="-0.37899">
        <ele>165</ele>
        <time>2017-06-11T10:19:53.000Z</time>
      </trkpt>
      <trkpt lat="48.82765" lon="-0.37897">
        <ele>165.39999389648</ele>
        <time>2017-06-11T10:19:54.000Z</time>
      </trkpt>
      <trkpt lat="48.82748" lon="-0.37886">
        <ele>165.39999389648</ele>
        <time>2017-06-11T10:20:00.000Z</time>
      </trkpt>
      <trkpt lat="48.82736" lon="-0.37879">
        <ele>165.80000305176</ele>
        <time>2017-06-11T10:20:04.000Z</time>
      </trkpt>
      <trkpt lat="48.82733" lon="-0.37878">
        <ele>166.80000305176</ele>
        <time>2017-06-11T10:20:05.000Z</time>
      </trkpt>
      <trkpt lat="48.8273" lon="-0.37877">
        <ele>167.19999694824</ele>
        <time>2017-06-11T10:20:06.000Z</time>
      </trkpt>
      <trkpt lat="48.82727" lon="-0.37875">
        <ele>167.60000610352</ele>
        <time>2017-06-11T10:20:07.000Z</time>
      </trkpt>
      <trkpt lat="48.82722" lon="-0.37872">
        <ele>167.60000610352</ele>
        <time>2017-06-11T10:20:09.000Z</time>
      </trkpt>
      <trkpt lat="48.82705" lon="-0.37854">
        <ele>167.60000610352</ele>
        <time>2017-06-11T10:20:16.000Z</time>
      </trkpt>
      <trkpt lat="48.82703" lon="-0.37851">
        <ele>168</ele>
        <time>2017-06-11T10:20:17.000Z</time>
      </trkpt>
      <trkpt lat="48.82701" lon="-0.37848">
        <ele>168.39999389648</ele>
        <time>2017-06-11T10:20:18.000Z</time>
      </trkpt>
      <trkpt lat="48.82699" lon="-0.37846">
        <ele>168.80000305176</ele>
        <time>2017-06-11T10:20:19.000Z</time>
      </trkpt>
      <trkpt lat="48.82698" lon="-0.37843">
        <ele>169.19999694824</ele>
        <time>2017-06-11T10:20:20.000Z</time>
      </trkpt>
      <trkpt lat="48.82696" lon="-0.3784">
        <ele>169.60000610352</ele>
        <time>2017-06-11T10:20:21.000Z</time>
      </trkpt>
      <trkpt lat="48.82692" lon="-0.37831">
        <ele>169.60000610352</ele>
        <time>2017-06-11T10:20:24.000Z</time>
      </trkpt>
      <trkpt lat="48.82685" lon="-0.37817">
        <ele>170</ele>
        <time>2017-06-11T10:20:29.000Z</time>
      </trkpt>
      <trkpt lat="48.82683" lon="-0.37813">
        <ele>170.80000305176</ele>
        <time>2017-06-11T10:20:30.000Z</time>
      </trkpt>
      <trkpt lat="48.82682" lon="-0.3781">
        <ele>171.39999389648</ele>
        <time>2017-06-11T10:20:31.000Z</time>
      </trkpt>
      <trkpt lat="48.8268" lon="-0.37807">
        <ele>171.80000305176</ele>
        <time>2017-06-11T10:20:32.000Z</time>
      </trkpt>
      <trkpt lat="48.82672" lon="-0.37788">
        <ele>171.80000305176</ele>
        <time>2017-06-11T10:20:38.000Z</time>
      </trkpt>
      <trkpt lat="48.82668" lon="-0.37779">
        <ele>172.19999694824</ele>
        <time>2017-06-11T10:20:41.000Z</time>
      </trkpt>
      <trkpt lat="48.82666" lon="-0.37776">
        <ele>172.60000610352</ele>
        <time>2017-06-11T10:20:42.000Z</time>
      </trkpt>
      <trkpt lat="48.82665" lon="-0.37772">
        <ele>173</ele>
        <time>2017-06-11T10:20:43.000Z</time>
      </trkpt>
      <trkpt lat="48.82664" lon="-0.37769">
        <ele>173.39999389648</ele>
        <time>2017-06-11T10:20:44.000Z</time>
      </trkpt>
      <trkpt lat="48.82662" lon="-0.37765">
        <ele>173.80000305176</ele>
        <time>2017-06-11T10:20:45.000Z</time>
      </trkpt>
      <trkpt lat="48.8266" lon="-0.37762">
        <ele>173.80000305176</ele>
        <time>2017-06-11T10:20:46.000Z</time>
      </trkpt>
      <trkpt lat="48.82649" lon="-0.3774">
        <ele>173.80000305176</ele>
        <time>2017-06-11T10:20:53.000Z</time>
      </trkpt>
      <trkpt lat="48.82648" lon="-0.37737">
        <ele>174.80000305176</ele>
        <time>2017-06-11T10:20:54.000Z</time>
      </trkpt>
      <trkpt lat="48.82646" lon="-0.37734">
        <ele>175.19999694824</ele>
        <time>2017-06-11T10:20:55.000Z</time>
      </trkpt>
      <trkpt lat="48.82645" lon="-0.37732">
        <ele>175.60000610352</ele>
        <time>2017-06-11T10:20:56.000Z</time>
      </trkpt>
      <trkpt lat="48.82643" lon="-0.37728">
        <ele>176</ele>
        <time>2017-06-11T10:20:57.000Z</time>
      </trkpt>
      <trkpt lat="48.82641" lon="-0.37722">
        <ele>176</ele>
        <time>2017-06-11T10:20:59.000Z</time>
      </trkpt>
      <trkpt lat="48.8263" lon="-0.37699">
        <ele>176.39999389648</ele>
        <time>2017-06-11T10:21:06.000Z</time>
      </trkpt>
      <trkpt lat="48.82629" lon="-0.37696">
        <ele>176.80000305176</ele>
        <time>2017-06-11T10:21:07.000Z</time>
      </trkpt>
      <trkpt lat="48.82628" lon="-0.37694">
        <ele>177.19999694824</ele>
        <time>2017-06-11T10:21:08.000Z</time>
      </trkpt>
      <trkpt lat="48.82626" lon="-0.3769">
        <ele>177.60000610352</ele>
        <time>2017-06-11T10:21:09.000Z</time>
      </trkpt>
      <trkpt lat="48.82625" lon="-0.37687">
        <ele>178</ele>
        <time>2017-06-11T10:21:10.000Z</time>
      </trkpt>
      <trkpt lat="48.82621" lon="-0.37678">
        <ele>178</ele>
        <time>2017-06-11T10:21:13.000Z</time>
      </trkpt>
      <trkpt lat="48.82613" lon="-0.3766">
        <ele>178.80000305176</ele>
        <time>2017-06-11T10:21:19.000Z</time>
      </trkpt>
      <trkpt lat="48.82611" lon="-0.37657">
        <ele>179.19999694824</ele>
        <time>2017-06-11T10:21:20.000Z</time>
      </trkpt>
      <trkpt lat="48.8261" lon="-0.37653">
        <ele>179.80000305176</ele>
        <time>2017-06-11T10:21:21.000Z</time>
      </trkpt>
      <trkpt lat="48.82608" lon="-0.37649">
        <ele>180.19999694824</ele>
        <time>2017-06-11T10:21:22.000Z</time>
      </trkpt>
      <trkpt lat="48.82597" lon="-0.37623">
        <ele>180.19999694824</ele>
        <time>2017-06-11T10:21:31.000Z</time>
      </trkpt>
      <trkpt lat="48.82587" lon="-0.37602">
        <ele>180.60000610352</ele>
        <time>2017-06-11T10:21:37.000Z</time>
      </trkpt>
      <trkpt lat="48.82585" lon="-0.37599">
        <ele>181</ele>
        <time>2017-06-11T10:21:38.000Z</time>
      </trkpt>
      <trkpt lat="48.82584" lon="-0.37595">
        <ele>181.39999389648</ele>
        <time>2017-06-11T10:21:39.000Z</time>
      </trkpt>
      <trkpt lat="48.82582" lon="-0.37592">
        <ele>181.80000305176</ele>
        <time>2017-06-11T10:21:40.000Z</time>
      </trkpt>
      <trkpt lat="48.82579" lon="-0.37588">
        <ele>182.19999694824</ele>
        <time>2017-06-11T10:21:41.000Z</time>
      </trkpt>
      <trkpt lat="48.82572" lon="-0.37575">
        <ele>182.19999694824</ele>
        <time>2017-06-11T10:21:44.000Z</time>
      </trkpt>
      <trkpt lat="48.82563" lon="-0.37547">
        <ele>182.19999694824</ele>
        <time>2017-06-11T10:21:50.000Z</time>
      </trkpt>
      <trkpt lat="48.82552" lon="-0.37516">
        <ele>182.19999694824</ele>
        <time>2017-06-11T10:21:57.000Z</time>
      </trkpt>
      <trkpt lat="48.8254" lon="-0.3749">
        <ele>182.19999694824</ele>
        <time>2017-06-11T10:22:03.000Z</time>
      </trkpt>
      <trkpt lat="48.82538" lon="-0.37487">
        <ele>182.60000610352</ele>
        <time>2017-06-11T10:22:04.000Z</time>
      </trkpt>
      <trkpt lat="48.82536" lon="-0.37482">
        <ele>183</ele>
        <time>2017-06-11T10:22:05.000Z</time>
      </trkpt>
      <trkpt lat="48.82534" lon="-0.37479">
        <ele>183.60000610352</ele>
        <time>2017-06-11T10:22:06.000Z</time>
      </trkpt>
      <trkpt lat="48.82532" lon="-0.37474">
        <ele>184</ele>
        <time>2017-06-11T10:22:07.000Z</time>
      </trkpt>
      <trkpt lat="48.82529" lon="-0.37469">
        <ele>184.39999389648</ele>
        <time>2017-06-11T10:22:08.000Z</time>
      </trkpt>
      <trkpt lat="48.82526" lon="-0.37461">
        <ele>184.39999389648</ele>
        <time>2017-06-11T10:22:10.000Z</time>
      </trkpt>
      <trkpt lat="48.82513" lon="-0.37431">
        <ele>184.39999389648</ele>
        <time>2017-06-11T10:22:17.000Z</time>
      </trkpt>
      <trkpt lat="48.82501" lon="-0.37405">
        <ele>184.39999389648</ele>
        <time>2017-06-11T10:22:24.000Z</time>
      </trkpt>
      <trkpt lat="48.82487" lon="-0.37382">
        <ele>184.39999389648</ele>
        <time>2017-06-11T10:22:31.000Z</time>
      </trkpt>
      <trkpt lat="48.82479" lon="-0.37376">
        <ele>184.80000305176</ele>
        <time>2017-06-11T10:22:35.000Z</time>
      </trkpt>
      <trkpt lat="48.82477" lon="-0.37376">
        <ele>185.19999694824</ele>
        <time>2017-06-11T10:22:36.000Z</time>
      </trkpt>
      <trkpt lat="48.82474" lon="-0.37375">
        <ele>185.60000610352</ele>
        <time>2017-06-11T10:22:37.000Z</time>
      </trkpt>
      <trkpt lat="48.82471" lon="-0.37375">
        <ele>186.19999694824</ele>
        <time>2017-06-11T10:22:38.000Z</time>
      </trkpt>
      <trkpt lat="48.82469" lon="-0.37374">
        <ele>186.60000610352</ele>
        <time>2017-06-11T10:22:39.000Z</time>
      </trkpt>
      <trkpt lat="48.82457" lon="-0.37369">
        <ele>186.60000610352</ele>
        <time>2017-06-11T10:22:44.000Z</time>
      </trkpt>
      <trkpt lat="48.82442" lon="-0.37356">
        <ele>186.60000610352</ele>
        <time>2017-06-11T10:22:52.000Z</time>
      </trkpt>
      <trkpt lat="48.8244" lon="-0.37354">
        <ele>187</ele>
        <time>2017-06-11T10:22:53.000Z</time>
      </trkpt>
      <trkpt lat="48.82438" lon="-0.37353">
        <ele>187.39999389648</ele>
        <time>2017-06-11T10:22:54.000Z</time>
      </trkpt>
      <trkpt lat="48.82437" lon="-0.37351">
        <ele>187.80000305176</ele>
        <time>2017-06-11T10:22:55.000Z</time>
      </trkpt>
      <trkpt lat="48.82435" lon="-0.37349">
        <ele>188.19999694824</ele>
        <time>2017-06-11T10:22:56.000Z</time>
      </trkpt>
      <trkpt lat="48.82433" lon="-0.37348">
        <ele>188.60000610352</ele>
        <time>2017-06-11T10:22:57.000Z</time>
      </trkpt>
      <trkpt lat="48.8243" lon="-0.37344">
        <ele>188.60000610352</ele>
        <time>2017-06-11T10:22:59.000Z</time>
      </trkpt>
      <trkpt lat="48.82424" lon="-0.37336">
        <ele>189</ele>
        <time>2017-06-11T10:23:04.000Z</time>
      </trkpt>
      <trkpt lat="48.82422" lon="-0.37334">
        <ele>189.39999389648</ele>
        <time>2017-06-11T10:23:05.000Z</time>
      </trkpt>
      <trkpt lat="48.82421" lon="-0.37333">
        <ele>189.80000305176</ele>
        <time>2017-06-11T10:23:06.000Z</time>
      </trkpt>
      <trkpt lat="48.8242" lon="-0.37331">
        <ele>190.19999694824</ele>
        <time>2017-06-11T10:23:07.000Z</time>
      </trkpt>
      <trkpt lat="48.82419" lon="-0.37329">
        <ele>190.60000610352</ele>
        <time>2017-06-11T10:23:08.000Z</time>
      </trkpt>
      <trkpt lat="48.82414" lon="-0.37325">
        <ele>190.60000610352</ele>
        <time>2017-06-11T10:23:11.000Z</time>
      </trkpt>
      <trkpt lat="48.82411" lon="-0.37322">
        <ele>191</ele>
        <time>2017-06-11T10:23:13.000Z</time>
      </trkpt>
      <trkpt lat="48.8241" lon="-0.3732">
        <ele>191.39999389648</ele>
        <time>2017-06-11T10:23:14.000Z</time>
      </trkpt>
      <trkpt lat="48.82409" lon="-0.37318">
        <ele>192</ele>
        <time>2017-06-11T10:23:15.000Z</time>
      </trkpt>
      <trkpt lat="48.82407" lon="-0.37317">
        <ele>192.39999389648</ele>
        <time>2017-06-11T10:23:16.000Z</time>
      </trkpt>
      <trkpt lat="48.82406" lon="-0.37315">
        <ele>192.80000305176</ele>
        <time>2017-06-11T10:23:17.000Z</time>
      </trkpt>
      <trkpt lat="48.82405" lon="-0.37313">
        <ele>192.80000305176</ele>
        <time>2017-06-11T10:23:18.000Z</time>
      </trkpt>
      <trkpt lat="48.82399" lon="-0.37306">
        <ele>193.19999694824</ele>
        <time>2017-06-11T10:23:22.000Z</time>
      </trkpt>
      <trkpt lat="48.82398" lon="-0.37304">
        <ele>193.60000610352</ele>
        <time>2017-06-11T10:23:23.000Z</time>
      </trkpt>
      <trkpt lat="48.82396" lon="-0.37302">
        <ele>194.39999389648</ele>
        <time>2017-06-11T10:23:24.000Z</time>
      </trkpt>
      <trkpt lat="48.82395" lon="-0.373">
        <ele>195</ele>
        <time>2017-06-11T10:23:25.000Z</time>
      </trkpt>
      <trkpt lat="48.82385" lon="-0.37284">
        <ele>195</ele>
        <time>2017-06-11T10:23:32.000Z</time>
      </trkpt>
      <trkpt lat="48.82382" lon="-0.3728">
        <ele>195.39999389648</ele>
        <time>2017-06-11T10:23:34.000Z</time>
      </trkpt>
      <trkpt lat="48.82381" lon="-0.37278">
        <ele>195.80000305176</ele>
        <time>2017-06-11T10:23:35.000Z</time>
      </trkpt>
      <trkpt lat="48.82379" lon="-0.37275">
        <ele>196.19999694824</ele>
        <time>2017-06-11T10:23:36.000Z</time>
      </trkpt>
      <trkpt lat="48.82378" lon="-0.37273">
        <ele>196.60000610352</ele>
        <time>2017-06-11T10:23:37.000Z</time>
      </trkpt>
      <trkpt lat="48.82376" lon="-0.3727">
        <ele>197</ele>
        <time>2017-06-11T10:23:38.000Z</time>
      </trkpt>
      <trkpt lat="48.82367" lon="-0.37255">
        <ele>197</ele>
        <time>2017-06-11T10:23:45.000Z</time>
      </trkpt>
      <trkpt lat="48.82362" lon="-0.37248">
        <ele>197.60000610352</ele>
        <time>2017-06-11T10:23:49.000Z</time>
      </trkpt>
      <trkpt lat="48.82361" lon="-0.37246">
        <ele>198</ele>
        <time>2017-06-11T10:23:50.000Z</time>
      </trkpt>
      <trkpt lat="48.8236" lon="-0.37244">
        <ele>198.39999389648</ele>
        <time>2017-06-11T10:23:51.000Z</time>
      </trkpt>
      <trkpt lat="48.82358" lon="-0.37242">
        <ele>198.80000305176</ele>
        <time>2017-06-11T10:23:52.000Z</time>
      </trkpt>
      <trkpt lat="48.82357" lon="-0.3724">
        <ele>199.19999694824</ele>
        <time>2017-06-11T10:23:53.000Z</time>
      </trkpt>
      <trkpt lat="48.82349" lon="-0.37229">
        <ele>199.19999694824</ele>
        <time>2017-06-11T10:23:59.000Z</time>
      </trkpt>
      <trkpt lat="48.82343" lon="-0.37219">
        <ele>199.80000305176</ele>
        <time>2017-06-11T10:24:04.000Z</time>
      </trkpt>
      <trkpt lat="48.82342" lon="-0.37218">
        <ele>200.19999694824</ele>
        <time>2017-06-11T10:24:05.000Z</time>
      </trkpt>
      <trkpt lat="48.82341" lon="-0.37216">
        <ele>200.60000610352</ele>
        <time>2017-06-11T10:24:06.000Z</time>
      </trkpt>
      <trkpt lat="48.82339" lon="-0.37215">
        <ele>201</ele>
        <time>2017-06-11T10:24:07.000Z</time>
      </trkpt>
      <trkpt lat="48.82338" lon="-0.37214">
        <ele>201.39999389648</ele>
        <time>2017-06-11T10:24:08.000Z</time>
      </trkpt>
      <trkpt lat="48.82334" lon="-0.37208">
        <ele>201.39999389648</ele>
        <time>2017-06-11T10:24:13.000Z</time>
      </trkpt>
      <trkpt lat="48.8233" lon="-0.37203">
        <ele>201.80000305176</ele>
        <time>2017-06-11T10:24:17.000Z</time>
      </trkpt>
      <trkpt lat="48.82329" lon="-0.37202">
        <ele>202.19999694824</ele>
        <time>2017-06-11T10:24:18.000Z</time>
      </trkpt>
      <trkpt lat="48.82328" lon="-0.372">
        <ele>202.60000610352</ele>
        <time>2017-06-11T10:24:19.000Z</time>
      </trkpt>
      <trkpt lat="48.82327" lon="-0.37199">
        <ele>203</ele>
        <time>2017-06-11T10:24:20.000Z</time>
      </trkpt>
      <trkpt lat="48.82326" lon="-0.37198">
        <ele>203.39999389648</ele>
        <time>2017-06-11T10:24:21.000Z</time>
      </trkpt>
      <trkpt lat="48.82318" lon="-0.37185">
        <ele>203.39999389648</ele>
        <time>2017-06-11T10:24:28.000Z</time>
      </trkpt>
      <trkpt lat="48.82317" lon="-0.37184">
        <ele>204</ele>
        <time>2017-06-11T10:24:29.000Z</time>
      </trkpt>
      <trkpt lat="48.82316" lon="-0.37183">
        <ele>204.39999389648</ele>
        <time>2017-06-11T10:24:30.000Z</time>
      </trkpt>
      <trkpt lat="48.82316" lon="-0.37181">
        <ele>204.80000305176</ele>
        <time>2017-06-11T10:24:31.000Z</time>
      </trkpt>
      <trkpt lat="48.82315" lon="-0.3718">
        <ele>205.19999694824</ele>
        <time>2017-06-11T10:24:32.000Z</time>
      </trkpt>
      <trkpt lat="48.82314" lon="-0.37178">
        <ele>205.80000305176</ele>
        <time>2017-06-11T10:24:33.000Z</time>
      </trkpt>
      <trkpt lat="48.82313" lon="-0.37176">
        <ele>205.80000305176</ele>
        <time>2017-06-11T10:24:34.000Z</time>
      </trkpt>
      <trkpt lat="48.82308" lon="-0.37169">
        <ele>206.60000610352</ele>
        <time>2017-06-11T10:24:38.000Z</time>
      </trkpt>
      <trkpt lat="48.82307" lon="-0.37167">
        <ele>207</ele>
        <time>2017-06-11T10:24:39.000Z</time>
      </trkpt>
      <trkpt lat="48.82306" lon="-0.37165">
        <ele>207.39999389648</ele>
        <time>2017-06-11T10:24:40.000Z</time>
      </trkpt>
      <trkpt lat="48.82305" lon="-0.37163">
        <ele>208</ele>
        <time>2017-06-11T10:24:41.000Z</time>
      </trkpt>
      <trkpt lat="48.82297" lon="-0.37145">
        <ele>208.39999389648</ele>
        <time>2017-06-11T10:24:48.000Z</time>
      </trkpt>
      <trkpt lat="48.82297" lon="-0.37142">
        <ele>208.80000305176</ele>
        <time>2017-06-11T10:24:49.000Z</time>
      </trkpt>
      <trkpt lat="48.82296" lon="-0.37139">
        <ele>209.19999694824</ele>
        <time>2017-06-11T10:24:50.000Z</time>
      </trkpt>
      <trkpt lat="48.82294" lon="-0.37137">
        <ele>209.60000610352</ele>
        <time>2017-06-11T10:24:51.000Z</time>
      </trkpt>
      <trkpt lat="48.82293" lon="-0.37135">
        <ele>210</ele>
        <time>2017-06-11T10:24:52.000Z</time>
      </trkpt>
      <trkpt lat="48.82291" lon="-0.3713">
        <ele>210</ele>
        <time>2017-06-11T10:24:54.000Z</time>
      </trkpt>
      <trkpt lat="48.82284" lon="-0.37107">
        <ele>210</ele>
        <time>2017-06-11T10:25:01.000Z</time>
      </trkpt>
      <trkpt lat="48.82281" lon="-0.37099">
        <ele>211</ele>
        <time>2017-06-11T10:25:03.000Z</time>
      </trkpt>
      <trkpt lat="48.82279" lon="-0.37095">
        <ele>211.39999389648</ele>
        <time>2017-06-11T10:25:04.000Z</time>
      </trkpt>
      <trkpt lat="48.82278" lon="-0.37091">
        <ele>211.80000305176</ele>
        <time>2017-06-11T10:25:05.000Z</time>
      </trkpt>
      <trkpt lat="48.82277" lon="-0.37087">
        <ele>212.39999389648</ele>
        <time>2017-06-11T10:25:06.000Z</time>
      </trkpt>
      <trkpt lat="48.82275" lon="-0.37081">
        <ele>212.39999389648</ele>
        <time>2017-06-11T10:25:08.000Z</time>
      </trkpt>
      <trkpt lat="48.82269" lon="-0.37066">
        <ele>212.39999389648</ele>
        <time>2017-06-11T10:25:14.000Z</time>
      </trkpt>
      <trkpt lat="48.82265" lon="-0.37058">
        <ele>212.80000305176</ele>
        <time>2017-06-11T10:25:17.000Z</time>
      </trkpt>
      <trkpt lat="48.82264" lon="-0.37055">
        <ele>213.19999694824</ele>
        <time>2017-06-11T10:25:18.000Z</time>
      </trkpt>
      <trkpt lat="48.82263" lon="-0.37051">
        <ele>213.60000610352</ele>
        <time>2017-06-11T10:25:19.000Z</time>
      </trkpt>
      <trkpt lat="48.82262" lon="-0.37048">
        <ele>214</ele>
        <time>2017-06-11T10:25:20.000Z</time>
      </trkpt>
      <trkpt lat="48.82261" lon="-0.37044">
        <ele>214.39999389648</ele>
        <time>2017-06-11T10:25:21.000Z</time>
      </trkpt>
      <trkpt lat="48.82259" lon="-0.37038">
        <ele>214.39999389648</ele>
        <time>2017-06-11T10:25:23.000Z</time>
      </trkpt>
      <trkpt lat="48.82249" lon="-0.37015">
        <ele>214.39999389648</ele>
        <time>2017-06-11T10:25:31.000Z</time>
      </trkpt>
      <trkpt lat="48.82242" lon="-0.3699">
        <ele>214.39999389648</ele>
        <time>2017-06-11T10:25:39.000Z</time>
      </trkpt>
      <trkpt lat="48.82242" lon="-0.36982">
        <ele>214.80000305176</ele>
        <time>2017-06-11T10:25:41.000Z</time>
      </trkpt>
      <trkpt lat="48.82242" lon="-0.36978">
        <ele>215.19999694824</ele>
        <time>2017-06-11T10:25:42.000Z</time>
      </trkpt>
      <trkpt lat="48.82242" lon="-0.36973">
        <ele>215.60000610352</ele>
        <time>2017-06-11T10:25:43.000Z</time>
      </trkpt>
      <trkpt lat="48.82241" lon="-0.36969">
        <ele>216</ele>
        <time>2017-06-11T10:25:44.000Z</time>
      </trkpt>
      <trkpt lat="48.82241" lon="-0.36965">
        <ele>216.39999389648</ele>
        <time>2017-06-11T10:25:45.000Z</time>
      </trkpt>
      <trkpt lat="48.8224" lon="-0.36961">
        <ele>216.39999389648</ele>
        <time>2017-06-11T10:25:46.000Z</time>
      </trkpt>
      <trkpt lat="48.82232" lon="-0.36942">
        <ele>216.39999389648</ele>
        <time>2017-06-11T10:25:51.000Z</time>
      </trkpt>
      <trkpt lat="48.82219" lon="-0.36922">
        <ele>216.39999389648</ele>
        <time>2017-06-11T10:25:57.000Z</time>
      </trkpt>
      <trkpt lat="48.82208" lon="-0.36928">
        <ele>216.39999389648</ele>
        <time>2017-06-11T10:26:01.000Z</time>
      </trkpt>
      <trkpt lat="48.82203" lon="-0.36934">
        <ele>216.39999389648</ele>
        <time>2017-06-11T10:26:03.000Z</time>
      </trkpt>
      <trkpt lat="48.8219" lon="-0.3695">
        <ele>216.39999389648</ele>
        <time>2017-06-11T10:26:08.000Z</time>
      </trkpt>
      <trkpt lat="48.82177" lon="-0.36959">
        <ele>216.39999389648</ele>
        <time>2017-06-11T10:26:13.000Z</time>
      </trkpt>
      <trkpt lat="48.82166" lon="-0.36952">
        <ele>216.39999389648</ele>
        <time>2017-06-11T10:26:17.000Z</time>
      </trkpt>
      <trkpt lat="48.82154" lon="-0.36926">
        <ele>216.39999389648</ele>
        <time>2017-06-11T10:26:24.000Z</time>
      </trkpt>
      <trkpt lat="48.82143" lon="-0.36892">
        <ele>216.39999389648</ele>
        <time>2017-06-11T10:26:31.000Z</time>
      </trkpt>
      <trkpt lat="48.82136" lon="-0.36873">
        <ele>216.39999389648</ele>
        <time>2017-06-11T10:26:36.000Z</time>
      </trkpt>
      <trkpt lat="48.8213" lon="-0.36853">
        <ele>217.19999694824</ele>
        <time>2017-06-11T10:26:41.000Z</time>
      </trkpt>
      <trkpt lat="48.82129" lon="-0.36849">
        <ele>217.60000610352</ele>
        <time>2017-06-11T10:26:42.000Z</time>
      </trkpt>
      <trkpt lat="48.82127" lon="-0.36846">
        <ele>218.19999694824</ele>
        <time>2017-06-11T10:26:43.000Z</time>
      </trkpt>
      <trkpt lat="48.82126" lon="-0.36842">
        <ele>218.60000610352</ele>
        <time>2017-06-11T10:26:44.000Z</time>
      </trkpt>
      <trkpt lat="48.82117" lon="-0.36823">
        <ele>218.60000610352</ele>
        <time>2017-06-11T10:26:49.000Z</time>
      </trkpt>
      <trkpt lat="48.82107" lon="-0.36799">
        <ele>218.60000610352</ele>
        <time>2017-06-11T10:26:55.000Z</time>
      </trkpt>
      <trkpt lat="48.82095" lon="-0.36769">
        <ele>218.60000610352</ele>
        <time>2017-06-11T10:27:02.000Z</time>
      </trkpt>
      <trkpt lat="48.82091" lon="-0.36757">
        <ele>219</ele>
        <time>2017-06-11T10:27:05.000Z</time>
      </trkpt>
      <trkpt lat="48.82089" lon="-0.36754">
        <ele>219.80000305176</ele>
        <time>2017-06-11T10:27:06.000Z</time>
      </trkpt>
      <trkpt lat="48.82088" lon="-0.3675">
        <ele>220.19999694824</ele>
        <time>2017-06-11T10:27:07.000Z</time>
      </trkpt>
      <trkpt lat="48.82086" lon="-0.36746">
        <ele>220.60000610352</ele>
        <time>2017-06-11T10:27:08.000Z</time>
      </trkpt>
      <trkpt lat="48.82085" lon="-0.36742">
        <ele>220.60000610352</ele>
        <time>2017-06-11T10:27:09.000Z</time>
      </trkpt>
      <trkpt lat="48.82071" lon="-0.36719">
        <ele>220.60000610352</ele>
        <time>2017-06-11T10:27:17.000Z</time>
      </trkpt>
      <trkpt lat="48.82062" lon="-0.36706">
        <ele>220.60000610352</ele>
        <time>2017-06-11T10:27:23.000Z</time>
      </trkpt>
      <trkpt lat="48.82052" lon="-0.36691">
        <ele>220.60000610352</ele>
        <time>2017-06-11T10:27:29.000Z</time>
      </trkpt>
      <trkpt lat="48.82051" lon="-0.36689">
        <ele>221</ele>
        <time>2017-06-11T10:27:30.000Z</time>
      </trkpt>
      <trkpt lat="48.8205" lon="-0.36686">
        <ele>221.80000305176</ele>
        <time>2017-06-11T10:27:31.000Z</time>
      </trkpt>
      <trkpt lat="48.82049" lon="-0.36685">
        <ele>222.19999694824</ele>
        <time>2017-06-11T10:27:32.000Z</time>
      </trkpt>
      <trkpt lat="48.82048" lon="-0.36683">
        <ele>222.60000610352</ele>
        <time>2017-06-11T10:27:33.000Z</time>
      </trkpt>
      <trkpt lat="48.82045" lon="-0.36679">
        <ele>222.60000610352</ele>
        <time>2017-06-11T10:27:35.000Z</time>
      </trkpt>
      <trkpt lat="48.82038" lon="-0.36664">
        <ele>222.60000610352</ele>
        <time>2017-06-11T10:27:42.000Z</time>
      </trkpt>
      <trkpt lat="48.82032" lon="-0.36652">
        <ele>222.60000610352</ele>
        <time>2017-06-11T10:27:48.000Z</time>
      </trkpt>
      <trkpt lat="48.8203" lon="-0.3665">
        <ele>223</ele>
        <time>2017-06-11T10:27:49.000Z</time>
      </trkpt>
      <trkpt lat="48.82029" lon="-0.36649">
        <ele>223.39999389648</ele>
        <time>2017-06-11T10:27:50.000Z</time>
      </trkpt>
      <trkpt lat="48.82027" lon="-0.36648">
        <ele>224</ele>
        <time>2017-06-11T10:27:51.000Z</time>
      </trkpt>
      <trkpt lat="48.82026" lon="-0.36647">
        <ele>224.39999389648</ele>
        <time>2017-06-11T10:27:52.000Z</time>
      </trkpt>
      <trkpt lat="48.82024" lon="-0.36647">
        <ele>224.80000305176</ele>
        <time>2017-06-11T10:27:53.000Z</time>
      </trkpt>
      <trkpt lat="48.82023" lon="-0.36645">
        <ele>224.80000305176</ele>
        <time>2017-06-11T10:27:54.000Z</time>
      </trkpt>
      <trkpt lat="48.82008" lon="-0.36633">
        <ele>224.80000305176</ele>
        <time>2017-06-11T10:28:00.000Z</time>
      </trkpt>
      <trkpt lat="48.82004" lon="-0.36629">
        <ele>225.19999694824</ele>
        <time>2017-06-11T10:28:02.000Z</time>
      </trkpt>
      <trkpt lat="48.82002" lon="-0.36627">
        <ele>225.60000610352</ele>
        <time>2017-06-11T10:28:03.000Z</time>
      </trkpt>
      <trkpt lat="48.82" lon="-0.36624">
        <ele>226</ele>
        <time>2017-06-11T10:28:04.000Z</time>
      </trkpt>
      <trkpt lat="48.81999" lon="-0.36623">
        <ele>226.39999389648</ele>
        <time>2017-06-11T10:28:05.000Z</time>
      </trkpt>
      <trkpt lat="48.81997" lon="-0.36621">
        <ele>226.80000305176</ele>
        <time>2017-06-11T10:28:06.000Z</time>
      </trkpt>
      <trkpt lat="48.81988" lon="-0.36611">
        <ele>226.80000305176</ele>
        <time>2017-06-11T10:28:12.000Z</time>
      </trkpt>
      <trkpt lat="48.81983" lon="-0.36606">
        <ele>227.19999694824</ele>
        <time>2017-06-11T10:28:15.000Z</time>
      </trkpt>
      <trkpt lat="48.81981" lon="-0.36604">
        <ele>227.60000610352</ele>
        <time>2017-06-11T10:28:16.000Z</time>
      </trkpt>
      <trkpt lat="48.8198" lon="-0.36601">
        <ele>228</ele>
        <time>2017-06-11T10:28:17.000Z</time>
      </trkpt>
      <trkpt lat="48.81979" lon="-0.366">
        <ele>228.39999389648</ele>
        <time>2017-06-11T10:28:18.000Z</time>
      </trkpt>
      <trkpt lat="48.81977" lon="-0.36598">
        <ele>229</ele>
        <time>2017-06-11T10:28:19.000Z</time>
      </trkpt>
      <trkpt lat="48.81969" lon="-0.36585">
        <ele>229</ele>
        <time>2017-06-11T10:28:25.000Z</time>
      </trkpt>
      <trkpt lat="48.81961" lon="-0.36573">
        <ele>229.39999389648</ele>
        <time>2017-06-11T10:28:30.000Z</time>
      </trkpt>
      <trkpt lat="48.8196" lon="-0.36571">
        <ele>229.80000305176</ele>
        <time>2017-06-11T10:28:31.000Z</time>
      </trkpt>
      <trkpt lat="48.81958" lon="-0.36569">
        <ele>230.19999694824</ele>
        <time>2017-06-11T10:28:32.000Z</time>
      </trkpt>
      <trkpt lat="48.81957" lon="-0.36567">
        <ele>230.60000610352</ele>
        <time>2017-06-11T10:28:33.000Z</time>
      </trkpt>
      <trkpt lat="48.81956" lon="-0.36565">
        <ele>231</ele>
        <time>2017-06-11T10:28:34.000Z</time>
      </trkpt>
      <trkpt lat="48.81951" lon="-0.36557">
        <ele>231</ele>
        <time>2017-06-11T10:28:37.000Z</time>
      </trkpt>
      <trkpt lat="48.8194" lon="-0.36537">
        <ele>231</ele>
        <time>2017-06-11T10:28:44.000Z</time>
      </trkpt>
      <trkpt lat="48.81938" lon="-0.36534">
        <ele>231.39999389648</ele>
        <time>2017-06-11T10:28:45.000Z</time>
      </trkpt>
      <trkpt lat="48.81936" lon="-0.36531">
        <ele>231.80000305176</ele>
        <time>2017-06-11T10:28:46.000Z</time>
      </trkpt>
      <trkpt lat="48.81935" lon="-0.36528">
        <ele>232.39999389648</ele>
        <time>2017-06-11T10:28:47.000Z</time>
      </trkpt>
      <trkpt lat="48.81934" lon="-0.36525">
        <ele>232.80000305176</ele>
        <time>2017-06-11T10:28:48.000Z</time>
      </trkpt>
      <trkpt lat="48.81932" lon="-0.36523">
        <ele>233.19999694824</ele>
        <time>2017-06-11T10:28:49.000Z</time>
      </trkpt>
      <trkpt lat="48.81929" lon="-0.36517">
        <ele>233.19999694824</ele>
        <time>2017-06-11T10:28:51.000Z</time>
      </trkpt>
      <trkpt lat="48.8192" lon="-0.36501">
        <ele>233.19999694824</ele>
        <time>2017-06-11T10:28:57.000Z</time>
      </trkpt>
      <trkpt lat="48.81909" lon="-0.36485">
        <ele>233.19999694824</ele>
        <time>2017-06-11T10:29:03.000Z</time>
      </trkpt>
      <trkpt lat="48.81905" lon="-0.3648">
        <ele>233.60000610352</ele>
        <time>2017-06-11T10:29:05.000Z</time>
      </trkpt>
      <trkpt lat="48.81902" lon="-0.36478">
        <ele>234</ele>
        <time>2017-06-11T10:29:06.000Z</time>
      </trkpt>
      <trkpt lat="48.819" lon="-0.36475">
        <ele>234.39999389648</ele>
        <time>2017-06-11T10:29:07.000Z</time>
      </trkpt>
      <trkpt lat="48.81897" lon="-0.36472">
        <ele>234.80000305176</ele>
        <time>2017-06-11T10:29:08.000Z</time>
      </trkpt>
      <trkpt lat="48.81895" lon="-0.36469">
        <ele>235.19999694824</ele>
        <time>2017-06-11T10:29:09.000Z</time>
      </trkpt>
      <trkpt lat="48.81889" lon="-0.36463">
        <ele>235.19999694824</ele>
        <time>2017-06-11T10:29:11.000Z</time>
      </trkpt>
      <trkpt lat="48.81865" lon="-0.36447">
        <ele>235.19999694824</ele>
        <time>2017-06-11T10:29:18.000Z</time>
      </trkpt>
      <trkpt lat="48.81847" lon="-0.36436">
        <ele>235.19999694824</ele>
        <time>2017-06-11T10:29:24.000Z</time>
      </trkpt>
      <trkpt lat="48.81829" lon="-0.36417">
        <ele>235.19999694824</ele>
        <time>2017-06-11T10:29:30.000Z</time>
      </trkpt>
      <trkpt lat="48.81811" lon="-0.364">
        <ele>235.19999694824</ele>
        <time>2017-06-11T10:29:35.000Z</time>
      </trkpt>
      <trkpt lat="48.81807" lon="-0.36397">
        <ele>235.19999694824</ele>
        <time>2017-06-11T10:29:36.000Z</time>
      </trkpt>
      <trkpt lat="48.8179" lon="-0.36387">
        <ele>235.19999694824</ele>
        <time>2017-06-11T10:29:40.000Z</time>
      </trkpt>
      <trkpt lat="48.81777" lon="-0.36383">
        <ele>235.19999694824</ele>
        <time>2017-06-11T10:29:43.000Z</time>
      </trkpt>
      <trkpt lat="48.8175" lon="-0.36382">
        <ele>235.19999694824</ele>
        <time>2017-06-11T10:29:49.000Z</time>
      </trkpt>
      <trkpt lat="48.81742" lon="-0.36384">
        <ele>235.19999694824</ele>
        <time>2017-06-11T10:29:51.000Z</time>
      </trkpt>
      <trkpt lat="48.81726" lon="-0.36387">
        <ele>235.19999694824</ele>
        <time>2017-06-11T10:29:55.000Z</time>
      </trkpt>
      <trkpt lat="48.817" lon="-0.36387">
        <ele>235.19999694824</ele>
        <time>2017-06-11T10:30:02.000Z</time>
      </trkpt>
      <trkpt lat="48.81676" lon="-0.3637">
        <ele>235.19999694824</ele>
        <time>2017-06-11T10:30:09.000Z</time>
      </trkpt>
      <trkpt lat="48.81659" lon="-0.36349">
        <ele>235.19999694824</ele>
        <time>2017-06-11T10:30:15.000Z</time>
      </trkpt>
      <trkpt lat="48.81641" lon="-0.36326">
        <ele>235.19999694824</ele>
        <time>2017-06-11T10:30:22.000Z</time>
      </trkpt>
      <trkpt lat="48.81626" lon="-0.36311">
        <ele>235.19999694824</ele>
        <time>2017-06-11T10:30:27.000Z</time>
      </trkpt>
      <trkpt lat="48.81622" lon="-0.36308">
        <ele>235.60000610352</ele>
        <time>2017-06-11T10:30:28.000Z</time>
      </trkpt>
      <trkpt lat="48.81619" lon="-0.36306">
        <ele>236</ele>
        <time>2017-06-11T10:30:29.000Z</time>
      </trkpt>
      <trkpt lat="48.81616" lon="-0.36303">
        <ele>236.39999389648</ele>
        <time>2017-06-11T10:30:30.000Z</time>
      </trkpt>
      <trkpt lat="48.81613" lon="-0.363">
        <ele>236.80000305176</ele>
        <time>2017-06-11T10:30:31.000Z</time>
      </trkpt>
      <trkpt lat="48.81609" lon="-0.36297">
        <ele>237.19999694824</ele>
        <time>2017-06-11T10:30:32.000Z</time>
      </trkpt>
      <trkpt lat="48.81602" lon="-0.36291">
        <ele>237.19999694824</ele>
        <time>2017-06-11T10:30:34.000Z</time>
      </trkpt>
      <trkpt lat="48.81577" lon="-0.36264">
        <ele>237.19999694824</ele>
        <time>2017-06-11T10:30:41.000Z</time>
      </trkpt>
      <trkpt lat="48.81559" lon="-0.36245">
        <ele>237.19999694824</ele>
        <time>2017-06-11T10:30:46.000Z</time>
      </trkpt>
      <trkpt lat="48.81555" lon="-0.36241">
        <ele>237.19999694824</ele>
        <time>2017-06-11T10:30:47.000Z</time>
      </trkpt>
      <trkpt lat="48.81529" lon="-0.36219">
        <ele>237.19999694824</ele>
        <time>2017-06-11T10:30:54.000Z</time>
      </trkpt>
      <trkpt lat="48.81511" lon="-0.36197">
        <ele>237.19999694824</ele>
        <time>2017-06-11T10:31:01.000Z</time>
      </trkpt>
      <trkpt lat="48.815" lon="-0.36174">
        <ele>237.19999694824</ele>
        <time>2017-06-11T10:31:07.000Z</time>
      </trkpt>
      <trkpt lat="48.81492" lon="-0.3615">
        <ele>237.19999694824</ele>
        <time>2017-06-11T10:31:12.000Z</time>
      </trkpt>
      <trkpt lat="48.81483" lon="-0.36121">
        <ele>236.80000305176</ele>
        <time>2017-06-11T10:31:15.000Z</time>
      </trkpt>
      <trkpt lat="48.81481" lon="-0.36114">
        <ele>236.39999389648</ele>
        <time>2017-06-11T10:31:18.000Z</time>
      </trkpt>
      <trkpt lat="48.8148" lon="-0.36107">
        <ele>236</ele>
        <time>2017-06-11T10:31:19.000Z</time>
      </trkpt>
      <trkpt lat="48.81478" lon="-0.361">
        <ele>235.60000610352</ele>
        <time>2017-06-11T10:31:20.000Z</time>
      </trkpt>
      <trkpt lat="48.81477" lon="-0.36092">
        <ele>235.19999694824</ele>
        <time>2017-06-11T10:31:21.000Z</time>
      </trkpt>
      <trkpt lat="48.81476" lon="-0.36085">
        <ele>235.19999694824</ele>
        <time>2017-06-11T10:31:22.000Z</time>
      </trkpt>
      <trkpt lat="48.81477" lon="-0.36074">
        <ele>235.19999694824</ele>
        <time>2017-06-11T10:31:24.000Z</time>
      </trkpt>
      <trkpt lat="48.81477" lon="-0.36064">
        <ele>234.80000305176</ele>
        <time>2017-06-11T10:31:26.000Z</time>
      </trkpt>
      <trkpt lat="48.81476" lon="-0.36059">
        <ele>234.39999389648</ele>
        <time>2017-06-11T10:31:27.000Z</time>
      </trkpt>
      <trkpt lat="48.81474" lon="-0.36053">
        <ele>234</ele>
        <time>2017-06-11T10:31:28.000Z</time>
      </trkpt>
      <trkpt lat="48.81471" lon="-0.36048">
        <ele>233.60000610352</ele>
        <time>2017-06-11T10:31:29.000Z</time>
      </trkpt>
      <trkpt lat="48.81469" lon="-0.36043">
        <ele>233.19999694824</ele>
        <time>2017-06-11T10:31:30.000Z</time>
      </trkpt>
      <trkpt lat="48.81467" lon="-0.36037">
        <ele>233.19999694824</ele>
        <time>2017-06-11T10:31:31.000Z</time>
      </trkpt>
      <trkpt lat="48.81467" lon="-0.3603">
        <ele>233.19999694824</ele>
        <time>2017-06-11T10:31:32.000Z</time>
      </trkpt>
      <trkpt lat="48.81469" lon="-0.35996">
        <ele>232.80000305176</ele>
        <time>2017-06-11T10:31:36.000Z</time>
      </trkpt>
      <trkpt lat="48.81471" lon="-0.35988">
        <ele>232.39999389648</ele>
        <time>2017-06-11T10:31:37.000Z</time>
      </trkpt>
      <trkpt lat="48.81474" lon="-0.35983">
        <ele>231.60000610352</ele>
        <time>2017-06-11T10:31:38.000Z</time>
      </trkpt>
      <trkpt lat="48.81478" lon="-0.35978">
        <ele>231.19999694824</ele>
        <time>2017-06-11T10:31:39.000Z</time>
      </trkpt>
      <trkpt lat="48.81483" lon="-0.35974">
        <ele>230.80000305176</ele>
        <time>2017-06-11T10:31:40.000Z</time>
      </trkpt>
      <trkpt lat="48.81488" lon="-0.3597">
        <ele>230.19999694824</ele>
        <time>2017-06-11T10:31:41.000Z</time>
      </trkpt>
      <trkpt lat="48.81494" lon="-0.35966">
        <ele>229.80000305176</ele>
        <time>2017-06-11T10:31:42.000Z</time>
      </trkpt>
      <trkpt lat="48.81499" lon="-0.35962">
        <ele>229.39999389648</ele>
        <time>2017-06-11T10:31:43.000Z</time>
      </trkpt>
      <trkpt lat="48.81504" lon="-0.35958">
        <ele>229</ele>
        <time>2017-06-11T10:31:44.000Z</time>
      </trkpt>
      <trkpt lat="48.81539" lon="-0.35933">
        <ele>229</ele>
        <time>2017-06-11T10:31:50.000Z</time>
      </trkpt>
      <trkpt lat="48.81544" lon="-0.35927">
        <ele>228.60000610352</ele>
        <time>2017-06-11T10:31:51.000Z</time>
      </trkpt>
      <trkpt lat="48.81548" lon="-0.35919">
        <ele>228.19999694824</ele>
        <time>2017-06-11T10:31:52.000Z</time>
      </trkpt>
      <trkpt lat="48.8155" lon="-0.35909">
        <ele>227.80000305176</ele>
        <time>2017-06-11T10:31:53.000Z</time>
      </trkpt>
      <trkpt lat="48.81549" lon="-0.35898">
        <ele>227.39999389648</ele>
        <time>2017-06-11T10:31:54.000Z</time>
      </trkpt>
      <trkpt lat="48.81548" lon="-0.35887">
        <ele>226.80000305176</ele>
        <time>2017-06-11T10:31:55.000Z</time>
      </trkpt>
      <trkpt lat="48.81547" lon="-0.35876">
        <ele>226.19999694824</ele>
        <time>2017-06-11T10:31:56.000Z</time>
      </trkpt>
      <trkpt lat="48.81547" lon="-0.35865">
        <ele>225.60000610352</ele>
        <time>2017-06-11T10:31:57.000Z</time>
      </trkpt>
      <trkpt lat="48.81547" lon="-0.35855">
        <ele>225</ele>
        <time>2017-06-11T10:31:58.000Z</time>
      </trkpt>
      <trkpt lat="48.81548" lon="-0.35846">
        <ele>224.39999389648</ele>
        <time>2017-06-11T10:31:59.000Z</time>
      </trkpt>
      <trkpt lat="48.81549" lon="-0.35838">
        <ele>224</ele>
        <time>2017-06-11T10:32:00.000Z</time>
      </trkpt>
      <trkpt lat="48.8155" lon="-0.35832">
        <ele>223.39999389648</ele>
        <time>2017-06-11T10:32:01.000Z</time>
      </trkpt>
      <trkpt lat="48.81551" lon="-0.35827">
        <ele>222</ele>
        <time>2017-06-11T10:32:02.000Z</time>
      </trkpt>
      <trkpt lat="48.81552" lon="-0.35825">
        <ele>221.39999389648</ele>
        <time>2017-06-11T10:32:03.000Z</time>
      </trkpt>
      <trkpt lat="48.81552" lon="-0.35826">
        <ele>220.80000305176</ele>
        <time>2017-06-11T10:32:04.000Z</time>
      </trkpt>
      <trkpt lat="48.81552" lon="-0.35826">
        <ele>220</ele>
        <time>2017-06-11T10:32:05.000Z</time>
      </trkpt>
      <trkpt lat="48.81552" lon="-0.35826">
        <ele>220</ele>
        <time>2017-06-11T10:32:06.000Z</time>
      </trkpt>
      <trkpt lat="48.81551" lon="-0.35829">
        <ele>220</ele>
        <time>2017-06-11T10:32:09.000Z</time>
      </trkpt>
      <trkpt lat="48.81549" lon="-0.35832">
        <ele>220</ele>
        <time>2017-06-11T10:32:11.000Z</time>
      </trkpt>
      <trkpt lat="48.81545" lon="-0.35836">
        <ele>220</ele>
        <time>2017-06-11T10:32:16.000Z</time>
      </trkpt>
      <trkpt lat="48.81535" lon="-0.35832">
        <ele>220</ele>
        <time>2017-06-11T10:32:22.000Z</time>
      </trkpt>
      <trkpt lat="48.81532" lon="-0.35831">
        <ele>220</ele>
        <time>2017-06-11T10:32:23.000Z</time>
      </trkpt>
      <trkpt lat="48.81522" lon="-0.35825">
        <ele>219.60000610352</ele>
        <time>2017-06-11T10:32:26.000Z</time>
      </trkpt>
      <trkpt lat="48.81519" lon="-0.35824">
        <ele>218.80000305176</ele>
        <time>2017-06-11T10:32:27.000Z</time>
      </trkpt>
      <trkpt lat="48.81516" lon="-0.35823">
        <ele>218.39999389648</ele>
        <time>2017-06-11T10:32:28.000Z</time>
      </trkpt>
      <trkpt lat="48.81514" lon="-0.35821">
        <ele>218</ele>
        <time>2017-06-11T10:32:29.000Z</time>
      </trkpt>
      <trkpt lat="48.81509" lon="-0.35816">
        <ele>218</ele>
        <time>2017-06-11T10:32:32.000Z</time>
      </trkpt>
      <trkpt lat="48.81501" lon="-0.35808">
        <ele>218</ele>
        <time>2017-06-11T10:32:39.000Z</time>
      </trkpt>
      <trkpt lat="48.81496" lon="-0.35804">
        <ele>218</ele>
        <time>2017-06-11T10:32:46.000Z</time>
      </trkpt>
      <trkpt lat="48.81496" lon="-0.35803">
        <ele>218.39999389648</ele>
        <time>2017-06-11T10:32:51.000Z</time>
      </trkpt>
      <trkpt lat="48.81496" lon="-0.35803">
        <ele>219.19999694824</ele>
        <time>2017-06-11T10:32:52.000Z</time>
      </trkpt>
      <trkpt lat="48.81496" lon="-0.35803">
        <ele>219.60000610352</ele>
        <time>2017-06-11T10:32:53.000Z</time>
      </trkpt>
      <trkpt lat="48.81496" lon="-0.35803">
        <ele>220</ele>
        <time>2017-06-11T10:32:54.000Z</time>
      </trkpt>
      <trkpt lat="48.81496" lon="-0.35803">
        <ele>220</ele>
        <time>2017-06-11T10:33:01.000Z</time>
      </trkpt>
      <trkpt lat="48.81491" lon="-0.358">
        <ele>220</ele>
        <time>2017-06-11T10:33:08.000Z</time>
      </trkpt>
      <trkpt lat="48.81481" lon="-0.35794">
        <ele>220.39999389648</ele>
        <time>2017-06-11T10:33:14.000Z</time>
      </trkpt>
      <trkpt lat="48.8148" lon="-0.35793">
        <ele>221</ele>
        <time>2017-06-11T10:33:15.000Z</time>
      </trkpt>
      <trkpt lat="48.81478" lon="-0.35793">
        <ele>221.80000305176</ele>
        <time>2017-06-11T10:33:16.000Z</time>
      </trkpt>
      <trkpt lat="48.81476" lon="-0.35793">
        <ele>222.19999694824</ele>
        <time>2017-06-11T10:33:17.000Z</time>
      </trkpt>
      <trkpt lat="48.81473" lon="-0.35793">
        <ele>222.19999694824</ele>
        <time>2017-06-11T10:33:22.000Z</time>
      </trkpt>
      <trkpt lat="48.81473" lon="-0.35793">
        <ele>222.19999694824</ele>
        <time>2017-06-11T10:33:28.000Z</time>
      </trkpt>
      <trkpt lat="48.81466" lon="-0.35788">
        <ele>222.19999694824</ele>
        <time>2017-06-11T10:33:34.000Z</time>
      </trkpt>
      <trkpt lat="48.81454" lon="-0.35777">
        <ele>222.60000610352</ele>
        <time>2017-06-11T10:33:39.000Z</time>
      </trkpt>
      <trkpt lat="48.81454" lon="-0.35775">
        <ele>223</ele>
        <time>2017-06-11T10:33:40.000Z</time>
      </trkpt>
      <trkpt lat="48.81452" lon="-0.35774">
        <ele>224</ele>
        <time>2017-06-11T10:33:41.000Z</time>
      </trkpt>
      <trkpt lat="48.81452" lon="-0.35772">
        <ele>224.39999389648</ele>
        <time>2017-06-11T10:33:42.000Z</time>
      </trkpt>
      <trkpt lat="48.81451" lon="-0.35769">
        <ele>224.39999389648</ele>
        <time>2017-06-11T10:33:43.000Z</time>
      </trkpt>
      <trkpt lat="48.81448" lon="-0.35762">
        <ele>224.39999389648</ele>
        <time>2017-06-11T10:33:45.000Z</time>
      </trkpt>
      <trkpt lat="48.81443" lon="-0.35739">
        <ele>224.39999389648</ele>
        <time>2017-06-11T10:33:50.000Z</time>
      </trkpt>
      <trkpt lat="48.81436" lon="-0.35735">
        <ele>224.80000305176</ele>
        <time>2017-06-11T10:33:54.000Z</time>
      </trkpt>
      <trkpt lat="48.81434" lon="-0.35735">
        <ele>225.39999389648</ele>
        <time>2017-06-11T10:33:55.000Z</time>
      </trkpt>
      <trkpt lat="48.81433" lon="-0.35733">
        <ele>225.80000305176</ele>
        <time>2017-06-11T10:33:56.000Z</time>
      </trkpt>
      <trkpt lat="48.81432" lon="-0.3573">
        <ele>226.19999694824</ele>
        <time>2017-06-11T10:33:57.000Z</time>
      </trkpt>
      <trkpt lat="48.81431" lon="-0.35728">
        <ele>226.80000305176</ele>
        <time>2017-06-11T10:33:58.000Z</time>
      </trkpt>
      <trkpt lat="48.81431" lon="-0.35721">
        <ele>226.80000305176</ele>
        <time>2017-06-11T10:34:00.000Z</time>
      </trkpt>
      <trkpt lat="48.8143" lon="-0.35712">
        <ele>226.80000305176</ele>
        <time>2017-06-11T10:34:02.000Z</time>
      </trkpt>
      <trkpt lat="48.81426" lon="-0.3569">
        <ele>226.80000305176</ele>
        <time>2017-06-11T10:34:06.000Z</time>
      </trkpt>
      <trkpt lat="48.81419" lon="-0.35657">
        <ele>226.80000305176</ele>
        <time>2017-06-11T10:34:12.000Z</time>
      </trkpt>
      <trkpt lat="48.81414" lon="-0.35638">
        <ele>226.80000305176</ele>
        <time>2017-06-11T10:34:15.000Z</time>
      </trkpt>
      <trkpt lat="48.81413" lon="-0.35632">
        <ele>226.80000305176</ele>
        <time>2017-06-11T10:34:16.000Z</time>
      </trkpt>
      <trkpt lat="48.81409" lon="-0.35613">
        <ele>226.80000305176</ele>
        <time>2017-06-11T10:34:21.000Z</time>
      </trkpt>
      <trkpt lat="48.81405" lon="-0.35597">
        <ele>226.80000305176</ele>
        <time>2017-06-11T10:34:26.000Z</time>
      </trkpt>
      <trkpt lat="48.81405" lon="-0.35588">
        <ele>226.80000305176</ele>
        <time>2017-06-11T10:34:28.000Z</time>
      </trkpt>
      <trkpt lat="48.81402" lon="-0.35573">
        <ele>226.80000305176</ele>
        <time>2017-06-11T10:34:31.000Z</time>
      </trkpt>
      <trkpt lat="48.81394" lon="-0.35543">
        <ele>226.80000305176</ele>
        <time>2017-06-11T10:34:37.000Z</time>
      </trkpt>
      <trkpt lat="48.81391" lon="-0.35533">
        <ele>227.19999694824</ele>
        <time>2017-06-11T10:34:39.000Z</time>
      </trkpt>
      <trkpt lat="48.8139" lon="-0.35529">
        <ele>227.60000610352</ele>
        <time>2017-06-11T10:34:40.000Z</time>
      </trkpt>
      <trkpt lat="48.81389" lon="-0.35525">
        <ele>228</ele>
        <time>2017-06-11T10:34:41.000Z</time>
      </trkpt>
      <trkpt lat="48.81388" lon="-0.35521">
        <ele>228.39999389648</ele>
        <time>2017-06-11T10:34:42.000Z</time>
      </trkpt>
      <trkpt lat="48.81387" lon="-0.35517">
        <ele>228.80000305176</ele>
        <time>2017-06-11T10:34:43.000Z</time>
      </trkpt>
      <trkpt lat="48.81386" lon="-0.35512">
        <ele>228.80000305176</ele>
        <time>2017-06-11T10:34:44.000Z</time>
      </trkpt>
      <trkpt lat="48.81381" lon="-0.35488">
        <ele>228.80000305176</ele>
        <time>2017-06-11T10:34:50.000Z</time>
      </trkpt>
      <trkpt lat="48.81372" lon="-0.35465">
        <ele>228.80000305176</ele>
        <time>2017-06-11T10:34:56.000Z</time>
      </trkpt>
      <trkpt lat="48.81364" lon="-0.35431">
        <ele>228.80000305176</ele>
        <time>2017-06-11T10:35:03.000Z</time>
      </trkpt>
      <trkpt lat="48.81363" lon="-0.35426">
        <ele>229.19999694824</ele>
        <time>2017-06-11T10:35:04.000Z</time>
      </trkpt>
      <trkpt lat="48.81363" lon="-0.35421">
        <ele>229.60000610352</ele>
        <time>2017-06-11T10:35:05.000Z</time>
      </trkpt>
      <trkpt lat="48.81362" lon="-0.35416">
        <ele>230</ele>
        <time>2017-06-11T10:35:06.000Z</time>
      </trkpt>
      <trkpt lat="48.81362" lon="-0.35411">
        <ele>230.39999389648</ele>
        <time>2017-06-11T10:35:07.000Z</time>
      </trkpt>
      <trkpt lat="48.81361" lon="-0.35407">
        <ele>230.80000305176</ele>
        <time>2017-06-11T10:35:08.000Z</time>
      </trkpt>
      <trkpt lat="48.81362" lon="-0.35395">
        <ele>230.80000305176</ele>
        <time>2017-06-11T10:35:11.000Z</time>
      </trkpt>
      <trkpt lat="48.81365" lon="-0.35386">
        <ele>230.80000305176</ele>
        <time>2017-06-11T10:35:13.000Z</time>
      </trkpt>
      <trkpt lat="48.8137" lon="-0.35372">
        <ele>230.80000305176</ele>
        <time>2017-06-11T10:35:18.000Z</time>
      </trkpt>
      <trkpt lat="48.81372" lon="-0.35371">
        <ele>230.80000305176</ele>
        <time>2017-06-11T10:35:19.000Z</time>
      </trkpt>
      <trkpt lat="48.81373" lon="-0.35369">
        <ele>230.80000305176</ele>
        <time>2017-06-11T10:35:20.000Z</time>
      </trkpt>
      <trkpt lat="48.81382" lon="-0.35359">
        <ele>230.80000305176</ele>
        <time>2017-06-11T10:35:25.000Z</time>
      </trkpt>
      <trkpt lat="48.81389" lon="-0.35353">
        <ele>230.39999389648</ele>
        <time>2017-06-11T10:35:28.000Z</time>
      </trkpt>
      <trkpt lat="48.8139" lon="-0.35351">
        <ele>230</ele>
        <time>2017-06-11T10:35:29.000Z</time>
      </trkpt>
      <trkpt lat="48.81392" lon="-0.3535">
        <ele>229.60000610352</ele>
        <time>2017-06-11T10:35:30.000Z</time>
      </trkpt>
      <trkpt lat="48.81393" lon="-0.35349">
        <ele>229.19999694824</ele>
        <time>2017-06-11T10:35:31.000Z</time>
      </trkpt>
      <trkpt lat="48.81394" lon="-0.35348">
        <ele>228.80000305176</ele>
        <time>2017-06-11T10:35:32.000Z</time>
      </trkpt>
      <trkpt lat="48.81407" lon="-0.35335">
        <ele>228.80000305176</ele>
        <time>2017-06-11T10:35:39.000Z</time>
      </trkpt>
      <trkpt lat="48.81417" lon="-0.35327">
        <ele>228</ele>
        <time>2017-06-11T10:35:44.000Z</time>
      </trkpt>
      <trkpt lat="48.81418" lon="-0.35326">
        <ele>227.60000610352</ele>
        <time>2017-06-11T10:35:45.000Z</time>
      </trkpt>
      <trkpt lat="48.81419" lon="-0.35326">
        <ele>227.19999694824</ele>
        <time>2017-06-11T10:35:46.000Z</time>
      </trkpt>
      <trkpt lat="48.81421" lon="-0.35324">
        <ele>226.60000610352</ele>
        <time>2017-06-11T10:35:47.000Z</time>
      </trkpt>
      <trkpt lat="48.81427" lon="-0.35322">
        <ele>226.60000610352</ele>
        <time>2017-06-11T10:35:51.000Z</time>
      </trkpt>
      <trkpt lat="48.81434" lon="-0.35318">
        <ele>226.60000610352</ele>
        <time>2017-06-11T10:35:57.000Z</time>
      </trkpt>
      <trkpt lat="48.81442" lon="-0.35312">
        <ele>226.19999694824</ele>
        <time>2017-06-11T10:36:00.000Z</time>
      </trkpt>
      <trkpt lat="48.81445" lon="-0.35309">
        <ele>225.80000305176</ele>
        <time>2017-06-11T10:36:01.000Z</time>
      </trkpt>
      <trkpt lat="48.81449" lon="-0.35307">
        <ele>225.39999389648</ele>
        <time>2017-06-11T10:36:02.000Z</time>
      </trkpt>
      <trkpt lat="48.81453" lon="-0.35305">
        <ele>225</ele>
        <time>2017-06-11T10:36:03.000Z</time>
      </trkpt>
      <trkpt lat="48.81456" lon="-0.35303">
        <ele>224.39999389648</ele>
        <time>2017-06-11T10:36:04.000Z</time>
      </trkpt>
      <trkpt lat="48.81467" lon="-0.35297">
        <ele>224</ele>
        <time>2017-06-11T10:36:07.000Z</time>
      </trkpt>
      <trkpt lat="48.81472" lon="-0.35296">
        <ele>223.60000610352</ele>
        <time>2017-06-11T10:36:08.000Z</time>
      </trkpt>
      <trkpt lat="48.81477" lon="-0.35295">
        <ele>222.80000305176</ele>
        <time>2017-06-11T10:36:09.000Z</time>
      </trkpt>
      <trkpt lat="48.81479" lon="-0.35295">
        <ele>222.39999389648</ele>
        <time>2017-06-11T10:36:10.000Z</time>
      </trkpt>
      <trkpt lat="48.81483" lon="-0.35295">
        <ele>222</ele>
        <time>2017-06-11T10:36:11.000Z</time>
      </trkpt>
      <trkpt lat="48.81485" lon="-0.35295">
        <ele>221.60000610352</ele>
        <time>2017-06-11T10:36:12.000Z</time>
      </trkpt>
      <trkpt lat="48.81489" lon="-0.35295">
        <ele>221.19999694824</ele>
        <time>2017-06-11T10:36:13.000Z</time>
      </trkpt>
      <trkpt lat="48.81491" lon="-0.35295">
        <ele>220.60000610352</ele>
        <time>2017-06-11T10:36:14.000Z</time>
      </trkpt>
      <trkpt lat="48.81493" lon="-0.35292">
        <ele>220.19999694824</ele>
        <time>2017-06-11T10:36:15.000Z</time>
      </trkpt>
      <trkpt lat="48.81494" lon="-0.35292">
        <ele>220.19999694824</ele>
        <time>2017-06-11T10:36:16.000Z</time>
      </trkpt>
      <trkpt lat="48.81498" lon="-0.35293">
        <ele>220.19999694824</ele>
        <time>2017-06-11T10:36:21.000Z</time>
      </trkpt>
      <trkpt lat="48.81503" lon="-0.35288">
        <ele>220.19999694824</ele>
        <time>2017-06-11T10:36:27.000Z</time>
      </trkpt>
      <trkpt lat="48.81517" lon="-0.35272">
        <ele>220.19999694824</ele>
        <time>2017-06-11T10:36:32.000Z</time>
      </trkpt>
      <trkpt lat="48.81525" lon="-0.35264">
        <ele>219.39999389648</ele>
        <time>2017-06-11T10:36:34.000Z</time>
      </trkpt>
      <trkpt lat="48.81529" lon="-0.35262">
        <ele>219</ele>
        <time>2017-06-11T10:36:35.000Z</time>
      </trkpt>
      <trkpt lat="48.81532" lon="-0.35258">
        <ele>218.60000610352</ele>
        <time>2017-06-11T10:36:36.000Z</time>
      </trkpt>
      <trkpt lat="48.81535" lon="-0.35256">
        <ele>218.19999694824</ele>
        <time>2017-06-11T10:36:37.000Z</time>
      </trkpt>
      <trkpt lat="48.81544" lon="-0.35248">
        <ele>217.60000610352</ele>
        <time>2017-06-11T10:36:39.000Z</time>
      </trkpt>
      <trkpt lat="48.81549" lon="-0.35244">
        <ele>217.19999694824</ele>
        <time>2017-06-11T10:36:40.000Z</time>
      </trkpt>
      <trkpt lat="48.81554" lon="-0.35241">
        <ele>216.80000305176</ele>
        <time>2017-06-11T10:36:41.000Z</time>
      </trkpt>
      <trkpt lat="48.81559" lon="-0.35236">
        <ele>216.19999694824</ele>
        <time>2017-06-11T10:36:42.000Z</time>
      </trkpt>
      <trkpt lat="48.81563" lon="-0.35232">
        <ele>215.80000305176</ele>
        <time>2017-06-11T10:36:43.000Z</time>
      </trkpt>
      <trkpt lat="48.81566" lon="-0.35227">
        <ele>215.80000305176</ele>
        <time>2017-06-11T10:36:44.000Z</time>
      </trkpt>
      <trkpt lat="48.81569" lon="-0.35224">
        <ele>215.80000305176</ele>
        <time>2017-06-11T10:36:45.000Z</time>
      </trkpt>
      <trkpt lat="48.81575" lon="-0.35217">
        <ele>215.39999389648</ele>
        <time>2017-06-11T10:36:47.000Z</time>
      </trkpt>
      <trkpt lat="48.81578" lon="-0.35215">
        <ele>214.80000305176</ele>
        <time>2017-06-11T10:36:48.000Z</time>
      </trkpt>
      <trkpt lat="48.8158" lon="-0.35213">
        <ele>214.39999389648</ele>
        <time>2017-06-11T10:36:49.000Z</time>
      </trkpt>
      <trkpt lat="48.81581" lon="-0.35211">
        <ele>214</ele>
        <time>2017-06-11T10:36:50.000Z</time>
      </trkpt>
      <trkpt lat="48.81583" lon="-0.35209">
        <ele>213.39999389648</ele>
        <time>2017-06-11T10:36:51.000Z</time>
      </trkpt>
      <trkpt lat="48.81596" lon="-0.35192">
        <ele>213.39999389648</ele>
        <time>2017-06-11T10:36:56.000Z</time>
      </trkpt>
      <trkpt lat="48.81606" lon="-0.35183">
        <ele>213.39999389648</ele>
        <time>2017-06-11T10:37:00.000Z</time>
      </trkpt>
      <trkpt lat="48.8162" lon="-0.35166">
        <ele>213.39999389648</ele>
        <time>2017-06-11T10:37:05.000Z</time>
      </trkpt>
      <trkpt lat="48.81626" lon="-0.35144">
        <ele>213.39999389648</ele>
        <time>2017-06-11T10:37:09.000Z</time>
      </trkpt>
      <trkpt lat="48.81627" lon="-0.35139">
        <ele>213.39999389648</ele>
        <time>2017-06-11T10:37:10.000Z</time>
      </trkpt>
      <trkpt lat="48.81639" lon="-0.35103">
        <ele>213.39999389648</ele>
        <time>2017-06-11T10:37:16.000Z</time>
      </trkpt>
      <trkpt lat="48.81652" lon="-0.35062">
        <ele>213.39999389648</ele>
        <time>2017-06-11T10:37:22.000Z</time>
      </trkpt>
      <trkpt lat="48.81655" lon="-0.35049">
        <ele>213</ele>
        <time>2017-06-11T10:37:24.000Z</time>
      </trkpt>
      <trkpt lat="48.81656" lon="-0.35042">
        <ele>212.60000610352</ele>
        <time>2017-06-11T10:37:25.000Z</time>
      </trkpt>
      <trkpt lat="48.81657" lon="-0.35035">
        <ele>212</ele>
        <time>2017-06-11T10:37:26.000Z</time>
      </trkpt>
      <trkpt lat="48.81658" lon="-0.35027">
        <ele>211.60000610352</ele>
        <time>2017-06-11T10:37:27.000Z</time>
      </trkpt>
      <trkpt lat="48.8166" lon="-0.3502">
        <ele>211</ele>
        <time>2017-06-11T10:37:28.000Z</time>
      </trkpt>
      <trkpt lat="48.81662" lon="-0.35005">
        <ele>210.60000610352</ele>
        <time>2017-06-11T10:37:30.000Z</time>
      </trkpt>
      <trkpt lat="48.81663" lon="-0.34996">
        <ele>210.19999694824</ele>
        <time>2017-06-11T10:37:31.000Z</time>
      </trkpt>
      <trkpt lat="48.81665" lon="-0.34986">
        <ele>209.80000305176</ele>
        <time>2017-06-11T10:37:32.000Z</time>
      </trkpt>
      <trkpt lat="48.81665" lon="-0.34976">
        <ele>209.39999389648</ele>
        <time>2017-06-11T10:37:33.000Z</time>
      </trkpt>
      <trkpt lat="48.81666" lon="-0.34967">
        <ele>208.80000305176</ele>
        <time>2017-06-11T10:37:34.000Z</time>
      </trkpt>
      <trkpt lat="48.81668" lon="-0.34959">
        <ele>208.39999389648</ele>
        <time>2017-06-11T10:37:35.000Z</time>
      </trkpt>
      <trkpt lat="48.81668" lon="-0.34952">
        <ele>207.80000305176</ele>
        <time>2017-06-11T10:37:36.000Z</time>
      </trkpt>
      <trkpt lat="48.81669" lon="-0.34945">
        <ele>207.19999694824</ele>
        <time>2017-06-11T10:37:37.000Z</time>
      </trkpt>
      <trkpt lat="48.8167" lon="-0.34938">
        <ele>206.60000610352</ele>
        <time>2017-06-11T10:37:38.000Z</time>
      </trkpt>
      <trkpt lat="48.81669" lon="-0.34928">
        <ele>206.60000610352</ele>
        <time>2017-06-11T10:37:39.000Z</time>
      </trkpt>
      <trkpt lat="48.81667" lon="-0.34911">
        <ele>206.19999694824</ele>
        <time>2017-06-11T10:37:41.000Z</time>
      </trkpt>
      <trkpt lat="48.81664" lon="-0.34902">
        <ele>205.60000610352</ele>
        <time>2017-06-11T10:37:42.000Z</time>
      </trkpt>
      <trkpt lat="48.81662" lon="-0.34895">
        <ele>205.19999694824</ele>
        <time>2017-06-11T10:37:43.000Z</time>
      </trkpt>
      <trkpt lat="48.81659" lon="-0.34888">
        <ele>204.80000305176</ele>
        <time>2017-06-11T10:37:44.000Z</time>
      </trkpt>
      <trkpt lat="48.81658" lon="-0.34882">
        <ele>204.19999694824</ele>
        <time>2017-06-11T10:37:45.000Z</time>
      </trkpt>
      <trkpt lat="48.81656" lon="-0.34875">
        <ele>203.60000610352</ele>
        <time>2017-06-11T10:37:46.000Z</time>
      </trkpt>
      <trkpt lat="48.81654" lon="-0.34868">
        <ele>203.19999694824</ele>
        <time>2017-06-11T10:37:47.000Z</time>
      </trkpt>
      <trkpt lat="48.81651" lon="-0.34861">
        <ele>202</ele>
        <time>2017-06-11T10:37:48.000Z</time>
      </trkpt>
      <trkpt lat="48.81648" lon="-0.34854">
        <ele>201.60000610352</ele>
        <time>2017-06-11T10:37:49.000Z</time>
      </trkpt>
      <trkpt lat="48.81646" lon="-0.34846">
        <ele>201.19999694824</ele>
        <time>2017-06-11T10:37:50.000Z</time>
      </trkpt>
      <trkpt lat="48.81643" lon="-0.34838">
        <ele>200.80000305176</ele>
        <time>2017-06-11T10:37:51.000Z</time>
      </trkpt>
      <trkpt lat="48.81641" lon="-0.34829">
        <ele>200.39999389648</ele>
        <time>2017-06-11T10:37:52.000Z</time>
      </trkpt>
      <trkpt lat="48.81639" lon="-0.3482">
        <ele>200</ele>
        <time>2017-06-11T10:37:53.000Z</time>
      </trkpt>
      <trkpt lat="48.81636" lon="-0.34811">
        <ele>199.39999389648</ele>
        <time>2017-06-11T10:37:54.000Z</time>
      </trkpt>
      <trkpt lat="48.81634" lon="-0.34802">
        <ele>199</ele>
        <time>2017-06-11T10:37:55.000Z</time>
      </trkpt>
      <trkpt lat="48.81631" lon="-0.34793">
        <ele>198.39999389648</ele>
        <time>2017-06-11T10:37:56.000Z</time>
      </trkpt>
      <trkpt lat="48.81628" lon="-0.34784">
        <ele>198</ele>
        <time>2017-06-11T10:37:57.000Z</time>
      </trkpt>
      <trkpt lat="48.81626" lon="-0.34776">
        <ele>197.39999389648</ele>
        <time>2017-06-11T10:37:58.000Z</time>
      </trkpt>
      <trkpt lat="48.81624" lon="-0.34769">
        <ele>197</ele>
        <time>2017-06-11T10:37:59.000Z</time>
      </trkpt>
      <trkpt lat="48.81621" lon="-0.34761">
        <ele>196.39999389648</ele>
        <time>2017-06-11T10:38:00.000Z</time>
      </trkpt>
      <trkpt lat="48.81617" lon="-0.34754">
        <ele>195.80000305176</ele>
        <time>2017-06-11T10:38:01.000Z</time>
      </trkpt>
      <trkpt lat="48.81614" lon="-0.34747">
        <ele>195.39999389648</ele>
        <time>2017-06-11T10:38:02.000Z</time>
      </trkpt>
      <trkpt lat="48.81611" lon="-0.34739">
        <ele>194.80000305176</ele>
        <time>2017-06-11T10:38:03.000Z</time>
      </trkpt>
      <trkpt lat="48.81608" lon="-0.34731">
        <ele>194.39999389648</ele>
        <time>2017-06-11T10:38:04.000Z</time>
      </trkpt>
      <trkpt lat="48.81603" lon="-0.34724">
        <ele>194</ele>
        <time>2017-06-11T10:38:05.000Z</time>
      </trkpt>
      <trkpt lat="48.81598" lon="-0.34716">
        <ele>193.39999389648</ele>
        <time>2017-06-11T10:38:06.000Z</time>
      </trkpt>
      <trkpt lat="48.81594" lon="-0.34709">
        <ele>193</ele>
        <time>2017-06-11T10:38:07.000Z</time>
      </trkpt>
      <trkpt lat="48.81583" lon="-0.34691">
        <ele>193</ele>
        <time>2017-06-11T10:38:10.000Z</time>
      </trkpt>
      <trkpt lat="48.8158" lon="-0.34684">
        <ele>193</ele>
        <time>2017-06-11T10:38:11.000Z</time>
      </trkpt>
      <trkpt lat="48.81575" lon="-0.34665">
        <ele>193</ele>
        <time>2017-06-11T10:38:14.000Z</time>
      </trkpt>
      <trkpt lat="48.81569" lon="-0.3465">
        <ele>193</ele>
        <time>2017-06-11T10:38:16.000Z</time>
      </trkpt>
      <trkpt lat="48.81559" lon="-0.3463">
        <ele>193</ele>
        <time>2017-06-11T10:38:19.000Z</time>
      </trkpt>
      <trkpt lat="48.81551" lon="-0.3462">
        <ele>193.39999389648</ele>
        <time>2017-06-11T10:38:21.000Z</time>
      </trkpt>
      <trkpt lat="48.81548" lon="-0.34617">
        <ele>193.80000305176</ele>
        <time>2017-06-11T10:38:22.000Z</time>
      </trkpt>
      <trkpt lat="48.81545" lon="-0.34613">
        <ele>194.19999694824</ele>
        <time>2017-06-11T10:38:23.000Z</time>
      </trkpt>
      <trkpt lat="48.81542" lon="-0.34608">
        <ele>194.60000610352</ele>
        <time>2017-06-11T10:38:24.000Z</time>
      </trkpt>
      <trkpt lat="48.8154" lon="-0.34604">
        <ele>195.19999694824</ele>
        <time>2017-06-11T10:38:25.000Z</time>
      </trkpt>
      <trkpt lat="48.81538" lon="-0.34599">
        <ele>195.19999694824</ele>
        <time>2017-06-11T10:38:26.000Z</time>
      </trkpt>
      <trkpt lat="48.81534" lon="-0.34585">
        <ele>195.19999694824</ele>
        <time>2017-06-11T10:38:29.000Z</time>
      </trkpt>
      <trkpt lat="48.81532" lon="-0.34582">
        <ele>195.19999694824</ele>
        <time>2017-06-11T10:38:30.000Z</time>
      </trkpt>
      <trkpt lat="48.81524" lon="-0.3457">
        <ele>195.19999694824</ele>
        <time>2017-06-11T10:38:33.000Z</time>
      </trkpt>
      <trkpt lat="48.81515" lon="-0.34554">
        <ele>195.19999694824</ele>
        <time>2017-06-11T10:38:37.000Z</time>
      </trkpt>
      <trkpt lat="48.81508" lon="-0.3454">
        <ele>195.60000610352</ele>
        <time>2017-06-11T10:38:40.000Z</time>
      </trkpt>
      <trkpt lat="48.81506" lon="-0.34534">
        <ele>196</ele>
        <time>2017-06-11T10:38:41.000Z</time>
      </trkpt>
      <trkpt lat="48.81504" lon="-0.34527">
        <ele>196.39999389648</ele>
        <time>2017-06-11T10:38:42.000Z</time>
      </trkpt>
      <trkpt lat="48.81501" lon="-0.34521">
        <ele>197</ele>
        <time>2017-06-11T10:38:43.000Z</time>
      </trkpt>
      <trkpt lat="48.815" lon="-0.34514">
        <ele>197.39999389648</ele>
        <time>2017-06-11T10:38:44.000Z</time>
      </trkpt>
      <trkpt lat="48.81497" lon="-0.34495">
        <ele>197.39999389648</ele>
        <time>2017-06-11T10:38:47.000Z</time>
      </trkpt>
      <trkpt lat="48.81487" lon="-0.34462">
        <ele>197.39999389648</ele>
        <time>2017-06-11T10:38:53.000Z</time>
      </trkpt>
      <trkpt lat="48.81477" lon="-0.34438">
        <ele>197.39999389648</ele>
        <time>2017-06-11T10:38:58.000Z</time>
      </trkpt>
      <trkpt lat="48.81464" lon="-0.34408">
        <ele>197.39999389648</ele>
        <time>2017-06-11T10:39:04.000Z</time>
      </trkpt>
      <trkpt lat="48.81454" lon="-0.34381">
        <ele>197.39999389648</ele>
        <time>2017-06-11T10:39:10.000Z</time>
      </trkpt>
      <trkpt lat="48.81443" lon="-0.34353">
        <ele>197.39999389648</ele>
        <time>2017-06-11T10:39:16.000Z</time>
      </trkpt>
      <trkpt lat="48.81438" lon="-0.34343">
        <ele>197.39999389648</ele>
        <time>2017-06-11T10:39:18.000Z</time>
      </trkpt>
      <trkpt lat="48.81431" lon="-0.34338">
        <ele>197.39999389648</ele>
        <time>2017-06-11T10:39:20.000Z</time>
      </trkpt>
      <trkpt lat="48.8142" lon="-0.34328">
        <ele>197.39999389648</ele>
        <time>2017-06-11T10:39:23.000Z</time>
      </trkpt>
      <trkpt lat="48.81417" lon="-0.34323">
        <ele>197.39999389648</ele>
        <time>2017-06-11T10:39:24.000Z</time>
      </trkpt>
      <trkpt lat="48.8141" lon="-0.34314">
        <ele>197.39999389648</ele>
        <time>2017-06-11T10:39:26.000Z</time>
      </trkpt>
      <trkpt lat="48.81391" lon="-0.34281">
        <ele>197.39999389648</ele>
        <time>2017-06-11T10:39:31.000Z</time>
      </trkpt>
      <trkpt lat="48.81388" lon="-0.34273">
        <ele>197.39999389648</ele>
        <time>2017-06-11T10:39:32.000Z</time>
      </trkpt>
      <trkpt lat="48.81381" lon="-0.34243">
        <ele>197.39999389648</ele>
        <time>2017-06-11T10:39:36.000Z</time>
      </trkpt>
      <trkpt lat="48.81372" lon="-0.34222">
        <ele>197.39999389648</ele>
        <time>2017-06-11T10:39:41.000Z</time>
      </trkpt>
      <trkpt lat="48.81362" lon="-0.3422">
        <ele>197.39999389648</ele>
        <time>2017-06-11T10:39:45.000Z</time>
      </trkpt>
      <trkpt lat="48.81345" lon="-0.34225">
        <ele>197.80000305176</ele>
        <time>2017-06-11T10:39:51.000Z</time>
      </trkpt>
      <trkpt lat="48.81343" lon="-0.34226">
        <ele>198.19999694824</ele>
        <time>2017-06-11T10:39:52.000Z</time>
      </trkpt>
      <trkpt lat="48.8134" lon="-0.34226">
        <ele>198.60000610352</ele>
        <time>2017-06-11T10:39:53.000Z</time>
      </trkpt>
      <trkpt lat="48.81338" lon="-0.34227">
        <ele>199.19999694824</ele>
        <time>2017-06-11T10:39:54.000Z</time>
      </trkpt>
      <trkpt lat="48.81335" lon="-0.34227">
        <ele>199.60000610352</ele>
        <time>2017-06-11T10:39:55.000Z</time>
      </trkpt>
      <trkpt lat="48.81327" lon="-0.34231">
        <ele>199.60000610352</ele>
        <time>2017-06-11T10:39:59.000Z</time>
      </trkpt>
      <trkpt lat="48.81323" lon="-0.34233">
        <ele>200</ele>
        <time>2017-06-11T10:40:01.000Z</time>
      </trkpt>
      <trkpt lat="48.81321" lon="-0.34234">
        <ele>200.39999389648</ele>
        <time>2017-06-11T10:40:02.000Z</time>
      </trkpt>
      <trkpt lat="48.81319" lon="-0.34235">
        <ele>200.80000305176</ele>
        <time>2017-06-11T10:40:03.000Z</time>
      </trkpt>
      <trkpt lat="48.81318" lon="-0.34236">
        <ele>201.39999389648</ele>
        <time>2017-06-11T10:40:04.000Z</time>
      </trkpt>
      <trkpt lat="48.81316" lon="-0.34236">
        <ele>201.80000305176</ele>
        <time>2017-06-11T10:40:05.000Z</time>
      </trkpt>
      <trkpt lat="48.81312" lon="-0.34239">
        <ele>201.80000305176</ele>
        <time>2017-06-11T10:40:08.000Z</time>
      </trkpt>
      <trkpt lat="48.81308" lon="-0.34242">
        <ele>202.19999694824</ele>
        <time>2017-06-11T10:40:11.000Z</time>
      </trkpt>
      <trkpt lat="48.81306" lon="-0.34243">
        <ele>202.60000610352</ele>
        <time>2017-06-11T10:40:12.000Z</time>
      </trkpt>
      <trkpt lat="48.81304" lon="-0.34244">
        <ele>203</ele>
        <time>2017-06-11T10:40:13.000Z</time>
      </trkpt>
      <trkpt lat="48.81302" lon="-0.34245">
        <ele>203.39999389648</ele>
        <time>2017-06-11T10:40:14.000Z</time>
      </trkpt>
      <trkpt lat="48.81301" lon="-0.34246">
        <ele>203.80000305176</ele>
        <time>2017-06-11T10:40:15.000Z</time>
      </trkpt>
      <trkpt lat="48.813" lon="-0.34248">
        <ele>203.80000305176</ele>
        <time>2017-06-11T10:40:16.000Z</time>
      </trkpt>
      <trkpt lat="48.81296" lon="-0.34249">
        <ele>204.39999389648</ele>
        <time>2017-06-11T10:40:18.000Z</time>
      </trkpt>
      <trkpt lat="48.81295" lon="-0.3425">
        <ele>204.80000305176</ele>
        <time>2017-06-11T10:40:19.000Z</time>
      </trkpt>
      <trkpt lat="48.81293" lon="-0.34251">
        <ele>205.19999694824</ele>
        <time>2017-06-11T10:40:20.000Z</time>
      </trkpt>
      <trkpt lat="48.81291" lon="-0.34253">
        <ele>205.60000610352</ele>
        <time>2017-06-11T10:40:21.000Z</time>
      </trkpt>
      <trkpt lat="48.8129" lon="-0.34253">
        <ele>206</ele>
        <time>2017-06-11T10:40:22.000Z</time>
      </trkpt>
      <trkpt lat="48.81288" lon="-0.34255">
        <ele>206</ele>
        <time>2017-06-11T10:40:23.000Z</time>
      </trkpt>
      <trkpt lat="48.8128" lon="-0.3426">
        <ele>206.39999389648</ele>
        <time>2017-06-11T10:40:28.000Z</time>
      </trkpt>
      <trkpt lat="48.81278" lon="-0.34261">
        <ele>206.80000305176</ele>
        <time>2017-06-11T10:40:29.000Z</time>
      </trkpt>
      <trkpt lat="48.81277" lon="-0.34262">
        <ele>207.19999694824</ele>
        <time>2017-06-11T10:40:30.000Z</time>
      </trkpt>
      <trkpt lat="48.81275" lon="-0.34263">
        <ele>207.80000305176</ele>
        <time>2017-06-11T10:40:31.000Z</time>
      </trkpt>
      <trkpt lat="48.81273" lon="-0.34263">
        <ele>208.19999694824</ele>
        <time>2017-06-11T10:40:32.000Z</time>
      </trkpt>
      <trkpt lat="48.81266" lon="-0.34265">
        <ele>208.60000610352</ele>
        <time>2017-06-11T10:40:36.000Z</time>
      </trkpt>
      <trkpt lat="48.81264" lon="-0.34265">
        <ele>209</ele>
        <time>2017-06-11T10:40:37.000Z</time>
      </trkpt>
      <trkpt lat="48.81262" lon="-0.34264">
        <ele>209.39999389648</ele>
        <time>2017-06-11T10:40:38.000Z</time>
      </trkpt>
      <trkpt lat="48.81261" lon="-0.34264">
        <ele>209.80000305176</ele>
        <time>2017-06-11T10:40:39.000Z</time>
      </trkpt>
      <trkpt lat="48.81259" lon="-0.34263">
        <ele>210.19999694824</ele>
        <time>2017-06-11T10:40:40.000Z</time>
      </trkpt>
      <trkpt lat="48.81251" lon="-0.34257">
        <ele>210.60000610352</ele>
        <time>2017-06-11T10:40:46.000Z</time>
      </trkpt>
      <trkpt lat="48.8125" lon="-0.34255">
        <ele>211.19999694824</ele>
        <time>2017-06-11T10:40:47.000Z</time>
      </trkpt>
      <trkpt lat="48.81249" lon="-0.34254">
        <ele>211.60000610352</ele>
        <time>2017-06-11T10:40:48.000Z</time>
      </trkpt>
      <trkpt lat="48.81249" lon="-0.34252">
        <ele>212</ele>
        <time>2017-06-11T10:40:49.000Z</time>
      </trkpt>
      <trkpt lat="48.81248" lon="-0.34251">
        <ele>212.39999389648</ele>
        <time>2017-06-11T10:40:50.000Z</time>
      </trkpt>
      <trkpt lat="48.81245" lon="-0.34246">
        <ele>212.39999389648</ele>
        <time>2017-06-11T10:40:53.000Z</time>
      </trkpt>
      <trkpt lat="48.81238" lon="-0.34238">
        <ele>212.39999389648</ele>
        <time>2017-06-11T10:40:59.000Z</time>
      </trkpt>
      <trkpt lat="48.81236" lon="-0.34238">
        <ele>212.80000305176</ele>
        <time>2017-06-11T10:41:00.000Z</time>
      </trkpt>
      <trkpt lat="48.81234" lon="-0.34236">
        <ele>213.19999694824</ele>
        <time>2017-06-11T10:41:01.000Z</time>
      </trkpt>
      <trkpt lat="48.81232" lon="-0.34235">
        <ele>213.60000610352</ele>
        <time>2017-06-11T10:41:02.000Z</time>
      </trkpt>
      <trkpt lat="48.8123" lon="-0.34234">
        <ele>214</ele>
        <time>2017-06-11T10:41:03.000Z</time>
      </trkpt>
      <trkpt lat="48.81228" lon="-0.34233">
        <ele>214.39999389648</ele>
        <time>2017-06-11T10:41:04.000Z</time>
      </trkpt>
      <trkpt lat="48.81226" lon="-0.34232">
        <ele>214.39999389648</ele>
        <time>2017-06-11T10:41:05.000Z</time>
      </trkpt>
      <trkpt lat="48.81207" lon="-0.34232">
        <ele>214.39999389648</ele>
        <time>2017-06-11T10:41:12.000Z</time>
      </trkpt>
      <trkpt lat="48.81191" lon="-0.34234">
        <ele>214.80000305176</ele>
        <time>2017-06-11T10:41:17.000Z</time>
      </trkpt>
      <trkpt lat="48.81188" lon="-0.34234">
        <ele>215.19999694824</ele>
        <time>2017-06-11T10:41:18.000Z</time>
      </trkpt>
      <trkpt lat="48.81185" lon="-0.34235">
        <ele>215.60000610352</ele>
        <time>2017-06-11T10:41:19.000Z</time>
      </trkpt>
      <trkpt lat="48.81181" lon="-0.34236">
        <ele>216</ele>
        <time>2017-06-11T10:41:20.000Z</time>
      </trkpt>
      <trkpt lat="48.81178" lon="-0.34236">
        <ele>216.60000610352</ele>
        <time>2017-06-11T10:41:21.000Z</time>
      </trkpt>
      <trkpt lat="48.81167" lon="-0.34238">
        <ele>216.60000610352</ele>
        <time>2017-06-11T10:41:25.000Z</time>
      </trkpt>
      <trkpt lat="48.81164" lon="-0.34236">
        <ele>216.60000610352</ele>
        <time>2017-06-11T10:41:27.000Z</time>
      </trkpt>
      <trkpt lat="48.81164" lon="-0.34232">
        <ele>216.60000610352</ele>
        <time>2017-06-11T10:41:28.000Z</time>
      </trkpt>
      <trkpt lat="48.81167" lon="-0.34219">
        <ele>216.60000610352</ele>
        <time>2017-06-11T10:41:32.000Z</time>
      </trkpt>
      <trkpt lat="48.81168" lon="-0.34216">
        <ele>216.60000610352</ele>
        <time>2017-06-11T10:41:33.000Z</time>
      </trkpt>
      <trkpt lat="48.81175" lon="-0.34194">
        <ele>216.60000610352</ele>
        <time>2017-06-11T10:41:39.000Z</time>
      </trkpt>
      <trkpt lat="48.81178" lon="-0.34163">
        <ele>216.60000610352</ele>
        <time>2017-06-11T10:41:46.000Z</time>
      </trkpt>
      <trkpt lat="48.8118" lon="-0.34136">
        <ele>216.60000610352</ele>
        <time>2017-06-11T10:41:51.000Z</time>
      </trkpt>
      <trkpt lat="48.81187" lon="-0.34107">
        <ele>216.60000610352</ele>
        <time>2017-06-11T10:41:58.000Z</time>
      </trkpt>
      <trkpt lat="48.81199" lon="-0.34089">
        <ele>216.60000610352</ele>
        <time>2017-06-11T10:42:04.000Z</time>
      </trkpt>
      <trkpt lat="48.81216" lon="-0.34068">
        <ele>216.60000610352</ele>
        <time>2017-06-11T10:42:12.000Z</time>
      </trkpt>
      <trkpt lat="48.8123" lon="-0.34044">
        <ele>216.60000610352</ele>
        <time>2017-06-11T10:42:19.000Z</time>
      </trkpt>
      <trkpt lat="48.81233" lon="-0.34034">
        <ele>216.60000610352</ele>
        <time>2017-06-11T10:42:23.000Z</time>
      </trkpt>
      <trkpt lat="48.81233" lon="-0.34034">
        <ele>216.60000610352</ele>
        <time>2017-06-11T10:42:28.000Z</time>
      </trkpt>
      <trkpt lat="48.81233" lon="-0.34032">
        <ele>216.60000610352</ele>
        <time>2017-06-11T10:42:30.000Z</time>
      </trkpt>
      <trkpt lat="48.81233" lon="-0.34032">
        <ele>216.60000610352</ele>
        <time>2017-06-11T10:42:33.000Z</time>
      </trkpt>
      <trkpt lat="48.81233" lon="-0.34031">
        <ele>216.60000610352</ele>
        <time>2017-06-11T10:42:38.000Z</time>
      </trkpt>
      <trkpt lat="48.81233" lon="-0.34029">
        <ele>216.60000610352</ele>
        <time>2017-06-11T10:42:39.000Z</time>
      </trkpt>
      <trkpt lat="48.81235" lon="-0.34019">
        <ele>216.60000610352</ele>
        <time>2017-06-11T10:42:44.000Z</time>
      </trkpt>
      <trkpt lat="48.81238" lon="-0.34007">
        <ele>216.60000610352</ele>
        <time>2017-06-11T10:42:47.000Z</time>
      </trkpt>
      <trkpt lat="48.8124" lon="-0.33998">
        <ele>216.60000610352</ele>
        <time>2017-06-11T10:42:49.000Z</time>
      </trkpt>
      <trkpt lat="48.81242" lon="-0.33987">
        <ele>216</ele>
        <time>2017-06-11T10:42:51.000Z</time>
      </trkpt>
      <trkpt lat="48.81243" lon="-0.33981">
        <ele>215.60000610352</ele>
        <time>2017-06-11T10:42:52.000Z</time>
      </trkpt>
      <trkpt lat="48.81244" lon="-0.33975">
        <ele>215.19999694824</ele>
        <time>2017-06-11T10:42:53.000Z</time>
      </trkpt>
      <trkpt lat="48.81245" lon="-0.33969">
        <ele>214.80000305176</ele>
        <time>2017-06-11T10:42:54.000Z</time>
      </trkpt>
      <trkpt lat="48.81246" lon="-0.33963">
        <ele>214.39999389648</ele>
        <time>2017-06-11T10:42:55.000Z</time>
      </trkpt>
      <trkpt lat="48.81243" lon="-0.33936">
        <ele>214.39999389648</ele>
        <time>2017-06-11T10:43:00.000Z</time>
      </trkpt>
      <trkpt lat="48.81243" lon="-0.33902">
        <ele>214.39999389648</ele>
        <time>2017-06-11T10:43:06.000Z</time>
      </trkpt>
      <trkpt lat="48.81243" lon="-0.33896">
        <ele>214</ele>
        <time>2017-06-11T10:43:07.000Z</time>
      </trkpt>
      <trkpt lat="48.81243" lon="-0.33889">
        <ele>213.19999694824</ele>
        <time>2017-06-11T10:43:08.000Z</time>
      </trkpt>
      <trkpt lat="48.81244" lon="-0.33883">
        <ele>212.80000305176</ele>
        <time>2017-06-11T10:43:09.000Z</time>
      </trkpt>
      <trkpt lat="48.81245" lon="-0.33876">
        <ele>212.39999389648</ele>
        <time>2017-06-11T10:43:10.000Z</time>
      </trkpt>
      <trkpt lat="48.81246" lon="-0.33868">
        <ele>212.39999389648</ele>
        <time>2017-06-11T10:43:11.000Z</time>
      </trkpt>
      <trkpt lat="48.81251" lon="-0.33823">
        <ele>212.39999389648</ele>
        <time>2017-06-11T10:43:17.000Z</time>
      </trkpt>
      <trkpt lat="48.81251" lon="-0.33815">
        <ele>212.39999389648</ele>
        <time>2017-06-11T10:43:18.000Z</time>
      </trkpt>
      <trkpt lat="48.81253" lon="-0.33803">
        <ele>212</ele>
        <time>2017-06-11T10:43:20.000Z</time>
      </trkpt>
      <trkpt lat="48.81254" lon="-0.33798">
        <ele>211.60000610352</ele>
        <time>2017-06-11T10:43:21.000Z</time>
      </trkpt>
      <trkpt lat="48.81256" lon="-0.33792">
        <ele>211</ele>
        <time>2017-06-11T10:43:22.000Z</time>
      </trkpt>
      <trkpt lat="48.81257" lon="-0.33787">
        <ele>210.60000610352</ele>
        <time>2017-06-11T10:43:23.000Z</time>
      </trkpt>
      <trkpt lat="48.81259" lon="-0.33781">
        <ele>210.19999694824</ele>
        <time>2017-06-11T10:43:24.000Z</time>
      </trkpt>
      <trkpt lat="48.81261" lon="-0.33776">
        <ele>209.80000305176</ele>
        <time>2017-06-11T10:43:25.000Z</time>
      </trkpt>
      <trkpt lat="48.81263" lon="-0.3377">
        <ele>209.39999389648</ele>
        <time>2017-06-11T10:43:26.000Z</time>
      </trkpt>
      <trkpt lat="48.81265" lon="-0.33766">
        <ele>209</ele>
        <time>2017-06-11T10:43:27.000Z</time>
      </trkpt>
      <trkpt lat="48.81266" lon="-0.33761">
        <ele>208.39999389648</ele>
        <time>2017-06-11T10:43:28.000Z</time>
      </trkpt>
      <trkpt lat="48.81267" lon="-0.33758">
        <ele>208</ele>
        <time>2017-06-11T10:43:29.000Z</time>
      </trkpt>
      <trkpt lat="48.81269" lon="-0.33754">
        <ele>207.39999389648</ele>
        <time>2017-06-11T10:43:30.000Z</time>
      </trkpt>
      <trkpt lat="48.81271" lon="-0.33751">
        <ele>206.80000305176</ele>
        <time>2017-06-11T10:43:31.000Z</time>
      </trkpt>
      <trkpt lat="48.81272" lon="-0.33746">
        <ele>205.80000305176</ele>
        <time>2017-06-11T10:43:32.000Z</time>
      </trkpt>
      <trkpt lat="48.81273" lon="-0.33741">
        <ele>205.39999389648</ele>
        <time>2017-06-11T10:43:33.000Z</time>
      </trkpt>
      <trkpt lat="48.81274" lon="-0.33736">
        <ele>204.80000305176</ele>
        <time>2017-06-11T10:43:34.000Z</time>
      </trkpt>
      <trkpt lat="48.81275" lon="-0.3373">
        <ele>204.39999389648</ele>
        <time>2017-06-11T10:43:35.000Z</time>
      </trkpt>
      <trkpt lat="48.81275" lon="-0.33725">
        <ele>204</ele>
        <time>2017-06-11T10:43:36.000Z</time>
      </trkpt>
      <trkpt lat="48.81276" lon="-0.33721">
        <ele>203.39999389648</ele>
        <time>2017-06-11T10:43:37.000Z</time>
      </trkpt>
      <trkpt lat="48.81277" lon="-0.33718">
        <ele>202.80000305176</ele>
        <time>2017-06-11T10:43:38.000Z</time>
      </trkpt>
      <trkpt lat="48.81278" lon="-0.33717">
        <ele>202.19999694824</ele>
        <time>2017-06-11T10:43:39.000Z</time>
      </trkpt>
      <trkpt lat="48.81278" lon="-0.33716">
        <ele>201.60000610352</ele>
        <time>2017-06-11T10:43:40.000Z</time>
      </trkpt>
      <trkpt lat="48.81278" lon="-0.33716">
        <ele>201</ele>
        <time>2017-06-11T10:43:41.000Z</time>
      </trkpt>
      <trkpt lat="48.81279" lon="-0.33714">
        <ele>201</ele>
        <time>2017-06-11T10:43:42.000Z</time>
      </trkpt>
      <trkpt lat="48.81283" lon="-0.33703">
        <ele>200.60000610352</ele>
        <time>2017-06-11T10:43:45.000Z</time>
      </trkpt>
      <trkpt lat="48.81284" lon="-0.337">
        <ele>200.19999694824</ele>
        <time>2017-06-11T10:43:46.000Z</time>
      </trkpt>
      <trkpt lat="48.81285" lon="-0.33697">
        <ele>199.80000305176</ele>
        <time>2017-06-11T10:43:47.000Z</time>
      </trkpt>
      <trkpt lat="48.81287" lon="-0.33694">
        <ele>199.19999694824</ele>
        <time>2017-06-11T10:43:48.000Z</time>
      </trkpt>
      <trkpt lat="48.81289" lon="-0.3369">
        <ele>198.80000305176</ele>
        <time>2017-06-11T10:43:49.000Z</time>
      </trkpt>
      <trkpt lat="48.8129" lon="-0.33687">
        <ele>198.19999694824</ele>
        <time>2017-06-11T10:43:50.000Z</time>
      </trkpt>
      <trkpt lat="48.81292" lon="-0.33684">
        <ele>197.60000610352</ele>
        <time>2017-06-11T10:43:51.000Z</time>
      </trkpt>
      <trkpt lat="48.81294" lon="-0.3368">
        <ele>197.19999694824</ele>
        <time>2017-06-11T10:43:52.000Z</time>
      </trkpt>
      <trkpt lat="48.81294" lon="-0.33674">
        <ele>196.60000610352</ele>
        <time>2017-06-11T10:43:53.000Z</time>
      </trkpt>
      <trkpt lat="48.81296" lon="-0.33668">
        <ele>196</ele>
        <time>2017-06-11T10:43:54.000Z</time>
      </trkpt>
      <trkpt lat="48.81297" lon="-0.33664">
        <ele>195.39999389648</ele>
        <time>2017-06-11T10:43:55.000Z</time>
      </trkpt>
      <trkpt lat="48.81298" lon="-0.33659">
        <ele>194.80000305176</ele>
        <time>2017-06-11T10:43:56.000Z</time>
      </trkpt>
      <trkpt lat="48.81299" lon="-0.33655">
        <ele>193.80000305176</ele>
        <time>2017-06-11T10:43:57.000Z</time>
      </trkpt>
      <trkpt lat="48.81301" lon="-0.33651">
        <ele>193.19999694824</ele>
        <time>2017-06-11T10:43:58.000Z</time>
      </trkpt>
      <trkpt lat="48.81302" lon="-0.33647">
        <ele>192.60000610352</ele>
        <time>2017-06-11T10:43:59.000Z</time>
      </trkpt>
      <trkpt lat="48.81303" lon="-0.33642">
        <ele>192.19999694824</ele>
        <time>2017-06-11T10:44:00.000Z</time>
      </trkpt>
      <trkpt lat="48.81306" lon="-0.33631">
        <ele>191.80000305176</ele>
        <time>2017-06-11T10:44:02.000Z</time>
      </trkpt>
      <trkpt lat="48.81306" lon="-0.33626">
        <ele>191.19999694824</ele>
        <time>2017-06-11T10:44:03.000Z</time>
      </trkpt>
      <trkpt lat="48.81307" lon="-0.33619">
        <ele>190.80000305176</ele>
        <time>2017-06-11T10:44:04.000Z</time>
      </trkpt>
      <trkpt lat="48.81308" lon="-0.33612">
        <ele>190.39999389648</ele>
        <time>2017-06-11T10:44:05.000Z</time>
      </trkpt>
      <trkpt lat="48.81309" lon="-0.33605">
        <ele>189.80000305176</ele>
        <time>2017-06-11T10:44:06.000Z</time>
      </trkpt>
      <trkpt lat="48.8131" lon="-0.33599">
        <ele>189.19999694824</ele>
        <time>2017-06-11T10:44:07.000Z</time>
      </trkpt>
      <trkpt lat="48.81311" lon="-0.33594">
        <ele>188.60000610352</ele>
        <time>2017-06-11T10:44:08.000Z</time>
      </trkpt>
      <trkpt lat="48.81312" lon="-0.33591">
        <ele>188</ele>
        <time>2017-06-11T10:44:09.000Z</time>
      </trkpt>
      <trkpt lat="48.81313" lon="-0.3359">
        <ele>187.39999389648</ele>
        <time>2017-06-11T10:44:10.000Z</time>
      </trkpt>
      <trkpt lat="48.81314" lon="-0.33588">
        <ele>187</ele>
        <time>2017-06-11T10:44:11.000Z</time>
      </trkpt>
      <trkpt lat="48.81315" lon="-0.33585">
        <ele>186.39999389648</ele>
        <time>2017-06-11T10:44:12.000Z</time>
      </trkpt>
      <trkpt lat="48.81315" lon="-0.33582">
        <ele>185.80000305176</ele>
        <time>2017-06-11T10:44:13.000Z</time>
      </trkpt>
      <trkpt lat="48.81315" lon="-0.33578">
        <ele>185.39999389648</ele>
        <time>2017-06-11T10:44:14.000Z</time>
      </trkpt>
      <trkpt lat="48.81313" lon="-0.3357">
        <ele>185.39999389648</ele>
        <time>2017-06-11T10:44:16.000Z</time>
      </trkpt>
      <trkpt lat="48.81307" lon="-0.33557">
        <ele>185.39999389648</ele>
        <time>2017-06-11T10:44:19.000Z</time>
      </trkpt>
      <trkpt lat="48.81304" lon="-0.33549">
        <ele>185.39999389648</ele>
        <time>2017-06-11T10:44:21.000Z</time>
      </trkpt>
      <trkpt lat="48.81292" lon="-0.33529">
        <ele>184.80000305176</ele>
        <time>2017-06-11T10:44:26.000Z</time>
      </trkpt>
      <trkpt lat="48.81288" lon="-0.33524">
        <ele>184.39999389648</ele>
        <time>2017-06-11T10:44:27.000Z</time>
      </trkpt>
      <trkpt lat="48.81285" lon="-0.33518">
        <ele>184</ele>
        <time>2017-06-11T10:44:28.000Z</time>
      </trkpt>
      <trkpt lat="48.81281" lon="-0.33512">
        <ele>183.39999389648</ele>
        <time>2017-06-11T10:44:29.000Z</time>
      </trkpt>
      <trkpt lat="48.81277" lon="-0.33506">
        <ele>183</ele>
        <time>2017-06-11T10:44:30.000Z</time>
      </trkpt>
      <trkpt lat="48.81273" lon="-0.335">
        <ele>183</ele>
        <time>2017-06-11T10:44:31.000Z</time>
      </trkpt>
      <trkpt lat="48.81259" lon="-0.33469">
        <ele>182.60000610352</ele>
        <time>2017-06-11T10:44:35.000Z</time>
      </trkpt>
      <trkpt lat="48.81256" lon="-0.3346">
        <ele>182.19999694824</ele>
        <time>2017-06-11T10:44:36.000Z</time>
      </trkpt>
      <trkpt lat="48.81254" lon="-0.33449">
        <ele>181.80000305176</ele>
        <time>2017-06-11T10:44:37.000Z</time>
      </trkpt>
      <trkpt lat="48.81252" lon="-0.33439">
        <ele>181.19999694824</ele>
        <time>2017-06-11T10:44:38.000Z</time>
      </trkpt>
      <trkpt lat="48.81252" lon="-0.33427">
        <ele>180.80000305176</ele>
        <time>2017-06-11T10:44:39.000Z</time>
      </trkpt>
      <trkpt lat="48.81253" lon="-0.33415">
        <ele>180.80000305176</ele>
        <time>2017-06-11T10:44:40.000Z</time>
      </trkpt>
      <trkpt lat="48.81254" lon="-0.33403">
        <ele>180.80000305176</ele>
        <time>2017-06-11T10:44:41.000Z</time>
      </trkpt>
      <trkpt lat="48.81256" lon="-0.33377">
        <ele>180.39999389648</ele>
        <time>2017-06-11T10:44:43.000Z</time>
      </trkpt>
      <trkpt lat="48.81255" lon="-0.33365">
        <ele>180</ele>
        <time>2017-06-11T10:44:44.000Z</time>
      </trkpt>
      <trkpt lat="48.81254" lon="-0.33354">
        <ele>179.39999389648</ele>
        <time>2017-06-11T10:44:45.000Z</time>
      </trkpt>
      <trkpt lat="48.81252" lon="-0.33344">
        <ele>178.60000610352</ele>
        <time>2017-06-11T10:44:46.000Z</time>
      </trkpt>
      <trkpt lat="48.8125" lon="-0.33336">
        <ele>178</ele>
        <time>2017-06-11T10:44:47.000Z</time>
      </trkpt>
      <trkpt lat="48.81247" lon="-0.33328">
        <ele>177.39999389648</ele>
        <time>2017-06-11T10:44:48.000Z</time>
      </trkpt>
      <trkpt lat="48.81244" lon="-0.33321">
        <ele>176.80000305176</ele>
        <time>2017-06-11T10:44:49.000Z</time>
      </trkpt>
      <trkpt lat="48.81241" lon="-0.33314">
        <ele>176.19999694824</ele>
        <time>2017-06-11T10:44:50.000Z</time>
      </trkpt>
      <trkpt lat="48.81238" lon="-0.33309">
        <ele>175.60000610352</ele>
        <time>2017-06-11T10:44:51.000Z</time>
      </trkpt>
      <trkpt lat="48.81236" lon="-0.33307">
        <ele>175</ele>
        <time>2017-06-11T10:44:52.000Z</time>
      </trkpt>
      <trkpt lat="48.81234" lon="-0.33306">
        <ele>174.39999389648</ele>
        <time>2017-06-11T10:44:53.000Z</time>
      </trkpt>
      <trkpt lat="48.81232" lon="-0.33307">
        <ele>174</ele>
        <time>2017-06-11T10:44:54.000Z</time>
      </trkpt>
      <trkpt lat="48.81232" lon="-0.33307">
        <ele>173.60000610352</ele>
        <time>2017-06-11T10:44:55.000Z</time>
      </trkpt>
      <trkpt lat="48.81232" lon="-0.33307">
        <ele>173.19999694824</ele>
        <time>2017-06-11T10:44:56.000Z</time>
      </trkpt>
      <trkpt lat="48.81232" lon="-0.33307">
        <ele>172.80000305176</ele>
        <time>2017-06-11T10:44:57.000Z</time>
      </trkpt>
      <trkpt lat="48.81232" lon="-0.33307">
        <ele>172.39999389648</ele>
        <time>2017-06-11T10:44:58.000Z</time>
      </trkpt>
      <trkpt lat="48.81234" lon="-0.33308">
        <ele>172.39999389648</ele>
        <time>2017-06-11T10:45:03.000Z</time>
      </trkpt>
      <trkpt lat="48.81238" lon="-0.33316">
        <ele>172.39999389648</ele>
        <time>2017-06-11T10:45:08.000Z</time>
      </trkpt>
      <trkpt lat="48.81244" lon="-0.33328">
        <ele>172.39999389648</ele>
        <time>2017-06-11T10:45:15.000Z</time>
      </trkpt>
      <trkpt lat="48.81249" lon="-0.33341">
        <ele>172.39999389648</ele>
        <time>2017-06-11T10:45:22.000Z</time>
      </trkpt>
      <trkpt lat="48.81251" lon="-0.3335">
        <ele>172.39999389648</ele>
        <time>2017-06-11T10:45:27.000Z</time>
      </trkpt>
      <trkpt lat="48.81251" lon="-0.3335">
        <ele>172.80000305176</ele>
        <time>2017-06-11T10:45:30.000Z</time>
      </trkpt>
      <trkpt lat="48.81251" lon="-0.3335">
        <ele>173.19999694824</ele>
        <time>2017-06-11T10:45:31.000Z</time>
      </trkpt>
      <trkpt lat="48.81251" lon="-0.3335">
        <ele>173.60000610352</ele>
        <time>2017-06-11T10:45:32.000Z</time>
      </trkpt>
      <trkpt lat="48.81251" lon="-0.3335">
        <ele>174</ele>
        <time>2017-06-11T10:45:33.000Z</time>
      </trkpt>
      <trkpt lat="48.81251" lon="-0.3335">
        <ele>174.39999389648</ele>
        <time>2017-06-11T10:45:34.000Z</time>
      </trkpt>
      <trkpt lat="48.8125" lon="-0.3335">
        <ele>174.39999389648</ele>
        <time>2017-06-11T10:45:38.000Z</time>
      </trkpt>
      <trkpt lat="48.8125" lon="-0.3335">
        <ele>174.39999389648</ele>
        <time>2017-06-11T10:45:45.000Z</time>
      </trkpt>
      <trkpt lat="48.8125" lon="-0.3335">
        <ele>174.39999389648</ele>
        <time>2017-06-11T10:46:01.000Z</time>
      </trkpt>
      <trkpt lat="48.81248" lon="-0.33349">
        <ele>174.39999389648</ele>
        <time>2017-06-11T10:46:11.000Z</time>
      </trkpt>
      <trkpt lat="48.81243" lon="-0.33345">
        <ele>174.39999389648</ele>
        <time>2017-06-11T10:46:18.000Z</time>
      </trkpt>
      <trkpt lat="48.81241" lon="-0.33343">
        <ele>174.80000305176</ele>
        <time>2017-06-11T10:46:22.000Z</time>
      </trkpt>
      <trkpt lat="48.8124" lon="-0.33342">
        <ele>175.19999694824</ele>
        <time>2017-06-11T10:46:23.000Z</time>
      </trkpt>
      <trkpt lat="48.81239" lon="-0.33341">
        <ele>175.80000305176</ele>
        <time>2017-06-11T10:46:24.000Z</time>
      </trkpt>
      <trkpt lat="48.81238" lon="-0.33341">
        <ele>176.60000610352</ele>
        <time>2017-06-11T10:46:25.000Z</time>
      </trkpt>
      <trkpt lat="48.81232" lon="-0.33336">
        <ele>177</ele>
        <time>2017-06-11T10:46:30.000Z</time>
      </trkpt>
      <trkpt lat="48.81231" lon="-0.33335">
        <ele>177.39999389648</ele>
        <time>2017-06-11T10:46:31.000Z</time>
      </trkpt>
      <trkpt lat="48.8123" lon="-0.33335">
        <ele>177.80000305176</ele>
        <time>2017-06-11T10:46:32.000Z</time>
      </trkpt>
      <trkpt lat="48.81229" lon="-0.33334">
        <ele>178.19999694824</ele>
        <time>2017-06-11T10:46:33.000Z</time>
      </trkpt>
      <trkpt lat="48.81228" lon="-0.33334">
        <ele>178.60000610352</ele>
        <time>2017-06-11T10:46:34.000Z</time>
      </trkpt>
      <trkpt lat="48.81217" lon="-0.33327">
        <ele>179</ele>
        <time>2017-06-11T10:46:40.000Z</time>
      </trkpt>
      <trkpt lat="48.81215" lon="-0.33326">
        <ele>179.39999389648</ele>
        <time>2017-06-11T10:46:41.000Z</time>
      </trkpt>
      <trkpt lat="48.81214" lon="-0.33326">
        <ele>180</ele>
        <time>2017-06-11T10:46:42.000Z</time>
      </trkpt>
      <trkpt lat="48.81212" lon="-0.33325">
        <ele>180.39999389648</ele>
        <time>2017-06-11T10:46:43.000Z</time>
      </trkpt>
      <trkpt lat="48.81211" lon="-0.33324">
        <ele>180.80000305176</ele>
        <time>2017-06-11T10:46:44.000Z</time>
      </trkpt>
      <trkpt lat="48.81204" lon="-0.3332">
        <ele>181.19999694824</ele>
        <time>2017-06-11T10:46:48.000Z</time>
      </trkpt>
      <trkpt lat="48.81203" lon="-0.33319">
        <ele>181.60000610352</ele>
        <time>2017-06-11T10:46:49.000Z</time>
      </trkpt>
      <trkpt lat="48.81202" lon="-0.33319">
        <ele>182.39999389648</ele>
        <time>2017-06-11T10:46:50.000Z</time>
      </trkpt>
      <trkpt lat="48.812" lon="-0.33319">
        <ele>182.80000305176</ele>
        <time>2017-06-11T10:46:51.000Z</time>
      </trkpt>
      <trkpt lat="48.81194" lon="-0.3332">
        <ele>183.19999694824</ele>
        <time>2017-06-11T10:46:55.000Z</time>
      </trkpt>
      <trkpt lat="48.81192" lon="-0.3332">
        <ele>183.60000610352</ele>
        <time>2017-06-11T10:46:56.000Z</time>
      </trkpt>
      <trkpt lat="48.81191" lon="-0.3332">
        <ele>184.19999694824</ele>
        <time>2017-06-11T10:46:57.000Z</time>
      </trkpt>
      <trkpt lat="48.81191" lon="-0.3332">
        <ele>184.60000610352</ele>
        <time>2017-06-11T10:46:58.000Z</time>
      </trkpt>
      <trkpt lat="48.81191" lon="-0.3332">
        <ele>185</ele>
        <time>2017-06-11T10:46:59.000Z</time>
      </trkpt>
      <trkpt lat="48.81191" lon="-0.3332">
        <ele>185</ele>
        <time>2017-06-11T10:47:00.000Z</time>
      </trkpt>
      <trkpt lat="48.81191" lon="-0.3332">
        <ele>185</ele>
        <time>2017-06-11T10:47:07.000Z</time>
      </trkpt>
      <trkpt lat="48.81187" lon="-0.33324">
        <ele>185</ele>
        <time>2017-06-11T10:47:13.000Z</time>
      </trkpt>
      <trkpt lat="48.81187" lon="-0.33325">
        <ele>185.39999389648</ele>
        <time>2017-06-11T10:47:14.000Z</time>
      </trkpt>
      <trkpt lat="48.81186" lon="-0.33326">
        <ele>186.19999694824</ele>
        <time>2017-06-11T10:47:15.000Z</time>
      </trkpt>
      <trkpt lat="48.81186" lon="-0.33326">
        <ele>186.60000610352</ele>
        <time>2017-06-11T10:47:16.000Z</time>
      </trkpt>
      <trkpt lat="48.81185" lon="-0.33327">
        <ele>187</ele>
        <time>2017-06-11T10:47:17.000Z</time>
      </trkpt>
      <trkpt lat="48.81185" lon="-0.33327">
        <ele>187</ele>
        <time>2017-06-11T10:47:20.000Z</time>
      </trkpt>
      <trkpt lat="48.81184" lon="-0.33328">
        <ele>187</ele>
        <time>2017-06-11T10:47:26.000Z</time>
      </trkpt>
      <trkpt lat="48.81181" lon="-0.3333">
        <ele>187</ele>
        <time>2017-06-11T10:47:33.000Z</time>
      </trkpt>
      <trkpt lat="48.81179" lon="-0.33332">
        <ele>187.39999389648</ele>
        <time>2017-06-11T10:47:36.000Z</time>
      </trkpt>
      <trkpt lat="48.81177" lon="-0.33333">
        <ele>187.80000305176</ele>
        <time>2017-06-11T10:47:37.000Z</time>
      </trkpt>
      <trkpt lat="48.81176" lon="-0.33334">
        <ele>188.39999389648</ele>
        <time>2017-06-11T10:47:38.000Z</time>
      </trkpt>
      <trkpt lat="48.81175" lon="-0.33335">
        <ele>189.19999694824</ele>
        <time>2017-06-11T10:47:39.000Z</time>
      </trkpt>
      <trkpt lat="48.81173" lon="-0.33335">
        <ele>189.19999694824</ele>
        <time>2017-06-11T10:47:41.000Z</time>
      </trkpt>
      <trkpt lat="48.81171" lon="-0.33337">
        <ele>189.19999694824</ele>
        <time>2017-06-11T10:47:45.000Z</time>
      </trkpt>
      <trkpt lat="48.81171" lon="-0.33337">
        <ele>189.19999694824</ele>
        <time>2017-06-11T10:47:48.000Z</time>
      </trkpt>
      <trkpt lat="48.81168" lon="-0.33338">
        <ele>189.60000610352</ele>
        <time>2017-06-11T10:47:53.000Z</time>
      </trkpt>
      <trkpt lat="48.81167" lon="-0.33338">
        <ele>190</ele>
        <time>2017-06-11T10:47:54.000Z</time>
      </trkpt>
      <trkpt lat="48.81167" lon="-0.33339">
        <ele>190.39999389648</ele>
        <time>2017-06-11T10:47:55.000Z</time>
      </trkpt>
      <trkpt lat="48.81166" lon="-0.33339">
        <ele>191</ele>
        <time>2017-06-11T10:47:56.000Z</time>
      </trkpt>
      <trkpt lat="48.81165" lon="-0.33339">
        <ele>191.39999389648</ele>
        <time>2017-06-11T10:47:57.000Z</time>
      </trkpt>
      <trkpt lat="48.81163" lon="-0.33341">
        <ele>191.39999389648</ele>
        <time>2017-06-11T10:48:01.000Z</time>
      </trkpt>
      <trkpt lat="48.81163" lon="-0.33341">
        <ele>191.39999389648</ele>
        <time>2017-06-11T10:48:14.000Z</time>
      </trkpt>
      <trkpt lat="48.81162" lon="-0.33341">
        <ele>191.39999389648</ele>
        <time>2017-06-11T10:48:26.000Z</time>
      </trkpt>
      <trkpt lat="48.81156" lon="-0.33344">
        <ele>191.80000305176</ele>
        <time>2017-06-11T10:48:30.000Z</time>
      </trkpt>
      <trkpt lat="48.81155" lon="-0.33344">
        <ele>192.19999694824</ele>
        <time>2017-06-11T10:48:31.000Z</time>
      </trkpt>
      <trkpt lat="48.81154" lon="-0.33344">
        <ele>192.60000610352</ele>
        <time>2017-06-11T10:48:32.000Z</time>
      </trkpt>
      <trkpt lat="48.81152" lon="-0.33343">
        <ele>193</ele>
        <time>2017-06-11T10:48:33.000Z</time>
      </trkpt>
      <trkpt lat="48.81151" lon="-0.33343">
        <ele>193.60000610352</ele>
        <time>2017-06-11T10:48:34.000Z</time>
      </trkpt>
      <trkpt lat="48.81141" lon="-0.33346">
        <ele>193.60000610352</ele>
        <time>2017-06-11T10:48:39.000Z</time>
      </trkpt>
      <trkpt lat="48.8114" lon="-0.33347">
        <ele>194</ele>
        <time>2017-06-11T10:48:40.000Z</time>
      </trkpt>
      <trkpt lat="48.81138" lon="-0.33347">
        <ele>194.39999389648</ele>
        <time>2017-06-11T10:48:41.000Z</time>
      </trkpt>
      <trkpt lat="48.81136" lon="-0.33348">
        <ele>194.80000305176</ele>
        <time>2017-06-11T10:48:42.000Z</time>
      </trkpt>
      <trkpt lat="48.81134" lon="-0.33348">
        <ele>195.19999694824</ele>
        <time>2017-06-11T10:48:43.000Z</time>
      </trkpt>
      <trkpt lat="48.81132" lon="-0.33349">
        <ele>195.60000610352</ele>
        <time>2017-06-11T10:48:44.000Z</time>
      </trkpt>
      <trkpt lat="48.8113" lon="-0.33349">
        <ele>195.60000610352</ele>
        <time>2017-06-11T10:48:45.000Z</time>
      </trkpt>
      <trkpt lat="48.81119" lon="-0.33352">
        <ele>196</ele>
        <time>2017-06-11T10:48:51.000Z</time>
      </trkpt>
      <trkpt lat="48.81117" lon="-0.33353">
        <ele>196.39999389648</ele>
        <time>2017-06-11T10:48:52.000Z</time>
      </trkpt>
      <trkpt lat="48.81116" lon="-0.33355">
        <ele>197.19999694824</ele>
        <time>2017-06-11T10:48:53.000Z</time>
      </trkpt>
      <trkpt lat="48.81114" lon="-0.33356">
        <ele>197.60000610352</ele>
        <time>2017-06-11T10:48:54.000Z</time>
      </trkpt>
      <trkpt lat="48.81108" lon="-0.33358">
        <ele>197.60000610352</ele>
        <time>2017-06-11T10:48:58.000Z</time>
      </trkpt>
      <trkpt lat="48.81104" lon="-0.33362">
        <ele>197.60000610352</ele>
        <time>2017-06-11T10:49:01.000Z</time>
      </trkpt>
      <trkpt lat="48.811" lon="-0.33365">
        <ele>197.60000610352</ele>
        <time>2017-06-11T10:49:04.000Z</time>
      </trkpt>
      <trkpt lat="48.81098" lon="-0.33366">
        <ele>198</ele>
        <time>2017-06-11T10:49:05.000Z</time>
      </trkpt>
      <trkpt lat="48.81097" lon="-0.33367">
        <ele>198.39999389648</ele>
        <time>2017-06-11T10:49:06.000Z</time>
      </trkpt>
      <trkpt lat="48.81096" lon="-0.33368">
        <ele>198.80000305176</ele>
        <time>2017-06-11T10:49:07.000Z</time>
      </trkpt>
      <trkpt lat="48.81094" lon="-0.33369">
        <ele>199.19999694824</ele>
        <time>2017-06-11T10:49:08.000Z</time>
      </trkpt>
      <trkpt lat="48.81093" lon="-0.3337">
        <ele>199.60000610352</ele>
        <time>2017-06-11T10:49:09.000Z</time>
      </trkpt>
      <trkpt lat="48.81091" lon="-0.33371">
        <ele>199.60000610352</ele>
        <time>2017-06-11T10:49:10.000Z</time>
      </trkpt>
      <trkpt lat="48.81078" lon="-0.33378">
        <ele>200.60000610352</ele>
        <time>2017-06-11T10:49:18.000Z</time>
      </trkpt>
      <trkpt lat="48.81076" lon="-0.33379">
        <ele>201</ele>
        <time>2017-06-11T10:49:19.000Z</time>
      </trkpt>
      <trkpt lat="48.81074" lon="-0.3338">
        <ele>201.39999389648</ele>
        <time>2017-06-11T10:49:20.000Z</time>
      </trkpt>
      <trkpt lat="48.81071" lon="-0.33382">
        <ele>201.80000305176</ele>
        <time>2017-06-11T10:49:21.000Z</time>
      </trkpt>
      <trkpt lat="48.81065" lon="-0.33386">
        <ele>201.80000305176</ele>
        <time>2017-06-11T10:49:24.000Z</time>
      </trkpt>
      <trkpt lat="48.81053" lon="-0.33396">
        <ele>201.80000305176</ele>
        <time>2017-06-11T10:49:30.000Z</time>
      </trkpt>
      <trkpt lat="48.81034" lon="-0.33411">
        <ele>202.19999694824</ele>
        <time>2017-06-11T10:49:38.000Z</time>
      </trkpt>
      <trkpt lat="48.81032" lon="-0.33413">
        <ele>202.60000610352</ele>
        <time>2017-06-11T10:49:39.000Z</time>
      </trkpt>
      <trkpt lat="48.81029" lon="-0.33415">
        <ele>203</ele>
        <time>2017-06-11T10:49:40.000Z</time>
      </trkpt>
      <trkpt lat="48.81027" lon="-0.33417">
        <ele>203.39999389648</ele>
        <time>2017-06-11T10:49:41.000Z</time>
      </trkpt>
      <trkpt lat="48.81024" lon="-0.33419">
        <ele>203.80000305176</ele>
        <time>2017-06-11T10:49:42.000Z</time>
      </trkpt>
      <trkpt lat="48.81016" lon="-0.33425">
        <ele>203.80000305176</ele>
        <time>2017-06-11T10:49:45.000Z</time>
      </trkpt>
      <trkpt lat="48.80999" lon="-0.33435">
        <ele>203.80000305176</ele>
        <time>2017-06-11T10:49:51.000Z</time>
      </trkpt>
      <trkpt lat="48.80982" lon="-0.33449">
        <ele>203.80000305176</ele>
        <time>2017-06-11T10:49:58.000Z</time>
      </trkpt>
      <trkpt lat="48.8097" lon="-0.33459">
        <ele>203.80000305176</ele>
        <time>2017-06-11T10:50:04.000Z</time>
      </trkpt>
      <trkpt lat="48.80951" lon="-0.33471">
        <ele>203.80000305176</ele>
        <time>2017-06-11T10:50:11.000Z</time>
      </trkpt>
      <trkpt lat="48.80933" lon="-0.33467">
        <ele>203.80000305176</ele>
        <time>2017-06-11T10:50:16.000Z</time>
      </trkpt>
      <trkpt lat="48.80915" lon="-0.33461">
        <ele>203.80000305176</ele>
        <time>2017-06-11T10:50:21.000Z</time>
      </trkpt>
      <trkpt lat="48.80896" lon="-0.33451">
        <ele>203.80000305176</ele>
        <time>2017-06-11T10:50:27.000Z</time>
      </trkpt>
      <trkpt lat="48.80877" lon="-0.33437">
        <ele>203.80000305176</ele>
        <time>2017-06-11T10:50:33.000Z</time>
      </trkpt>
      <trkpt lat="48.80868" lon="-0.33432">
        <ele>203.80000305176</ele>
        <time>2017-06-11T10:50:35.000Z</time>
      </trkpt>
      <trkpt lat="48.80861" lon="-0.3343">
        <ele>203.39999389648</ele>
        <time>2017-06-11T10:50:37.000Z</time>
      </trkpt>
      <trkpt lat="48.80859" lon="-0.33428">
        <ele>202.80000305176</ele>
        <time>2017-06-11T10:50:38.000Z</time>
      </trkpt>
      <trkpt lat="48.80857" lon="-0.33426">
        <ele>202.39999389648</ele>
        <time>2017-06-11T10:50:39.000Z</time>
      </trkpt>
      <trkpt lat="48.80855" lon="-0.33422">
        <ele>202</ele>
        <time>2017-06-11T10:50:40.000Z</time>
      </trkpt>
      <trkpt lat="48.80855" lon="-0.33417">
        <ele>201.60000610352</ele>
        <time>2017-06-11T10:50:41.000Z</time>
      </trkpt>
      <trkpt lat="48.80851" lon="-0.33399">
        <ele>201.60000610352</ele>
        <time>2017-06-11T10:50:44.000Z</time>
      </trkpt>
      <trkpt lat="48.80848" lon="-0.33394">
        <ele>201.60000610352</ele>
        <time>2017-06-11T10:50:45.000Z</time>
      </trkpt>
      <trkpt lat="48.80842" lon="-0.33383">
        <ele>201.60000610352</ele>
        <time>2017-06-11T10:50:47.000Z</time>
      </trkpt>
      <trkpt lat="48.80838" lon="-0.33371">
        <ele>201</ele>
        <time>2017-06-11T10:50:49.000Z</time>
      </trkpt>
      <trkpt lat="48.80837" lon="-0.33364">
        <ele>200.60000610352</ele>
        <time>2017-06-11T10:50:50.000Z</time>
      </trkpt>
      <trkpt lat="48.80837" lon="-0.33356">
        <ele>200.19999694824</ele>
        <time>2017-06-11T10:50:51.000Z</time>
      </trkpt>
      <trkpt lat="48.80836" lon="-0.33348">
        <ele>199.60000610352</ele>
        <time>2017-06-11T10:50:52.000Z</time>
      </trkpt>
      <trkpt lat="48.80836" lon="-0.3334">
        <ele>199.19999694824</ele>
        <time>2017-06-11T10:50:53.000Z</time>
      </trkpt>
      <trkpt lat="48.80836" lon="-0.33331">
        <ele>199.19999694824</ele>
        <time>2017-06-11T10:50:54.000Z</time>
      </trkpt>
      <trkpt lat="48.80833" lon="-0.33313">
        <ele>198.60000610352</ele>
        <time>2017-06-11T10:50:56.000Z</time>
      </trkpt>
      <trkpt lat="48.80832" lon="-0.33304">
        <ele>197.60000610352</ele>
        <time>2017-06-11T10:50:57.000Z</time>
      </trkpt>
      <trkpt lat="48.8083" lon="-0.33296">
        <ele>197.19999694824</ele>
        <time>2017-06-11T10:50:58.000Z</time>
      </trkpt>
      <trkpt lat="48.80829" lon="-0.33287">
        <ele>196.60000610352</ele>
        <time>2017-06-11T10:50:59.000Z</time>
      </trkpt>
      <trkpt lat="48.80827" lon="-0.33268">
        <ele>196.19999694824</ele>
        <time>2017-06-11T10:51:01.000Z</time>
      </trkpt>
      <trkpt lat="48.80826" lon="-0.33259">
        <ele>195.80000305176</ele>
        <time>2017-06-11T10:51:02.000Z</time>
      </trkpt>
      <trkpt lat="48.80824" lon="-0.3325">
        <ele>195.39999389648</ele>
        <time>2017-06-11T10:51:03.000Z</time>
      </trkpt>
      <trkpt lat="48.80822" lon="-0.33242">
        <ele>195</ele>
        <time>2017-06-11T10:51:04.000Z</time>
      </trkpt>
      <trkpt lat="48.8082" lon="-0.33235">
        <ele>194.60000610352</ele>
        <time>2017-06-11T10:51:05.000Z</time>
      </trkpt>
      <trkpt lat="48.80816" lon="-0.33223">
        <ele>194.19999694824</ele>
        <time>2017-06-11T10:51:07.000Z</time>
      </trkpt>
      <trkpt lat="48.80814" lon="-0.33219">
        <ele>193.80000305176</ele>
        <time>2017-06-11T10:51:08.000Z</time>
      </trkpt>
      <trkpt lat="48.80812" lon="-0.33213">
        <ele>193.39999389648</ele>
        <time>2017-06-11T10:51:09.000Z</time>
      </trkpt>
      <trkpt lat="48.80809" lon="-0.33207">
        <ele>193</ele>
        <time>2017-06-11T10:51:10.000Z</time>
      </trkpt>
      <trkpt lat="48.80808" lon="-0.332">
        <ele>192.60000610352</ele>
        <time>2017-06-11T10:51:11.000Z</time>
      </trkpt>
      <trkpt lat="48.80807" lon="-0.33193">
        <ele>192.60000610352</ele>
        <time>2017-06-11T10:51:12.000Z</time>
      </trkpt>
      <trkpt lat="48.80814" lon="-0.33174">
        <ele>192.60000610352</ele>
        <time>2017-06-11T10:51:15.000Z</time>
      </trkpt>
      <trkpt lat="48.8083" lon="-0.33151">
        <ele>192.60000610352</ele>
        <time>2017-06-11T10:51:19.000Z</time>
      </trkpt>
      <trkpt lat="48.80836" lon="-0.33128">
        <ele>192.60000610352</ele>
        <time>2017-06-11T10:51:22.000Z</time>
      </trkpt>
      <trkpt lat="48.80837" lon="-0.33121">
        <ele>192.60000610352</ele>
        <time>2017-06-11T10:51:23.000Z</time>
      </trkpt>
      <trkpt lat="48.80835" lon="-0.33104">
        <ele>192.60000610352</ele>
        <time>2017-06-11T10:51:26.000Z</time>
      </trkpt>
      <trkpt lat="48.80822" lon="-0.33079">
        <ele>192.60000610352</ele>
        <time>2017-06-11T10:51:30.000Z</time>
      </trkpt>
      <trkpt lat="48.80811" lon="-0.33059">
        <ele>192.60000610352</ele>
        <time>2017-06-11T10:51:33.000Z</time>
      </trkpt>
      <trkpt lat="48.80804" lon="-0.3304">
        <ele>192</ele>
        <time>2017-06-11T10:51:35.000Z</time>
      </trkpt>
      <trkpt lat="48.80802" lon="-0.3303">
        <ele>191.60000610352</ele>
        <time>2017-06-11T10:51:36.000Z</time>
      </trkpt>
      <trkpt lat="48.80799" lon="-0.3302">
        <ele>191.19999694824</ele>
        <time>2017-06-11T10:51:37.000Z</time>
      </trkpt>
      <trkpt lat="48.80798" lon="-0.33009">
        <ele>190.60000610352</ele>
        <time>2017-06-11T10:51:38.000Z</time>
      </trkpt>
      <trkpt lat="48.80796" lon="-0.32999">
        <ele>190</ele>
        <time>2017-06-11T10:51:39.000Z</time>
      </trkpt>
      <trkpt lat="48.80795" lon="-0.32989">
        <ele>189.19999694824</ele>
        <time>2017-06-11T10:51:40.000Z</time>
      </trkpt>
      <trkpt lat="48.80795" lon="-0.3298">
        <ele>188.60000610352</ele>
        <time>2017-06-11T10:51:41.000Z</time>
      </trkpt>
      <trkpt lat="48.80794" lon="-0.32969">
        <ele>187.80000305176</ele>
        <time>2017-06-11T10:51:42.000Z</time>
      </trkpt>
      <trkpt lat="48.80793" lon="-0.32959">
        <ele>187.19999694824</ele>
        <time>2017-06-11T10:51:43.000Z</time>
      </trkpt>
      <trkpt lat="48.80792" lon="-0.32949">
        <ele>186.39999389648</ele>
        <time>2017-06-11T10:51:44.000Z</time>
      </trkpt>
      <trkpt lat="48.80792" lon="-0.3294">
        <ele>185.80000305176</ele>
        <time>2017-06-11T10:51:45.000Z</time>
      </trkpt>
      <trkpt lat="48.80793" lon="-0.32931">
        <ele>185</ele>
        <time>2017-06-11T10:51:46.000Z</time>
      </trkpt>
      <trkpt lat="48.80796" lon="-0.32917">
        <ele>184.60000610352</ele>
        <time>2017-06-11T10:51:48.000Z</time>
      </trkpt>
      <trkpt lat="48.80797" lon="-0.32913">
        <ele>184</ele>
        <time>2017-06-11T10:51:49.000Z</time>
      </trkpt>
      <trkpt lat="48.80799" lon="-0.3291">
        <ele>183.60000610352</ele>
        <time>2017-06-11T10:51:50.000Z</time>
      </trkpt>
      <trkpt lat="48.808" lon="-0.32908">
        <ele>183.19999694824</ele>
        <time>2017-06-11T10:51:51.000Z</time>
      </trkpt>
      <trkpt lat="48.80801" lon="-0.32906">
        <ele>182.60000610352</ele>
        <time>2017-06-11T10:51:52.000Z</time>
      </trkpt>
      <trkpt lat="48.80806" lon="-0.32897">
        <ele>182.60000610352</ele>
        <time>2017-06-11T10:51:57.000Z</time>
      </trkpt>
      <trkpt lat="48.80814" lon="-0.32885">
        <ele>182.60000610352</ele>
        <time>2017-06-11T10:52:03.000Z</time>
      </trkpt>
      <trkpt lat="48.80824" lon="-0.3287">
        <ele>182.19999694824</ele>
        <time>2017-06-11T10:52:09.000Z</time>
      </trkpt>
      <trkpt lat="48.80827" lon="-0.32866">
        <ele>181.80000305176</ele>
        <time>2017-06-11T10:52:10.000Z</time>
      </trkpt>
      <trkpt lat="48.8083" lon="-0.32862">
        <ele>181</ele>
        <time>2017-06-11T10:52:11.000Z</time>
      </trkpt>
      <trkpt lat="48.80833" lon="-0.32858">
        <ele>180.39999389648</ele>
        <time>2017-06-11T10:52:12.000Z</time>
      </trkpt>
      <trkpt lat="48.80849" lon="-0.3284">
        <ele>180.39999389648</ele>
        <time>2017-06-11T10:52:17.000Z</time>
      </trkpt>
      <trkpt lat="48.80853" lon="-0.32837">
        <ele>180</ele>
        <time>2017-06-11T10:52:18.000Z</time>
      </trkpt>
      <trkpt lat="48.80856" lon="-0.32834">
        <ele>179.60000610352</ele>
        <time>2017-06-11T10:52:19.000Z</time>
      </trkpt>
      <trkpt lat="48.80858" lon="-0.3283">
        <ele>179</ele>
        <time>2017-06-11T10:52:20.000Z</time>
      </trkpt>
      <trkpt lat="48.80862" lon="-0.32827">
        <ele>178.60000610352</ele>
        <time>2017-06-11T10:52:21.000Z</time>
      </trkpt>
      <trkpt lat="48.80865" lon="-0.32823">
        <ele>178.19999694824</ele>
        <time>2017-06-11T10:52:22.000Z</time>
      </trkpt>
      <trkpt lat="48.80868" lon="-0.32819">
        <ele>178.19999694824</ele>
        <time>2017-06-11T10:52:23.000Z</time>
      </trkpt>
      <trkpt lat="48.80876" lon="-0.32806">
        <ele>177.60000610352</ele>
        <time>2017-06-11T10:52:25.000Z</time>
      </trkpt>
      <trkpt lat="48.80881" lon="-0.32799">
        <ele>177.19999694824</ele>
        <time>2017-06-11T10:52:26.000Z</time>
      </trkpt>
      <trkpt lat="48.80885" lon="-0.32792">
        <ele>176.80000305176</ele>
        <time>2017-06-11T10:52:27.000Z</time>
      </trkpt>
      <trkpt lat="48.80889" lon="-0.32785">
        <ele>176.19999694824</ele>
        <time>2017-06-11T10:52:28.000Z</time>
      </trkpt>
      <trkpt lat="48.80894" lon="-0.32779">
        <ele>175.60000610352</ele>
        <time>2017-06-11T10:52:29.000Z</time>
      </trkpt>
      <trkpt lat="48.80898" lon="-0.32773">
        <ele>175.19999694824</ele>
        <time>2017-06-11T10:52:30.000Z</time>
      </trkpt>
      <trkpt lat="48.80904" lon="-0.32767">
        <ele>174.60000610352</ele>
        <time>2017-06-11T10:52:31.000Z</time>
      </trkpt>
      <trkpt lat="48.80909" lon="-0.32761">
        <ele>174</ele>
        <time>2017-06-11T10:52:32.000Z</time>
      </trkpt>
      <trkpt lat="48.80915" lon="-0.32755">
        <ele>173.39999389648</ele>
        <time>2017-06-11T10:52:33.000Z</time>
      </trkpt>
      <trkpt lat="48.8092" lon="-0.3275">
        <ele>172.80000305176</ele>
        <time>2017-06-11T10:52:34.000Z</time>
      </trkpt>
      <trkpt lat="48.80925" lon="-0.32746">
        <ele>172</ele>
        <time>2017-06-11T10:52:35.000Z</time>
      </trkpt>
      <trkpt lat="48.80931" lon="-0.32742">
        <ele>170.80000305176</ele>
        <time>2017-06-11T10:52:36.000Z</time>
      </trkpt>
      <trkpt lat="48.80936" lon="-0.32739">
        <ele>170.39999389648</ele>
        <time>2017-06-11T10:52:37.000Z</time>
      </trkpt>
      <trkpt lat="48.8094" lon="-0.32735">
        <ele>169.80000305176</ele>
        <time>2017-06-11T10:52:38.000Z</time>
      </trkpt>
      <trkpt lat="48.80945" lon="-0.32732">
        <ele>169.19999694824</ele>
        <time>2017-06-11T10:52:39.000Z</time>
      </trkpt>
      <trkpt lat="48.80948" lon="-0.3273">
        <ele>168.60000610352</ele>
        <time>2017-06-11T10:52:40.000Z</time>
      </trkpt>
      <trkpt lat="48.80958" lon="-0.32722">
        <ele>168.60000610352</ele>
        <time>2017-06-11T10:52:43.000Z</time>
      </trkpt>
      <trkpt lat="48.80967" lon="-0.32709">
        <ele>168.19999694824</ele>
        <time>2017-06-11T10:52:46.000Z</time>
      </trkpt>
      <trkpt lat="48.80971" lon="-0.32705">
        <ele>167.80000305176</ele>
        <time>2017-06-11T10:52:47.000Z</time>
      </trkpt>
      <trkpt lat="48.80974" lon="-0.32701">
        <ele>167.39999389648</ele>
        <time>2017-06-11T10:52:48.000Z</time>
      </trkpt>
      <trkpt lat="48.80978" lon="-0.32697">
        <ele>167</ele>
        <time>2017-06-11T10:52:49.000Z</time>
      </trkpt>
      <trkpt lat="48.80982" lon="-0.32693">
        <ele>166.60000610352</ele>
        <time>2017-06-11T10:52:50.000Z</time>
      </trkpt>
      <trkpt lat="48.81001" lon="-0.32673">
        <ele>166.60000610352</ele>
        <time>2017-06-11T10:52:55.000Z</time>
      </trkpt>
      <trkpt lat="48.81013" lon="-0.32659">
        <ele>166</ele>
        <time>2017-06-11T10:52:58.000Z</time>
      </trkpt>
      <trkpt lat="48.81017" lon="-0.32654">
        <ele>165.60000610352</ele>
        <time>2017-06-11T10:52:59.000Z</time>
      </trkpt>
      <trkpt lat="48.8102" lon="-0.32649">
        <ele>164.60000610352</ele>
        <time>2017-06-11T10:53:00.000Z</time>
      </trkpt>
      <trkpt lat="48.81023" lon="-0.32645">
        <ele>164</ele>
        <time>2017-06-11T10:53:01.000Z</time>
      </trkpt>
      <trkpt lat="48.81026" lon="-0.32637">
        <ele>163.60000610352</ele>
        <time>2017-06-11T10:53:03.000Z</time>
      </trkpt>
      <trkpt lat="48.81028" lon="-0.32634">
        <ele>163.19999694824</ele>
        <time>2017-06-11T10:53:04.000Z</time>
      </trkpt>
      <trkpt lat="48.81029" lon="-0.32631">
        <ele>162.80000305176</ele>
        <time>2017-06-11T10:53:05.000Z</time>
      </trkpt>
      <trkpt lat="48.81029" lon="-0.32628">
        <ele>162.39999389648</ele>
        <time>2017-06-11T10:53:06.000Z</time>
      </trkpt>
      <trkpt lat="48.8103" lon="-0.32625">
        <ele>162</ele>
        <time>2017-06-11T10:53:07.000Z</time>
      </trkpt>
      <trkpt lat="48.8103" lon="-0.32623">
        <ele>162</ele>
        <time>2017-06-11T10:53:08.000Z</time>
      </trkpt>
      <trkpt lat="48.81032" lon="-0.32624">
        <ele>162</ele>
        <time>2017-06-11T10:53:13.000Z</time>
      </trkpt>
      <trkpt lat="48.81031" lon="-0.32622">
        <ele>162</ele>
        <time>2017-06-11T10:53:17.000Z</time>
      </trkpt>
      <trkpt lat="48.81031" lon="-0.32618">
        <ele>162</ele>
        <time>2017-06-11T10:53:23.000Z</time>
      </trkpt>
      <trkpt lat="48.81025" lon="-0.32602">
        <ele>161.60000610352</ele>
        <time>2017-06-11T10:53:29.000Z</time>
      </trkpt>
      <trkpt lat="48.81023" lon="-0.32598">
        <ele>161.19999694824</ele>
        <time>2017-06-11T10:53:30.000Z</time>
      </trkpt>
      <trkpt lat="48.81022" lon="-0.32593">
        <ele>160.80000305176</ele>
        <time>2017-06-11T10:53:31.000Z</time>
      </trkpt>
      <trkpt lat="48.8102" lon="-0.32587">
        <ele>160.39999389648</ele>
        <time>2017-06-11T10:53:32.000Z</time>
      </trkpt>
      <trkpt lat="48.81018" lon="-0.32582">
        <ele>160</ele>
        <time>2017-06-11T10:53:33.000Z</time>
      </trkpt>
      <trkpt lat="48.81017" lon="-0.32577">
        <ele>160</ele>
        <time>2017-06-11T10:53:34.000Z</time>
      </trkpt>
      <trkpt lat="48.81012" lon="-0.32552">
        <ele>159.60000610352</ele>
        <time>2017-06-11T10:53:39.000Z</time>
      </trkpt>
      <trkpt lat="48.81011" lon="-0.32547">
        <ele>159.19999694824</ele>
        <time>2017-06-11T10:53:40.000Z</time>
      </trkpt>
      <trkpt lat="48.81011" lon="-0.32543">
        <ele>158.60000610352</ele>
        <time>2017-06-11T10:53:41.000Z</time>
      </trkpt>
      <trkpt lat="48.8101" lon="-0.32538">
        <ele>158.19999694824</ele>
        <time>2017-06-11T10:53:42.000Z</time>
      </trkpt>
      <trkpt lat="48.8101" lon="-0.32533">
        <ele>157.80000305176</ele>
        <time>2017-06-11T10:53:43.000Z</time>
      </trkpt>
      <trkpt lat="48.81007" lon="-0.32522">
        <ele>157.80000305176</ele>
        <time>2017-06-11T10:53:45.000Z</time>
      </trkpt>
      <trkpt lat="48.80996" lon="-0.32509">
        <ele>157.39999389648</ele>
        <time>2017-06-11T10:53:49.000Z</time>
      </trkpt>
      <trkpt lat="48.80994" lon="-0.3251">
        <ele>156.39999389648</ele>
        <time>2017-06-11T10:53:50.000Z</time>
      </trkpt>
      <trkpt lat="48.80992" lon="-0.32511">
        <ele>156</ele>
        <time>2017-06-11T10:53:51.000Z</time>
      </trkpt>
      <trkpt lat="48.80989" lon="-0.32513">
        <ele>155.60000610352</ele>
        <time>2017-06-11T10:53:52.000Z</time>
      </trkpt>
      <trkpt lat="48.80988" lon="-0.32515">
        <ele>155.60000610352</ele>
        <time>2017-06-11T10:53:53.000Z</time>
      </trkpt>
      <trkpt lat="48.80987" lon="-0.32518">
        <ele>155.60000610352</ele>
        <time>2017-06-11T10:53:57.000Z</time>
      </trkpt>
      <trkpt lat="48.80987" lon="-0.32516">
        <ele>155.60000610352</ele>
        <time>2017-06-11T10:54:01.000Z</time>
      </trkpt>
      <trkpt lat="48.80989" lon="-0.32511">
        <ele>155.60000610352</ele>
        <time>2017-06-11T10:54:03.000Z</time>
      </trkpt>
      <trkpt lat="48.80996" lon="-0.32505">
        <ele>155.60000610352</ele>
        <time>2017-06-11T10:54:09.000Z</time>
      </trkpt>
      <trkpt lat="48.81001" lon="-0.32509">
        <ele>155.60000610352</ele>
        <time>2017-06-11T10:54:13.000Z</time>
      </trkpt>
      <trkpt lat="48.81005" lon="-0.32512">
        <ele>155.60000610352</ele>
        <time>2017-06-11T10:54:16.000Z</time>
      </trkpt>
      <trkpt lat="48.81008" lon="-0.32517">
        <ele>155.60000610352</ele>
        <time>2017-06-11T10:54:22.000Z</time>
      </trkpt>
      <trkpt lat="48.81008" lon="-0.32517">
        <ele>155.60000610352</ele>
        <time>2017-06-11T10:54:27.000Z</time>
      </trkpt>
      <trkpt lat="48.81007" lon="-0.32516">
        <ele>155.60000610352</ele>
        <time>2017-06-11T10:54:35.000Z</time>
      </trkpt>
      <trkpt lat="48.81006" lon="-0.32515">
        <ele>155.60000610352</ele>
        <time>2017-06-11T10:54:36.000Z</time>
      </trkpt>
      <trkpt lat="48.80999" lon="-0.32508">
        <ele>155.60000610352</ele>
        <time>2017-06-11T10:54:40.000Z</time>
      </trkpt>
      <trkpt lat="48.80989" lon="-0.32512">
        <ele>155.60000610352</ele>
        <time>2017-06-11T10:54:44.000Z</time>
      </trkpt>
      <trkpt lat="48.80979" lon="-0.32533">
        <ele>155.60000610352</ele>
        <time>2017-06-11T10:54:48.000Z</time>
      </trkpt>
      <trkpt lat="48.80976" lon="-0.32539">
        <ele>155</ele>
        <time>2017-06-11T10:54:49.000Z</time>
      </trkpt>
      <trkpt lat="48.80973" lon="-0.32545">
        <ele>154.60000610352</ele>
        <time>2017-06-11T10:54:50.000Z</time>
      </trkpt>
      <trkpt lat="48.8097" lon="-0.32552">
        <ele>154.19999694824</ele>
        <time>2017-06-11T10:54:51.000Z</time>
      </trkpt>
      <trkpt lat="48.80966" lon="-0.32559">
        <ele>153.80000305176</ele>
        <time>2017-06-11T10:54:52.000Z</time>
      </trkpt>
      <trkpt lat="48.80963" lon="-0.32565">
        <ele>153.39999389648</ele>
        <time>2017-06-11T10:54:53.000Z</time>
      </trkpt>
      <trkpt lat="48.80959" lon="-0.32572">
        <ele>152.80000305176</ele>
        <time>2017-06-11T10:54:54.000Z</time>
      </trkpt>
      <trkpt lat="48.80956" lon="-0.32578">
        <ele>152.39999389648</ele>
        <time>2017-06-11T10:54:55.000Z</time>
      </trkpt>
      <trkpt lat="48.80953" lon="-0.32584">
        <ele>152</ele>
        <time>2017-06-11T10:54:56.000Z</time>
      </trkpt>
      <trkpt lat="48.80949" lon="-0.32589">
        <ele>151.60000610352</ele>
        <time>2017-06-11T10:54:57.000Z</time>
      </trkpt>
      <trkpt lat="48.80945" lon="-0.32595">
        <ele>151</ele>
        <time>2017-06-11T10:54:58.000Z</time>
      </trkpt>
      <trkpt lat="48.80941" lon="-0.326">
        <ele>150.60000610352</ele>
        <time>2017-06-11T10:54:59.000Z</time>
      </trkpt>
      <trkpt lat="48.80937" lon="-0.32605">
        <ele>150.19999694824</ele>
        <time>2017-06-11T10:55:00.000Z</time>
      </trkpt>
      <trkpt lat="48.80933" lon="-0.3261">
        <ele>149.80000305176</ele>
        <time>2017-06-11T10:55:01.000Z</time>
      </trkpt>
      <trkpt lat="48.80929" lon="-0.32615">
        <ele>149.39999389648</ele>
        <time>2017-06-11T10:55:02.000Z</time>
      </trkpt>
      <trkpt lat="48.80925" lon="-0.32619">
        <ele>148.19999694824</ele>
        <time>2017-06-11T10:55:03.000Z</time>
      </trkpt>
      <trkpt lat="48.80921" lon="-0.32622">
        <ele>147.80000305176</ele>
        <time>2017-06-11T10:55:04.000Z</time>
      </trkpt>
      <trkpt lat="48.80917" lon="-0.32625">
        <ele>147.19999694824</ele>
        <time>2017-06-11T10:55:05.000Z</time>
      </trkpt>
      <trkpt lat="48.80914" lon="-0.32627">
        <ele>146.80000305176</ele>
        <time>2017-06-11T10:55:06.000Z</time>
      </trkpt>
      <trkpt lat="48.80911" lon="-0.32629">
        <ele>146.19999694824</ele>
        <time>2017-06-11T10:55:07.000Z</time>
      </trkpt>
      <trkpt lat="48.80908" lon="-0.32632">
        <ele>145.80000305176</ele>
        <time>2017-06-11T10:55:08.000Z</time>
      </trkpt>
      <trkpt lat="48.80904" lon="-0.32635">
        <ele>145.19999694824</ele>
        <time>2017-06-11T10:55:09.000Z</time>
      </trkpt>
      <trkpt lat="48.809" lon="-0.32638">
        <ele>144.80000305176</ele>
        <time>2017-06-11T10:55:10.000Z</time>
      </trkpt>
      <trkpt lat="48.80883" lon="-0.32651">
        <ele>144.19999694824</ele>
        <time>2017-06-11T10:55:14.000Z</time>
      </trkpt>
      <trkpt lat="48.80879" lon="-0.32654">
        <ele>143.80000305176</ele>
        <time>2017-06-11T10:55:15.000Z</time>
      </trkpt>
      <trkpt lat="48.80875" lon="-0.32656">
        <ele>143.39999389648</ele>
        <time>2017-06-11T10:55:16.000Z</time>
      </trkpt>
      <trkpt lat="48.80871" lon="-0.32657">
        <ele>142.80000305176</ele>
        <time>2017-06-11T10:55:17.000Z</time>
      </trkpt>
      <trkpt lat="48.80867" lon="-0.32659">
        <ele>142.39999389648</ele>
        <time>2017-06-11T10:55:18.000Z</time>
      </trkpt>
      <trkpt lat="48.80863" lon="-0.3266">
        <ele>142</ele>
        <time>2017-06-11T10:55:19.000Z</time>
      </trkpt>
      <trkpt lat="48.80859" lon="-0.32661">
        <ele>141.60000610352</ele>
        <time>2017-06-11T10:55:20.000Z</time>
      </trkpt>
      <trkpt lat="48.80856" lon="-0.32661">
        <ele>141.19999694824</ele>
        <time>2017-06-11T10:55:21.000Z</time>
      </trkpt>
      <trkpt lat="48.80852" lon="-0.32661">
        <ele>140.80000305176</ele>
        <time>2017-06-11T10:55:22.000Z</time>
      </trkpt>
      <trkpt lat="48.80848" lon="-0.32661">
        <ele>140.39999389648</ele>
        <time>2017-06-11T10:55:23.000Z</time>
      </trkpt>
      <trkpt lat="48.80843" lon="-0.32662">
        <ele>139.80000305176</ele>
        <time>2017-06-11T10:55:24.000Z</time>
      </trkpt>
      <trkpt lat="48.80839" lon="-0.32662">
        <ele>139.39999389648</ele>
        <time>2017-06-11T10:55:25.000Z</time>
      </trkpt>
      <trkpt lat="48.80834" lon="-0.32662">
        <ele>139</ele>
        <time>2017-06-11T10:55:26.000Z</time>
      </trkpt>
      <trkpt lat="48.80831" lon="-0.3266">
        <ele>138.60000610352</ele>
        <time>2017-06-11T10:55:27.000Z</time>
      </trkpt>
      <trkpt lat="48.80828" lon="-0.32659">
        <ele>138.19999694824</ele>
        <time>2017-06-11T10:55:28.000Z</time>
      </trkpt>
      <trkpt lat="48.80822" lon="-0.32657">
        <ele>137.60000610352</ele>
        <time>2017-06-11T10:55:30.000Z</time>
      </trkpt>
      <trkpt lat="48.8082" lon="-0.32655">
        <ele>137.19999694824</ele>
        <time>2017-06-11T10:55:31.000Z</time>
      </trkpt>
      <trkpt lat="48.80817" lon="-0.32652">
        <ele>136.60000610352</ele>
        <time>2017-06-11T10:55:32.000Z</time>
      </trkpt>
      <trkpt lat="48.80816" lon="-0.3265">
        <ele>136.19999694824</ele>
        <time>2017-06-11T10:55:33.000Z</time>
      </trkpt>
      <trkpt lat="48.80814" lon="-0.32649">
        <ele>135.60000610352</ele>
        <time>2017-06-11T10:55:34.000Z</time>
      </trkpt>
      <trkpt lat="48.80813" lon="-0.32648">
        <ele>135.19999694824</ele>
        <time>2017-06-11T10:55:35.000Z</time>
      </trkpt>
      <trkpt lat="48.80813" lon="-0.32648">
        <ele>134.80000305176</ele>
        <time>2017-06-11T10:55:36.000Z</time>
      </trkpt>
      <trkpt lat="48.80813" lon="-0.32648">
        <ele>134.39999389648</ele>
        <time>2017-06-11T10:55:37.000Z</time>
      </trkpt>
      <trkpt lat="48.80813" lon="-0.32648">
        <ele>134</ele>
        <time>2017-06-11T10:55:38.000Z</time>
      </trkpt>
      <trkpt lat="48.80813" lon="-0.32646">
        <ele>133.60000610352</ele>
        <time>2017-06-11T10:55:39.000Z</time>
      </trkpt>
      <trkpt lat="48.80813" lon="-0.32645">
        <ele>133.60000610352</ele>
        <time>2017-06-11T10:55:43.000Z</time>
      </trkpt>
      <trkpt lat="48.80813" lon="-0.32645">
        <ele>133.60000610352</ele>
        <time>2017-06-11T10:55:58.000Z</time>
      </trkpt>
      <trkpt lat="48.80813" lon="-0.32645">
        <ele>133.60000610352</ele>
        <time>2017-06-11T10:56:15.000Z</time>
      </trkpt>
      <trkpt lat="48.80813" lon="-0.32645">
        <ele>133.60000610352</ele>
        <time>2017-06-11T10:56:30.000Z</time>
      </trkpt>
      <trkpt lat="48.80813" lon="-0.32645">
        <ele>133.60000610352</ele>
        <time>2017-06-11T10:56:47.000Z</time>
      </trkpt>
      <trkpt lat="48.80813" lon="-0.32645">
        <ele>133.60000610352</ele>
        <time>2017-06-11T10:57:02.000Z</time>
      </trkpt>
      <trkpt lat="48.80813" lon="-0.32645">
        <ele>133.60000610352</ele>
        <time>2017-06-11T10:57:16.000Z</time>
      </trkpt>
      <trkpt lat="48.80813" lon="-0.32645">
        <ele>133.60000610352</ele>
        <time>2017-06-11T10:57:31.000Z</time>
      </trkpt>
      <trkpt lat="48.80813" lon="-0.32645">
        <ele>133.60000610352</ele>
        <time>2017-06-11T10:57:42.000Z</time>
      </trkpt>
      <trkpt lat="48.80813" lon="-0.32645">
        <ele>133.60000610352</ele>
        <time>2017-06-11T10:57:50.000Z</time>
      </trkpt>
      <trkpt lat="48.80813" lon="-0.32642">
        <ele>133.60000610352</ele>
        <time>2017-06-11T10:57:53.000Z</time>
      </trkpt>
      <trkpt lat="48.80816" lon="-0.32638">
        <ele>133.60000610352</ele>
        <time>2017-06-11T10:57:55.000Z</time>
      </trkpt>
      <trkpt lat="48.80821" lon="-0.32636">
        <ele>133.19999694824</ele>
        <time>2017-06-11T10:57:57.000Z</time>
      </trkpt>
      <trkpt lat="48.80825" lon="-0.32635">
        <ele>132.80000305176</ele>
        <time>2017-06-11T10:57:58.000Z</time>
      </trkpt>
      <trkpt lat="48.80828" lon="-0.32634">
        <ele>132.19999694824</ele>
        <time>2017-06-11T10:57:59.000Z</time>
      </trkpt>
      <trkpt lat="48.80832" lon="-0.32632">
        <ele>131.80000305176</ele>
        <time>2017-06-11T10:58:00.000Z</time>
      </trkpt>
      <trkpt lat="48.80836" lon="-0.3263">
        <ele>131.39999389648</ele>
        <time>2017-06-11T10:58:01.000Z</time>
      </trkpt>
      <trkpt lat="48.80839" lon="-0.32627">
        <ele>131</ele>
        <time>2017-06-11T10:58:02.000Z</time>
      </trkpt>
      <trkpt lat="48.80843" lon="-0.32625">
        <ele>130.60000610352</ele>
        <time>2017-06-11T10:58:03.000Z</time>
      </trkpt>
      <trkpt lat="48.80846" lon="-0.32623">
        <ele>130.19999694824</ele>
        <time>2017-06-11T10:58:04.000Z</time>
      </trkpt>
      <trkpt lat="48.8085" lon="-0.3262">
        <ele>129.80000305176</ele>
        <time>2017-06-11T10:58:05.000Z</time>
      </trkpt>
      <trkpt lat="48.80854" lon="-0.32616">
        <ele>129.39999389648</ele>
        <time>2017-06-11T10:58:06.000Z</time>
      </trkpt>
      <trkpt lat="48.80857" lon="-0.32611">
        <ele>129</ele>
        <time>2017-06-11T10:58:07.000Z</time>
      </trkpt>
      <trkpt lat="48.80861" lon="-0.32606">
        <ele>128.60000610352</ele>
        <time>2017-06-11T10:58:08.000Z</time>
      </trkpt>
      <trkpt lat="48.80864" lon="-0.32601">
        <ele>128.19999694824</ele>
        <time>2017-06-11T10:58:09.000Z</time>
      </trkpt>
      <trkpt lat="48.80867" lon="-0.32596">
        <ele>127.80000305176</ele>
        <time>2017-06-11T10:58:10.000Z</time>
      </trkpt>
      <trkpt lat="48.8087" lon="-0.32593">
        <ele>127.40000152588</ele>
        <time>2017-06-11T10:58:11.000Z</time>
      </trkpt>
      <trkpt lat="48.80873" lon="-0.32589">
        <ele>126.80000305176</ele>
        <time>2017-06-11T10:58:12.000Z</time>
      </trkpt>
      <trkpt lat="48.80875" lon="-0.32585">
        <ele>126.40000152588</ele>
        <time>2017-06-11T10:58:13.000Z</time>
      </trkpt>
      <trkpt lat="48.80877" lon="-0.32582">
        <ele>126</ele>
        <time>2017-06-11T10:58:14.000Z</time>
      </trkpt>
      <trkpt lat="48.80879" lon="-0.32578">
        <ele>125.59999847412</ele>
        <time>2017-06-11T10:58:15.000Z</time>
      </trkpt>
      <trkpt lat="48.80881" lon="-0.32573">
        <ele>125.19999694824</ele>
        <time>2017-06-11T10:58:16.000Z</time>
      </trkpt>
      <trkpt lat="48.80883" lon="-0.32567">
        <ele>125.19999694824</ele>
        <time>2017-06-11T10:58:17.000Z</time>
      </trkpt>
      <trkpt lat="48.80886" lon="-0.32562">
        <ele>124.80000305176</ele>
        <time>2017-06-11T10:58:18.000Z</time>
      </trkpt>
      <trkpt lat="48.80888" lon="-0.32556">
        <ele>124.40000152588</ele>
        <time>2017-06-11T10:58:19.000Z</time>
      </trkpt>
      <trkpt lat="48.80891" lon="-0.32549">
        <ele>124</ele>
        <time>2017-06-11T10:58:20.000Z</time>
      </trkpt>
      <trkpt lat="48.80893" lon="-0.32542">
        <ele>123.19999694824</ele>
        <time>2017-06-11T10:58:21.000Z</time>
      </trkpt>
      <trkpt lat="48.80898" lon="-0.32529">
        <ele>123.19999694824</ele>
        <time>2017-06-11T10:58:23.000Z</time>
      </trkpt>
      <trkpt lat="48.80904" lon="-0.32492">
        <ele>123.19999694824</ele>
        <time>2017-06-11T10:58:28.000Z</time>
      </trkpt>
      <trkpt lat="48.80905" lon="-0.32484">
        <ele>122.59999847412</ele>
        <time>2017-06-11T10:58:29.000Z</time>
      </trkpt>
      <trkpt lat="48.80906" lon="-0.32477">
        <ele>122.19999694824</ele>
        <time>2017-06-11T10:58:30.000Z</time>
      </trkpt>
      <trkpt lat="48.80907" lon="-0.32469">
        <ele>121.80000305176</ele>
        <time>2017-06-11T10:58:31.000Z</time>
      </trkpt>
      <trkpt lat="48.80907" lon="-0.3246">
        <ele>121.40000152588</ele>
        <time>2017-06-11T10:58:32.000Z</time>
      </trkpt>
      <trkpt lat="48.80908" lon="-0.32452">
        <ele>121</ele>
        <time>2017-06-11T10:58:33.000Z</time>
      </trkpt>
      <trkpt lat="48.80909" lon="-0.32443">
        <ele>121</ele>
        <time>2017-06-11T10:58:34.000Z</time>
      </trkpt>
      <trkpt lat="48.80909" lon="-0.32433">
        <ele>121</ele>
        <time>2017-06-11T10:58:35.000Z</time>
      </trkpt>
      <trkpt lat="48.80909" lon="-0.32424">
        <ele>120.59999847412</ele>
        <time>2017-06-11T10:58:36.000Z</time>
      </trkpt>
      <trkpt lat="48.80908" lon="-0.32416">
        <ele>120</ele>
        <time>2017-06-11T10:58:37.000Z</time>
      </trkpt>
      <trkpt lat="48.80908" lon="-0.32408">
        <ele>119.59999847412</ele>
        <time>2017-06-11T10:58:38.000Z</time>
      </trkpt>
      <trkpt lat="48.80907" lon="-0.32401">
        <ele>119.19999694824</ele>
        <time>2017-06-11T10:58:39.000Z</time>
      </trkpt>
      <trkpt lat="48.80907" lon="-0.32394">
        <ele>118.59999847412</ele>
        <time>2017-06-11T10:58:40.000Z</time>
      </trkpt>
      <trkpt lat="48.80906" lon="-0.32373">
        <ele>118.19999694824</ele>
        <time>2017-06-11T10:58:43.000Z</time>
      </trkpt>
      <trkpt lat="48.80906" lon="-0.32366">
        <ele>117.59999847412</ele>
        <time>2017-06-11T10:58:44.000Z</time>
      </trkpt>
      <trkpt lat="48.80907" lon="-0.32361">
        <ele>117.19999694824</ele>
        <time>2017-06-11T10:58:45.000Z</time>
      </trkpt>
      <trkpt lat="48.80908" lon="-0.32355">
        <ele>116.19999694824</ele>
        <time>2017-06-11T10:58:46.000Z</time>
      </trkpt>
      <trkpt lat="48.8091" lon="-0.3235">
        <ele>115.59999847412</ele>
        <time>2017-06-11T10:58:47.000Z</time>
      </trkpt>
      <trkpt lat="48.80913" lon="-0.32345">
        <ele>115</ele>
        <time>2017-06-11T10:58:48.000Z</time>
      </trkpt>
      <trkpt lat="48.80918" lon="-0.32339">
        <ele>114.59999847412</ele>
        <time>2017-06-11T10:58:49.000Z</time>
      </trkpt>
      <trkpt lat="48.80922" lon="-0.32333">
        <ele>114</ele>
        <time>2017-06-11T10:58:50.000Z</time>
      </trkpt>
      <trkpt lat="48.80926" lon="-0.32327">
        <ele>113.40000152588</ele>
        <time>2017-06-11T10:58:51.000Z</time>
      </trkpt>
      <trkpt lat="48.8093" lon="-0.32321">
        <ele>112.80000305176</ele>
        <time>2017-06-11T10:58:52.000Z</time>
      </trkpt>
      <trkpt lat="48.80934" lon="-0.32315">
        <ele>112.19999694824</ele>
        <time>2017-06-11T10:58:53.000Z</time>
      </trkpt>
      <trkpt lat="48.80938" lon="-0.3231">
        <ele>111.59999847412</ele>
        <time>2017-06-11T10:58:54.000Z</time>
      </trkpt>
      <trkpt lat="48.80941" lon="-0.32305">
        <ele>111</ele>
        <time>2017-06-11T10:58:55.000Z</time>
      </trkpt>
      <trkpt lat="48.80945" lon="-0.32301">
        <ele>110.40000152588</ele>
        <time>2017-06-11T10:58:56.000Z</time>
      </trkpt>
      <trkpt lat="48.80949" lon="-0.32298">
        <ele>109.80000305176</ele>
        <time>2017-06-11T10:58:57.000Z</time>
      </trkpt>
      <trkpt lat="48.80952" lon="-0.32295">
        <ele>109.19999694824</ele>
        <time>2017-06-11T10:58:58.000Z</time>
      </trkpt>
      <trkpt lat="48.80955" lon="-0.32293">
        <ele>108.59999847412</ele>
        <time>2017-06-11T10:58:59.000Z</time>
      </trkpt>
      <trkpt lat="48.80957" lon="-0.32291">
        <ele>108</ele>
        <time>2017-06-11T10:59:00.000Z</time>
      </trkpt>
      <trkpt lat="48.8096" lon="-0.32291">
        <ele>107.40000152588</ele>
        <time>2017-06-11T10:59:01.000Z</time>
      </trkpt>
      <trkpt lat="48.80962" lon="-0.32292">
        <ele>106.80000305176</ele>
        <time>2017-06-11T10:59:02.000Z</time>
      </trkpt>
      <trkpt lat="48.80966" lon="-0.32291">
        <ele>106.80000305176</ele>
        <time>2017-06-11T10:59:07.000Z</time>
      </trkpt>
      <trkpt lat="48.80973" lon="-0.32286">
        <ele>106.80000305176</ele>
        <time>2017-06-11T10:59:12.000Z</time>
      </trkpt>
      <trkpt lat="48.80973" lon="-0.32286">
        <ele>106.40000152588</ele>
        <time>2017-06-11T10:59:15.000Z</time>
      </trkpt>
      <trkpt lat="48.80974" lon="-0.32286">
        <ele>106</ele>
        <time>2017-06-11T10:59:16.000Z</time>
      </trkpt>
      <trkpt lat="48.80974" lon="-0.32286">
        <ele>105.59999847412</ele>
        <time>2017-06-11T10:59:17.000Z</time>
      </trkpt>
      <trkpt lat="48.80974" lon="-0.32286">
        <ele>105.19999694824</ele>
        <time>2017-06-11T10:59:18.000Z</time>
      </trkpt>
      <trkpt lat="48.80974" lon="-0.32286">
        <ele>104.80000305176</ele>
        <time>2017-06-11T10:59:19.000Z</time>
      </trkpt>
      <trkpt lat="48.80974" lon="-0.32286">
        <ele>104.80000305176</ele>
        <time>2017-06-11T10:59:20.000Z</time>
      </trkpt>
      <trkpt lat="48.80974" lon="-0.32286">
        <ele>104.80000305176</ele>
        <time>2017-06-11T10:59:37.000Z</time>
      </trkpt>
      <trkpt lat="48.80974" lon="-0.32286">
        <ele>104.80000305176</ele>
        <time>2017-06-11T10:59:56.000Z</time>
      </trkpt>
      <trkpt lat="48.80974" lon="-0.32286">
        <ele>104.80000305176</ele>
        <time>2017-06-11T11:00:14.000Z</time>
      </trkpt>
      <trkpt lat="48.80974" lon="-0.32286">
        <ele>104.80000305176</ele>
        <time>2017-06-11T11:00:33.000Z</time>
      </trkpt>
      <trkpt lat="48.80974" lon="-0.32286">
        <ele>104.80000305176</ele>
        <time>2017-06-11T11:00:51.000Z</time>
      </trkpt>
      <trkpt lat="48.80975" lon="-0.32285">
        <ele>104.80000305176</ele>
        <time>2017-06-11T11:01:08.000Z</time>
      </trkpt>
      <trkpt lat="48.80981" lon="-0.32283">
        <ele>104.80000305176</ele>
        <time>2017-06-11T11:01:14.000Z</time>
      </trkpt>
      <trkpt lat="48.80994" lon="-0.32278">
        <ele>104.80000305176</ele>
        <time>2017-06-11T11:01:19.000Z</time>
      </trkpt>
      <trkpt lat="48.81012" lon="-0.3226">
        <ele>104.80000305176</ele>
        <time>2017-06-11T11:01:25.000Z</time>
      </trkpt>
      <trkpt lat="48.81015" lon="-0.32255">
        <ele>104.40000152588</ele>
        <time>2017-06-11T11:01:26.000Z</time>
      </trkpt>
      <trkpt lat="48.81018" lon="-0.3225">
        <ele>104</ele>
        <time>2017-06-11T11:01:27.000Z</time>
      </trkpt>
      <trkpt lat="48.81021" lon="-0.32246">
        <ele>103.59999847412</ele>
        <time>2017-06-11T11:01:28.000Z</time>
      </trkpt>
      <trkpt lat="48.81023" lon="-0.32243">
        <ele>103.19999694824</ele>
        <time>2017-06-11T11:01:29.000Z</time>
      </trkpt>
      <trkpt lat="48.81026" lon="-0.32239">
        <ele>102.80000305176</ele>
        <time>2017-06-11T11:01:30.000Z</time>
      </trkpt>
      <trkpt lat="48.81031" lon="-0.3223">
        <ele>102.80000305176</ele>
        <time>2017-06-11T11:01:32.000Z</time>
      </trkpt>
      <trkpt lat="48.81034" lon="-0.32213">
        <ele>102.19999694824</ele>
        <time>2017-06-11T11:01:35.000Z</time>
      </trkpt>
      <trkpt lat="48.81036" lon="-0.32208">
        <ele>101.80000305176</ele>
        <time>2017-06-11T11:01:36.000Z</time>
      </trkpt>
      <trkpt lat="48.81036" lon="-0.32203">
        <ele>101.19999694824</ele>
        <time>2017-06-11T11:01:37.000Z</time>
      </trkpt>
      <trkpt lat="48.81037" lon="-0.32196">
        <ele>100.80000305176</ele>
        <time>2017-06-11T11:01:38.000Z</time>
      </trkpt>
      <trkpt lat="48.81038" lon="-0.32189">
        <ele>100.19999694824</ele>
        <time>2017-06-11T11:01:39.000Z</time>
      </trkpt>
      <trkpt lat="48.81039" lon="-0.32181">
        <ele>99.400001525879</ele>
        <time>2017-06-11T11:01:40.000Z</time>
      </trkpt>
      <trkpt lat="48.81039" lon="-0.32171">
        <ele>98.800003051758</ele>
        <time>2017-06-11T11:01:41.000Z</time>
      </trkpt>
      <trkpt lat="48.8104" lon="-0.32163">
        <ele>98.400001525879</ele>
        <time>2017-06-11T11:01:42.000Z</time>
      </trkpt>
      <trkpt lat="48.8104" lon="-0.32154">
        <ele>97.800003051758</ele>
        <time>2017-06-11T11:01:43.000Z</time>
      </trkpt>
      <trkpt lat="48.81039" lon="-0.32146">
        <ele>97.400001525879</ele>
        <time>2017-06-11T11:01:44.000Z</time>
      </trkpt>
      <trkpt lat="48.81038" lon="-0.32138">
        <ele>96.800003051758</ele>
        <time>2017-06-11T11:01:45.000Z</time>
      </trkpt>
      <trkpt lat="48.81038" lon="-0.32131">
        <ele>96.400001525879</ele>
        <time>2017-06-11T11:01:46.000Z</time>
      </trkpt>
      <trkpt lat="48.81038" lon="-0.32125">
        <ele>95.800003051758</ele>
        <time>2017-06-11T11:01:47.000Z</time>
      </trkpt>
      <trkpt lat="48.81039" lon="-0.32119">
        <ele>95.400001525879</ele>
        <time>2017-06-11T11:01:48.000Z</time>
      </trkpt>
      <trkpt lat="48.81046" lon="-0.32093">
        <ele>95.400001525879</ele>
        <time>2017-06-11T11:01:53.000Z</time>
      </trkpt>
      <trkpt lat="48.81051" lon="-0.32086">
        <ele>95</ele>
        <time>2017-06-11T11:01:55.000Z</time>
      </trkpt>
      <trkpt lat="48.81053" lon="-0.32085">
        <ele>94.400001525879</ele>
        <time>2017-06-11T11:01:56.000Z</time>
      </trkpt>
      <trkpt lat="48.81055" lon="-0.32083">
        <ele>94</ele>
        <time>2017-06-11T11:01:57.000Z</time>
      </trkpt>
      <trkpt lat="48.81056" lon="-0.32082">
        <ele>93.599998474121</ele>
        <time>2017-06-11T11:01:58.000Z</time>
      </trkpt>
      <trkpt lat="48.81057" lon="-0.32082">
        <ele>93.199996948242</ele>
        <time>2017-06-11T11:01:59.000Z</time>
      </trkpt>
      <trkpt lat="48.81057" lon="-0.32081">
        <ele>93.199996948242</ele>
        <time>2017-06-11T11:02:02.000Z</time>
      </trkpt>
      <trkpt lat="48.81057" lon="-0.32081">
        <ele>93.199996948242</ele>
        <time>2017-06-11T11:02:08.000Z</time>
      </trkpt>
      <trkpt lat="48.81056" lon="-0.32081">
        <ele>93.199996948242</ele>
        <time>2017-06-11T11:02:17.000Z</time>
      </trkpt>
      <trkpt lat="48.8106" lon="-0.32078">
        <ele>92.800003051758</ele>
        <time>2017-06-11T11:02:19.000Z</time>
      </trkpt>
      <trkpt lat="48.81061" lon="-0.32078">
        <ele>92.400001525879</ele>
        <time>2017-06-11T11:02:20.000Z</time>
      </trkpt>
      <trkpt lat="48.81061" lon="-0.32078">
        <ele>92</ele>
        <time>2017-06-11T11:02:21.000Z</time>
      </trkpt>
      <trkpt lat="48.81061" lon="-0.32078">
        <ele>91.400001525879</ele>
        <time>2017-06-11T11:02:22.000Z</time>
      </trkpt>
      <trkpt lat="48.81061" lon="-0.32078">
        <ele>91</ele>
        <time>2017-06-11T11:02:23.000Z</time>
      </trkpt>
      <trkpt lat="48.81069" lon="-0.32072">
        <ele>91</ele>
        <time>2017-06-11T11:02:27.000Z</time>
      </trkpt>
      <trkpt lat="48.81073" lon="-0.32072">
        <ele>91</ele>
        <time>2017-06-11T11:02:29.000Z</time>
      </trkpt>
      <trkpt lat="48.81075" lon="-0.32072">
        <ele>90.199996948242</ele>
        <time>2017-06-11T11:02:30.000Z</time>
      </trkpt>
      <trkpt lat="48.81078" lon="-0.32072">
        <ele>89.800003051758</ele>
        <time>2017-06-11T11:02:31.000Z</time>
      </trkpt>
      <trkpt lat="48.81082" lon="-0.32072">
        <ele>89.400001525879</ele>
        <time>2017-06-11T11:02:32.000Z</time>
      </trkpt>
      <trkpt lat="48.81086" lon="-0.32072">
        <ele>89</ele>
        <time>2017-06-11T11:02:33.000Z</time>
      </trkpt>
      <trkpt lat="48.81099" lon="-0.32072">
        <ele>88.599998474121</ele>
        <time>2017-06-11T11:02:36.000Z</time>
      </trkpt>
      <trkpt lat="48.81103" lon="-0.32072">
        <ele>88.199996948242</ele>
        <time>2017-06-11T11:02:37.000Z</time>
      </trkpt>
      <trkpt lat="48.81107" lon="-0.32073">
        <ele>87.800003051758</ele>
        <time>2017-06-11T11:02:38.000Z</time>
      </trkpt>
      <trkpt lat="48.81113" lon="-0.32073">
        <ele>87.199996948242</ele>
        <time>2017-06-11T11:02:39.000Z</time>
      </trkpt>
      <trkpt lat="48.81117" lon="-0.32072">
        <ele>86.800003051758</ele>
        <time>2017-06-11T11:02:40.000Z</time>
      </trkpt>
      <trkpt lat="48.81126" lon="-0.32072">
        <ele>86.800003051758</ele>
        <time>2017-06-11T11:02:42.000Z</time>
      </trkpt>
      <trkpt lat="48.81145" lon="-0.32068">
        <ele>86.800003051758</ele>
        <time>2017-06-11T11:02:47.000Z</time>
      </trkpt>
      <trkpt lat="48.81162" lon="-0.32056">
        <ele>86.800003051758</ele>
        <time>2017-06-11T11:02:51.000Z</time>
      </trkpt>
      <trkpt lat="48.81168" lon="-0.32053">
        <ele>86.400001525879</ele>
        <time>2017-06-11T11:02:52.000Z</time>
      </trkpt>
      <trkpt lat="48.81173" lon="-0.32052">
        <ele>85.800003051758</ele>
        <time>2017-06-11T11:02:53.000Z</time>
      </trkpt>
      <trkpt lat="48.81178" lon="-0.32052">
        <ele>84.800003051758</ele>
        <time>2017-06-11T11:02:54.000Z</time>
      </trkpt>
      <trkpt lat="48.81181" lon="-0.32054">
        <ele>84.199996948242</ele>
        <time>2017-06-11T11:02:55.000Z</time>
      </trkpt>
      <trkpt lat="48.81185" lon="-0.32057">
        <ele>83.400001525879</ele>
        <time>2017-06-11T11:02:56.000Z</time>
      </trkpt>
      <trkpt lat="48.81187" lon="-0.3206">
        <ele>82.800003051758</ele>
        <time>2017-06-11T11:02:57.000Z</time>
      </trkpt>
      <trkpt lat="48.81188" lon="-0.32064">
        <ele>82.199996948242</ele>
        <time>2017-06-11T11:02:58.000Z</time>
      </trkpt>
      <trkpt lat="48.8119" lon="-0.32069">
        <ele>82.199996948242</ele>
        <time>2017-06-11T11:02:59.000Z</time>
      </trkpt>
      <trkpt lat="48.81197" lon="-0.32098">
        <ele>81.800003051758</ele>
        <time>2017-06-11T11:03:05.000Z</time>
      </trkpt>
      <trkpt lat="48.81198" lon="-0.32103">
        <ele>81.199996948242</ele>
        <time>2017-06-11T11:03:06.000Z</time>
      </trkpt>
      <trkpt lat="48.81199" lon="-0.32109">
        <ele>80.800003051758</ele>
        <time>2017-06-11T11:03:07.000Z</time>
      </trkpt>
      <trkpt lat="48.81201" lon="-0.32115">
        <ele>80.199996948242</ele>
        <time>2017-06-11T11:03:08.000Z</time>
      </trkpt>
      <trkpt lat="48.81202" lon="-0.32122">
        <ele>79.800003051758</ele>
        <time>2017-06-11T11:03:09.000Z</time>
      </trkpt>
      <trkpt lat="48.81205" lon="-0.32135">
        <ele>79.800003051758</ele>
        <time>2017-06-11T11:03:11.000Z</time>
      </trkpt>
      <trkpt lat="48.8121" lon="-0.32159">
        <ele>79.400001525879</ele>
        <time>2017-06-11T11:03:15.000Z</time>
      </trkpt>
      <trkpt lat="48.81211" lon="-0.32164">
        <ele>79</ele>
        <time>2017-06-11T11:03:16.000Z</time>
      </trkpt>
      <trkpt lat="48.81212" lon="-0.3217">
        <ele>78.599998474121</ele>
        <time>2017-06-11T11:03:17.000Z</time>
      </trkpt>
      <trkpt lat="48.81213" lon="-0.32176">
        <ele>78.199996948242</ele>
        <time>2017-06-11T11:03:18.000Z</time>
      </trkpt>
      <trkpt lat="48.81214" lon="-0.32181">
        <ele>77.800003051758</ele>
        <time>2017-06-11T11:03:19.000Z</time>
      </trkpt>
      <trkpt lat="48.81217" lon="-0.32195">
        <ele>77.800003051758</ele>
        <time>2017-06-11T11:03:22.000Z</time>
      </trkpt>
      <trkpt lat="48.81221" lon="-0.32212">
        <ele>77.800003051758</ele>
        <time>2017-06-11T11:03:27.000Z</time>
      </trkpt>
      <trkpt lat="48.81225" lon="-0.32218">
        <ele>77.800003051758</ele>
        <time>2017-06-11T11:03:32.000Z</time>
      </trkpt>
      <trkpt lat="48.81225" lon="-0.32218">
        <ele>77.400001525879</ele>
        <time>2017-06-11T11:03:38.000Z</time>
      </trkpt>
      <trkpt lat="48.81225" lon="-0.32218">
        <ele>77</ele>
        <time>2017-06-11T11:03:39.000Z</time>
      </trkpt>
      <trkpt lat="48.81225" lon="-0.32218">
        <ele>76.599998474121</ele>
        <time>2017-06-11T11:03:40.000Z</time>
      </trkpt>
      <trkpt lat="48.81225" lon="-0.32218">
        <ele>76.199996948242</ele>
        <time>2017-06-11T11:03:41.000Z</time>
      </trkpt>
      <trkpt lat="48.81225" lon="-0.32218">
        <ele>75.800003051758</ele>
        <time>2017-06-11T11:03:42.000Z</time>
      </trkpt>
      <trkpt lat="48.81225" lon="-0.32218">
        <ele>75.800003051758</ele>
        <time>2017-06-11T11:03:53.000Z</time>
      </trkpt>
      <trkpt lat="48.81225" lon="-0.32218">
        <ele>75.800003051758</ele>
        <time>2017-06-11T11:04:11.000Z</time>
      </trkpt>
      <trkpt lat="48.81225" lon="-0.32218">
        <ele>75.800003051758</ele>
        <time>2017-06-11T11:04:24.000Z</time>
      </trkpt>
      <trkpt lat="48.81225" lon="-0.32218">
        <ele>75.800003051758</ele>
        <time>2017-06-11T11:04:40.000Z</time>
      </trkpt>
      <trkpt lat="48.81225" lon="-0.32218">
        <ele>75.800003051758</ele>
        <time>2017-06-11T11:04:57.000Z</time>
      </trkpt>
      <trkpt lat="48.81225" lon="-0.32218">
        <ele>75.800003051758</ele>
        <time>2017-06-11T11:05:11.000Z</time>
      </trkpt>
      <trkpt lat="48.81225" lon="-0.32218">
        <ele>75.800003051758</ele>
        <time>2017-06-11T11:05:19.000Z</time>
      </trkpt>
      <trkpt lat="48.81225" lon="-0.32218">
        <ele>75.800003051758</ele>
        <time>2017-06-11T11:05:29.000Z</time>
      </trkpt>
      <trkpt lat="48.81226" lon="-0.3222">
        <ele>75.800003051758</ele>
        <time>2017-06-11T11:05:37.000Z</time>
      </trkpt>
      <trkpt lat="48.81228" lon="-0.32226">
        <ele>75.800003051758</ele>
        <time>2017-06-11T11:05:42.000Z</time>
      </trkpt>
      <trkpt lat="48.81228" lon="-0.32226">
        <ele>75.800003051758</ele>
        <time>2017-06-11T11:05:53.000Z</time>
      </trkpt>
      <trkpt lat="48.81228" lon="-0.32226">
        <ele>75.800003051758</ele>
        <time>2017-06-11T11:06:02.000Z</time>
      </trkpt>
      <trkpt lat="48.81228" lon="-0.32226">
        <ele>75.800003051758</ele>
        <time>2017-06-11T11:06:10.000Z</time>
      </trkpt>
      <trkpt lat="48.8123" lon="-0.32228">
        <ele>75.800003051758</ele>
        <time>2017-06-11T11:06:19.000Z</time>
      </trkpt>
      <trkpt lat="48.8123" lon="-0.32228">
        <ele>75.800003051758</ele>
        <time>2017-06-11T11:06:27.000Z</time>
      </trkpt>
      <trkpt lat="48.8123" lon="-0.32228">
        <ele>75.800003051758</ele>
        <time>2017-06-11T11:06:38.000Z</time>
      </trkpt>
      <trkpt lat="48.8123" lon="-0.32229">
        <ele>75.800003051758</ele>
        <time>2017-06-11T11:06:47.000Z</time>
      </trkpt>
      <trkpt lat="48.81231" lon="-0.32229">
        <ele>75.800003051758</ele>
        <time>2017-06-11T11:06:54.000Z</time>
      </trkpt>
      <trkpt lat="48.81231" lon="-0.32229">
        <ele>75.800003051758</ele>
        <time>2017-06-11T11:07:04.000Z</time>
      </trkpt>
      <trkpt lat="48.81231" lon="-0.3223">
        <ele>75.800003051758</ele>
        <time>2017-06-11T11:07:11.000Z</time>
      </trkpt>
      <trkpt lat="48.81232" lon="-0.32231">
        <ele>75.199996948242</ele>
        <time>2017-06-11T11:07:16.000Z</time>
      </trkpt>
      <trkpt lat="48.81232" lon="-0.32231">
        <ele>74.599998474121</ele>
        <time>2017-06-11T11:07:17.000Z</time>
      </trkpt>
      <trkpt lat="48.81232" lon="-0.32231">
        <ele>74</ele>
        <time>2017-06-11T11:07:18.000Z</time>
      </trkpt>
      <trkpt lat="48.81232" lon="-0.32231">
        <ele>74.400001525879</ele>
        <time>2017-06-11T11:07:19.000Z</time>
      </trkpt>
      <trkpt lat="48.81232" lon="-0.32231">
        <ele>75.199996948242</ele>
        <time>2017-06-11T11:07:20.000Z</time>
      </trkpt>
      <trkpt lat="48.81232" lon="-0.32231">
        <ele>75.400001525879</ele>
        <time>2017-06-11T11:07:21.000Z</time>
      </trkpt>
      <trkpt lat="48.81232" lon="-0.32231">
        <ele>75.800003051758</ele>
        <time>2017-06-11T11:07:22.000Z</time>
      </trkpt>
      <trkpt lat="48.81232" lon="-0.32231">
        <ele>75.800003051758</ele>
        <time>2017-06-11T11:07:25.000Z</time>
      </trkpt>
      <trkpt lat="48.81232" lon="-0.32231">
        <ele>75.800003051758</ele>
        <time>2017-06-11T11:07:32.000Z</time>
      </trkpt>
      <trkpt lat="48.81232" lon="-0.32231">
        <ele>75.800003051758</ele>
        <time>2017-06-11T11:07:44.000Z</time>
      </trkpt>
      <trkpt lat="48.81232" lon="-0.32231">
        <ele>75.800003051758</ele>
        <time>2017-06-11T11:07:53.000Z</time>
      </trkpt>
      <trkpt lat="48.81234" lon="-0.32232">
        <ele>75.800003051758</ele>
        <time>2017-06-11T11:07:59.000Z</time>
      </trkpt>
      <trkpt lat="48.81236" lon="-0.32234">
        <ele>75.800003051758</ele>
        <time>2017-06-11T11:08:05.000Z</time>
      </trkpt>
      <trkpt lat="48.81239" lon="-0.32237">
        <ele>75.800003051758</ele>
        <time>2017-06-11T11:08:12.000Z</time>
      </trkpt>
      <trkpt lat="48.81245" lon="-0.32238">
        <ele>75.800003051758</ele>
        <time>2017-06-11T11:08:18.000Z</time>
      </trkpt>
      <trkpt lat="48.81257" lon="-0.32235">
        <ele>75.800003051758</ele>
        <time>2017-06-11T11:08:26.000Z</time>
      </trkpt>
      <trkpt lat="48.81259" lon="-0.32233">
        <ele>75.800003051758</ele>
        <time>2017-06-11T11:08:34.000Z</time>
      </trkpt>
      <trkpt lat="48.81259" lon="-0.32233">
        <ele>75.800003051758</ele>
        <time>2017-06-11T11:08:43.000Z</time>
      </trkpt>
      <trkpt lat="48.8126" lon="-0.32234">
        <ele>75.800003051758</ele>
        <time>2017-06-11T11:08:53.000Z</time>
      </trkpt>
      <trkpt lat="48.8126" lon="-0.32234">
        <ele>75.800003051758</ele>
        <time>2017-06-11T11:09:00.000Z</time>
      </trkpt>
      <trkpt lat="48.8126" lon="-0.32234">
        <ele>75.800003051758</ele>
        <time>2017-06-11T11:09:16.000Z</time>
      </trkpt>
      <trkpt lat="48.81259" lon="-0.32233">
        <ele>75.800003051758</ele>
        <time>2017-06-11T11:09:32.000Z</time>
      </trkpt>
      <trkpt lat="48.81259" lon="-0.32233">
        <ele>75.800003051758</ele>
        <time>2017-06-11T11:09:50.000Z</time>
      </trkpt>
      <trkpt lat="48.81259" lon="-0.32233">
        <ele>75.800003051758</ele>
        <time>2017-06-11T11:10:04.000Z</time>
      </trkpt>
      <trkpt lat="48.81259" lon="-0.32233">
        <ele>75.800003051758</ele>
        <time>2017-06-11T11:10:17.000Z</time>
      </trkpt>
      <trkpt lat="48.81259" lon="-0.32233">
        <ele>75.800003051758</ele>
        <time>2017-06-11T11:10:31.000Z</time>
      </trkpt>
      <trkpt lat="48.81259" lon="-0.32233">
        <ele>75.800003051758</ele>
        <time>2017-06-11T11:10:46.000Z</time>
      </trkpt>
      <trkpt lat="48.81259" lon="-0.32233">
        <ele>75.800003051758</ele>
        <time>2017-06-11T11:11:02.000Z</time>
      </trkpt>
      <trkpt lat="48.81259" lon="-0.32233">
        <ele>75.800003051758</ele>
        <time>2017-06-11T11:11:21.000Z</time>
      </trkpt>
      <trkpt lat="48.81259" lon="-0.32233">
        <ele>75.800003051758</ele>
        <time>2017-06-11T11:11:36.000Z</time>
      </trkpt>
      <trkpt lat="48.81259" lon="-0.32233">
        <ele>75.800003051758</ele>
        <time>2017-06-11T11:11:49.000Z</time>
      </trkpt>
      <trkpt lat="48.81259" lon="-0.32233">
        <ele>75.800003051758</ele>
        <time>2017-06-11T11:12:07.000Z</time>
      </trkpt>
      <trkpt lat="48.81259" lon="-0.32233">
        <ele>75.800003051758</ele>
        <time>2017-06-11T11:12:22.000Z</time>
      </trkpt>
      <trkpt lat="48.81259" lon="-0.32233">
        <ele>75.800003051758</ele>
        <time>2017-06-11T11:12:34.000Z</time>
      </trkpt>
      <trkpt lat="48.81259" lon="-0.32233">
        <ele>75.800003051758</ele>
        <time>2017-06-11T11:12:51.000Z</time>
      </trkpt>
      <trkpt lat="48.81259" lon="-0.32233">
        <ele>75.800003051758</ele>
        <time>2017-06-11T11:13:08.000Z</time>
      </trkpt>
      <trkpt lat="48.81259" lon="-0.32233">
        <ele>75.800003051758</ele>
        <time>2017-06-11T11:13:23.000Z</time>
      </trkpt>
      <trkpt lat="48.81259" lon="-0.32233">
        <ele>75.800003051758</ele>
        <time>2017-06-11T11:13:40.000Z</time>
      </trkpt>
      <trkpt lat="48.81259" lon="-0.32233">
        <ele>75.800003051758</ele>
        <time>2017-06-11T11:13:56.000Z</time>
      </trkpt>
      <trkpt lat="48.81258" lon="-0.32234">
        <ele>75.800003051758</ele>
        <time>2017-06-11T11:14:15.000Z</time>
      </trkpt>
      <trkpt lat="48.81258" lon="-0.32234">
        <ele>75.800003051758</ele>
        <time>2017-06-11T11:14:33.000Z</time>
      </trkpt>
      <trkpt lat="48.81258" lon="-0.32235">
        <ele>75.800003051758</ele>
        <time>2017-06-11T11:14:50.000Z</time>
      </trkpt>
      <trkpt lat="48.81258" lon="-0.32235">
        <ele>75.800003051758</ele>
        <time>2017-06-11T11:15:04.000Z</time>
      </trkpt>
      <trkpt lat="48.81258" lon="-0.32235">
        <ele>75.800003051758</ele>
        <time>2017-06-11T11:15:20.000Z</time>
      </trkpt>
      <trkpt lat="48.81259" lon="-0.32234">
        <ele>75.800003051758</ele>
        <time>2017-06-11T11:15:35.000Z</time>
      </trkpt>
      <trkpt lat="48.81259" lon="-0.32234">
        <ele>75.800003051758</ele>
        <time>2017-06-11T11:15:51.000Z</time>
      </trkpt>
      <trkpt lat="48.81259" lon="-0.32234">
        <ele>75.800003051758</ele>
        <time>2017-06-11T11:16:07.000Z</time>
      </trkpt>
      <trkpt lat="48.81259" lon="-0.32234">
        <ele>75.800003051758</ele>
        <time>2017-06-11T11:16:24.000Z</time>
      </trkpt>
      <trkpt lat="48.81259" lon="-0.32234">
        <ele>75.800003051758</ele>
        <time>2017-06-11T11:16:37.000Z</time>
      </trkpt>
      <trkpt lat="48.81258" lon="-0.32234">
        <ele>75.800003051758</ele>
        <time>2017-06-11T11:16:54.000Z</time>
      </trkpt>
      <trkpt lat="48.81258" lon="-0.32234">
        <ele>75.800003051758</ele>
        <time>2017-06-11T11:17:10.000Z</time>
      </trkpt>
      <trkpt lat="48.81258" lon="-0.32234">
        <ele>75.800003051758</ele>
        <time>2017-06-11T11:17:24.000Z</time>
      </trkpt>
      <trkpt lat="48.81258" lon="-0.32234">
        <ele>75.800003051758</ele>
        <time>2017-06-11T11:17:35.000Z</time>
      </trkpt>
      <trkpt lat="48.81259" lon="-0.32239">
        <ele>75.800003051758</ele>
        <time>2017-06-11T11:30:13.000Z</time>
      </trkpt>
      <trkpt lat="48.81259" lon="-0.32239">
        <ele>75.800003051758</ele>
        <time>2017-06-11T11:30:16.000Z</time>
      </trkpt>
      <trkpt lat="48.81257" lon="-0.32237">
        <ele>75.800003051758</ele>
        <time>2017-06-11T11:30:43.000Z</time>
      </trkpt>
      <trkpt lat="48.81257" lon="-0.32237">
        <ele>75.800003051758</ele>
        <time>2017-06-11T11:30:45.000Z</time>
      </trkpt>
      <trkpt lat="48.8126" lon="-0.32234">
        <ele>75.800003051758</ele>
        <time>2017-06-11T11:31:26.000Z</time>
      </trkpt>
      <trkpt lat="48.8126" lon="-0.32234">
        <ele>75.800003051758</ele>
        <time>2017-06-11T11:31:28.000Z</time>
      </trkpt>
      <trkpt lat="48.81261" lon="-0.32225">
        <ele>75.800003051758</ele>
        <time>2017-06-11T11:31:34.000Z</time>
      </trkpt>
      <trkpt lat="48.81267" lon="-0.32207">
        <ele>75.800003051758</ele>
        <time>2017-06-11T11:31:40.000Z</time>
      </trkpt>
      <trkpt lat="48.81272" lon="-0.32186">
        <ele>75.800003051758</ele>
        <time>2017-06-11T11:31:46.000Z</time>
      </trkpt>
      <trkpt lat="48.81273" lon="-0.32174">
        <ele>75.800003051758</ele>
        <time>2017-06-11T11:31:50.000Z</time>
      </trkpt>
      <trkpt lat="48.81274" lon="-0.32167">
        <ele>75.800003051758</ele>
        <time>2017-06-11T11:31:52.000Z</time>
      </trkpt>
      <trkpt lat="48.81277" lon="-0.32163">
        <ele>75.800003051758</ele>
        <time>2017-06-11T11:31:54.000Z</time>
      </trkpt>
      <trkpt lat="48.81278" lon="-0.32161">
        <ele>75.800003051758</ele>
        <time>2017-06-11T11:31:57.000Z</time>
      </trkpt>
      <trkpt lat="48.81278" lon="-0.32161">
        <ele>75.800003051758</ele>
        <time>2017-06-11T11:32:09.000Z</time>
      </trkpt>
      <trkpt lat="48.81278" lon="-0.32161">
        <ele>75.800003051758</ele>
        <time>2017-06-11T11:32:18.000Z</time>
      </trkpt>
      <trkpt lat="48.81278" lon="-0.32161">
        <ele>75.800003051758</ele>
        <time>2017-06-11T11:32:32.000Z</time>
      </trkpt>
      <trkpt lat="48.81278" lon="-0.32161">
        <ele>75.800003051758</ele>
        <time>2017-06-11T11:32:43.000Z</time>
      </trkpt>
      <trkpt lat="48.8128" lon="-0.32158">
        <ele>75.800003051758</ele>
        <time>2017-06-11T11:32:52.000Z</time>
      </trkpt>
      <trkpt lat="48.81289" lon="-0.32152">
        <ele>75.800003051758</ele>
        <time>2017-06-11T11:32:58.000Z</time>
      </trkpt>
      <trkpt lat="48.81298" lon="-0.3215">
        <ele>75.800003051758</ele>
        <time>2017-06-11T11:33:04.000Z</time>
      </trkpt>
      <trkpt lat="48.8131" lon="-0.32146">
        <ele>75.800003051758</ele>
        <time>2017-06-11T11:33:11.000Z</time>
      </trkpt>
      <trkpt lat="48.81317" lon="-0.32146">
        <ele>75.800003051758</ele>
        <time>2017-06-11T11:33:16.000Z</time>
      </trkpt>
      <trkpt lat="48.81318" lon="-0.32146">
        <ele>75.800003051758</ele>
        <time>2017-06-11T11:33:21.000Z</time>
      </trkpt>
      <trkpt lat="48.81327" lon="-0.32143">
        <ele>75.800003051758</ele>
        <time>2017-06-11T11:33:28.000Z</time>
      </trkpt>
      <trkpt lat="48.81334" lon="-0.32141">
        <ele>75.800003051758</ele>
        <time>2017-06-11T11:33:35.000Z</time>
      </trkpt>
      <trkpt lat="48.81336" lon="-0.3214">
        <ele>75.800003051758</ele>
        <time>2017-06-11T11:33:39.000Z</time>
      </trkpt>
      <trkpt lat="48.81338" lon="-0.32139">
        <ele>75.800003051758</ele>
        <time>2017-06-11T11:33:40.000Z</time>
      </trkpt>
      <trkpt lat="48.81339" lon="-0.32129">
        <ele>75.800003051758</ele>
        <time>2017-06-11T11:33:45.000Z</time>
      </trkpt>
      <trkpt lat="48.81342" lon="-0.32114">
        <ele>75.800003051758</ele>
        <time>2017-06-11T11:33:50.000Z</time>
      </trkpt>
      <trkpt lat="48.81347" lon="-0.32104">
        <ele>76.199996948242</ele>
        <time>2017-06-11T11:33:53.000Z</time>
      </trkpt>
      <trkpt lat="48.81348" lon="-0.32101">
        <ele>76.599998474121</ele>
        <time>2017-06-11T11:33:54.000Z</time>
      </trkpt>
      <trkpt lat="48.8135" lon="-0.32098">
        <ele>77</ele>
        <time>2017-06-11T11:33:55.000Z</time>
      </trkpt>
      <trkpt lat="48.81352" lon="-0.32096">
        <ele>77.599998474121</ele>
        <time>2017-06-11T11:33:56.000Z</time>
      </trkpt>
      <trkpt lat="48.81355" lon="-0.32094">
        <ele>78</ele>
        <time>2017-06-11T11:33:57.000Z</time>
      </trkpt>
      <trkpt lat="48.81368" lon="-0.32085">
        <ele>78</ele>
        <time>2017-06-11T11:34:02.000Z</time>
      </trkpt>
      <trkpt lat="48.81383" lon="-0.32078">
        <ele>78.400001525879</ele>
        <time>2017-06-11T11:34:08.000Z</time>
      </trkpt>
      <trkpt lat="48.81386" lon="-0.32077">
        <ele>78.800003051758</ele>
        <time>2017-06-11T11:34:09.000Z</time>
      </trkpt>
      <trkpt lat="48.81388" lon="-0.32076">
        <ele>79.199996948242</ele>
        <time>2017-06-11T11:34:10.000Z</time>
      </trkpt>
      <trkpt lat="48.81391" lon="-0.32076">
        <ele>79.599998474121</ele>
        <time>2017-06-11T11:34:11.000Z</time>
      </trkpt>
      <trkpt lat="48.81393" lon="-0.32076">
        <ele>80</ele>
        <time>2017-06-11T11:34:12.000Z</time>
      </trkpt>
      <trkpt lat="48.81396" lon="-0.32075">
        <ele>80</ele>
        <time>2017-06-11T11:34:14.000Z</time>
      </trkpt>
      <trkpt lat="48.81401" lon="-0.32074">
        <ele>80.599998474121</ele>
        <time>2017-06-11T11:34:17.000Z</time>
      </trkpt>
      <trkpt lat="48.81402" lon="-0.32074">
        <ele>81</ele>
        <time>2017-06-11T11:34:18.000Z</time>
      </trkpt>
      <trkpt lat="48.81404" lon="-0.32075">
        <ele>81.400001525879</ele>
        <time>2017-06-11T11:34:19.000Z</time>
      </trkpt>
      <trkpt lat="48.81405" lon="-0.32075">
        <ele>81.800003051758</ele>
        <time>2017-06-11T11:34:20.000Z</time>
      </trkpt>
      <trkpt lat="48.81407" lon="-0.32075">
        <ele>82.199996948242</ele>
        <time>2017-06-11T11:34:21.000Z</time>
      </trkpt>
      <trkpt lat="48.81416" lon="-0.32081">
        <ele>82.599998474121</ele>
        <time>2017-06-11T11:34:26.000Z</time>
      </trkpt>
      <trkpt lat="48.81417" lon="-0.32082">
        <ele>83</ele>
        <time>2017-06-11T11:34:27.000Z</time>
      </trkpt>
      <trkpt lat="48.81419" lon="-0.32083">
        <ele>83.400001525879</ele>
        <time>2017-06-11T11:34:28.000Z</time>
      </trkpt>
      <trkpt lat="48.81421" lon="-0.32085">
        <ele>83.800003051758</ele>
        <time>2017-06-11T11:34:29.000Z</time>
      </trkpt>
      <trkpt lat="48.81422" lon="-0.32086">
        <ele>84.199996948242</ele>
        <time>2017-06-11T11:34:30.000Z</time>
      </trkpt>
      <trkpt lat="48.81433" lon="-0.32099">
        <ele>84.599998474121</ele>
        <time>2017-06-11T11:34:36.000Z</time>
      </trkpt>
      <trkpt lat="48.81435" lon="-0.32103">
        <ele>85.199996948242</ele>
        <time>2017-06-11T11:34:37.000Z</time>
      </trkpt>
      <trkpt lat="48.81436" lon="-0.32107">
        <ele>85.599998474121</ele>
        <time>2017-06-11T11:34:38.000Z</time>
      </trkpt>
      <trkpt lat="48.81437" lon="-0.3211">
        <ele>86</ele>
        <time>2017-06-11T11:34:39.000Z</time>
      </trkpt>
      <trkpt lat="48.81439" lon="-0.32113">
        <ele>86.400001525879</ele>
        <time>2017-06-11T11:34:40.000Z</time>
      </trkpt>
      <trkpt lat="48.81441" lon="-0.32116">
        <ele>86.400001525879</ele>
        <time>2017-06-11T11:34:41.000Z</time>
      </trkpt>
      <trkpt lat="48.81454" lon="-0.32141">
        <ele>86.400001525879</ele>
        <time>2017-06-11T11:34:48.000Z</time>
      </trkpt>
      <trkpt lat="48.81466" lon="-0.32165">
        <ele>86.400001525879</ele>
        <time>2017-06-11T11:34:54.000Z</time>
      </trkpt>
      <trkpt lat="48.81482" lon="-0.32201">
        <ele>86.400001525879</ele>
        <time>2017-06-11T11:35:02.000Z</time>
      </trkpt>
      <trkpt lat="48.81498" lon="-0.32231">
        <ele>86.400001525879</ele>
        <time>2017-06-11T11:35:09.000Z</time>
      </trkpt>
      <trkpt lat="48.81508" lon="-0.32254">
        <ele>86.400001525879</ele>
        <time>2017-06-11T11:35:15.000Z</time>
      </trkpt>
      <trkpt lat="48.81519" lon="-0.32275">
        <ele>86.400001525879</ele>
        <time>2017-06-11T11:35:20.000Z</time>
      </trkpt>
      <trkpt lat="48.81538" lon="-0.32309">
        <ele>86.400001525879</ele>
        <time>2017-06-11T11:35:27.000Z</time>
      </trkpt>
      <trkpt lat="48.81551" lon="-0.32336">
        <ele>86.400001525879</ele>
        <time>2017-06-11T11:35:33.000Z</time>
      </trkpt>
      <trkpt lat="48.81564" lon="-0.32354">
        <ele>86.400001525879</ele>
        <time>2017-06-11T11:35:37.000Z</time>
      </trkpt>
      <trkpt lat="48.81587" lon="-0.32387">
        <ele>86.400001525879</ele>
        <time>2017-06-11T11:35:43.000Z</time>
      </trkpt>
      <trkpt lat="48.81607" lon="-0.32409">
        <ele>86.400001525879</ele>
        <time>2017-06-11T11:35:48.000Z</time>
      </trkpt>
      <trkpt lat="48.8161" lon="-0.32413">
        <ele>86.400001525879</ele>
        <time>2017-06-11T11:35:49.000Z</time>
      </trkpt>
      <trkpt lat="48.81636" lon="-0.32436">
        <ele>86.400001525879</ele>
        <time>2017-06-11T11:35:56.000Z</time>
      </trkpt>
      <trkpt lat="48.81658" lon="-0.32457">
        <ele>86.400001525879</ele>
        <time>2017-06-11T11:36:01.000Z</time>
      </trkpt>
      <trkpt lat="48.8167" lon="-0.32467">
        <ele>86</ele>
        <time>2017-06-11T11:36:04.000Z</time>
      </trkpt>
      <trkpt lat="48.81674" lon="-0.3247">
        <ele>85.400001525879</ele>
        <time>2017-06-11T11:36:05.000Z</time>
      </trkpt>
      <trkpt lat="48.81678" lon="-0.32473">
        <ele>85</ele>
        <time>2017-06-11T11:36:06.000Z</time>
      </trkpt>
      <trkpt lat="48.81682" lon="-0.32475">
        <ele>84.599998474121</ele>
        <time>2017-06-11T11:36:07.000Z</time>
      </trkpt>
      <trkpt lat="48.81687" lon="-0.32476">
        <ele>84.199996948242</ele>
        <time>2017-06-11T11:36:08.000Z</time>
      </trkpt>
      <trkpt lat="48.81711" lon="-0.32481">
        <ele>84.199996948242</ele>
        <time>2017-06-11T11:36:13.000Z</time>
      </trkpt>
      <trkpt lat="48.81732" lon="-0.32486">
        <ele>84.199996948242</ele>
        <time>2017-06-11T11:36:18.000Z</time>
      </trkpt>
      <trkpt lat="48.81736" lon="-0.32489">
        <ele>84.199996948242</ele>
        <time>2017-06-11T11:36:19.000Z</time>
      </trkpt>
      <trkpt lat="48.81744" lon="-0.32497">
        <ele>84.199996948242</ele>
        <time>2017-06-11T11:36:21.000Z</time>
      </trkpt>
      <trkpt lat="48.81748" lon="-0.3251">
        <ele>84.199996948242</ele>
        <time>2017-06-11T11:36:23.000Z</time>
      </trkpt>
      <trkpt lat="48.81751" lon="-0.32532">
        <ele>84.599998474121</ele>
        <time>2017-06-11T11:36:26.000Z</time>
      </trkpt>
      <trkpt lat="48.81752" lon="-0.32538">
        <ele>85</ele>
        <time>2017-06-11T11:36:27.000Z</time>
      </trkpt>
      <trkpt lat="48.81754" lon="-0.32544">
        <ele>85.400001525879</ele>
        <time>2017-06-11T11:36:28.000Z</time>
      </trkpt>
      <trkpt lat="48.81757" lon="-0.32551">
        <ele>85.800003051758</ele>
        <time>2017-06-11T11:36:29.000Z</time>
      </trkpt>
      <trkpt lat="48.8176" lon="-0.32558">
        <ele>86.199996948242</ele>
        <time>2017-06-11T11:36:30.000Z</time>
      </trkpt>
      <trkpt lat="48.81763" lon="-0.32564">
        <ele>86.199996948242</ele>
        <time>2017-06-11T11:36:31.000Z</time>
      </trkpt>
      <trkpt lat="48.81767" lon="-0.3257">
        <ele>86.199996948242</ele>
        <time>2017-06-11T11:36:32.000Z</time>
      </trkpt>
      <trkpt lat="48.81792" lon="-0.32614">
        <ele>86.199996948242</ele>
        <time>2017-06-11T11:36:39.000Z</time>
      </trkpt>
      <trkpt lat="48.81823" lon="-0.32662">
        <ele>86.199996948242</ele>
        <time>2017-06-11T11:36:47.000Z</time>
      </trkpt>
      <trkpt lat="48.81837" lon="-0.32678">
        <ele>86.199996948242</ele>
        <time>2017-06-11T11:36:51.000Z</time>
      </trkpt>
      <trkpt lat="48.81854" lon="-0.32694">
        <ele>86.800003051758</ele>
        <time>2017-06-11T11:36:57.000Z</time>
      </trkpt>
      <trkpt lat="48.81856" lon="-0.32696">
        <ele>87.199996948242</ele>
        <time>2017-06-11T11:36:58.000Z</time>
      </trkpt>
      <trkpt lat="48.81859" lon="-0.32698">
        <ele>87.599998474121</ele>
        <time>2017-06-11T11:36:59.000Z</time>
      </trkpt>
      <trkpt lat="48.81862" lon="-0.327">
        <ele>88</ele>
        <time>2017-06-11T11:37:00.000Z</time>
      </trkpt>
      <trkpt lat="48.81865" lon="-0.32703">
        <ele>88.599998474121</ele>
        <time>2017-06-11T11:37:01.000Z</time>
      </trkpt>
      <trkpt lat="48.81876" lon="-0.32708">
        <ele>88.599998474121</ele>
        <time>2017-06-11T11:37:05.000Z</time>
      </trkpt>
      <trkpt lat="48.81882" lon="-0.32709">
        <ele>89</ele>
        <time>2017-06-11T11:37:07.000Z</time>
      </trkpt>
      <trkpt lat="48.81884" lon="-0.3271">
        <ele>89.400001525879</ele>
        <time>2017-06-11T11:37:08.000Z</time>
      </trkpt>
      <trkpt lat="48.81887" lon="-0.32711">
        <ele>89.800003051758</ele>
        <time>2017-06-11T11:37:09.000Z</time>
      </trkpt>
      <trkpt lat="48.8189" lon="-0.32712">
        <ele>90.199996948242</ele>
        <time>2017-06-11T11:37:10.000Z</time>
      </trkpt>
      <trkpt lat="48.81893" lon="-0.32714">
        <ele>90.599998474121</ele>
        <time>2017-06-11T11:37:11.000Z</time>
      </trkpt>
      <trkpt lat="48.81896" lon="-0.32715">
        <ele>90.599998474121</ele>
        <time>2017-06-11T11:37:12.000Z</time>
      </trkpt>
      <trkpt lat="48.81914" lon="-0.32722">
        <ele>90.599998474121</ele>
        <time>2017-06-11T11:37:19.000Z</time>
      </trkpt>
      <trkpt lat="48.81919" lon="-0.32724">
        <ele>91</ele>
        <time>2017-06-11T11:37:21.000Z</time>
      </trkpt>
      <trkpt lat="48.81922" lon="-0.32726">
        <ele>91.400001525879</ele>
        <time>2017-06-11T11:37:22.000Z</time>
      </trkpt>
      <trkpt lat="48.81925" lon="-0.32728">
        <ele>91.800003051758</ele>
        <time>2017-06-11T11:37:23.000Z</time>
      </trkpt>
      <trkpt lat="48.81928" lon="-0.32729">
        <ele>92.199996948242</ele>
        <time>2017-06-11T11:37:24.000Z</time>
      </trkpt>
      <trkpt lat="48.81931" lon="-0.32731">
        <ele>92.599998474121</ele>
        <time>2017-06-11T11:37:25.000Z</time>
      </trkpt>
      <trkpt lat="48.81934" lon="-0.32733">
        <ele>92.599998474121</ele>
        <time>2017-06-11T11:37:26.000Z</time>
      </trkpt>
      <trkpt lat="48.81956" lon="-0.32746">
        <ele>92.599998474121</ele>
        <time>2017-06-11T11:37:33.000Z</time>
      </trkpt>
      <trkpt lat="48.81973" lon="-0.32758">
        <ele>93.199996948242</ele>
        <time>2017-06-11T11:37:38.000Z</time>
      </trkpt>
      <trkpt lat="48.81976" lon="-0.32761">
        <ele>93.599998474121</ele>
        <time>2017-06-11T11:37:39.000Z</time>
      </trkpt>
      <trkpt lat="48.81979" lon="-0.32765">
        <ele>94</ele>
        <time>2017-06-11T11:37:40.000Z</time>
      </trkpt>
      <trkpt lat="48.81982" lon="-0.32768">
        <ele>94.599998474121</ele>
        <time>2017-06-11T11:37:41.000Z</time>
      </trkpt>
      <trkpt lat="48.81986" lon="-0.32772">
        <ele>95</ele>
        <time>2017-06-11T11:37:42.000Z</time>
      </trkpt>
      <trkpt lat="48.81994" lon="-0.32777">
        <ele>95</ele>
        <time>2017-06-11T11:37:45.000Z</time>
      </trkpt>
      <trkpt lat="48.82005" lon="-0.32787">
        <ele>95</ele>
        <time>2017-06-11T11:37:49.000Z</time>
      </trkpt>
      <trkpt lat="48.82011" lon="-0.32793">
        <ele>95</ele>
        <time>2017-06-11T11:37:52.000Z</time>
      </trkpt>
      <trkpt lat="48.82013" lon="-0.32802">
        <ele>95</ele>
        <time>2017-06-11T11:37:54.000Z</time>
      </trkpt>
      <trkpt lat="48.82017" lon="-0.32832">
        <ele>95</ele>
        <time>2017-06-11T11:37:58.000Z</time>
      </trkpt>
      <trkpt lat="48.82025" lon="-0.32885">
        <ele>94.599998474121</ele>
        <time>2017-06-11T11:38:03.000Z</time>
      </trkpt>
      <trkpt lat="48.82029" lon="-0.32896">
        <ele>94.199996948242</ele>
        <time>2017-06-11T11:38:04.000Z</time>
      </trkpt>
      <trkpt lat="48.82034" lon="-0.32906">
        <ele>93.599998474121</ele>
        <time>2017-06-11T11:38:05.000Z</time>
      </trkpt>
      <trkpt lat="48.82038" lon="-0.32916">
        <ele>93.199996948242</ele>
        <time>2017-06-11T11:38:06.000Z</time>
      </trkpt>
      <trkpt lat="48.82043" lon="-0.32926">
        <ele>92.800003051758</ele>
        <time>2017-06-11T11:38:07.000Z</time>
      </trkpt>
      <trkpt lat="48.82049" lon="-0.32936">
        <ele>92.400001525879</ele>
        <time>2017-06-11T11:38:08.000Z</time>
      </trkpt>
      <trkpt lat="48.82054" lon="-0.32945">
        <ele>92</ele>
        <time>2017-06-11T11:38:09.000Z</time>
      </trkpt>
      <trkpt lat="48.82059" lon="-0.32954">
        <ele>91.400001525879</ele>
        <time>2017-06-11T11:38:10.000Z</time>
      </trkpt>
      <trkpt lat="48.82064" lon="-0.32964">
        <ele>91</ele>
        <time>2017-06-11T11:38:11.000Z</time>
      </trkpt>
      <trkpt lat="48.82068" lon="-0.32975">
        <ele>90.599998474121</ele>
        <time>2017-06-11T11:38:12.000Z</time>
      </trkpt>
      <trkpt lat="48.82076" lon="-0.32995">
        <ele>90</ele>
        <time>2017-06-11T11:38:14.000Z</time>
      </trkpt>
      <trkpt lat="48.8208" lon="-0.33004">
        <ele>89.599998474121</ele>
        <time>2017-06-11T11:38:15.000Z</time>
      </trkpt>
      <trkpt lat="48.82085" lon="-0.33015">
        <ele>88.599998474121</ele>
        <time>2017-06-11T11:38:16.000Z</time>
      </trkpt>
      <trkpt lat="48.82089" lon="-0.33027">
        <ele>88.199996948242</ele>
        <time>2017-06-11T11:38:17.000Z</time>
      </trkpt>
      <trkpt lat="48.82098" lon="-0.3305">
        <ele>87.599998474121</ele>
        <time>2017-06-11T11:38:19.000Z</time>
      </trkpt>
      <trkpt lat="48.82102" lon="-0.33062">
        <ele>87.199996948242</ele>
        <time>2017-06-11T11:38:20.000Z</time>
      </trkpt>
      <trkpt lat="48.82107" lon="-0.33075">
        <ele>86.800003051758</ele>
        <time>2017-06-11T11:38:21.000Z</time>
      </trkpt>
      <trkpt lat="48.82112" lon="-0.33087">
        <ele>86.199996948242</ele>
        <time>2017-06-11T11:38:22.000Z</time>
      </trkpt>
      <trkpt lat="48.82117" lon="-0.331">
        <ele>85.800003051758</ele>
        <time>2017-06-11T11:38:23.000Z</time>
      </trkpt>
      <trkpt lat="48.82122" lon="-0.33113">
        <ele>85.400001525879</ele>
        <time>2017-06-11T11:38:24.000Z</time>
      </trkpt>
      <trkpt lat="48.82126" lon="-0.33125">
        <ele>84.800003051758</ele>
        <time>2017-06-11T11:38:25.000Z</time>
      </trkpt>
      <trkpt lat="48.82131" lon="-0.33138">
        <ele>84.400001525879</ele>
        <time>2017-06-11T11:38:26.000Z</time>
      </trkpt>
      <trkpt lat="48.82135" lon="-0.3315">
        <ele>83.800003051758</ele>
        <time>2017-06-11T11:38:27.000Z</time>
      </trkpt>
      <trkpt lat="48.82139" lon="-0.33163">
        <ele>83.199996948242</ele>
        <time>2017-06-11T11:38:28.000Z</time>
      </trkpt>
      <trkpt lat="48.82143" lon="-0.33174">
        <ele>82.599998474121</ele>
        <time>2017-06-11T11:38:29.000Z</time>
      </trkpt>
      <trkpt lat="48.82147" lon="-0.33186">
        <ele>82</ele>
        <time>2017-06-11T11:38:30.000Z</time>
      </trkpt>
      <trkpt lat="48.82151" lon="-0.33198">
        <ele>81.599998474121</ele>
        <time>2017-06-11T11:38:31.000Z</time>
      </trkpt>
      <trkpt lat="48.82156" lon="-0.33211">
        <ele>81</ele>
        <time>2017-06-11T11:38:32.000Z</time>
      </trkpt>
      <trkpt lat="48.8216" lon="-0.33222">
        <ele>80.599998474121</ele>
        <time>2017-06-11T11:38:33.000Z</time>
      </trkpt>
      <trkpt lat="48.82164" lon="-0.33235">
        <ele>80</ele>
        <time>2017-06-11T11:38:34.000Z</time>
      </trkpt>
      <trkpt lat="48.82167" lon="-0.33247">
        <ele>79.400001525879</ele>
        <time>2017-06-11T11:38:35.000Z</time>
      </trkpt>
      <trkpt lat="48.8217" lon="-0.33259">
        <ele>79</ele>
        <time>2017-06-11T11:38:36.000Z</time>
      </trkpt>
      <trkpt lat="48.82173" lon="-0.33271">
        <ele>78.599998474121</ele>
        <time>2017-06-11T11:38:37.000Z</time>
      </trkpt>
      <trkpt lat="48.82177" lon="-0.33282">
        <ele>78.199996948242</ele>
        <time>2017-06-11T11:38:38.000Z</time>
      </trkpt>
      <trkpt lat="48.8218" lon="-0.33295">
        <ele>77.800003051758</ele>
        <time>2017-06-11T11:38:39.000Z</time>
      </trkpt>
      <trkpt lat="48.82183" lon="-0.33307">
        <ele>77.400001525879</ele>
        <time>2017-06-11T11:38:40.000Z</time>
      </trkpt>
      <trkpt lat="48.82185" lon="-0.3332">
        <ele>76.800003051758</ele>
        <time>2017-06-11T11:38:41.000Z</time>
      </trkpt>
      <trkpt lat="48.82188" lon="-0.33332">
        <ele>76.400001525879</ele>
        <time>2017-06-11T11:38:42.000Z</time>
      </trkpt>
      <trkpt lat="48.8219" lon="-0.33344">
        <ele>76</ele>
        <time>2017-06-11T11:38:43.000Z</time>
      </trkpt>
      <trkpt lat="48.82192" lon="-0.33356">
        <ele>75.599998474121</ele>
        <time>2017-06-11T11:38:44.000Z</time>
      </trkpt>
      <trkpt lat="48.82194" lon="-0.33367">
        <ele>75</ele>
        <time>2017-06-11T11:38:45.000Z</time>
      </trkpt>
      <trkpt lat="48.82199" lon="-0.33408">
        <ele>75</ele>
        <time>2017-06-11T11:38:49.000Z</time>
      </trkpt>
      <trkpt lat="48.82203" lon="-0.33438">
        <ele>75</ele>
        <time>2017-06-11T11:38:52.000Z</time>
      </trkpt>
      <trkpt lat="48.82206" lon="-0.33454">
        <ele>75</ele>
        <time>2017-06-11T11:38:54.000Z</time>
      </trkpt>
      <trkpt lat="48.82215" lon="-0.33496">
        <ele>75</ele>
        <time>2017-06-11T11:38:59.000Z</time>
      </trkpt>
      <trkpt lat="48.82222" lon="-0.33534">
        <ele>75</ele>
        <time>2017-06-11T11:39:05.000Z</time>
      </trkpt>
      <trkpt lat="48.82224" lon="-0.33572">
        <ele>75</ele>
        <time>2017-06-11T11:39:11.000Z</time>
      </trkpt>
      <trkpt lat="48.82216" lon="-0.33602">
        <ele>75</ele>
        <time>2017-06-11T11:39:15.000Z</time>
      </trkpt>
      <trkpt lat="48.82214" lon="-0.33609">
        <ele>75</ele>
        <time>2017-06-11T11:39:16.000Z</time>
      </trkpt>
      <trkpt lat="48.82207" lon="-0.3362">
        <ele>74.599998474121</ele>
        <time>2017-06-11T11:39:18.000Z</time>
      </trkpt>
      <trkpt lat="48.82203" lon="-0.33624">
        <ele>74.199996948242</ele>
        <time>2017-06-11T11:39:19.000Z</time>
      </trkpt>
      <trkpt lat="48.82199" lon="-0.33629">
        <ele>73.800003051758</ele>
        <time>2017-06-11T11:39:20.000Z</time>
      </trkpt>
      <trkpt lat="48.82196" lon="-0.33634">
        <ele>73.400001525879</ele>
        <time>2017-06-11T11:39:21.000Z</time>
      </trkpt>
      <trkpt lat="48.82195" lon="-0.3364">
        <ele>73</ele>
        <time>2017-06-11T11:39:22.000Z</time>
      </trkpt>
      <trkpt lat="48.82195" lon="-0.33644">
        <ele>73</ele>
        <time>2017-06-11T11:39:23.000Z</time>
      </trkpt>
      <trkpt lat="48.82201" lon="-0.33644">
        <ele>73</ele>
        <time>2017-06-11T11:39:26.000Z</time>
      </trkpt>
      <trkpt lat="48.82202" lon="-0.33635">
        <ele>73</ele>
        <time>2017-06-11T11:39:30.000Z</time>
      </trkpt>
      <trkpt lat="48.82201" lon="-0.33635">
        <ele>73</ele>
        <time>2017-06-11T11:39:34.000Z</time>
      </trkpt>
      <trkpt lat="48.82202" lon="-0.33633">
        <ele>73</ele>
        <time>2017-06-11T11:39:48.000Z</time>
      </trkpt>
      <trkpt lat="48.82206" lon="-0.3363">
        <ele>73</ele>
        <time>2017-06-11T11:39:52.000Z</time>
      </trkpt>
      <trkpt lat="48.82209" lon="-0.33629">
        <ele>73</ele>
        <time>2017-06-11T11:39:55.000Z</time>
      </trkpt>
      <trkpt lat="48.82213" lon="-0.33627">
        <ele>73</ele>
        <time>2017-06-11T11:39:59.000Z</time>
      </trkpt>
      <trkpt lat="48.82213" lon="-0.33628">
        <ele>73</ele>
        <time>2017-06-11T11:40:00.000Z</time>
      </trkpt>
      <trkpt lat="48.82219" lon="-0.33633">
        <ele>73</ele>
        <time>2017-06-11T11:40:05.000Z</time>
      </trkpt>
      <trkpt lat="48.82227" lon="-0.33647">
        <ele>73</ele>
        <time>2017-06-11T11:40:10.000Z</time>
      </trkpt>
      <trkpt lat="48.82233" lon="-0.33677">
        <ele>73</ele>
        <time>2017-06-11T11:40:17.000Z</time>
      </trkpt>
      <trkpt lat="48.82243" lon="-0.33704">
        <ele>73</ele>
        <time>2017-06-11T11:40:23.000Z</time>
      </trkpt>
      <trkpt lat="48.82248" lon="-0.3374">
        <ele>73</ele>
        <time>2017-06-11T11:40:29.000Z</time>
      </trkpt>
      <trkpt lat="48.82254" lon="-0.33773">
        <ele>72.599998474121</ele>
        <time>2017-06-11T11:40:34.000Z</time>
      </trkpt>
      <trkpt lat="48.82255" lon="-0.3378">
        <ele>72.199996948242</ele>
        <time>2017-06-11T11:40:35.000Z</time>
      </trkpt>
      <trkpt lat="48.82256" lon="-0.33786">
        <ele>71.400001525879</ele>
        <time>2017-06-11T11:40:36.000Z</time>
      </trkpt>
      <trkpt lat="48.82258" lon="-0.33792">
        <ele>71</ele>
        <time>2017-06-11T11:40:37.000Z</time>
      </trkpt>
      <trkpt lat="48.82263" lon="-0.33806">
        <ele>71</ele>
        <time>2017-06-11T11:40:39.000Z</time>
      </trkpt>
      <trkpt lat="48.82268" lon="-0.33855">
        <ele>71</ele>
        <time>2017-06-11T11:40:45.000Z</time>
      </trkpt>
      <trkpt lat="48.8227" lon="-0.33881">
        <ele>71</ele>
        <time>2017-06-11T11:40:50.000Z</time>
      </trkpt>
      <trkpt lat="48.8227" lon="-0.33907">
        <ele>71</ele>
        <time>2017-06-11T11:40:55.000Z</time>
      </trkpt>
      <trkpt lat="48.82268" lon="-0.33931">
        <ele>71</ele>
        <time>2017-06-11T11:41:00.000Z</time>
      </trkpt>
      <trkpt lat="48.82263" lon="-0.33968">
        <ele>71</ele>
        <time>2017-06-11T11:41:07.000Z</time>
      </trkpt>
      <trkpt lat="48.8226" lon="-0.34001">
        <ele>71</ele>
        <time>2017-06-11T11:41:12.000Z</time>
      </trkpt>
      <trkpt lat="48.82258" lon="-0.3405">
        <ele>71</ele>
        <time>2017-06-11T11:41:19.000Z</time>
      </trkpt>
      <trkpt lat="48.82258" lon="-0.34089">
        <ele>71</ele>
        <time>2017-06-11T11:41:25.000Z</time>
      </trkpt>
      <trkpt lat="48.82259" lon="-0.34129">
        <ele>71</ele>
        <time>2017-06-11T11:41:31.000Z</time>
      </trkpt>
      <trkpt lat="48.82265" lon="-0.34169">
        <ele>71</ele>
        <time>2017-06-11T11:41:37.000Z</time>
      </trkpt>
      <trkpt lat="48.82267" lon="-0.34203">
        <ele>71</ele>
        <time>2017-06-11T11:41:43.000Z</time>
      </trkpt>
      <trkpt lat="48.82269" lon="-0.34246">
        <ele>71</ele>
        <time>2017-06-11T11:41:50.000Z</time>
      </trkpt>
      <trkpt lat="48.82272" lon="-0.34281">
        <ele>71</ele>
        <time>2017-06-11T11:41:57.000Z</time>
      </trkpt>
      <trkpt lat="48.82275" lon="-0.3431">
        <ele>71</ele>
        <time>2017-06-11T11:42:02.000Z</time>
      </trkpt>
      <trkpt lat="48.82285" lon="-0.34346">
        <ele>71</ele>
        <time>2017-06-11T11:42:08.000Z</time>
      </trkpt>
      <trkpt lat="48.8229" lon="-0.34375">
        <ele>71</ele>
        <time>2017-06-11T11:42:13.000Z</time>
      </trkpt>
      <trkpt lat="48.82298" lon="-0.34411">
        <ele>71</ele>
        <time>2017-06-11T11:42:19.000Z</time>
      </trkpt>
      <trkpt lat="48.82305" lon="-0.34447">
        <ele>71</ele>
        <time>2017-06-11T11:42:25.000Z</time>
      </trkpt>
      <trkpt lat="48.82314" lon="-0.34473">
        <ele>71</ele>
        <time>2017-06-11T11:42:31.000Z</time>
      </trkpt>
      <trkpt lat="48.82325" lon="-0.34497">
        <ele>71</ele>
        <time>2017-06-11T11:42:37.000Z</time>
      </trkpt>
      <trkpt lat="48.82332" lon="-0.34513">
        <ele>71</ele>
        <time>2017-06-11T11:42:42.000Z</time>
      </trkpt>
      <trkpt lat="48.82338" lon="-0.34533">
        <ele>71</ele>
        <time>2017-06-11T11:42:46.000Z</time>
      </trkpt>
      <trkpt lat="48.82345" lon="-0.34561">
        <ele>70.400001525879</ele>
        <time>2017-06-11T11:42:51.000Z</time>
      </trkpt>
      <trkpt lat="48.82346" lon="-0.34565">
        <ele>70</ele>
        <time>2017-06-11T11:42:52.000Z</time>
      </trkpt>
      <trkpt lat="48.82348" lon="-0.3457">
        <ele>69.599998474121</ele>
        <time>2017-06-11T11:42:53.000Z</time>
      </trkpt>
      <trkpt lat="48.82349" lon="-0.34575">
        <ele>69.199996948242</ele>
        <time>2017-06-11T11:42:54.000Z</time>
      </trkpt>
      <trkpt lat="48.82351" lon="-0.3458">
        <ele>68.800003051758</ele>
        <time>2017-06-11T11:42:55.000Z</time>
      </trkpt>
      <trkpt lat="48.82361" lon="-0.34601">
        <ele>68.800003051758</ele>
        <time>2017-06-11T11:42:59.000Z</time>
      </trkpt>
      <trkpt lat="48.82368" lon="-0.34619">
        <ele>69.199996948242</ele>
        <time>2017-06-11T11:43:03.000Z</time>
      </trkpt>
      <trkpt lat="48.82369" lon="-0.34624">
        <ele>70</ele>
        <time>2017-06-11T11:43:04.000Z</time>
      </trkpt>
      <trkpt lat="48.82371" lon="-0.3463">
        <ele>70.400001525879</ele>
        <time>2017-06-11T11:43:05.000Z</time>
      </trkpt>
      <trkpt lat="48.82374" lon="-0.34636">
        <ele>70.800003051758</ele>
        <time>2017-06-11T11:43:06.000Z</time>
      </trkpt>
      <trkpt lat="48.82378" lon="-0.34663">
        <ele>70.800003051758</ele>
        <time>2017-06-11T11:43:12.000Z</time>
      </trkpt>
      <trkpt lat="48.82386" lon="-0.34694">
        <ele>70.800003051758</ele>
        <time>2017-06-11T11:43:18.000Z</time>
      </trkpt>
      <trkpt lat="48.82398" lon="-0.34723">
        <ele>70.400001525879</ele>
        <time>2017-06-11T11:43:23.000Z</time>
      </trkpt>
      <trkpt lat="48.82401" lon="-0.3473">
        <ele>70</ele>
        <time>2017-06-11T11:43:24.000Z</time>
      </trkpt>
      <trkpt lat="48.82403" lon="-0.34736">
        <ele>69.400001525879</ele>
        <time>2017-06-11T11:43:25.000Z</time>
      </trkpt>
      <trkpt lat="48.82405" lon="-0.3474">
        <ele>69</ele>
        <time>2017-06-11T11:43:26.000Z</time>
      </trkpt>
      <trkpt lat="48.82407" lon="-0.34744">
        <ele>68.599998474121</ele>
        <time>2017-06-11T11:43:27.000Z</time>
      </trkpt>
      <trkpt lat="48.82409" lon="-0.34748">
        <ele>68.599998474121</ele>
        <time>2017-06-11T11:43:28.000Z</time>
      </trkpt>
      <trkpt lat="48.82421" lon="-0.34769">
        <ele>68.599998474121</ele>
        <time>2017-06-11T11:43:32.000Z</time>
      </trkpt>
      <trkpt lat="48.82426" lon="-0.3478">
        <ele>68.599998474121</ele>
        <time>2017-06-11T11:43:34.000Z</time>
      </trkpt>
      <trkpt lat="48.82435" lon="-0.34802">
        <ele>68.599998474121</ele>
        <time>2017-06-11T11:43:39.000Z</time>
      </trkpt>
      <trkpt lat="48.82448" lon="-0.34838">
        <ele>68.599998474121</ele>
        <time>2017-06-11T11:43:46.000Z</time>
      </trkpt>
      <trkpt lat="48.82461" lon="-0.34871">
        <ele>68.599998474121</ele>
        <time>2017-06-11T11:43:52.000Z</time>
      </trkpt>
      <trkpt lat="48.82476" lon="-0.34896">
        <ele>68.599998474121</ele>
        <time>2017-06-11T11:43:57.000Z</time>
      </trkpt>
      <trkpt lat="48.82494" lon="-0.34919">
        <ele>68.599998474121</ele>
        <time>2017-06-11T11:44:03.000Z</time>
      </trkpt>
      <trkpt lat="48.82507" lon="-0.34948">
        <ele>68.599998474121</ele>
        <time>2017-06-11T11:44:09.000Z</time>
      </trkpt>
      <trkpt lat="48.82517" lon="-0.34973">
        <ele>68.599998474121</ele>
        <time>2017-06-11T11:44:14.000Z</time>
      </trkpt>
      <trkpt lat="48.82523" lon="-0.34987">
        <ele>68.199996948242</ele>
        <time>2017-06-11T11:44:17.000Z</time>
      </trkpt>
      <trkpt lat="48.82526" lon="-0.34992">
        <ele>67.400001525879</ele>
        <time>2017-06-11T11:44:18.000Z</time>
      </trkpt>
      <trkpt lat="48.82528" lon="-0.34997">
        <ele>67</ele>
        <time>2017-06-11T11:44:19.000Z</time>
      </trkpt>
      <trkpt lat="48.82531" lon="-0.35">
        <ele>66.599998474121</ele>
        <time>2017-06-11T11:44:20.000Z</time>
      </trkpt>
      <trkpt lat="48.82545" lon="-0.35022">
        <ele>66.599998474121</ele>
        <time>2017-06-11T11:44:26.000Z</time>
      </trkpt>
      <trkpt lat="48.82551" lon="-0.35027">
        <ele>66.599998474121</ele>
        <time>2017-06-11T11:44:28.000Z</time>
      </trkpt>
      <trkpt lat="48.82555" lon="-0.35029">
        <ele>66.599998474121</ele>
        <time>2017-06-11T11:44:30.000Z</time>
      </trkpt>
      <trkpt lat="48.82564" lon="-0.3504">
        <ele>66.599998474121</ele>
        <time>2017-06-11T11:44:35.000Z</time>
      </trkpt>
      <trkpt lat="48.82577" lon="-0.35056">
        <ele>66.599998474121</ele>
        <time>2017-06-11T11:44:42.000Z</time>
      </trkpt>
      <trkpt lat="48.82579" lon="-0.35057">
        <ele>67</ele>
        <time>2017-06-11T11:44:43.000Z</time>
      </trkpt>
      <trkpt lat="48.8258" lon="-0.35059">
        <ele>67.400001525879</ele>
        <time>2017-06-11T11:44:44.000Z</time>
      </trkpt>
      <trkpt lat="48.82581" lon="-0.35061">
        <ele>67.800003051758</ele>
        <time>2017-06-11T11:44:45.000Z</time>
      </trkpt>
      <trkpt lat="48.82581" lon="-0.35064">
        <ele>68.400001525879</ele>
        <time>2017-06-11T11:44:46.000Z</time>
      </trkpt>
      <trkpt lat="48.82582" lon="-0.35066">
        <ele>68.800003051758</ele>
        <time>2017-06-11T11:44:47.000Z</time>
      </trkpt>
      <trkpt lat="48.82585" lon="-0.35072">
        <ele>68.800003051758</ele>
        <time>2017-06-11T11:44:50.000Z</time>
      </trkpt>
      <trkpt lat="48.82588" lon="-0.3508">
        <ele>68.800003051758</ele>
        <time>2017-06-11T11:44:52.000Z</time>
      </trkpt>
      <trkpt lat="48.82597" lon="-0.35097">
        <ele>68.800003051758</ele>
        <time>2017-06-11T11:44:58.000Z</time>
      </trkpt>
      <trkpt lat="48.82601" lon="-0.35104">
        <ele>68.800003051758</ele>
        <time>2017-06-11T11:45:00.000Z</time>
      </trkpt>
      <trkpt lat="48.82608" lon="-0.3511">
        <ele>68.800003051758</ele>
        <time>2017-06-11T11:45:03.000Z</time>
      </trkpt>
      <trkpt lat="48.82613" lon="-0.35115">
        <ele>68.800003051758</ele>
        <time>2017-06-11T11:45:08.000Z</time>
      </trkpt>
      <trkpt lat="48.82612" lon="-0.35122">
        <ele>68.800003051758</ele>
        <time>2017-06-11T11:45:11.000Z</time>
      </trkpt>
      <trkpt lat="48.82612" lon="-0.35131">
        <ele>68.800003051758</ele>
        <time>2017-06-11T11:45:14.000Z</time>
      </trkpt>
      <trkpt lat="48.82614" lon="-0.35133">
        <ele>68.199996948242</ele>
        <time>2017-06-11T11:45:15.000Z</time>
      </trkpt>
      <trkpt lat="48.82616" lon="-0.35137">
        <ele>67.800003051758</ele>
        <time>2017-06-11T11:45:16.000Z</time>
      </trkpt>
      <trkpt lat="48.82618" lon="-0.3514">
        <ele>67.400001525879</ele>
        <time>2017-06-11T11:45:17.000Z</time>
      </trkpt>
      <trkpt lat="48.82619" lon="-0.35143">
        <ele>67</ele>
        <time>2017-06-11T11:45:18.000Z</time>
      </trkpt>
      <trkpt lat="48.8262" lon="-0.35147">
        <ele>66.400001525879</ele>
        <time>2017-06-11T11:45:19.000Z</time>
      </trkpt>
      <trkpt lat="48.82621" lon="-0.35151">
        <ele>66.400001525879</ele>
        <time>2017-06-11T11:45:20.000Z</time>
      </trkpt>
      <trkpt lat="48.8263" lon="-0.35171">
        <ele>66.400001525879</ele>
        <time>2017-06-11T11:45:25.000Z</time>
      </trkpt>
      <trkpt lat="48.8264" lon="-0.35181">
        <ele>66.400001525879</ele>
        <time>2017-06-11T11:45:30.000Z</time>
      </trkpt>
      <trkpt lat="48.82652" lon="-0.35201">
        <ele>66.400001525879</ele>
        <time>2017-06-11T11:45:36.000Z</time>
      </trkpt>
      <trkpt lat="48.82654" lon="-0.35204">
        <ele>66.400001525879</ele>
        <time>2017-06-11T11:45:37.000Z</time>
      </trkpt>
      <trkpt lat="48.82663" lon="-0.35213">
        <ele>66.400001525879</ele>
        <time>2017-06-11T11:45:41.000Z</time>
      </trkpt>
      <trkpt lat="48.82671" lon="-0.3522">
        <ele>66.400001525879</ele>
        <time>2017-06-11T11:45:46.000Z</time>
      </trkpt>
      <trkpt lat="48.82682" lon="-0.35236">
        <ele>66.400001525879</ele>
        <time>2017-06-11T11:45:51.000Z</time>
      </trkpt>
      <trkpt lat="48.82685" lon="-0.35241">
        <ele>66.400001525879</ele>
        <time>2017-06-11T11:45:55.000Z</time>
      </trkpt>
      <trkpt lat="48.82687" lon="-0.35249">
        <ele>66.400001525879</ele>
        <time>2017-06-11T11:46:00.000Z</time>
      </trkpt>
      <trkpt lat="48.82689" lon="-0.35251">
        <ele>66.400001525879</ele>
        <time>2017-06-11T11:46:01.000Z</time>
      </trkpt>
      <trkpt lat="48.82694" lon="-0.35257">
        <ele>66.400001525879</ele>
        <time>2017-06-11T11:46:04.000Z</time>
      </trkpt>
      <trkpt lat="48.827" lon="-0.35261">
        <ele>66.400001525879</ele>
        <time>2017-06-11T11:46:07.000Z</time>
      </trkpt>
      <trkpt lat="48.82708" lon="-0.35275">
        <ele>66.400001525879</ele>
        <time>2017-06-11T11:46:12.000Z</time>
      </trkpt>
      <trkpt lat="48.8272" lon="-0.35294">
        <ele>66.400001525879</ele>
        <time>2017-06-11T11:46:17.000Z</time>
      </trkpt>
      <trkpt lat="48.82724" lon="-0.353">
        <ele>66</ele>
        <time>2017-06-11T11:46:19.000Z</time>
      </trkpt>
      <trkpt lat="48.82726" lon="-0.35303">
        <ele>65.599998474121</ele>
        <time>2017-06-11T11:46:20.000Z</time>
      </trkpt>
      <trkpt lat="48.82728" lon="-0.35306">
        <ele>65.199996948242</ele>
        <time>2017-06-11T11:46:21.000Z</time>
      </trkpt>
      <trkpt lat="48.8273" lon="-0.35308">
        <ele>64.400001525879</ele>
        <time>2017-06-11T11:46:22.000Z</time>
      </trkpt>
      <trkpt lat="48.82731" lon="-0.35311">
        <ele>64.400001525879</ele>
        <time>2017-06-11T11:46:23.000Z</time>
      </trkpt>
      <trkpt lat="48.82741" lon="-0.35326">
        <ele>64.400001525879</ele>
        <time>2017-06-11T11:46:29.000Z</time>
      </trkpt>
      <trkpt lat="48.82755" lon="-0.35343">
        <ele>64.400001525879</ele>
        <time>2017-06-11T11:46:35.000Z</time>
      </trkpt>
      <trkpt lat="48.82763" lon="-0.35347">
        <ele>64.400001525879</ele>
        <time>2017-06-11T11:46:40.000Z</time>
      </trkpt>
      <trkpt lat="48.82765" lon="-0.35353">
        <ele>64.400001525879</ele>
        <time>2017-06-11T11:46:43.000Z</time>
      </trkpt>
      <trkpt lat="48.82768" lon="-0.35356">
        <ele>64.400001525879</ele>
        <time>2017-06-11T11:46:45.000Z</time>
      </trkpt>
      <trkpt lat="48.82779" lon="-0.35369">
        <ele>64.400001525879</ele>
        <time>2017-06-11T11:46:52.000Z</time>
      </trkpt>
      <trkpt lat="48.82783" lon="-0.35383">
        <ele>64.400001525879</ele>
        <time>2017-06-11T11:46:57.000Z</time>
      </trkpt>
      <trkpt lat="48.82784" lon="-0.35385">
        <ele>64.400001525879</ele>
        <time>2017-06-11T11:46:58.000Z</time>
      </trkpt>
      <trkpt lat="48.82793" lon="-0.35401">
        <ele>64.400001525879</ele>
        <time>2017-06-11T11:47:04.000Z</time>
      </trkpt>
      <trkpt lat="48.82797" lon="-0.35409">
        <ele>64.400001525879</ele>
        <time>2017-06-11T11:47:08.000Z</time>
      </trkpt>
      <trkpt lat="48.82799" lon="-0.35412">
        <ele>64.400001525879</ele>
        <time>2017-06-11T11:47:09.000Z</time>
      </trkpt>
      <trkpt lat="48.82808" lon="-0.35431">
        <ele>64.400001525879</ele>
        <time>2017-06-11T11:47:14.000Z</time>
      </trkpt>
      <trkpt lat="48.82815" lon="-0.35443">
        <ele>64.400001525879</ele>
        <time>2017-06-11T11:47:18.000Z</time>
      </trkpt>
      <trkpt lat="48.82817" lon="-0.35446">
        <ele>64.400001525879</ele>
        <time>2017-06-11T11:47:20.000Z</time>
      </trkpt>
      <trkpt lat="48.82822" lon="-0.35453">
        <ele>64</ele>
        <time>2017-06-11T11:47:25.000Z</time>
      </trkpt>
      <trkpt lat="48.82822" lon="-0.35454">
        <ele>63.599998474121</ele>
        <time>2017-06-11T11:47:26.000Z</time>
      </trkpt>
      <trkpt lat="48.82823" lon="-0.35455">
        <ele>63.200000762939</ele>
        <time>2017-06-11T11:47:27.000Z</time>
      </trkpt>
      <trkpt lat="48.82823" lon="-0.35455">
        <ele>62.799999237061</ele>
        <time>2017-06-11T11:47:28.000Z</time>
      </trkpt>
      <trkpt lat="48.82823" lon="-0.35455">
        <ele>62.400001525879</ele>
        <time>2017-06-11T11:47:29.000Z</time>
      </trkpt>
      <trkpt lat="48.82823" lon="-0.35455">
        <ele>62.400001525879</ele>
        <time>2017-06-11T11:47:33.000Z</time>
      </trkpt>
      <trkpt lat="48.82823" lon="-0.35455">
        <ele>62.400001525879</ele>
        <time>2017-06-11T11:47:46.000Z</time>
      </trkpt>
      <trkpt lat="48.82823" lon="-0.35456">
        <ele>62.400001525879</ele>
        <time>2017-06-11T11:47:55.000Z</time>
      </trkpt>
      <trkpt lat="48.82826" lon="-0.35464">
        <ele>62.400001525879</ele>
        <time>2017-06-11T11:48:02.000Z</time>
      </trkpt>
      <trkpt lat="48.82829" lon="-0.35471">
        <ele>62.400001525879</ele>
        <time>2017-06-11T11:48:06.000Z</time>
      </trkpt>
      <trkpt lat="48.82831" lon="-0.35476">
        <ele>62.400001525879</ele>
        <time>2017-06-11T11:48:08.000Z</time>
      </trkpt>
      <trkpt lat="48.82837" lon="-0.35483">
        <ele>62.400001525879</ele>
        <time>2017-06-11T11:48:12.000Z</time>
      </trkpt>
      <trkpt lat="48.8284" lon="-0.3549">
        <ele>62.400001525879</ele>
        <time>2017-06-11T11:48:14.000Z</time>
      </trkpt>
      <trkpt lat="48.82841" lon="-0.35493">
        <ele>62.400001525879</ele>
        <time>2017-06-11T11:48:15.000Z</time>
      </trkpt>
      <trkpt lat="48.8285" lon="-0.35507">
        <ele>62.400001525879</ele>
        <time>2017-06-11T11:48:23.000Z</time>
      </trkpt>
      <trkpt lat="48.82851" lon="-0.35512">
        <ele>62.400001525879</ele>
        <time>2017-06-11T11:48:25.000Z</time>
      </trkpt>
      <trkpt lat="48.82853" lon="-0.35521">
        <ele>62.400001525879</ele>
        <time>2017-06-11T11:48:29.000Z</time>
      </trkpt>
      <trkpt lat="48.82854" lon="-0.35531">
        <ele>62.400001525879</ele>
        <time>2017-06-11T11:48:35.000Z</time>
      </trkpt>
      <trkpt lat="48.82853" lon="-0.35546">
        <ele>62.400001525879</ele>
        <time>2017-06-11T11:48:42.000Z</time>
      </trkpt>
      <trkpt lat="48.82857" lon="-0.35558">
        <ele>62.400001525879</ele>
        <time>2017-06-11T11:48:48.000Z</time>
      </trkpt>
      <trkpt lat="48.8286" lon="-0.3556">
        <ele>62.400001525879</ele>
        <time>2017-06-11T11:48:54.000Z</time>
      </trkpt>
      <trkpt lat="48.82862" lon="-0.35565">
        <ele>62.400001525879</ele>
        <time>2017-06-11T11:49:01.000Z</time>
      </trkpt>
      <trkpt lat="48.82867" lon="-0.3558">
        <ele>62.400001525879</ele>
        <time>2017-06-11T11:49:06.000Z</time>
      </trkpt>
      <trkpt lat="48.82868" lon="-0.35589">
        <ele>62.400001525879</ele>
        <time>2017-06-11T11:49:11.000Z</time>
      </trkpt>
      <trkpt lat="48.82871" lon="-0.35593">
        <ele>62.400001525879</ele>
        <time>2017-06-11T11:49:16.000Z</time>
      </trkpt>
      <trkpt lat="48.82874" lon="-0.356">
        <ele>62.400001525879</ele>
        <time>2017-06-11T11:49:23.000Z</time>
      </trkpt>
      <trkpt lat="48.82876" lon="-0.35606">
        <ele>62.400001525879</ele>
        <time>2017-06-11T11:49:30.000Z</time>
      </trkpt>
      <trkpt lat="48.82881" lon="-0.35614">
        <ele>62.400001525879</ele>
        <time>2017-06-11T11:49:37.000Z</time>
      </trkpt>
      <trkpt lat="48.82885" lon="-0.35623">
        <ele>62.400001525879</ele>
        <time>2017-06-11T11:49:42.000Z</time>
      </trkpt>
      <trkpt lat="48.82885" lon="-0.35631">
        <ele>62.400001525879</ele>
        <time>2017-06-11T11:49:47.000Z</time>
      </trkpt>
      <trkpt lat="48.82885" lon="-0.35631">
        <ele>62.400001525879</ele>
        <time>2017-06-11T11:49:55.000Z</time>
      </trkpt>
      <trkpt lat="48.82885" lon="-0.35631">
        <ele>62.400001525879</ele>
        <time>2017-06-11T11:50:06.000Z</time>
      </trkpt>
      <trkpt lat="48.82886" lon="-0.35631">
        <ele>62.400001525879</ele>
        <time>2017-06-11T11:50:19.000Z</time>
      </trkpt>
      <trkpt lat="48.82886" lon="-0.35636">
        <ele>62.400001525879</ele>
        <time>2017-06-11T11:50:25.000Z</time>
      </trkpt>
      <trkpt lat="48.82886" lon="-0.35636">
        <ele>62.400001525879</ele>
        <time>2017-06-11T11:50:31.000Z</time>
      </trkpt>
      <trkpt lat="48.82886" lon="-0.35636">
        <ele>62.400001525879</ele>
        <time>2017-06-11T11:50:42.000Z</time>
      </trkpt>
      <trkpt lat="48.82886" lon="-0.35636">
        <ele>62.400001525879</ele>
        <time>2017-06-11T11:50:58.000Z</time>
      </trkpt>
      <trkpt lat="48.82886" lon="-0.35638">
        <ele>62.400001525879</ele>
        <time>2017-06-11T11:51:10.000Z</time>
      </trkpt>
      <trkpt lat="48.82886" lon="-0.35638">
        <ele>62.400001525879</ele>
        <time>2017-06-11T11:51:22.000Z</time>
      </trkpt>
      <trkpt lat="48.82888" lon="-0.35644">
        <ele>62.400001525879</ele>
        <time>2017-06-11T11:51:27.000Z</time>
      </trkpt>
      <trkpt lat="48.82894" lon="-0.35654">
        <ele>62.400001525879</ele>
        <time>2017-06-11T11:51:34.000Z</time>
      </trkpt>
      <trkpt lat="48.82895" lon="-0.35657">
        <ele>62.400001525879</ele>
        <time>2017-06-11T11:51:35.000Z</time>
      </trkpt>
      <trkpt lat="48.82901" lon="-0.35668">
        <ele>62.400001525879</ele>
        <time>2017-06-11T11:51:40.000Z</time>
      </trkpt>
      <trkpt lat="48.82908" lon="-0.35682">
        <ele>62.400001525879</ele>
        <time>2017-06-11T11:51:48.000Z</time>
      </trkpt>
      <trkpt lat="48.82915" lon="-0.35697">
        <ele>62.400001525879</ele>
        <time>2017-06-11T11:51:54.000Z</time>
      </trkpt>
      <trkpt lat="48.8292" lon="-0.35713">
        <ele>62.400001525879</ele>
        <time>2017-06-11T11:51:58.000Z</time>
      </trkpt>
      <trkpt lat="48.82928" lon="-0.35729">
        <ele>62.400001525879</ele>
        <time>2017-06-11T11:52:03.000Z</time>
      </trkpt>
      <trkpt lat="48.82933" lon="-0.35739">
        <ele>62.400001525879</ele>
        <time>2017-06-11T11:52:07.000Z</time>
      </trkpt>
      <trkpt lat="48.82941" lon="-0.35753">
        <ele>62.400001525879</ele>
        <time>2017-06-11T11:52:12.000Z</time>
      </trkpt>
      <trkpt lat="48.82949" lon="-0.35767">
        <ele>62.400001525879</ele>
        <time>2017-06-11T11:52:17.000Z</time>
      </trkpt>
      <trkpt lat="48.82957" lon="-0.35781">
        <ele>62.400001525879</ele>
        <time>2017-06-11T11:52:22.000Z</time>
      </trkpt>
      <trkpt lat="48.82957" lon="-0.35784">
        <ele>62.400001525879</ele>
        <time>2017-06-11T11:52:23.000Z</time>
      </trkpt>
      <trkpt lat="48.82958" lon="-0.35786">
        <ele>62.400001525879</ele>
        <time>2017-06-11T11:52:24.000Z</time>
      </trkpt>
      <trkpt lat="48.82963" lon="-0.35793">
        <ele>62.400001525879</ele>
        <time>2017-06-11T11:52:27.000Z</time>
      </trkpt>
      <trkpt lat="48.8297" lon="-0.35814">
        <ele>62.400001525879</ele>
        <time>2017-06-11T11:52:33.000Z</time>
      </trkpt>
      <trkpt lat="48.8298" lon="-0.35831">
        <ele>62.400001525879</ele>
        <time>2017-06-11T11:52:38.000Z</time>
      </trkpt>
      <trkpt lat="48.82989" lon="-0.35852">
        <ele>62.400001525879</ele>
        <time>2017-06-11T11:52:43.000Z</time>
      </trkpt>
      <trkpt lat="48.82995" lon="-0.35866">
        <ele>62.400001525879</ele>
        <time>2017-06-11T11:52:47.000Z</time>
      </trkpt>
      <trkpt lat="48.83005" lon="-0.35894">
        <ele>62.400001525879</ele>
        <time>2017-06-11T11:52:52.000Z</time>
      </trkpt>
      <trkpt lat="48.83015" lon="-0.35916">
        <ele>62.400001525879</ele>
        <time>2017-06-11T11:52:57.000Z</time>
      </trkpt>
      <trkpt lat="48.83028" lon="-0.35939">
        <ele>62.400001525879</ele>
        <time>2017-06-11T11:53:04.000Z</time>
      </trkpt>
      <trkpt lat="48.83036" lon="-0.35963">
        <ele>62.400001525879</ele>
        <time>2017-06-11T11:53:10.000Z</time>
      </trkpt>
      <trkpt lat="48.83042" lon="-0.35977">
        <ele>62.400001525879</ele>
        <time>2017-06-11T11:53:13.000Z</time>
      </trkpt>
      <trkpt lat="48.83044" lon="-0.3598">
        <ele>62.400001525879</ele>
        <time>2017-06-11T11:53:14.000Z</time>
      </trkpt>
      <trkpt lat="48.83056" lon="-0.36004">
        <ele>62.400001525879</ele>
        <time>2017-06-11T11:53:22.000Z</time>
      </trkpt>
      <trkpt lat="48.83063" lon="-0.36016">
        <ele>62.400001525879</ele>
        <time>2017-06-11T11:53:28.000Z</time>
      </trkpt>
      <trkpt lat="48.83067" lon="-0.36021">
        <ele>62.799999237061</ele>
        <time>2017-06-11T11:53:31.000Z</time>
      </trkpt>
      <trkpt lat="48.83068" lon="-0.36022">
        <ele>63.200000762939</ele>
        <time>2017-06-11T11:53:32.000Z</time>
      </trkpt>
      <trkpt lat="48.83068" lon="-0.36023">
        <ele>63.599998474121</ele>
        <time>2017-06-11T11:53:33.000Z</time>
      </trkpt>
      <trkpt lat="48.83068" lon="-0.36024">
        <ele>64</ele>
        <time>2017-06-11T11:53:34.000Z</time>
      </trkpt>
      <trkpt lat="48.83068" lon="-0.36025">
        <ele>64.400001525879</ele>
        <time>2017-06-11T11:53:35.000Z</time>
      </trkpt>
      <trkpt lat="48.83071" lon="-0.36027">
        <ele>64.400001525879</ele>
        <time>2017-06-11T11:53:42.000Z</time>
      </trkpt>
      <trkpt lat="48.83074" lon="-0.36029">
        <ele>64.800003051758</ele>
        <time>2017-06-11T11:53:49.000Z</time>
      </trkpt>
      <trkpt lat="48.83074" lon="-0.36029">
        <ele>65.199996948242</ele>
        <time>2017-06-11T11:53:50.000Z</time>
      </trkpt>
      <trkpt lat="48.83074" lon="-0.36029">
        <ele>65.599998474121</ele>
        <time>2017-06-11T11:53:51.000Z</time>
      </trkpt>
      <trkpt lat="48.83075" lon="-0.3603">
        <ele>66.199996948242</ele>
        <time>2017-06-11T11:53:52.000Z</time>
      </trkpt>
      <trkpt lat="48.83075" lon="-0.36031">
        <ele>66.599998474121</ele>
        <time>2017-06-11T11:53:53.000Z</time>
      </trkpt>
      <trkpt lat="48.83075" lon="-0.36031">
        <ele>66.599998474121</ele>
        <time>2017-06-11T11:53:55.000Z</time>
      </trkpt>
      <trkpt lat="48.83076" lon="-0.36033">
        <ele>66.599998474121</ele>
        <time>2017-06-11T11:54:00.000Z</time>
      </trkpt>
      <trkpt lat="48.83077" lon="-0.36034">
        <ele>66.599998474121</ele>
        <time>2017-06-11T11:54:07.000Z</time>
      </trkpt>
      <trkpt lat="48.83078" lon="-0.36035">
        <ele>67</ele>
        <time>2017-06-11T11:54:11.000Z</time>
      </trkpt>
      <trkpt lat="48.83078" lon="-0.36035">
        <ele>67.400001525879</ele>
        <time>2017-06-11T11:54:12.000Z</time>
      </trkpt>
      <trkpt lat="48.83078" lon="-0.36035">
        <ele>67.800003051758</ele>
        <time>2017-06-11T11:54:13.000Z</time>
      </trkpt>
      <trkpt lat="48.83078" lon="-0.36035">
        <ele>68.199996948242</ele>
        <time>2017-06-11T11:54:14.000Z</time>
      </trkpt>
      <trkpt lat="48.83078" lon="-0.36035">
        <ele>68.599998474121</ele>
        <time>2017-06-11T11:54:15.000Z</time>
      </trkpt>
      <trkpt lat="48.83078" lon="-0.36035">
        <ele>68.599998474121</ele>
        <time>2017-06-11T11:54:22.000Z</time>
      </trkpt>
      <trkpt lat="48.83079" lon="-0.36036">
        <ele>68.599998474121</ele>
        <time>2017-06-11T11:54:28.000Z</time>
      </trkpt>
      <trkpt lat="48.83082" lon="-0.36037">
        <ele>69</ele>
        <time>2017-06-11T11:54:31.000Z</time>
      </trkpt>
      <trkpt lat="48.83083" lon="-0.36038">
        <ele>69.400001525879</ele>
        <time>2017-06-11T11:54:32.000Z</time>
      </trkpt>
      <trkpt lat="48.83083" lon="-0.36039">
        <ele>69.800003051758</ele>
        <time>2017-06-11T11:54:33.000Z</time>
      </trkpt>
      <trkpt lat="48.83084" lon="-0.36039">
        <ele>70.199996948242</ele>
        <time>2017-06-11T11:54:35.000Z</time>
      </trkpt>
      <trkpt lat="48.83085" lon="-0.36039">
        <ele>70.599998474121</ele>
        <time>2017-06-11T11:54:36.000Z</time>
      </trkpt>
      <trkpt lat="48.83092" lon="-0.36043">
        <ele>70.599998474121</ele>
        <time>2017-06-11T11:54:42.000Z</time>
      </trkpt>
      <trkpt lat="48.83093" lon="-0.36043">
        <ele>71</ele>
        <time>2017-06-11T11:54:44.000Z</time>
      </trkpt>
      <trkpt lat="48.83093" lon="-0.36043">
        <ele>71.400001525879</ele>
        <time>2017-06-11T11:54:45.000Z</time>
      </trkpt>
      <trkpt lat="48.83093" lon="-0.36043">
        <ele>71.800003051758</ele>
        <time>2017-06-11T11:54:46.000Z</time>
      </trkpt>
      <trkpt lat="48.83093" lon="-0.36043">
        <ele>72.199996948242</ele>
        <time>2017-06-11T11:54:47.000Z</time>
      </trkpt>
      <trkpt lat="48.83094" lon="-0.36044">
        <ele>72.599998474121</ele>
        <time>2017-06-11T11:54:48.000Z</time>
      </trkpt>
      <trkpt lat="48.83101" lon="-0.36048">
        <ele>72.599998474121</ele>
        <time>2017-06-11T11:54:55.000Z</time>
      </trkpt>
      <trkpt lat="48.83102" lon="-0.36053">
        <ele>72.599998474121</ele>
        <time>2017-06-11T11:54:59.000Z</time>
      </trkpt>
      <trkpt lat="48.83103" lon="-0.36054">
        <ele>72.599998474121</ele>
        <time>2017-06-11T11:55:00.000Z</time>
      </trkpt>
      <trkpt lat="48.83108" lon="-0.36058">
        <ele>72.599998474121</ele>
        <time>2017-06-11T11:55:05.000Z</time>
      </trkpt>
      <trkpt lat="48.83114" lon="-0.36061">
        <ele>72.599998474121</ele>
        <time>2017-06-11T11:55:11.000Z</time>
      </trkpt>
      <trkpt lat="48.83114" lon="-0.3606">
        <ele>72.599998474121</ele>
        <time>2017-06-11T11:55:17.000Z</time>
      </trkpt>
      <trkpt lat="48.83114" lon="-0.3606">
        <ele>72.599998474121</ele>
        <time>2017-06-11T11:55:25.000Z</time>
      </trkpt>
      <trkpt lat="48.83114" lon="-0.36061">
        <ele>72.599998474121</ele>
        <time>2017-06-11T11:55:32.000Z</time>
      </trkpt>
      <trkpt lat="48.83115" lon="-0.36062">
        <ele>72.599998474121</ele>
        <time>2017-06-11T11:55:39.000Z</time>
      </trkpt>
      <trkpt lat="48.83115" lon="-0.36062">
        <ele>72.599998474121</ele>
        <time>2017-06-11T11:55:44.000Z</time>
      </trkpt>
      <trkpt lat="48.83114" lon="-0.36062">
        <ele>72.599998474121</ele>
        <time>2017-06-11T11:55:51.000Z</time>
      </trkpt>
      <trkpt lat="48.83114" lon="-0.36063">
        <ele>72.599998474121</ele>
        <time>2017-06-11T11:55:56.000Z</time>
      </trkpt>
      <trkpt lat="48.83114" lon="-0.36063">
        <ele>72.599998474121</ele>
        <time>2017-06-11T11:56:10.000Z</time>
      </trkpt>
      <trkpt lat="48.83114" lon="-0.36063">
        <ele>72.599998474121</ele>
        <time>2017-06-11T11:56:25.000Z</time>
      </trkpt>
      <trkpt lat="48.83114" lon="-0.36063">
        <ele>72.599998474121</ele>
        <time>2017-06-11T11:56:34.000Z</time>
      </trkpt>
      <trkpt lat="48.83114" lon="-0.36062">
        <ele>72.599998474121</ele>
        <time>2017-06-11T11:56:44.000Z</time>
      </trkpt>
      <trkpt lat="48.83121" lon="-0.36061">
        <ele>72.599998474121</ele>
        <time>2017-06-11T11:56:51.000Z</time>
      </trkpt>
      <trkpt lat="48.83125" lon="-0.36058">
        <ele>72.599998474121</ele>
        <time>2017-06-11T11:56:56.000Z</time>
      </trkpt>
      <trkpt lat="48.83126" lon="-0.36057">
        <ele>72.599998474121</ele>
        <time>2017-06-11T11:56:57.000Z</time>
      </trkpt>
      <trkpt lat="48.83128" lon="-0.36053">
        <ele>72.599998474121</ele>
        <time>2017-06-11T11:56:59.000Z</time>
      </trkpt>
      <trkpt lat="48.83135" lon="-0.3604">
        <ele>73</ele>
        <time>2017-06-11T11:57:04.000Z</time>
      </trkpt>
      <trkpt lat="48.83135" lon="-0.36036">
        <ele>74</ele>
        <time>2017-06-11T11:57:05.000Z</time>
      </trkpt>
      <trkpt lat="48.83136" lon="-0.36033">
        <ele>74.400001525879</ele>
        <time>2017-06-11T11:57:06.000Z</time>
      </trkpt>
      <trkpt lat="48.83136" lon="-0.3603">
        <ele>74.800003051758</ele>
        <time>2017-06-11T11:57:07.000Z</time>
      </trkpt>
      <trkpt lat="48.83138" lon="-0.36023">
        <ele>74.800003051758</ele>
        <time>2017-06-11T11:57:10.000Z</time>
      </trkpt>
      <trkpt lat="48.83143" lon="-0.36016">
        <ele>74.800003051758</ele>
        <time>2017-06-11T11:57:13.000Z</time>
      </trkpt>
      <trkpt lat="48.83148" lon="-0.36008">
        <ele>75.199996948242</ele>
        <time>2017-06-11T11:57:16.000Z</time>
      </trkpt>
      <trkpt lat="48.83149" lon="-0.36006">
        <ele>75.599998474121</ele>
        <time>2017-06-11T11:57:17.000Z</time>
      </trkpt>
      <trkpt lat="48.83151" lon="-0.36003">
        <ele>76</ele>
        <time>2017-06-11T11:57:18.000Z</time>
      </trkpt>
      <trkpt lat="48.83152" lon="-0.36">
        <ele>76.400001525879</ele>
        <time>2017-06-11T11:57:19.000Z</time>
      </trkpt>
      <trkpt lat="48.83154" lon="-0.35997">
        <ele>76.800003051758</ele>
        <time>2017-06-11T11:57:20.000Z</time>
      </trkpt>
      <trkpt lat="48.83158" lon="-0.35989">
        <ele>76.800003051758</ele>
        <time>2017-06-11T11:57:23.000Z</time>
      </trkpt>
      <trkpt lat="48.83162" lon="-0.35975">
        <ele>76.800003051758</ele>
        <time>2017-06-11T11:57:28.000Z</time>
      </trkpt>
      <trkpt lat="48.83161" lon="-0.35972">
        <ele>76.800003051758</ele>
        <time>2017-06-11T11:57:29.000Z</time>
      </trkpt>
      <trkpt lat="48.83161" lon="-0.3597">
        <ele>77.199996948242</ele>
        <time>2017-06-11T11:57:30.000Z</time>
      </trkpt>
      <trkpt lat="48.83162" lon="-0.35968">
        <ele>77.599998474121</ele>
        <time>2017-06-11T11:57:31.000Z</time>
      </trkpt>
      <trkpt lat="48.83161" lon="-0.35965">
        <ele>78</ele>
        <time>2017-06-11T11:57:32.000Z</time>
      </trkpt>
      <trkpt lat="48.83161" lon="-0.35963">
        <ele>78.400001525879</ele>
        <time>2017-06-11T11:57:33.000Z</time>
      </trkpt>
      <trkpt lat="48.83161" lon="-0.35961">
        <ele>78.800003051758</ele>
        <time>2017-06-11T11:57:34.000Z</time>
      </trkpt>
      <trkpt lat="48.83161" lon="-0.3596">
        <ele>78.800003051758</ele>
        <time>2017-06-11T11:57:35.000Z</time>
      </trkpt>
      <trkpt lat="48.83162" lon="-0.35955">
        <ele>78.800003051758</ele>
        <time>2017-06-11T11:57:37.000Z</time>
      </trkpt>
      <trkpt lat="48.83163" lon="-0.35943">
        <ele>78.800003051758</ele>
        <time>2017-06-11T11:57:42.000Z</time>
      </trkpt>
      <trkpt lat="48.83163" lon="-0.35941">
        <ele>79.199996948242</ele>
        <time>2017-06-11T11:57:43.000Z</time>
      </trkpt>
      <trkpt lat="48.83163" lon="-0.35938">
        <ele>79.599998474121</ele>
        <time>2017-06-11T11:57:44.000Z</time>
      </trkpt>
      <trkpt lat="48.83163" lon="-0.35935">
        <ele>80</ele>
        <time>2017-06-11T11:57:45.000Z</time>
      </trkpt>
      <trkpt lat="48.83163" lon="-0.35934">
        <ele>80.400001525879</ele>
        <time>2017-06-11T11:57:46.000Z</time>
      </trkpt>
      <trkpt lat="48.83163" lon="-0.35932">
        <ele>80.800003051758</ele>
        <time>2017-06-11T11:57:47.000Z</time>
      </trkpt>
      <trkpt lat="48.83163" lon="-0.35927">
        <ele>80.800003051758</ele>
        <time>2017-06-11T11:57:49.000Z</time>
      </trkpt>
      <trkpt lat="48.83164" lon="-0.35918">
        <ele>81.800003051758</ele>
        <time>2017-06-11T11:57:54.000Z</time>
      </trkpt>
      <trkpt lat="48.83164" lon="-0.35916">
        <ele>82.199996948242</ele>
        <time>2017-06-11T11:57:55.000Z</time>
      </trkpt>
      <trkpt lat="48.83165" lon="-0.35914">
        <ele>82.599998474121</ele>
        <time>2017-06-11T11:57:56.000Z</time>
      </trkpt>
      <trkpt lat="48.83167" lon="-0.35913">
        <ele>83</ele>
        <time>2017-06-11T11:57:57.000Z</time>
      </trkpt>
      <trkpt lat="48.83171" lon="-0.35904">
        <ele>83</ele>
        <time>2017-06-11T11:58:03.000Z</time>
      </trkpt>
      <trkpt lat="48.83173" lon="-0.35898">
        <ele>83.400001525879</ele>
        <time>2017-06-11T11:58:06.000Z</time>
      </trkpt>
      <trkpt lat="48.83174" lon="-0.35897">
        <ele>83.800003051758</ele>
        <time>2017-06-11T11:58:07.000Z</time>
      </trkpt>
      <trkpt lat="48.83175" lon="-0.35895">
        <ele>84.199996948242</ele>
        <time>2017-06-11T11:58:08.000Z</time>
      </trkpt>
      <trkpt lat="48.83176" lon="-0.35894">
        <ele>84.800003051758</ele>
        <time>2017-06-11T11:58:09.000Z</time>
      </trkpt>
      <trkpt lat="48.83177" lon="-0.35893">
        <ele>85.199996948242</ele>
        <time>2017-06-11T11:58:10.000Z</time>
      </trkpt>
      <trkpt lat="48.83177" lon="-0.35891">
        <ele>85.199996948242</ele>
        <time>2017-06-11T11:58:11.000Z</time>
      </trkpt>
      <trkpt lat="48.83178" lon="-0.35881">
        <ele>85.599998474121</ele>
        <time>2017-06-11T11:58:18.000Z</time>
      </trkpt>
      <trkpt lat="48.83178" lon="-0.35879">
        <ele>86.400001525879</ele>
        <time>2017-06-11T11:58:19.000Z</time>
      </trkpt>
      <trkpt lat="48.83179" lon="-0.35876">
        <ele>86.800003051758</ele>
        <time>2017-06-11T11:58:20.000Z</time>
      </trkpt>
      <trkpt lat="48.83179" lon="-0.35874">
        <ele>87.199996948242</ele>
        <time>2017-06-11T11:58:21.000Z</time>
      </trkpt>
      <trkpt lat="48.83184" lon="-0.35864">
        <ele>87.199996948242</ele>
        <time>2017-06-11T11:58:26.000Z</time>
      </trkpt>
      <trkpt lat="48.83187" lon="-0.35857">
        <ele>87.199996948242</ele>
        <time>2017-06-11T11:58:29.000Z</time>
      </trkpt>
      <trkpt lat="48.83188" lon="-0.35853">
        <ele>87.599998474121</ele>
        <time>2017-06-11T11:58:30.000Z</time>
      </trkpt>
      <trkpt lat="48.83189" lon="-0.35851">
        <ele>88</ele>
        <time>2017-06-11T11:58:31.000Z</time>
      </trkpt>
      <trkpt lat="48.8319" lon="-0.35849">
        <ele>88.400001525879</ele>
        <time>2017-06-11T11:58:32.000Z</time>
      </trkpt>
      <trkpt lat="48.8319" lon="-0.35848">
        <ele>88.800003051758</ele>
        <time>2017-06-11T11:58:33.000Z</time>
      </trkpt>
      <trkpt lat="48.83191" lon="-0.35846">
        <ele>89.199996948242</ele>
        <time>2017-06-11T11:58:34.000Z</time>
      </trkpt>
      <trkpt lat="48.83191" lon="-0.35844">
        <ele>89.199996948242</ele>
        <time>2017-06-11T11:58:35.000Z</time>
      </trkpt>
      <trkpt lat="48.83195" lon="-0.35831">
        <ele>89.599998474121</ele>
        <time>2017-06-11T11:58:43.000Z</time>
      </trkpt>
      <trkpt lat="48.83196" lon="-0.3583">
        <ele>90</ele>
        <time>2017-06-11T11:58:44.000Z</time>
      </trkpt>
      <trkpt lat="48.83196" lon="-0.35828">
        <ele>90.599998474121</ele>
        <time>2017-06-11T11:58:45.000Z</time>
      </trkpt>
      <trkpt lat="48.83196" lon="-0.35826">
        <ele>91</ele>
        <time>2017-06-11T11:58:46.000Z</time>
      </trkpt>
      <trkpt lat="48.83196" lon="-0.35823">
        <ele>91.400001525879</ele>
        <time>2017-06-11T11:58:47.000Z</time>
      </trkpt>
      <trkpt lat="48.83197" lon="-0.3581">
        <ele>91.400001525879</ele>
        <time>2017-06-11T11:58:52.000Z</time>
      </trkpt>
      <trkpt lat="48.83197" lon="-0.35799">
        <ele>91.400001525879</ele>
        <time>2017-06-11T11:58:57.000Z</time>
      </trkpt>
      <trkpt lat="48.83197" lon="-0.35796">
        <ele>91.800003051758</ele>
        <time>2017-06-11T11:58:58.000Z</time>
      </trkpt>
      <trkpt lat="48.83197" lon="-0.35792">
        <ele>92.199996948242</ele>
        <time>2017-06-11T11:58:59.000Z</time>
      </trkpt>
      <trkpt lat="48.83197" lon="-0.35789">
        <ele>92.800003051758</ele>
        <time>2017-06-11T11:59:00.000Z</time>
      </trkpt>
      <trkpt lat="48.83197" lon="-0.35788">
        <ele>93.199996948242</ele>
        <time>2017-06-11T11:59:01.000Z</time>
      </trkpt>
      <trkpt lat="48.83197" lon="-0.35785">
        <ele>93.599998474121</ele>
        <time>2017-06-11T11:59:02.000Z</time>
      </trkpt>
      <trkpt lat="48.83196" lon="-0.3578">
        <ele>93.599998474121</ele>
        <time>2017-06-11T11:59:04.000Z</time>
      </trkpt>
      <trkpt lat="48.83197" lon="-0.35765">
        <ele>93.599998474121</ele>
        <time>2017-06-11T11:59:10.000Z</time>
      </trkpt>
      <trkpt lat="48.83197" lon="-0.35762">
        <ele>94</ele>
        <time>2017-06-11T11:59:11.000Z</time>
      </trkpt>
      <trkpt lat="48.83198" lon="-0.3576">
        <ele>94.400001525879</ele>
        <time>2017-06-11T11:59:12.000Z</time>
      </trkpt>
      <trkpt lat="48.83198" lon="-0.35757">
        <ele>94.800003051758</ele>
        <time>2017-06-11T11:59:13.000Z</time>
      </trkpt>
      <trkpt lat="48.83198" lon="-0.35754">
        <ele>95.199996948242</ele>
        <time>2017-06-11T11:59:14.000Z</time>
      </trkpt>
      <trkpt lat="48.83198" lon="-0.35752">
        <ele>95.599998474121</ele>
        <time>2017-06-11T11:59:15.000Z</time>
      </trkpt>
      <trkpt lat="48.83198" lon="-0.3575">
        <ele>95.599998474121</ele>
        <time>2017-06-11T11:59:16.000Z</time>
      </trkpt>
      <trkpt lat="48.832" lon="-0.35733">
        <ele>95.599998474121</ele>
        <time>2017-06-11T11:59:23.000Z</time>
      </trkpt>
      <trkpt lat="48.832" lon="-0.35725">
        <ele>96</ele>
        <time>2017-06-11T11:59:26.000Z</time>
      </trkpt>
      <trkpt lat="48.83201" lon="-0.35722">
        <ele>96.400001525879</ele>
        <time>2017-06-11T11:59:27.000Z</time>
      </trkpt>
      <trkpt lat="48.83201" lon="-0.3572">
        <ele>97</ele>
        <time>2017-06-11T11:59:28.000Z</time>
      </trkpt>
      <trkpt lat="48.83201" lon="-0.35717">
        <ele>97.400001525879</ele>
        <time>2017-06-11T11:59:29.000Z</time>
      </trkpt>
      <trkpt lat="48.83201" lon="-0.35715">
        <ele>97.800003051758</ele>
        <time>2017-06-11T11:59:30.000Z</time>
      </trkpt>
      <trkpt lat="48.83203" lon="-0.35699">
        <ele>98.199996948242</ele>
        <time>2017-06-11T11:59:37.000Z</time>
      </trkpt>
      <trkpt lat="48.83203" lon="-0.35696">
        <ele>98.599998474121</ele>
        <time>2017-06-11T11:59:38.000Z</time>
      </trkpt>
      <trkpt lat="48.83203" lon="-0.35693">
        <ele>99</ele>
        <time>2017-06-11T11:59:39.000Z</time>
      </trkpt>
      <trkpt lat="48.83204" lon="-0.3569">
        <ele>99.400001525879</ele>
        <time>2017-06-11T11:59:40.000Z</time>
      </trkpt>
      <trkpt lat="48.83204" lon="-0.35687">
        <ele>99.800003051758</ele>
        <time>2017-06-11T11:59:41.000Z</time>
      </trkpt>
      <trkpt lat="48.83205" lon="-0.35681">
        <ele>99.800003051758</ele>
        <time>2017-06-11T11:59:43.000Z</time>
      </trkpt>
      <trkpt lat="48.83206" lon="-0.35664">
        <ele>100.19999694824</ele>
        <time>2017-06-11T11:59:50.000Z</time>
      </trkpt>
      <trkpt lat="48.83207" lon="-0.35661">
        <ele>100.59999847412</ele>
        <time>2017-06-11T11:59:51.000Z</time>
      </trkpt>
      <trkpt lat="48.83208" lon="-0.35659">
        <ele>101</ele>
        <time>2017-06-11T11:59:52.000Z</time>
      </trkpt>
      <trkpt lat="48.83209" lon="-0.35657">
        <ele>101.40000152588</ele>
        <time>2017-06-11T11:59:53.000Z</time>
      </trkpt>
      <trkpt lat="48.83209" lon="-0.35655">
        <ele>101.80000305176</ele>
        <time>2017-06-11T11:59:54.000Z</time>
      </trkpt>
      <trkpt lat="48.8321" lon="-0.35642">
        <ele>101.80000305176</ele>
        <time>2017-06-11T11:59:59.000Z</time>
      </trkpt>
      <trkpt lat="48.83217" lon="-0.35625">
        <ele>102.19999694824</ele>
        <time>2017-06-11T12:00:04.000Z</time>
      </trkpt>
      <trkpt lat="48.83219" lon="-0.3562">
        <ele>102.59999847412</ele>
        <time>2017-06-11T12:00:05.000Z</time>
      </trkpt>
      <trkpt lat="48.83221" lon="-0.35615">
        <ele>103</ele>
        <time>2017-06-11T12:00:06.000Z</time>
      </trkpt>
      <trkpt lat="48.83222" lon="-0.3561">
        <ele>103.40000152588</ele>
        <time>2017-06-11T12:00:07.000Z</time>
      </trkpt>
      <trkpt lat="48.83223" lon="-0.35605">
        <ele>103.80000305176</ele>
        <time>2017-06-11T12:00:08.000Z</time>
      </trkpt>
      <trkpt lat="48.83228" lon="-0.35585">
        <ele>103.80000305176</ele>
        <time>2017-06-11T12:00:13.000Z</time>
      </trkpt>
      <trkpt lat="48.83237" lon="-0.35564">
        <ele>103.80000305176</ele>
        <time>2017-06-11T12:00:20.000Z</time>
      </trkpt>
      <trkpt lat="48.83242" lon="-0.3555">
        <ele>104.40000152588</ele>
        <time>2017-06-11T12:00:24.000Z</time>
      </trkpt>
      <trkpt lat="48.83244" lon="-0.35547">
        <ele>104.80000305176</ele>
        <time>2017-06-11T12:00:25.000Z</time>
      </trkpt>
      <trkpt lat="48.83245" lon="-0.35543">
        <ele>105.19999694824</ele>
        <time>2017-06-11T12:00:26.000Z</time>
      </trkpt>
      <trkpt lat="48.83246" lon="-0.3554">
        <ele>105.59999847412</ele>
        <time>2017-06-11T12:00:27.000Z</time>
      </trkpt>
      <trkpt lat="48.83247" lon="-0.35537">
        <ele>106</ele>
        <time>2017-06-11T12:00:28.000Z</time>
      </trkpt>
      <trkpt lat="48.83251" lon="-0.35523">
        <ele>106</ele>
        <time>2017-06-11T12:00:33.000Z</time>
      </trkpt>
      <trkpt lat="48.83254" lon="-0.35503">
        <ele>106</ele>
        <time>2017-06-11T12:00:39.000Z</time>
      </trkpt>
      <trkpt lat="48.83254" lon="-0.35498">
        <ele>106.40000152588</ele>
        <time>2017-06-11T12:00:40.000Z</time>
      </trkpt>
      <trkpt lat="48.83254" lon="-0.35493">
        <ele>106.80000305176</ele>
        <time>2017-06-11T12:00:41.000Z</time>
      </trkpt>
      <trkpt lat="48.83255" lon="-0.35488">
        <ele>107.19999694824</ele>
        <time>2017-06-11T12:00:42.000Z</time>
      </trkpt>
      <trkpt lat="48.83255" lon="-0.35484">
        <ele>107.59999847412</ele>
        <time>2017-06-11T12:00:43.000Z</time>
      </trkpt>
      <trkpt lat="48.83255" lon="-0.3548">
        <ele>108</ele>
        <time>2017-06-11T12:00:44.000Z</time>
      </trkpt>
      <trkpt lat="48.83256" lon="-0.35477">
        <ele>108</ele>
        <time>2017-06-11T12:00:45.000Z</time>
      </trkpt>
      <trkpt lat="48.83263" lon="-0.35465">
        <ele>108</ele>
        <time>2017-06-11T12:00:50.000Z</time>
      </trkpt>
      <trkpt lat="48.83272" lon="-0.35463">
        <ele>108</ele>
        <time>2017-06-11T12:00:55.000Z</time>
      </trkpt>
      <trkpt lat="48.83281" lon="-0.35461">
        <ele>108</ele>
        <time>2017-06-11T12:01:01.000Z</time>
      </trkpt>
      <trkpt lat="48.83283" lon="-0.35458">
        <ele>108.40000152588</ele>
        <time>2017-06-11T12:01:03.000Z</time>
      </trkpt>
      <trkpt lat="48.83284" lon="-0.35457">
        <ele>108.80000305176</ele>
        <time>2017-06-11T12:01:04.000Z</time>
      </trkpt>
      <trkpt lat="48.83286" lon="-0.35455">
        <ele>109.19999694824</ele>
        <time>2017-06-11T12:01:05.000Z</time>
      </trkpt>
      <trkpt lat="48.83287" lon="-0.35455">
        <ele>109.80000305176</ele>
        <time>2017-06-11T12:01:06.000Z</time>
      </trkpt>
      <trkpt lat="48.83288" lon="-0.35455">
        <ele>110.19999694824</ele>
        <time>2017-06-11T12:01:07.000Z</time>
      </trkpt>
      <trkpt lat="48.83288" lon="-0.35455">
        <ele>110.19999694824</ele>
        <time>2017-06-11T12:01:08.000Z</time>
      </trkpt>
      <trkpt lat="48.83292" lon="-0.35453">
        <ele>110.19999694824</ele>
        <time>2017-06-11T12:01:15.000Z</time>
      </trkpt>
      <trkpt lat="48.83294" lon="-0.35447">
        <ele>110.19999694824</ele>
        <time>2017-06-11T12:01:23.000Z</time>
      </trkpt>
      <trkpt lat="48.833" lon="-0.3544">
        <ele>110.59999847412</ele>
        <time>2017-06-11T12:01:29.000Z</time>
      </trkpt>
      <trkpt lat="48.83301" lon="-0.35439">
        <ele>111</ele>
        <time>2017-06-11T12:01:30.000Z</time>
      </trkpt>
      <trkpt lat="48.83301" lon="-0.35439">
        <ele>111.40000152588</ele>
        <time>2017-06-11T12:01:31.000Z</time>
      </trkpt>
      <trkpt lat="48.83301" lon="-0.35439">
        <ele>111.80000305176</ele>
        <time>2017-06-11T12:01:32.000Z</time>
      </trkpt>
      <trkpt lat="48.83301" lon="-0.35439">
        <ele>112.19999694824</ele>
        <time>2017-06-11T12:01:33.000Z</time>
      </trkpt>
      <trkpt lat="48.83302" lon="-0.35438">
        <ele>112.19999694824</ele>
        <time>2017-06-11T12:01:40.000Z</time>
      </trkpt>
      <trkpt lat="48.83304" lon="-0.35435">
        <ele>112.19999694824</ele>
        <time>2017-06-11T12:01:46.000Z</time>
      </trkpt>
      <trkpt lat="48.83308" lon="-0.35431">
        <ele>112.19999694824</ele>
        <time>2017-06-11T12:01:50.000Z</time>
      </trkpt>
      <trkpt lat="48.83313" lon="-0.35432">
        <ele>112.19999694824</ele>
        <time>2017-06-11T12:01:57.000Z</time>
      </trkpt>
      <trkpt lat="48.83315" lon="-0.35432">
        <ele>112.19999694824</ele>
        <time>2017-06-11T12:02:04.000Z</time>
      </trkpt>
      <trkpt lat="48.8332" lon="-0.35432">
        <ele>112.19999694824</ele>
        <time>2017-06-11T12:02:06.000Z</time>
      </trkpt>
      <trkpt lat="48.83323" lon="-0.35432">
        <ele>112.59999847412</ele>
        <time>2017-06-11T12:02:07.000Z</time>
      </trkpt>
      <trkpt lat="48.83326" lon="-0.35432">
        <ele>113</ele>
        <time>2017-06-11T12:02:08.000Z</time>
      </trkpt>
      <trkpt lat="48.83328" lon="-0.35432">
        <ele>113.40000152588</ele>
        <time>2017-06-11T12:02:09.000Z</time>
      </trkpt>
      <trkpt lat="48.83331" lon="-0.35431">
        <ele>113.80000305176</ele>
        <time>2017-06-11T12:02:10.000Z</time>
      </trkpt>
      <trkpt lat="48.83333" lon="-0.35431">
        <ele>114.19999694824</ele>
        <time>2017-06-11T12:02:11.000Z</time>
      </trkpt>
      <trkpt lat="48.83341" lon="-0.35431">
        <ele>114.59999847412</ele>
        <time>2017-06-11T12:02:14.000Z</time>
      </trkpt>
      <trkpt lat="48.83343" lon="-0.35432">
        <ele>115</ele>
        <time>2017-06-11T12:02:15.000Z</time>
      </trkpt>
      <trkpt lat="48.83345" lon="-0.35433">
        <ele>115.40000152588</ele>
        <time>2017-06-11T12:02:16.000Z</time>
      </trkpt>
      <trkpt lat="48.83347" lon="-0.35433">
        <ele>115.80000305176</ele>
        <time>2017-06-11T12:02:17.000Z</time>
      </trkpt>
      <trkpt lat="48.83349" lon="-0.35434">
        <ele>116.19999694824</ele>
        <time>2017-06-11T12:02:18.000Z</time>
      </trkpt>
      <trkpt lat="48.83354" lon="-0.35434">
        <ele>116.19999694824</ele>
        <time>2017-06-11T12:02:22.000Z</time>
      </trkpt>
      <trkpt lat="48.83357" lon="-0.35434">
        <ele>116.59999847412</ele>
        <time>2017-06-11T12:02:24.000Z</time>
      </trkpt>
      <trkpt lat="48.83358" lon="-0.35434">
        <ele>117</ele>
        <time>2017-06-11T12:02:25.000Z</time>
      </trkpt>
      <trkpt lat="48.83359" lon="-0.35434">
        <ele>117.80000305176</ele>
        <time>2017-06-11T12:02:26.000Z</time>
      </trkpt>
      <trkpt lat="48.8336" lon="-0.35434">
        <ele>118.19999694824</ele>
        <time>2017-06-11T12:02:27.000Z</time>
      </trkpt>
      <trkpt lat="48.83363" lon="-0.35434">
        <ele>118.19999694824</ele>
        <time>2017-06-11T12:02:29.000Z</time>
      </trkpt>
      <trkpt lat="48.8337" lon="-0.35435">
        <ele>118.59999847412</ele>
        <time>2017-06-11T12:02:33.000Z</time>
      </trkpt>
      <trkpt lat="48.83371" lon="-0.35435">
        <ele>119.19999694824</ele>
        <time>2017-06-11T12:02:34.000Z</time>
      </trkpt>
      <trkpt lat="48.83373" lon="-0.35435">
        <ele>119.59999847412</ele>
        <time>2017-06-11T12:02:35.000Z</time>
      </trkpt>
      <trkpt lat="48.83375" lon="-0.35436">
        <ele>120</ele>
        <time>2017-06-11T12:02:36.000Z</time>
      </trkpt>
      <trkpt lat="48.83376" lon="-0.35436">
        <ele>120.40000152588</ele>
        <time>2017-06-11T12:02:37.000Z</time>
      </trkpt>
      <trkpt lat="48.83383" lon="-0.35435">
        <ele>120.80000305176</ele>
        <time>2017-06-11T12:02:42.000Z</time>
      </trkpt>
      <trkpt lat="48.83385" lon="-0.35434">
        <ele>121.40000152588</ele>
        <time>2017-06-11T12:02:43.000Z</time>
      </trkpt>
      <trkpt lat="48.83386" lon="-0.35434">
        <ele>121.80000305176</ele>
        <time>2017-06-11T12:02:44.000Z</time>
      </trkpt>
      <trkpt lat="48.83388" lon="-0.35434">
        <ele>122.19999694824</ele>
        <time>2017-06-11T12:02:45.000Z</time>
      </trkpt>
      <trkpt lat="48.83389" lon="-0.35433">
        <ele>122.80000305176</ele>
        <time>2017-06-11T12:02:46.000Z</time>
      </trkpt>
      <trkpt lat="48.83396" lon="-0.35433">
        <ele>123.59999847412</ele>
        <time>2017-06-11T12:02:50.000Z</time>
      </trkpt>
      <trkpt lat="48.83398" lon="-0.35432">
        <ele>124</ele>
        <time>2017-06-11T12:02:51.000Z</time>
      </trkpt>
      <trkpt lat="48.83399" lon="-0.35432">
        <ele>124.59999847412</ele>
        <time>2017-06-11T12:02:52.000Z</time>
      </trkpt>
      <trkpt lat="48.834" lon="-0.35431">
        <ele>125</ele>
        <time>2017-06-11T12:02:53.000Z</time>
      </trkpt>
      <trkpt lat="48.83404" lon="-0.35423">
        <ele>125.40000152588</ele>
        <time>2017-06-11T12:02:58.000Z</time>
      </trkpt>
      <trkpt lat="48.83404" lon="-0.35421">
        <ele>125.80000305176</ele>
        <time>2017-06-11T12:02:59.000Z</time>
      </trkpt>
      <trkpt lat="48.83404" lon="-0.3542">
        <ele>126.19999694824</ele>
        <time>2017-06-11T12:03:00.000Z</time>
      </trkpt>
      <trkpt lat="48.83404" lon="-0.35418">
        <ele>126.80000305176</ele>
        <time>2017-06-11T12:03:01.000Z</time>
      </trkpt>
      <trkpt lat="48.83404" lon="-0.35418">
        <ele>127.19999694824</ele>
        <time>2017-06-11T12:03:02.000Z</time>
      </trkpt>
      <trkpt lat="48.83403" lon="-0.35416">
        <ele>127.19999694824</ele>
        <time>2017-06-11T12:03:04.000Z</time>
      </trkpt>
      <trkpt lat="48.83403" lon="-0.35408">
        <ele>127.19999694824</ele>
        <time>2017-06-11T12:03:12.000Z</time>
      </trkpt>
      <trkpt lat="48.83403" lon="-0.35407">
        <ele>129.19999694824</ele>
        <time>2017-06-11T12:08:54.000Z</time>
      </trkpt>
      <trkpt lat="48.83399" lon="-0.35403">
        <ele>129.19999694824</ele>
        <time>2017-06-11T12:09:00.000Z</time>
      </trkpt>
      <trkpt lat="48.83397" lon="-0.35401">
        <ele>129.19999694824</ele>
        <time>2017-06-11T12:09:09.000Z</time>
      </trkpt>
      <trkpt lat="48.83395" lon="-0.35395">
        <ele>129.60000610352</ele>
        <time>2017-06-11T12:09:12.000Z</time>
      </trkpt>
      <trkpt lat="48.83395" lon="-0.35393">
        <ele>130</ele>
        <time>2017-06-11T12:09:13.000Z</time>
      </trkpt>
      <trkpt lat="48.83395" lon="-0.35392">
        <ele>130.39999389648</ele>
        <time>2017-06-11T12:09:14.000Z</time>
      </trkpt>
      <trkpt lat="48.83395" lon="-0.3539">
        <ele>130.80000305176</ele>
        <time>2017-06-11T12:09:15.000Z</time>
      </trkpt>
      <trkpt lat="48.83394" lon="-0.35388">
        <ele>131.19999694824</ele>
        <time>2017-06-11T12:09:16.000Z</time>
      </trkpt>
      <trkpt lat="48.83393" lon="-0.35386">
        <ele>131.19999694824</ele>
        <time>2017-06-11T12:09:17.000Z</time>
      </trkpt>
      <trkpt lat="48.83388" lon="-0.3537">
        <ele>131.60000610352</ele>
        <time>2017-06-11T12:09:25.000Z</time>
      </trkpt>
      <trkpt lat="48.83388" lon="-0.35368">
        <ele>132</ele>
        <time>2017-06-11T12:09:26.000Z</time>
      </trkpt>
      <trkpt lat="48.83387" lon="-0.35366">
        <ele>132.60000610352</ele>
        <time>2017-06-11T12:09:27.000Z</time>
      </trkpt>
      <trkpt lat="48.83386" lon="-0.35364">
        <ele>133</ele>
        <time>2017-06-11T12:09:28.000Z</time>
      </trkpt>
      <trkpt lat="48.83385" lon="-0.35361">
        <ele>133.39999389648</ele>
        <time>2017-06-11T12:09:29.000Z</time>
      </trkpt>
      <trkpt lat="48.83381" lon="-0.3535">
        <ele>133.39999389648</ele>
        <time>2017-06-11T12:09:34.000Z</time>
      </trkpt>
      <trkpt lat="48.83377" lon="-0.35342">
        <ele>133.80000305176</ele>
        <time>2017-06-11T12:09:39.000Z</time>
      </trkpt>
      <trkpt lat="48.83376" lon="-0.3534">
        <ele>134.19999694824</ele>
        <time>2017-06-11T12:09:40.000Z</time>
      </trkpt>
      <trkpt lat="48.83375" lon="-0.35338">
        <ele>134.60000610352</ele>
        <time>2017-06-11T12:09:41.000Z</time>
      </trkpt>
      <trkpt lat="48.83374" lon="-0.35336">
        <ele>135</ele>
        <time>2017-06-11T12:09:42.000Z</time>
      </trkpt>
      <trkpt lat="48.83374" lon="-0.35334">
        <ele>135.39999389648</ele>
        <time>2017-06-11T12:09:43.000Z</time>
      </trkpt>
      <trkpt lat="48.83369" lon="-0.35328">
        <ele>135.39999389648</ele>
        <time>2017-06-11T12:09:47.000Z</time>
      </trkpt>
      <trkpt lat="48.83366" lon="-0.35323">
        <ele>135.80000305176</ele>
        <time>2017-06-11T12:09:50.000Z</time>
      </trkpt>
      <trkpt lat="48.83365" lon="-0.35321">
        <ele>136.19999694824</ele>
        <time>2017-06-11T12:09:51.000Z</time>
      </trkpt>
      <trkpt lat="48.83363" lon="-0.3532">
        <ele>136.60000610352</ele>
        <time>2017-06-11T12:09:52.000Z</time>
      </trkpt>
      <trkpt lat="48.83362" lon="-0.35319">
        <ele>137</ele>
        <time>2017-06-11T12:09:53.000Z</time>
      </trkpt>
      <trkpt lat="48.83362" lon="-0.35318">
        <ele>137.39999389648</ele>
        <time>2017-06-11T12:09:54.000Z</time>
      </trkpt>
      <trkpt lat="48.83361" lon="-0.35315">
        <ele>137.39999389648</ele>
        <time>2017-06-11T12:09:56.000Z</time>
      </trkpt>
      <trkpt lat="48.83358" lon="-0.35303">
        <ele>137.80000305176</ele>
        <time>2017-06-11T12:10:02.000Z</time>
      </trkpt>
      <trkpt lat="48.83357" lon="-0.35301">
        <ele>138.19999694824</ele>
        <time>2017-06-11T12:10:03.000Z</time>
      </trkpt>
      <trkpt lat="48.83356" lon="-0.35299">
        <ele>138.60000610352</ele>
        <time>2017-06-11T12:10:04.000Z</time>
      </trkpt>
      <trkpt lat="48.83355" lon="-0.35296">
        <ele>139</ele>
        <time>2017-06-11T12:10:05.000Z</time>
      </trkpt>
      <trkpt lat="48.83354" lon="-0.35294">
        <ele>139.60000610352</ele>
        <time>2017-06-11T12:10:06.000Z</time>
      </trkpt>
      <trkpt lat="48.83352" lon="-0.35287">
        <ele>140</ele>
        <time>2017-06-11T12:10:09.000Z</time>
      </trkpt>
      <trkpt lat="48.83352" lon="-0.35284">
        <ele>140.39999389648</ele>
        <time>2017-06-11T12:10:10.000Z</time>
      </trkpt>
      <trkpt lat="48.83353" lon="-0.35282">
        <ele>140.80000305176</ele>
        <time>2017-06-11T12:10:11.000Z</time>
      </trkpt>
      <trkpt lat="48.83353" lon="-0.35279">
        <ele>141.19999694824</ele>
        <time>2017-06-11T12:10:12.000Z</time>
      </trkpt>
      <trkpt lat="48.83353" lon="-0.35276">
        <ele>141.60000610352</ele>
        <time>2017-06-11T12:10:13.000Z</time>
      </trkpt>
      <trkpt lat="48.83354" lon="-0.35271">
        <ele>141.60000610352</ele>
        <time>2017-06-11T12:10:15.000Z</time>
      </trkpt>
      <trkpt lat="48.83354" lon="-0.35269">
        <ele>141.60000610352</ele>
        <time>2017-06-11T12:10:16.000Z</time>
      </trkpt>
      <trkpt lat="48.83357" lon="-0.35267">
        <ele>142</ele>
        <time>2017-06-11T12:10:18.000Z</time>
      </trkpt>
      <trkpt lat="48.83358" lon="-0.35265">
        <ele>142.39999389648</ele>
        <time>2017-06-11T12:10:19.000Z</time>
      </trkpt>
      <trkpt lat="48.8336" lon="-0.35264">
        <ele>142.80000305176</ele>
        <time>2017-06-11T12:10:20.000Z</time>
      </trkpt>
      <trkpt lat="48.8336" lon="-0.35262">
        <ele>143.19999694824</ele>
        <time>2017-06-11T12:10:21.000Z</time>
      </trkpt>
      <trkpt lat="48.83361" lon="-0.35261">
        <ele>143.60000610352</ele>
        <time>2017-06-11T12:10:22.000Z</time>
      </trkpt>
      <trkpt lat="48.83362" lon="-0.3526">
        <ele>143.60000610352</ele>
        <time>2017-06-11T12:10:23.000Z</time>
      </trkpt>
      <trkpt lat="48.83371" lon="-0.35257">
        <ele>144</ele>
        <time>2017-06-11T12:10:28.000Z</time>
      </trkpt>
      <trkpt lat="48.83373" lon="-0.35257">
        <ele>144.60000610352</ele>
        <time>2017-06-11T12:10:29.000Z</time>
      </trkpt>
      <trkpt lat="48.83375" lon="-0.35257">
        <ele>145</ele>
        <time>2017-06-11T12:10:30.000Z</time>
      </trkpt>
      <trkpt lat="48.83378" lon="-0.35257">
        <ele>145.39999389648</ele>
        <time>2017-06-11T12:10:31.000Z</time>
      </trkpt>
      <trkpt lat="48.8338" lon="-0.35257">
        <ele>145.80000305176</ele>
        <time>2017-06-11T12:10:32.000Z</time>
      </trkpt>
      <trkpt lat="48.83386" lon="-0.35254">
        <ele>145.80000305176</ele>
        <time>2017-06-11T12:10:36.000Z</time>
      </trkpt>
      <trkpt lat="48.83393" lon="-0.35254">
        <ele>146.19999694824</ele>
        <time>2017-06-11T12:10:40.000Z</time>
      </trkpt>
      <trkpt lat="48.83395" lon="-0.35254">
        <ele>146.60000610352</ele>
        <time>2017-06-11T12:10:41.000Z</time>
      </trkpt>
      <trkpt lat="48.83396" lon="-0.35254">
        <ele>147</ele>
        <time>2017-06-11T12:10:42.000Z</time>
      </trkpt>
      <trkpt lat="48.83398" lon="-0.35254">
        <ele>147.39999389648</ele>
        <time>2017-06-11T12:10:43.000Z</time>
      </trkpt>
      <trkpt lat="48.83399" lon="-0.35255">
        <ele>147.80000305176</ele>
        <time>2017-06-11T12:10:44.000Z</time>
      </trkpt>
      <trkpt lat="48.83403" lon="-0.35255">
        <ele>147.80000305176</ele>
        <time>2017-06-11T12:10:47.000Z</time>
      </trkpt>
      <trkpt lat="48.83408" lon="-0.35257">
        <ele>147.80000305176</ele>
        <time>2017-06-11T12:10:50.000Z</time>
      </trkpt>
      <trkpt lat="48.83418" lon="-0.3526">
        <ele>148.19999694824</ele>
        <time>2017-06-11T12:10:55.000Z</time>
      </trkpt>
      <trkpt lat="48.83419" lon="-0.3526">
        <ele>148.60000610352</ele>
        <time>2017-06-11T12:10:56.000Z</time>
      </trkpt>
      <trkpt lat="48.83421" lon="-0.35261">
        <ele>149</ele>
        <time>2017-06-11T12:10:57.000Z</time>
      </trkpt>
      <trkpt lat="48.83423" lon="-0.35262">
        <ele>150</ele>
        <time>2017-06-11T12:10:58.000Z</time>
      </trkpt>
      <trkpt lat="48.8343" lon="-0.35267">
        <ele>150</ele>
        <time>2017-06-11T12:11:02.000Z</time>
      </trkpt>
      <trkpt lat="48.83434" lon="-0.35272">
        <ele>150.39999389648</ele>
        <time>2017-06-11T12:11:05.000Z</time>
      </trkpt>
      <trkpt lat="48.83435" lon="-0.35274">
        <ele>150.80000305176</ele>
        <time>2017-06-11T12:11:06.000Z</time>
      </trkpt>
      <trkpt lat="48.83437" lon="-0.35276">
        <ele>151.19999694824</ele>
        <time>2017-06-11T12:11:07.000Z</time>
      </trkpt>
      <trkpt lat="48.83438" lon="-0.35277">
        <ele>151.60000610352</ele>
        <time>2017-06-11T12:11:08.000Z</time>
      </trkpt>
      <trkpt lat="48.83439" lon="-0.35278">
        <ele>152</ele>
        <time>2017-06-11T12:11:09.000Z</time>
      </trkpt>
      <trkpt lat="48.8345" lon="-0.35295">
        <ele>152</ele>
        <time>2017-06-11T12:11:16.000Z</time>
      </trkpt>
      <trkpt lat="48.83455" lon="-0.35302">
        <ele>152.60000610352</ele>
        <time>2017-06-11T12:11:20.000Z</time>
      </trkpt>
      <trkpt lat="48.83456" lon="-0.35304">
        <ele>153</ele>
        <time>2017-06-11T12:11:21.000Z</time>
      </trkpt>
      <trkpt lat="48.83456" lon="-0.35306">
        <ele>153.39999389648</ele>
        <time>2017-06-11T12:11:22.000Z</time>
      </trkpt>
      <trkpt lat="48.83457" lon="-0.35307">
        <ele>154.39999389648</ele>
        <time>2017-06-11T12:11:23.000Z</time>
      </trkpt>
      <trkpt lat="48.83465" lon="-0.35318">
        <ele>154.39999389648</ele>
        <time>2017-06-11T12:11:29.000Z</time>
      </trkpt>
      <trkpt lat="48.83466" lon="-0.3532">
        <ele>154.80000305176</ele>
        <time>2017-06-11T12:11:30.000Z</time>
      </trkpt>
      <trkpt lat="48.83467" lon="-0.35321">
        <ele>155.19999694824</ele>
        <time>2017-06-11T12:11:31.000Z</time>
      </trkpt>
      <trkpt lat="48.83468" lon="-0.35323">
        <ele>155.60000610352</ele>
        <time>2017-06-11T12:11:32.000Z</time>
      </trkpt>
      <trkpt lat="48.83469" lon="-0.35324">
        <ele>156</ele>
        <time>2017-06-11T12:11:33.000Z</time>
      </trkpt>
      <trkpt lat="48.8347" lon="-0.35325">
        <ele>156.60000610352</ele>
        <time>2017-06-11T12:11:34.000Z</time>
      </trkpt>
      <trkpt lat="48.83473" lon="-0.35327">
        <ele>156.60000610352</ele>
        <time>2017-06-11T12:11:36.000Z</time>
      </trkpt>
      <trkpt lat="48.83474" lon="-0.35328">
        <ele>156.60000610352</ele>
        <time>2017-06-11T12:11:37.000Z</time>
      </trkpt>
      <trkpt lat="48.83481" lon="-0.35331">
        <ele>157</ele>
        <time>2017-06-11T12:11:41.000Z</time>
      </trkpt>
      <trkpt lat="48.83482" lon="-0.35332">
        <ele>157.39999389648</ele>
        <time>2017-06-11T12:11:42.000Z</time>
      </trkpt>
      <trkpt lat="48.83483" lon="-0.35332">
        <ele>157.80000305176</ele>
        <time>2017-06-11T12:11:43.000Z</time>
      </trkpt>
      <trkpt lat="48.83484" lon="-0.35332">
        <ele>158.19999694824</ele>
        <time>2017-06-11T12:11:44.000Z</time>
      </trkpt>
      <trkpt lat="48.83485" lon="-0.35332">
        <ele>158.60000610352</ele>
        <time>2017-06-11T12:11:45.000Z</time>
      </trkpt>
      <trkpt lat="48.83489" lon="-0.35333">
        <ele>158.60000610352</ele>
        <time>2017-06-11T12:11:48.000Z</time>
      </trkpt>
      <trkpt lat="48.83493" lon="-0.35334">
        <ele>159</ele>
        <time>2017-06-11T12:11:50.000Z</time>
      </trkpt>
      <trkpt lat="48.83494" lon="-0.35335">
        <ele>159.39999389648</ele>
        <time>2017-06-11T12:11:51.000Z</time>
      </trkpt>
      <trkpt lat="48.83495" lon="-0.35336">
        <ele>159.80000305176</ele>
        <time>2017-06-11T12:11:52.000Z</time>
      </trkpt>
      <trkpt lat="48.83496" lon="-0.35336">
        <ele>160.39999389648</ele>
        <time>2017-06-11T12:11:53.000Z</time>
      </trkpt>
      <trkpt lat="48.83498" lon="-0.35336">
        <ele>160.80000305176</ele>
        <time>2017-06-11T12:11:54.000Z</time>
      </trkpt>
      <trkpt lat="48.835" lon="-0.35336">
        <ele>160.80000305176</ele>
        <time>2017-06-11T12:11:56.000Z</time>
      </trkpt>
      <trkpt lat="48.83505" lon="-0.35338">
        <ele>161.19999694824</ele>
        <time>2017-06-11T12:11:59.000Z</time>
      </trkpt>
      <trkpt lat="48.83506" lon="-0.35339">
        <ele>161.60000610352</ele>
        <time>2017-06-11T12:12:00.000Z</time>
      </trkpt>
      <trkpt lat="48.83508" lon="-0.35339">
        <ele>162</ele>
        <time>2017-06-11T12:12:01.000Z</time>
      </trkpt>
      <trkpt lat="48.83509" lon="-0.3534">
        <ele>162.39999389648</ele>
        <time>2017-06-11T12:12:02.000Z</time>
      </trkpt>
      <trkpt lat="48.83511" lon="-0.35341">
        <ele>162.80000305176</ele>
        <time>2017-06-11T12:12:03.000Z</time>
      </trkpt>
      <trkpt lat="48.83521" lon="-0.35346">
        <ele>162.80000305176</ele>
        <time>2017-06-11T12:12:10.000Z</time>
      </trkpt>
      <trkpt lat="48.83525" lon="-0.35348">
        <ele>163.60000610352</ele>
        <time>2017-06-11T12:12:12.000Z</time>
      </trkpt>
      <trkpt lat="48.83527" lon="-0.3535">
        <ele>164</ele>
        <time>2017-06-11T12:12:13.000Z</time>
      </trkpt>
      <trkpt lat="48.83529" lon="-0.35351">
        <ele>164.39999389648</ele>
        <time>2017-06-11T12:12:14.000Z</time>
      </trkpt>
      <trkpt lat="48.83531" lon="-0.35352">
        <ele>164.80000305176</ele>
        <time>2017-06-11T12:12:15.000Z</time>
      </trkpt>
      <trkpt lat="48.83536" lon="-0.35354">
        <ele>164.80000305176</ele>
        <time>2017-06-11T12:12:18.000Z</time>
      </trkpt>
      <trkpt lat="48.83544" lon="-0.35361">
        <ele>165.39999389648</ele>
        <time>2017-06-11T12:12:24.000Z</time>
      </trkpt>
      <trkpt lat="48.83545" lon="-0.35363">
        <ele>165.80000305176</ele>
        <time>2017-06-11T12:12:25.000Z</time>
      </trkpt>
      <trkpt lat="48.83547" lon="-0.35364">
        <ele>166.19999694824</ele>
        <time>2017-06-11T12:12:26.000Z</time>
      </trkpt>
      <trkpt lat="48.83548" lon="-0.35364">
        <ele>166.60000610352</ele>
        <time>2017-06-11T12:12:27.000Z</time>
      </trkpt>
      <trkpt lat="48.8355" lon="-0.35365">
        <ele>167</ele>
        <time>2017-06-11T12:12:28.000Z</time>
      </trkpt>
      <trkpt lat="48.83552" lon="-0.35367">
        <ele>167</ele>
        <time>2017-06-11T12:12:30.000Z</time>
      </trkpt>
      <trkpt lat="48.83562" lon="-0.35373">
        <ele>167</ele>
        <time>2017-06-11T12:12:36.000Z</time>
      </trkpt>
      <trkpt lat="48.83564" lon="-0.35374">
        <ele>167.39999389648</ele>
        <time>2017-06-11T12:12:37.000Z</time>
      </trkpt>
      <trkpt lat="48.83565" lon="-0.35374">
        <ele>167.80000305176</ele>
        <time>2017-06-11T12:12:38.000Z</time>
      </trkpt>
      <trkpt lat="48.83567" lon="-0.35374">
        <ele>168.19999694824</ele>
        <time>2017-06-11T12:12:39.000Z</time>
      </trkpt>
      <trkpt lat="48.83569" lon="-0.35375">
        <ele>168.60000610352</ele>
        <time>2017-06-11T12:12:40.000Z</time>
      </trkpt>
      <trkpt lat="48.8357" lon="-0.35375">
        <ele>169</ele>
        <time>2017-06-11T12:12:41.000Z</time>
      </trkpt>
      <trkpt lat="48.83577" lon="-0.35375">
        <ele>169</ele>
        <time>2017-06-11T12:12:45.000Z</time>
      </trkpt>
      <trkpt lat="48.83583" lon="-0.35373">
        <ele>169.39999389648</ele>
        <time>2017-06-11T12:12:49.000Z</time>
      </trkpt>
      <trkpt lat="48.83585" lon="-0.35373">
        <ele>169.80000305176</ele>
        <time>2017-06-11T12:12:50.000Z</time>
      </trkpt>
      <trkpt lat="48.83587" lon="-0.35373">
        <ele>170.39999389648</ele>
        <time>2017-06-11T12:12:51.000Z</time>
      </trkpt>
      <trkpt lat="48.83589" lon="-0.35372">
        <ele>170.80000305176</ele>
        <time>2017-06-11T12:12:52.000Z</time>
      </trkpt>
      <trkpt lat="48.8359" lon="-0.35372">
        <ele>171.19999694824</ele>
        <time>2017-06-11T12:12:53.000Z</time>
      </trkpt>
      <trkpt lat="48.83601" lon="-0.3537">
        <ele>171.19999694824</ele>
        <time>2017-06-11T12:12:59.000Z</time>
      </trkpt>
      <trkpt lat="48.83602" lon="-0.3537">
        <ele>171.60000610352</ele>
        <time>2017-06-11T12:13:02.000Z</time>
      </trkpt>
      <trkpt lat="48.83603" lon="-0.35371">
        <ele>172</ele>
        <time>2017-06-11T12:13:03.000Z</time>
      </trkpt>
      <trkpt lat="48.83604" lon="-0.35371">
        <ele>172.39999389648</ele>
        <time>2017-06-11T12:13:04.000Z</time>
      </trkpt>
      <trkpt lat="48.83605" lon="-0.35371">
        <ele>172.80000305176</ele>
        <time>2017-06-11T12:13:05.000Z</time>
      </trkpt>
      <trkpt lat="48.83606" lon="-0.35371">
        <ele>173.19999694824</ele>
        <time>2017-06-11T12:13:06.000Z</time>
      </trkpt>
      <trkpt lat="48.8361" lon="-0.35369">
        <ele>173.19999694824</ele>
        <time>2017-06-11T12:13:09.000Z</time>
      </trkpt>
      <trkpt lat="48.83613" lon="-0.35366">
        <ele>173.19999694824</ele>
        <time>2017-06-11T12:13:16.000Z</time>
      </trkpt>
      <trkpt lat="48.83613" lon="-0.35366">
        <ele>173.19999694824</ele>
        <time>2017-06-11T12:13:24.000Z</time>
      </trkpt>
      <trkpt lat="48.83612" lon="-0.35365">
        <ele>173.19999694824</ele>
        <time>2017-06-11T12:13:26.000Z</time>
      </trkpt>
      <trkpt lat="48.83612" lon="-0.35365">
        <ele>173.19999694824</ele>
        <time>2017-06-11T12:13:32.000Z</time>
      </trkpt>
      <trkpt lat="48.83612" lon="-0.35365">
        <ele>173.19999694824</ele>
        <time>2017-06-11T12:13:46.000Z</time>
      </trkpt>
      <trkpt lat="48.83612" lon="-0.35365">
        <ele>173.19999694824</ele>
        <time>2017-06-11T12:14:03.000Z</time>
      </trkpt>
      <trkpt lat="48.83612" lon="-0.35365">
        <ele>173.19999694824</ele>
        <time>2017-06-11T12:14:18.000Z</time>
      </trkpt>
      <trkpt lat="48.83613" lon="-0.35366">
        <ele>173.19999694824</ele>
        <time>2017-06-11T12:14:30.000Z</time>
      </trkpt>
      <trkpt lat="48.83613" lon="-0.35366">
        <ele>173.19999694824</ele>
        <time>2017-06-11T12:14:31.000Z</time>
      </trkpt>
      <trkpt lat="48.83613" lon="-0.35366">
        <ele>173.19999694824</ele>
        <time>2017-06-11T12:14:36.000Z</time>
      </trkpt>
      <trkpt lat="48.83613" lon="-0.35366">
        <ele>173.19999694824</ele>
        <time>2017-06-11T12:14:37.000Z</time>
      </trkpt>
      <trkpt lat="48.83614" lon="-0.35367">
        <ele>173.19999694824</ele>
        <time>2017-06-11T12:14:40.000Z</time>
      </trkpt>
      <trkpt lat="48.83621" lon="-0.35371">
        <ele>173.19999694824</ele>
        <time>2017-06-11T12:14:45.000Z</time>
      </trkpt>
      <trkpt lat="48.83635" lon="-0.3537">
        <ele>173.19999694824</ele>
        <time>2017-06-11T12:14:52.000Z</time>
      </trkpt>
      <trkpt lat="48.8365" lon="-0.35372">
        <ele>173.19999694824</ele>
        <time>2017-06-11T12:14:58.000Z</time>
      </trkpt>
      <trkpt lat="48.83663" lon="-0.35373">
        <ele>173.19999694824</ele>
        <time>2017-06-11T12:15:05.000Z</time>
      </trkpt>
      <trkpt lat="48.83676" lon="-0.35374">
        <ele>173.19999694824</ele>
        <time>2017-06-11T12:15:13.000Z</time>
      </trkpt>
      <trkpt lat="48.83689" lon="-0.35376">
        <ele>173.19999694824</ele>
        <time>2017-06-11T12:15:20.000Z</time>
      </trkpt>
      <trkpt lat="48.83701" lon="-0.35379">
        <ele>173.19999694824</ele>
        <time>2017-06-11T12:15:26.000Z</time>
      </trkpt>
      <trkpt lat="48.83718" lon="-0.35381">
        <ele>173.19999694824</ele>
        <time>2017-06-11T12:15:34.000Z</time>
      </trkpt>
      <trkpt lat="48.83732" lon="-0.35383">
        <ele>173.19999694824</ele>
        <time>2017-06-11T12:15:40.000Z</time>
      </trkpt>
      <trkpt lat="48.83754" lon="-0.35386">
        <ele>173.19999694824</ele>
        <time>2017-06-11T12:15:49.000Z</time>
      </trkpt>
      <trkpt lat="48.83772" lon="-0.35391">
        <ele>173.19999694824</ele>
        <time>2017-06-11T12:15:55.000Z</time>
      </trkpt>
      <trkpt lat="48.83799" lon="-0.35395">
        <ele>172.60000610352</ele>
        <time>2017-06-11T12:16:01.000Z</time>
      </trkpt>
      <trkpt lat="48.83803" lon="-0.35396">
        <ele>172</ele>
        <time>2017-06-11T12:16:02.000Z</time>
      </trkpt>
      <trkpt lat="48.83808" lon="-0.35397">
        <ele>171.60000610352</ele>
        <time>2017-06-11T12:16:03.000Z</time>
      </trkpt>
      <trkpt lat="48.83812" lon="-0.35397">
        <ele>171</ele>
        <time>2017-06-11T12:16:04.000Z</time>
      </trkpt>
      <trkpt lat="48.83817" lon="-0.35398">
        <ele>170.60000610352</ele>
        <time>2017-06-11T12:16:05.000Z</time>
      </trkpt>
      <trkpt lat="48.83825" lon="-0.354">
        <ele>170.19999694824</ele>
        <time>2017-06-11T12:16:07.000Z</time>
      </trkpt>
      <trkpt lat="48.8383" lon="-0.35401">
        <ele>169.80000305176</ele>
        <time>2017-06-11T12:16:08.000Z</time>
      </trkpt>
      <trkpt lat="48.83834" lon="-0.35402">
        <ele>169.39999389648</ele>
        <time>2017-06-11T12:16:09.000Z</time>
      </trkpt>
      <trkpt lat="48.83838" lon="-0.35403">
        <ele>169</ele>
        <time>2017-06-11T12:16:10.000Z</time>
      </trkpt>
      <trkpt lat="48.83842" lon="-0.35404">
        <ele>168.39999389648</ele>
        <time>2017-06-11T12:16:11.000Z</time>
      </trkpt>
      <trkpt lat="48.83857" lon="-0.35408">
        <ele>168</ele>
        <time>2017-06-11T12:16:15.000Z</time>
      </trkpt>
      <trkpt lat="48.83861" lon="-0.3541">
        <ele>167.60000610352</ele>
        <time>2017-06-11T12:16:16.000Z</time>
      </trkpt>
      <trkpt lat="48.83865" lon="-0.35411">
        <ele>167.19999694824</ele>
        <time>2017-06-11T12:16:17.000Z</time>
      </trkpt>
      <trkpt lat="48.8387" lon="-0.35413">
        <ele>166.80000305176</ele>
        <time>2017-06-11T12:16:18.000Z</time>
      </trkpt>
      <trkpt lat="48.83874" lon="-0.35414">
        <ele>166.39999389648</ele>
        <time>2017-06-11T12:16:19.000Z</time>
      </trkpt>
      <trkpt lat="48.83888" lon="-0.35419">
        <ele>166.39999389648</ele>
        <time>2017-06-11T12:16:22.000Z</time>
      </trkpt>
      <trkpt lat="48.83898" lon="-0.35421">
        <ele>165.80000305176</ele>
        <time>2017-06-11T12:16:24.000Z</time>
      </trkpt>
      <trkpt lat="48.83902" lon="-0.35422">
        <ele>165.39999389648</ele>
        <time>2017-06-11T12:16:25.000Z</time>
      </trkpt>
      <trkpt lat="48.83906" lon="-0.35423">
        <ele>165</ele>
        <time>2017-06-11T12:16:26.000Z</time>
      </trkpt>
      <trkpt lat="48.8391" lon="-0.35424">
        <ele>164.60000610352</ele>
        <time>2017-06-11T12:16:27.000Z</time>
      </trkpt>
      <trkpt lat="48.83914" lon="-0.35426">
        <ele>164.19999694824</ele>
        <time>2017-06-11T12:16:28.000Z</time>
      </trkpt>
      <trkpt lat="48.83918" lon="-0.35427">
        <ele>163.60000610352</ele>
        <time>2017-06-11T12:16:29.000Z</time>
      </trkpt>
      <trkpt lat="48.83923" lon="-0.35428">
        <ele>163.19999694824</ele>
        <time>2017-06-11T12:16:30.000Z</time>
      </trkpt>
      <trkpt lat="48.83927" lon="-0.35429">
        <ele>162.80000305176</ele>
        <time>2017-06-11T12:16:31.000Z</time>
      </trkpt>
      <trkpt lat="48.83932" lon="-0.35429">
        <ele>162.19999694824</ele>
        <time>2017-06-11T12:16:32.000Z</time>
      </trkpt>
      <trkpt lat="48.83942" lon="-0.35431">
        <ele>161.80000305176</ele>
        <time>2017-06-11T12:16:34.000Z</time>
      </trkpt>
      <trkpt lat="48.83946" lon="-0.35432">
        <ele>161.39999389648</ele>
        <time>2017-06-11T12:16:35.000Z</time>
      </trkpt>
      <trkpt lat="48.8395" lon="-0.35433">
        <ele>160.80000305176</ele>
        <time>2017-06-11T12:16:36.000Z</time>
      </trkpt>
      <trkpt lat="48.83954" lon="-0.35433">
        <ele>160.39999389648</ele>
        <time>2017-06-11T12:16:37.000Z</time>
      </trkpt>
      <trkpt lat="48.83957" lon="-0.35434">
        <ele>160</ele>
        <time>2017-06-11T12:16:38.000Z</time>
      </trkpt>
      <trkpt lat="48.8396" lon="-0.35434">
        <ele>160</ele>
        <time>2017-06-11T12:16:39.000Z</time>
      </trkpt>
      <trkpt lat="48.83972" lon="-0.35434">
        <ele>159.60000610352</ele>
        <time>2017-06-11T12:16:43.000Z</time>
      </trkpt>
      <trkpt lat="48.83976" lon="-0.35433">
        <ele>158.80000305176</ele>
        <time>2017-06-11T12:16:44.000Z</time>
      </trkpt>
      <trkpt lat="48.83979" lon="-0.35433">
        <ele>158.39999389648</ele>
        <time>2017-06-11T12:16:45.000Z</time>
      </trkpt>
      <trkpt lat="48.83983" lon="-0.35433">
        <ele>158</ele>
        <time>2017-06-11T12:16:46.000Z</time>
      </trkpt>
      <trkpt lat="48.83986" lon="-0.35433">
        <ele>158</ele>
        <time>2017-06-11T12:16:47.000Z</time>
      </trkpt>
      <trkpt lat="48.83988" lon="-0.35433">
        <ele>157.60000610352</ele>
        <time>2017-06-11T12:16:48.000Z</time>
      </trkpt>
      <trkpt lat="48.83991" lon="-0.35433">
        <ele>157</ele>
        <time>2017-06-11T12:16:49.000Z</time>
      </trkpt>
      <trkpt lat="48.83993" lon="-0.35432">
        <ele>156.60000610352</ele>
        <time>2017-06-11T12:16:50.000Z</time>
      </trkpt>
      <trkpt lat="48.83996" lon="-0.35432">
        <ele>156.19999694824</ele>
        <time>2017-06-11T12:16:51.000Z</time>
      </trkpt>
      <trkpt lat="48.83999" lon="-0.35431">
        <ele>155.80000305176</ele>
        <time>2017-06-11T12:16:52.000Z</time>
      </trkpt>
      <trkpt lat="48.84008" lon="-0.35428">
        <ele>155.39999389648</ele>
        <time>2017-06-11T12:16:55.000Z</time>
      </trkpt>
      <trkpt lat="48.8401" lon="-0.35427">
        <ele>155</ele>
        <time>2017-06-11T12:16:56.000Z</time>
      </trkpt>
      <trkpt lat="48.84013" lon="-0.35426">
        <ele>154.39999389648</ele>
        <time>2017-06-11T12:16:57.000Z</time>
      </trkpt>
      <trkpt lat="48.84015" lon="-0.35425">
        <ele>154</ele>
        <time>2017-06-11T12:16:58.000Z</time>
      </trkpt>
      <trkpt lat="48.84018" lon="-0.35424">
        <ele>153.60000610352</ele>
        <time>2017-06-11T12:16:59.000Z</time>
      </trkpt>
      <trkpt lat="48.84032" lon="-0.3542">
        <ele>153.60000610352</ele>
        <time>2017-06-11T12:17:04.000Z</time>
      </trkpt>
      <trkpt lat="48.84035" lon="-0.35418">
        <ele>153.19999694824</ele>
        <time>2017-06-11T12:17:05.000Z</time>
      </trkpt>
      <trkpt lat="48.84038" lon="-0.35417">
        <ele>152.80000305176</ele>
        <time>2017-06-11T12:17:06.000Z</time>
      </trkpt>
      <trkpt lat="48.84041" lon="-0.35415">
        <ele>152.39999389648</ele>
        <time>2017-06-11T12:17:07.000Z</time>
      </trkpt>
      <trkpt lat="48.84045" lon="-0.35414">
        <ele>151.80000305176</ele>
        <time>2017-06-11T12:17:08.000Z</time>
      </trkpt>
      <trkpt lat="48.84048" lon="-0.35413">
        <ele>151.39999389648</ele>
        <time>2017-06-11T12:17:09.000Z</time>
      </trkpt>
      <trkpt lat="48.84057" lon="-0.35408">
        <ele>151.39999389648</ele>
        <time>2017-06-11T12:17:12.000Z</time>
      </trkpt>
      <trkpt lat="48.84059" lon="-0.35407">
        <ele>151</ele>
        <time>2017-06-11T12:17:13.000Z</time>
      </trkpt>
      <trkpt lat="48.84062" lon="-0.35405">
        <ele>150.60000610352</ele>
        <time>2017-06-11T12:17:14.000Z</time>
      </trkpt>
      <trkpt lat="48.84065" lon="-0.35403">
        <ele>150.19999694824</ele>
        <time>2017-06-11T12:17:15.000Z</time>
      </trkpt>
      <trkpt lat="48.84067" lon="-0.35401">
        <ele>149.80000305176</ele>
        <time>2017-06-11T12:17:16.000Z</time>
      </trkpt>
      <trkpt lat="48.8407" lon="-0.35399">
        <ele>149.39999389648</ele>
        <time>2017-06-11T12:17:17.000Z</time>
      </trkpt>
      <trkpt lat="48.84073" lon="-0.35397">
        <ele>149.39999389648</ele>
        <time>2017-06-11T12:17:18.000Z</time>
      </trkpt>
      <trkpt lat="48.84077" lon="-0.35394">
        <ele>149</ele>
        <time>2017-06-11T12:17:19.000Z</time>
      </trkpt>
      <trkpt lat="48.8408" lon="-0.35392">
        <ele>148.60000610352</ele>
        <time>2017-06-11T12:17:20.000Z</time>
      </trkpt>
      <trkpt lat="48.84082" lon="-0.35389">
        <ele>148.19999694824</ele>
        <time>2017-06-11T12:17:21.000Z</time>
      </trkpt>
      <trkpt lat="48.84085" lon="-0.35387">
        <ele>147.80000305176</ele>
        <time>2017-06-11T12:17:22.000Z</time>
      </trkpt>
      <trkpt lat="48.84088" lon="-0.35385">
        <ele>147.39999389648</ele>
        <time>2017-06-11T12:17:23.000Z</time>
      </trkpt>
      <trkpt lat="48.84092" lon="-0.35383">
        <ele>147.39999389648</ele>
        <time>2017-06-11T12:17:24.000Z</time>
      </trkpt>
      <trkpt lat="48.84096" lon="-0.3538">
        <ele>147</ele>
        <time>2017-06-11T12:17:25.000Z</time>
      </trkpt>
      <trkpt lat="48.84099" lon="-0.35377">
        <ele>146.60000610352</ele>
        <time>2017-06-11T12:17:26.000Z</time>
      </trkpt>
      <trkpt lat="48.84103" lon="-0.35375">
        <ele>146.19999694824</ele>
        <time>2017-06-11T12:17:27.000Z</time>
      </trkpt>
      <trkpt lat="48.84106" lon="-0.35374">
        <ele>145.60000610352</ele>
        <time>2017-06-11T12:17:28.000Z</time>
      </trkpt>
      <trkpt lat="48.84108" lon="-0.35373">
        <ele>145.19999694824</ele>
        <time>2017-06-11T12:17:29.000Z</time>
      </trkpt>
      <trkpt lat="48.84113" lon="-0.35369">
        <ele>144.80000305176</ele>
        <time>2017-06-11T12:17:31.000Z</time>
      </trkpt>
      <trkpt lat="48.84115" lon="-0.35367">
        <ele>144.39999389648</ele>
        <time>2017-06-11T12:17:32.000Z</time>
      </trkpt>
      <trkpt lat="48.84117" lon="-0.35366">
        <ele>143.39999389648</ele>
        <time>2017-06-11T12:17:33.000Z</time>
      </trkpt>
      <trkpt lat="48.84119" lon="-0.35364">
        <ele>143</ele>
        <time>2017-06-11T12:17:34.000Z</time>
      </trkpt>
      <trkpt lat="48.84121" lon="-0.35362">
        <ele>143</ele>
        <time>2017-06-11T12:17:35.000Z</time>
      </trkpt>
      <trkpt lat="48.84127" lon="-0.35354">
        <ele>142.60000610352</ele>
        <time>2017-06-11T12:17:38.000Z</time>
      </trkpt>
      <trkpt lat="48.84129" lon="-0.35352">
        <ele>142</ele>
        <time>2017-06-11T12:17:39.000Z</time>
      </trkpt>
      <trkpt lat="48.84131" lon="-0.35349">
        <ele>141.60000610352</ele>
        <time>2017-06-11T12:17:40.000Z</time>
      </trkpt>
      <trkpt lat="48.84134" lon="-0.35346">
        <ele>141.19999694824</ele>
        <time>2017-06-11T12:17:41.000Z</time>
      </trkpt>
      <trkpt lat="48.84136" lon="-0.35344">
        <ele>140.80000305176</ele>
        <time>2017-06-11T12:17:42.000Z</time>
      </trkpt>
      <trkpt lat="48.84138" lon="-0.35341">
        <ele>140.80000305176</ele>
        <time>2017-06-11T12:17:43.000Z</time>
      </trkpt>
      <trkpt lat="48.84142" lon="-0.35335">
        <ele>140.80000305176</ele>
        <time>2017-06-11T12:17:47.000Z</time>
      </trkpt>
      <trkpt lat="48.84144" lon="-0.35334">
        <ele>140.80000305176</ele>
        <time>2017-06-11T12:17:55.000Z</time>
      </trkpt>
      <trkpt lat="48.84145" lon="-0.35333">
        <ele>140.80000305176</ele>
        <time>2017-06-11T12:18:01.000Z</time>
      </trkpt>
      <trkpt lat="48.84145" lon="-0.35333">
        <ele>140.80000305176</ele>
        <time>2017-06-11T12:18:10.000Z</time>
      </trkpt>
      <trkpt lat="48.84145" lon="-0.35333">
        <ele>140.80000305176</ele>
        <time>2017-06-11T12:18:21.000Z</time>
      </trkpt>
      <trkpt lat="48.84145" lon="-0.35333">
        <ele>140.80000305176</ele>
        <time>2017-06-11T12:18:28.000Z</time>
      </trkpt>
      <trkpt lat="48.84145" lon="-0.35333">
        <ele>140.80000305176</ele>
        <time>2017-06-11T12:18:35.000Z</time>
      </trkpt>
      <trkpt lat="48.84147" lon="-0.35332">
        <ele>140.80000305176</ele>
        <time>2017-06-11T12:18:39.000Z</time>
      </trkpt>
      <trkpt lat="48.84147" lon="-0.35332">
        <ele>140.80000305176</ele>
        <time>2017-06-11T12:18:48.000Z</time>
      </trkpt>
      <trkpt lat="48.84148" lon="-0.3533">
        <ele>140.80000305176</ele>
        <time>2017-06-11T12:18:54.000Z</time>
      </trkpt>
      <trkpt lat="48.84152" lon="-0.35328">
        <ele>140.39999389648</ele>
        <time>2017-06-11T12:18:56.000Z</time>
      </trkpt>
      <trkpt lat="48.84156" lon="-0.35325">
        <ele>140</ele>
        <time>2017-06-11T12:18:57.000Z</time>
      </trkpt>
      <trkpt lat="48.84159" lon="-0.35322">
        <ele>139.60000610352</ele>
        <time>2017-06-11T12:18:58.000Z</time>
      </trkpt>
      <trkpt lat="48.84163" lon="-0.35318">
        <ele>139.19999694824</ele>
        <time>2017-06-11T12:18:59.000Z</time>
      </trkpt>
      <trkpt lat="48.84166" lon="-0.35313">
        <ele>138.80000305176</ele>
        <time>2017-06-11T12:19:00.000Z</time>
      </trkpt>
      <trkpt lat="48.84176" lon="-0.35305">
        <ele>138.80000305176</ele>
        <time>2017-06-11T12:19:02.000Z</time>
      </trkpt>
      <trkpt lat="48.84191" lon="-0.35292">
        <ele>138.80000305176</ele>
        <time>2017-06-11T12:19:05.000Z</time>
      </trkpt>
      <trkpt lat="48.84201" lon="-0.35286">
        <ele>138.80000305176</ele>
        <time>2017-06-11T12:19:07.000Z</time>
      </trkpt>
      <trkpt lat="48.84207" lon="-0.35285">
        <ele>138.39999389648</ele>
        <time>2017-06-11T12:19:09.000Z</time>
      </trkpt>
      <trkpt lat="48.84207" lon="-0.35285">
        <ele>137.80000305176</ele>
        <time>2017-06-11T12:19:10.000Z</time>
      </trkpt>
      <trkpt lat="48.84208" lon="-0.35285">
        <ele>137.39999389648</ele>
        <time>2017-06-11T12:19:11.000Z</time>
      </trkpt>
      <trkpt lat="48.84208" lon="-0.35285">
        <ele>136.60000610352</ele>
        <time>2017-06-11T12:19:12.000Z</time>
      </trkpt>
      <trkpt lat="48.84206" lon="-0.35286">
        <ele>136.60000610352</ele>
        <time>2017-06-11T12:19:14.000Z</time>
      </trkpt>
      <trkpt lat="48.84205" lon="-0.35286">
        <ele>136.60000610352</ele>
        <time>2017-06-11T12:19:15.000Z</time>
      </trkpt>
      <trkpt lat="48.842" lon="-0.35289">
        <ele>136.60000610352</ele>
        <time>2017-06-11T12:19:19.000Z</time>
      </trkpt>
      <trkpt lat="48.84196" lon="-0.3529">
        <ele>136.60000610352</ele>
        <time>2017-06-11T12:19:22.000Z</time>
      </trkpt>
      <trkpt lat="48.84195" lon="-0.3529">
        <ele>136.60000610352</ele>
        <time>2017-06-11T12:19:23.000Z</time>
      </trkpt>
      <trkpt lat="48.84194" lon="-0.35289">
        <ele>136.60000610352</ele>
        <time>2017-06-11T12:19:24.000Z</time>
      </trkpt>
      <trkpt lat="48.84194" lon="-0.35284">
        <ele>136.60000610352</ele>
        <time>2017-06-11T12:19:27.000Z</time>
      </trkpt>
      <trkpt lat="48.84196" lon="-0.35277">
        <ele>136.60000610352</ele>
        <time>2017-06-11T12:19:32.000Z</time>
      </trkpt>
      <trkpt lat="48.84196" lon="-0.35274">
        <ele>136.60000610352</ele>
        <time>2017-06-11T12:19:34.000Z</time>
      </trkpt>
      <trkpt lat="48.84197" lon="-0.35272">
        <ele>136.60000610352</ele>
        <time>2017-06-11T12:19:35.000Z</time>
      </trkpt>
      <trkpt lat="48.842" lon="-0.35261">
        <ele>136.60000610352</ele>
        <time>2017-06-11T12:19:40.000Z</time>
      </trkpt>
      <trkpt lat="48.84211" lon="-0.35234">
        <ele>136.60000610352</ele>
        <time>2017-06-11T12:19:45.000Z</time>
      </trkpt>
      <trkpt lat="48.84231" lon="-0.35193">
        <ele>136.19999694824</ele>
        <time>2017-06-11T12:19:53.000Z</time>
      </trkpt>
      <trkpt lat="48.84232" lon="-0.35188">
        <ele>135.80000305176</ele>
        <time>2017-06-11T12:19:54.000Z</time>
      </trkpt>
      <trkpt lat="48.84233" lon="-0.35183">
        <ele>135.39999389648</ele>
        <time>2017-06-11T12:19:55.000Z</time>
      </trkpt>
      <trkpt lat="48.84235" lon="-0.35179">
        <ele>135</ele>
        <time>2017-06-11T12:19:56.000Z</time>
      </trkpt>
      <trkpt lat="48.84236" lon="-0.35175">
        <ele>134.60000610352</ele>
        <time>2017-06-11T12:19:57.000Z</time>
      </trkpt>
      <trkpt lat="48.84242" lon="-0.35158">
        <ele>134.60000610352</ele>
        <time>2017-06-11T12:20:01.000Z</time>
      </trkpt>
      <trkpt lat="48.84255" lon="-0.35119">
        <ele>134.60000610352</ele>
        <time>2017-06-11T12:20:08.000Z</time>
      </trkpt>
      <trkpt lat="48.84262" lon="-0.35098">
        <ele>134.19999694824</ele>
        <time>2017-06-11T12:20:11.000Z</time>
      </trkpt>
      <trkpt lat="48.84264" lon="-0.35092">
        <ele>133.80000305176</ele>
        <time>2017-06-11T12:20:12.000Z</time>
      </trkpt>
      <trkpt lat="48.84265" lon="-0.35086">
        <ele>133.19999694824</ele>
        <time>2017-06-11T12:20:13.000Z</time>
      </trkpt>
      <trkpt lat="48.84267" lon="-0.3508">
        <ele>132.80000305176</ele>
        <time>2017-06-11T12:20:14.000Z</time>
      </trkpt>
      <trkpt lat="48.84268" lon="-0.35074">
        <ele>132.39999389648</ele>
        <time>2017-06-11T12:20:15.000Z</time>
      </trkpt>
      <trkpt lat="48.8428" lon="-0.3503">
        <ele>132</ele>
        <time>2017-06-11T12:20:22.000Z</time>
      </trkpt>
      <trkpt lat="48.84282" lon="-0.35023">
        <ele>131.60000610352</ele>
        <time>2017-06-11T12:20:23.000Z</time>
      </trkpt>
      <trkpt lat="48.84284" lon="-0.35016">
        <ele>131</ele>
        <time>2017-06-11T12:20:24.000Z</time>
      </trkpt>
      <trkpt lat="48.84285" lon="-0.35009">
        <ele>130.60000610352</ele>
        <time>2017-06-11T12:20:25.000Z</time>
      </trkpt>
      <trkpt lat="48.84287" lon="-0.35001">
        <ele>130.19999694824</ele>
        <time>2017-06-11T12:20:26.000Z</time>
      </trkpt>
      <trkpt lat="48.84292" lon="-0.34972">
        <ele>130.19999694824</ele>
        <time>2017-06-11T12:20:30.000Z</time>
      </trkpt>
      <trkpt lat="48.84293" lon="-0.34965">
        <ele>129.80000305176</ele>
        <time>2017-06-11T12:20:31.000Z</time>
      </trkpt>
      <trkpt lat="48.84294" lon="-0.34958">
        <ele>129.19999694824</ele>
        <time>2017-06-11T12:20:32.000Z</time>
      </trkpt>
      <trkpt lat="48.84296" lon="-0.3495">
        <ele>128.80000305176</ele>
        <time>2017-06-11T12:20:33.000Z</time>
      </trkpt>
      <trkpt lat="48.84297" lon="-0.34942">
        <ele>128.39999389648</ele>
        <time>2017-06-11T12:20:34.000Z</time>
      </trkpt>
      <trkpt lat="48.84298" lon="-0.34935">
        <ele>127.80000305176</ele>
        <time>2017-06-11T12:20:35.000Z</time>
      </trkpt>
      <trkpt lat="48.843" lon="-0.3492">
        <ele>127.40000152588</ele>
        <time>2017-06-11T12:20:37.000Z</time>
      </trkpt>
      <trkpt lat="48.84301" lon="-0.34914">
        <ele>127</ele>
        <time>2017-06-11T12:20:38.000Z</time>
      </trkpt>
      <trkpt lat="48.84302" lon="-0.34908">
        <ele>126.59999847412</ele>
        <time>2017-06-11T12:20:39.000Z</time>
      </trkpt>
      <trkpt lat="48.84303" lon="-0.34901">
        <ele>126</ele>
        <time>2017-06-11T12:20:40.000Z</time>
      </trkpt>
      <trkpt lat="48.84305" lon="-0.34895">
        <ele>125.59999847412</ele>
        <time>2017-06-11T12:20:41.000Z</time>
      </trkpt>
      <trkpt lat="48.84309" lon="-0.34884">
        <ele>125.19999694824</ele>
        <time>2017-06-11T12:20:43.000Z</time>
      </trkpt>
      <trkpt lat="48.84312" lon="-0.34879">
        <ele>124.80000305176</ele>
        <time>2017-06-11T12:20:44.000Z</time>
      </trkpt>
      <trkpt lat="48.84314" lon="-0.34874">
        <ele>124.19999694824</ele>
        <time>2017-06-11T12:20:45.000Z</time>
      </trkpt>
      <trkpt lat="48.84317" lon="-0.3487">
        <ele>123.80000305176</ele>
        <time>2017-06-11T12:20:46.000Z</time>
      </trkpt>
      <trkpt lat="48.8432" lon="-0.34866">
        <ele>123.40000152588</ele>
        <time>2017-06-11T12:20:47.000Z</time>
      </trkpt>
      <trkpt lat="48.84335" lon="-0.34846">
        <ele>123.40000152588</ele>
        <time>2017-06-11T12:20:51.000Z</time>
      </trkpt>
      <trkpt lat="48.84353" lon="-0.34827">
        <ele>123.40000152588</ele>
        <time>2017-06-11T12:20:56.000Z</time>
      </trkpt>
      <trkpt lat="48.84357" lon="-0.34826">
        <ele>123</ele>
        <time>2017-06-11T12:20:58.000Z</time>
      </trkpt>
      <trkpt lat="48.84358" lon="-0.34825">
        <ele>122.59999847412</ele>
        <time>2017-06-11T12:20:59.000Z</time>
      </trkpt>
      <trkpt lat="48.84359" lon="-0.34825">
        <ele>122.19999694824</ele>
        <time>2017-06-11T12:21:00.000Z</time>
      </trkpt>
      <trkpt lat="48.84359" lon="-0.34825">
        <ele>121.80000305176</ele>
        <time>2017-06-11T12:21:01.000Z</time>
      </trkpt>
      <trkpt lat="48.84359" lon="-0.34825">
        <ele>121.19999694824</ele>
        <time>2017-06-11T12:21:02.000Z</time>
      </trkpt>
      <trkpt lat="48.84362" lon="-0.34823">
        <ele>121.19999694824</ele>
        <time>2017-06-11T12:21:06.000Z</time>
      </trkpt>
      <trkpt lat="48.84363" lon="-0.34821">
        <ele>121.19999694824</ele>
        <time>2017-06-11T12:21:07.000Z</time>
      </trkpt>
      <trkpt lat="48.84373" lon="-0.34807">
        <ele>121.19999694824</ele>
        <time>2017-06-11T12:21:12.000Z</time>
      </trkpt>
      <trkpt lat="48.8439" lon="-0.34779">
        <ele>121.19999694824</ele>
        <time>2017-06-11T12:21:18.000Z</time>
      </trkpt>
      <trkpt lat="48.84405" lon="-0.34742">
        <ele>121.19999694824</ele>
        <time>2017-06-11T12:21:23.000Z</time>
      </trkpt>
      <trkpt lat="48.84416" lon="-0.34702">
        <ele>121.19999694824</ele>
        <time>2017-06-11T12:21:29.000Z</time>
      </trkpt>
      <trkpt lat="48.84418" lon="-0.34698">
        <ele>120.80000305176</ele>
        <time>2017-06-11T12:21:31.000Z</time>
      </trkpt>
      <trkpt lat="48.84419" lon="-0.34698">
        <ele>120.40000152588</ele>
        <time>2017-06-11T12:21:32.000Z</time>
      </trkpt>
      <trkpt lat="48.84419" lon="-0.34698">
        <ele>120</ele>
        <time>2017-06-11T12:21:33.000Z</time>
      </trkpt>
      <trkpt lat="48.84419" lon="-0.34698">
        <ele>119.59999847412</ele>
        <time>2017-06-11T12:21:34.000Z</time>
      </trkpt>
      <trkpt lat="48.84419" lon="-0.34698">
        <ele>119</ele>
        <time>2017-06-11T12:21:35.000Z</time>
      </trkpt>
      <trkpt lat="48.84419" lon="-0.34697">
        <ele>119</ele>
        <time>2017-06-11T12:21:43.000Z</time>
      </trkpt>
      <trkpt lat="48.84422" lon="-0.34689">
        <ele>119</ele>
        <time>2017-06-11T12:21:48.000Z</time>
      </trkpt>
      <trkpt lat="48.84422" lon="-0.34692">
        <ele>119</ele>
        <time>2017-06-11T12:21:53.000Z</time>
      </trkpt>
      <trkpt lat="48.8442" lon="-0.34693">
        <ele>119</ele>
        <time>2017-06-11T12:21:56.000Z</time>
      </trkpt>
      <trkpt lat="48.84418" lon="-0.34697">
        <ele>119</ele>
        <time>2017-06-11T12:21:59.000Z</time>
      </trkpt>
      <trkpt lat="48.84416" lon="-0.34709">
        <ele>119</ele>
        <time>2017-06-11T12:22:05.000Z</time>
      </trkpt>
      <trkpt lat="48.84413" lon="-0.34725">
        <ele>119</ele>
        <time>2017-06-11T12:22:12.000Z</time>
      </trkpt>
      <trkpt lat="48.8441" lon="-0.34737">
        <ele>119</ele>
        <time>2017-06-11T12:22:19.000Z</time>
      </trkpt>
      <trkpt lat="48.84406" lon="-0.34751">
        <ele>119</ele>
        <time>2017-06-11T12:22:27.000Z</time>
      </trkpt>
      <trkpt lat="48.84403" lon="-0.3475">
        <ele>119</ele>
        <time>2017-06-11T12:22:31.000Z</time>
      </trkpt>
      <trkpt lat="48.84402" lon="-0.34749">
        <ele>119.40000152588</ele>
        <time>2017-06-11T12:22:32.000Z</time>
      </trkpt>
      <trkpt lat="48.84401" lon="-0.34747">
        <ele>120</ele>
        <time>2017-06-11T12:22:33.000Z</time>
      </trkpt>
      <trkpt lat="48.84401" lon="-0.34746">
        <ele>120.40000152588</ele>
        <time>2017-06-11T12:22:34.000Z</time>
      </trkpt>
      <trkpt lat="48.844" lon="-0.34744">
        <ele>120.80000305176</ele>
        <time>2017-06-11T12:22:35.000Z</time>
      </trkpt>
      <trkpt lat="48.844" lon="-0.34743">
        <ele>121.19999694824</ele>
        <time>2017-06-11T12:22:36.000Z</time>
      </trkpt>
      <trkpt lat="48.84399" lon="-0.3474">
        <ele>121.19999694824</ele>
        <time>2017-06-11T12:22:38.000Z</time>
      </trkpt>
      <trkpt lat="48.84398" lon="-0.34737">
        <ele>121.19999694824</ele>
        <time>2017-06-11T12:22:44.000Z</time>
      </trkpt>
      <trkpt lat="48.84395" lon="-0.34725">
        <ele>121.19999694824</ele>
        <time>2017-06-11T12:22:49.000Z</time>
      </trkpt>
      <trkpt lat="48.84391" lon="-0.347">
        <ele>121.19999694824</ele>
        <time>2017-06-11T12:22:55.000Z</time>
      </trkpt>
      <trkpt lat="48.84387" lon="-0.34681">
        <ele>121.59999847412</ele>
        <time>2017-06-11T12:22:59.000Z</time>
      </trkpt>
      <trkpt lat="48.84386" lon="-0.34677">
        <ele>122</ele>
        <time>2017-06-11T12:23:00.000Z</time>
      </trkpt>
      <trkpt lat="48.84385" lon="-0.34672">
        <ele>122.40000152588</ele>
        <time>2017-06-11T12:23:01.000Z</time>
      </trkpt>
      <trkpt lat="48.84384" lon="-0.34667">
        <ele>122.80000305176</ele>
        <time>2017-06-11T12:23:02.000Z</time>
      </trkpt>
      <trkpt lat="48.84384" lon="-0.34663">
        <ele>123.19999694824</ele>
        <time>2017-06-11T12:23:03.000Z</time>
      </trkpt>
      <trkpt lat="48.84379" lon="-0.3464">
        <ele>123.19999694824</ele>
        <time>2017-06-11T12:23:09.000Z</time>
      </trkpt>
      <trkpt lat="48.84372" lon="-0.3462">
        <ele>123.19999694824</ele>
        <time>2017-06-11T12:23:15.000Z</time>
      </trkpt>
      <trkpt lat="48.84365" lon="-0.34591">
        <ele>123.19999694824</ele>
        <time>2017-06-11T12:23:22.000Z</time>
      </trkpt>
      <trkpt lat="48.84361" lon="-0.34571">
        <ele>123.59999847412</ele>
        <time>2017-06-11T12:23:27.000Z</time>
      </trkpt>
      <trkpt lat="48.8436" lon="-0.34566">
        <ele>124</ele>
        <time>2017-06-11T12:23:28.000Z</time>
      </trkpt>
      <trkpt lat="48.84359" lon="-0.34563">
        <ele>124.40000152588</ele>
        <time>2017-06-11T12:23:29.000Z</time>
      </trkpt>
      <trkpt lat="48.84358" lon="-0.34559">
        <ele>124.80000305176</ele>
        <time>2017-06-11T12:23:30.000Z</time>
      </trkpt>
      <trkpt lat="48.84357" lon="-0.34555">
        <ele>125.19999694824</ele>
        <time>2017-06-11T12:23:31.000Z</time>
      </trkpt>
      <trkpt lat="48.84348" lon="-0.34511">
        <ele>125.19999694824</ele>
        <time>2017-06-11T12:23:41.000Z</time>
      </trkpt>
      <trkpt lat="48.84344" lon="-0.34496">
        <ele>125.59999847412</ele>
        <time>2017-06-11T12:23:45.000Z</time>
      </trkpt>
      <trkpt lat="48.84343" lon="-0.34492">
        <ele>126</ele>
        <time>2017-06-11T12:23:46.000Z</time>
      </trkpt>
      <trkpt lat="48.84342" lon="-0.34488">
        <ele>126.40000152588</ele>
        <time>2017-06-11T12:23:47.000Z</time>
      </trkpt>
      <trkpt lat="48.84341" lon="-0.34484">
        <ele>126.80000305176</ele>
        <time>2017-06-11T12:23:49.000Z</time>
      </trkpt>
      <trkpt lat="48.84341" lon="-0.34482">
        <ele>127.40000152588</ele>
        <time>2017-06-11T12:23:50.000Z</time>
      </trkpt>
      <trkpt lat="48.84337" lon="-0.34459">
        <ele>127.40000152588</ele>
        <time>2017-06-11T12:23:57.000Z</time>
      </trkpt>
      <trkpt lat="48.84334" lon="-0.34417">
        <ele>127.40000152588</ele>
        <time>2017-06-11T12:24:06.000Z</time>
      </trkpt>
      <trkpt lat="48.84328" lon="-0.34372">
        <ele>127.40000152588</ele>
        <time>2017-06-11T12:24:14.000Z</time>
      </trkpt>
      <trkpt lat="48.84321" lon="-0.34328">
        <ele>127.40000152588</ele>
        <time>2017-06-11T12:24:22.000Z</time>
      </trkpt>
      <trkpt lat="48.84314" lon="-0.34288">
        <ele>127.40000152588</ele>
        <time>2017-06-11T12:24:31.000Z</time>
      </trkpt>
      <trkpt lat="48.84308" lon="-0.34263">
        <ele>127.40000152588</ele>
        <time>2017-06-11T12:24:37.000Z</time>
      </trkpt>
      <trkpt lat="48.84296" lon="-0.34236">
        <ele>127.40000152588</ele>
        <time>2017-06-11T12:24:44.000Z</time>
      </trkpt>
      <trkpt lat="48.84283" lon="-0.34222">
        <ele>127.40000152588</ele>
        <time>2017-06-11T12:24:49.000Z</time>
      </trkpt>
      <trkpt lat="48.84274" lon="-0.34199">
        <ele>127.40000152588</ele>
        <time>2017-06-11T12:24:54.000Z</time>
      </trkpt>
      <trkpt lat="48.84267" lon="-0.34177">
        <ele>126.80000305176</ele>
        <time>2017-06-11T12:24:58.000Z</time>
      </trkpt>
      <trkpt lat="48.84266" lon="-0.34173">
        <ele>126</ele>
        <time>2017-06-11T12:24:59.000Z</time>
      </trkpt>
      <trkpt lat="48.84265" lon="-0.34169">
        <ele>125.59999847412</ele>
        <time>2017-06-11T12:25:00.000Z</time>
      </trkpt>
      <trkpt lat="48.84264" lon="-0.34165">
        <ele>125</ele>
        <time>2017-06-11T12:25:01.000Z</time>
      </trkpt>
      <trkpt lat="48.84264" lon="-0.34158">
        <ele>124.59999847412</ele>
        <time>2017-06-11T12:25:03.000Z</time>
      </trkpt>
      <trkpt lat="48.84264" lon="-0.34155">
        <ele>124.19999694824</ele>
        <time>2017-06-11T12:25:04.000Z</time>
      </trkpt>
      <trkpt lat="48.84265" lon="-0.34148">
        <ele>123.80000305176</ele>
        <time>2017-06-11T12:25:05.000Z</time>
      </trkpt>
      <trkpt lat="48.84265" lon="-0.34139">
        <ele>123.40000152588</ele>
        <time>2017-06-11T12:25:06.000Z</time>
      </trkpt>
      <trkpt lat="48.84267" lon="-0.34131">
        <ele>122.80000305176</ele>
        <time>2017-06-11T12:25:07.000Z</time>
      </trkpt>
      <trkpt lat="48.84272" lon="-0.34104">
        <ele>122.80000305176</ele>
        <time>2017-06-11T12:25:10.000Z</time>
      </trkpt>
      <trkpt lat="48.84274" lon="-0.34095">
        <ele>122.40000152588</ele>
        <time>2017-06-11T12:25:11.000Z</time>
      </trkpt>
      <trkpt lat="48.84276" lon="-0.34087">
        <ele>122</ele>
        <time>2017-06-11T12:25:12.000Z</time>
      </trkpt>
      <trkpt lat="48.84279" lon="-0.34079">
        <ele>121.59999847412</ele>
        <time>2017-06-11T12:25:13.000Z</time>
      </trkpt>
      <trkpt lat="48.84282" lon="-0.34073">
        <ele>121</ele>
        <time>2017-06-11T12:25:14.000Z</time>
      </trkpt>
      <trkpt lat="48.84286" lon="-0.34067">
        <ele>120.59999847412</ele>
        <time>2017-06-11T12:25:15.000Z</time>
      </trkpt>
      <trkpt lat="48.8429" lon="-0.34062">
        <ele>120.19999694824</ele>
        <time>2017-06-11T12:25:16.000Z</time>
      </trkpt>
      <trkpt lat="48.84294" lon="-0.34056">
        <ele>119.59999847412</ele>
        <time>2017-06-11T12:25:17.000Z</time>
      </trkpt>
      <trkpt lat="48.84298" lon="-0.34049">
        <ele>119.19999694824</ele>
        <time>2017-06-11T12:25:18.000Z</time>
      </trkpt>
      <trkpt lat="48.84303" lon="-0.34043">
        <ele>118.80000305176</ele>
        <time>2017-06-11T12:25:19.000Z</time>
      </trkpt>
      <trkpt lat="48.84308" lon="-0.34036">
        <ele>118.40000152588</ele>
        <time>2017-06-11T12:25:20.000Z</time>
      </trkpt>
      <trkpt lat="48.84314" lon="-0.34029">
        <ele>118</ele>
        <time>2017-06-11T12:25:21.000Z</time>
      </trkpt>
      <trkpt lat="48.84319" lon="-0.34023">
        <ele>117.40000152588</ele>
        <time>2017-06-11T12:25:22.000Z</time>
      </trkpt>
      <trkpt lat="48.84325" lon="-0.34018">
        <ele>117</ele>
        <time>2017-06-11T12:25:23.000Z</time>
      </trkpt>
      <trkpt lat="48.84331" lon="-0.34012">
        <ele>116.19999694824</ele>
        <time>2017-06-11T12:25:24.000Z</time>
      </trkpt>
      <trkpt lat="48.84337" lon="-0.34007">
        <ele>115.80000305176</ele>
        <time>2017-06-11T12:25:25.000Z</time>
      </trkpt>
      <trkpt lat="48.84344" lon="-0.34002">
        <ele>115.40000152588</ele>
        <time>2017-06-11T12:25:26.000Z</time>
      </trkpt>
      <trkpt lat="48.8435" lon="-0.33997">
        <ele>114.80000305176</ele>
        <time>2017-06-11T12:25:27.000Z</time>
      </trkpt>
      <trkpt lat="48.84357" lon="-0.33991">
        <ele>114.40000152588</ele>
        <time>2017-06-11T12:25:28.000Z</time>
      </trkpt>
      <trkpt lat="48.84364" lon="-0.33986">
        <ele>114</ele>
        <time>2017-06-11T12:25:29.000Z</time>
      </trkpt>
      <trkpt lat="48.84371" lon="-0.3398">
        <ele>113.59999847412</ele>
        <time>2017-06-11T12:25:30.000Z</time>
      </trkpt>
      <trkpt lat="48.84378" lon="-0.33973">
        <ele>113</ele>
        <time>2017-06-11T12:25:31.000Z</time>
      </trkpt>
      <trkpt lat="48.84385" lon="-0.33967">
        <ele>112.59999847412</ele>
        <time>2017-06-11T12:25:32.000Z</time>
      </trkpt>
      <trkpt lat="48.84393" lon="-0.3396">
        <ele>112</ele>
        <time>2017-06-11T12:25:33.000Z</time>
      </trkpt>
      <trkpt lat="48.844" lon="-0.33954">
        <ele>111.59999847412</ele>
        <time>2017-06-11T12:25:34.000Z</time>
      </trkpt>
      <trkpt lat="48.84408" lon="-0.33946">
        <ele>111.19999694824</ele>
        <time>2017-06-11T12:25:35.000Z</time>
      </trkpt>
      <trkpt lat="48.84415" lon="-0.33938">
        <ele>110.59999847412</ele>
        <time>2017-06-11T12:25:36.000Z</time>
      </trkpt>
      <trkpt lat="48.84423" lon="-0.33931">
        <ele>110.19999694824</ele>
        <time>2017-06-11T12:25:37.000Z</time>
      </trkpt>
      <trkpt lat="48.8443" lon="-0.33923">
        <ele>109.40000152588</ele>
        <time>2017-06-11T12:25:38.000Z</time>
      </trkpt>
      <trkpt lat="48.84438" lon="-0.33916">
        <ele>108.80000305176</ele>
        <time>2017-06-11T12:25:39.000Z</time>
      </trkpt>
      <trkpt lat="48.84446" lon="-0.33908">
        <ele>108.19999694824</ele>
        <time>2017-06-11T12:25:40.000Z</time>
      </trkpt>
      <trkpt lat="48.84454" lon="-0.339">
        <ele>107.40000152588</ele>
        <time>2017-06-11T12:25:41.000Z</time>
      </trkpt>
      <trkpt lat="48.84462" lon="-0.33893">
        <ele>106.80000305176</ele>
        <time>2017-06-11T12:25:42.000Z</time>
      </trkpt>
      <trkpt lat="48.8447" lon="-0.33885">
        <ele>106</ele>
        <time>2017-06-11T12:25:43.000Z</time>
      </trkpt>
      <trkpt lat="48.84479" lon="-0.33877">
        <ele>105.19999694824</ele>
        <time>2017-06-11T12:25:44.000Z</time>
      </trkpt>
      <trkpt lat="48.84487" lon="-0.33871">
        <ele>104.59999847412</ele>
        <time>2017-06-11T12:25:45.000Z</time>
      </trkpt>
      <trkpt lat="48.84495" lon="-0.33865">
        <ele>103.80000305176</ele>
        <time>2017-06-11T12:25:46.000Z</time>
      </trkpt>
      <trkpt lat="48.84503" lon="-0.3386">
        <ele>103</ele>
        <time>2017-06-11T12:25:47.000Z</time>
      </trkpt>
      <trkpt lat="48.8451" lon="-0.33854">
        <ele>102.19999694824</ele>
        <time>2017-06-11T12:25:48.000Z</time>
      </trkpt>
      <trkpt lat="48.84517" lon="-0.33848">
        <ele>100.59999847412</ele>
        <time>2017-06-11T12:25:49.000Z</time>
      </trkpt>
      <trkpt lat="48.84524" lon="-0.33843">
        <ele>99.800003051758</ele>
        <time>2017-06-11T12:25:50.000Z</time>
      </trkpt>
      <trkpt lat="48.8453" lon="-0.33837">
        <ele>99</ele>
        <time>2017-06-11T12:25:51.000Z</time>
      </trkpt>
      <trkpt lat="48.84536" lon="-0.33832">
        <ele>98.199996948242</ele>
        <time>2017-06-11T12:25:52.000Z</time>
      </trkpt>
      <trkpt lat="48.84542" lon="-0.33826">
        <ele>97.400001525879</ele>
        <time>2017-06-11T12:25:53.000Z</time>
      </trkpt>
      <trkpt lat="48.84548" lon="-0.33821">
        <ele>96.599998474121</ele>
        <time>2017-06-11T12:25:54.000Z</time>
      </trkpt>
      <trkpt lat="48.84554" lon="-0.33816">
        <ele>95.599998474121</ele>
        <time>2017-06-11T12:25:55.000Z</time>
      </trkpt>
      <trkpt lat="48.84559" lon="-0.3381">
        <ele>95</ele>
        <time>2017-06-11T12:25:56.000Z</time>
      </trkpt>
      <trkpt lat="48.84563" lon="-0.33804">
        <ele>94.400001525879</ele>
        <time>2017-06-11T12:25:57.000Z</time>
      </trkpt>
      <trkpt lat="48.84567" lon="-0.33798">
        <ele>93.599998474121</ele>
        <time>2017-06-11T12:25:58.000Z</time>
      </trkpt>
      <trkpt lat="48.84572" lon="-0.33791">
        <ele>93</ele>
        <time>2017-06-11T12:25:59.000Z</time>
      </trkpt>
      <trkpt lat="48.84577" lon="-0.33784">
        <ele>92.400001525879</ele>
        <time>2017-06-11T12:26:00.000Z</time>
      </trkpt>
      <trkpt lat="48.84582" lon="-0.33776">
        <ele>91.800003051758</ele>
        <time>2017-06-11T12:26:01.000Z</time>
      </trkpt>
      <trkpt lat="48.84587" lon="-0.33768">
        <ele>91.400001525879</ele>
        <time>2017-06-11T12:26:02.000Z</time>
      </trkpt>
      <trkpt lat="48.84592" lon="-0.33759">
        <ele>90.800003051758</ele>
        <time>2017-06-11T12:26:03.000Z</time>
      </trkpt>
      <trkpt lat="48.84597" lon="-0.33752">
        <ele>90.199996948242</ele>
        <time>2017-06-11T12:26:04.000Z</time>
      </trkpt>
      <trkpt lat="48.84601" lon="-0.33746">
        <ele>89.599998474121</ele>
        <time>2017-06-11T12:26:05.000Z</time>
      </trkpt>
      <trkpt lat="48.84604" lon="-0.33741">
        <ele>88.800003051758</ele>
        <time>2017-06-11T12:26:06.000Z</time>
      </trkpt>
      <trkpt lat="48.84608" lon="-0.33736">
        <ele>88.199996948242</ele>
        <time>2017-06-11T12:26:07.000Z</time>
      </trkpt>
      <trkpt lat="48.84611" lon="-0.3373">
        <ele>87.599998474121</ele>
        <time>2017-06-11T12:26:08.000Z</time>
      </trkpt>
      <trkpt lat="48.84614" lon="-0.33722">
        <ele>87</ele>
        <time>2017-06-11T12:26:09.000Z</time>
      </trkpt>
      <trkpt lat="48.84617" lon="-0.33713">
        <ele>86.400001525879</ele>
        <time>2017-06-11T12:26:10.000Z</time>
      </trkpt>
      <trkpt lat="48.84619" lon="-0.33703">
        <ele>85.800003051758</ele>
        <time>2017-06-11T12:26:11.000Z</time>
      </trkpt>
      <trkpt lat="48.8462" lon="-0.33692">
        <ele>85.199996948242</ele>
        <time>2017-06-11T12:26:12.000Z</time>
      </trkpt>
      <trkpt lat="48.8462" lon="-0.33681">
        <ele>84.800003051758</ele>
        <time>2017-06-11T12:26:13.000Z</time>
      </trkpt>
      <trkpt lat="48.84619" lon="-0.3367">
        <ele>84.400001525879</ele>
        <time>2017-06-11T12:26:14.000Z</time>
      </trkpt>
      <trkpt lat="48.84617" lon="-0.33658">
        <ele>84</ele>
        <time>2017-06-11T12:26:15.000Z</time>
      </trkpt>
      <trkpt lat="48.84614" lon="-0.33647">
        <ele>83.599998474121</ele>
        <time>2017-06-11T12:26:16.000Z</time>
      </trkpt>
      <trkpt lat="48.84611" lon="-0.33637">
        <ele>83.199996948242</ele>
        <time>2017-06-11T12:26:17.000Z</time>
      </trkpt>
      <trkpt lat="48.84607" lon="-0.33619">
        <ele>82.800003051758</ele>
        <time>2017-06-11T12:26:19.000Z</time>
      </trkpt>
      <trkpt lat="48.84605" lon="-0.33612">
        <ele>82.400001525879</ele>
        <time>2017-06-11T12:26:20.000Z</time>
      </trkpt>
      <trkpt lat="48.84604" lon="-0.33607">
        <ele>82</ele>
        <time>2017-06-11T12:26:21.000Z</time>
      </trkpt>
      <trkpt lat="48.84603" lon="-0.33605">
        <ele>81.400001525879</ele>
        <time>2017-06-11T12:26:22.000Z</time>
      </trkpt>
      <trkpt lat="48.84603" lon="-0.33605">
        <ele>81</ele>
        <time>2017-06-11T12:26:23.000Z</time>
      </trkpt>
      <trkpt lat="48.84603" lon="-0.33604">
        <ele>80.599998474121</ele>
        <time>2017-06-11T12:26:24.000Z</time>
      </trkpt>
      <trkpt lat="48.84603" lon="-0.33604">
        <ele>80.199996948242</ele>
        <time>2017-06-11T12:26:25.000Z</time>
      </trkpt>
      <trkpt lat="48.84603" lon="-0.33605">
        <ele>79.800003051758</ele>
        <time>2017-06-11T12:26:26.000Z</time>
      </trkpt>
      <trkpt lat="48.84602" lon="-0.33606">
        <ele>79.400001525879</ele>
        <time>2017-06-11T12:26:27.000Z</time>
      </trkpt>
      <trkpt lat="48.84602" lon="-0.33606">
        <ele>78.800003051758</ele>
        <time>2017-06-11T12:26:28.000Z</time>
      </trkpt>
      <trkpt lat="48.84602" lon="-0.33606">
        <ele>78.800003051758</ele>
        <time>2017-06-11T12:26:30.000Z</time>
      </trkpt>
      <trkpt lat="48.84602" lon="-0.33606">
        <ele>78.800003051758</ele>
        <time>2017-06-11T12:26:45.000Z</time>
      </trkpt>
      <trkpt lat="48.84602" lon="-0.33606">
        <ele>78.800003051758</ele>
        <time>2017-06-11T12:27:04.000Z</time>
      </trkpt>
      <trkpt lat="48.84602" lon="-0.33606">
        <ele>78.800003051758</ele>
        <time>2017-06-11T12:27:22.000Z</time>
      </trkpt>
      <trkpt lat="48.84602" lon="-0.33606">
        <ele>78.800003051758</ele>
        <time>2017-06-11T12:27:37.000Z</time>
      </trkpt>
      <trkpt lat="48.84602" lon="-0.33606">
        <ele>78.800003051758</ele>
        <time>2017-06-11T12:27:49.000Z</time>
      </trkpt>
      <trkpt lat="48.84602" lon="-0.33606">
        <ele>78.800003051758</ele>
        <time>2017-06-11T12:28:05.000Z</time>
      </trkpt>
      <trkpt lat="48.84602" lon="-0.33606">
        <ele>78.800003051758</ele>
        <time>2017-06-11T12:28:20.000Z</time>
      </trkpt>
      <trkpt lat="48.84602" lon="-0.33606">
        <ele>78.800003051758</ele>
        <time>2017-06-11T12:28:36.000Z</time>
      </trkpt>
      <trkpt lat="48.84602" lon="-0.33606">
        <ele>78.800003051758</ele>
        <time>2017-06-11T12:28:53.000Z</time>
      </trkpt>
      <trkpt lat="48.84602" lon="-0.33607">
        <ele>78.800003051758</ele>
        <time>2017-06-11T12:29:09.000Z</time>
      </trkpt>
      <trkpt lat="48.84602" lon="-0.33607">
        <ele>78.800003051758</ele>
        <time>2017-06-11T12:29:24.000Z</time>
      </trkpt>
      <trkpt lat="48.84602" lon="-0.33607">
        <ele>78.800003051758</ele>
        <time>2017-06-11T12:29:37.000Z</time>
      </trkpt>
      <trkpt lat="48.84602" lon="-0.33606">
        <ele>78.800003051758</ele>
        <time>2017-06-11T12:29:54.000Z</time>
      </trkpt>
      <trkpt lat="48.84602" lon="-0.33606">
        <ele>78.800003051758</ele>
        <time>2017-06-11T12:30:07.000Z</time>
      </trkpt>
      <trkpt lat="48.84602" lon="-0.33606">
        <ele>78.800003051758</ele>
        <time>2017-06-11T12:30:11.000Z</time>
      </trkpt>
      <trkpt lat="48.84602" lon="-0.33606">
        <ele>78.800003051758</ele>
        <time>2017-06-11T12:30:12.000Z</time>
      </trkpt>
      <trkpt lat="48.84603" lon="-0.33599">
        <ele>78.800003051758</ele>
        <time>2017-06-11T12:30:17.000Z</time>
      </trkpt>
      <trkpt lat="48.84604" lon="-0.33579">
        <ele>78.800003051758</ele>
        <time>2017-06-11T12:30:22.000Z</time>
      </trkpt>
      <trkpt lat="48.84611" lon="-0.3355">
        <ele>78.800003051758</ele>
        <time>2017-06-11T12:30:28.000Z</time>
      </trkpt>
      <trkpt lat="48.84617" lon="-0.33539">
        <ele>78.800003051758</ele>
        <time>2017-06-11T12:30:30.000Z</time>
      </trkpt>
      <trkpt lat="48.84627" lon="-0.33528">
        <ele>78.800003051758</ele>
        <time>2017-06-11T12:30:33.000Z</time>
      </trkpt>
      <trkpt lat="48.84639" lon="-0.33521">
        <ele>78.800003051758</ele>
        <time>2017-06-11T12:30:38.000Z</time>
      </trkpt>
      <trkpt lat="48.84646" lon="-0.33522">
        <ele>78.800003051758</ele>
        <time>2017-06-11T12:30:41.000Z</time>
      </trkpt>
      <trkpt lat="48.84652" lon="-0.33521">
        <ele>78.800003051758</ele>
        <time>2017-06-11T12:30:44.000Z</time>
      </trkpt>
      <trkpt lat="48.84657" lon="-0.33522">
        <ele>79.400001525879</ele>
        <time>2017-06-11T12:30:46.000Z</time>
      </trkpt>
      <trkpt lat="48.84659" lon="-0.33523">
        <ele>79.800003051758</ele>
        <time>2017-06-11T12:30:47.000Z</time>
      </trkpt>
      <trkpt lat="48.84662" lon="-0.33524">
        <ele>80.199996948242</ele>
        <time>2017-06-11T12:30:48.000Z</time>
      </trkpt>
      <trkpt lat="48.84664" lon="-0.33526">
        <ele>80.599998474121</ele>
        <time>2017-06-11T12:30:49.000Z</time>
      </trkpt>
      <trkpt lat="48.84667" lon="-0.33527">
        <ele>81</ele>
        <time>2017-06-11T12:30:50.000Z</time>
      </trkpt>
      <trkpt lat="48.84669" lon="-0.33529">
        <ele>81</ele>
        <time>2017-06-11T12:30:51.000Z</time>
      </trkpt>
      <trkpt lat="48.84682" lon="-0.33546">
        <ele>81</ele>
        <time>2017-06-11T12:30:57.000Z</time>
      </trkpt>
      <trkpt lat="48.84697" lon="-0.33559">
        <ele>81</ele>
        <time>2017-06-11T12:31:01.000Z</time>
      </trkpt>
      <trkpt lat="48.8472" lon="-0.3358">
        <ele>80.599998474121</ele>
        <time>2017-06-11T12:31:06.000Z</time>
      </trkpt>
      <trkpt lat="48.84725" lon="-0.33584">
        <ele>80</ele>
        <time>2017-06-11T12:31:07.000Z</time>
      </trkpt>
      <trkpt lat="48.84729" lon="-0.33587">
        <ele>79.599998474121</ele>
        <time>2017-06-11T12:31:08.000Z</time>
      </trkpt>
      <trkpt lat="48.84733" lon="-0.33589">
        <ele>79</ele>
        <time>2017-06-11T12:31:09.000Z</time>
      </trkpt>
      <trkpt lat="48.84737" lon="-0.33591">
        <ele>78.599998474121</ele>
        <time>2017-06-11T12:31:10.000Z</time>
      </trkpt>
      <trkpt lat="48.8474" lon="-0.33593">
        <ele>78.599998474121</ele>
        <time>2017-06-11T12:31:11.000Z</time>
      </trkpt>
      <trkpt lat="48.84744" lon="-0.33595">
        <ele>78.199996948242</ele>
        <time>2017-06-11T12:31:12.000Z</time>
      </trkpt>
      <trkpt lat="48.84747" lon="-0.33596">
        <ele>77.800003051758</ele>
        <time>2017-06-11T12:31:13.000Z</time>
      </trkpt>
      <trkpt lat="48.84751" lon="-0.33598">
        <ele>77.400001525879</ele>
        <time>2017-06-11T12:31:14.000Z</time>
      </trkpt>
      <trkpt lat="48.84754" lon="-0.336">
        <ele>77</ele>
        <time>2017-06-11T12:31:15.000Z</time>
      </trkpt>
      <trkpt lat="48.84758" lon="-0.33603">
        <ele>76.599998474121</ele>
        <time>2017-06-11T12:31:16.000Z</time>
      </trkpt>
      <trkpt lat="48.84766" lon="-0.33609">
        <ele>76.599998474121</ele>
        <time>2017-06-11T12:31:18.000Z</time>
      </trkpt>
      <trkpt lat="48.84789" lon="-0.33636">
        <ele>76.599998474121</ele>
        <time>2017-06-11T12:31:24.000Z</time>
      </trkpt>
      <trkpt lat="48.84805" lon="-0.33655">
        <ele>76.599998474121</ele>
        <time>2017-06-11T12:31:29.000Z</time>
      </trkpt>
      <trkpt lat="48.84825" lon="-0.33686">
        <ele>76.599998474121</ele>
        <time>2017-06-11T12:31:36.000Z</time>
      </trkpt>
      <trkpt lat="48.84833" lon="-0.33714">
        <ele>76.599998474121</ele>
        <time>2017-06-11T12:31:40.000Z</time>
      </trkpt>
      <trkpt lat="48.84848" lon="-0.33749">
        <ele>76.599998474121</ele>
        <time>2017-06-11T12:31:46.000Z</time>
      </trkpt>
      <trkpt lat="48.84861" lon="-0.33785">
        <ele>76.599998474121</ele>
        <time>2017-06-11T12:31:52.000Z</time>
      </trkpt>
      <trkpt lat="48.84863" lon="-0.33792">
        <ele>76.599998474121</ele>
        <time>2017-06-11T12:31:53.000Z</time>
      </trkpt>
      <trkpt lat="48.8487" lon="-0.33838">
        <ele>76.599998474121</ele>
        <time>2017-06-11T12:32:00.000Z</time>
      </trkpt>
      <trkpt lat="48.84868" lon="-0.33896">
        <ele>76.599998474121</ele>
        <time>2017-06-11T12:32:08.000Z</time>
      </trkpt>
      <trkpt lat="48.84865" lon="-0.33948">
        <ele>76.599998474121</ele>
        <time>2017-06-11T12:32:15.000Z</time>
      </trkpt>
      <trkpt lat="48.84863" lon="-0.33962">
        <ele>76.599998474121</ele>
        <time>2017-06-11T12:32:17.000Z</time>
      </trkpt>
      <trkpt lat="48.8486" lon="-0.33992">
        <ele>76.599998474121</ele>
        <time>2017-06-11T12:32:21.000Z</time>
      </trkpt>
      <trkpt lat="48.84858" lon="-0.34015">
        <ele>76.599998474121</ele>
        <time>2017-06-11T12:32:24.000Z</time>
      </trkpt>
      <trkpt lat="48.84856" lon="-0.34028">
        <ele>76.599998474121</ele>
        <time>2017-06-11T12:32:26.000Z</time>
      </trkpt>
      <trkpt lat="48.84856" lon="-0.34035">
        <ele>76.599998474121</ele>
        <time>2017-06-11T12:32:27.000Z</time>
      </trkpt>
      <trkpt lat="48.84851" lon="-0.34066">
        <ele>77</ele>
        <time>2017-06-11T12:32:32.000Z</time>
      </trkpt>
      <trkpt lat="48.8485" lon="-0.34071">
        <ele>77.400001525879</ele>
        <time>2017-06-11T12:32:33.000Z</time>
      </trkpt>
      <trkpt lat="48.8485" lon="-0.34076">
        <ele>77.800003051758</ele>
        <time>2017-06-11T12:32:34.000Z</time>
      </trkpt>
      <trkpt lat="48.84849" lon="-0.34081">
        <ele>78.400001525879</ele>
        <time>2017-06-11T12:32:35.000Z</time>
      </trkpt>
      <trkpt lat="48.84848" lon="-0.34086">
        <ele>78.800003051758</ele>
        <time>2017-06-11T12:32:36.000Z</time>
      </trkpt>
      <trkpt lat="48.84846" lon="-0.34092">
        <ele>78.800003051758</ele>
        <time>2017-06-11T12:32:37.000Z</time>
      </trkpt>
      <trkpt lat="48.8484" lon="-0.3413">
        <ele>78.800003051758</ele>
        <time>2017-06-11T12:32:43.000Z</time>
      </trkpt>
      <trkpt lat="48.84837" lon="-0.3416">
        <ele>78.800003051758</ele>
        <time>2017-06-11T12:32:47.000Z</time>
      </trkpt>
      <trkpt lat="48.84839" lon="-0.34173">
        <ele>78.800003051758</ele>
        <time>2017-06-11T12:32:49.000Z</time>
      </trkpt>
      <trkpt lat="48.84849" lon="-0.34187">
        <ele>78.800003051758</ele>
        <time>2017-06-11T12:32:52.000Z</time>
      </trkpt>
      <trkpt lat="48.84857" lon="-0.34193">
        <ele>78.800003051758</ele>
        <time>2017-06-11T12:32:54.000Z</time>
      </trkpt>
      <trkpt lat="48.84861" lon="-0.34196">
        <ele>78.800003051758</ele>
        <time>2017-06-11T12:32:55.000Z</time>
      </trkpt>
      <trkpt lat="48.84869" lon="-0.342">
        <ele>78.800003051758</ele>
        <time>2017-06-11T12:32:57.000Z</time>
      </trkpt>
      <trkpt lat="48.84893" lon="-0.34205">
        <ele>79.199996948242</ele>
        <time>2017-06-11T12:33:03.000Z</time>
      </trkpt>
      <trkpt lat="48.84897" lon="-0.34206">
        <ele>79.599998474121</ele>
        <time>2017-06-11T12:33:04.000Z</time>
      </trkpt>
      <trkpt lat="48.84902" lon="-0.34209">
        <ele>80</ele>
        <time>2017-06-11T12:33:05.000Z</time>
      </trkpt>
      <trkpt lat="48.84906" lon="-0.34212">
        <ele>80.400001525879</ele>
        <time>2017-06-11T12:33:06.000Z</time>
      </trkpt>
      <trkpt lat="48.84909" lon="-0.34215">
        <ele>80.800003051758</ele>
        <time>2017-06-11T12:33:07.000Z</time>
      </trkpt>
      <trkpt lat="48.84916" lon="-0.3422">
        <ele>80.800003051758</ele>
        <time>2017-06-11T12:33:09.000Z</time>
      </trkpt>
      <trkpt lat="48.8493" lon="-0.34234">
        <ele>80.800003051758</ele>
        <time>2017-06-11T12:33:15.000Z</time>
      </trkpt>
      <trkpt lat="48.84934" lon="-0.34234">
        <ele>80.800003051758</ele>
        <time>2017-06-11T12:33:17.000Z</time>
      </trkpt>
      <trkpt lat="48.84938" lon="-0.3423">
        <ele>80.800003051758</ele>
        <time>2017-06-11T12:33:19.000Z</time>
      </trkpt>
      <trkpt lat="48.84945" lon="-0.3422">
        <ele>80.800003051758</ele>
        <time>2017-06-11T12:33:23.000Z</time>
      </trkpt>
      <trkpt lat="48.84949" lon="-0.34217">
        <ele>80.800003051758</ele>
        <time>2017-06-11T12:33:25.000Z</time>
      </trkpt>
      <trkpt lat="48.8496" lon="-0.34206">
        <ele>81.199996948242</ele>
        <time>2017-06-11T12:33:31.000Z</time>
      </trkpt>
      <trkpt lat="48.84962" lon="-0.34204">
        <ele>81.599998474121</ele>
        <time>2017-06-11T12:33:32.000Z</time>
      </trkpt>
      <trkpt lat="48.84964" lon="-0.34202">
        <ele>82.199996948242</ele>
        <time>2017-06-11T12:33:33.000Z</time>
      </trkpt>
      <trkpt lat="48.84965" lon="-0.34201">
        <ele>82.599998474121</ele>
        <time>2017-06-11T12:33:34.000Z</time>
      </trkpt>
      <trkpt lat="48.84967" lon="-0.34199">
        <ele>83</ele>
        <time>2017-06-11T12:33:35.000Z</time>
      </trkpt>
      <trkpt lat="48.84972" lon="-0.34193">
        <ele>83</ele>
        <time>2017-06-11T12:33:38.000Z</time>
      </trkpt>
      <trkpt lat="48.8498" lon="-0.34186">
        <ele>83.400001525879</ele>
        <time>2017-06-11T12:33:43.000Z</time>
      </trkpt>
      <trkpt lat="48.84981" lon="-0.34185">
        <ele>83.800003051758</ele>
        <time>2017-06-11T12:33:44.000Z</time>
      </trkpt>
      <trkpt lat="48.84983" lon="-0.34184">
        <ele>84.199996948242</ele>
        <time>2017-06-11T12:33:45.000Z</time>
      </trkpt>
      <trkpt lat="48.84984" lon="-0.34183">
        <ele>84.599998474121</ele>
        <time>2017-06-11T12:33:46.000Z</time>
      </trkpt>
      <trkpt lat="48.84985" lon="-0.34182">
        <ele>85</ele>
        <time>2017-06-11T12:33:47.000Z</time>
      </trkpt>
      <trkpt lat="48.84995" lon="-0.34174">
        <ele>85</ele>
        <time>2017-06-11T12:33:53.000Z</time>
      </trkpt>
      <trkpt lat="48.85005" lon="-0.34165">
        <ele>85</ele>
        <time>2017-06-11T12:34:00.000Z</time>
      </trkpt>
      <trkpt lat="48.85012" lon="-0.3416">
        <ele>85.400001525879</ele>
        <time>2017-06-11T12:34:04.000Z</time>
      </trkpt>
      <trkpt lat="48.85013" lon="-0.34159">
        <ele>86</ele>
        <time>2017-06-11T12:34:05.000Z</time>
      </trkpt>
      <trkpt lat="48.85015" lon="-0.34158">
        <ele>86.400001525879</ele>
        <time>2017-06-11T12:34:06.000Z</time>
      </trkpt>
      <trkpt lat="48.85016" lon="-0.34157">
        <ele>86.800003051758</ele>
        <time>2017-06-11T12:34:07.000Z</time>
      </trkpt>
      <trkpt lat="48.85018" lon="-0.34156">
        <ele>87.199996948242</ele>
        <time>2017-06-11T12:34:08.000Z</time>
      </trkpt>
      <trkpt lat="48.85024" lon="-0.34153">
        <ele>87.199996948242</ele>
        <time>2017-06-11T12:34:12.000Z</time>
      </trkpt>
      <trkpt lat="48.85033" lon="-0.34145">
        <ele>87.199996948242</ele>
        <time>2017-06-11T12:34:18.000Z</time>
      </trkpt>
      <trkpt lat="48.85036" lon="-0.34142">
        <ele>87.599998474121</ele>
        <time>2017-06-11T12:34:21.000Z</time>
      </trkpt>
      <trkpt lat="48.85038" lon="-0.34141">
        <ele>88</ele>
        <time>2017-06-11T12:34:22.000Z</time>
      </trkpt>
      <trkpt lat="48.8504" lon="-0.34139">
        <ele>88.400001525879</ele>
        <time>2017-06-11T12:34:23.000Z</time>
      </trkpt>
      <trkpt lat="48.85042" lon="-0.34138">
        <ele>88.800003051758</ele>
        <time>2017-06-11T12:34:24.000Z</time>
      </trkpt>
      <trkpt lat="48.85044" lon="-0.34137">
        <ele>89.400001525879</ele>
        <time>2017-06-11T12:34:25.000Z</time>
      </trkpt>
      <trkpt lat="48.85053" lon="-0.34131">
        <ele>89.400001525879</ele>
        <time>2017-06-11T12:34:31.000Z</time>
      </trkpt>
      <trkpt lat="48.85065" lon="-0.34122">
        <ele>89.400001525879</ele>
        <time>2017-06-11T12:34:38.000Z</time>
      </trkpt>
      <trkpt lat="48.85066" lon="-0.3412">
        <ele>89.800003051758</ele>
        <time>2017-06-11T12:34:39.000Z</time>
      </trkpt>
      <trkpt lat="48.85068" lon="-0.34119">
        <ele>90.199996948242</ele>
        <time>2017-06-11T12:34:40.000Z</time>
      </trkpt>
      <trkpt lat="48.85069" lon="-0.34119">
        <ele>90.599998474121</ele>
        <time>2017-06-11T12:34:41.000Z</time>
      </trkpt>
      <trkpt lat="48.8507" lon="-0.34118">
        <ele>91</ele>
        <time>2017-06-11T12:34:42.000Z</time>
      </trkpt>
      <trkpt lat="48.8507" lon="-0.34118">
        <ele>91.400001525879</ele>
        <time>2017-06-11T12:34:43.000Z</time>
      </trkpt>
      <trkpt lat="48.8507" lon="-0.34118">
        <ele>91.400001525879</ele>
        <time>2017-06-11T12:34:44.000Z</time>
      </trkpt>
      <trkpt lat="48.8507" lon="-0.34118">
        <ele>91.400001525879</ele>
        <time>2017-06-11T12:34:54.000Z</time>
      </trkpt>
      <trkpt lat="48.8507" lon="-0.34117">
        <ele>91.400001525879</ele>
        <time>2017-06-11T12:34:55.000Z</time>
      </trkpt>
      <trkpt lat="48.85074" lon="-0.34113">
        <ele>91.400001525879</ele>
        <time>2017-06-11T12:34:58.000Z</time>
      </trkpt>
      <trkpt lat="48.85082" lon="-0.34106">
        <ele>91.400001525879</ele>
        <time>2017-06-11T12:35:04.000Z</time>
      </trkpt>
      <trkpt lat="48.85084" lon="-0.34104">
        <ele>91.800003051758</ele>
        <time>2017-06-11T12:35:06.000Z</time>
      </trkpt>
      <trkpt lat="48.85085" lon="-0.34101">
        <ele>92.199996948242</ele>
        <time>2017-06-11T12:35:07.000Z</time>
      </trkpt>
      <trkpt lat="48.85087" lon="-0.341">
        <ele>92.599998474121</ele>
        <time>2017-06-11T12:35:08.000Z</time>
      </trkpt>
      <trkpt lat="48.85088" lon="-0.34099">
        <ele>93</ele>
        <time>2017-06-11T12:35:09.000Z</time>
      </trkpt>
      <trkpt lat="48.85089" lon="-0.34098">
        <ele>93.400001525879</ele>
        <time>2017-06-11T12:35:10.000Z</time>
      </trkpt>
      <trkpt lat="48.85096" lon="-0.34092">
        <ele>93.800003051758</ele>
        <time>2017-06-11T12:35:15.000Z</time>
      </trkpt>
      <trkpt lat="48.85098" lon="-0.3409">
        <ele>94.199996948242</ele>
        <time>2017-06-11T12:35:16.000Z</time>
      </trkpt>
      <trkpt lat="48.851" lon="-0.34089">
        <ele>95</ele>
        <time>2017-06-11T12:35:17.000Z</time>
      </trkpt>
      <trkpt lat="48.85101" lon="-0.34088">
        <ele>95.400001525879</ele>
        <time>2017-06-11T12:35:18.000Z</time>
      </trkpt>
      <trkpt lat="48.85106" lon="-0.34084">
        <ele>96</ele>
        <time>2017-06-11T12:35:23.000Z</time>
      </trkpt>
      <trkpt lat="48.85107" lon="-0.34083">
        <ele>96.400001525879</ele>
        <time>2017-06-11T12:35:24.000Z</time>
      </trkpt>
      <trkpt lat="48.85108" lon="-0.34082">
        <ele>96.800003051758</ele>
        <time>2017-06-11T12:35:25.000Z</time>
      </trkpt>
      <trkpt lat="48.85109" lon="-0.34081">
        <ele>97.199996948242</ele>
        <time>2017-06-11T12:35:26.000Z</time>
      </trkpt>
      <trkpt lat="48.8511" lon="-0.3408">
        <ele>97.599998474121</ele>
        <time>2017-06-11T12:35:27.000Z</time>
      </trkpt>
      <trkpt lat="48.85113" lon="-0.34075">
        <ele>97.599998474121</ele>
        <time>2017-06-11T12:35:31.000Z</time>
      </trkpt>
      <trkpt lat="48.85115" lon="-0.34073">
        <ele>98</ele>
        <time>2017-06-11T12:35:33.000Z</time>
      </trkpt>
      <trkpt lat="48.85115" lon="-0.34071">
        <ele>98.599998474121</ele>
        <time>2017-06-11T12:35:34.000Z</time>
      </trkpt>
      <trkpt lat="48.85116" lon="-0.34071">
        <ele>99</ele>
        <time>2017-06-11T12:35:35.000Z</time>
      </trkpt>
      <trkpt lat="48.85118" lon="-0.3407">
        <ele>99.400001525879</ele>
        <time>2017-06-11T12:35:36.000Z</time>
      </trkpt>
      <trkpt lat="48.85119" lon="-0.34069">
        <ele>100</ele>
        <time>2017-06-11T12:35:37.000Z</time>
      </trkpt>
      <trkpt lat="48.85122" lon="-0.34068">
        <ele>100</ele>
        <time>2017-06-11T12:35:39.000Z</time>
      </trkpt>
      <trkpt lat="48.85127" lon="-0.34063">
        <ele>100.40000152588</ele>
        <time>2017-06-11T12:35:43.000Z</time>
      </trkpt>
      <trkpt lat="48.85129" lon="-0.34063">
        <ele>100.80000305176</ele>
        <time>2017-06-11T12:35:44.000Z</time>
      </trkpt>
      <trkpt lat="48.8513" lon="-0.34063">
        <ele>101.19999694824</ele>
        <time>2017-06-11T12:35:45.000Z</time>
      </trkpt>
      <trkpt lat="48.85132" lon="-0.34062">
        <ele>101.59999847412</ele>
        <time>2017-06-11T12:35:46.000Z</time>
      </trkpt>
      <trkpt lat="48.85134" lon="-0.34062">
        <ele>102</ele>
        <time>2017-06-11T12:35:47.000Z</time>
      </trkpt>
      <trkpt lat="48.85141" lon="-0.34059">
        <ele>102</ele>
        <time>2017-06-11T12:35:51.000Z</time>
      </trkpt>
      <trkpt lat="48.85147" lon="-0.34057">
        <ele>102.59999847412</ele>
        <time>2017-06-11T12:35:54.000Z</time>
      </trkpt>
      <trkpt lat="48.85149" lon="-0.34057">
        <ele>103</ele>
        <time>2017-06-11T12:35:55.000Z</time>
      </trkpt>
      <trkpt lat="48.85152" lon="-0.34055">
        <ele>103.40000152588</ele>
        <time>2017-06-11T12:35:56.000Z</time>
      </trkpt>
      <trkpt lat="48.85153" lon="-0.34054">
        <ele>103.80000305176</ele>
        <time>2017-06-11T12:35:57.000Z</time>
      </trkpt>
      <trkpt lat="48.85153" lon="-0.34053">
        <ele>104.19999694824</ele>
        <time>2017-06-11T12:35:58.000Z</time>
      </trkpt>
      <trkpt lat="48.85155" lon="-0.34053">
        <ele>104.19999694824</ele>
        <time>2017-06-11T12:36:01.000Z</time>
      </trkpt>
      <trkpt lat="48.85156" lon="-0.34052">
        <ele>104.19999694824</ele>
        <time>2017-06-11T12:36:02.000Z</time>
      </trkpt>
      <trkpt lat="48.8516" lon="-0.3405">
        <ele>104.19999694824</ele>
        <time>2017-06-11T12:36:09.000Z</time>
      </trkpt>
      <trkpt lat="48.8516" lon="-0.3405">
        <ele>104.19999694824</ele>
        <time>2017-06-11T12:36:20.000Z</time>
      </trkpt>
      <trkpt lat="48.8516" lon="-0.3405">
        <ele>104.19999694824</ele>
        <time>2017-06-11T12:36:34.000Z</time>
      </trkpt>
      <trkpt lat="48.8516" lon="-0.3405">
        <ele>104.19999694824</ele>
        <time>2017-06-11T12:36:48.000Z</time>
      </trkpt>
      <trkpt lat="48.8516" lon="-0.3405">
        <ele>104.19999694824</ele>
        <time>2017-06-11T12:36:54.000Z</time>
      </trkpt>
      <trkpt lat="48.85161" lon="-0.3405">
        <ele>104.19999694824</ele>
        <time>2017-06-11T12:37:01.000Z</time>
      </trkpt>
      <trkpt lat="48.85162" lon="-0.34051">
        <ele>104.19999694824</ele>
        <time>2017-06-11T12:37:06.000Z</time>
      </trkpt>
      <trkpt lat="48.85162" lon="-0.34051">
        <ele>104.19999694824</ele>
        <time>2017-06-11T12:37:16.000Z</time>
      </trkpt>
      <trkpt lat="48.85165" lon="-0.3405">
        <ele>104.19999694824</ele>
        <time>2017-06-11T12:37:22.000Z</time>
      </trkpt>
      <trkpt lat="48.85165" lon="-0.3405">
        <ele>104.59999847412</ele>
        <time>2017-06-11T12:37:25.000Z</time>
      </trkpt>
      <trkpt lat="48.85165" lon="-0.3405">
        <ele>105</ele>
        <time>2017-06-11T12:37:26.000Z</time>
      </trkpt>
      <trkpt lat="48.85165" lon="-0.3405">
        <ele>105.40000152588</ele>
        <time>2017-06-11T12:37:27.000Z</time>
      </trkpt>
      <trkpt lat="48.85165" lon="-0.3405">
        <ele>105.80000305176</ele>
        <time>2017-06-11T12:37:28.000Z</time>
      </trkpt>
      <trkpt lat="48.85166" lon="-0.3405">
        <ele>106.19999694824</ele>
        <time>2017-06-11T12:37:29.000Z</time>
      </trkpt>
      <trkpt lat="48.85173" lon="-0.34047">
        <ele>106.19999694824</ele>
        <time>2017-06-11T12:37:33.000Z</time>
      </trkpt>
      <trkpt lat="48.85184" lon="-0.34043">
        <ele>106.19999694824</ele>
        <time>2017-06-11T12:37:39.000Z</time>
      </trkpt>
      <trkpt lat="48.85195" lon="-0.34038">
        <ele>106.59999847412</ele>
        <time>2017-06-11T12:37:44.000Z</time>
      </trkpt>
      <trkpt lat="48.85197" lon="-0.34037">
        <ele>107.40000152588</ele>
        <time>2017-06-11T12:37:45.000Z</time>
      </trkpt>
      <trkpt lat="48.85199" lon="-0.34036">
        <ele>108</ele>
        <time>2017-06-11T12:37:46.000Z</time>
      </trkpt>
      <trkpt lat="48.85202" lon="-0.34035">
        <ele>108.40000152588</ele>
        <time>2017-06-11T12:37:47.000Z</time>
      </trkpt>
      <trkpt lat="48.85208" lon="-0.34032">
        <ele>108.80000305176</ele>
        <time>2017-06-11T12:37:50.000Z</time>
      </trkpt>
      <trkpt lat="48.8521" lon="-0.34031">
        <ele>109.19999694824</ele>
        <time>2017-06-11T12:37:51.000Z</time>
      </trkpt>
      <trkpt lat="48.85212" lon="-0.34029">
        <ele>109.59999847412</ele>
        <time>2017-06-11T12:37:52.000Z</time>
      </trkpt>
      <trkpt lat="48.85214" lon="-0.34027">
        <ele>110</ele>
        <time>2017-06-11T12:37:53.000Z</time>
      </trkpt>
      <trkpt lat="48.85216" lon="-0.34026">
        <ele>110.40000152588</ele>
        <time>2017-06-11T12:37:54.000Z</time>
      </trkpt>
      <trkpt lat="48.85224" lon="-0.34021">
        <ele>110.80000305176</ele>
        <time>2017-06-11T12:37:58.000Z</time>
      </trkpt>
      <trkpt lat="48.85226" lon="-0.3402">
        <ele>111.19999694824</ele>
        <time>2017-06-11T12:37:59.000Z</time>
      </trkpt>
      <trkpt lat="48.85228" lon="-0.34019">
        <ele>111.59999847412</ele>
        <time>2017-06-11T12:38:00.000Z</time>
      </trkpt>
      <trkpt lat="48.8523" lon="-0.34017">
        <ele>112.19999694824</ele>
        <time>2017-06-11T12:38:01.000Z</time>
      </trkpt>
      <trkpt lat="48.85231" lon="-0.34016">
        <ele>112.59999847412</ele>
        <time>2017-06-11T12:38:02.000Z</time>
      </trkpt>
      <trkpt lat="48.85238" lon="-0.3401">
        <ele>112.59999847412</ele>
        <time>2017-06-11T12:38:06.000Z</time>
      </trkpt>
      <trkpt lat="48.85244" lon="-0.34005">
        <ele>113</ele>
        <time>2017-06-11T12:38:09.000Z</time>
      </trkpt>
      <trkpt lat="48.85246" lon="-0.34004">
        <ele>113.80000305176</ele>
        <time>2017-06-11T12:38:10.000Z</time>
      </trkpt>
      <trkpt lat="48.85247" lon="-0.34003">
        <ele>114.19999694824</ele>
        <time>2017-06-11T12:38:11.000Z</time>
      </trkpt>
      <trkpt lat="48.85249" lon="-0.34002">
        <ele>114.59999847412</ele>
        <time>2017-06-11T12:38:12.000Z</time>
      </trkpt>
      <trkpt lat="48.85252" lon="-0.33998">
        <ele>114.59999847412</ele>
        <time>2017-06-11T12:38:14.000Z</time>
      </trkpt>
      <trkpt lat="48.85259" lon="-0.33987">
        <ele>114.59999847412</ele>
        <time>2017-06-11T12:38:20.000Z</time>
      </trkpt>
      <trkpt lat="48.8526" lon="-0.33985">
        <ele>115</ele>
        <time>2017-06-11T12:38:21.000Z</time>
      </trkpt>
      <trkpt lat="48.85262" lon="-0.33983">
        <ele>115.40000152588</ele>
        <time>2017-06-11T12:38:22.000Z</time>
      </trkpt>
      <trkpt lat="48.85263" lon="-0.33981">
        <ele>115.80000305176</ele>
        <time>2017-06-11T12:38:23.000Z</time>
      </trkpt>
      <trkpt lat="48.85264" lon="-0.33979">
        <ele>116.19999694824</ele>
        <time>2017-06-11T12:38:24.000Z</time>
      </trkpt>
      <trkpt lat="48.85266" lon="-0.33976">
        <ele>116.59999847412</ele>
        <time>2017-06-11T12:38:25.000Z</time>
      </trkpt>
      <trkpt lat="48.85267" lon="-0.33974">
        <ele>116.59999847412</ele>
        <time>2017-06-11T12:38:26.000Z</time>
      </trkpt>
      <trkpt lat="48.85275" lon="-0.33955">
        <ele>117.19999694824</ele>
        <time>2017-06-11T12:38:32.000Z</time>
      </trkpt>
      <trkpt lat="48.85276" lon="-0.33952">
        <ele>117.59999847412</ele>
        <time>2017-06-11T12:38:33.000Z</time>
      </trkpt>
      <trkpt lat="48.85277" lon="-0.33949">
        <ele>118.40000152588</ele>
        <time>2017-06-11T12:38:34.000Z</time>
      </trkpt>
      <trkpt lat="48.85278" lon="-0.33947">
        <ele>118.80000305176</ele>
        <time>2017-06-11T12:38:35.000Z</time>
      </trkpt>
      <trkpt lat="48.85281" lon="-0.3393">
        <ele>118.80000305176</ele>
        <time>2017-06-11T12:38:39.000Z</time>
      </trkpt>
      <trkpt lat="48.8529" lon="-0.33884">
        <ele>118.80000305176</ele>
        <time>2017-06-11T12:38:48.000Z</time>
      </trkpt>
      <trkpt lat="48.85299" lon="-0.33867">
        <ele>118.80000305176</ele>
        <time>2017-06-11T12:38:53.000Z</time>
      </trkpt>
      <trkpt lat="48.85314" lon="-0.33862">
        <ele>118.80000305176</ele>
        <time>2017-06-11T12:38:58.000Z</time>
      </trkpt>
      <trkpt lat="48.85336" lon="-0.33862">
        <ele>119.19999694824</ele>
        <time>2017-06-11T12:39:03.000Z</time>
      </trkpt>
      <trkpt lat="48.8534" lon="-0.33862">
        <ele>119.59999847412</ele>
        <time>2017-06-11T12:39:04.000Z</time>
      </trkpt>
      <trkpt lat="48.85343" lon="-0.33862">
        <ele>120</ele>
        <time>2017-06-11T12:39:05.000Z</time>
      </trkpt>
      <trkpt lat="48.85346" lon="-0.33861">
        <ele>120.59999847412</ele>
        <time>2017-06-11T12:39:06.000Z</time>
      </trkpt>
      <trkpt lat="48.85349" lon="-0.3386">
        <ele>121</ele>
        <time>2017-06-11T12:39:07.000Z</time>
      </trkpt>
      <trkpt lat="48.85352" lon="-0.33859">
        <ele>121</ele>
        <time>2017-06-11T12:39:08.000Z</time>
      </trkpt>
      <trkpt lat="48.85375" lon="-0.33851">
        <ele>121</ele>
        <time>2017-06-11T12:39:16.000Z</time>
      </trkpt>
      <trkpt lat="48.85386" lon="-0.33846">
        <ele>121.40000152588</ele>
        <time>2017-06-11T12:39:20.000Z</time>
      </trkpt>
      <trkpt lat="48.85389" lon="-0.33844">
        <ele>121.80000305176</ele>
        <time>2017-06-11T12:39:21.000Z</time>
      </trkpt>
      <trkpt lat="48.85392" lon="-0.33841">
        <ele>122.19999694824</ele>
        <time>2017-06-11T12:39:22.000Z</time>
      </trkpt>
      <trkpt lat="48.85394" lon="-0.33839">
        <ele>122.59999847412</ele>
        <time>2017-06-11T12:39:23.000Z</time>
      </trkpt>
      <trkpt lat="48.85396" lon="-0.33836">
        <ele>123</ele>
        <time>2017-06-11T12:39:24.000Z</time>
      </trkpt>
      <trkpt lat="48.85403" lon="-0.33818">
        <ele>123</ele>
        <time>2017-06-11T12:39:29.000Z</time>
      </trkpt>
      <trkpt lat="48.85409" lon="-0.33798">
        <ele>123.40000152588</ele>
        <time>2017-06-11T12:39:35.000Z</time>
      </trkpt>
      <trkpt lat="48.8541" lon="-0.33796">
        <ele>123.80000305176</ele>
        <time>2017-06-11T12:39:36.000Z</time>
      </trkpt>
      <trkpt lat="48.8541" lon="-0.33793">
        <ele>124.19999694824</ele>
        <time>2017-06-11T12:39:37.000Z</time>
      </trkpt>
      <trkpt lat="48.85411" lon="-0.33791">
        <ele>124.59999847412</ele>
        <time>2017-06-11T12:39:38.000Z</time>
      </trkpt>
      <trkpt lat="48.85411" lon="-0.33789">
        <ele>125</ele>
        <time>2017-06-11T12:39:39.000Z</time>
      </trkpt>
      <trkpt lat="48.85413" lon="-0.33782">
        <ele>125</ele>
        <time>2017-06-11T12:39:42.000Z</time>
      </trkpt>
      <trkpt lat="48.85419" lon="-0.33766">
        <ele>125.59999847412</ele>
        <time>2017-06-11T12:39:49.000Z</time>
      </trkpt>
      <trkpt lat="48.8542" lon="-0.33764">
        <ele>126</ele>
        <time>2017-06-11T12:39:50.000Z</time>
      </trkpt>
      <trkpt lat="48.85421" lon="-0.33761">
        <ele>126.40000152588</ele>
        <time>2017-06-11T12:39:51.000Z</time>
      </trkpt>
      <trkpt lat="48.85422" lon="-0.33758">
        <ele>126.80000305176</ele>
        <time>2017-06-11T12:39:52.000Z</time>
      </trkpt>
      <trkpt lat="48.85423" lon="-0.33756">
        <ele>127.40000152588</ele>
        <time>2017-06-11T12:39:53.000Z</time>
      </trkpt>
      <trkpt lat="48.85427" lon="-0.33746">
        <ele>127.40000152588</ele>
        <time>2017-06-11T12:39:58.000Z</time>
      </trkpt>
      <trkpt lat="48.85434" lon="-0.33731">
        <ele>127.80000305176</ele>
        <time>2017-06-11T12:40:05.000Z</time>
      </trkpt>
      <trkpt lat="48.85435" lon="-0.33729">
        <ele>128.19999694824</ele>
        <time>2017-06-11T12:40:06.000Z</time>
      </trkpt>
      <trkpt lat="48.85436" lon="-0.33727">
        <ele>128.60000610352</ele>
        <time>2017-06-11T12:40:07.000Z</time>
      </trkpt>
      <trkpt lat="48.85438" lon="-0.33724">
        <ele>129</ele>
        <time>2017-06-11T12:40:08.000Z</time>
      </trkpt>
      <trkpt lat="48.85439" lon="-0.33722">
        <ele>129.39999389648</ele>
        <time>2017-06-11T12:40:09.000Z</time>
      </trkpt>
      <trkpt lat="48.85449" lon="-0.33711">
        <ele>129.39999389648</ele>
        <time>2017-06-11T12:40:14.000Z</time>
      </trkpt>
      <trkpt lat="48.85453" lon="-0.33709">
        <ele>129.80000305176</ele>
        <time>2017-06-11T12:40:16.000Z</time>
      </trkpt>
      <trkpt lat="48.85455" lon="-0.33707">
        <ele>130.19999694824</ele>
        <time>2017-06-11T12:40:17.000Z</time>
      </trkpt>
      <trkpt lat="48.85457" lon="-0.33706">
        <ele>130.60000610352</ele>
        <time>2017-06-11T12:40:18.000Z</time>
      </trkpt>
      <trkpt lat="48.85458" lon="-0.33705">
        <ele>131</ele>
        <time>2017-06-11T12:40:19.000Z</time>
      </trkpt>
      <trkpt lat="48.8546" lon="-0.33703">
        <ele>131.39999389648</ele>
        <time>2017-06-11T12:40:20.000Z</time>
      </trkpt>
      <trkpt lat="48.85467" lon="-0.33696">
        <ele>131.80000305176</ele>
        <time>2017-06-11T12:40:26.000Z</time>
      </trkpt>
      <trkpt lat="48.85468" lon="-0.33695">
        <ele>132.19999694824</ele>
        <time>2017-06-11T12:40:27.000Z</time>
      </trkpt>
      <trkpt lat="48.85471" lon="-0.33693">
        <ele>132.80000305176</ele>
        <time>2017-06-11T12:40:28.000Z</time>
      </trkpt>
      <trkpt lat="48.85472" lon="-0.33691">
        <ele>133.19999694824</ele>
        <time>2017-06-11T12:40:29.000Z</time>
      </trkpt>
      <trkpt lat="48.85474" lon="-0.33689">
        <ele>133.60000610352</ele>
        <time>2017-06-11T12:40:30.000Z</time>
      </trkpt>
      <trkpt lat="48.85476" lon="-0.33687">
        <ele>133.60000610352</ele>
        <time>2017-06-11T12:40:31.000Z</time>
      </trkpt>
      <trkpt lat="48.85481" lon="-0.33683">
        <ele>133.60000610352</ele>
        <time>2017-06-11T12:40:34.000Z</time>
      </trkpt>
      <trkpt lat="48.85485" lon="-0.33682">
        <ele>133.60000610352</ele>
        <time>2017-06-11T12:40:36.000Z</time>
      </trkpt>
      <trkpt lat="48.85493" lon="-0.33679">
        <ele>134</ele>
        <time>2017-06-11T12:40:40.000Z</time>
      </trkpt>
      <trkpt lat="48.85495" lon="-0.33677">
        <ele>134.39999389648</ele>
        <time>2017-06-11T12:40:41.000Z</time>
      </trkpt>
      <trkpt lat="48.85498" lon="-0.33676">
        <ele>134.80000305176</ele>
        <time>2017-06-11T12:40:42.000Z</time>
      </trkpt>
      <trkpt lat="48.85501" lon="-0.33675">
        <ele>135.19999694824</ele>
        <time>2017-06-11T12:40:43.000Z</time>
      </trkpt>
      <trkpt lat="48.85503" lon="-0.33674">
        <ele>135.60000610352</ele>
        <time>2017-06-11T12:40:44.000Z</time>
      </trkpt>
      <trkpt lat="48.85518" lon="-0.33667">
        <ele>136</ele>
        <time>2017-06-11T12:40:51.000Z</time>
      </trkpt>
      <trkpt lat="48.8552" lon="-0.33666">
        <ele>136.39999389648</ele>
        <time>2017-06-11T12:40:52.000Z</time>
      </trkpt>
      <trkpt lat="48.85522" lon="-0.33664">
        <ele>136.80000305176</ele>
        <time>2017-06-11T12:40:53.000Z</time>
      </trkpt>
      <trkpt lat="48.85524" lon="-0.33663">
        <ele>137.19999694824</ele>
        <time>2017-06-11T12:40:54.000Z</time>
      </trkpt>
      <trkpt lat="48.85527" lon="-0.33663">
        <ele>137.60000610352</ele>
        <time>2017-06-11T12:40:55.000Z</time>
      </trkpt>
      <trkpt lat="48.85533" lon="-0.3366">
        <ele>137.60000610352</ele>
        <time>2017-06-11T12:40:58.000Z</time>
      </trkpt>
      <trkpt lat="48.85542" lon="-0.33655">
        <ele>138.39999389648</ele>
        <time>2017-06-11T12:41:03.000Z</time>
      </trkpt>
      <trkpt lat="48.85544" lon="-0.33654">
        <ele>138.80000305176</ele>
        <time>2017-06-11T12:41:04.000Z</time>
      </trkpt>
      <trkpt lat="48.85546" lon="-0.33653">
        <ele>139.19999694824</ele>
        <time>2017-06-11T12:41:05.000Z</time>
      </trkpt>
      <trkpt lat="48.85547" lon="-0.33653">
        <ele>139.60000610352</ele>
        <time>2017-06-11T12:41:06.000Z</time>
      </trkpt>
      <trkpt lat="48.8556" lon="-0.33646">
        <ele>139.60000610352</ele>
        <time>2017-06-11T12:41:13.000Z</time>
      </trkpt>
      <trkpt lat="48.85566" lon="-0.33643">
        <ele>140</ele>
        <time>2017-06-11T12:41:16.000Z</time>
      </trkpt>
      <trkpt lat="48.85568" lon="-0.33642">
        <ele>140.39999389648</ele>
        <time>2017-06-11T12:41:17.000Z</time>
      </trkpt>
      <trkpt lat="48.85571" lon="-0.3364">
        <ele>141</ele>
        <time>2017-06-11T12:41:18.000Z</time>
      </trkpt>
      <trkpt lat="48.85573" lon="-0.33639">
        <ele>141.39999389648</ele>
        <time>2017-06-11T12:41:19.000Z</time>
      </trkpt>
      <trkpt lat="48.85575" lon="-0.33638">
        <ele>141.80000305176</ele>
        <time>2017-06-11T12:41:20.000Z</time>
      </trkpt>
      <trkpt lat="48.85577" lon="-0.33638">
        <ele>141.80000305176</ele>
        <time>2017-06-11T12:41:21.000Z</time>
      </trkpt>
      <trkpt lat="48.85586" lon="-0.33637">
        <ele>141.80000305176</ele>
        <time>2017-06-11T12:41:26.000Z</time>
      </trkpt>
      <trkpt lat="48.85588" lon="-0.33636">
        <ele>142.60000610352</ele>
        <time>2017-06-11T12:41:27.000Z</time>
      </trkpt>
      <trkpt lat="48.8559" lon="-0.33635">
        <ele>143</ele>
        <time>2017-06-11T12:41:28.000Z</time>
      </trkpt>
      <trkpt lat="48.85592" lon="-0.33633">
        <ele>143.39999389648</ele>
        <time>2017-06-11T12:41:29.000Z</time>
      </trkpt>
      <trkpt lat="48.85595" lon="-0.33632">
        <ele>144</ele>
        <time>2017-06-11T12:41:30.000Z</time>
      </trkpt>
      <trkpt lat="48.856" lon="-0.33629">
        <ele>144</ele>
        <time>2017-06-11T12:41:32.000Z</time>
      </trkpt>
      <trkpt lat="48.85614" lon="-0.33617">
        <ele>144</ele>
        <time>2017-06-11T12:41:38.000Z</time>
      </trkpt>
      <trkpt lat="48.85636" lon="-0.33601">
        <ele>144</ele>
        <time>2017-06-11T12:41:45.000Z</time>
      </trkpt>
      <trkpt lat="48.85639" lon="-0.33598">
        <ele>144.39999389648</ele>
        <time>2017-06-11T12:41:46.000Z</time>
      </trkpt>
      <trkpt lat="48.85642" lon="-0.33596">
        <ele>144.80000305176</ele>
        <time>2017-06-11T12:41:47.000Z</time>
      </trkpt>
      <trkpt lat="48.85645" lon="-0.33594">
        <ele>145.19999694824</ele>
        <time>2017-06-11T12:41:48.000Z</time>
      </trkpt>
      <trkpt lat="48.85648" lon="-0.33592">
        <ele>145.60000610352</ele>
        <time>2017-06-11T12:41:49.000Z</time>
      </trkpt>
      <trkpt lat="48.85651" lon="-0.3359">
        <ele>146</ele>
        <time>2017-06-11T12:41:50.000Z</time>
      </trkpt>
      <trkpt lat="48.85663" lon="-0.33576">
        <ele>146</ele>
        <time>2017-06-11T12:41:56.000Z</time>
      </trkpt>
      <trkpt lat="48.85674" lon="-0.33563">
        <ele>146.39999389648</ele>
        <time>2017-06-11T12:42:00.000Z</time>
      </trkpt>
      <trkpt lat="48.85676" lon="-0.3356">
        <ele>146.80000305176</ele>
        <time>2017-06-11T12:42:01.000Z</time>
      </trkpt>
      <trkpt lat="48.85678" lon="-0.33558">
        <ele>147.19999694824</ele>
        <time>2017-06-11T12:42:02.000Z</time>
      </trkpt>
      <trkpt lat="48.8568" lon="-0.33555">
        <ele>147.60000610352</ele>
        <time>2017-06-11T12:42:03.000Z</time>
      </trkpt>
      <trkpt lat="48.85682" lon="-0.33552">
        <ele>148</ele>
        <time>2017-06-11T12:42:04.000Z</time>
      </trkpt>
      <trkpt lat="48.85694" lon="-0.33534">
        <ele>148</ele>
        <time>2017-06-11T12:42:09.000Z</time>
      </trkpt>
      <trkpt lat="48.85717" lon="-0.33502">
        <ele>148</ele>
        <time>2017-06-11T12:42:18.000Z</time>
      </trkpt>
      <trkpt lat="48.85734" lon="-0.3348">
        <ele>148</ele>
        <time>2017-06-11T12:42:25.000Z</time>
      </trkpt>
      <trkpt lat="48.85749" lon="-0.3346">
        <ele>148</ele>
        <time>2017-06-11T12:42:31.000Z</time>
      </trkpt>
      <trkpt lat="48.85752" lon="-0.33457">
        <ele>148.39999389648</ele>
        <time>2017-06-11T12:42:32.000Z</time>
      </trkpt>
      <trkpt lat="48.85754" lon="-0.33455">
        <ele>148.80000305176</ele>
        <time>2017-06-11T12:42:33.000Z</time>
      </trkpt>
      <trkpt lat="48.85756" lon="-0.33452">
        <ele>149.19999694824</ele>
        <time>2017-06-11T12:42:34.000Z</time>
      </trkpt>
      <trkpt lat="48.85758" lon="-0.3345">
        <ele>149.60000610352</ele>
        <time>2017-06-11T12:42:35.000Z</time>
      </trkpt>
      <trkpt lat="48.8576" lon="-0.33447">
        <ele>150</ele>
        <time>2017-06-11T12:42:36.000Z</time>
      </trkpt>
      <trkpt lat="48.85765" lon="-0.33442">
        <ele>150</ele>
        <time>2017-06-11T12:42:38.000Z</time>
      </trkpt>
      <trkpt lat="48.8578" lon="-0.33436">
        <ele>150</ele>
        <time>2017-06-11T12:42:44.000Z</time>
      </trkpt>
      <trkpt lat="48.85782" lon="-0.33436">
        <ele>150</ele>
        <time>2017-06-11T12:42:50.000Z</time>
      </trkpt>
      <trkpt lat="48.85786" lon="-0.33436">
        <ele>150</ele>
        <time>2017-06-11T12:42:56.000Z</time>
      </trkpt>
      <trkpt lat="48.85786" lon="-0.33436">
        <ele>150</ele>
        <time>2017-06-11T12:43:00.000Z</time>
      </trkpt>
      <trkpt lat="48.85787" lon="-0.33437">
        <ele>150</ele>
        <time>2017-06-11T12:51:37.000Z</time>
      </trkpt>
      <trkpt lat="48.85787" lon="-0.33437">
        <ele>150</ele>
        <time>2017-06-11T12:51:43.000Z</time>
      </trkpt>
      <trkpt lat="48.85787" lon="-0.33437">
        <ele>150</ele>
        <time>2017-06-11T12:51:58.000Z</time>
      </trkpt>
      <trkpt lat="48.85787" lon="-0.33437">
        <ele>150</ele>
        <time>2017-06-11T12:52:13.000Z</time>
      </trkpt>
      <trkpt lat="48.85787" lon="-0.33437">
        <ele>150</ele>
        <time>2017-06-11T12:52:14.000Z</time>
      </trkpt>
      <trkpt lat="48.85787" lon="-0.33437">
        <ele>150</ele>
        <time>2017-06-11T12:52:17.000Z</time>
      </trkpt>
      <trkpt lat="48.85786" lon="-0.33444">
        <ele>150</ele>
        <time>2017-06-11T12:52:22.000Z</time>
      </trkpt>
      <trkpt lat="48.85787" lon="-0.33446">
        <ele>150</ele>
        <time>2017-06-11T12:52:23.000Z</time>
      </trkpt>
      <trkpt lat="48.85791" lon="-0.33453">
        <ele>150</ele>
        <time>2017-06-11T12:52:26.000Z</time>
      </trkpt>
      <trkpt lat="48.85792" lon="-0.33456">
        <ele>150.39999389648</ele>
        <time>2017-06-11T12:52:27.000Z</time>
      </trkpt>
      <trkpt lat="48.85793" lon="-0.33458">
        <ele>150.80000305176</ele>
        <time>2017-06-11T12:52:28.000Z</time>
      </trkpt>
      <trkpt lat="48.85794" lon="-0.3346">
        <ele>151.19999694824</ele>
        <time>2017-06-11T12:52:29.000Z</time>
      </trkpt>
      <trkpt lat="48.85795" lon="-0.33462">
        <ele>151.60000610352</ele>
        <time>2017-06-11T12:52:30.000Z</time>
      </trkpt>
      <trkpt lat="48.85796" lon="-0.33464">
        <ele>152</ele>
        <time>2017-06-11T12:52:31.000Z</time>
      </trkpt>
      <trkpt lat="48.85797" lon="-0.33466">
        <ele>152</ele>
        <time>2017-06-11T12:52:32.000Z</time>
      </trkpt>
      <trkpt lat="48.85803" lon="-0.33477">
        <ele>152.60000610352</ele>
        <time>2017-06-11T12:52:38.000Z</time>
      </trkpt>
      <trkpt lat="48.85804" lon="-0.33479">
        <ele>153</ele>
        <time>2017-06-11T12:52:39.000Z</time>
      </trkpt>
      <trkpt lat="48.85805" lon="-0.33481">
        <ele>153.39999389648</ele>
        <time>2017-06-11T12:52:40.000Z</time>
      </trkpt>
      <trkpt lat="48.85806" lon="-0.33482">
        <ele>153.80000305176</ele>
        <time>2017-06-11T12:52:41.000Z</time>
      </trkpt>
      <trkpt lat="48.85807" lon="-0.33484">
        <ele>154.19999694824</ele>
        <time>2017-06-11T12:52:42.000Z</time>
      </trkpt>
      <trkpt lat="48.8581" lon="-0.3349">
        <ele>154.19999694824</ele>
        <time>2017-06-11T12:52:47.000Z</time>
      </trkpt>
      <trkpt lat="48.85814" lon="-0.33496">
        <ele>154.60000610352</ele>
        <time>2017-06-11T12:52:50.000Z</time>
      </trkpt>
      <trkpt lat="48.85815" lon="-0.33498">
        <ele>155</ele>
        <time>2017-06-11T12:52:51.000Z</time>
      </trkpt>
      <trkpt lat="48.85816" lon="-0.335">
        <ele>155.39999389648</ele>
        <time>2017-06-11T12:52:52.000Z</time>
      </trkpt>
      <trkpt lat="48.85817" lon="-0.33502">
        <ele>155.80000305176</ele>
        <time>2017-06-11T12:52:53.000Z</time>
      </trkpt>
      <trkpt lat="48.85818" lon="-0.33503">
        <ele>156.19999694824</ele>
        <time>2017-06-11T12:52:54.000Z</time>
      </trkpt>
      <trkpt lat="48.85828" lon="-0.33519">
        <ele>156.60000610352</ele>
        <time>2017-06-11T12:53:01.000Z</time>
      </trkpt>
      <trkpt lat="48.8583" lon="-0.33521">
        <ele>157</ele>
        <time>2017-06-11T12:53:02.000Z</time>
      </trkpt>
      <trkpt lat="48.85831" lon="-0.33523">
        <ele>157.39999389648</ele>
        <time>2017-06-11T12:53:03.000Z</time>
      </trkpt>
      <trkpt lat="48.85833" lon="-0.33525">
        <ele>157.80000305176</ele>
        <time>2017-06-11T12:53:04.000Z</time>
      </trkpt>
      <trkpt lat="48.85834" lon="-0.33528">
        <ele>158.19999694824</ele>
        <time>2017-06-11T12:53:05.000Z</time>
      </trkpt>
      <trkpt lat="48.85837" lon="-0.33534">
        <ele>158.19999694824</ele>
        <time>2017-06-11T12:53:08.000Z</time>
      </trkpt>
      <trkpt lat="48.85845" lon="-0.33547">
        <ele>158.60000610352</ele>
        <time>2017-06-11T12:53:14.000Z</time>
      </trkpt>
      <trkpt lat="48.85846" lon="-0.33549">
        <ele>159</ele>
        <time>2017-06-11T12:53:15.000Z</time>
      </trkpt>
      <trkpt lat="48.85847" lon="-0.3355">
        <ele>159.39999389648</ele>
        <time>2017-06-11T12:53:16.000Z</time>
      </trkpt>
      <trkpt lat="48.85848" lon="-0.33552">
        <ele>159.80000305176</ele>
        <time>2017-06-11T12:53:17.000Z</time>
      </trkpt>
      <trkpt lat="48.8585" lon="-0.33553">
        <ele>160.39999389648</ele>
        <time>2017-06-11T12:53:18.000Z</time>
      </trkpt>
      <trkpt lat="48.85854" lon="-0.3356">
        <ele>160.39999389648</ele>
        <time>2017-06-11T12:53:22.000Z</time>
      </trkpt>
      <trkpt lat="48.85857" lon="-0.33565">
        <ele>160.80000305176</ele>
        <time>2017-06-11T12:53:25.000Z</time>
      </trkpt>
      <trkpt lat="48.85858" lon="-0.33566">
        <ele>161.19999694824</ele>
        <time>2017-06-11T12:53:26.000Z</time>
      </trkpt>
      <trkpt lat="48.85859" lon="-0.33568">
        <ele>161.60000610352</ele>
        <time>2017-06-11T12:53:27.000Z</time>
      </trkpt>
      <trkpt lat="48.8586" lon="-0.33569">
        <ele>162</ele>
        <time>2017-06-11T12:53:28.000Z</time>
      </trkpt>
      <trkpt lat="48.85861" lon="-0.3357">
        <ele>162.39999389648</ele>
        <time>2017-06-11T12:53:29.000Z</time>
      </trkpt>
      <trkpt lat="48.85868" lon="-0.33583">
        <ele>162.39999389648</ele>
        <time>2017-06-11T12:53:36.000Z</time>
      </trkpt>
      <trkpt lat="48.85869" lon="-0.33584">
        <ele>162.80000305176</ele>
        <time>2017-06-11T12:53:37.000Z</time>
      </trkpt>
      <trkpt lat="48.8587" lon="-0.33586">
        <ele>163.19999694824</ele>
        <time>2017-06-11T12:53:38.000Z</time>
      </trkpt>
      <trkpt lat="48.85871" lon="-0.33587">
        <ele>163.60000610352</ele>
        <time>2017-06-11T12:53:39.000Z</time>
      </trkpt>
      <trkpt lat="48.85872" lon="-0.33588">
        <ele>164</ele>
        <time>2017-06-11T12:53:40.000Z</time>
      </trkpt>
      <trkpt lat="48.85873" lon="-0.3359">
        <ele>164.39999389648</ele>
        <time>2017-06-11T12:53:41.000Z</time>
      </trkpt>
      <trkpt lat="48.85875" lon="-0.33595">
        <ele>164.39999389648</ele>
        <time>2017-06-11T12:53:45.000Z</time>
      </trkpt>
      <trkpt lat="48.85882" lon="-0.33606">
        <ele>164.80000305176</ele>
        <time>2017-06-11T12:53:51.000Z</time>
      </trkpt>
      <trkpt lat="48.85883" lon="-0.33607">
        <ele>165.19999694824</ele>
        <time>2017-06-11T12:53:52.000Z</time>
      </trkpt>
      <trkpt lat="48.85884" lon="-0.33609">
        <ele>165.60000610352</ele>
        <time>2017-06-11T12:53:53.000Z</time>
      </trkpt>
      <trkpt lat="48.85885" lon="-0.3361">
        <ele>166</ele>
        <time>2017-06-11T12:53:54.000Z</time>
      </trkpt>
      <trkpt lat="48.85886" lon="-0.33612">
        <ele>166.60000610352</ele>
        <time>2017-06-11T12:53:55.000Z</time>
      </trkpt>
      <trkpt lat="48.85895" lon="-0.33627">
        <ele>166.60000610352</ele>
        <time>2017-06-11T12:54:00.000Z</time>
      </trkpt>
      <trkpt lat="48.85901" lon="-0.33638">
        <ele>167</ele>
        <time>2017-06-11T12:54:05.000Z</time>
      </trkpt>
      <trkpt lat="48.85903" lon="-0.33642">
        <ele>167.39999389648</ele>
        <time>2017-06-11T12:54:06.000Z</time>
      </trkpt>
      <trkpt lat="48.85905" lon="-0.33644">
        <ele>167.80000305176</ele>
        <time>2017-06-11T12:54:07.000Z</time>
      </trkpt>
      <trkpt lat="48.85907" lon="-0.33647">
        <ele>168.19999694824</ele>
        <time>2017-06-11T12:54:08.000Z</time>
      </trkpt>
      <trkpt lat="48.85909" lon="-0.3365">
        <ele>168.60000610352</ele>
        <time>2017-06-11T12:54:09.000Z</time>
      </trkpt>
      <trkpt lat="48.85917" lon="-0.33663">
        <ele>169</ele>
        <time>2017-06-11T12:54:14.000Z</time>
      </trkpt>
      <trkpt lat="48.85918" lon="-0.33665">
        <ele>169.60000610352</ele>
        <time>2017-06-11T12:54:15.000Z</time>
      </trkpt>
      <trkpt lat="48.8592" lon="-0.33668">
        <ele>170</ele>
        <time>2017-06-11T12:54:16.000Z</time>
      </trkpt>
      <trkpt lat="48.85922" lon="-0.33671">
        <ele>170.39999389648</ele>
        <time>2017-06-11T12:54:17.000Z</time>
      </trkpt>
      <trkpt lat="48.85924" lon="-0.33674">
        <ele>170.80000305176</ele>
        <time>2017-06-11T12:54:18.000Z</time>
      </trkpt>
      <trkpt lat="48.8593" lon="-0.33683">
        <ele>170.80000305176</ele>
        <time>2017-06-11T12:54:22.000Z</time>
      </trkpt>
      <trkpt lat="48.85936" lon="-0.3369">
        <ele>171.19999694824</ele>
        <time>2017-06-11T12:54:25.000Z</time>
      </trkpt>
      <trkpt lat="48.85937" lon="-0.33692">
        <ele>171.60000610352</ele>
        <time>2017-06-11T12:54:26.000Z</time>
      </trkpt>
      <trkpt lat="48.85938" lon="-0.33693">
        <ele>172</ele>
        <time>2017-06-11T12:54:27.000Z</time>
      </trkpt>
      <trkpt lat="48.85939" lon="-0.33695">
        <ele>172.39999389648</ele>
        <time>2017-06-11T12:54:28.000Z</time>
      </trkpt>
      <trkpt lat="48.8594" lon="-0.33696">
        <ele>172.80000305176</ele>
        <time>2017-06-11T12:54:29.000Z</time>
      </trkpt>
      <trkpt lat="48.85941" lon="-0.33698">
        <ele>172.80000305176</ele>
        <time>2017-06-11T12:54:30.000Z</time>
      </trkpt>
      <trkpt lat="48.85952" lon="-0.33712">
        <ele>172.80000305176</ele>
        <time>2017-06-11T12:54:37.000Z</time>
      </trkpt>
      <trkpt lat="48.85955" lon="-0.33716">
        <ele>173.19999694824</ele>
        <time>2017-06-11T12:54:39.000Z</time>
      </trkpt>
      <trkpt lat="48.85956" lon="-0.33718">
        <ele>173.80000305176</ele>
        <time>2017-06-11T12:54:40.000Z</time>
      </trkpt>
      <trkpt lat="48.85957" lon="-0.3372">
        <ele>174.19999694824</ele>
        <time>2017-06-11T12:54:41.000Z</time>
      </trkpt>
      <trkpt lat="48.85959" lon="-0.33723">
        <ele>174.60000610352</ele>
        <time>2017-06-11T12:54:42.000Z</time>
      </trkpt>
      <trkpt lat="48.85961" lon="-0.33725">
        <ele>175.19999694824</ele>
        <time>2017-06-11T12:54:43.000Z</time>
      </trkpt>
      <trkpt lat="48.85962" lon="-0.33728">
        <ele>175.19999694824</ele>
        <time>2017-06-11T12:54:44.000Z</time>
      </trkpt>
      <trkpt lat="48.85964" lon="-0.33731">
        <ele>175.19999694824</ele>
        <time>2017-06-11T12:54:45.000Z</time>
      </trkpt>
      <trkpt lat="48.85976" lon="-0.33753">
        <ele>175.19999694824</ele>
        <time>2017-06-11T12:54:52.000Z</time>
      </trkpt>
      <trkpt lat="48.85978" lon="-0.33756">
        <ele>175.60000610352</ele>
        <time>2017-06-11T12:54:53.000Z</time>
      </trkpt>
      <trkpt lat="48.8598" lon="-0.33758">
        <ele>176</ele>
        <time>2017-06-11T12:54:54.000Z</time>
      </trkpt>
      <trkpt lat="48.85982" lon="-0.33761">
        <ele>176.39999389648</ele>
        <time>2017-06-11T12:54:55.000Z</time>
      </trkpt>
      <trkpt lat="48.85983" lon="-0.33763">
        <ele>176.80000305176</ele>
        <time>2017-06-11T12:54:56.000Z</time>
      </trkpt>
      <trkpt lat="48.85985" lon="-0.33766">
        <ele>177.19999694824</ele>
        <time>2017-06-11T12:54:57.000Z</time>
      </trkpt>
      <trkpt lat="48.85998" lon="-0.33787">
        <ele>177.19999694824</ele>
        <time>2017-06-11T12:55:05.000Z</time>
      </trkpt>
      <trkpt lat="48.86003" lon="-0.33795">
        <ele>177.60000610352</ele>
        <time>2017-06-11T12:55:07.000Z</time>
      </trkpt>
      <trkpt lat="48.86005" lon="-0.33799">
        <ele>178</ele>
        <time>2017-06-11T12:55:08.000Z</time>
      </trkpt>
      <trkpt lat="48.86007" lon="-0.33802">
        <ele>178.39999389648</ele>
        <time>2017-06-11T12:55:09.000Z</time>
      </trkpt>
      <trkpt lat="48.8601" lon="-0.33806">
        <ele>178.80000305176</ele>
        <time>2017-06-11T12:55:10.000Z</time>
      </trkpt>
      <trkpt lat="48.86012" lon="-0.3381">
        <ele>179.19999694824</ele>
        <time>2017-06-11T12:55:11.000Z</time>
      </trkpt>
      <trkpt lat="48.86014" lon="-0.33813">
        <ele>179.19999694824</ele>
        <time>2017-06-11T12:55:12.000Z</time>
      </trkpt>
      <trkpt lat="48.86029" lon="-0.33841">
        <ele>179.19999694824</ele>
        <time>2017-06-11T12:55:18.000Z</time>
      </trkpt>
      <trkpt lat="48.86032" lon="-0.33845">
        <ele>179.80000305176</ele>
        <time>2017-06-11T12:55:19.000Z</time>
      </trkpt>
      <trkpt lat="48.86035" lon="-0.33849">
        <ele>180.19999694824</ele>
        <time>2017-06-11T12:55:20.000Z</time>
      </trkpt>
      <trkpt lat="48.86037" lon="-0.33853">
        <ele>180.60000610352</ele>
        <time>2017-06-11T12:55:21.000Z</time>
      </trkpt>
      <trkpt lat="48.8604" lon="-0.33857">
        <ele>181</ele>
        <time>2017-06-11T12:55:22.000Z</time>
      </trkpt>
      <trkpt lat="48.86042" lon="-0.33861">
        <ele>181.39999389648</ele>
        <time>2017-06-11T12:55:23.000Z</time>
      </trkpt>
      <trkpt lat="48.86046" lon="-0.33868">
        <ele>181.39999389648</ele>
        <time>2017-06-11T12:55:25.000Z</time>
      </trkpt>
      <trkpt lat="48.86059" lon="-0.33888">
        <ele>181.39999389648</ele>
        <time>2017-06-11T12:55:31.000Z</time>
      </trkpt>
      <trkpt lat="48.86063" lon="-0.33896">
        <ele>181.80000305176</ele>
        <time>2017-06-11T12:55:34.000Z</time>
      </trkpt>
      <trkpt lat="48.86065" lon="-0.33899">
        <ele>182.19999694824</ele>
        <time>2017-06-11T12:55:35.000Z</time>
      </trkpt>
      <trkpt lat="48.86067" lon="-0.33902">
        <ele>182.60000610352</ele>
        <time>2017-06-11T12:55:36.000Z</time>
      </trkpt>
      <trkpt lat="48.86068" lon="-0.33905">
        <ele>183</ele>
        <time>2017-06-11T12:55:37.000Z</time>
      </trkpt>
      <trkpt lat="48.8607" lon="-0.33908">
        <ele>183.60000610352</ele>
        <time>2017-06-11T12:55:38.000Z</time>
      </trkpt>
      <trkpt lat="48.86078" lon="-0.3392">
        <ele>183.60000610352</ele>
        <time>2017-06-11T12:55:44.000Z</time>
      </trkpt>
      <trkpt lat="48.86079" lon="-0.33921">
        <ele>183.60000610352</ele>
        <time>2017-06-11T12:55:46.000Z</time>
      </trkpt>
      <trkpt lat="48.86079" lon="-0.33921">
        <ele>183.60000610352</ele>
        <time>2017-06-11T12:55:51.000Z</time>
      </trkpt>
      <trkpt lat="48.86084" lon="-0.33925">
        <ele>183.60000610352</ele>
        <time>2017-06-11T12:55:58.000Z</time>
      </trkpt>
      <trkpt lat="48.86093" lon="-0.33937">
        <ele>184</ele>
        <time>2017-06-11T12:56:04.000Z</time>
      </trkpt>
      <trkpt lat="48.86094" lon="-0.33938">
        <ele>184.39999389648</ele>
        <time>2017-06-11T12:56:05.000Z</time>
      </trkpt>
      <trkpt lat="48.86095" lon="-0.33939">
        <ele>184.80000305176</ele>
        <time>2017-06-11T12:56:06.000Z</time>
      </trkpt>
      <trkpt lat="48.86096" lon="-0.33941">
        <ele>185.19999694824</ele>
        <time>2017-06-11T12:56:07.000Z</time>
      </trkpt>
      <trkpt lat="48.86096" lon="-0.33941">
        <ele>185.60000610352</ele>
        <time>2017-06-11T12:56:08.000Z</time>
      </trkpt>
      <trkpt lat="48.86096" lon="-0.33942">
        <ele>185.60000610352</ele>
        <time>2017-06-11T12:56:11.000Z</time>
      </trkpt>
      <trkpt lat="48.86096" lon="-0.33942">
        <ele>185.60000610352</ele>
        <time>2017-06-11T12:56:14.000Z</time>
      </trkpt>
      <trkpt lat="48.86097" lon="-0.33945">
        <ele>185.60000610352</ele>
        <time>2017-06-11T12:56:16.000Z</time>
      </trkpt>
      <trkpt lat="48.86102" lon="-0.33953">
        <ele>185.60000610352</ele>
        <time>2017-06-11T12:56:23.000Z</time>
      </trkpt>
      <trkpt lat="48.86104" lon="-0.33955">
        <ele>185.60000610352</ele>
        <time>2017-06-11T12:56:27.000Z</time>
      </trkpt>
      <trkpt lat="48.86105" lon="-0.33957">
        <ele>185.60000610352</ele>
        <time>2017-06-11T12:56:28.000Z</time>
      </trkpt>
      <trkpt lat="48.86114" lon="-0.3397">
        <ele>185.60000610352</ele>
        <time>2017-06-11T12:56:33.000Z</time>
      </trkpt>
      <trkpt lat="48.86127" lon="-0.33991">
        <ele>185.60000610352</ele>
        <time>2017-06-11T12:56:40.000Z</time>
      </trkpt>
      <trkpt lat="48.86135" lon="-0.34004">
        <ele>186</ele>
        <time>2017-06-11T12:56:44.000Z</time>
      </trkpt>
      <trkpt lat="48.86137" lon="-0.34007">
        <ele>186.39999389648</ele>
        <time>2017-06-11T12:56:45.000Z</time>
      </trkpt>
      <trkpt lat="48.86139" lon="-0.34009">
        <ele>186.80000305176</ele>
        <time>2017-06-11T12:56:46.000Z</time>
      </trkpt>
      <trkpt lat="48.8614" lon="-0.34012">
        <ele>187.19999694824</ele>
        <time>2017-06-11T12:56:47.000Z</time>
      </trkpt>
      <trkpt lat="48.86142" lon="-0.34014">
        <ele>187.60000610352</ele>
        <time>2017-06-11T12:56:48.000Z</time>
      </trkpt>
      <trkpt lat="48.86152" lon="-0.34031">
        <ele>187.60000610352</ele>
        <time>2017-06-11T12:56:54.000Z</time>
      </trkpt>
      <trkpt lat="48.86158" lon="-0.34043">
        <ele>188</ele>
        <time>2017-06-11T12:56:57.000Z</time>
      </trkpt>
      <trkpt lat="48.86159" lon="-0.34048">
        <ele>188.39999389648</ele>
        <time>2017-06-11T12:56:58.000Z</time>
      </trkpt>
      <trkpt lat="48.86161" lon="-0.34051">
        <ele>189</ele>
        <time>2017-06-11T12:56:59.000Z</time>
      </trkpt>
      <trkpt lat="48.86162" lon="-0.34054">
        <ele>189.39999389648</ele>
        <time>2017-06-11T12:57:00.000Z</time>
      </trkpt>
      <trkpt lat="48.86164" lon="-0.34058">
        <ele>189.80000305176</ele>
        <time>2017-06-11T12:57:01.000Z</time>
      </trkpt>
      <trkpt lat="48.86172" lon="-0.34063">
        <ele>189.80000305176</ele>
        <time>2017-06-11T12:57:04.000Z</time>
      </trkpt>
      <trkpt lat="48.86174" lon="-0.34063">
        <ele>189.80000305176</ele>
        <time>2017-06-11T12:57:05.000Z</time>
      </trkpt>
      <trkpt lat="48.86182" lon="-0.3405">
        <ele>189.80000305176</ele>
        <time>2017-06-11T12:57:09.000Z</time>
      </trkpt>
      <trkpt lat="48.86193" lon="-0.34028">
        <ele>189.80000305176</ele>
        <time>2017-06-11T12:57:15.000Z</time>
      </trkpt>
      <trkpt lat="48.86203" lon="-0.34004">
        <ele>189.80000305176</ele>
        <time>2017-06-11T12:57:20.000Z</time>
      </trkpt>
      <trkpt lat="48.86218" lon="-0.33982">
        <ele>189.80000305176</ele>
        <time>2017-06-11T12:57:26.000Z</time>
      </trkpt>
      <trkpt lat="48.86222" lon="-0.33979">
        <ele>190.19999694824</ele>
        <time>2017-06-11T12:57:27.000Z</time>
      </trkpt>
      <trkpt lat="48.86225" lon="-0.33976">
        <ele>190.60000610352</ele>
        <time>2017-06-11T12:57:28.000Z</time>
      </trkpt>
      <trkpt lat="48.86228" lon="-0.33973">
        <ele>191.39999389648</ele>
        <time>2017-06-11T12:57:29.000Z</time>
      </trkpt>
      <trkpt lat="48.86231" lon="-0.3397">
        <ele>191.80000305176</ele>
        <time>2017-06-11T12:57:30.000Z</time>
      </trkpt>
      <trkpt lat="48.86245" lon="-0.33955">
        <ele>191.80000305176</ele>
        <time>2017-06-11T12:57:35.000Z</time>
      </trkpt>
      <trkpt lat="48.86274" lon="-0.3393">
        <ele>191.80000305176</ele>
        <time>2017-06-11T12:57:44.000Z</time>
      </trkpt>
      <trkpt lat="48.86288" lon="-0.33914">
        <ele>191.80000305176</ele>
        <time>2017-06-11T12:57:50.000Z</time>
      </trkpt>
      <trkpt lat="48.86304" lon="-0.33897">
        <ele>192.39999389648</ele>
        <time>2017-06-11T12:57:56.000Z</time>
      </trkpt>
      <trkpt lat="48.86305" lon="-0.33895">
        <ele>192.80000305176</ele>
        <time>2017-06-11T12:57:57.000Z</time>
      </trkpt>
      <trkpt lat="48.86306" lon="-0.33892">
        <ele>193.19999694824</ele>
        <time>2017-06-11T12:57:58.000Z</time>
      </trkpt>
      <trkpt lat="48.86307" lon="-0.33889">
        <ele>193.60000610352</ele>
        <time>2017-06-11T12:57:59.000Z</time>
      </trkpt>
      <trkpt lat="48.86307" lon="-0.33887">
        <ele>194</ele>
        <time>2017-06-11T12:58:00.000Z</time>
      </trkpt>
      <trkpt lat="48.86307" lon="-0.33884">
        <ele>194</ele>
        <time>2017-06-11T12:58:01.000Z</time>
      </trkpt>
      <trkpt lat="48.86304" lon="-0.33861">
        <ele>194</ele>
        <time>2017-06-11T12:58:07.000Z</time>
      </trkpt>
      <trkpt lat="48.86299" lon="-0.33834">
        <ele>193.60000610352</ele>
        <time>2017-06-11T12:58:12.000Z</time>
      </trkpt>
      <trkpt lat="48.86298" lon="-0.33827">
        <ele>193.19999694824</ele>
        <time>2017-06-11T12:58:13.000Z</time>
      </trkpt>
      <trkpt lat="48.86297" lon="-0.33821">
        <ele>192.80000305176</ele>
        <time>2017-06-11T12:58:14.000Z</time>
      </trkpt>
      <trkpt lat="48.86295" lon="-0.33814">
        <ele>192.39999389648</ele>
        <time>2017-06-11T12:58:15.000Z</time>
      </trkpt>
      <trkpt lat="48.86294" lon="-0.33808">
        <ele>191.80000305176</ele>
        <time>2017-06-11T12:58:16.000Z</time>
      </trkpt>
      <trkpt lat="48.86293" lon="-0.33802">
        <ele>191.39999389648</ele>
        <time>2017-06-11T12:58:17.000Z</time>
      </trkpt>
      <trkpt lat="48.86293" lon="-0.33795">
        <ele>191</ele>
        <time>2017-06-11T12:58:18.000Z</time>
      </trkpt>
      <trkpt lat="48.86294" lon="-0.33788">
        <ele>190.19999694824</ele>
        <time>2017-06-11T12:58:19.000Z</time>
      </trkpt>
      <trkpt lat="48.86297" lon="-0.33782">
        <ele>189.80000305176</ele>
        <time>2017-06-11T12:58:20.000Z</time>
      </trkpt>
      <trkpt lat="48.863" lon="-0.33777">
        <ele>189.80000305176</ele>
        <time>2017-06-11T12:58:21.000Z</time>
      </trkpt>
      <trkpt lat="48.86314" lon="-0.33764">
        <ele>189.80000305176</ele>
        <time>2017-06-11T12:58:25.000Z</time>
      </trkpt>
      <trkpt lat="48.86316" lon="-0.33763">
        <ele>189.80000305176</ele>
        <time>2017-06-11T12:58:26.000Z</time>
      </trkpt>
      <trkpt lat="48.86322" lon="-0.33757">
        <ele>189.80000305176</ele>
        <time>2017-06-11T12:58:30.000Z</time>
      </trkpt>
      <trkpt lat="48.86329" lon="-0.3375">
        <ele>189.80000305176</ele>
        <time>2017-06-11T12:58:35.000Z</time>
      </trkpt>
      <trkpt lat="48.86336" lon="-0.33738">
        <ele>190.19999694824</ele>
        <time>2017-06-11T12:58:41.000Z</time>
      </trkpt>
      <trkpt lat="48.86337" lon="-0.33736">
        <ele>190.60000610352</ele>
        <time>2017-06-11T12:58:42.000Z</time>
      </trkpt>
      <trkpt lat="48.86339" lon="-0.33734">
        <ele>191.60000610352</ele>
        <time>2017-06-11T12:58:43.000Z</time>
      </trkpt>
      <trkpt lat="48.8634" lon="-0.33732">
        <ele>192</ele>
        <time>2017-06-11T12:58:44.000Z</time>
      </trkpt>
      <trkpt lat="48.86344" lon="-0.33724">
        <ele>192</ele>
        <time>2017-06-11T12:58:48.000Z</time>
      </trkpt>
      <trkpt lat="48.86345" lon="-0.3372">
        <ele>192.39999389648</ele>
        <time>2017-06-11T12:58:50.000Z</time>
      </trkpt>
      <trkpt lat="48.86346" lon="-0.33718">
        <ele>192.80000305176</ele>
        <time>2017-06-11T12:58:51.000Z</time>
      </trkpt>
      <trkpt lat="48.86347" lon="-0.33716">
        <ele>193.19999694824</ele>
        <time>2017-06-11T12:58:52.000Z</time>
      </trkpt>
      <trkpt lat="48.86348" lon="-0.33714">
        <ele>193.60000610352</ele>
        <time>2017-06-11T12:58:53.000Z</time>
      </trkpt>
      <trkpt lat="48.86349" lon="-0.33712">
        <ele>194</ele>
        <time>2017-06-11T12:58:54.000Z</time>
      </trkpt>
      <trkpt lat="48.8635" lon="-0.33711">
        <ele>194</ele>
        <time>2017-06-11T12:58:55.000Z</time>
      </trkpt>
      <trkpt lat="48.86352" lon="-0.33706">
        <ele>194.39999389648</ele>
        <time>2017-06-11T12:58:57.000Z</time>
      </trkpt>
      <trkpt lat="48.86353" lon="-0.33704">
        <ele>195</ele>
        <time>2017-06-11T12:58:58.000Z</time>
      </trkpt>
      <trkpt lat="48.86354" lon="-0.33702">
        <ele>195.39999389648</ele>
        <time>2017-06-11T12:58:59.000Z</time>
      </trkpt>
      <trkpt lat="48.86355" lon="-0.337">
        <ele>195.80000305176</ele>
        <time>2017-06-11T12:59:00.000Z</time>
      </trkpt>
      <trkpt lat="48.86355" lon="-0.33698">
        <ele>196.19999694824</ele>
        <time>2017-06-11T12:59:01.000Z</time>
      </trkpt>
      <trkpt lat="48.86355" lon="-0.33696">
        <ele>196.19999694824</ele>
        <time>2017-06-11T12:59:02.000Z</time>
      </trkpt>
      <trkpt lat="48.86356" lon="-0.33695">
        <ele>196.19999694824</ele>
        <time>2017-06-11T12:59:09.000Z</time>
      </trkpt>
      <trkpt lat="48.86354" lon="-0.33689">
        <ele>196.19999694824</ele>
        <time>2017-06-11T12:59:14.000Z</time>
      </trkpt>
      <trkpt lat="48.86352" lon="-0.33671">
        <ele>196.19999694824</ele>
        <time>2017-06-11T12:59:19.000Z</time>
      </trkpt>
      <trkpt lat="48.8635" lon="-0.33663">
        <ele>196.19999694824</ele>
        <time>2017-06-11T12:59:21.000Z</time>
      </trkpt>
      <trkpt lat="48.86348" lon="-0.33635">
        <ele>196.19999694824</ele>
        <time>2017-06-11T12:59:27.000Z</time>
      </trkpt>
      <trkpt lat="48.86348" lon="-0.33614">
        <ele>196.19999694824</ele>
        <time>2017-06-11T12:59:32.000Z</time>
      </trkpt>
      <trkpt lat="48.86347" lon="-0.33603">
        <ele>196.19999694824</ele>
        <time>2017-06-11T12:59:39.000Z</time>
      </trkpt>
      <trkpt lat="48.86347" lon="-0.33598">
        <ele>196.19999694824</ele>
        <time>2017-06-11T12:59:46.000Z</time>
      </trkpt>
      <trkpt lat="48.86346" lon="-0.33591">
        <ele>196.19999694824</ele>
        <time>2017-06-11T12:59:49.000Z</time>
      </trkpt>
      <trkpt lat="48.86344" lon="-0.33589">
        <ele>195.80000305176</ele>
        <time>2017-06-11T12:59:50.000Z</time>
      </trkpt>
      <trkpt lat="48.86343" lon="-0.33586">
        <ele>195.39999389648</ele>
        <time>2017-06-11T12:59:51.000Z</time>
      </trkpt>
      <trkpt lat="48.86342" lon="-0.33583">
        <ele>195</ele>
        <time>2017-06-11T12:59:52.000Z</time>
      </trkpt>
      <trkpt lat="48.8634" lon="-0.33581">
        <ele>194.60000610352</ele>
        <time>2017-06-11T12:59:53.000Z</time>
      </trkpt>
      <trkpt lat="48.86338" lon="-0.33579">
        <ele>194.19999694824</ele>
        <time>2017-06-11T12:59:54.000Z</time>
      </trkpt>
      <trkpt lat="48.86333" lon="-0.33574">
        <ele>194.19999694824</ele>
        <time>2017-06-11T12:59:56.000Z</time>
      </trkpt>
      <trkpt lat="48.8633" lon="-0.33572">
        <ele>193.60000610352</ele>
        <time>2017-06-11T12:59:57.000Z</time>
      </trkpt>
      <trkpt lat="48.86328" lon="-0.33569">
        <ele>193.19999694824</ele>
        <time>2017-06-11T12:59:58.000Z</time>
      </trkpt>
      <trkpt lat="48.86325" lon="-0.33566">
        <ele>192.60000610352</ele>
        <time>2017-06-11T12:59:59.000Z</time>
      </trkpt>
      <trkpt lat="48.86323" lon="-0.33564">
        <ele>192.19999694824</ele>
        <time>2017-06-11T13:00:00.000Z</time>
      </trkpt>
      <trkpt lat="48.8632" lon="-0.33561">
        <ele>191.60000610352</ele>
        <time>2017-06-11T13:00:01.000Z</time>
      </trkpt>
      <trkpt lat="48.86318" lon="-0.33557">
        <ele>191</ele>
        <time>2017-06-11T13:00:02.000Z</time>
      </trkpt>
      <trkpt lat="48.86315" lon="-0.33553">
        <ele>190.39999389648</ele>
        <time>2017-06-11T13:00:03.000Z</time>
      </trkpt>
      <trkpt lat="48.86312" lon="-0.33548">
        <ele>189.80000305176</ele>
        <time>2017-06-11T13:00:04.000Z</time>
      </trkpt>
      <trkpt lat="48.86309" lon="-0.33542">
        <ele>189.39999389648</ele>
        <time>2017-06-11T13:00:05.000Z</time>
      </trkpt>
      <trkpt lat="48.86307" lon="-0.33537">
        <ele>188.80000305176</ele>
        <time>2017-06-11T13:00:06.000Z</time>
      </trkpt>
      <trkpt lat="48.86305" lon="-0.33531">
        <ele>188.19999694824</ele>
        <time>2017-06-11T13:00:07.000Z</time>
      </trkpt>
      <trkpt lat="48.86304" lon="-0.33525">
        <ele>187.80000305176</ele>
        <time>2017-06-11T13:00:08.000Z</time>
      </trkpt>
      <trkpt lat="48.86302" lon="-0.33518">
        <ele>187</ele>
        <time>2017-06-11T13:00:09.000Z</time>
      </trkpt>
      <trkpt lat="48.863" lon="-0.3351">
        <ele>186.39999389648</ele>
        <time>2017-06-11T13:00:10.000Z</time>
      </trkpt>
      <trkpt lat="48.86299" lon="-0.33504">
        <ele>185.80000305176</ele>
        <time>2017-06-11T13:00:11.000Z</time>
      </trkpt>
      <trkpt lat="48.86297" lon="-0.33495">
        <ele>185.19999694824</ele>
        <time>2017-06-11T13:00:12.000Z</time>
      </trkpt>
      <trkpt lat="48.86295" lon="-0.33485">
        <ele>184.39999389648</ele>
        <time>2017-06-11T13:00:13.000Z</time>
      </trkpt>
      <trkpt lat="48.86293" lon="-0.33475">
        <ele>184</ele>
        <time>2017-06-11T13:00:14.000Z</time>
      </trkpt>
      <trkpt lat="48.86292" lon="-0.33465">
        <ele>183.39999389648</ele>
        <time>2017-06-11T13:00:15.000Z</time>
      </trkpt>
      <trkpt lat="48.8629" lon="-0.33457">
        <ele>182.80000305176</ele>
        <time>2017-06-11T13:00:16.000Z</time>
      </trkpt>
      <trkpt lat="48.86289" lon="-0.33449">
        <ele>182.39999389648</ele>
        <time>2017-06-11T13:00:17.000Z</time>
      </trkpt>
      <trkpt lat="48.86287" lon="-0.33441">
        <ele>181.80000305176</ele>
        <time>2017-06-11T13:00:18.000Z</time>
      </trkpt>
      <trkpt lat="48.86282" lon="-0.33412">
        <ele>181.39999389648</ele>
        <time>2017-06-11T13:00:22.000Z</time>
      </trkpt>
      <trkpt lat="48.8628" lon="-0.33404">
        <ele>181</ele>
        <time>2017-06-11T13:00:23.000Z</time>
      </trkpt>
      <trkpt lat="48.86279" lon="-0.33397">
        <ele>180.60000610352</ele>
        <time>2017-06-11T13:00:24.000Z</time>
      </trkpt>
      <trkpt lat="48.86278" lon="-0.3339">
        <ele>180</ele>
        <time>2017-06-11T13:00:25.000Z</time>
      </trkpt>
      <trkpt lat="48.86277" lon="-0.33382">
        <ele>179.60000610352</ele>
        <time>2017-06-11T13:00:26.000Z</time>
      </trkpt>
      <trkpt lat="48.86276" lon="-0.33375">
        <ele>179</ele>
        <time>2017-06-11T13:00:27.000Z</time>
      </trkpt>
      <trkpt lat="48.86275" lon="-0.33367">
        <ele>178.60000610352</ele>
        <time>2017-06-11T13:00:28.000Z</time>
      </trkpt>
      <trkpt lat="48.86275" lon="-0.33359">
        <ele>178</ele>
        <time>2017-06-11T13:00:29.000Z</time>
      </trkpt>
      <trkpt lat="48.86274" lon="-0.33351">
        <ele>177.60000610352</ele>
        <time>2017-06-11T13:00:30.000Z</time>
      </trkpt>
      <trkpt lat="48.86274" lon="-0.33343">
        <ele>177.19999694824</ele>
        <time>2017-06-11T13:00:31.000Z</time>
      </trkpt>
      <trkpt lat="48.86273" lon="-0.33335">
        <ele>176.60000610352</ele>
        <time>2017-06-11T13:00:32.000Z</time>
      </trkpt>
      <trkpt lat="48.86273" lon="-0.33327">
        <ele>176.19999694824</ele>
        <time>2017-06-11T13:00:33.000Z</time>
      </trkpt>
      <trkpt lat="48.86273" lon="-0.33319">
        <ele>175.80000305176</ele>
        <time>2017-06-11T13:00:34.000Z</time>
      </trkpt>
      <trkpt lat="48.86272" lon="-0.3331">
        <ele>175.39999389648</ele>
        <time>2017-06-11T13:00:35.000Z</time>
      </trkpt>
      <trkpt lat="48.86273" lon="-0.33286">
        <ele>174.80000305176</ele>
        <time>2017-06-11T13:00:38.000Z</time>
      </trkpt>
      <trkpt lat="48.86274" lon="-0.33279">
        <ele>174.39999389648</ele>
        <time>2017-06-11T13:00:39.000Z</time>
      </trkpt>
      <trkpt lat="48.86274" lon="-0.33272">
        <ele>174</ele>
        <time>2017-06-11T13:00:40.000Z</time>
      </trkpt>
      <trkpt lat="48.86275" lon="-0.33264">
        <ele>173.39999389648</ele>
        <time>2017-06-11T13:00:41.000Z</time>
      </trkpt>
      <trkpt lat="48.86275" lon="-0.33256">
        <ele>172.60000610352</ele>
        <time>2017-06-11T13:00:42.000Z</time>
      </trkpt>
      <trkpt lat="48.86276" lon="-0.33249">
        <ele>172</ele>
        <time>2017-06-11T13:00:43.000Z</time>
      </trkpt>
      <trkpt lat="48.86277" lon="-0.33243">
        <ele>171.39999389648</ele>
        <time>2017-06-11T13:00:44.000Z</time>
      </trkpt>
      <trkpt lat="48.86277" lon="-0.33235">
        <ele>170.80000305176</ele>
        <time>2017-06-11T13:00:45.000Z</time>
      </trkpt>
      <trkpt lat="48.86278" lon="-0.33229">
        <ele>170.19999694824</ele>
        <time>2017-06-11T13:00:46.000Z</time>
      </trkpt>
      <trkpt lat="48.86278" lon="-0.33222">
        <ele>168.80000305176</ele>
        <time>2017-06-11T13:00:47.000Z</time>
      </trkpt>
      <trkpt lat="48.86279" lon="-0.33215">
        <ele>168</ele>
        <time>2017-06-11T13:00:48.000Z</time>
      </trkpt>
      <trkpt lat="48.8628" lon="-0.3321">
        <ele>167.39999389648</ele>
        <time>2017-06-11T13:00:49.000Z</time>
      </trkpt>
      <trkpt lat="48.8628" lon="-0.33206">
        <ele>166.60000610352</ele>
        <time>2017-06-11T13:00:50.000Z</time>
      </trkpt>
      <trkpt lat="48.86281" lon="-0.33203">
        <ele>165.80000305176</ele>
        <time>2017-06-11T13:00:51.000Z</time>
      </trkpt>
      <trkpt lat="48.86282" lon="-0.33198">
        <ele>165</ele>
        <time>2017-06-11T13:00:52.000Z</time>
      </trkpt>
      <trkpt lat="48.86283" lon="-0.33192">
        <ele>164.39999389648</ele>
        <time>2017-06-11T13:00:53.000Z</time>
      </trkpt>
      <trkpt lat="48.86284" lon="-0.33188">
        <ele>163.60000610352</ele>
        <time>2017-06-11T13:00:54.000Z</time>
      </trkpt>
      <trkpt lat="48.86286" lon="-0.33185">
        <ele>162.80000305176</ele>
        <time>2017-06-11T13:00:55.000Z</time>
      </trkpt>
      <trkpt lat="48.86287" lon="-0.33183">
        <ele>162.19999694824</ele>
        <time>2017-06-11T13:00:56.000Z</time>
      </trkpt>
      <trkpt lat="48.86288" lon="-0.33181">
        <ele>161.60000610352</ele>
        <time>2017-06-11T13:00:57.000Z</time>
      </trkpt>
      <trkpt lat="48.86288" lon="-0.3318">
        <ele>160.80000305176</ele>
        <time>2017-06-11T13:00:58.000Z</time>
      </trkpt>
      <trkpt lat="48.86289" lon="-0.33179">
        <ele>160.19999694824</ele>
        <time>2017-06-11T13:00:59.000Z</time>
      </trkpt>
      <trkpt lat="48.86289" lon="-0.33177">
        <ele>159.60000610352</ele>
        <time>2017-06-11T13:01:00.000Z</time>
      </trkpt>
      <trkpt lat="48.86289" lon="-0.33177">
        <ele>159</ele>
        <time>2017-06-11T13:01:02.000Z</time>
      </trkpt>
      <trkpt lat="48.86289" lon="-0.33177">
        <ele>159</ele>
        <time>2017-06-11T13:01:03.000Z</time>
      </trkpt>
      <trkpt lat="48.86289" lon="-0.33177">
        <ele>159</ele>
        <time>2017-06-11T13:01:12.000Z</time>
      </trkpt>
      <trkpt lat="48.86289" lon="-0.33177">
        <ele>159</ele>
        <time>2017-06-11T13:01:13.000Z</time>
      </trkpt>
      <trkpt lat="48.86289" lon="-0.33177">
        <ele>158.60000610352</ele>
        <time>2017-06-11T13:01:14.000Z</time>
      </trkpt>
      <trkpt lat="48.86289" lon="-0.33177">
        <ele>158.19999694824</ele>
        <time>2017-06-11T13:01:15.000Z</time>
      </trkpt>
      <trkpt lat="48.8629" lon="-0.33174">
        <ele>157.80000305176</ele>
        <time>2017-06-11T13:01:16.000Z</time>
      </trkpt>
      <trkpt lat="48.86291" lon="-0.33171">
        <ele>157.39999389648</ele>
        <time>2017-06-11T13:01:17.000Z</time>
      </trkpt>
      <trkpt lat="48.86291" lon="-0.33166">
        <ele>157</ele>
        <time>2017-06-11T13:01:18.000Z</time>
      </trkpt>
      <trkpt lat="48.86291" lon="-0.33166">
        <ele>157</ele>
        <time>2017-06-11T13:01:19.000Z</time>
      </trkpt>
      <trkpt lat="48.86293" lon="-0.33154">
        <ele>156.39999389648</ele>
        <time>2017-06-11T13:01:24.000Z</time>
      </trkpt>
      <trkpt lat="48.86293" lon="-0.33153">
        <ele>156</ele>
        <time>2017-06-11T13:01:25.000Z</time>
      </trkpt>
      <trkpt lat="48.86293" lon="-0.33152">
        <ele>155.39999389648</ele>
        <time>2017-06-11T13:01:26.000Z</time>
      </trkpt>
      <trkpt lat="48.86294" lon="-0.33151">
        <ele>155</ele>
        <time>2017-06-11T13:01:27.000Z</time>
      </trkpt>
      <trkpt lat="48.86294" lon="-0.3315">
        <ele>154.60000610352</ele>
        <time>2017-06-11T13:01:28.000Z</time>
      </trkpt>
      <trkpt lat="48.86295" lon="-0.33148">
        <ele>154.19999694824</ele>
        <time>2017-06-11T13:01:31.000Z</time>
      </trkpt>
      <trkpt lat="48.86296" lon="-0.33147">
        <ele>153.80000305176</ele>
        <time>2017-06-11T13:01:32.000Z</time>
      </trkpt>
      <trkpt lat="48.86296" lon="-0.33145">
        <ele>153.39999389648</ele>
        <time>2017-06-11T13:01:33.000Z</time>
      </trkpt>
      <trkpt lat="48.86297" lon="-0.33144">
        <ele>153</ele>
        <time>2017-06-11T13:01:34.000Z</time>
      </trkpt>
      <trkpt lat="48.86297" lon="-0.33144">
        <ele>152.60000610352</ele>
        <time>2017-06-11T13:01:35.000Z</time>
      </trkpt>
      <trkpt lat="48.86297" lon="-0.33144">
        <ele>152.60000610352</ele>
        <time>2017-06-11T13:01:38.000Z</time>
      </trkpt>
      <trkpt lat="48.86298" lon="-0.3314">
        <ele>152.19999694824</ele>
        <time>2017-06-11T13:01:40.000Z</time>
      </trkpt>
      <trkpt lat="48.86298" lon="-0.33139">
        <ele>151.60000610352</ele>
        <time>2017-06-11T13:01:41.000Z</time>
      </trkpt>
      <trkpt lat="48.86299" lon="-0.33138">
        <ele>151.19999694824</ele>
        <time>2017-06-11T13:01:42.000Z</time>
      </trkpt>
      <trkpt lat="48.86299" lon="-0.33136">
        <ele>150.80000305176</ele>
        <time>2017-06-11T13:01:43.000Z</time>
      </trkpt>
      <trkpt lat="48.863" lon="-0.33135">
        <ele>150.39999389648</ele>
        <time>2017-06-11T13:01:44.000Z</time>
      </trkpt>
      <trkpt lat="48.863" lon="-0.33134">
        <ele>150.39999389648</ele>
        <time>2017-06-11T13:01:45.000Z</time>
      </trkpt>
      <trkpt lat="48.86301" lon="-0.33132">
        <ele>150</ele>
        <time>2017-06-11T13:01:46.000Z</time>
      </trkpt>
      <trkpt lat="48.86301" lon="-0.3313">
        <ele>149.39999389648</ele>
        <time>2017-06-11T13:01:47.000Z</time>
      </trkpt>
      <trkpt lat="48.86302" lon="-0.33128">
        <ele>149</ele>
        <time>2017-06-11T13:01:48.000Z</time>
      </trkpt>
      <trkpt lat="48.86303" lon="-0.33125">
        <ele>148.60000610352</ele>
        <time>2017-06-11T13:01:49.000Z</time>
      </trkpt>
      <trkpt lat="48.86303" lon="-0.33123">
        <ele>148.19999694824</ele>
        <time>2017-06-11T13:01:50.000Z</time>
      </trkpt>
      <trkpt lat="48.86303" lon="-0.33122">
        <ele>148.19999694824</ele>
        <time>2017-06-11T13:01:51.000Z</time>
      </trkpt>
      <trkpt lat="48.86304" lon="-0.33119">
        <ele>147.80000305176</ele>
        <time>2017-06-11T13:01:52.000Z</time>
      </trkpt>
      <trkpt lat="48.86305" lon="-0.33117">
        <ele>147.39999389648</ele>
        <time>2017-06-11T13:01:53.000Z</time>
      </trkpt>
      <trkpt lat="48.86306" lon="-0.33115">
        <ele>146.80000305176</ele>
        <time>2017-06-11T13:01:54.000Z</time>
      </trkpt>
      <trkpt lat="48.86307" lon="-0.33114">
        <ele>146.39999389648</ele>
        <time>2017-06-11T13:01:55.000Z</time>
      </trkpt>
      <trkpt lat="48.86308" lon="-0.33113">
        <ele>146</ele>
        <time>2017-06-11T13:01:56.000Z</time>
      </trkpt>
      <trkpt lat="48.86309" lon="-0.3311">
        <ele>145.60000610352</ele>
        <time>2017-06-11T13:01:59.000Z</time>
      </trkpt>
      <trkpt lat="48.86309" lon="-0.33107">
        <ele>145.19999694824</ele>
        <time>2017-06-11T13:02:00.000Z</time>
      </trkpt>
      <trkpt lat="48.86309" lon="-0.33105">
        <ele>144.80000305176</ele>
        <time>2017-06-11T13:02:01.000Z</time>
      </trkpt>
      <trkpt lat="48.8631" lon="-0.33102">
        <ele>144</ele>
        <time>2017-06-11T13:02:02.000Z</time>
      </trkpt>
      <trkpt lat="48.86309" lon="-0.33096">
        <ele>143.60000610352</ele>
        <time>2017-06-11T13:02:05.000Z</time>
      </trkpt>
      <trkpt lat="48.86309" lon="-0.33094">
        <ele>143.19999694824</ele>
        <time>2017-06-11T13:02:06.000Z</time>
      </trkpt>
      <trkpt lat="48.8631" lon="-0.33093">
        <ele>142.80000305176</ele>
        <time>2017-06-11T13:02:07.000Z</time>
      </trkpt>
      <trkpt lat="48.8631" lon="-0.33093">
        <ele>142.39999389648</ele>
        <time>2017-06-11T13:02:08.000Z</time>
      </trkpt>
      <trkpt lat="48.86311" lon="-0.33092">
        <ele>142</ele>
        <time>2017-06-11T13:02:09.000Z</time>
      </trkpt>
      <trkpt lat="48.86314" lon="-0.33086">
        <ele>142</ele>
        <time>2017-06-11T13:02:12.000Z</time>
      </trkpt>
      <trkpt lat="48.86315" lon="-0.33081">
        <ele>141.39999389648</ele>
        <time>2017-06-11T13:02:14.000Z</time>
      </trkpt>
      <trkpt lat="48.86316" lon="-0.33077">
        <ele>141</ele>
        <time>2017-06-11T13:02:15.000Z</time>
      </trkpt>
      <trkpt lat="48.86318" lon="-0.33074">
        <ele>140.60000610352</ele>
        <time>2017-06-11T13:02:16.000Z</time>
      </trkpt>
      <trkpt lat="48.86319" lon="-0.33071">
        <ele>140</ele>
        <time>2017-06-11T13:02:17.000Z</time>
      </trkpt>
      <trkpt lat="48.8632" lon="-0.33068">
        <ele>139.60000610352</ele>
        <time>2017-06-11T13:02:18.000Z</time>
      </trkpt>
      <trkpt lat="48.86323" lon="-0.33063">
        <ele>139.60000610352</ele>
        <time>2017-06-11T13:02:20.000Z</time>
      </trkpt>
      <trkpt lat="48.86324" lon="-0.33058">
        <ele>139.60000610352</ele>
        <time>2017-06-11T13:02:22.000Z</time>
      </trkpt>
      <trkpt lat="48.86335" lon="-0.33039">
        <ele>139.19999694824</ele>
        <time>2017-06-11T13:02:26.000Z</time>
      </trkpt>
      <trkpt lat="48.86338" lon="-0.33034">
        <ele>138.39999389648</ele>
        <time>2017-06-11T13:02:27.000Z</time>
      </trkpt>
      <trkpt lat="48.8634" lon="-0.33029">
        <ele>137.80000305176</ele>
        <time>2017-06-11T13:02:28.000Z</time>
      </trkpt>
      <trkpt lat="48.86343" lon="-0.33024">
        <ele>137.39999389648</ele>
        <time>2017-06-11T13:02:29.000Z</time>
      </trkpt>
      <trkpt lat="48.86354" lon="-0.33006">
        <ele>137.39999389648</ele>
        <time>2017-06-11T13:02:33.000Z</time>
      </trkpt>
      <trkpt lat="48.86362" lon="-0.32991">
        <ele>137</ele>
        <time>2017-06-11T13:02:37.000Z</time>
      </trkpt>
      <trkpt lat="48.86365" lon="-0.32987">
        <ele>136.60000610352</ele>
        <time>2017-06-11T13:02:38.000Z</time>
      </trkpt>
      <trkpt lat="48.86367" lon="-0.32984">
        <ele>136.19999694824</ele>
        <time>2017-06-11T13:02:39.000Z</time>
      </trkpt>
      <trkpt lat="48.86369" lon="-0.32981">
        <ele>135.60000610352</ele>
        <time>2017-06-11T13:02:40.000Z</time>
      </trkpt>
      <trkpt lat="48.86371" lon="-0.32978">
        <ele>135.19999694824</ele>
        <time>2017-06-11T13:02:41.000Z</time>
      </trkpt>
      <trkpt lat="48.86388" lon="-0.32959">
        <ele>135.19999694824</ele>
        <time>2017-06-11T13:02:46.000Z</time>
      </trkpt>
      <trkpt lat="48.86414" lon="-0.32918">
        <ele>135.19999694824</ele>
        <time>2017-06-11T13:02:53.000Z</time>
      </trkpt>
      <trkpt lat="48.86424" lon="-0.32906">
        <ele>135.19999694824</ele>
        <time>2017-06-11T13:02:57.000Z</time>
      </trkpt>
      <trkpt lat="48.86426" lon="-0.32902">
        <ele>135.19999694824</ele>
        <time>2017-06-11T13:03:04.000Z</time>
      </trkpt>
      <trkpt lat="48.86426" lon="-0.32902">
        <ele>135.19999694824</ele>
        <time>2017-06-11T13:03:17.000Z</time>
      </trkpt>
      <trkpt lat="48.86426" lon="-0.32902">
        <ele>135.19999694824</ele>
        <time>2017-06-11T13:03:32.000Z</time>
      </trkpt>
      <trkpt lat="48.86426" lon="-0.32902">
        <ele>135.19999694824</ele>
        <time>2017-06-11T13:03:47.000Z</time>
      </trkpt>
      <trkpt lat="48.86426" lon="-0.32902">
        <ele>135.19999694824</ele>
        <time>2017-06-11T13:04:05.000Z</time>
      </trkpt>
      <trkpt lat="48.86426" lon="-0.32902">
        <ele>135.19999694824</ele>
        <time>2017-06-11T13:04:06.000Z</time>
      </trkpt>
      <trkpt lat="48.86427" lon="-0.32898">
        <ele>135.19999694824</ele>
        <time>2017-06-11T13:04:14.000Z</time>
      </trkpt>
      <trkpt lat="48.86428" lon="-0.32898">
        <ele>135.19999694824</ele>
        <time>2017-06-11T13:04:15.000Z</time>
      </trkpt>
      <trkpt lat="48.86431" lon="-0.32897">
        <ele>135.19999694824</ele>
        <time>2017-06-11T13:04:20.000Z</time>
      </trkpt>
      <trkpt lat="48.86444" lon="-0.32892">
        <ele>135.19999694824</ele>
        <time>2017-06-11T13:04:27.000Z</time>
      </trkpt>
      <trkpt lat="48.8646" lon="-0.3288">
        <ele>135.19999694824</ele>
        <time>2017-06-11T13:04:33.000Z</time>
      </trkpt>
      <trkpt lat="48.86473" lon="-0.32874">
        <ele>135.60000610352</ele>
        <time>2017-06-11T13:04:38.000Z</time>
      </trkpt>
      <trkpt lat="48.86476" lon="-0.32874">
        <ele>136</ele>
        <time>2017-06-11T13:04:39.000Z</time>
      </trkpt>
      <trkpt lat="48.86478" lon="-0.32872">
        <ele>136.39999389648</ele>
        <time>2017-06-11T13:04:40.000Z</time>
      </trkpt>
      <trkpt lat="48.8648" lon="-0.32872">
        <ele>136.80000305176</ele>
        <time>2017-06-11T13:04:41.000Z</time>
      </trkpt>
      <trkpt lat="48.86481" lon="-0.3287">
        <ele>137.19999694824</ele>
        <time>2017-06-11T13:04:42.000Z</time>
      </trkpt>
      <trkpt lat="48.86484" lon="-0.32868">
        <ele>137.19999694824</ele>
        <time>2017-06-11T13:04:44.000Z</time>
      </trkpt>
      <trkpt lat="48.86487" lon="-0.32866">
        <ele>137.19999694824</ele>
        <time>2017-06-11T13:04:46.000Z</time>
      </trkpt>
      <trkpt lat="48.86494" lon="-0.3286">
        <ele>137.19999694824</ele>
        <time>2017-06-11T13:04:49.000Z</time>
      </trkpt>
      <trkpt lat="48.86498" lon="-0.32856">
        <ele>137.19999694824</ele>
        <time>2017-06-11T13:04:51.000Z</time>
      </trkpt>
      <trkpt lat="48.86507" lon="-0.32841">
        <ele>137.19999694824</ele>
        <time>2017-06-11T13:04:56.000Z</time>
      </trkpt>
      <trkpt lat="48.86514" lon="-0.32824">
        <ele>137.60000610352</ele>
        <time>2017-06-11T13:05:00.000Z</time>
      </trkpt>
      <trkpt lat="48.86516" lon="-0.3282">
        <ele>138</ele>
        <time>2017-06-11T13:05:01.000Z</time>
      </trkpt>
      <trkpt lat="48.86517" lon="-0.32815">
        <ele>138.39999389648</ele>
        <time>2017-06-11T13:05:02.000Z</time>
      </trkpt>
      <trkpt lat="48.86518" lon="-0.32811">
        <ele>138.80000305176</ele>
        <time>2017-06-11T13:05:03.000Z</time>
      </trkpt>
      <trkpt lat="48.86518" lon="-0.32807">
        <ele>139.19999694824</ele>
        <time>2017-06-11T13:05:04.000Z</time>
      </trkpt>
      <trkpt lat="48.86522" lon="-0.32781">
        <ele>139.19999694824</ele>
        <time>2017-06-11T13:05:09.000Z</time>
      </trkpt>
      <trkpt lat="48.86523" lon="-0.32761">
        <ele>139.19999694824</ele>
        <time>2017-06-11T13:05:15.000Z</time>
      </trkpt>
      <trkpt lat="48.86525" lon="-0.32734">
        <ele>139.19999694824</ele>
        <time>2017-06-11T13:05:20.000Z</time>
      </trkpt>
      <trkpt lat="48.8653" lon="-0.32706">
        <ele>139.19999694824</ele>
        <time>2017-06-11T13:05:25.000Z</time>
      </trkpt>
      <trkpt lat="48.86536" lon="-0.32688">
        <ele>139.19999694824</ele>
        <time>2017-06-11T13:05:28.000Z</time>
      </trkpt>
      <trkpt lat="48.86541" lon="-0.32678">
        <ele>139.19999694824</ele>
        <time>2017-06-11T13:05:30.000Z</time>
      </trkpt>
      <trkpt lat="48.86552" lon="-0.32661">
        <ele>139.19999694824</ele>
        <time>2017-06-11T13:05:35.000Z</time>
      </trkpt>
      <trkpt lat="48.86568" lon="-0.32645">
        <ele>139.19999694824</ele>
        <time>2017-06-11T13:05:41.000Z</time>
      </trkpt>
      <trkpt lat="48.86594" lon="-0.32627">
        <ele>139.19999694824</ele>
        <time>2017-06-11T13:05:48.000Z</time>
      </trkpt>
      <trkpt lat="48.86614" lon="-0.32616">
        <ele>139.19999694824</ele>
        <time>2017-06-11T13:05:54.000Z</time>
      </trkpt>
      <trkpt lat="48.86633" lon="-0.32605">
        <ele>139.19999694824</ele>
        <time>2017-06-11T13:06:00.000Z</time>
      </trkpt>
      <trkpt lat="48.86644" lon="-0.32601">
        <ele>139.60000610352</ele>
        <time>2017-06-11T13:06:04.000Z</time>
      </trkpt>
      <trkpt lat="48.86647" lon="-0.32599">
        <ele>140</ele>
        <time>2017-06-11T13:06:05.000Z</time>
      </trkpt>
      <trkpt lat="48.86649" lon="-0.32598">
        <ele>140.39999389648</ele>
        <time>2017-06-11T13:06:06.000Z</time>
      </trkpt>
      <trkpt lat="48.86651" lon="-0.32596">
        <ele>140.80000305176</ele>
        <time>2017-06-11T13:06:07.000Z</time>
      </trkpt>
      <trkpt lat="48.86653" lon="-0.32594">
        <ele>141.19999694824</ele>
        <time>2017-06-11T13:06:08.000Z</time>
      </trkpt>
      <trkpt lat="48.8666" lon="-0.3259">
        <ele>141.19999694824</ele>
        <time>2017-06-11T13:06:11.000Z</time>
      </trkpt>
      <trkpt lat="48.86678" lon="-0.32576">
        <ele>141.19999694824</ele>
        <time>2017-06-11T13:06:18.000Z</time>
      </trkpt>
      <trkpt lat="48.86687" lon="-0.32565">
        <ele>141.80000305176</ele>
        <time>2017-06-11T13:06:22.000Z</time>
      </trkpt>
      <trkpt lat="48.86689" lon="-0.32562">
        <ele>142.19999694824</ele>
        <time>2017-06-11T13:06:23.000Z</time>
      </trkpt>
      <trkpt lat="48.86692" lon="-0.3256">
        <ele>142.60000610352</ele>
        <time>2017-06-11T13:06:24.000Z</time>
      </trkpt>
      <trkpt lat="48.86694" lon="-0.32557">
        <ele>143</ele>
        <time>2017-06-11T13:06:25.000Z</time>
      </trkpt>
      <trkpt lat="48.86696" lon="-0.32555">
        <ele>143.39999389648</ele>
        <time>2017-06-11T13:06:26.000Z</time>
      </trkpt>
      <trkpt lat="48.86703" lon="-0.32545">
        <ele>143.39999389648</ele>
        <time>2017-06-11T13:06:31.000Z</time>
      </trkpt>
      <trkpt lat="48.86706" lon="-0.32542">
        <ele>143.39999389648</ele>
        <time>2017-06-11T13:06:32.000Z</time>
      </trkpt>
      <trkpt lat="48.86713" lon="-0.3254">
        <ele>143.39999389648</ele>
        <time>2017-06-11T13:06:34.000Z</time>
      </trkpt>
      <trkpt lat="48.8672" lon="-0.32533">
        <ele>143.39999389648</ele>
        <time>2017-06-11T13:06:37.000Z</time>
      </trkpt>
      <trkpt lat="48.86723" lon="-0.3253">
        <ele>143.39999389648</ele>
        <time>2017-06-11T13:06:38.000Z</time>
      </trkpt>
      <trkpt lat="48.86726" lon="-0.32529">
        <ele>143.39999389648</ele>
        <time>2017-06-11T13:06:39.000Z</time>
      </trkpt>
      <trkpt lat="48.86735" lon="-0.32521">
        <ele>143.39999389648</ele>
        <time>2017-06-11T13:06:43.000Z</time>
      </trkpt>
      <trkpt lat="48.86739" lon="-0.32508">
        <ele>143.39999389648</ele>
        <time>2017-06-11T13:06:48.000Z</time>
      </trkpt>
      <trkpt lat="48.86743" lon="-0.32503">
        <ele>143.39999389648</ele>
        <time>2017-06-11T13:06:51.000Z</time>
      </trkpt>
      <trkpt lat="48.86746" lon="-0.325">
        <ele>143.39999389648</ele>
        <time>2017-06-11T13:06:54.000Z</time>
      </trkpt>
      <trkpt lat="48.86749" lon="-0.32498">
        <ele>143.39999389648</ele>
        <time>2017-06-11T13:07:01.000Z</time>
      </trkpt>
      <trkpt lat="48.86752" lon="-0.32497">
        <ele>143.39999389648</ele>
        <time>2017-06-11T13:07:06.000Z</time>
      </trkpt>
      <trkpt lat="48.86754" lon="-0.32498">
        <ele>143.80000305176</ele>
        <time>2017-06-11T13:07:09.000Z</time>
      </trkpt>
      <trkpt lat="48.86754" lon="-0.32498">
        <ele>144.19999694824</ele>
        <time>2017-06-11T13:07:10.000Z</time>
      </trkpt>
      <trkpt lat="48.86755" lon="-0.32498">
        <ele>144.60000610352</ele>
        <time>2017-06-11T13:07:11.000Z</time>
      </trkpt>
      <trkpt lat="48.86755" lon="-0.32498">
        <ele>145</ele>
        <time>2017-06-11T13:07:12.000Z</time>
      </trkpt>
      <trkpt lat="48.86755" lon="-0.32499">
        <ele>145.60000610352</ele>
        <time>2017-06-11T13:07:13.000Z</time>
      </trkpt>
      <trkpt lat="48.86756" lon="-0.325">
        <ele>145.60000610352</ele>
        <time>2017-06-11T13:07:14.000Z</time>
      </trkpt>
      <trkpt lat="48.8676" lon="-0.32506">
        <ele>145.60000610352</ele>
        <time>2017-06-11T13:07:20.000Z</time>
      </trkpt>
      <trkpt lat="48.86761" lon="-0.32507">
        <ele>145.60000610352</ele>
        <time>2017-06-11T13:07:28.000Z</time>
      </trkpt>
      <trkpt lat="48.86761" lon="-0.32507">
        <ele>146</ele>
        <time>2017-06-11T13:07:30.000Z</time>
      </trkpt>
      <trkpt lat="48.86761" lon="-0.32507">
        <ele>146.39999389648</ele>
        <time>2017-06-11T13:07:31.000Z</time>
      </trkpt>
      <trkpt lat="48.86761" lon="-0.32507">
        <ele>147</ele>
        <time>2017-06-11T13:07:32.000Z</time>
      </trkpt>
      <trkpt lat="48.86761" lon="-0.32507">
        <ele>147.39999389648</ele>
        <time>2017-06-11T13:07:33.000Z</time>
      </trkpt>
      <trkpt lat="48.86761" lon="-0.32507">
        <ele>147.80000305176</ele>
        <time>2017-06-11T13:07:34.000Z</time>
      </trkpt>
      <trkpt lat="48.86761" lon="-0.32507">
        <ele>147.80000305176</ele>
        <time>2017-06-11T13:07:39.000Z</time>
      </trkpt>
      <trkpt lat="48.86765" lon="-0.3251">
        <ele>147.80000305176</ele>
        <time>2017-06-11T13:07:46.000Z</time>
      </trkpt>
      <trkpt lat="48.86768" lon="-0.3251">
        <ele>147.80000305176</ele>
        <time>2017-06-11T13:07:51.000Z</time>
      </trkpt>
      <trkpt lat="48.86769" lon="-0.32511">
        <ele>147.80000305176</ele>
        <time>2017-06-11T13:07:57.000Z</time>
      </trkpt>
      <trkpt lat="48.8677" lon="-0.32512">
        <ele>147.80000305176</ele>
        <time>2017-06-11T13:08:02.000Z</time>
      </trkpt>
      <trkpt lat="48.8677" lon="-0.32512">
        <ele>147.80000305176</ele>
        <time>2017-06-11T13:08:17.000Z</time>
      </trkpt>
      <trkpt lat="48.8677" lon="-0.32512">
        <ele>147.80000305176</ele>
        <time>2017-06-11T13:08:33.000Z</time>
      </trkpt>
      <trkpt lat="48.86771" lon="-0.32512">
        <ele>147.80000305176</ele>
        <time>2017-06-11T13:08:48.000Z</time>
      </trkpt>
      <trkpt lat="48.86774" lon="-0.32512">
        <ele>147.80000305176</ele>
        <time>2017-06-11T13:09:02.000Z</time>
      </trkpt>
      <trkpt lat="48.86776" lon="-0.32519">
        <ele>147.80000305176</ele>
        <time>2017-06-11T13:09:08.000Z</time>
      </trkpt>
      <trkpt lat="48.86778" lon="-0.32528">
        <ele>147.80000305176</ele>
        <time>2017-06-11T13:09:14.000Z</time>
      </trkpt>
      <trkpt lat="48.86778" lon="-0.32529">
        <ele>148.19999694824</ele>
        <time>2017-06-11T13:09:15.000Z</time>
      </trkpt>
      <trkpt lat="48.86778" lon="-0.32529">
        <ele>148.60000610352</ele>
        <time>2017-06-11T13:09:16.000Z</time>
      </trkpt>
      <trkpt lat="48.86779" lon="-0.32529">
        <ele>149</ele>
        <time>2017-06-11T13:09:17.000Z</time>
      </trkpt>
      <trkpt lat="48.86779" lon="-0.32529">
        <ele>149.39999389648</ele>
        <time>2017-06-11T13:09:18.000Z</time>
      </trkpt>
      <trkpt lat="48.86779" lon="-0.32529">
        <ele>149.80000305176</ele>
        <time>2017-06-11T13:09:19.000Z</time>
      </trkpt>
      <trkpt lat="48.8678" lon="-0.32529">
        <ele>149.80000305176</ele>
        <time>2017-06-11T13:09:20.000Z</time>
      </trkpt>
      <trkpt lat="48.86785" lon="-0.32536">
        <ele>149.80000305176</ele>
        <time>2017-06-11T13:09:26.000Z</time>
      </trkpt>
      <trkpt lat="48.86786" lon="-0.32538">
        <ele>149.80000305176</ele>
        <time>2017-06-11T13:09:33.000Z</time>
      </trkpt>
      <trkpt lat="48.86789" lon="-0.32543">
        <ele>149.80000305176</ele>
        <time>2017-06-11T13:09:36.000Z</time>
      </trkpt>
      <trkpt lat="48.86792" lon="-0.32549">
        <ele>150.39999389648</ele>
        <time>2017-06-11T13:09:39.000Z</time>
      </trkpt>
      <trkpt lat="48.86793" lon="-0.32551">
        <ele>150.80000305176</ele>
        <time>2017-06-11T13:09:40.000Z</time>
      </trkpt>
      <trkpt lat="48.86794" lon="-0.32554">
        <ele>151.19999694824</ele>
        <time>2017-06-11T13:09:41.000Z</time>
      </trkpt>
      <trkpt lat="48.86795" lon="-0.32555">
        <ele>151.60000610352</ele>
        <time>2017-06-11T13:09:42.000Z</time>
      </trkpt>
      <trkpt lat="48.86796" lon="-0.32556">
        <ele>152</ele>
        <time>2017-06-11T13:09:43.000Z</time>
      </trkpt>
      <trkpt lat="48.86799" lon="-0.32558">
        <ele>152</ele>
        <time>2017-06-11T13:09:45.000Z</time>
      </trkpt>
      <trkpt lat="48.868" lon="-0.32559">
        <ele>152</ele>
        <time>2017-06-11T13:09:46.000Z</time>
      </trkpt>
      <trkpt lat="48.86805" lon="-0.32566">
        <ele>152.39999389648</ele>
        <time>2017-06-11T13:09:50.000Z</time>
      </trkpt>
      <trkpt lat="48.86806" lon="-0.32568">
        <ele>152.80000305176</ele>
        <time>2017-06-11T13:09:51.000Z</time>
      </trkpt>
      <trkpt lat="48.86808" lon="-0.3257">
        <ele>153.19999694824</ele>
        <time>2017-06-11T13:09:52.000Z</time>
      </trkpt>
      <trkpt lat="48.86809" lon="-0.32572">
        <ele>153.60000610352</ele>
        <time>2017-06-11T13:09:53.000Z</time>
      </trkpt>
      <trkpt lat="48.8681" lon="-0.32574">
        <ele>154</ele>
        <time>2017-06-11T13:09:54.000Z</time>
      </trkpt>
      <trkpt lat="48.86815" lon="-0.32581">
        <ele>154</ele>
        <time>2017-06-11T13:09:58.000Z</time>
      </trkpt>
      <trkpt lat="48.8682" lon="-0.32589">
        <ele>154.39999389648</ele>
        <time>2017-06-11T13:10:02.000Z</time>
      </trkpt>
      <trkpt lat="48.86821" lon="-0.32591">
        <ele>154.80000305176</ele>
        <time>2017-06-11T13:10:03.000Z</time>
      </trkpt>
      <trkpt lat="48.86822" lon="-0.32592">
        <ele>155.39999389648</ele>
        <time>2017-06-11T13:10:04.000Z</time>
      </trkpt>
      <trkpt lat="48.86822" lon="-0.32594">
        <ele>155.80000305176</ele>
        <time>2017-06-11T13:10:05.000Z</time>
      </trkpt>
      <trkpt lat="48.86822" lon="-0.32594">
        <ele>156.19999694824</ele>
        <time>2017-06-11T13:10:06.000Z</time>
      </trkpt>
      <trkpt lat="48.86823" lon="-0.32595">
        <ele>156.19999694824</ele>
        <time>2017-06-11T13:10:09.000Z</time>
      </trkpt>
      <trkpt lat="48.86823" lon="-0.32595">
        <ele>156.19999694824</ele>
        <time>2017-06-11T13:10:19.000Z</time>
      </trkpt>
      <trkpt lat="48.86823" lon="-0.32595">
        <ele>156.19999694824</ele>
        <time>2017-06-11T13:10:28.000Z</time>
      </trkpt>
      <trkpt lat="48.86821" lon="-0.32591">
        <ele>156.19999694824</ele>
        <time>2017-06-11T13:10:33.000Z</time>
      </trkpt>
      <trkpt lat="48.8682" lon="-0.32588">
        <ele>156.19999694824</ele>
        <time>2017-06-11T13:10:34.000Z</time>
      </trkpt>
      <trkpt lat="48.86806" lon="-0.3257">
        <ele>156.19999694824</ele>
        <time>2017-06-11T13:10:38.000Z</time>
      </trkpt>
      <trkpt lat="48.86803" lon="-0.32563">
        <ele>156.19999694824</ele>
        <time>2017-06-11T13:10:39.000Z</time>
      </trkpt>
      <trkpt lat="48.8679" lon="-0.32545">
        <ele>155.80000305176</ele>
        <time>2017-06-11T13:10:42.000Z</time>
      </trkpt>
      <trkpt lat="48.86786" lon="-0.3254">
        <ele>155.39999389648</ele>
        <time>2017-06-11T13:10:43.000Z</time>
      </trkpt>
      <trkpt lat="48.86783" lon="-0.32533">
        <ele>155</ele>
        <time>2017-06-11T13:10:44.000Z</time>
      </trkpt>
      <trkpt lat="48.8678" lon="-0.32526">
        <ele>154.39999389648</ele>
        <time>2017-06-11T13:10:45.000Z</time>
      </trkpt>
      <trkpt lat="48.86779" lon="-0.3252">
        <ele>153.80000305176</ele>
        <time>2017-06-11T13:10:46.000Z</time>
      </trkpt>
      <trkpt lat="48.86778" lon="-0.32513">
        <ele>153.19999694824</ele>
        <time>2017-06-11T13:10:47.000Z</time>
      </trkpt>
      <trkpt lat="48.86778" lon="-0.32508">
        <ele>152.39999389648</ele>
        <time>2017-06-11T13:10:48.000Z</time>
      </trkpt>
      <trkpt lat="48.86777" lon="-0.32503">
        <ele>151.80000305176</ele>
        <time>2017-06-11T13:10:49.000Z</time>
      </trkpt>
      <trkpt lat="48.86777" lon="-0.32499">
        <ele>151.19999694824</ele>
        <time>2017-06-11T13:10:50.000Z</time>
      </trkpt>
      <trkpt lat="48.86777" lon="-0.32494">
        <ele>150.60000610352</ele>
        <time>2017-06-11T13:10:51.000Z</time>
      </trkpt>
      <trkpt lat="48.86779" lon="-0.32489">
        <ele>149.80000305176</ele>
        <time>2017-06-11T13:10:52.000Z</time>
      </trkpt>
      <trkpt lat="48.86781" lon="-0.32483">
        <ele>149.39999389648</ele>
        <time>2017-06-11T13:10:53.000Z</time>
      </trkpt>
      <trkpt lat="48.86783" lon="-0.32476">
        <ele>149</ele>
        <time>2017-06-11T13:10:54.000Z</time>
      </trkpt>
      <trkpt lat="48.86785" lon="-0.32469">
        <ele>148.39999389648</ele>
        <time>2017-06-11T13:10:55.000Z</time>
      </trkpt>
      <trkpt lat="48.86787" lon="-0.32463">
        <ele>148</ele>
        <time>2017-06-11T13:10:56.000Z</time>
      </trkpt>
      <trkpt lat="48.86789" lon="-0.32457">
        <ele>147.60000610352</ele>
        <time>2017-06-11T13:10:57.000Z</time>
      </trkpt>
      <trkpt lat="48.86795" lon="-0.32446">
        <ele>147.60000610352</ele>
        <time>2017-06-11T13:10:59.000Z</time>
      </trkpt>
      <trkpt lat="48.86798" lon="-0.32443">
        <ele>147</ele>
        <time>2017-06-11T13:11:00.000Z</time>
      </trkpt>
      <trkpt lat="48.86801" lon="-0.32442">
        <ele>146.60000610352</ele>
        <time>2017-06-11T13:11:01.000Z</time>
      </trkpt>
      <trkpt lat="48.86802" lon="-0.32441">
        <ele>146.19999694824</ele>
        <time>2017-06-11T13:11:02.000Z</time>
      </trkpt>
      <trkpt lat="48.86804" lon="-0.32441">
        <ele>145.80000305176</ele>
        <time>2017-06-11T13:11:03.000Z</time>
      </trkpt>
      <trkpt lat="48.86804" lon="-0.32441">
        <ele>145.39999389648</ele>
        <time>2017-06-11T13:11:04.000Z</time>
      </trkpt>
      <trkpt lat="48.86805" lon="-0.32441">
        <ele>145.39999389648</ele>
        <time>2017-06-11T13:11:07.000Z</time>
      </trkpt>
      <trkpt lat="48.86805" lon="-0.32441">
        <ele>145.39999389648</ele>
        <time>2017-06-11T13:11:20.000Z</time>
      </trkpt>
      <trkpt lat="48.86805" lon="-0.32441">
        <ele>145.39999389648</ele>
        <time>2017-06-11T13:11:29.000Z</time>
      </trkpt>
      <trkpt lat="48.86805" lon="-0.32441">
        <ele>145.39999389648</ele>
        <time>2017-06-11T13:11:38.000Z</time>
      </trkpt>
      <trkpt lat="48.86805" lon="-0.32441">
        <ele>144.80000305176</ele>
        <time>2017-06-11T13:11:41.000Z</time>
      </trkpt>
      <trkpt lat="48.86805" lon="-0.32441">
        <ele>144.39999389648</ele>
        <time>2017-06-11T13:11:42.000Z</time>
      </trkpt>
      <trkpt lat="48.86805" lon="-0.32441">
        <ele>143.80000305176</ele>
        <time>2017-06-11T13:11:43.000Z</time>
      </trkpt>
      <trkpt lat="48.86805" lon="-0.32441">
        <ele>143.19999694824</ele>
        <time>2017-06-11T13:11:44.000Z</time>
      </trkpt>
      <trkpt lat="48.86805" lon="-0.32441">
        <ele>142.60000610352</ele>
        <time>2017-06-11T13:11:45.000Z</time>
      </trkpt>
      <trkpt lat="48.86805" lon="-0.32441">
        <ele>142.60000610352</ele>
        <time>2017-06-11T13:11:49.000Z</time>
      </trkpt>
      <trkpt lat="48.86809" lon="-0.32445">
        <ele>142.60000610352</ele>
        <time>2017-06-11T13:11:55.000Z</time>
      </trkpt>
      <trkpt lat="48.86811" lon="-0.32446">
        <ele>142.60000610352</ele>
        <time>2017-06-11T13:11:56.000Z</time>
      </trkpt>
      <trkpt lat="48.86817" lon="-0.32455">
        <ele>142.60000610352</ele>
        <time>2017-06-11T13:12:00.000Z</time>
      </trkpt>
      <trkpt lat="48.86827" lon="-0.32472">
        <ele>143.19999694824</ele>
        <time>2017-06-11T13:12:06.000Z</time>
      </trkpt>
      <trkpt lat="48.86829" lon="-0.32475">
        <ele>143.60000610352</ele>
        <time>2017-06-11T13:12:07.000Z</time>
      </trkpt>
      <trkpt lat="48.86831" lon="-0.32479">
        <ele>144</ele>
        <time>2017-06-11T13:12:08.000Z</time>
      </trkpt>
      <trkpt lat="48.86833" lon="-0.32482">
        <ele>144.39999389648</ele>
        <time>2017-06-11T13:12:09.000Z</time>
      </trkpt>
      <trkpt lat="48.86835" lon="-0.32485">
        <ele>144.80000305176</ele>
        <time>2017-06-11T13:12:10.000Z</time>
      </trkpt>
      <trkpt lat="48.86841" lon="-0.32494">
        <ele>145.19999694824</ele>
        <time>2017-06-11T13:12:14.000Z</time>
      </trkpt>
      <trkpt lat="48.86842" lon="-0.32497">
        <ele>145.80000305176</ele>
        <time>2017-06-11T13:12:15.000Z</time>
      </trkpt>
      <trkpt lat="48.86844" lon="-0.32499">
        <ele>146.19999694824</ele>
        <time>2017-06-11T13:12:16.000Z</time>
      </trkpt>
      <trkpt lat="48.86845" lon="-0.32499">
        <ele>146.60000610352</ele>
        <time>2017-06-11T13:12:17.000Z</time>
      </trkpt>
      <trkpt lat="48.86846" lon="-0.325">
        <ele>147</ele>
        <time>2017-06-11T13:12:18.000Z</time>
      </trkpt>
      <trkpt lat="48.8685" lon="-0.32502">
        <ele>147</ele>
        <time>2017-06-11T13:12:20.000Z</time>
      </trkpt>
      <trkpt lat="48.86852" lon="-0.32504">
        <ele>147.39999389648</ele>
        <time>2017-06-11T13:12:21.000Z</time>
      </trkpt>
      <trkpt lat="48.86853" lon="-0.32505">
        <ele>147.80000305176</ele>
        <time>2017-06-11T13:12:22.000Z</time>
      </trkpt>
      <trkpt lat="48.86855" lon="-0.32506">
        <ele>148.39999389648</ele>
        <time>2017-06-11T13:12:23.000Z</time>
      </trkpt>
      <trkpt lat="48.86856" lon="-0.32507">
        <ele>148.80000305176</ele>
        <time>2017-06-11T13:12:24.000Z</time>
      </trkpt>
      <trkpt lat="48.86857" lon="-0.32508">
        <ele>149.19999694824</ele>
        <time>2017-06-11T13:12:25.000Z</time>
      </trkpt>
      <trkpt lat="48.86858" lon="-0.3251">
        <ele>149.19999694824</ele>
        <time>2017-06-11T13:12:26.000Z</time>
      </trkpt>
      <trkpt lat="48.86863" lon="-0.32515">
        <ele>149.19999694824</ele>
        <time>2017-06-11T13:12:30.000Z</time>
      </trkpt>
      <trkpt lat="48.86864" lon="-0.32517">
        <ele>149.19999694824</ele>
        <time>2017-06-11T13:12:31.000Z</time>
      </trkpt>
      <trkpt lat="48.86865" lon="-0.32518">
        <ele>149.60000610352</ele>
        <time>2017-06-11T13:12:32.000Z</time>
      </trkpt>
      <trkpt lat="48.86867" lon="-0.3252">
        <ele>150</ele>
        <time>2017-06-11T13:12:33.000Z</time>
      </trkpt>
      <trkpt lat="48.86868" lon="-0.32521">
        <ele>150.60000610352</ele>
        <time>2017-06-11T13:12:34.000Z</time>
      </trkpt>
      <trkpt lat="48.86869" lon="-0.32522">
        <ele>151</ele>
        <time>2017-06-11T13:12:35.000Z</time>
      </trkpt>
      <trkpt lat="48.86871" lon="-0.32522">
        <ele>151.39999389648</ele>
        <time>2017-06-11T13:12:36.000Z</time>
      </trkpt>
      <trkpt lat="48.86874" lon="-0.32525">
        <ele>151.39999389648</ele>
        <time>2017-06-11T13:12:38.000Z</time>
      </trkpt>
      <trkpt lat="48.8688" lon="-0.32531">
        <ele>151.80000305176</ele>
        <time>2017-06-11T13:12:43.000Z</time>
      </trkpt>
      <trkpt lat="48.86882" lon="-0.32531">
        <ele>152.80000305176</ele>
        <time>2017-06-11T13:12:44.000Z</time>
      </trkpt>
      <trkpt lat="48.86883" lon="-0.32531">
        <ele>153.19999694824</ele>
        <time>2017-06-11T13:12:45.000Z</time>
      </trkpt>
      <trkpt lat="48.86885" lon="-0.32531">
        <ele>153.60000610352</ele>
        <time>2017-06-11T13:12:46.000Z</time>
      </trkpt>
      <trkpt lat="48.86892" lon="-0.32534">
        <ele>153.60000610352</ele>
        <time>2017-06-11T13:12:52.000Z</time>
      </trkpt>
      <trkpt lat="48.86895" lon="-0.32535">
        <ele>154</ele>
        <time>2017-06-11T13:12:54.000Z</time>
      </trkpt>
      <trkpt lat="48.86897" lon="-0.32535">
        <ele>154.39999389648</ele>
        <time>2017-06-11T13:12:55.000Z</time>
      </trkpt>
      <trkpt lat="48.86898" lon="-0.32536">
        <ele>154.80000305176</ele>
        <time>2017-06-11T13:12:56.000Z</time>
      </trkpt>
      <trkpt lat="48.869" lon="-0.32536">
        <ele>155.19999694824</ele>
        <time>2017-06-11T13:12:57.000Z</time>
      </trkpt>
      <trkpt lat="48.86902" lon="-0.32536">
        <ele>155.60000610352</ele>
        <time>2017-06-11T13:12:58.000Z</time>
      </trkpt>
      <trkpt lat="48.86912" lon="-0.32536">
        <ele>156</ele>
        <time>2017-06-11T13:13:06.000Z</time>
      </trkpt>
      <trkpt lat="48.86914" lon="-0.32536">
        <ele>156.39999389648</ele>
        <time>2017-06-11T13:13:07.000Z</time>
      </trkpt>
      <trkpt lat="48.86915" lon="-0.32535">
        <ele>156.80000305176</ele>
        <time>2017-06-11T13:13:08.000Z</time>
      </trkpt>
      <trkpt lat="48.86917" lon="-0.32535">
        <ele>157.80000305176</ele>
        <time>2017-06-11T13:13:09.000Z</time>
      </trkpt>
      <trkpt lat="48.86922" lon="-0.32534">
        <ele>157.80000305176</ele>
        <time>2017-06-11T13:13:13.000Z</time>
      </trkpt>
      <trkpt lat="48.86932" lon="-0.32532">
        <ele>157.80000305176</ele>
        <time>2017-06-11T13:13:19.000Z</time>
      </trkpt>
      <trkpt lat="48.86935" lon="-0.32534">
        <ele>158.19999694824</ele>
        <time>2017-06-11T13:13:21.000Z</time>
      </trkpt>
      <trkpt lat="48.86936" lon="-0.32534">
        <ele>158.60000610352</ele>
        <time>2017-06-11T13:13:22.000Z</time>
      </trkpt>
      <trkpt lat="48.86938" lon="-0.32535">
        <ele>159</ele>
        <time>2017-06-11T13:13:23.000Z</time>
      </trkpt>
      <trkpt lat="48.8694" lon="-0.32535">
        <ele>159.39999389648</ele>
        <time>2017-06-11T13:13:24.000Z</time>
      </trkpt>
      <trkpt lat="48.86942" lon="-0.32536">
        <ele>159.80000305176</ele>
        <time>2017-06-11T13:13:25.000Z</time>
      </trkpt>
      <trkpt lat="48.86942" lon="-0.32536">
        <ele>159.80000305176</ele>
        <time>2017-06-11T13:13:26.000Z</time>
      </trkpt>
      <trkpt lat="48.86952" lon="-0.32537">
        <ele>159.80000305176</ele>
        <time>2017-06-11T13:13:31.000Z</time>
      </trkpt>
      <trkpt lat="48.86964" lon="-0.32533">
        <ele>160.19999694824</ele>
        <time>2017-06-11T13:13:36.000Z</time>
      </trkpt>
      <trkpt lat="48.86967" lon="-0.32532">
        <ele>160.80000305176</ele>
        <time>2017-06-11T13:13:37.000Z</time>
      </trkpt>
      <trkpt lat="48.8697" lon="-0.32532">
        <ele>161.19999694824</ele>
        <time>2017-06-11T13:13:38.000Z</time>
      </trkpt>
      <trkpt lat="48.86972" lon="-0.32532">
        <ele>161.60000610352</ele>
        <time>2017-06-11T13:13:39.000Z</time>
      </trkpt>
      <trkpt lat="48.86974" lon="-0.32531">
        <ele>162</ele>
        <time>2017-06-11T13:13:40.000Z</time>
      </trkpt>
      <trkpt lat="48.86981" lon="-0.32532">
        <ele>162</ele>
        <time>2017-06-11T13:13:43.000Z</time>
      </trkpt>
      <trkpt lat="48.86992" lon="-0.32531">
        <ele>162</ele>
        <time>2017-06-11T13:13:49.000Z</time>
      </trkpt>
      <trkpt lat="48.86994" lon="-0.3253">
        <ele>162</ele>
        <time>2017-06-11T13:13:50.000Z</time>
      </trkpt>
      <trkpt lat="48.86997" lon="-0.32529">
        <ele>162</ele>
        <time>2017-06-11T13:13:52.000Z</time>
      </trkpt>
      <trkpt lat="48.87002" lon="-0.32529">
        <ele>162.60000610352</ele>
        <time>2017-06-11T13:13:54.000Z</time>
      </trkpt>
      <trkpt lat="48.87004" lon="-0.3253">
        <ele>163</ele>
        <time>2017-06-11T13:13:55.000Z</time>
      </trkpt>
      <trkpt lat="48.87006" lon="-0.32529">
        <ele>163.39999389648</ele>
        <time>2017-06-11T13:13:56.000Z</time>
      </trkpt>
      <trkpt lat="48.87007" lon="-0.32529">
        <ele>163.80000305176</ele>
        <time>2017-06-11T13:13:57.000Z</time>
      </trkpt>
      <trkpt lat="48.87009" lon="-0.32528">
        <ele>164.19999694824</ele>
        <time>2017-06-11T13:13:58.000Z</time>
      </trkpt>
      <trkpt lat="48.87011" lon="-0.32528">
        <ele>164.19999694824</ele>
        <time>2017-06-11T13:13:59.000Z</time>
      </trkpt>
      <trkpt lat="48.87023" lon="-0.32525">
        <ele>164.19999694824</ele>
        <time>2017-06-11T13:14:04.000Z</time>
      </trkpt>
      <trkpt lat="48.87043" lon="-0.32518">
        <ele>164.19999694824</ele>
        <time>2017-06-11T13:14:11.000Z</time>
      </trkpt>
      <trkpt lat="48.87058" lon="-0.32514">
        <ele>164.19999694824</ele>
        <time>2017-06-11T13:14:16.000Z</time>
      </trkpt>
      <trkpt lat="48.8707" lon="-0.32512">
        <ele>164.19999694824</ele>
        <time>2017-06-11T13:14:21.000Z</time>
      </trkpt>
      <trkpt lat="48.87075" lon="-0.32511">
        <ele>165</ele>
        <time>2017-06-11T13:14:23.000Z</time>
      </trkpt>
      <trkpt lat="48.87079" lon="-0.3251">
        <ele>165.39999389648</ele>
        <time>2017-06-11T13:14:24.000Z</time>
      </trkpt>
      <trkpt lat="48.87081" lon="-0.3251">
        <ele>165.80000305176</ele>
        <time>2017-06-11T13:14:25.000Z</time>
      </trkpt>
      <trkpt lat="48.87085" lon="-0.3251">
        <ele>166.19999694824</ele>
        <time>2017-06-11T13:14:26.000Z</time>
      </trkpt>
      <trkpt lat="48.87088" lon="-0.3251">
        <ele>166.19999694824</ele>
        <time>2017-06-11T13:14:27.000Z</time>
      </trkpt>
      <trkpt lat="48.87103" lon="-0.32509">
        <ele>166.19999694824</ele>
        <time>2017-06-11T13:14:33.000Z</time>
      </trkpt>
      <trkpt lat="48.87116" lon="-0.3251">
        <ele>166.19999694824</ele>
        <time>2017-06-11T13:14:39.000Z</time>
      </trkpt>
      <trkpt lat="48.87124" lon="-0.32512">
        <ele>166.60000610352</ele>
        <time>2017-06-11T13:14:43.000Z</time>
      </trkpt>
      <trkpt lat="48.87125" lon="-0.32512">
        <ele>167.19999694824</ele>
        <time>2017-06-11T13:14:44.000Z</time>
      </trkpt>
      <trkpt lat="48.87126" lon="-0.32512">
        <ele>167.60000610352</ele>
        <time>2017-06-11T13:14:45.000Z</time>
      </trkpt>
      <trkpt lat="48.87128" lon="-0.32512">
        <ele>168</ele>
        <time>2017-06-11T13:14:46.000Z</time>
      </trkpt>
      <trkpt lat="48.87129" lon="-0.32511">
        <ele>168.39999389648</ele>
        <time>2017-06-11T13:14:47.000Z</time>
      </trkpt>
      <trkpt lat="48.87131" lon="-0.3251">
        <ele>168.39999389648</ele>
        <time>2017-06-11T13:14:48.000Z</time>
      </trkpt>
      <trkpt lat="48.87139" lon="-0.32508">
        <ele>168.39999389648</ele>
        <time>2017-06-11T13:14:52.000Z</time>
      </trkpt>
      <trkpt lat="48.87141" lon="-0.32509">
        <ele>168.80000305176</ele>
        <time>2017-06-11T13:14:53.000Z</time>
      </trkpt>
      <trkpt lat="48.87142" lon="-0.32509">
        <ele>169.19999694824</ele>
        <time>2017-06-11T13:14:54.000Z</time>
      </trkpt>
      <trkpt lat="48.87144" lon="-0.3251">
        <ele>169.60000610352</ele>
        <time>2017-06-11T13:14:55.000Z</time>
      </trkpt>
      <trkpt lat="48.87146" lon="-0.3251">
        <ele>170</ele>
        <time>2017-06-11T13:14:56.000Z</time>
      </trkpt>
      <trkpt lat="48.87147" lon="-0.32511">
        <ele>170.39999389648</ele>
        <time>2017-06-11T13:14:57.000Z</time>
      </trkpt>
      <trkpt lat="48.8715" lon="-0.32511">
        <ele>170.39999389648</ele>
        <time>2017-06-11T13:14:59.000Z</time>
      </trkpt>
      <trkpt lat="48.87158" lon="-0.3251">
        <ele>170.80000305176</ele>
        <time>2017-06-11T13:15:04.000Z</time>
      </trkpt>
      <trkpt lat="48.8716" lon="-0.3251">
        <ele>171.39999389648</ele>
        <time>2017-06-11T13:15:05.000Z</time>
      </trkpt>
      <trkpt lat="48.87162" lon="-0.32509">
        <ele>171.80000305176</ele>
        <time>2017-06-11T13:15:06.000Z</time>
      </trkpt>
      <trkpt lat="48.87165" lon="-0.32509">
        <ele>172.19999694824</ele>
        <time>2017-06-11T13:15:07.000Z</time>
      </trkpt>
      <trkpt lat="48.87167" lon="-0.32508">
        <ele>172.60000610352</ele>
        <time>2017-06-11T13:15:08.000Z</time>
      </trkpt>
      <trkpt lat="48.87175" lon="-0.32508">
        <ele>172.60000610352</ele>
        <time>2017-06-11T13:15:13.000Z</time>
      </trkpt>
      <trkpt lat="48.87181" lon="-0.32508">
        <ele>173</ele>
        <time>2017-06-11T13:15:18.000Z</time>
      </trkpt>
      <trkpt lat="48.87182" lon="-0.32509">
        <ele>173.39999389648</ele>
        <time>2017-06-11T13:15:19.000Z</time>
      </trkpt>
      <trkpt lat="48.87184" lon="-0.32509">
        <ele>173.80000305176</ele>
        <time>2017-06-11T13:15:20.000Z</time>
      </trkpt>
      <trkpt lat="48.87186" lon="-0.3251">
        <ele>174.19999694824</ele>
        <time>2017-06-11T13:15:21.000Z</time>
      </trkpt>
      <trkpt lat="48.87187" lon="-0.32511">
        <ele>174.60000610352</ele>
        <time>2017-06-11T13:15:22.000Z</time>
      </trkpt>
      <trkpt lat="48.87197" lon="-0.32513">
        <ele>174.60000610352</ele>
        <time>2017-06-11T13:15:27.000Z</time>
      </trkpt>
      <trkpt lat="48.872" lon="-0.32513">
        <ele>175</ele>
        <time>2017-06-11T13:15:28.000Z</time>
      </trkpt>
      <trkpt lat="48.87202" lon="-0.32513">
        <ele>175.39999389648</ele>
        <time>2017-06-11T13:15:29.000Z</time>
      </trkpt>
      <trkpt lat="48.87204" lon="-0.32514">
        <ele>175.80000305176</ele>
        <time>2017-06-11T13:15:30.000Z</time>
      </trkpt>
      <trkpt lat="48.87206" lon="-0.32513">
        <ele>176.19999694824</ele>
        <time>2017-06-11T13:15:31.000Z</time>
      </trkpt>
      <trkpt lat="48.87209" lon="-0.32513">
        <ele>176.60000610352</ele>
        <time>2017-06-11T13:15:32.000Z</time>
      </trkpt>
      <trkpt lat="48.87215" lon="-0.32512">
        <ele>176.60000610352</ele>
        <time>2017-06-11T13:15:35.000Z</time>
      </trkpt>
      <trkpt lat="48.87232" lon="-0.32508">
        <ele>176.60000610352</ele>
        <time>2017-06-11T13:15:42.000Z</time>
      </trkpt>
      <trkpt lat="48.8724" lon="-0.32505">
        <ele>177</ele>
        <time>2017-06-11T13:15:45.000Z</time>
      </trkpt>
      <trkpt lat="48.87242" lon="-0.32504">
        <ele>177.60000610352</ele>
        <time>2017-06-11T13:15:46.000Z</time>
      </trkpt>
      <trkpt lat="48.87245" lon="-0.32504">
        <ele>178</ele>
        <time>2017-06-11T13:15:47.000Z</time>
      </trkpt>
      <trkpt lat="48.87248" lon="-0.32503">
        <ele>178.39999389648</ele>
        <time>2017-06-11T13:15:48.000Z</time>
      </trkpt>
      <trkpt lat="48.87251" lon="-0.32502">
        <ele>178.80000305176</ele>
        <time>2017-06-11T13:15:49.000Z</time>
      </trkpt>
      <trkpt lat="48.87269" lon="-0.32498">
        <ele>178.80000305176</ele>
        <time>2017-06-11T13:15:56.000Z</time>
      </trkpt>
      <trkpt lat="48.8729" lon="-0.32492">
        <ele>178.80000305176</ele>
        <time>2017-06-11T13:16:04.000Z</time>
      </trkpt>
      <trkpt lat="48.87307" lon="-0.32493">
        <ele>178.80000305176</ele>
        <time>2017-06-11T13:16:10.000Z</time>
      </trkpt>
      <trkpt lat="48.87325" lon="-0.32492">
        <ele>178.80000305176</ele>
        <time>2017-06-11T13:16:14.000Z</time>
      </trkpt>
      <trkpt lat="48.87329" lon="-0.32494">
        <ele>178.80000305176</ele>
        <time>2017-06-11T13:16:15.000Z</time>
      </trkpt>
      <trkpt lat="48.87343" lon="-0.32507">
        <ele>178.80000305176</ele>
        <time>2017-06-11T13:16:19.000Z</time>
      </trkpt>
      <trkpt lat="48.87354" lon="-0.3252">
        <ele>178.80000305176</ele>
        <time>2017-06-11T13:16:24.000Z</time>
      </trkpt>
      <trkpt lat="48.87357" lon="-0.32524">
        <ele>178.80000305176</ele>
        <time>2017-06-11T13:16:25.000Z</time>
      </trkpt>
      <trkpt lat="48.8737" lon="-0.32542">
        <ele>178.80000305176</ele>
        <time>2017-06-11T13:16:31.000Z</time>
      </trkpt>
      <trkpt lat="48.87375" lon="-0.3255">
        <ele>179.19999694824</ele>
        <time>2017-06-11T13:16:34.000Z</time>
      </trkpt>
      <trkpt lat="48.87376" lon="-0.32552">
        <ele>179.60000610352</ele>
        <time>2017-06-11T13:16:35.000Z</time>
      </trkpt>
      <trkpt lat="48.87378" lon="-0.32554">
        <ele>180.19999694824</ele>
        <time>2017-06-11T13:16:36.000Z</time>
      </trkpt>
      <trkpt lat="48.87379" lon="-0.32556">
        <ele>180.60000610352</ele>
        <time>2017-06-11T13:16:37.000Z</time>
      </trkpt>
      <trkpt lat="48.87381" lon="-0.32557">
        <ele>181</ele>
        <time>2017-06-11T13:16:38.000Z</time>
      </trkpt>
      <trkpt lat="48.87394" lon="-0.32566">
        <ele>181</ele>
        <time>2017-06-11T13:16:43.000Z</time>
      </trkpt>
      <trkpt lat="48.87405" lon="-0.3257">
        <ele>181.39999389648</ele>
        <time>2017-06-11T13:16:47.000Z</time>
      </trkpt>
      <trkpt lat="48.87407" lon="-0.3257">
        <ele>181.80000305176</ele>
        <time>2017-06-11T13:16:48.000Z</time>
      </trkpt>
      <trkpt lat="48.87407" lon="-0.3257">
        <ele>182.19999694824</ele>
        <time>2017-06-11T13:16:49.000Z</time>
      </trkpt>
      <trkpt lat="48.87409" lon="-0.32571">
        <ele>182.60000610352</ele>
        <time>2017-06-11T13:16:50.000Z</time>
      </trkpt>
      <trkpt lat="48.8741" lon="-0.32572">
        <ele>183</ele>
        <time>2017-06-11T13:16:51.000Z</time>
      </trkpt>
      <trkpt lat="48.87414" lon="-0.32574">
        <ele>183</ele>
        <time>2017-06-11T13:16:57.000Z</time>
      </trkpt>
      <trkpt lat="48.87415" lon="-0.32575">
        <ele>183</ele>
        <time>2017-06-11T13:17:03.000Z</time>
      </trkpt>
      <trkpt lat="48.87415" lon="-0.32575">
        <ele>183</ele>
        <time>2017-06-11T13:17:16.000Z</time>
      </trkpt>
      <trkpt lat="48.87415" lon="-0.32575">
        <ele>183</ele>
        <time>2017-06-11T13:17:32.000Z</time>
      </trkpt>
      <trkpt lat="48.87416" lon="-0.32574">
        <ele>183</ele>
        <time>2017-06-11T13:17:42.000Z</time>
      </trkpt>
      <trkpt lat="48.87416" lon="-0.32574">
        <ele>183</ele>
        <time>2017-06-11T13:17:50.000Z</time>
      </trkpt>
      <trkpt lat="48.8742" lon="-0.32576">
        <ele>183</ele>
        <time>2017-06-11T13:17:55.000Z</time>
      </trkpt>
      <trkpt lat="48.87433" lon="-0.32581">
        <ele>183</ele>
        <time>2017-06-11T13:18:00.000Z</time>
      </trkpt>
      <trkpt lat="48.87451" lon="-0.32585">
        <ele>183.39999389648</ele>
        <time>2017-06-11T13:18:06.000Z</time>
      </trkpt>
      <trkpt lat="48.87454" lon="-0.32586">
        <ele>183.80000305176</ele>
        <time>2017-06-11T13:18:07.000Z</time>
      </trkpt>
      <trkpt lat="48.87458" lon="-0.32588">
        <ele>184.19999694824</ele>
        <time>2017-06-11T13:18:08.000Z</time>
      </trkpt>
      <trkpt lat="48.87461" lon="-0.3259">
        <ele>184.80000305176</ele>
        <time>2017-06-11T13:18:09.000Z</time>
      </trkpt>
      <trkpt lat="48.87464" lon="-0.3259">
        <ele>185.19999694824</ele>
        <time>2017-06-11T13:18:10.000Z</time>
      </trkpt>
      <trkpt lat="48.87477" lon="-0.32594">
        <ele>185.19999694824</ele>
        <time>2017-06-11T13:18:14.000Z</time>
      </trkpt>
      <trkpt lat="48.875" lon="-0.32601">
        <ele>185.19999694824</ele>
        <time>2017-06-11T13:18:21.000Z</time>
      </trkpt>
      <trkpt lat="48.87523" lon="-0.32607">
        <ele>185.19999694824</ele>
        <time>2017-06-11T13:18:27.000Z</time>
      </trkpt>
      <trkpt lat="48.87541" lon="-0.3261">
        <ele>185.19999694824</ele>
        <time>2017-06-11T13:18:33.000Z</time>
      </trkpt>
      <trkpt lat="48.87559" lon="-0.32605">
        <ele>185.60000610352</ele>
        <time>2017-06-11T13:18:39.000Z</time>
      </trkpt>
      <trkpt lat="48.87561" lon="-0.32603">
        <ele>186</ele>
        <time>2017-06-11T13:18:40.000Z</time>
      </trkpt>
      <trkpt lat="48.87563" lon="-0.32601">
        <ele>186.39999389648</ele>
        <time>2017-06-11T13:18:41.000Z</time>
      </trkpt>
      <trkpt lat="48.87565" lon="-0.32599">
        <ele>186.80000305176</ele>
        <time>2017-06-11T13:18:42.000Z</time>
      </trkpt>
      <trkpt lat="48.87568" lon="-0.32598">
        <ele>187.19999694824</ele>
        <time>2017-06-11T13:18:43.000Z</time>
      </trkpt>
      <trkpt lat="48.87574" lon="-0.32593">
        <ele>187.19999694824</ele>
        <time>2017-06-11T13:18:46.000Z</time>
      </trkpt>
      <trkpt lat="48.87579" lon="-0.32588">
        <ele>187.60000610352</ele>
        <time>2017-06-11T13:18:49.000Z</time>
      </trkpt>
      <trkpt lat="48.8758" lon="-0.32587">
        <ele>188</ele>
        <time>2017-06-11T13:18:50.000Z</time>
      </trkpt>
      <trkpt lat="48.87581" lon="-0.32586">
        <ele>188.39999389648</ele>
        <time>2017-06-11T13:18:51.000Z</time>
      </trkpt>
      <trkpt lat="48.87583" lon="-0.32585">
        <ele>188.80000305176</ele>
        <time>2017-06-11T13:18:52.000Z</time>
      </trkpt>
      <trkpt lat="48.87584" lon="-0.32584">
        <ele>189.39999389648</ele>
        <time>2017-06-11T13:18:53.000Z</time>
      </trkpt>
      <trkpt lat="48.87595" lon="-0.32572">
        <ele>189.80000305176</ele>
        <time>2017-06-11T13:19:01.000Z</time>
      </trkpt>
      <trkpt lat="48.87597" lon="-0.3257">
        <ele>190.19999694824</ele>
        <time>2017-06-11T13:19:02.000Z</time>
      </trkpt>
      <trkpt lat="48.87598" lon="-0.32568">
        <ele>190.60000610352</ele>
        <time>2017-06-11T13:19:03.000Z</time>
      </trkpt>
      <trkpt lat="48.876" lon="-0.32567">
        <ele>191</ele>
        <time>2017-06-11T13:19:04.000Z</time>
      </trkpt>
      <trkpt lat="48.87602" lon="-0.32566">
        <ele>191.39999389648</ele>
        <time>2017-06-11T13:19:05.000Z</time>
      </trkpt>
      <trkpt lat="48.87605" lon="-0.32562">
        <ele>191.39999389648</ele>
        <time>2017-06-11T13:19:07.000Z</time>
      </trkpt>
      <trkpt lat="48.87617" lon="-0.32549">
        <ele>191.39999389648</ele>
        <time>2017-06-11T13:19:14.000Z</time>
      </trkpt>
      <trkpt lat="48.8762" lon="-0.32545">
        <ele>191.80000305176</ele>
        <time>2017-06-11T13:19:17.000Z</time>
      </trkpt>
      <trkpt lat="48.87621" lon="-0.32543">
        <ele>192.19999694824</ele>
        <time>2017-06-11T13:19:18.000Z</time>
      </trkpt>
      <trkpt lat="48.87623" lon="-0.32543">
        <ele>193</ele>
        <time>2017-06-11T13:19:19.000Z</time>
      </trkpt>
      <trkpt lat="48.87624" lon="-0.32542">
        <ele>193.39999389648</ele>
        <time>2017-06-11T13:19:20.000Z</time>
      </trkpt>
      <trkpt lat="48.87626" lon="-0.32541">
        <ele>193.39999389648</ele>
        <time>2017-06-11T13:19:21.000Z</time>
      </trkpt>
      <trkpt lat="48.87629" lon="-0.32537">
        <ele>193.39999389648</ele>
        <time>2017-06-11T13:19:24.000Z</time>
      </trkpt>
      <trkpt lat="48.87633" lon="-0.32535">
        <ele>193.39999389648</ele>
        <time>2017-06-11T13:19:27.000Z</time>
      </trkpt>
      <trkpt lat="48.87635" lon="-0.32535">
        <ele>193.39999389648</ele>
        <time>2017-06-11T13:19:31.000Z</time>
      </trkpt>
      <trkpt lat="48.87636" lon="-0.32533">
        <ele>193.39999389648</ele>
        <time>2017-06-11T13:19:32.000Z</time>
      </trkpt>
      <trkpt lat="48.87637" lon="-0.32531">
        <ele>193.39999389648</ele>
        <time>2017-06-11T13:19:37.000Z</time>
      </trkpt>
      <trkpt lat="48.87637" lon="-0.32531">
        <ele>193.39999389648</ele>
        <time>2017-06-11T13:19:46.000Z</time>
      </trkpt>
      <trkpt lat="48.87636" lon="-0.32529">
        <ele>193.39999389648</ele>
        <time>2017-06-11T13:19:48.000Z</time>
      </trkpt>
      <trkpt lat="48.87637" lon="-0.32526">
        <ele>193.80000305176</ele>
        <time>2017-06-11T13:19:50.000Z</time>
      </trkpt>
      <trkpt lat="48.87637" lon="-0.32525">
        <ele>194.39999389648</ele>
        <time>2017-06-11T13:19:51.000Z</time>
      </trkpt>
      <trkpt lat="48.87638" lon="-0.32524">
        <ele>194.80000305176</ele>
        <time>2017-06-11T13:19:52.000Z</time>
      </trkpt>
      <trkpt lat="48.87638" lon="-0.32525">
        <ele>195.19999694824</ele>
        <time>2017-06-11T13:19:53.000Z</time>
      </trkpt>
      <trkpt lat="48.87638" lon="-0.32525">
        <ele>195.60000610352</ele>
        <time>2017-06-11T13:19:54.000Z</time>
      </trkpt>
      <trkpt lat="48.87638" lon="-0.32525">
        <ele>195.60000610352</ele>
        <time>2017-06-11T13:19:58.000Z</time>
      </trkpt>
      <trkpt lat="48.87638" lon="-0.32525">
        <ele>195.60000610352</ele>
        <time>2017-06-11T13:20:14.000Z</time>
      </trkpt>
      <trkpt lat="48.87638" lon="-0.32525">
        <ele>195.60000610352</ele>
        <time>2017-06-11T13:20:29.000Z</time>
      </trkpt>
      <trkpt lat="48.87638" lon="-0.32524">
        <ele>195.60000610352</ele>
        <time>2017-06-11T13:20:42.000Z</time>
      </trkpt>
      <trkpt lat="48.87638" lon="-0.32524">
        <ele>195.60000610352</ele>
        <time>2017-06-11T13:20:53.000Z</time>
      </trkpt>
      <trkpt lat="48.87638" lon="-0.32524">
        <ele>195.60000610352</ele>
        <time>2017-06-11T13:21:07.000Z</time>
      </trkpt>
      <trkpt lat="48.87638" lon="-0.32524">
        <ele>195.60000610352</ele>
        <time>2017-06-11T13:21:13.000Z</time>
      </trkpt>
      <trkpt lat="48.87638" lon="-0.32524">
        <ele>195.60000610352</ele>
        <time>2017-06-11T13:21:21.000Z</time>
      </trkpt>
      <trkpt lat="48.87638" lon="-0.32524">
        <ele>195.60000610352</ele>
        <time>2017-06-11T13:21:36.000Z</time>
      </trkpt>
      <trkpt lat="48.87638" lon="-0.32524">
        <ele>195.60000610352</ele>
        <time>2017-06-11T13:21:50.000Z</time>
      </trkpt>
      <trkpt lat="48.87638" lon="-0.32524">
        <ele>195.60000610352</ele>
        <time>2017-06-11T13:22:06.000Z</time>
      </trkpt>
      <trkpt lat="48.87638" lon="-0.32524">
        <ele>195.60000610352</ele>
        <time>2017-06-11T13:22:14.000Z</time>
      </trkpt>
      <trkpt lat="48.87639" lon="-0.32521">
        <ele>195.60000610352</ele>
        <time>2017-06-11T13:22:19.000Z</time>
      </trkpt>
      <trkpt lat="48.87641" lon="-0.32518">
        <ele>195.60000610352</ele>
        <time>2017-06-11T13:22:23.000Z</time>
      </trkpt>
      <trkpt lat="48.87642" lon="-0.32516">
        <ele>195.60000610352</ele>
        <time>2017-06-11T13:22:24.000Z</time>
      </trkpt>
      <trkpt lat="48.87648" lon="-0.325">
        <ele>195.60000610352</ele>
        <time>2017-06-11T13:22:30.000Z</time>
      </trkpt>
      <trkpt lat="48.87655" lon="-0.32491">
        <ele>196</ele>
        <time>2017-06-11T13:22:35.000Z</time>
      </trkpt>
      <trkpt lat="48.87657" lon="-0.32489">
        <ele>196.39999389648</ele>
        <time>2017-06-11T13:22:36.000Z</time>
      </trkpt>
      <trkpt lat="48.87659" lon="-0.32487">
        <ele>197.19999694824</ele>
        <time>2017-06-11T13:22:37.000Z</time>
      </trkpt>
      <trkpt lat="48.87661" lon="-0.32485">
        <ele>197.60000610352</ele>
        <time>2017-06-11T13:22:38.000Z</time>
      </trkpt>
      <trkpt lat="48.87674" lon="-0.32474">
        <ele>197.60000610352</ele>
        <time>2017-06-11T13:22:44.000Z</time>
      </trkpt>
      <trkpt lat="48.87692" lon="-0.32459">
        <ele>198</ele>
        <time>2017-06-11T13:22:51.000Z</time>
      </trkpt>
      <trkpt lat="48.87695" lon="-0.32458">
        <ele>198.39999389648</ele>
        <time>2017-06-11T13:22:52.000Z</time>
      </trkpt>
      <trkpt lat="48.87698" lon="-0.32455">
        <ele>198.80000305176</ele>
        <time>2017-06-11T13:22:53.000Z</time>
      </trkpt>
      <trkpt lat="48.87702" lon="-0.32453">
        <ele>199.39999389648</ele>
        <time>2017-06-11T13:22:54.000Z</time>
      </trkpt>
      <trkpt lat="48.87705" lon="-0.32451">
        <ele>199.80000305176</ele>
        <time>2017-06-11T13:22:55.000Z</time>
      </trkpt>
      <trkpt lat="48.87714" lon="-0.32445">
        <ele>199.80000305176</ele>
        <time>2017-06-11T13:22:58.000Z</time>
      </trkpt>
      <trkpt lat="48.87723" lon="-0.32439">
        <ele>200.19999694824</ele>
        <time>2017-06-11T13:23:01.000Z</time>
      </trkpt>
      <trkpt lat="48.87726" lon="-0.32437">
        <ele>200.60000610352</ele>
        <time>2017-06-11T13:23:02.000Z</time>
      </trkpt>
      <trkpt lat="48.87729" lon="-0.32435">
        <ele>201</ele>
        <time>2017-06-11T13:23:03.000Z</time>
      </trkpt>
      <trkpt lat="48.87733" lon="-0.32433">
        <ele>201.39999389648</ele>
        <time>2017-06-11T13:23:04.000Z</time>
      </trkpt>
      <trkpt lat="48.87736" lon="-0.32431">
        <ele>201.80000305176</ele>
        <time>2017-06-11T13:23:05.000Z</time>
      </trkpt>
      <trkpt lat="48.87763" lon="-0.32412">
        <ele>202.19999694824</ele>
        <time>2017-06-11T13:23:14.000Z</time>
      </trkpt>
      <trkpt lat="48.87766" lon="-0.3241">
        <ele>202.60000610352</ele>
        <time>2017-06-11T13:23:15.000Z</time>
      </trkpt>
      <trkpt lat="48.87769" lon="-0.32408">
        <ele>203</ele>
        <time>2017-06-11T13:23:16.000Z</time>
      </trkpt>
      <trkpt lat="48.87772" lon="-0.32406">
        <ele>203.60000610352</ele>
        <time>2017-06-11T13:23:17.000Z</time>
      </trkpt>
      <trkpt lat="48.87775" lon="-0.32403">
        <ele>204</ele>
        <time>2017-06-11T13:23:18.000Z</time>
      </trkpt>
      <trkpt lat="48.87793" lon="-0.3239">
        <ele>204</ele>
        <time>2017-06-11T13:23:24.000Z</time>
      </trkpt>
      <trkpt lat="48.87799" lon="-0.32386">
        <ele>204.80000305176</ele>
        <time>2017-06-11T13:23:26.000Z</time>
      </trkpt>
      <trkpt lat="48.87802" lon="-0.32384">
        <ele>205.19999694824</ele>
        <time>2017-06-11T13:23:27.000Z</time>
      </trkpt>
      <trkpt lat="48.87805" lon="-0.32382">
        <ele>205.60000610352</ele>
        <time>2017-06-11T13:23:28.000Z</time>
      </trkpt>
      <trkpt lat="48.87808" lon="-0.3238">
        <ele>206</ele>
        <time>2017-06-11T13:23:29.000Z</time>
      </trkpt>
      <trkpt lat="48.87821" lon="-0.3237">
        <ele>206</ele>
        <time>2017-06-11T13:23:33.000Z</time>
      </trkpt>
      <trkpt lat="48.8783" lon="-0.32365">
        <ele>206.39999389648</ele>
        <time>2017-06-11T13:23:36.000Z</time>
      </trkpt>
      <trkpt lat="48.87833" lon="-0.32363">
        <ele>206.80000305176</ele>
        <time>2017-06-11T13:23:37.000Z</time>
      </trkpt>
      <trkpt lat="48.87836" lon="-0.32361">
        <ele>207.19999694824</ele>
        <time>2017-06-11T13:23:38.000Z</time>
      </trkpt>
      <trkpt lat="48.87838" lon="-0.32359">
        <ele>207.60000610352</ele>
        <time>2017-06-11T13:23:39.000Z</time>
      </trkpt>
      <trkpt lat="48.87841" lon="-0.32356">
        <ele>208.19999694824</ele>
        <time>2017-06-11T13:23:40.000Z</time>
      </trkpt>
      <trkpt lat="48.87844" lon="-0.32354">
        <ele>208.19999694824</ele>
        <time>2017-06-11T13:23:41.000Z</time>
      </trkpt>
      <trkpt lat="48.87867" lon="-0.32339">
        <ele>208.60000610352</ele>
        <time>2017-06-11T13:23:49.000Z</time>
      </trkpt>
      <trkpt lat="48.8787" lon="-0.32337">
        <ele>209</ele>
        <time>2017-06-11T13:23:50.000Z</time>
      </trkpt>
      <trkpt lat="48.87873" lon="-0.32335">
        <ele>209.80000305176</ele>
        <time>2017-06-11T13:23:51.000Z</time>
      </trkpt>
      <trkpt lat="48.87876" lon="-0.32333">
        <ele>210.19999694824</ele>
        <time>2017-06-11T13:23:52.000Z</time>
      </trkpt>
      <trkpt lat="48.8789" lon="-0.32323">
        <ele>210.19999694824</ele>
        <time>2017-06-11T13:23:57.000Z</time>
      </trkpt>
      <trkpt lat="48.87896" lon="-0.32319">
        <ele>210.60000610352</ele>
        <time>2017-06-11T13:23:59.000Z</time>
      </trkpt>
      <trkpt lat="48.87898" lon="-0.32318">
        <ele>211</ele>
        <time>2017-06-11T13:24:00.000Z</time>
      </trkpt>
      <trkpt lat="48.87901" lon="-0.32316">
        <ele>211.39999389648</ele>
        <time>2017-06-11T13:24:01.000Z</time>
      </trkpt>
      <trkpt lat="48.87903" lon="-0.32314">
        <ele>211.80000305176</ele>
        <time>2017-06-11T13:24:02.000Z</time>
      </trkpt>
      <trkpt lat="48.87906" lon="-0.32312">
        <ele>212.19999694824</ele>
        <time>2017-06-11T13:24:03.000Z</time>
      </trkpt>
      <trkpt lat="48.87921" lon="-0.32301">
        <ele>212.19999694824</ele>
        <time>2017-06-11T13:24:09.000Z</time>
      </trkpt>
      <trkpt lat="48.87929" lon="-0.32295">
        <ele>212.60000610352</ele>
        <time>2017-06-11T13:24:12.000Z</time>
      </trkpt>
      <trkpt lat="48.87932" lon="-0.32293">
        <ele>213</ele>
        <time>2017-06-11T13:24:13.000Z</time>
      </trkpt>
      <trkpt lat="48.87935" lon="-0.32292">
        <ele>213.39999389648</ele>
        <time>2017-06-11T13:24:14.000Z</time>
      </trkpt>
      <trkpt lat="48.87938" lon="-0.3229">
        <ele>213.80000305176</ele>
        <time>2017-06-11T13:24:15.000Z</time>
      </trkpt>
      <trkpt lat="48.87941" lon="-0.32288">
        <ele>214.19999694824</ele>
        <time>2017-06-11T13:24:16.000Z</time>
      </trkpt>
      <trkpt lat="48.87944" lon="-0.32286">
        <ele>214.19999694824</ele>
        <time>2017-06-11T13:24:17.000Z</time>
      </trkpt>
      <trkpt lat="48.87969" lon="-0.32269">
        <ele>214.60000610352</ele>
        <time>2017-06-11T13:24:25.000Z</time>
      </trkpt>
      <trkpt lat="48.87972" lon="-0.32267">
        <ele>215</ele>
        <time>2017-06-11T13:24:26.000Z</time>
      </trkpt>
      <trkpt lat="48.87975" lon="-0.32266">
        <ele>215.39999389648</ele>
        <time>2017-06-11T13:24:27.000Z</time>
      </trkpt>
      <trkpt lat="48.87978" lon="-0.32264">
        <ele>215.80000305176</ele>
        <time>2017-06-11T13:24:28.000Z</time>
      </trkpt>
      <trkpt lat="48.87982" lon="-0.32261">
        <ele>216.19999694824</ele>
        <time>2017-06-11T13:24:29.000Z</time>
      </trkpt>
      <trkpt lat="48.87992" lon="-0.32254">
        <ele>216.19999694824</ele>
        <time>2017-06-11T13:24:32.000Z</time>
      </trkpt>
      <trkpt lat="48.88002" lon="-0.32247">
        <ele>216.80000305176</ele>
        <time>2017-06-11T13:24:35.000Z</time>
      </trkpt>
      <trkpt lat="48.88005" lon="-0.32245">
        <ele>217.19999694824</ele>
        <time>2017-06-11T13:24:36.000Z</time>
      </trkpt>
      <trkpt lat="48.88008" lon="-0.32242">
        <ele>217.60000610352</ele>
        <time>2017-06-11T13:24:37.000Z</time>
      </trkpt>
      <trkpt lat="48.88011" lon="-0.32239">
        <ele>218</ele>
        <time>2017-06-11T13:24:38.000Z</time>
      </trkpt>
      <trkpt lat="48.88015" lon="-0.32237">
        <ele>218.39999389648</ele>
        <time>2017-06-11T13:24:39.000Z</time>
      </trkpt>
      <trkpt lat="48.88034" lon="-0.32219">
        <ele>218.39999389648</ele>
        <time>2017-06-11T13:24:45.000Z</time>
      </trkpt>
      <trkpt lat="48.88037" lon="-0.32215">
        <ele>218.80000305176</ele>
        <time>2017-06-11T13:24:46.000Z</time>
      </trkpt>
      <trkpt lat="48.88039" lon="-0.32212">
        <ele>219.19999694824</ele>
        <time>2017-06-11T13:24:47.000Z</time>
      </trkpt>
      <trkpt lat="48.88042" lon="-0.32208">
        <ele>219.60000610352</ele>
        <time>2017-06-11T13:24:48.000Z</time>
      </trkpt>
      <trkpt lat="48.88045" lon="-0.32204">
        <ele>220</ele>
        <time>2017-06-11T13:24:49.000Z</time>
      </trkpt>
      <trkpt lat="48.88048" lon="-0.322">
        <ele>220.39999389648</ele>
        <time>2017-06-11T13:24:50.000Z</time>
      </trkpt>
      <trkpt lat="48.88055" lon="-0.3219">
        <ele>220.39999389648</ele>
        <time>2017-06-11T13:24:53.000Z</time>
      </trkpt>
      <trkpt lat="48.8806" lon="-0.32185">
        <ele>220.39999389648</ele>
        <time>2017-06-11T13:24:55.000Z</time>
      </trkpt>
      <trkpt lat="48.88065" lon="-0.32187">
        <ele>220.39999389648</ele>
        <time>2017-06-11T13:24:57.000Z</time>
      </trkpt>
      <trkpt lat="48.88068" lon="-0.32194">
        <ele>220.80000305176</ele>
        <time>2017-06-11T13:24:59.000Z</time>
      </trkpt>
      <trkpt lat="48.8807" lon="-0.32199">
        <ele>221.19999694824</ele>
        <time>2017-06-11T13:25:00.000Z</time>
      </trkpt>
      <trkpt lat="48.88072" lon="-0.32204">
        <ele>221.80000305176</ele>
        <time>2017-06-11T13:25:01.000Z</time>
      </trkpt>
      <trkpt lat="48.88073" lon="-0.3221">
        <ele>222.19999694824</ele>
        <time>2017-06-11T13:25:02.000Z</time>
      </trkpt>
      <trkpt lat="48.88075" lon="-0.32216">
        <ele>222.60000610352</ele>
        <time>2017-06-11T13:25:03.000Z</time>
      </trkpt>
      <trkpt lat="48.88079" lon="-0.32229">
        <ele>222.60000610352</ele>
        <time>2017-06-11T13:25:05.000Z</time>
      </trkpt>
      <trkpt lat="48.88085" lon="-0.32251">
        <ele>222.60000610352</ele>
        <time>2017-06-11T13:25:08.000Z</time>
      </trkpt>
      <trkpt lat="48.88097" lon="-0.32294">
        <ele>222.60000610352</ele>
        <time>2017-06-11T13:25:14.000Z</time>
      </trkpt>
      <trkpt lat="48.88097" lon="-0.32299">
        <ele>222.60000610352</ele>
        <time>2017-06-11T13:25:15.000Z</time>
      </trkpt>
      <trkpt lat="48.88097" lon="-0.32302">
        <ele>222</ele>
        <time>2017-06-11T13:25:16.000Z</time>
      </trkpt>
      <trkpt lat="48.88097" lon="-0.32304">
        <ele>221.60000610352</ele>
        <time>2017-06-11T13:25:17.000Z</time>
      </trkpt>
      <trkpt lat="48.88097" lon="-0.32306">
        <ele>221.19999694824</ele>
        <time>2017-06-11T13:25:18.000Z</time>
      </trkpt>
      <trkpt lat="48.88098" lon="-0.32308">
        <ele>220.60000610352</ele>
        <time>2017-06-11T13:25:19.000Z</time>
      </trkpt>
      <trkpt lat="48.88099" lon="-0.32311">
        <ele>220.19999694824</ele>
        <time>2017-06-11T13:25:20.000Z</time>
      </trkpt>
      <trkpt lat="48.88101" lon="-0.32316">
        <ele>220.19999694824</ele>
        <time>2017-06-11T13:25:22.000Z</time>
      </trkpt>
      <trkpt lat="48.88102" lon="-0.32319">
        <ele>220.19999694824</ele>
        <time>2017-06-11T13:25:23.000Z</time>
      </trkpt>
      <trkpt lat="48.88102" lon="-0.32325">
        <ele>220.19999694824</ele>
        <time>2017-06-11T13:25:26.000Z</time>
      </trkpt>
      <trkpt lat="48.88101" lon="-0.32324">
        <ele>220.19999694824</ele>
        <time>2017-06-11T13:25:32.000Z</time>
      </trkpt>
      <trkpt lat="48.88097" lon="-0.32322">
        <ele>220.19999694824</ele>
        <time>2017-06-11T13:25:35.000Z</time>
      </trkpt>
      <trkpt lat="48.88095" lon="-0.32322">
        <ele>219.80000305176</ele>
        <time>2017-06-11T13:25:36.000Z</time>
      </trkpt>
      <trkpt lat="48.88095" lon="-0.32322">
        <ele>219.39999389648</ele>
        <time>2017-06-11T13:25:37.000Z</time>
      </trkpt>
      <trkpt lat="48.88094" lon="-0.32322">
        <ele>218.80000305176</ele>
        <time>2017-06-11T13:25:38.000Z</time>
      </trkpt>
      <trkpt lat="48.88094" lon="-0.32322">
        <ele>218.39999389648</ele>
        <time>2017-06-11T13:25:39.000Z</time>
      </trkpt>
      <trkpt lat="48.88094" lon="-0.32322">
        <ele>218</ele>
        <time>2017-06-11T13:25:40.000Z</time>
      </trkpt>
      <trkpt lat="48.88092" lon="-0.32326">
        <ele>218</ele>
        <time>2017-06-11T13:25:46.000Z</time>
      </trkpt>
      <trkpt lat="48.88091" lon="-0.32339">
        <ele>218</ele>
        <time>2017-06-11T13:25:50.000Z</time>
      </trkpt>
      <trkpt lat="48.88089" lon="-0.32359">
        <ele>217</ele>
        <time>2017-06-11T13:25:54.000Z</time>
      </trkpt>
      <trkpt lat="48.88088" lon="-0.32363">
        <ele>216.60000610352</ele>
        <time>2017-06-11T13:25:55.000Z</time>
      </trkpt>
      <trkpt lat="48.88088" lon="-0.32368">
        <ele>216.19999694824</ele>
        <time>2017-06-11T13:25:56.000Z</time>
      </trkpt>
      <trkpt lat="48.88088" lon="-0.32373">
        <ele>215.60000610352</ele>
        <time>2017-06-11T13:25:57.000Z</time>
      </trkpt>
      <trkpt lat="48.88091" lon="-0.32391">
        <ele>215.60000610352</ele>
        <time>2017-06-11T13:26:01.000Z</time>
      </trkpt>
      <trkpt lat="48.881" lon="-0.32407">
        <ele>215.60000610352</ele>
        <time>2017-06-11T13:26:06.000Z</time>
      </trkpt>
      <trkpt lat="48.88106" lon="-0.32423">
        <ele>215.60000610352</ele>
        <time>2017-06-11T13:26:10.000Z</time>
      </trkpt>
      <trkpt lat="48.88106" lon="-0.32436">
        <ele>215.60000610352</ele>
        <time>2017-06-11T13:26:14.000Z</time>
      </trkpt>
      <trkpt lat="48.88105" lon="-0.32441">
        <ele>215.60000610352</ele>
        <time>2017-06-11T13:26:18.000Z</time>
      </trkpt>
      <trkpt lat="48.88105" lon="-0.32452">
        <ele>215.60000610352</ele>
        <time>2017-06-11T13:26:24.000Z</time>
      </trkpt>
      <trkpt lat="48.88107" lon="-0.32465">
        <ele>215.60000610352</ele>
        <time>2017-06-11T13:26:29.000Z</time>
      </trkpt>
      <trkpt lat="48.88113" lon="-0.32495">
        <ele>215.60000610352</ele>
        <time>2017-06-11T13:26:35.000Z</time>
      </trkpt>
      <trkpt lat="48.88116" lon="-0.32519">
        <ele>215.60000610352</ele>
        <time>2017-06-11T13:26:40.000Z</time>
      </trkpt>
      <trkpt lat="48.88119" lon="-0.32536">
        <ele>215.60000610352</ele>
        <time>2017-06-11T13:26:46.000Z</time>
      </trkpt>
      <trkpt lat="48.88125" lon="-0.32551">
        <ele>215.60000610352</ele>
        <time>2017-06-11T13:26:52.000Z</time>
      </trkpt>
      <trkpt lat="48.88128" lon="-0.32555">
        <ele>216</ele>
        <time>2017-06-11T13:26:54.000Z</time>
      </trkpt>
      <trkpt lat="48.88129" lon="-0.32556">
        <ele>216.60000610352</ele>
        <time>2017-06-11T13:26:55.000Z</time>
      </trkpt>
      <trkpt lat="48.8813" lon="-0.32557">
        <ele>217</ele>
        <time>2017-06-11T13:26:56.000Z</time>
      </trkpt>
      <trkpt lat="48.8813" lon="-0.32557">
        <ele>217.39999389648</ele>
        <time>2017-06-11T13:26:57.000Z</time>
      </trkpt>
      <trkpt lat="48.8813" lon="-0.32556">
        <ele>217.80000305176</ele>
        <time>2017-06-11T13:26:58.000Z</time>
      </trkpt>
      <trkpt lat="48.8813" lon="-0.32556">
        <ele>217.80000305176</ele>
        <time>2017-06-11T13:27:07.000Z</time>
      </trkpt>
      <trkpt lat="48.8813" lon="-0.32556">
        <ele>217.80000305176</ele>
        <time>2017-06-11T13:27:15.000Z</time>
      </trkpt>
      <trkpt lat="48.88129" lon="-0.32555">
        <ele>217.80000305176</ele>
        <time>2017-06-11T13:27:17.000Z</time>
      </trkpt>
      <trkpt lat="48.88125" lon="-0.32546">
        <ele>217.80000305176</ele>
        <time>2017-06-11T13:27:20.000Z</time>
      </trkpt>
      <trkpt lat="48.88121" lon="-0.32519">
        <ele>217.80000305176</ele>
        <time>2017-06-11T13:27:25.000Z</time>
      </trkpt>
      <trkpt lat="48.88119" lon="-0.32508">
        <ele>217.39999389648</ele>
        <time>2017-06-11T13:27:27.000Z</time>
      </trkpt>
      <trkpt lat="48.88118" lon="-0.32503">
        <ele>217</ele>
        <time>2017-06-11T13:27:28.000Z</time>
      </trkpt>
      <trkpt lat="48.88117" lon="-0.32498">
        <ele>216.39999389648</ele>
        <time>2017-06-11T13:27:29.000Z</time>
      </trkpt>
      <trkpt lat="48.88116" lon="-0.32494">
        <ele>216</ele>
        <time>2017-06-11T13:27:30.000Z</time>
      </trkpt>
      <trkpt lat="48.88114" lon="-0.32489">
        <ele>215.60000610352</ele>
        <time>2017-06-11T13:27:31.000Z</time>
      </trkpt>
      <trkpt lat="48.88113" lon="-0.32485">
        <ele>215.60000610352</ele>
        <time>2017-06-11T13:27:32.000Z</time>
      </trkpt>
      <trkpt lat="48.8811" lon="-0.32468">
        <ele>215.60000610352</ele>
        <time>2017-06-11T13:27:37.000Z</time>
      </trkpt>
      <trkpt lat="48.88109" lon="-0.32452">
        <ele>215.60000610352</ele>
        <time>2017-06-11T13:27:41.000Z</time>
      </trkpt>
      <trkpt lat="48.88106" lon="-0.32444">
        <ele>215.60000610352</ele>
        <time>2017-06-11T13:27:43.000Z</time>
      </trkpt>
      <trkpt lat="48.88104" lon="-0.32437">
        <ele>215.60000610352</ele>
        <time>2017-06-11T13:27:45.000Z</time>
      </trkpt>
      <trkpt lat="48.88092" lon="-0.32412">
        <ele>215.60000610352</ele>
        <time>2017-06-11T13:27:52.000Z</time>
      </trkpt>
      <trkpt lat="48.88089" lon="-0.32403">
        <ele>215.60000610352</ele>
        <time>2017-06-11T13:27:55.000Z</time>
      </trkpt>
      <trkpt lat="48.88088" lon="-0.32402">
        <ele>215.60000610352</ele>
        <time>2017-06-11T13:27:56.000Z</time>
      </trkpt>
      <trkpt lat="48.88087" lon="-0.324">
        <ele>215.60000610352</ele>
        <time>2017-06-11T13:28:02.000Z</time>
      </trkpt>
      <trkpt lat="48.88087" lon="-0.324">
        <ele>215.60000610352</ele>
        <time>2017-06-11T13:28:09.000Z</time>
      </trkpt>
      <trkpt lat="48.88087" lon="-0.32402">
        <ele>215.60000610352</ele>
        <time>2017-06-11T13:28:15.000Z</time>
      </trkpt>
      <trkpt lat="48.88087" lon="-0.32403">
        <ele>215.60000610352</ele>
        <time>2017-06-11T13:28:16.000Z</time>
      </trkpt>
      <trkpt lat="48.88087" lon="-0.32406">
        <ele>215.60000610352</ele>
        <time>2017-06-11T13:28:21.000Z</time>
      </trkpt>
      <trkpt lat="48.88087" lon="-0.32409">
        <ele>215.60000610352</ele>
        <time>2017-06-11T13:28:26.000Z</time>
      </trkpt>
      <trkpt lat="48.88087" lon="-0.3241">
        <ele>215.19999694824</ele>
        <time>2017-06-11T13:28:27.000Z</time>
      </trkpt>
      <trkpt lat="48.88087" lon="-0.32412">
        <ele>214.80000305176</ele>
        <time>2017-06-11T13:28:28.000Z</time>
      </trkpt>
      <trkpt lat="48.88087" lon="-0.32413">
        <ele>214.39999389648</ele>
        <time>2017-06-11T13:28:29.000Z</time>
      </trkpt>
      <trkpt lat="48.88087" lon="-0.32414">
        <ele>214</ele>
        <time>2017-06-11T13:28:30.000Z</time>
      </trkpt>
      <trkpt lat="48.88088" lon="-0.32416">
        <ele>213.60000610352</ele>
        <time>2017-06-11T13:28:31.000Z</time>
      </trkpt>
      <trkpt lat="48.88088" lon="-0.32418">
        <ele>213.60000610352</ele>
        <time>2017-06-11T13:28:32.000Z</time>
      </trkpt>
      <trkpt lat="48.88089" lon="-0.32422">
        <ele>213.19999694824</ele>
        <time>2017-06-11T13:28:35.000Z</time>
      </trkpt>
      <trkpt lat="48.8809" lon="-0.32423">
        <ele>212.60000610352</ele>
        <time>2017-06-11T13:28:36.000Z</time>
      </trkpt>
      <trkpt lat="48.8809" lon="-0.32424">
        <ele>212.19999694824</ele>
        <time>2017-06-11T13:28:37.000Z</time>
      </trkpt>
      <trkpt lat="48.8809" lon="-0.32425">
        <ele>211.80000305176</ele>
        <time>2017-06-11T13:28:38.000Z</time>
      </trkpt>
      <trkpt lat="48.8809" lon="-0.32426">
        <ele>211.39999389648</ele>
        <time>2017-06-11T13:28:39.000Z</time>
      </trkpt>
      <trkpt lat="48.88089" lon="-0.32431">
        <ele>211.39999389648</ele>
        <time>2017-06-11T13:28:41.000Z</time>
      </trkpt>
      <trkpt lat="48.88089" lon="-0.32443">
        <ele>211.39999389648</ele>
        <time>2017-06-11T13:28:44.000Z</time>
      </trkpt>
      <trkpt lat="48.8809" lon="-0.3246">
        <ele>210.60000610352</ele>
        <time>2017-06-11T13:28:47.000Z</time>
      </trkpt>
      <trkpt lat="48.88091" lon="-0.32467">
        <ele>210.19999694824</ele>
        <time>2017-06-11T13:28:48.000Z</time>
      </trkpt>
      <trkpt lat="48.88091" lon="-0.32474">
        <ele>209.80000305176</ele>
        <time>2017-06-11T13:28:49.000Z</time>
      </trkpt>
      <trkpt lat="48.88092" lon="-0.32481">
        <ele>209.39999389648</ele>
        <time>2017-06-11T13:28:50.000Z</time>
      </trkpt>
      <trkpt lat="48.88092" lon="-0.32489">
        <ele>209.39999389648</ele>
        <time>2017-06-11T13:28:51.000Z</time>
      </trkpt>
      <trkpt lat="48.88093" lon="-0.32521">
        <ele>209.39999389648</ele>
        <time>2017-06-11T13:28:55.000Z</time>
      </trkpt>
      <trkpt lat="48.88092" lon="-0.32534">
        <ele>208.80000305176</ele>
        <time>2017-06-11T13:28:57.000Z</time>
      </trkpt>
      <trkpt lat="48.88092" lon="-0.32541">
        <ele>208.39999389648</ele>
        <time>2017-06-11T13:28:58.000Z</time>
      </trkpt>
      <trkpt lat="48.88092" lon="-0.32548">
        <ele>207.80000305176</ele>
        <time>2017-06-11T13:28:59.000Z</time>
      </trkpt>
      <trkpt lat="48.88091" lon="-0.32554">
        <ele>207.39999389648</ele>
        <time>2017-06-11T13:29:00.000Z</time>
      </trkpt>
      <trkpt lat="48.88091" lon="-0.32561">
        <ele>207</ele>
        <time>2017-06-11T13:29:01.000Z</time>
      </trkpt>
      <trkpt lat="48.88091" lon="-0.32596">
        <ele>207</ele>
        <time>2017-06-11T13:29:06.000Z</time>
      </trkpt>
      <trkpt lat="48.88092" lon="-0.32604">
        <ele>206.39999389648</ele>
        <time>2017-06-11T13:29:07.000Z</time>
      </trkpt>
      <trkpt lat="48.88092" lon="-0.32612">
        <ele>206</ele>
        <time>2017-06-11T13:29:08.000Z</time>
      </trkpt>
      <trkpt lat="48.88092" lon="-0.3262">
        <ele>205.60000610352</ele>
        <time>2017-06-11T13:29:09.000Z</time>
      </trkpt>
      <trkpt lat="48.88092" lon="-0.32628">
        <ele>205.19999694824</ele>
        <time>2017-06-11T13:29:10.000Z</time>
      </trkpt>
      <trkpt lat="48.88092" lon="-0.32636">
        <ele>204.80000305176</ele>
        <time>2017-06-11T13:29:11.000Z</time>
      </trkpt>
      <trkpt lat="48.88093" lon="-0.32644">
        <ele>204.39999389648</ele>
        <time>2017-06-11T13:29:12.000Z</time>
      </trkpt>
      <trkpt lat="48.88093" lon="-0.32652">
        <ele>203.80000305176</ele>
        <time>2017-06-11T13:29:13.000Z</time>
      </trkpt>
      <trkpt lat="48.88092" lon="-0.32661">
        <ele>203.39999389648</ele>
        <time>2017-06-11T13:29:14.000Z</time>
      </trkpt>
      <trkpt lat="48.88092" lon="-0.32669">
        <ele>203</ele>
        <time>2017-06-11T13:29:15.000Z</time>
      </trkpt>
      <trkpt lat="48.88092" lon="-0.32677">
        <ele>202.60000610352</ele>
        <time>2017-06-11T13:29:16.000Z</time>
      </trkpt>
      <trkpt lat="48.88093" lon="-0.32694">
        <ele>202</ele>
        <time>2017-06-11T13:29:18.000Z</time>
      </trkpt>
      <trkpt lat="48.88094" lon="-0.32703">
        <ele>201.60000610352</ele>
        <time>2017-06-11T13:29:19.000Z</time>
      </trkpt>
      <trkpt lat="48.88096" lon="-0.32712">
        <ele>201.19999694824</ele>
        <time>2017-06-11T13:29:20.000Z</time>
      </trkpt>
      <trkpt lat="48.88097" lon="-0.32721">
        <ele>200.39999389648</ele>
        <time>2017-06-11T13:29:21.000Z</time>
      </trkpt>
      <trkpt lat="48.88098" lon="-0.3273">
        <ele>199.80000305176</ele>
        <time>2017-06-11T13:29:22.000Z</time>
      </trkpt>
      <trkpt lat="48.88099" lon="-0.32739">
        <ele>199.19999694824</ele>
        <time>2017-06-11T13:29:23.000Z</time>
      </trkpt>
      <trkpt lat="48.881" lon="-0.32747">
        <ele>198.39999389648</ele>
        <time>2017-06-11T13:29:24.000Z</time>
      </trkpt>
      <trkpt lat="48.88101" lon="-0.32756">
        <ele>197.80000305176</ele>
        <time>2017-06-11T13:29:25.000Z</time>
      </trkpt>
      <trkpt lat="48.88102" lon="-0.32764">
        <ele>197</ele>
        <time>2017-06-11T13:29:26.000Z</time>
      </trkpt>
      <trkpt lat="48.88104" lon="-0.32772">
        <ele>196.39999389648</ele>
        <time>2017-06-11T13:29:27.000Z</time>
      </trkpt>
      <trkpt lat="48.88106" lon="-0.3278">
        <ele>195.60000610352</ele>
        <time>2017-06-11T13:29:28.000Z</time>
      </trkpt>
      <trkpt lat="48.88109" lon="-0.32786">
        <ele>195.19999694824</ele>
        <time>2017-06-11T13:29:29.000Z</time>
      </trkpt>
      <trkpt lat="48.88112" lon="-0.32792">
        <ele>194.80000305176</ele>
        <time>2017-06-11T13:29:30.000Z</time>
      </trkpt>
      <trkpt lat="48.88115" lon="-0.32797">
        <ele>194.39999389648</ele>
        <time>2017-06-11T13:29:31.000Z</time>
      </trkpt>
      <trkpt lat="48.88119" lon="-0.32801">
        <ele>193.80000305176</ele>
        <time>2017-06-11T13:29:32.000Z</time>
      </trkpt>
      <trkpt lat="48.88123" lon="-0.32806">
        <ele>193.19999694824</ele>
        <time>2017-06-11T13:29:33.000Z</time>
      </trkpt>
      <trkpt lat="48.88126" lon="-0.32811">
        <ele>192.60000610352</ele>
        <time>2017-06-11T13:29:34.000Z</time>
      </trkpt>
      <trkpt lat="48.8813" lon="-0.32815">
        <ele>192</ele>
        <time>2017-06-11T13:29:35.000Z</time>
      </trkpt>
      <trkpt lat="48.88134" lon="-0.32819">
        <ele>191.39999389648</ele>
        <time>2017-06-11T13:29:36.000Z</time>
      </trkpt>
      <trkpt lat="48.88137" lon="-0.32822">
        <ele>190.39999389648</ele>
        <time>2017-06-11T13:29:37.000Z</time>
      </trkpt>
      <trkpt lat="48.88141" lon="-0.32826">
        <ele>189.80000305176</ele>
        <time>2017-06-11T13:29:38.000Z</time>
      </trkpt>
      <trkpt lat="48.88144" lon="-0.32828">
        <ele>189.39999389648</ele>
        <time>2017-06-11T13:29:39.000Z</time>
      </trkpt>
      <trkpt lat="48.88147" lon="-0.32831">
        <ele>188.80000305176</ele>
        <time>2017-06-11T13:29:40.000Z</time>
      </trkpt>
      <trkpt lat="48.8815" lon="-0.32832">
        <ele>188.19999694824</ele>
        <time>2017-06-11T13:29:41.000Z</time>
      </trkpt>
      <trkpt lat="48.88153" lon="-0.32832">
        <ele>187.80000305176</ele>
        <time>2017-06-11T13:29:42.000Z</time>
      </trkpt>
      <trkpt lat="48.88155" lon="-0.32832">
        <ele>187.19999694824</ele>
        <time>2017-06-11T13:29:43.000Z</time>
      </trkpt>
      <trkpt lat="48.88161" lon="-0.32831">
        <ele>187.19999694824</ele>
        <time>2017-06-11T13:29:46.000Z</time>
      </trkpt>
      <trkpt lat="48.88166" lon="-0.32832">
        <ele>187.19999694824</ele>
        <time>2017-06-11T13:29:51.000Z</time>
      </trkpt>
      <trkpt lat="48.88172" lon="-0.32831">
        <ele>187.19999694824</ele>
        <time>2017-06-11T13:29:56.000Z</time>
      </trkpt>
      <trkpt lat="48.88182" lon="-0.32826">
        <ele>187.19999694824</ele>
        <time>2017-06-11T13:30:02.000Z</time>
      </trkpt>
      <trkpt lat="48.88184" lon="-0.32824">
        <ele>187.19999694824</ele>
        <time>2017-06-11T13:30:08.000Z</time>
      </trkpt>
      <trkpt lat="48.88184" lon="-0.32823">
        <ele>187.19999694824</ele>
        <time>2017-06-11T13:30:14.000Z</time>
      </trkpt>
      <trkpt lat="48.88185" lon="-0.32825">
        <ele>187.19999694824</ele>
        <time>2017-06-11T13:30:18.000Z</time>
      </trkpt>
      <trkpt lat="48.88188" lon="-0.32826">
        <ele>187.19999694824</ele>
        <time>2017-06-11T13:30:24.000Z</time>
      </trkpt>
      <trkpt lat="48.88192" lon="-0.32828">
        <ele>187.19999694824</ele>
        <time>2017-06-11T13:30:32.000Z</time>
      </trkpt>
      <trkpt lat="48.88193" lon="-0.3283">
        <ele>187.19999694824</ele>
        <time>2017-06-11T13:30:33.000Z</time>
      </trkpt>
      <trkpt lat="48.88194" lon="-0.32831">
        <ele>187.19999694824</ele>
        <time>2017-06-11T13:30:35.000Z</time>
      </trkpt>
      <trkpt lat="48.88198" lon="-0.32834">
        <ele>187.19999694824</ele>
        <time>2017-06-11T13:30:41.000Z</time>
      </trkpt>
      <trkpt lat="48.88198" lon="-0.32836">
        <ele>187.19999694824</ele>
        <time>2017-06-11T13:30:42.000Z</time>
      </trkpt>
      <trkpt lat="48.88196" lon="-0.32838">
        <ele>187.19999694824</ele>
        <time>2017-06-11T13:30:44.000Z</time>
      </trkpt>
      <trkpt lat="48.88196" lon="-0.32842">
        <ele>187.19999694824</ele>
        <time>2017-06-11T13:30:46.000Z</time>
      </trkpt>
      <trkpt lat="48.88197" lon="-0.32846">
        <ele>187.19999694824</ele>
        <time>2017-06-11T13:30:52.000Z</time>
      </trkpt>
      <trkpt lat="48.88199" lon="-0.32848">
        <ele>187.19999694824</ele>
        <time>2017-06-11T13:30:59.000Z</time>
      </trkpt>
      <trkpt lat="48.88199" lon="-0.32848">
        <ele>187.19999694824</ele>
        <time>2017-06-11T13:31:13.000Z</time>
      </trkpt>
      <trkpt lat="48.88199" lon="-0.32849">
        <ele>187.19999694824</ele>
        <time>2017-06-11T13:31:19.000Z</time>
      </trkpt>
      <trkpt lat="48.88202" lon="-0.32851">
        <ele>187.19999694824</ele>
        <time>2017-06-11T13:31:27.000Z</time>
      </trkpt>
      <trkpt lat="48.88209" lon="-0.32852">
        <ele>187.60000610352</ele>
        <time>2017-06-11T13:31:31.000Z</time>
      </trkpt>
      <trkpt lat="48.8821" lon="-0.32853">
        <ele>188</ele>
        <time>2017-06-11T13:31:32.000Z</time>
      </trkpt>
      <trkpt lat="48.88212" lon="-0.32853">
        <ele>188.39999389648</ele>
        <time>2017-06-11T13:31:33.000Z</time>
      </trkpt>
      <trkpt lat="48.88213" lon="-0.32853">
        <ele>188.80000305176</ele>
        <time>2017-06-11T13:31:34.000Z</time>
      </trkpt>
      <trkpt lat="48.88215" lon="-0.32854">
        <ele>189.19999694824</ele>
        <time>2017-06-11T13:31:35.000Z</time>
      </trkpt>
      <trkpt lat="48.88221" lon="-0.32852">
        <ele>189.60000610352</ele>
        <time>2017-06-11T13:31:39.000Z</time>
      </trkpt>
      <trkpt lat="48.88223" lon="-0.32852">
        <ele>190.60000610352</ele>
        <time>2017-06-11T13:31:40.000Z</time>
      </trkpt>
      <trkpt lat="48.88224" lon="-0.32851">
        <ele>191</ele>
        <time>2017-06-11T13:31:41.000Z</time>
      </trkpt>
      <trkpt lat="48.88226" lon="-0.3285">
        <ele>191.39999389648</ele>
        <time>2017-06-11T13:31:42.000Z</time>
      </trkpt>
      <trkpt lat="48.88232" lon="-0.32849">
        <ele>191.80000305176</ele>
        <time>2017-06-11T13:31:45.000Z</time>
      </trkpt>
      <trkpt lat="48.88234" lon="-0.3285">
        <ele>192.39999389648</ele>
        <time>2017-06-11T13:31:46.000Z</time>
      </trkpt>
      <trkpt lat="48.88236" lon="-0.32852">
        <ele>192.80000305176</ele>
        <time>2017-06-11T13:31:47.000Z</time>
      </trkpt>
      <trkpt lat="48.88238" lon="-0.32852">
        <ele>193.19999694824</ele>
        <time>2017-06-11T13:31:48.000Z</time>
      </trkpt>
      <trkpt lat="48.88239" lon="-0.32853">
        <ele>193.60000610352</ele>
        <time>2017-06-11T13:31:49.000Z</time>
      </trkpt>
      <trkpt lat="48.88246" lon="-0.32855">
        <ele>193.60000610352</ele>
        <time>2017-06-11T13:31:53.000Z</time>
      </trkpt>
      <trkpt lat="48.8825" lon="-0.32857">
        <ele>194</ele>
        <time>2017-06-11T13:31:56.000Z</time>
      </trkpt>
      <trkpt lat="48.88252" lon="-0.32857">
        <ele>194.39999389648</ele>
        <time>2017-06-11T13:31:57.000Z</time>
      </trkpt>
      <trkpt lat="48.88253" lon="-0.32857">
        <ele>194.80000305176</ele>
        <time>2017-06-11T13:31:58.000Z</time>
      </trkpt>
      <trkpt lat="48.88254" lon="-0.32857">
        <ele>195.19999694824</ele>
        <time>2017-06-11T13:31:59.000Z</time>
      </trkpt>
      <trkpt lat="48.88256" lon="-0.32856">
        <ele>195.60000610352</ele>
        <time>2017-06-11T13:32:00.000Z</time>
      </trkpt>
      <trkpt lat="48.88263" lon="-0.32855">
        <ele>195.60000610352</ele>
        <time>2017-06-11T13:32:06.000Z</time>
      </trkpt>
      <trkpt lat="48.88264" lon="-0.32856">
        <ele>196.19999694824</ele>
        <time>2017-06-11T13:32:07.000Z</time>
      </trkpt>
      <trkpt lat="48.88265" lon="-0.32856">
        <ele>196.60000610352</ele>
        <time>2017-06-11T13:32:08.000Z</time>
      </trkpt>
      <trkpt lat="48.88267" lon="-0.32857">
        <ele>197</ele>
        <time>2017-06-11T13:32:09.000Z</time>
      </trkpt>
      <trkpt lat="48.88269" lon="-0.32857">
        <ele>197.39999389648</ele>
        <time>2017-06-11T13:32:10.000Z</time>
      </trkpt>
      <trkpt lat="48.8827" lon="-0.32857">
        <ele>197.80000305176</ele>
        <time>2017-06-11T13:32:11.000Z</time>
      </trkpt>
      <trkpt lat="48.88273" lon="-0.32856">
        <ele>197.80000305176</ele>
        <time>2017-06-11T13:32:13.000Z</time>
      </trkpt>
      <trkpt lat="48.88277" lon="-0.32857">
        <ele>197.80000305176</ele>
        <time>2017-06-11T13:32:16.000Z</time>
      </trkpt>
      <trkpt lat="48.88281" lon="-0.32858">
        <ele>197.80000305176</ele>
        <time>2017-06-11T13:32:18.000Z</time>
      </trkpt>
      <trkpt lat="48.88283" lon="-0.32859">
        <ele>198.19999694824</ele>
        <time>2017-06-11T13:32:19.000Z</time>
      </trkpt>
      <trkpt lat="48.88285" lon="-0.3286">
        <ele>198.60000610352</ele>
        <time>2017-06-11T13:32:20.000Z</time>
      </trkpt>
      <trkpt lat="48.88286" lon="-0.3286">
        <ele>199</ele>
        <time>2017-06-11T13:32:21.000Z</time>
      </trkpt>
      <trkpt lat="48.88287" lon="-0.32861">
        <ele>199.39999389648</ele>
        <time>2017-06-11T13:32:22.000Z</time>
      </trkpt>
      <trkpt lat="48.88289" lon="-0.32862">
        <ele>199.80000305176</ele>
        <time>2017-06-11T13:32:23.000Z</time>
      </trkpt>
      <trkpt lat="48.8829" lon="-0.32862">
        <ele>199.80000305176</ele>
        <time>2017-06-11T13:32:24.000Z</time>
      </trkpt>
      <trkpt lat="48.88301" lon="-0.32867">
        <ele>200.80000305176</ele>
        <time>2017-06-11T13:32:30.000Z</time>
      </trkpt>
      <trkpt lat="48.88302" lon="-0.32868">
        <ele>201.19999694824</ele>
        <time>2017-06-11T13:32:31.000Z</time>
      </trkpt>
      <trkpt lat="48.88303" lon="-0.32869">
        <ele>201.60000610352</ele>
        <time>2017-06-11T13:32:32.000Z</time>
      </trkpt>
      <trkpt lat="48.88303" lon="-0.3287">
        <ele>202</ele>
        <time>2017-06-11T13:32:33.000Z</time>
      </trkpt>
      <trkpt lat="48.88313" lon="-0.32874">
        <ele>202</ele>
        <time>2017-06-11T13:32:38.000Z</time>
      </trkpt>
      <trkpt lat="48.88325" lon="-0.32873">
        <ele>202</ele>
        <time>2017-06-11T13:32:43.000Z</time>
      </trkpt>
      <trkpt lat="48.88343" lon="-0.32867">
        <ele>202</ele>
        <time>2017-06-11T13:32:49.000Z</time>
      </trkpt>
      <trkpt lat="48.88363" lon="-0.32857">
        <ele>202</ele>
        <time>2017-06-11T13:32:55.000Z</time>
      </trkpt>
      <trkpt lat="48.88375" lon="-0.32855">
        <ele>202</ele>
        <time>2017-06-11T13:32:59.000Z</time>
      </trkpt>
      <trkpt lat="48.88379" lon="-0.32858">
        <ele>202</ele>
        <time>2017-06-11T13:33:01.000Z</time>
      </trkpt>
      <trkpt lat="48.8838" lon="-0.32861">
        <ele>202</ele>
        <time>2017-06-11T13:33:05.000Z</time>
      </trkpt>
      <trkpt lat="48.8838" lon="-0.32862">
        <ele>202</ele>
        <time>2017-06-11T13:33:06.000Z</time>
      </trkpt>
      <trkpt lat="48.8838" lon="-0.32862">
        <ele>202</ele>
        <time>2017-06-11T13:33:18.000Z</time>
      </trkpt>
      <trkpt lat="48.8838" lon="-0.32862">
        <ele>202</ele>
        <time>2017-06-11T13:33:32.000Z</time>
      </trkpt>
      <trkpt lat="48.8838" lon="-0.32862">
        <ele>202</ele>
        <time>2017-06-11T13:33:48.000Z</time>
      </trkpt>
      <trkpt lat="48.8838" lon="-0.32862">
        <ele>202</ele>
        <time>2017-06-11T13:34:05.000Z</time>
      </trkpt>
      <trkpt lat="48.8838" lon="-0.32862">
        <ele>202</ele>
        <time>2017-06-11T13:34:21.000Z</time>
      </trkpt>
      <trkpt lat="48.8838" lon="-0.32863">
        <ele>202</ele>
        <time>2017-06-11T13:34:40.000Z</time>
      </trkpt>
      <trkpt lat="48.8838" lon="-0.32863">
        <ele>202</ele>
        <time>2017-06-11T13:34:57.000Z</time>
      </trkpt>
      <trkpt lat="48.8838" lon="-0.32862">
        <ele>202</ele>
        <time>2017-06-11T13:35:11.000Z</time>
      </trkpt>
      <trkpt lat="48.8838" lon="-0.32862">
        <ele>202</ele>
        <time>2017-06-11T13:35:29.000Z</time>
      </trkpt>
      <trkpt lat="48.8838" lon="-0.32862">
        <ele>202</ele>
        <time>2017-06-11T13:35:42.000Z</time>
      </trkpt>
      <trkpt lat="48.88381" lon="-0.32862">
        <ele>202</ele>
        <time>2017-06-11T13:35:59.000Z</time>
      </trkpt>
      <trkpt lat="48.88381" lon="-0.32862">
        <ele>202</ele>
        <time>2017-06-11T13:36:18.000Z</time>
      </trkpt>
      <trkpt lat="48.88381" lon="-0.32862">
        <ele>202</ele>
        <time>2017-06-11T13:36:36.000Z</time>
      </trkpt>
      <trkpt lat="48.88381" lon="-0.32862">
        <ele>202</ele>
        <time>2017-06-11T13:36:55.000Z</time>
      </trkpt>
      <trkpt lat="48.88381" lon="-0.32863">
        <ele>202</ele>
        <time>2017-06-11T13:37:13.000Z</time>
      </trkpt>
      <trkpt lat="48.88381" lon="-0.32863">
        <ele>202</ele>
        <time>2017-06-11T13:37:28.000Z</time>
      </trkpt>
      <trkpt lat="48.88381" lon="-0.32863">
        <ele>202</ele>
        <time>2017-06-11T13:37:42.000Z</time>
      </trkpt>
      <trkpt lat="48.88381" lon="-0.32863">
        <ele>202</ele>
        <time>2017-06-11T13:37:45.000Z</time>
      </trkpt>
      <trkpt lat="48.88381" lon="-0.32863">
        <ele>202</ele>
        <time>2017-06-11T13:38:01.000Z</time>
      </trkpt>
      <trkpt lat="48.88381" lon="-0.32863">
        <ele>202</ele>
        <time>2017-06-11T13:38:16.000Z</time>
      </trkpt>
      <trkpt lat="48.88381" lon="-0.32863">
        <ele>202</ele>
        <time>2017-06-11T13:38:28.000Z</time>
      </trkpt>
      <trkpt lat="48.8838" lon="-0.32866">
        <ele>202</ele>
        <time>2017-06-11T13:38:35.000Z</time>
      </trkpt>
      <trkpt lat="48.8838" lon="-0.32868">
        <ele>202.39999389648</ele>
        <time>2017-06-11T13:38:36.000Z</time>
      </trkpt>
      <trkpt lat="48.88379" lon="-0.3287">
        <ele>202.80000305176</ele>
        <time>2017-06-11T13:38:37.000Z</time>
      </trkpt>
      <trkpt lat="48.88379" lon="-0.32871">
        <ele>203.19999694824</ele>
        <time>2017-06-11T13:38:38.000Z</time>
      </trkpt>
      <trkpt lat="48.88378" lon="-0.32873">
        <ele>203.60000610352</ele>
        <time>2017-06-11T13:38:39.000Z</time>
      </trkpt>
      <trkpt lat="48.88377" lon="-0.32875">
        <ele>204.19999694824</ele>
        <time>2017-06-11T13:38:40.000Z</time>
      </trkpt>
      <trkpt lat="48.88375" lon="-0.32879">
        <ele>204.19999694824</ele>
        <time>2017-06-11T13:38:42.000Z</time>
      </trkpt>
      <trkpt lat="48.88369" lon="-0.32893">
        <ele>204.60000610352</ele>
        <time>2017-06-11T13:38:48.000Z</time>
      </trkpt>
      <trkpt lat="48.88369" lon="-0.32894">
        <ele>205</ele>
        <time>2017-06-11T13:38:49.000Z</time>
      </trkpt>
      <trkpt lat="48.88368" lon="-0.32896">
        <ele>205.39999389648</ele>
        <time>2017-06-11T13:38:50.000Z</time>
      </trkpt>
      <trkpt lat="48.88366" lon="-0.32898">
        <ele>205.80000305176</ele>
        <time>2017-06-11T13:38:51.000Z</time>
      </trkpt>
      <trkpt lat="48.88366" lon="-0.329">
        <ele>206.19999694824</ele>
        <time>2017-06-11T13:38:52.000Z</time>
      </trkpt>
      <trkpt lat="48.88364" lon="-0.32905">
        <ele>206.19999694824</ele>
        <time>2017-06-11T13:38:55.000Z</time>
      </trkpt>
      <trkpt lat="48.88364" lon="-0.32912">
        <ele>206.60000610352</ele>
        <time>2017-06-11T13:38:59.000Z</time>
      </trkpt>
      <trkpt lat="48.88364" lon="-0.32913">
        <ele>207</ele>
        <time>2017-06-11T13:39:00.000Z</time>
      </trkpt>
      <trkpt lat="48.88364" lon="-0.32913">
        <ele>207.39999389648</ele>
        <time>2017-06-11T13:39:01.000Z</time>
      </trkpt>
      <trkpt lat="48.88363" lon="-0.32916">
        <ele>207.80000305176</ele>
        <time>2017-06-11T13:39:02.000Z</time>
      </trkpt>
      <trkpt lat="48.88362" lon="-0.32919">
        <ele>208.19999694824</ele>
        <time>2017-06-11T13:39:03.000Z</time>
      </trkpt>
      <trkpt lat="48.88359" lon="-0.3293">
        <ele>208.19999694824</ele>
        <time>2017-06-11T13:39:09.000Z</time>
      </trkpt>
      <trkpt lat="48.88359" lon="-0.32931">
        <ele>208.60000610352</ele>
        <time>2017-06-11T13:39:11.000Z</time>
      </trkpt>
      <trkpt lat="48.88359" lon="-0.32933">
        <ele>209</ele>
        <time>2017-06-11T13:39:12.000Z</time>
      </trkpt>
      <trkpt lat="48.88359" lon="-0.32935">
        <ele>209.60000610352</ele>
        <time>2017-06-11T13:39:13.000Z</time>
      </trkpt>
      <trkpt lat="48.88359" lon="-0.32937">
        <ele>210</ele>
        <time>2017-06-11T13:39:14.000Z</time>
      </trkpt>
      <trkpt lat="48.88358" lon="-0.32939">
        <ele>210.39999389648</ele>
        <time>2017-06-11T13:39:15.000Z</time>
      </trkpt>
      <trkpt lat="48.88358" lon="-0.32951">
        <ele>210.39999389648</ele>
        <time>2017-06-11T13:39:21.000Z</time>
      </trkpt>
      <trkpt lat="48.88358" lon="-0.32954">
        <ele>210.80000305176</ele>
        <time>2017-06-11T13:39:22.000Z</time>
      </trkpt>
      <trkpt lat="48.88358" lon="-0.32955">
        <ele>211.19999694824</ele>
        <time>2017-06-11T13:39:23.000Z</time>
      </trkpt>
      <trkpt lat="48.88358" lon="-0.32958">
        <ele>211.60000610352</ele>
        <time>2017-06-11T13:39:24.000Z</time>
      </trkpt>
      <trkpt lat="48.88358" lon="-0.3296">
        <ele>212</ele>
        <time>2017-06-11T13:39:25.000Z</time>
      </trkpt>
      <trkpt lat="48.88357" lon="-0.32962">
        <ele>212.39999389648</ele>
        <time>2017-06-11T13:39:26.000Z</time>
      </trkpt>
      <trkpt lat="48.88356" lon="-0.32965">
        <ele>212.39999389648</ele>
        <time>2017-06-11T13:39:28.000Z</time>
      </trkpt>
      <trkpt lat="48.88354" lon="-0.32977">
        <ele>213</ele>
        <time>2017-06-11T13:39:33.000Z</time>
      </trkpt>
      <trkpt lat="48.88354" lon="-0.3298">
        <ele>213.39999389648</ele>
        <time>2017-06-11T13:39:34.000Z</time>
      </trkpt>
      <trkpt lat="48.88354" lon="-0.32982">
        <ele>213.80000305176</ele>
        <time>2017-06-11T13:39:35.000Z</time>
      </trkpt>
      <trkpt lat="48.88354" lon="-0.32983">
        <ele>214.19999694824</ele>
        <time>2017-06-11T13:39:36.000Z</time>
      </trkpt>
      <trkpt lat="48.88353" lon="-0.32985">
        <ele>214.60000610352</ele>
        <time>2017-06-11T13:39:37.000Z</time>
      </trkpt>
      <trkpt lat="48.88351" lon="-0.3299">
        <ele>214.60000610352</ele>
        <time>2017-06-11T13:39:40.000Z</time>
      </trkpt>
      <trkpt lat="48.88349" lon="-0.32996">
        <ele>215</ele>
        <time>2017-06-11T13:39:45.000Z</time>
      </trkpt>
      <trkpt lat="48.88349" lon="-0.33">
        <ele>215.39999389648</ele>
        <time>2017-06-11T13:39:46.000Z</time>
      </trkpt>
      <trkpt lat="48.88349" lon="-0.33002">
        <ele>215.80000305176</ele>
        <time>2017-06-11T13:39:47.000Z</time>
      </trkpt>
      <trkpt lat="48.88349" lon="-0.33005">
        <ele>216.19999694824</ele>
        <time>2017-06-11T13:39:48.000Z</time>
      </trkpt>
      <trkpt lat="48.88348" lon="-0.33006">
        <ele>216.80000305176</ele>
        <time>2017-06-11T13:39:49.000Z</time>
      </trkpt>
      <trkpt lat="48.88347" lon="-0.33012">
        <ele>216.80000305176</ele>
        <time>2017-06-11T13:39:52.000Z</time>
      </trkpt>
      <trkpt lat="48.88347" lon="-0.33016">
        <ele>217.19999694824</ele>
        <time>2017-06-11T13:39:54.000Z</time>
      </trkpt>
      <trkpt lat="48.88346" lon="-0.33019">
        <ele>217.60000610352</ele>
        <time>2017-06-11T13:39:55.000Z</time>
      </trkpt>
      <trkpt lat="48.88346" lon="-0.3302">
        <ele>218</ele>
        <time>2017-06-11T13:39:56.000Z</time>
      </trkpt>
      <trkpt lat="48.88346" lon="-0.33021">
        <ele>218.39999389648</ele>
        <time>2017-06-11T13:39:57.000Z</time>
      </trkpt>
      <trkpt lat="48.88347" lon="-0.33023">
        <ele>218.80000305176</ele>
        <time>2017-06-11T13:39:58.000Z</time>
      </trkpt>
      <trkpt lat="48.88348" lon="-0.33028">
        <ele>218.80000305176</ele>
        <time>2017-06-11T13:40:04.000Z</time>
      </trkpt>
      <trkpt lat="48.88347" lon="-0.33034">
        <ele>218.80000305176</ele>
        <time>2017-06-11T13:40:10.000Z</time>
      </trkpt>
      <trkpt lat="48.88346" lon="-0.3304">
        <ele>219.19999694824</ele>
        <time>2017-06-11T13:40:16.000Z</time>
      </trkpt>
      <trkpt lat="48.88346" lon="-0.33042">
        <ele>219.80000305176</ele>
        <time>2017-06-11T13:40:17.000Z</time>
      </trkpt>
      <trkpt lat="48.88346" lon="-0.33044">
        <ele>220.19999694824</ele>
        <time>2017-06-11T13:40:18.000Z</time>
      </trkpt>
      <trkpt lat="48.88345" lon="-0.33045">
        <ele>221</ele>
        <time>2017-06-11T13:40:19.000Z</time>
      </trkpt>
      <trkpt lat="48.88346" lon="-0.33051">
        <ele>221</ele>
        <time>2017-06-11T13:40:23.000Z</time>
      </trkpt>
      <trkpt lat="48.88346" lon="-0.33057">
        <ele>221.39999389648</ele>
        <time>2017-06-11T13:40:28.000Z</time>
      </trkpt>
      <trkpt lat="48.88346" lon="-0.3306">
        <ele>221.80000305176</ele>
        <time>2017-06-11T13:40:29.000Z</time>
      </trkpt>
      <trkpt lat="48.88346" lon="-0.3306">
        <ele>222.19999694824</ele>
        <time>2017-06-11T13:40:30.000Z</time>
      </trkpt>
      <trkpt lat="48.88346" lon="-0.33062">
        <ele>222.60000610352</ele>
        <time>2017-06-11T13:40:31.000Z</time>
      </trkpt>
      <trkpt lat="48.88347" lon="-0.33064">
        <ele>223</ele>
        <time>2017-06-11T13:40:32.000Z</time>
      </trkpt>
      <trkpt lat="48.88347" lon="-0.33069">
        <ele>223</ele>
        <time>2017-06-11T13:40:36.000Z</time>
      </trkpt>
      <trkpt lat="48.88347" lon="-0.33077">
        <ele>223.39999389648</ele>
        <time>2017-06-11T13:40:40.000Z</time>
      </trkpt>
      <trkpt lat="48.88348" lon="-0.33079">
        <ele>223.80000305176</ele>
        <time>2017-06-11T13:40:41.000Z</time>
      </trkpt>
      <trkpt lat="48.88348" lon="-0.33081">
        <ele>224.19999694824</ele>
        <time>2017-06-11T13:40:42.000Z</time>
      </trkpt>
      <trkpt lat="48.88348" lon="-0.33082">
        <ele>224.80000305176</ele>
        <time>2017-06-11T13:40:43.000Z</time>
      </trkpt>
      <trkpt lat="48.88348" lon="-0.33083">
        <ele>225.19999694824</ele>
        <time>2017-06-11T13:40:44.000Z</time>
      </trkpt>
      <trkpt lat="48.88344" lon="-0.33092">
        <ele>225.19999694824</ele>
        <time>2017-06-11T13:40:50.000Z</time>
      </trkpt>
      <trkpt lat="48.88344" lon="-0.33094">
        <ele>225.60000610352</ele>
        <time>2017-06-11T13:40:52.000Z</time>
      </trkpt>
      <trkpt lat="48.88343" lon="-0.33095">
        <ele>226</ele>
        <time>2017-06-11T13:40:53.000Z</time>
      </trkpt>
      <trkpt lat="48.88342" lon="-0.33096">
        <ele>226.39999389648</ele>
        <time>2017-06-11T13:40:54.000Z</time>
      </trkpt>
      <trkpt lat="48.88342" lon="-0.33098">
        <ele>226.80000305176</ele>
        <time>2017-06-11T13:40:55.000Z</time>
      </trkpt>
      <trkpt lat="48.88341" lon="-0.33099">
        <ele>227.19999694824</ele>
        <time>2017-06-11T13:40:56.000Z</time>
      </trkpt>
      <trkpt lat="48.88341" lon="-0.33099">
        <ele>227.19999694824</ele>
        <time>2017-06-11T13:40:57.000Z</time>
      </trkpt>
      <trkpt lat="48.88339" lon="-0.331">
        <ele>227.19999694824</ele>
        <time>2017-06-11T13:40:58.000Z</time>
      </trkpt>
      <trkpt lat="48.88335" lon="-0.33104">
        <ele>227.19999694824</ele>
        <time>2017-06-11T13:41:05.000Z</time>
      </trkpt>
      <trkpt lat="48.88331" lon="-0.33107">
        <ele>227.19999694824</ele>
        <time>2017-06-11T13:41:13.000Z</time>
      </trkpt>
      <trkpt lat="48.8833" lon="-0.33108">
        <ele>227.60000610352</ele>
        <time>2017-06-11T13:41:14.000Z</time>
      </trkpt>
      <trkpt lat="48.88329" lon="-0.33108">
        <ele>228</ele>
        <time>2017-06-11T13:41:15.000Z</time>
      </trkpt>
      <trkpt lat="48.88328" lon="-0.33109">
        <ele>228.39999389648</ele>
        <time>2017-06-11T13:41:16.000Z</time>
      </trkpt>
      <trkpt lat="48.88327" lon="-0.33109">
        <ele>229</ele>
        <time>2017-06-11T13:41:17.000Z</time>
      </trkpt>
      <trkpt lat="48.88326" lon="-0.3311">
        <ele>229.39999389648</ele>
        <time>2017-06-11T13:41:18.000Z</time>
      </trkpt>
      <trkpt lat="48.88324" lon="-0.33111">
        <ele>229.39999389648</ele>
        <time>2017-06-11T13:41:20.000Z</time>
      </trkpt>
      <trkpt lat="48.8832" lon="-0.33113">
        <ele>229.80000305176</ele>
        <time>2017-06-11T13:41:25.000Z</time>
      </trkpt>
      <trkpt lat="48.88319" lon="-0.33114">
        <ele>230.19999694824</ele>
        <time>2017-06-11T13:41:26.000Z</time>
      </trkpt>
      <trkpt lat="48.88319" lon="-0.33114">
        <ele>230.60000610352</ele>
        <time>2017-06-11T13:41:27.000Z</time>
      </trkpt>
      <trkpt lat="48.88318" lon="-0.33114">
        <ele>231</ele>
        <time>2017-06-11T13:41:28.000Z</time>
      </trkpt>
      <trkpt lat="48.88317" lon="-0.33115">
        <ele>231.39999389648</ele>
        <time>2017-06-11T13:41:29.000Z</time>
      </trkpt>
      <trkpt lat="48.88312" lon="-0.33115">
        <ele>231.39999389648</ele>
        <time>2017-06-11T13:41:36.000Z</time>
      </trkpt>
      <trkpt lat="48.88302" lon="-0.33119">
        <ele>231.39999389648</ele>
        <time>2017-06-11T13:41:44.000Z</time>
      </trkpt>
      <trkpt lat="48.88301" lon="-0.33119">
        <ele>231.80000305176</ele>
        <time>2017-06-11T13:41:45.000Z</time>
      </trkpt>
      <trkpt lat="48.88299" lon="-0.3312">
        <ele>232.19999694824</ele>
        <time>2017-06-11T13:41:46.000Z</time>
      </trkpt>
      <trkpt lat="48.88298" lon="-0.3312">
        <ele>232.60000610352</ele>
        <time>2017-06-11T13:41:47.000Z</time>
      </trkpt>
      <trkpt lat="48.88296" lon="-0.33121">
        <ele>233</ele>
        <time>2017-06-11T13:41:48.000Z</time>
      </trkpt>
      <trkpt lat="48.88295" lon="-0.33121">
        <ele>233.39999389648</ele>
        <time>2017-06-11T13:41:49.000Z</time>
      </trkpt>
      <trkpt lat="48.88291" lon="-0.33123">
        <ele>233.39999389648</ele>
        <time>2017-06-11T13:41:52.000Z</time>
      </trkpt>
      <trkpt lat="48.88282" lon="-0.33128">
        <ele>233.39999389648</ele>
        <time>2017-06-11T13:42:00.000Z</time>
      </trkpt>
      <trkpt lat="48.88277" lon="-0.33137">
        <ele>233.39999389648</ele>
        <time>2017-06-11T13:42:07.000Z</time>
      </trkpt>
      <trkpt lat="48.88276" lon="-0.33142">
        <ele>233.39999389648</ele>
        <time>2017-06-11T13:42:13.000Z</time>
      </trkpt>
      <trkpt lat="48.88277" lon="-0.33148">
        <ele>233.39999389648</ele>
        <time>2017-06-11T13:42:24.000Z</time>
      </trkpt>
      <trkpt lat="48.88277" lon="-0.33151">
        <ele>233.39999389648</ele>
        <time>2017-06-11T13:42:29.000Z</time>
      </trkpt>
      <trkpt lat="48.88279" lon="-0.33161">
        <ele>233.39999389648</ele>
        <time>2017-06-11T13:42:34.000Z</time>
      </trkpt>
      <trkpt lat="48.88284" lon="-0.33184">
        <ele>233.39999389648</ele>
        <time>2017-06-11T13:42:42.000Z</time>
      </trkpt>
      <trkpt lat="48.88285" lon="-0.33187">
        <ele>234</ele>
        <time>2017-06-11T13:42:43.000Z</time>
      </trkpt>
      <trkpt lat="48.88286" lon="-0.33191">
        <ele>234.39999389648</ele>
        <time>2017-06-11T13:42:44.000Z</time>
      </trkpt>
      <trkpt lat="48.88286" lon="-0.33194">
        <ele>234.80000305176</ele>
        <time>2017-06-11T13:42:45.000Z</time>
      </trkpt>
      <trkpt lat="48.88287" lon="-0.33198">
        <ele>235.39999389648</ele>
        <time>2017-06-11T13:42:46.000Z</time>
      </trkpt>
      <trkpt lat="48.88288" lon="-0.33201">
        <ele>235.80000305176</ele>
        <time>2017-06-11T13:42:47.000Z</time>
      </trkpt>
      <trkpt lat="48.88289" lon="-0.33208">
        <ele>235.80000305176</ele>
        <time>2017-06-11T13:42:49.000Z</time>
      </trkpt>
      <trkpt lat="48.88292" lon="-0.33223">
        <ele>236.19999694824</ele>
        <time>2017-06-11T13:42:53.000Z</time>
      </trkpt>
      <trkpt lat="48.88293" lon="-0.33227">
        <ele>236.60000610352</ele>
        <time>2017-06-11T13:42:54.000Z</time>
      </trkpt>
      <trkpt lat="48.88293" lon="-0.33231">
        <ele>237</ele>
        <time>2017-06-11T13:42:55.000Z</time>
      </trkpt>
      <trkpt lat="48.88294" lon="-0.33235">
        <ele>237.39999389648</ele>
        <time>2017-06-11T13:42:56.000Z</time>
      </trkpt>
      <trkpt lat="48.88295" lon="-0.33239">
        <ele>237.80000305176</ele>
        <time>2017-06-11T13:42:57.000Z</time>
      </trkpt>
      <trkpt lat="48.88297" lon="-0.33246">
        <ele>237.80000305176</ele>
        <time>2017-06-11T13:42:59.000Z</time>
      </trkpt>
      <trkpt lat="48.88301" lon="-0.33266">
        <ele>237.80000305176</ele>
        <time>2017-06-11T13:43:04.000Z</time>
      </trkpt>
      <trkpt lat="48.88304" lon="-0.33281">
        <ele>237.80000305176</ele>
        <time>2017-06-11T13:43:08.000Z</time>
      </trkpt>
      <trkpt lat="48.8831" lon="-0.33313">
        <ele>237.80000305176</ele>
        <time>2017-06-11T13:43:17.000Z</time>
      </trkpt>
      <trkpt lat="48.88318" lon="-0.33358">
        <ele>237.80000305176</ele>
        <time>2017-06-11T13:43:28.000Z</time>
      </trkpt>
      <trkpt lat="48.88319" lon="-0.33362">
        <ele>238.19999694824</ele>
        <time>2017-06-11T13:43:29.000Z</time>
      </trkpt>
      <trkpt lat="48.88319" lon="-0.33366">
        <ele>238.60000610352</ele>
        <time>2017-06-11T13:43:30.000Z</time>
      </trkpt>
      <trkpt lat="48.8832" lon="-0.3337">
        <ele>239</ele>
        <time>2017-06-11T13:43:31.000Z</time>
      </trkpt>
      <trkpt lat="48.88321" lon="-0.33375">
        <ele>239.39999389648</ele>
        <time>2017-06-11T13:43:32.000Z</time>
      </trkpt>
      <trkpt lat="48.88322" lon="-0.33379">
        <ele>239.80000305176</ele>
        <time>2017-06-11T13:43:33.000Z</time>
      </trkpt>
      <trkpt lat="48.88323" lon="-0.33387">
        <ele>239.80000305176</ele>
        <time>2017-06-11T13:43:35.000Z</time>
      </trkpt>
      <trkpt lat="48.88329" lon="-0.3342">
        <ele>239.80000305176</ele>
        <time>2017-06-11T13:43:43.000Z</time>
      </trkpt>
      <trkpt lat="48.8833" lon="-0.33424">
        <ele>240.19999694824</ele>
        <time>2017-06-11T13:43:44.000Z</time>
      </trkpt>
      <trkpt lat="48.88331" lon="-0.33429">
        <ele>240.60000610352</ele>
        <time>2017-06-11T13:43:45.000Z</time>
      </trkpt>
      <trkpt lat="48.88331" lon="-0.33433">
        <ele>241</ele>
        <time>2017-06-11T13:43:46.000Z</time>
      </trkpt>
      <trkpt lat="48.88332" lon="-0.33438">
        <ele>241.60000610352</ele>
        <time>2017-06-11T13:43:47.000Z</time>
      </trkpt>
      <trkpt lat="48.88333" lon="-0.33443">
        <ele>242</ele>
        <time>2017-06-11T13:43:48.000Z</time>
      </trkpt>
      <trkpt lat="48.88335" lon="-0.33455">
        <ele>242</ele>
        <time>2017-06-11T13:43:51.000Z</time>
      </trkpt>
      <trkpt lat="48.88342" lon="-0.33495">
        <ele>242</ele>
        <time>2017-06-11T13:44:00.000Z</time>
      </trkpt>
      <trkpt lat="48.88348" lon="-0.33533">
        <ele>242</ele>
        <time>2017-06-11T13:44:08.000Z</time>
      </trkpt>
      <trkpt lat="48.88354" lon="-0.33564">
        <ele>242.39999389648</ele>
        <time>2017-06-11T13:44:14.000Z</time>
      </trkpt>
      <trkpt lat="48.88355" lon="-0.33569">
        <ele>242.80000305176</ele>
        <time>2017-06-11T13:44:15.000Z</time>
      </trkpt>
      <trkpt lat="48.88356" lon="-0.33575">
        <ele>243.19999694824</ele>
        <time>2017-06-11T13:44:16.000Z</time>
      </trkpt>
      <trkpt lat="48.88357" lon="-0.3358">
        <ele>243.60000610352</ele>
        <time>2017-06-11T13:44:17.000Z</time>
      </trkpt>
      <trkpt lat="48.88358" lon="-0.33586">
        <ele>244.19999694824</ele>
        <time>2017-06-11T13:44:18.000Z</time>
      </trkpt>
      <trkpt lat="48.88365" lon="-0.33627">
        <ele>244.19999694824</ele>
        <time>2017-06-11T13:44:26.000Z</time>
      </trkpt>
      <trkpt lat="48.88372" lon="-0.33669">
        <ele>244.19999694824</ele>
        <time>2017-06-11T13:44:34.000Z</time>
      </trkpt>
      <trkpt lat="48.88376" lon="-0.33699">
        <ele>244.19999694824</ele>
        <time>2017-06-11T13:44:41.000Z</time>
      </trkpt>
      <trkpt lat="48.88381" lon="-0.33728">
        <ele>244.19999694824</ele>
        <time>2017-06-11T13:44:48.000Z</time>
      </trkpt>
      <trkpt lat="48.88387" lon="-0.33768">
        <ele>244.60000610352</ele>
        <time>2017-06-11T13:44:56.000Z</time>
      </trkpt>
      <trkpt lat="48.88388" lon="-0.33774">
        <ele>245</ele>
        <time>2017-06-11T13:44:57.000Z</time>
      </trkpt>
      <trkpt lat="48.88389" lon="-0.3378">
        <ele>245.39999389648</ele>
        <time>2017-06-11T13:44:58.000Z</time>
      </trkpt>
      <trkpt lat="48.8839" lon="-0.33785">
        <ele>245.80000305176</ele>
        <time>2017-06-11T13:44:59.000Z</time>
      </trkpt>
      <trkpt lat="48.88392" lon="-0.3379">
        <ele>246.19999694824</ele>
        <time>2017-06-11T13:45:00.000Z</time>
      </trkpt>
      <trkpt lat="48.88395" lon="-0.33806">
        <ele>246.19999694824</ele>
        <time>2017-06-11T13:45:03.000Z</time>
      </trkpt>
      <trkpt lat="48.88403" lon="-0.3386">
        <ele>246.19999694824</ele>
        <time>2017-06-11T13:45:12.000Z</time>
      </trkpt>
      <trkpt lat="48.88409" lon="-0.33906">
        <ele>246.19999694824</ele>
        <time>2017-06-11T13:45:20.000Z</time>
      </trkpt>
      <trkpt lat="48.88416" lon="-0.33949">
        <ele>246.19999694824</ele>
        <time>2017-06-11T13:45:27.000Z</time>
      </trkpt>
      <trkpt lat="48.88421" lon="-0.33987">
        <ele>246.19999694824</ele>
        <time>2017-06-11T13:45:33.000Z</time>
      </trkpt>
      <trkpt lat="48.88427" lon="-0.34026">
        <ele>246.19999694824</ele>
        <time>2017-06-11T13:45:40.000Z</time>
      </trkpt>
      <trkpt lat="48.88433" lon="-0.34063">
        <ele>246.19999694824</ele>
        <time>2017-06-11T13:45:47.000Z</time>
      </trkpt>
      <trkpt lat="48.88438" lon="-0.34099">
        <ele>246.19999694824</ele>
        <time>2017-06-11T13:45:54.000Z</time>
      </trkpt>
      <trkpt lat="48.88445" lon="-0.34141">
        <ele>246.19999694824</ele>
        <time>2017-06-11T13:46:02.000Z</time>
      </trkpt>
      <trkpt lat="48.88453" lon="-0.34178">
        <ele>246.19999694824</ele>
        <time>2017-06-11T13:46:09.000Z</time>
      </trkpt>
      <trkpt lat="48.88457" lon="-0.34206">
        <ele>246.19999694824</ele>
        <time>2017-06-11T13:46:14.000Z</time>
      </trkpt>
      <trkpt lat="48.88463" lon="-0.34241">
        <ele>246.19999694824</ele>
        <time>2017-06-11T13:46:20.000Z</time>
      </trkpt>
      <trkpt lat="48.88468" lon="-0.34266">
        <ele>246.19999694824</ele>
        <time>2017-06-11T13:46:24.000Z</time>
      </trkpt>
      <trkpt lat="48.88468" lon="-0.34271">
        <ele>246.19999694824</ele>
        <time>2017-06-11T13:46:25.000Z</time>
      </trkpt>
      <trkpt lat="48.88472" lon="-0.34295">
        <ele>246.19999694824</ele>
        <time>2017-06-11T13:46:29.000Z</time>
      </trkpt>
      <trkpt lat="48.88473" lon="-0.34308">
        <ele>246.19999694824</ele>
        <time>2017-06-11T13:46:31.000Z</time>
      </trkpt>
      <trkpt lat="48.88477" lon="-0.3434">
        <ele>246.60000610352</ele>
        <time>2017-06-11T13:46:36.000Z</time>
      </trkpt>
      <trkpt lat="48.88478" lon="-0.34346">
        <ele>247</ele>
        <time>2017-06-11T13:46:37.000Z</time>
      </trkpt>
      <trkpt lat="48.88479" lon="-0.34352">
        <ele>247.39999389648</ele>
        <time>2017-06-11T13:46:38.000Z</time>
      </trkpt>
      <trkpt lat="48.8848" lon="-0.34358">
        <ele>247.80000305176</ele>
        <time>2017-06-11T13:46:39.000Z</time>
      </trkpt>
      <trkpt lat="48.88481" lon="-0.34364">
        <ele>248.19999694824</ele>
        <time>2017-06-11T13:46:40.000Z</time>
      </trkpt>
      <trkpt lat="48.88484" lon="-0.34388">
        <ele>248.19999694824</ele>
        <time>2017-06-11T13:46:44.000Z</time>
      </trkpt>
      <trkpt lat="48.88491" lon="-0.34431">
        <ele>248.19999694824</ele>
        <time>2017-06-11T13:46:51.000Z</time>
      </trkpt>
      <trkpt lat="48.88499" lon="-0.34471">
        <ele>248.19999694824</ele>
        <time>2017-06-11T13:46:58.000Z</time>
      </trkpt>
      <trkpt lat="48.88509" lon="-0.34509">
        <ele>248.19999694824</ele>
        <time>2017-06-11T13:47:06.000Z</time>
      </trkpt>
      <trkpt lat="48.88514" lon="-0.34524">
        <ele>248.19999694824</ele>
        <time>2017-06-11T13:47:12.000Z</time>
      </trkpt>
      <trkpt lat="48.88519" lon="-0.34544">
        <ele>248.19999694824</ele>
        <time>2017-06-11T13:47:17.000Z</time>
      </trkpt>
      <trkpt lat="48.88519" lon="-0.34548">
        <ele>248.19999694824</ele>
        <time>2017-06-11T13:47:18.000Z</time>
      </trkpt>
      <trkpt lat="48.88522" lon="-0.34562">
        <ele>248.19999694824</ele>
        <time>2017-06-11T13:47:23.000Z</time>
      </trkpt>
      <trkpt lat="48.88527" lon="-0.34589">
        <ele>248.19999694824</ele>
        <time>2017-06-11T13:47:30.000Z</time>
      </trkpt>
      <trkpt lat="48.8853" lon="-0.34612">
        <ele>248.19999694824</ele>
        <time>2017-06-11T13:47:36.000Z</time>
      </trkpt>
      <trkpt lat="48.88531" lon="-0.34626">
        <ele>248.60000610352</ele>
        <time>2017-06-11T13:47:41.000Z</time>
      </trkpt>
      <trkpt lat="48.88532" lon="-0.34629">
        <ele>249</ele>
        <time>2017-06-11T13:47:42.000Z</time>
      </trkpt>
      <trkpt lat="48.88533" lon="-0.3463">
        <ele>249.39999389648</ele>
        <time>2017-06-11T13:47:43.000Z</time>
      </trkpt>
      <trkpt lat="48.88534" lon="-0.34633">
        <ele>249.80000305176</ele>
        <time>2017-06-11T13:47:44.000Z</time>
      </trkpt>
      <trkpt lat="48.88534" lon="-0.34636">
        <ele>250.39999389648</ele>
        <time>2017-06-11T13:47:45.000Z</time>
      </trkpt>
      <trkpt lat="48.88534" lon="-0.3464">
        <ele>250.39999389648</ele>
        <time>2017-06-11T13:47:46.000Z</time>
      </trkpt>
      <trkpt lat="48.88534" lon="-0.34644">
        <ele>250.39999389648</ele>
        <time>2017-06-11T13:47:47.000Z</time>
      </trkpt>
      <trkpt lat="48.88536" lon="-0.34656">
        <ele>250.39999389648</ele>
        <time>2017-06-11T13:47:50.000Z</time>
      </trkpt>
      <trkpt lat="48.88537" lon="-0.3467">
        <ele>250.39999389648</ele>
        <time>2017-06-11T13:47:53.000Z</time>
      </trkpt>
      <trkpt lat="48.88537" lon="-0.34706">
        <ele>250.39999389648</ele>
        <time>2017-06-11T13:48:00.000Z</time>
      </trkpt>
      <trkpt lat="48.88544" lon="-0.34743">
        <ele>250.39999389648</ele>
        <time>2017-06-11T13:48:08.000Z</time>
      </trkpt>
      <trkpt lat="48.88543" lon="-0.34764">
        <ele>250.39999389648</ele>
        <time>2017-06-11T13:48:13.000Z</time>
      </trkpt>
      <trkpt lat="48.88543" lon="-0.34794">
        <ele>250.39999389648</ele>
        <time>2017-06-11T13:48:19.000Z</time>
      </trkpt>
      <trkpt lat="48.88543" lon="-0.34805">
        <ele>250.80000305176</ele>
        <time>2017-06-11T13:48:21.000Z</time>
      </trkpt>
      <trkpt lat="48.88544" lon="-0.34811">
        <ele>251.19999694824</ele>
        <time>2017-06-11T13:48:22.000Z</time>
      </trkpt>
      <trkpt lat="48.88544" lon="-0.34815">
        <ele>251.60000610352</ele>
        <time>2017-06-11T13:48:23.000Z</time>
      </trkpt>
      <trkpt lat="48.88545" lon="-0.34818">
        <ele>252</ele>
        <time>2017-06-11T13:48:24.000Z</time>
      </trkpt>
      <trkpt lat="48.88545" lon="-0.34822">
        <ele>252.39999389648</ele>
        <time>2017-06-11T13:48:25.000Z</time>
      </trkpt>
      <trkpt lat="48.88547" lon="-0.34848">
        <ele>252.39999389648</ele>
        <time>2017-06-11T13:48:30.000Z</time>
      </trkpt>
      <trkpt lat="48.88549" lon="-0.34861">
        <ele>252.39999389648</ele>
        <time>2017-06-11T13:48:34.000Z</time>
      </trkpt>
      <trkpt lat="48.88551" lon="-0.34874">
        <ele>252.39999389648</ele>
        <time>2017-06-11T13:48:37.000Z</time>
      </trkpt>
      <trkpt lat="48.88556" lon="-0.3489">
        <ele>252.39999389648</ele>
        <time>2017-06-11T13:48:42.000Z</time>
      </trkpt>
      <trkpt lat="48.88558" lon="-0.34907">
        <ele>252.39999389648</ele>
        <time>2017-06-11T13:48:48.000Z</time>
      </trkpt>
      <trkpt lat="48.88563" lon="-0.34931">
        <ele>252.39999389648</ele>
        <time>2017-06-11T13:48:55.000Z</time>
      </trkpt>
      <trkpt lat="48.88564" lon="-0.34953">
        <ele>252.39999389648</ele>
        <time>2017-06-11T13:49:00.000Z</time>
      </trkpt>
      <trkpt lat="48.88566" lon="-0.34971">
        <ele>252.39999389648</ele>
        <time>2017-06-11T13:49:05.000Z</time>
      </trkpt>
      <trkpt lat="48.88566" lon="-0.3499">
        <ele>252.39999389648</ele>
        <time>2017-06-11T13:49:12.000Z</time>
      </trkpt>
      <trkpt lat="48.88568" lon="-0.35003">
        <ele>252.39999389648</ele>
        <time>2017-06-11T13:49:20.000Z</time>
      </trkpt>
      <trkpt lat="48.88571" lon="-0.35012">
        <ele>252.39999389648</ele>
        <time>2017-06-11T13:49:26.000Z</time>
      </trkpt>
      <trkpt lat="48.88574" lon="-0.35021">
        <ele>252.39999389648</ele>
        <time>2017-06-11T13:49:33.000Z</time>
      </trkpt>
      <trkpt lat="48.88576" lon="-0.35028">
        <ele>252.39999389648</ele>
        <time>2017-06-11T13:49:38.000Z</time>
      </trkpt>
      <trkpt lat="48.88576" lon="-0.35033">
        <ele>252.39999389648</ele>
        <time>2017-06-11T13:49:39.000Z</time>
      </trkpt>
      <trkpt lat="48.88581" lon="-0.35054">
        <ele>252.80000305176</ele>
        <time>2017-06-11T13:49:42.000Z</time>
      </trkpt>
      <trkpt lat="48.88582" lon="-0.35061">
        <ele>253.60000610352</ele>
        <time>2017-06-11T13:49:43.000Z</time>
      </trkpt>
      <trkpt lat="48.88583" lon="-0.35066">
        <ele>254</ele>
        <time>2017-06-11T13:49:44.000Z</time>
      </trkpt>
      <trkpt lat="48.88586" lon="-0.35072">
        <ele>254.39999389648</ele>
        <time>2017-06-11T13:49:45.000Z</time>
      </trkpt>
      <trkpt lat="48.88592" lon="-0.35086">
        <ele>254.39999389648</ele>
        <time>2017-06-11T13:49:48.000Z</time>
      </trkpt>
      <trkpt lat="48.88602" lon="-0.35103">
        <ele>254.39999389648</ele>
        <time>2017-06-11T13:49:53.000Z</time>
      </trkpt>
      <trkpt lat="48.8861" lon="-0.35121">
        <ele>254.39999389648</ele>
        <time>2017-06-11T13:49:58.000Z</time>
      </trkpt>
      <trkpt lat="48.88616" lon="-0.35139">
        <ele>254.39999389648</ele>
        <time>2017-06-11T13:50:02.000Z</time>
      </trkpt>
      <trkpt lat="48.88625" lon="-0.35163">
        <ele>254.39999389648</ele>
        <time>2017-06-11T13:50:07.000Z</time>
      </trkpt>
      <trkpt lat="48.88629" lon="-0.35179">
        <ele>254.39999389648</ele>
        <time>2017-06-11T13:50:11.000Z</time>
      </trkpt>
      <trkpt lat="48.88629" lon="-0.35183">
        <ele>254.39999389648</ele>
        <time>2017-06-11T13:50:12.000Z</time>
      </trkpt>
      <trkpt lat="48.88633" lon="-0.352">
        <ele>254.39999389648</ele>
        <time>2017-06-11T13:50:15.000Z</time>
      </trkpt>
      <trkpt lat="48.88634" lon="-0.35206">
        <ele>254.39999389648</ele>
        <time>2017-06-11T13:50:16.000Z</time>
      </trkpt>
      <trkpt lat="48.88643" lon="-0.35243">
        <ele>254.39999389648</ele>
        <time>2017-06-11T13:50:22.000Z</time>
      </trkpt>
      <trkpt lat="48.88649" lon="-0.35279">
        <ele>254.39999389648</ele>
        <time>2017-06-11T13:50:27.000Z</time>
      </trkpt>
      <trkpt lat="48.8865" lon="-0.35294">
        <ele>254.39999389648</ele>
        <time>2017-06-11T13:50:29.000Z</time>
      </trkpt>
      <trkpt lat="48.88651" lon="-0.35318">
        <ele>254.39999389648</ele>
        <time>2017-06-11T13:50:32.000Z</time>
      </trkpt>
      <trkpt lat="48.88654" lon="-0.3535">
        <ele>254</ele>
        <time>2017-06-11T13:50:36.000Z</time>
      </trkpt>
      <trkpt lat="48.88655" lon="-0.35358">
        <ele>253.60000610352</ele>
        <time>2017-06-11T13:50:37.000Z</time>
      </trkpt>
      <trkpt lat="48.88656" lon="-0.35365">
        <ele>253.19999694824</ele>
        <time>2017-06-11T13:50:38.000Z</time>
      </trkpt>
      <trkpt lat="48.88657" lon="-0.35373">
        <ele>252.80000305176</ele>
        <time>2017-06-11T13:50:39.000Z</time>
      </trkpt>
      <trkpt lat="48.88659" lon="-0.35381">
        <ele>252.39999389648</ele>
        <time>2017-06-11T13:50:40.000Z</time>
      </trkpt>
      <trkpt lat="48.88661" lon="-0.35388">
        <ele>252</ele>
        <time>2017-06-11T13:50:41.000Z</time>
      </trkpt>
      <trkpt lat="48.88663" lon="-0.35394">
        <ele>251.60000610352</ele>
        <time>2017-06-11T13:50:42.000Z</time>
      </trkpt>
      <trkpt lat="48.88665" lon="-0.354">
        <ele>251.19999694824</ele>
        <time>2017-06-11T13:50:43.000Z</time>
      </trkpt>
      <trkpt lat="48.88668" lon="-0.35406">
        <ele>250.80000305176</ele>
        <time>2017-06-11T13:50:44.000Z</time>
      </trkpt>
      <trkpt lat="48.8867" lon="-0.35411">
        <ele>250.39999389648</ele>
        <time>2017-06-11T13:50:45.000Z</time>
      </trkpt>
      <trkpt lat="48.88674" lon="-0.35419">
        <ele>250.39999389648</ele>
        <time>2017-06-11T13:50:47.000Z</time>
      </trkpt>
      <trkpt lat="48.88676" lon="-0.35421">
        <ele>250.39999389648</ele>
        <time>2017-06-11T13:50:48.000Z</time>
      </trkpt>
      <trkpt lat="48.88688" lon="-0.3544">
        <ele>250.39999389648</ele>
        <time>2017-06-11T13:50:54.000Z</time>
      </trkpt>
      <trkpt lat="48.887" lon="-0.3546">
        <ele>250.80000305176</ele>
        <time>2017-06-11T13:50:59.000Z</time>
      </trkpt>
      <trkpt lat="48.88702" lon="-0.35464">
        <ele>251.19999694824</ele>
        <time>2017-06-11T13:51:00.000Z</time>
      </trkpt>
      <trkpt lat="48.88705" lon="-0.3547">
        <ele>251.60000610352</ele>
        <time>2017-06-11T13:51:01.000Z</time>
      </trkpt>
      <trkpt lat="48.88707" lon="-0.35476">
        <ele>252</ele>
        <time>2017-06-11T13:51:02.000Z</time>
      </trkpt>
      <trkpt lat="48.8871" lon="-0.35482">
        <ele>252.39999389648</ele>
        <time>2017-06-11T13:51:03.000Z</time>
      </trkpt>
      <trkpt lat="48.88714" lon="-0.35495">
        <ele>252.39999389648</ele>
        <time>2017-06-11T13:51:05.000Z</time>
      </trkpt>
      <trkpt lat="48.88726" lon="-0.35539">
        <ele>252.39999389648</ele>
        <time>2017-06-11T13:51:11.000Z</time>
      </trkpt>
      <trkpt lat="48.88729" lon="-0.35547">
        <ele>252.39999389648</ele>
        <time>2017-06-11T13:51:12.000Z</time>
      </trkpt>
      <trkpt lat="48.88732" lon="-0.35561">
        <ele>252.39999389648</ele>
        <time>2017-06-11T13:51:14.000Z</time>
      </trkpt>
      <trkpt lat="48.88738" lon="-0.35592">
        <ele>252.39999389648</ele>
        <time>2017-06-11T13:51:19.000Z</time>
      </trkpt>
      <trkpt lat="48.8874" lon="-0.35607">
        <ele>252.39999389648</ele>
        <time>2017-06-11T13:51:21.000Z</time>
      </trkpt>
      <trkpt lat="48.88744" lon="-0.35656">
        <ele>252</ele>
        <time>2017-06-11T13:51:27.000Z</time>
      </trkpt>
      <trkpt lat="48.88744" lon="-0.35665">
        <ele>251.39999389648</ele>
        <time>2017-06-11T13:51:28.000Z</time>
      </trkpt>
      <trkpt lat="48.88745" lon="-0.35674">
        <ele>251</ele>
        <time>2017-06-11T13:51:29.000Z</time>
      </trkpt>
      <trkpt lat="48.88745" lon="-0.35683">
        <ele>250.39999389648</ele>
        <time>2017-06-11T13:51:30.000Z</time>
      </trkpt>
      <trkpt lat="48.88745" lon="-0.35693">
        <ele>250</ele>
        <time>2017-06-11T13:51:31.000Z</time>
      </trkpt>
      <trkpt lat="48.88746" lon="-0.35703">
        <ele>249.60000610352</ele>
        <time>2017-06-11T13:51:32.000Z</time>
      </trkpt>
      <trkpt lat="48.88746" lon="-0.35713">
        <ele>249.19999694824</ele>
        <time>2017-06-11T13:51:33.000Z</time>
      </trkpt>
      <trkpt lat="48.88746" lon="-0.35723">
        <ele>248.80000305176</ele>
        <time>2017-06-11T13:51:34.000Z</time>
      </trkpt>
      <trkpt lat="48.88746" lon="-0.35732">
        <ele>248.39999389648</ele>
        <time>2017-06-11T13:51:35.000Z</time>
      </trkpt>
      <trkpt lat="48.88747" lon="-0.35742">
        <ele>248</ele>
        <time>2017-06-11T13:51:36.000Z</time>
      </trkpt>
      <trkpt lat="48.88749" lon="-0.35769">
        <ele>248</ele>
        <time>2017-06-11T13:51:39.000Z</time>
      </trkpt>
      <trkpt lat="48.88751" lon="-0.35801">
        <ele>248</ele>
        <time>2017-06-11T13:51:43.000Z</time>
      </trkpt>
      <trkpt lat="48.88751" lon="-0.35809">
        <ele>248</ele>
        <time>2017-06-11T13:51:44.000Z</time>
      </trkpt>
      <trkpt lat="48.88751" lon="-0.35859">
        <ele>247.60000610352</ele>
        <time>2017-06-11T13:51:50.000Z</time>
      </trkpt>
      <trkpt lat="48.88751" lon="-0.35867">
        <ele>247.19999694824</ele>
        <time>2017-06-11T13:51:51.000Z</time>
      </trkpt>
      <trkpt lat="48.8875" lon="-0.35875">
        <ele>246.80000305176</ele>
        <time>2017-06-11T13:51:52.000Z</time>
      </trkpt>
      <trkpt lat="48.88749" lon="-0.35883">
        <ele>246.39999389648</ele>
        <time>2017-06-11T13:51:53.000Z</time>
      </trkpt>
      <trkpt lat="48.88749" lon="-0.3589">
        <ele>246</ele>
        <time>2017-06-11T13:51:54.000Z</time>
      </trkpt>
      <trkpt lat="48.88746" lon="-0.35906">
        <ele>246</ele>
        <time>2017-06-11T13:51:56.000Z</time>
      </trkpt>
      <trkpt lat="48.88744" lon="-0.35914">
        <ele>246</ele>
        <time>2017-06-11T13:51:57.000Z</time>
      </trkpt>
      <trkpt lat="48.88738" lon="-0.3593">
        <ele>245.39999389648</ele>
        <time>2017-06-11T13:51:59.000Z</time>
      </trkpt>
      <trkpt lat="48.88735" lon="-0.35939">
        <ele>245</ele>
        <time>2017-06-11T13:52:00.000Z</time>
      </trkpt>
      <trkpt lat="48.88731" lon="-0.35948">
        <ele>244.39999389648</ele>
        <time>2017-06-11T13:52:01.000Z</time>
      </trkpt>
      <trkpt lat="48.88728" lon="-0.35957">
        <ele>244</ele>
        <time>2017-06-11T13:52:02.000Z</time>
      </trkpt>
      <trkpt lat="48.88725" lon="-0.35967">
        <ele>243.39999389648</ele>
        <time>2017-06-11T13:52:03.000Z</time>
      </trkpt>
      <trkpt lat="48.88714" lon="-0.36">
        <ele>243</ele>
        <time>2017-06-11T13:52:06.000Z</time>
      </trkpt>
      <trkpt lat="48.8871" lon="-0.36012">
        <ele>242.60000610352</ele>
        <time>2017-06-11T13:52:07.000Z</time>
      </trkpt>
      <trkpt lat="48.88706" lon="-0.36024">
        <ele>242.19999694824</ele>
        <time>2017-06-11T13:52:08.000Z</time>
      </trkpt>
      <trkpt lat="48.88702" lon="-0.36037">
        <ele>241.60000610352</ele>
        <time>2017-06-11T13:52:09.000Z</time>
      </trkpt>
      <trkpt lat="48.88698" lon="-0.36051">
        <ele>241.19999694824</ele>
        <time>2017-06-11T13:52:10.000Z</time>
      </trkpt>
      <trkpt lat="48.88688" lon="-0.36088">
        <ele>241.19999694824</ele>
        <time>2017-06-11T13:52:13.000Z</time>
      </trkpt>
      <trkpt lat="48.88674" lon="-0.3614">
        <ele>241.19999694824</ele>
        <time>2017-06-11T13:52:18.000Z</time>
      </trkpt>
      <trkpt lat="48.88666" lon="-0.36175">
        <ele>241.19999694824</ele>
        <time>2017-06-11T13:52:22.000Z</time>
      </trkpt>
      <trkpt lat="48.8866" lon="-0.36191">
        <ele>241.19999694824</ele>
        <time>2017-06-11T13:52:24.000Z</time>
      </trkpt>
      <trkpt lat="48.88641" lon="-0.36231">
        <ele>241.19999694824</ele>
        <time>2017-06-11T13:52:29.000Z</time>
      </trkpt>
      <trkpt lat="48.88638" lon="-0.36239">
        <ele>240.80000305176</ele>
        <time>2017-06-11T13:52:30.000Z</time>
      </trkpt>
      <trkpt lat="48.88635" lon="-0.36248">
        <ele>240.39999389648</ele>
        <time>2017-06-11T13:52:31.000Z</time>
      </trkpt>
      <trkpt lat="48.88632" lon="-0.36257">
        <ele>240</ele>
        <time>2017-06-11T13:52:32.000Z</time>
      </trkpt>
      <trkpt lat="48.88629" lon="-0.36267">
        <ele>239.60000610352</ele>
        <time>2017-06-11T13:52:33.000Z</time>
      </trkpt>
      <trkpt lat="48.88626" lon="-0.36276">
        <ele>239.19999694824</ele>
        <time>2017-06-11T13:52:34.000Z</time>
      </trkpt>
      <trkpt lat="48.8862" lon="-0.36297">
        <ele>239.19999694824</ele>
        <time>2017-06-11T13:52:36.000Z</time>
      </trkpt>
      <trkpt lat="48.886" lon="-0.36372">
        <ele>238.80000305176</ele>
        <time>2017-06-11T13:52:43.000Z</time>
      </trkpt>
      <trkpt lat="48.88598" lon="-0.3638">
        <ele>238.39999389648</ele>
        <time>2017-06-11T13:52:44.000Z</time>
      </trkpt>
      <trkpt lat="48.88595" lon="-0.36387">
        <ele>238</ele>
        <time>2017-06-11T13:52:45.000Z</time>
      </trkpt>
      <trkpt lat="48.88594" lon="-0.36393">
        <ele>237.60000610352</ele>
        <time>2017-06-11T13:52:46.000Z</time>
      </trkpt>
      <trkpt lat="48.88592" lon="-0.36399">
        <ele>237.19999694824</ele>
        <time>2017-06-11T13:52:47.000Z</time>
      </trkpt>
      <trkpt lat="48.88585" lon="-0.36427">
        <ele>237.19999694824</ele>
        <time>2017-06-11T13:52:52.000Z</time>
      </trkpt>
      <trkpt lat="48.88581" lon="-0.36438">
        <ele>236.80000305176</ele>
        <time>2017-06-11T13:52:55.000Z</time>
      </trkpt>
      <trkpt lat="48.88579" lon="-0.36441">
        <ele>236.39999389648</ele>
        <time>2017-06-11T13:52:56.000Z</time>
      </trkpt>
      <trkpt lat="48.88577" lon="-0.36444">
        <ele>236</ele>
        <time>2017-06-11T13:52:57.000Z</time>
      </trkpt>
      <trkpt lat="48.88574" lon="-0.36448">
        <ele>235.60000610352</ele>
        <time>2017-06-11T13:52:58.000Z</time>
      </trkpt>
      <trkpt lat="48.88572" lon="-0.36453">
        <ele>235.19999694824</ele>
        <time>2017-06-11T13:52:59.000Z</time>
      </trkpt>
      <trkpt lat="48.88567" lon="-0.36463">
        <ele>235.19999694824</ele>
        <time>2017-06-11T13:53:01.000Z</time>
      </trkpt>
      <trkpt lat="48.88549" lon="-0.36497">
        <ele>235.19999694824</ele>
        <time>2017-06-11T13:53:07.000Z</time>
      </trkpt>
      <trkpt lat="48.88529" lon="-0.36531">
        <ele>235.19999694824</ele>
        <time>2017-06-11T13:53:12.000Z</time>
      </trkpt>
      <trkpt lat="48.88526" lon="-0.36538">
        <ele>235.19999694824</ele>
        <time>2017-06-11T13:53:13.000Z</time>
      </trkpt>
      <trkpt lat="48.88512" lon="-0.36593">
        <ele>235.19999694824</ele>
        <time>2017-06-11T13:53:20.000Z</time>
      </trkpt>
      <trkpt lat="48.88494" lon="-0.36662">
        <ele>235.19999694824</ele>
        <time>2017-06-11T13:53:28.000Z</time>
      </trkpt>
      <trkpt lat="48.88492" lon="-0.3667">
        <ele>234.60000610352</ele>
        <time>2017-06-11T13:53:29.000Z</time>
      </trkpt>
      <trkpt lat="48.8849" lon="-0.36678">
        <ele>234.19999694824</ele>
        <time>2017-06-11T13:53:30.000Z</time>
      </trkpt>
      <trkpt lat="48.88488" lon="-0.36686">
        <ele>233.80000305176</ele>
        <time>2017-06-11T13:53:31.000Z</time>
      </trkpt>
      <trkpt lat="48.88486" lon="-0.36693">
        <ele>233.19999694824</ele>
        <time>2017-06-11T13:53:32.000Z</time>
      </trkpt>
      <trkpt lat="48.88485" lon="-0.367">
        <ele>232.80000305176</ele>
        <time>2017-06-11T13:53:33.000Z</time>
      </trkpt>
      <trkpt lat="48.88485" lon="-0.36707">
        <ele>232.80000305176</ele>
        <time>2017-06-11T13:53:34.000Z</time>
      </trkpt>
      <trkpt lat="48.88484" lon="-0.36714">
        <ele>232.80000305176</ele>
        <time>2017-06-11T13:53:35.000Z</time>
      </trkpt>
      <trkpt lat="48.88481" lon="-0.36735">
        <ele>232.39999389648</ele>
        <time>2017-06-11T13:53:38.000Z</time>
      </trkpt>
      <trkpt lat="48.8848" lon="-0.36742">
        <ele>231.80000305176</ele>
        <time>2017-06-11T13:53:39.000Z</time>
      </trkpt>
      <trkpt lat="48.8848" lon="-0.36749">
        <ele>231.39999389648</ele>
        <time>2017-06-11T13:53:40.000Z</time>
      </trkpt>
      <trkpt lat="48.88479" lon="-0.36756">
        <ele>231</ele>
        <time>2017-06-11T13:53:41.000Z</time>
      </trkpt>
      <trkpt lat="48.88479" lon="-0.36764">
        <ele>230.60000610352</ele>
        <time>2017-06-11T13:53:42.000Z</time>
      </trkpt>
      <trkpt lat="48.88477" lon="-0.36809">
        <ele>230.60000610352</ele>
        <time>2017-06-11T13:53:48.000Z</time>
      </trkpt>
      <trkpt lat="48.88478" lon="-0.36853">
        <ele>230.60000610352</ele>
        <time>2017-06-11T13:53:55.000Z</time>
      </trkpt>
      <trkpt lat="48.88478" lon="-0.3687">
        <ele>230.19999694824</ele>
        <time>2017-06-11T13:53:58.000Z</time>
      </trkpt>
      <trkpt lat="48.88479" lon="-0.36876">
        <ele>229.80000305176</ele>
        <time>2017-06-11T13:53:59.000Z</time>
      </trkpt>
      <trkpt lat="48.88479" lon="-0.36882">
        <ele>229.39999389648</ele>
        <time>2017-06-11T13:54:00.000Z</time>
      </trkpt>
      <trkpt lat="48.8848" lon="-0.36888">
        <ele>229</ele>
        <time>2017-06-11T13:54:01.000Z</time>
      </trkpt>
      <trkpt lat="48.88479" lon="-0.36894">
        <ele>228.60000610352</ele>
        <time>2017-06-11T13:54:02.000Z</time>
      </trkpt>
      <trkpt lat="48.88476" lon="-0.36944">
        <ele>228.60000610352</ele>
        <time>2017-06-11T13:54:09.000Z</time>
      </trkpt>
      <trkpt lat="48.88474" lon="-0.36994">
        <ele>228.19999694824</ele>
        <time>2017-06-11T13:54:15.000Z</time>
      </trkpt>
      <trkpt lat="48.88475" lon="-0.37001">
        <ele>227.19999694824</ele>
        <time>2017-06-11T13:54:16.000Z</time>
      </trkpt>
      <trkpt lat="48.88475" lon="-0.37008">
        <ele>226.80000305176</ele>
        <time>2017-06-11T13:54:17.000Z</time>
      </trkpt>
      <trkpt lat="48.88476" lon="-0.37014">
        <ele>226.39999389648</ele>
        <time>2017-06-11T13:54:18.000Z</time>
      </trkpt>
      <trkpt lat="48.8848" lon="-0.37027">
        <ele>226.39999389648</ele>
        <time>2017-06-11T13:54:20.000Z</time>
      </trkpt>
      <trkpt lat="48.88481" lon="-0.37035">
        <ele>226.39999389648</ele>
        <time>2017-06-11T13:54:21.000Z</time>
      </trkpt>
      <trkpt lat="48.88483" lon="-0.37052">
        <ele>226</ele>
        <time>2017-06-11T13:54:23.000Z</time>
      </trkpt>
      <trkpt lat="48.88482" lon="-0.37062">
        <ele>225.39999389648</ele>
        <time>2017-06-11T13:54:24.000Z</time>
      </trkpt>
      <trkpt lat="48.88482" lon="-0.3707">
        <ele>224.80000305176</ele>
        <time>2017-06-11T13:54:25.000Z</time>
      </trkpt>
      <trkpt lat="48.8848" lon="-0.37078">
        <ele>224</ele>
        <time>2017-06-11T13:54:26.000Z</time>
      </trkpt>
      <trkpt lat="48.88477" lon="-0.37085">
        <ele>223.19999694824</ele>
        <time>2017-06-11T13:54:27.000Z</time>
      </trkpt>
      <trkpt lat="48.88476" lon="-0.37093">
        <ele>222.19999694824</ele>
        <time>2017-06-11T13:54:28.000Z</time>
      </trkpt>
      <trkpt lat="48.88475" lon="-0.37101">
        <ele>221.39999389648</ele>
        <time>2017-06-11T13:54:29.000Z</time>
      </trkpt>
      <trkpt lat="48.88474" lon="-0.37109">
        <ele>220.60000610352</ele>
        <time>2017-06-11T13:54:30.000Z</time>
      </trkpt>
      <trkpt lat="48.88474" lon="-0.37118">
        <ele>219.80000305176</ele>
        <time>2017-06-11T13:54:31.000Z</time>
      </trkpt>
      <trkpt lat="48.88474" lon="-0.37128">
        <ele>219</ele>
        <time>2017-06-11T13:54:32.000Z</time>
      </trkpt>
      <trkpt lat="48.88473" lon="-0.37137">
        <ele>218.19999694824</ele>
        <time>2017-06-11T13:54:33.000Z</time>
      </trkpt>
      <trkpt lat="48.88473" lon="-0.37147">
        <ele>217.60000610352</ele>
        <time>2017-06-11T13:54:34.000Z</time>
      </trkpt>
      <trkpt lat="48.88473" lon="-0.37157">
        <ele>216.80000305176</ele>
        <time>2017-06-11T13:54:35.000Z</time>
      </trkpt>
      <trkpt lat="48.88473" lon="-0.37166">
        <ele>216.19999694824</ele>
        <time>2017-06-11T13:54:36.000Z</time>
      </trkpt>
      <trkpt lat="48.88473" lon="-0.37175">
        <ele>215.60000610352</ele>
        <time>2017-06-11T13:54:37.000Z</time>
      </trkpt>
      <trkpt lat="48.88474" lon="-0.37184">
        <ele>215</ele>
        <time>2017-06-11T13:54:38.000Z</time>
      </trkpt>
      <trkpt lat="48.88475" lon="-0.37193">
        <ele>214.39999389648</ele>
        <time>2017-06-11T13:54:39.000Z</time>
      </trkpt>
      <trkpt lat="48.88476" lon="-0.37201">
        <ele>213</ele>
        <time>2017-06-11T13:54:40.000Z</time>
      </trkpt>
      <trkpt lat="48.88478" lon="-0.3721">
        <ele>212.19999694824</ele>
        <time>2017-06-11T13:54:41.000Z</time>
      </trkpt>
      <trkpt lat="48.88481" lon="-0.37218">
        <ele>211.39999389648</ele>
        <time>2017-06-11T13:54:42.000Z</time>
      </trkpt>
      <trkpt lat="48.88483" lon="-0.37226">
        <ele>210.80000305176</ele>
        <time>2017-06-11T13:54:43.000Z</time>
      </trkpt>
      <trkpt lat="48.88485" lon="-0.37234">
        <ele>210</ele>
        <time>2017-06-11T13:54:44.000Z</time>
      </trkpt>
      <trkpt lat="48.88487" lon="-0.37241">
        <ele>209.19999694824</ele>
        <time>2017-06-11T13:54:45.000Z</time>
      </trkpt>
      <trkpt lat="48.8849" lon="-0.37248">
        <ele>208.19999694824</ele>
        <time>2017-06-11T13:54:46.000Z</time>
      </trkpt>
      <trkpt lat="48.88493" lon="-0.37255">
        <ele>207.39999389648</ele>
        <time>2017-06-11T13:54:47.000Z</time>
      </trkpt>
      <trkpt lat="48.88495" lon="-0.37262">
        <ele>206.60000610352</ele>
        <time>2017-06-11T13:54:48.000Z</time>
      </trkpt>
      <trkpt lat="48.88497" lon="-0.37269">
        <ele>206</ele>
        <time>2017-06-11T13:54:49.000Z</time>
      </trkpt>
      <trkpt lat="48.88498" lon="-0.37277">
        <ele>205.39999389648</ele>
        <time>2017-06-11T13:54:50.000Z</time>
      </trkpt>
      <trkpt lat="48.885" lon="-0.37285">
        <ele>204.60000610352</ele>
        <time>2017-06-11T13:54:51.000Z</time>
      </trkpt>
      <trkpt lat="48.88501" lon="-0.37292">
        <ele>204</ele>
        <time>2017-06-11T13:54:52.000Z</time>
      </trkpt>
      <trkpt lat="48.88502" lon="-0.373">
        <ele>203.39999389648</ele>
        <time>2017-06-11T13:54:53.000Z</time>
      </trkpt>
      <trkpt lat="48.88502" lon="-0.37309">
        <ele>202.80000305176</ele>
        <time>2017-06-11T13:54:54.000Z</time>
      </trkpt>
      <trkpt lat="48.88503" lon="-0.37319">
        <ele>202.19999694824</ele>
        <time>2017-06-11T13:54:55.000Z</time>
      </trkpt>
      <trkpt lat="48.88504" lon="-0.37329">
        <ele>201.60000610352</ele>
        <time>2017-06-11T13:54:56.000Z</time>
      </trkpt>
      <trkpt lat="48.88505" lon="-0.3734">
        <ele>200.80000305176</ele>
        <time>2017-06-11T13:54:57.000Z</time>
      </trkpt>
      <trkpt lat="48.88506" lon="-0.37352">
        <ele>200.19999694824</ele>
        <time>2017-06-11T13:54:58.000Z</time>
      </trkpt>
      <trkpt lat="48.88506" lon="-0.37363">
        <ele>199.39999389648</ele>
        <time>2017-06-11T13:54:59.000Z</time>
      </trkpt>
      <trkpt lat="48.88507" lon="-0.37375">
        <ele>198.60000610352</ele>
        <time>2017-06-11T13:55:00.000Z</time>
      </trkpt>
      <trkpt lat="48.88508" lon="-0.37386">
        <ele>197.80000305176</ele>
        <time>2017-06-11T13:55:01.000Z</time>
      </trkpt>
      <trkpt lat="48.88509" lon="-0.37397">
        <ele>197</ele>
        <time>2017-06-11T13:55:02.000Z</time>
      </trkpt>
      <trkpt lat="48.88509" lon="-0.37408">
        <ele>196</ele>
        <time>2017-06-11T13:55:03.000Z</time>
      </trkpt>
      <trkpt lat="48.8851" lon="-0.37418">
        <ele>195.19999694824</ele>
        <time>2017-06-11T13:55:04.000Z</time>
      </trkpt>
      <trkpt lat="48.88512" lon="-0.37428">
        <ele>193.60000610352</ele>
        <time>2017-06-11T13:55:05.000Z</time>
      </trkpt>
      <trkpt lat="48.88514" lon="-0.37438">
        <ele>192.80000305176</ele>
        <time>2017-06-11T13:55:06.000Z</time>
      </trkpt>
      <trkpt lat="48.88517" lon="-0.37447">
        <ele>192.19999694824</ele>
        <time>2017-06-11T13:55:07.000Z</time>
      </trkpt>
      <trkpt lat="48.88521" lon="-0.37455">
        <ele>191.39999389648</ele>
        <time>2017-06-11T13:55:08.000Z</time>
      </trkpt>
      <trkpt lat="48.88524" lon="-0.37463">
        <ele>190.39999389648</ele>
        <time>2017-06-11T13:55:09.000Z</time>
      </trkpt>
      <trkpt lat="48.88526" lon="-0.3747">
        <ele>189.60000610352</ele>
        <time>2017-06-11T13:55:10.000Z</time>
      </trkpt>
      <trkpt lat="48.88529" lon="-0.37476">
        <ele>188.80000305176</ele>
        <time>2017-06-11T13:55:11.000Z</time>
      </trkpt>
      <trkpt lat="48.88531" lon="-0.37482">
        <ele>188</ele>
        <time>2017-06-11T13:55:12.000Z</time>
      </trkpt>
      <trkpt lat="48.88532" lon="-0.37489">
        <ele>187.39999389648</ele>
        <time>2017-06-11T13:55:13.000Z</time>
      </trkpt>
      <trkpt lat="48.88531" lon="-0.37496">
        <ele>187</ele>
        <time>2017-06-11T13:55:14.000Z</time>
      </trkpt>
      <trkpt lat="48.88531" lon="-0.37502">
        <ele>186.39999389648</ele>
        <time>2017-06-11T13:55:15.000Z</time>
      </trkpt>
      <trkpt lat="48.88529" lon="-0.37508">
        <ele>186</ele>
        <time>2017-06-11T13:55:16.000Z</time>
      </trkpt>
      <trkpt lat="48.88527" lon="-0.37513">
        <ele>185.39999389648</ele>
        <time>2017-06-11T13:55:17.000Z</time>
      </trkpt>
      <trkpt lat="48.88526" lon="-0.3752">
        <ele>184.80000305176</ele>
        <time>2017-06-11T13:55:18.000Z</time>
      </trkpt>
      <trkpt lat="48.88525" lon="-0.37527">
        <ele>184.19999694824</ele>
        <time>2017-06-11T13:55:19.000Z</time>
      </trkpt>
      <trkpt lat="48.88524" lon="-0.37535">
        <ele>183.80000305176</ele>
        <time>2017-06-11T13:55:20.000Z</time>
      </trkpt>
      <trkpt lat="48.88525" lon="-0.37543">
        <ele>183.19999694824</ele>
        <time>2017-06-11T13:55:21.000Z</time>
      </trkpt>
      <trkpt lat="48.88525" lon="-0.37552">
        <ele>182.60000610352</ele>
        <time>2017-06-11T13:55:22.000Z</time>
      </trkpt>
      <trkpt lat="48.88527" lon="-0.37562">
        <ele>182.19999694824</ele>
        <time>2017-06-11T13:55:23.000Z</time>
      </trkpt>
      <trkpt lat="48.88528" lon="-0.37572">
        <ele>181.60000610352</ele>
        <time>2017-06-11T13:55:24.000Z</time>
      </trkpt>
      <trkpt lat="48.8853" lon="-0.37583">
        <ele>181.19999694824</ele>
        <time>2017-06-11T13:55:25.000Z</time>
      </trkpt>
      <trkpt lat="48.88531" lon="-0.37594">
        <ele>180.60000610352</ele>
        <time>2017-06-11T13:55:26.000Z</time>
      </trkpt>
      <trkpt lat="48.88533" lon="-0.37605">
        <ele>179.80000305176</ele>
        <time>2017-06-11T13:55:27.000Z</time>
      </trkpt>
      <trkpt lat="48.88536" lon="-0.37617">
        <ele>179</ele>
        <time>2017-06-11T13:55:28.000Z</time>
      </trkpt>
      <trkpt lat="48.8854" lon="-0.37629">
        <ele>178.19999694824</ele>
        <time>2017-06-11T13:55:29.000Z</time>
      </trkpt>
      <trkpt lat="48.88544" lon="-0.37641">
        <ele>176.60000610352</ele>
        <time>2017-06-11T13:55:30.000Z</time>
      </trkpt>
      <trkpt lat="48.88549" lon="-0.37652">
        <ele>175.60000610352</ele>
        <time>2017-06-11T13:55:31.000Z</time>
      </trkpt>
      <trkpt lat="48.88553" lon="-0.37663">
        <ele>174.60000610352</ele>
        <time>2017-06-11T13:55:32.000Z</time>
      </trkpt>
      <trkpt lat="48.88556" lon="-0.37672">
        <ele>173.60000610352</ele>
        <time>2017-06-11T13:55:33.000Z</time>
      </trkpt>
      <trkpt lat="48.88557" lon="-0.3768">
        <ele>172.60000610352</ele>
        <time>2017-06-11T13:55:34.000Z</time>
      </trkpt>
      <trkpt lat="48.88557" lon="-0.37687">
        <ele>171.60000610352</ele>
        <time>2017-06-11T13:55:35.000Z</time>
      </trkpt>
      <trkpt lat="48.88556" lon="-0.37693">
        <ele>170.60000610352</ele>
        <time>2017-06-11T13:55:36.000Z</time>
      </trkpt>
      <trkpt lat="48.88555" lon="-0.37698">
        <ele>169.39999389648</ele>
        <time>2017-06-11T13:55:37.000Z</time>
      </trkpt>
      <trkpt lat="48.88554" lon="-0.37702">
        <ele>168.39999389648</ele>
        <time>2017-06-11T13:55:38.000Z</time>
      </trkpt>
      <trkpt lat="48.88548" lon="-0.37714">
        <ele>168.39999389648</ele>
        <time>2017-06-11T13:55:42.000Z</time>
      </trkpt>
      <trkpt lat="48.88533" lon="-0.37734">
        <ele>168.39999389648</ele>
        <time>2017-06-11T13:55:49.000Z</time>
      </trkpt>
      <trkpt lat="48.88524" lon="-0.37745">
        <ele>168.80000305176</ele>
        <time>2017-06-11T13:55:53.000Z</time>
      </trkpt>
      <trkpt lat="48.88521" lon="-0.37748">
        <ele>169.60000610352</ele>
        <time>2017-06-11T13:55:54.000Z</time>
      </trkpt>
      <trkpt lat="48.88518" lon="-0.3775">
        <ele>170</ele>
        <time>2017-06-11T13:55:55.000Z</time>
      </trkpt>
      <trkpt lat="48.88516" lon="-0.37753">
        <ele>170.39999389648</ele>
        <time>2017-06-11T13:55:56.000Z</time>
      </trkpt>
      <trkpt lat="48.88498" lon="-0.37767">
        <ele>170.80000305176</ele>
        <time>2017-06-11T13:56:03.000Z</time>
      </trkpt>
      <trkpt lat="48.88495" lon="-0.37769">
        <ele>171.39999389648</ele>
        <time>2017-06-11T13:56:04.000Z</time>
      </trkpt>
      <trkpt lat="48.88493" lon="-0.3777">
        <ele>171.80000305176</ele>
        <time>2017-06-11T13:56:05.000Z</time>
      </trkpt>
      <trkpt lat="48.8849" lon="-0.37772">
        <ele>172.19999694824</ele>
        <time>2017-06-11T13:56:06.000Z</time>
      </trkpt>
      <trkpt lat="48.88487" lon="-0.37774">
        <ele>172.60000610352</ele>
        <time>2017-06-11T13:56:07.000Z</time>
      </trkpt>
      <trkpt lat="48.88478" lon="-0.37779">
        <ele>172.60000610352</ele>
        <time>2017-06-11T13:56:10.000Z</time>
      </trkpt>
      <trkpt lat="48.88453" lon="-0.37785">
        <ele>172.60000610352</ele>
        <time>2017-06-11T13:56:17.000Z</time>
      </trkpt>
      <trkpt lat="48.88423" lon="-0.37786">
        <ele>172.60000610352</ele>
        <time>2017-06-11T13:56:25.000Z</time>
      </trkpt>
      <trkpt lat="48.88395" lon="-0.37779">
        <ele>172.60000610352</ele>
        <time>2017-06-11T13:56:32.000Z</time>
      </trkpt>
      <trkpt lat="48.88363" lon="-0.37765">
        <ele>172.60000610352</ele>
        <time>2017-06-11T13:56:38.000Z</time>
      </trkpt>
      <trkpt lat="48.8835" lon="-0.37762">
        <ele>172.60000610352</ele>
        <time>2017-06-11T13:56:40.000Z</time>
      </trkpt>
      <trkpt lat="48.88343" lon="-0.37763">
        <ele>172.19999694824</ele>
        <time>2017-06-11T13:56:41.000Z</time>
      </trkpt>
      <trkpt lat="48.88337" lon="-0.37764">
        <ele>171.60000610352</ele>
        <time>2017-06-11T13:56:42.000Z</time>
      </trkpt>
      <trkpt lat="48.8833" lon="-0.37767">
        <ele>171.19999694824</ele>
        <time>2017-06-11T13:56:43.000Z</time>
      </trkpt>
      <trkpt lat="48.88324" lon="-0.37769">
        <ele>170.19999694824</ele>
        <time>2017-06-11T13:56:44.000Z</time>
      </trkpt>
      <trkpt lat="48.88318" lon="-0.37772">
        <ele>169.60000610352</ele>
        <time>2017-06-11T13:56:45.000Z</time>
      </trkpt>
      <trkpt lat="48.88312" lon="-0.37773">
        <ele>169</ele>
        <time>2017-06-11T13:56:46.000Z</time>
      </trkpt>
      <trkpt lat="48.88306" lon="-0.37773">
        <ele>168.39999389648</ele>
        <time>2017-06-11T13:56:47.000Z</time>
      </trkpt>
      <trkpt lat="48.88301" lon="-0.37772">
        <ele>167.80000305176</ele>
        <time>2017-06-11T13:56:48.000Z</time>
      </trkpt>
      <trkpt lat="48.8829" lon="-0.37767">
        <ele>167.39999389648</ele>
        <time>2017-06-11T13:56:50.000Z</time>
      </trkpt>
      <trkpt lat="48.88285" lon="-0.37763">
        <ele>166.80000305176</ele>
        <time>2017-06-11T13:56:51.000Z</time>
      </trkpt>
      <trkpt lat="48.8828" lon="-0.37758">
        <ele>166.39999389648</ele>
        <time>2017-06-11T13:56:52.000Z</time>
      </trkpt>
      <trkpt lat="48.88273" lon="-0.37751">
        <ele>166</ele>
        <time>2017-06-11T13:56:53.000Z</time>
      </trkpt>
      <trkpt lat="48.88267" lon="-0.37745">
        <ele>165.60000610352</ele>
        <time>2017-06-11T13:56:54.000Z</time>
      </trkpt>
      <trkpt lat="48.8826" lon="-0.37738">
        <ele>165.60000610352</ele>
        <time>2017-06-11T13:56:55.000Z</time>
      </trkpt>
      <trkpt lat="48.88241" lon="-0.37715">
        <ele>165</ele>
        <time>2017-06-11T13:56:58.000Z</time>
      </trkpt>
      <trkpt lat="48.88234" lon="-0.37707">
        <ele>164.60000610352</ele>
        <time>2017-06-11T13:56:59.000Z</time>
      </trkpt>
      <trkpt lat="48.88226" lon="-0.377">
        <ele>164.19999694824</ele>
        <time>2017-06-11T13:57:00.000Z</time>
      </trkpt>
      <trkpt lat="48.88217" lon="-0.37692">
        <ele>163.80000305176</ele>
        <time>2017-06-11T13:57:01.000Z</time>
      </trkpt>
      <trkpt lat="48.88209" lon="-0.37685">
        <ele>163.39999389648</ele>
        <time>2017-06-11T13:57:02.000Z</time>
      </trkpt>
      <trkpt lat="48.88186" lon="-0.37666">
        <ele>163.39999389648</ele>
        <time>2017-06-11T13:57:05.000Z</time>
      </trkpt>
      <trkpt lat="48.8816" lon="-0.37648">
        <ele>163.39999389648</ele>
        <time>2017-06-11T13:57:09.000Z</time>
      </trkpt>
      <trkpt lat="48.88149" lon="-0.37641">
        <ele>163.39999389648</ele>
        <time>2017-06-11T13:57:11.000Z</time>
      </trkpt>
      <trkpt lat="48.88135" lon="-0.37637">
        <ele>163.39999389648</ele>
        <time>2017-06-11T13:57:14.000Z</time>
      </trkpt>
      <trkpt lat="48.88127" lon="-0.37639">
        <ele>163.39999389648</ele>
        <time>2017-06-11T13:57:16.000Z</time>
      </trkpt>
      <trkpt lat="48.8812" lon="-0.37642">
        <ele>163.39999389648</ele>
        <time>2017-06-11T13:57:18.000Z</time>
      </trkpt>
      <trkpt lat="48.88105" lon="-0.37654">
        <ele>163.39999389648</ele>
        <time>2017-06-11T13:57:24.000Z</time>
      </trkpt>
      <trkpt lat="48.88095" lon="-0.37662">
        <ele>163.39999389648</ele>
        <time>2017-06-11T13:57:29.000Z</time>
      </trkpt>
      <trkpt lat="48.8809" lon="-0.37664">
        <ele>163.80000305176</ele>
        <time>2017-06-11T13:57:31.000Z</time>
      </trkpt>
      <trkpt lat="48.88088" lon="-0.37666">
        <ele>164.19999694824</ele>
        <time>2017-06-11T13:57:32.000Z</time>
      </trkpt>
      <trkpt lat="48.88086" lon="-0.37667">
        <ele>165</ele>
        <time>2017-06-11T13:57:33.000Z</time>
      </trkpt>
      <trkpt lat="48.88084" lon="-0.37669">
        <ele>165.39999389648</ele>
        <time>2017-06-11T13:57:34.000Z</time>
      </trkpt>
      <trkpt lat="48.88082" lon="-0.3767">
        <ele>165.39999389648</ele>
        <time>2017-06-11T13:57:35.000Z</time>
      </trkpt>
      <trkpt lat="48.88079" lon="-0.37673">
        <ele>165.80000305176</ele>
        <time>2017-06-11T13:57:37.000Z</time>
      </trkpt>
      <trkpt lat="48.88077" lon="-0.37674">
        <ele>166.19999694824</ele>
        <time>2017-06-11T13:57:38.000Z</time>
      </trkpt>
      <trkpt lat="48.88076" lon="-0.37675">
        <ele>166.60000610352</ele>
        <time>2017-06-11T13:57:39.000Z</time>
      </trkpt>
      <trkpt lat="48.88074" lon="-0.37677">
        <ele>167</ele>
        <time>2017-06-11T13:57:40.000Z</time>
      </trkpt>
      <trkpt lat="48.88073" lon="-0.37678">
        <ele>167.60000610352</ele>
        <time>2017-06-11T13:57:41.000Z</time>
      </trkpt>
      <trkpt lat="48.88071" lon="-0.3768">
        <ele>167.60000610352</ele>
        <time>2017-06-11T13:57:42.000Z</time>
      </trkpt>
      <trkpt lat="48.88066" lon="-0.37683">
        <ele>168</ele>
        <time>2017-06-11T13:57:45.000Z</time>
      </trkpt>
      <trkpt lat="48.88065" lon="-0.37685">
        <ele>168.39999389648</ele>
        <time>2017-06-11T13:57:46.000Z</time>
      </trkpt>
      <trkpt lat="48.88063" lon="-0.37686">
        <ele>168.80000305176</ele>
        <time>2017-06-11T13:57:47.000Z</time>
      </trkpt>
      <trkpt lat="48.88061" lon="-0.37688">
        <ele>169.19999694824</ele>
        <time>2017-06-11T13:57:48.000Z</time>
      </trkpt>
      <trkpt lat="48.8806" lon="-0.37689">
        <ele>169.60000610352</ele>
        <time>2017-06-11T13:57:49.000Z</time>
      </trkpt>
      <trkpt lat="48.88054" lon="-0.37695">
        <ele>169.60000610352</ele>
        <time>2017-06-11T13:57:53.000Z</time>
      </trkpt>
      <trkpt lat="48.8805" lon="-0.37697">
        <ele>170</ele>
        <time>2017-06-11T13:57:55.000Z</time>
      </trkpt>
      <trkpt lat="48.88048" lon="-0.37699">
        <ele>170.39999389648</ele>
        <time>2017-06-11T13:57:56.000Z</time>
      </trkpt>
      <trkpt lat="48.88046" lon="-0.37701">
        <ele>170.80000305176</ele>
        <time>2017-06-11T13:57:57.000Z</time>
      </trkpt>
      <trkpt lat="48.88045" lon="-0.37702">
        <ele>171.60000610352</ele>
        <time>2017-06-11T13:57:58.000Z</time>
      </trkpt>
      <trkpt lat="48.88043" lon="-0.37704">
        <ele>171.60000610352</ele>
        <time>2017-06-11T13:58:00.000Z</time>
      </trkpt>
      <trkpt lat="48.88034" lon="-0.37714">
        <ele>172</ele>
        <time>2017-06-11T13:58:06.000Z</time>
      </trkpt>
      <trkpt lat="48.88032" lon="-0.37716">
        <ele>172.60000610352</ele>
        <time>2017-06-11T13:58:07.000Z</time>
      </trkpt>
      <trkpt lat="48.88031" lon="-0.37717">
        <ele>173</ele>
        <time>2017-06-11T13:58:08.000Z</time>
      </trkpt>
      <trkpt lat="48.88029" lon="-0.37719">
        <ele>173.39999389648</ele>
        <time>2017-06-11T13:58:09.000Z</time>
      </trkpt>
      <trkpt lat="48.88028" lon="-0.37721">
        <ele>173.80000305176</ele>
        <time>2017-06-11T13:58:10.000Z</time>
      </trkpt>
      <trkpt lat="48.88023" lon="-0.37725">
        <ele>173.80000305176</ele>
        <time>2017-06-11T13:58:13.000Z</time>
      </trkpt>
      <trkpt lat="48.88018" lon="-0.37734">
        <ele>174.19999694824</ele>
        <time>2017-06-11T13:58:18.000Z</time>
      </trkpt>
      <trkpt lat="48.88017" lon="-0.37736">
        <ele>174.60000610352</ele>
        <time>2017-06-11T13:58:19.000Z</time>
      </trkpt>
      <trkpt lat="48.88016" lon="-0.37738">
        <ele>175</ele>
        <time>2017-06-11T13:58:20.000Z</time>
      </trkpt>
      <trkpt lat="48.88015" lon="-0.37739">
        <ele>175.39999389648</ele>
        <time>2017-06-11T13:58:21.000Z</time>
      </trkpt>
      <trkpt lat="48.88014" lon="-0.3774">
        <ele>175.80000305176</ele>
        <time>2017-06-11T13:58:22.000Z</time>
      </trkpt>
      <trkpt lat="48.88008" lon="-0.37749">
        <ele>175.80000305176</ele>
        <time>2017-06-11T13:58:27.000Z</time>
      </trkpt>
      <trkpt lat="48.88007" lon="-0.3775">
        <ele>176.39999389648</ele>
        <time>2017-06-11T13:58:28.000Z</time>
      </trkpt>
      <trkpt lat="48.88006" lon="-0.37752">
        <ele>176.80000305176</ele>
        <time>2017-06-11T13:58:29.000Z</time>
      </trkpt>
      <trkpt lat="48.88006" lon="-0.37753">
        <ele>177.19999694824</ele>
        <time>2017-06-11T13:58:30.000Z</time>
      </trkpt>
      <trkpt lat="48.88005" lon="-0.37754">
        <ele>177.60000610352</ele>
        <time>2017-06-11T13:58:31.000Z</time>
      </trkpt>
      <trkpt lat="48.88004" lon="-0.37755">
        <ele>178</ele>
        <time>2017-06-11T13:58:32.000Z</time>
      </trkpt>
      <trkpt lat="48.88002" lon="-0.37758">
        <ele>178</ele>
        <time>2017-06-11T13:58:34.000Z</time>
      </trkpt>
      <trkpt lat="48.87997" lon="-0.37765">
        <ele>178.39999389648</ele>
        <time>2017-06-11T13:58:38.000Z</time>
      </trkpt>
      <trkpt lat="48.87996" lon="-0.37767">
        <ele>178.80000305176</ele>
        <time>2017-06-11T13:58:39.000Z</time>
      </trkpt>
      <trkpt lat="48.87994" lon="-0.37769">
        <ele>179.19999694824</ele>
        <time>2017-06-11T13:58:40.000Z</time>
      </trkpt>
      <trkpt lat="48.87993" lon="-0.3777">
        <ele>179.60000610352</ele>
        <time>2017-06-11T13:58:41.000Z</time>
      </trkpt>
      <trkpt lat="48.87992" lon="-0.37771">
        <ele>180</ele>
        <time>2017-06-11T13:58:42.000Z</time>
      </trkpt>
      <trkpt lat="48.87986" lon="-0.3778">
        <ele>180.39999389648</ele>
        <time>2017-06-11T13:58:49.000Z</time>
      </trkpt>
      <trkpt lat="48.87985" lon="-0.37782">
        <ele>180.80000305176</ele>
        <time>2017-06-11T13:58:50.000Z</time>
      </trkpt>
      <trkpt lat="48.87983" lon="-0.37783">
        <ele>181.19999694824</ele>
        <time>2017-06-11T13:58:51.000Z</time>
      </trkpt>
      <trkpt lat="48.87982" lon="-0.37784">
        <ele>181.80000305176</ele>
        <time>2017-06-11T13:58:52.000Z</time>
      </trkpt>
      <trkpt lat="48.87981" lon="-0.37786">
        <ele>182.19999694824</ele>
        <time>2017-06-11T13:58:53.000Z</time>
      </trkpt>
      <trkpt lat="48.87976" lon="-0.37791">
        <ele>182.19999694824</ele>
        <time>2017-06-11T13:58:56.000Z</time>
      </trkpt>
      <trkpt lat="48.87969" lon="-0.37799">
        <ele>182.60000610352</ele>
        <time>2017-06-11T13:59:01.000Z</time>
      </trkpt>
      <trkpt lat="48.87968" lon="-0.37801">
        <ele>183</ele>
        <time>2017-06-11T13:59:02.000Z</time>
      </trkpt>
      <trkpt lat="48.87967" lon="-0.37803">
        <ele>183.39999389648</ele>
        <time>2017-06-11T13:59:03.000Z</time>
      </trkpt>
      <trkpt lat="48.87966" lon="-0.37805">
        <ele>183.80000305176</ele>
        <time>2017-06-11T13:59:04.000Z</time>
      </trkpt>
      <trkpt lat="48.87965" lon="-0.37807">
        <ele>184.19999694824</ele>
        <time>2017-06-11T13:59:05.000Z</time>
      </trkpt>
      <trkpt lat="48.8796" lon="-0.37813">
        <ele>184.19999694824</ele>
        <time>2017-06-11T13:59:08.000Z</time>
      </trkpt>
      <trkpt lat="48.87959" lon="-0.37815">
        <ele>184.19999694824</ele>
        <time>2017-06-11T13:59:09.000Z</time>
      </trkpt>
      <trkpt lat="48.87956" lon="-0.37821">
        <ele>185</ele>
        <time>2017-06-11T13:59:12.000Z</time>
      </trkpt>
      <trkpt lat="48.87956" lon="-0.37822">
        <ele>185.39999389648</ele>
        <time>2017-06-11T13:59:13.000Z</time>
      </trkpt>
      <trkpt lat="48.87955" lon="-0.37824">
        <ele>185.80000305176</ele>
        <time>2017-06-11T13:59:14.000Z</time>
      </trkpt>
      <trkpt lat="48.87954" lon="-0.37826">
        <ele>186.19999694824</ele>
        <time>2017-06-11T13:59:15.000Z</time>
      </trkpt>
      <trkpt lat="48.87948" lon="-0.37841">
        <ele>186.60000610352</ele>
        <time>2017-06-11T13:59:23.000Z</time>
      </trkpt>
      <trkpt lat="48.87947" lon="-0.37844">
        <ele>187.19999694824</ele>
        <time>2017-06-11T13:59:24.000Z</time>
      </trkpt>
      <trkpt lat="48.87947" lon="-0.37846">
        <ele>187.60000610352</ele>
        <time>2017-06-11T13:59:25.000Z</time>
      </trkpt>
      <trkpt lat="48.87946" lon="-0.37849">
        <ele>188</ele>
        <time>2017-06-11T13:59:26.000Z</time>
      </trkpt>
      <trkpt lat="48.87945" lon="-0.37851">
        <ele>188.39999389648</ele>
        <time>2017-06-11T13:59:27.000Z</time>
      </trkpt>
      <trkpt lat="48.87943" lon="-0.3786">
        <ele>188.39999389648</ele>
        <time>2017-06-11T13:59:31.000Z</time>
      </trkpt>
      <trkpt lat="48.87939" lon="-0.37877">
        <ele>189.19999694824</ele>
        <time>2017-06-11T13:59:37.000Z</time>
      </trkpt>
      <trkpt lat="48.87938" lon="-0.37879">
        <ele>189.60000610352</ele>
        <time>2017-06-11T13:59:38.000Z</time>
      </trkpt>
      <trkpt lat="48.87938" lon="-0.37881">
        <ele>190</ele>
        <time>2017-06-11T13:59:39.000Z</time>
      </trkpt>
      <trkpt lat="48.87937" lon="-0.37884">
        <ele>190.39999389648</ele>
        <time>2017-06-11T13:59:40.000Z</time>
      </trkpt>
      <trkpt lat="48.87937" lon="-0.3789">
        <ele>190.39999389648</ele>
        <time>2017-06-11T13:59:45.000Z</time>
      </trkpt>
      <trkpt lat="48.87937" lon="-0.37891">
        <ele>190.39999389648</ele>
        <time>2017-06-11T13:59:48.000Z</time>
      </trkpt>
      <trkpt lat="48.87937" lon="-0.37892">
        <ele>190.39999389648</ele>
        <time>2017-06-11T13:59:55.000Z</time>
      </trkpt>
      <trkpt lat="48.87936" lon="-0.37893">
        <ele>190.39999389648</ele>
        <time>2017-06-11T13:59:56.000Z</time>
      </trkpt>
      <trkpt lat="48.87936" lon="-0.37895">
        <ele>190.39999389648</ele>
        <time>2017-06-11T14:00:00.000Z</time>
      </trkpt>
      <trkpt lat="48.87934" lon="-0.379">
        <ele>190.39999389648</ele>
        <time>2017-06-11T14:00:07.000Z</time>
      </trkpt>
      <trkpt lat="48.87932" lon="-0.37907">
        <ele>190.80000305176</ele>
        <time>2017-06-11T14:00:11.000Z</time>
      </trkpt>
      <trkpt lat="48.87931" lon="-0.37909">
        <ele>191.19999694824</ele>
        <time>2017-06-11T14:00:12.000Z</time>
      </trkpt>
      <trkpt lat="48.87931" lon="-0.37911">
        <ele>191.60000610352</ele>
        <time>2017-06-11T14:00:13.000Z</time>
      </trkpt>
      <trkpt lat="48.8793" lon="-0.37912">
        <ele>192</ele>
        <time>2017-06-11T14:00:14.000Z</time>
      </trkpt>
      <trkpt lat="48.8793" lon="-0.37914">
        <ele>192.39999389648</ele>
        <time>2017-06-11T14:00:15.000Z</time>
      </trkpt>
      <trkpt lat="48.87929" lon="-0.37917">
        <ele>192.39999389648</ele>
        <time>2017-06-11T14:00:17.000Z</time>
      </trkpt>
      <trkpt lat="48.87928" lon="-0.37924">
        <ele>192.39999389648</ele>
        <time>2017-06-11T14:00:23.000Z</time>
      </trkpt>
      <trkpt lat="48.87926" lon="-0.37931">
        <ele>192.39999389648</ele>
        <time>2017-06-11T14:00:31.000Z</time>
      </trkpt>
      <trkpt lat="48.87924" lon="-0.37934">
        <ele>192.80000305176</ele>
        <time>2017-06-11T14:00:33.000Z</time>
      </trkpt>
      <trkpt lat="48.87923" lon="-0.37936">
        <ele>193.39999389648</ele>
        <time>2017-06-11T14:00:34.000Z</time>
      </trkpt>
      <trkpt lat="48.87923" lon="-0.37938">
        <ele>193.80000305176</ele>
        <time>2017-06-11T14:00:35.000Z</time>
      </trkpt>
      <trkpt lat="48.87922" lon="-0.3794">
        <ele>194.19999694824</ele>
        <time>2017-06-11T14:00:36.000Z</time>
      </trkpt>
      <trkpt lat="48.87922" lon="-0.37942">
        <ele>194.60000610352</ele>
        <time>2017-06-11T14:00:37.000Z</time>
      </trkpt>
      <trkpt lat="48.87919" lon="-0.37957">
        <ele>195</ele>
        <time>2017-06-11T14:00:45.000Z</time>
      </trkpt>
      <trkpt lat="48.87918" lon="-0.37959">
        <ele>195.39999389648</ele>
        <time>2017-06-11T14:00:46.000Z</time>
      </trkpt>
      <trkpt lat="48.87918" lon="-0.37961">
        <ele>195.80000305176</ele>
        <time>2017-06-11T14:00:47.000Z</time>
      </trkpt>
      <trkpt lat="48.87918" lon="-0.37962">
        <ele>196.19999694824</ele>
        <time>2017-06-11T14:00:48.000Z</time>
      </trkpt>
      <trkpt lat="48.87917" lon="-0.37963">
        <ele>196.60000610352</ele>
        <time>2017-06-11T14:00:49.000Z</time>
      </trkpt>
      <trkpt lat="48.87916" lon="-0.37967">
        <ele>196.60000610352</ele>
        <time>2017-06-11T14:00:51.000Z</time>
      </trkpt>
      <trkpt lat="48.87915" lon="-0.37977">
        <ele>196.60000610352</ele>
        <time>2017-06-11T14:00:59.000Z</time>
      </trkpt>
      <trkpt lat="48.87915" lon="-0.37977">
        <ele>197</ele>
        <time>2017-06-11T14:01:00.000Z</time>
      </trkpt>
      <trkpt lat="48.87915" lon="-0.37977">
        <ele>197.39999389648</ele>
        <time>2017-06-11T14:01:01.000Z</time>
      </trkpt>
      <trkpt lat="48.87915" lon="-0.37977">
        <ele>197.80000305176</ele>
        <time>2017-06-11T14:01:02.000Z</time>
      </trkpt>
      <trkpt lat="48.87915" lon="-0.37977">
        <ele>198.19999694824</ele>
        <time>2017-06-11T14:01:03.000Z</time>
      </trkpt>
      <trkpt lat="48.87914" lon="-0.37978">
        <ele>198.60000610352</ele>
        <time>2017-06-11T14:01:04.000Z</time>
      </trkpt>
      <trkpt lat="48.87913" lon="-0.37982">
        <ele>198.60000610352</ele>
        <time>2017-06-11T14:01:06.000Z</time>
      </trkpt>
      <trkpt lat="48.87908" lon="-0.37996">
        <ele>198.60000610352</ele>
        <time>2017-06-11T14:01:14.000Z</time>
      </trkpt>
      <trkpt lat="48.87908" lon="-0.38001">
        <ele>199</ele>
        <time>2017-06-11T14:01:17.000Z</time>
      </trkpt>
      <trkpt lat="48.87908" lon="-0.38003">
        <ele>199.39999389648</ele>
        <time>2017-06-11T14:01:18.000Z</time>
      </trkpt>
      <trkpt lat="48.87908" lon="-0.38005">
        <ele>199.80000305176</ele>
        <time>2017-06-11T14:01:19.000Z</time>
      </trkpt>
      <trkpt lat="48.87908" lon="-0.38007">
        <ele>200.39999389648</ele>
        <time>2017-06-11T14:01:20.000Z</time>
      </trkpt>
      <trkpt lat="48.87907" lon="-0.38009">
        <ele>200.80000305176</ele>
        <time>2017-06-11T14:01:21.000Z</time>
      </trkpt>
      <trkpt lat="48.87906" lon="-0.38022">
        <ele>200.80000305176</ele>
        <time>2017-06-11T14:01:28.000Z</time>
      </trkpt>
      <trkpt lat="48.87905" lon="-0.38029">
        <ele>201.19999694824</ele>
        <time>2017-06-11T14:01:33.000Z</time>
      </trkpt>
      <trkpt lat="48.87905" lon="-0.38031">
        <ele>201.60000610352</ele>
        <time>2017-06-11T14:01:34.000Z</time>
      </trkpt>
      <trkpt lat="48.87905" lon="-0.38033">
        <ele>202</ele>
        <time>2017-06-11T14:01:35.000Z</time>
      </trkpt>
      <trkpt lat="48.87905" lon="-0.38034">
        <ele>202.39999389648</ele>
        <time>2017-06-11T14:01:36.000Z</time>
      </trkpt>
      <trkpt lat="48.87904" lon="-0.38036">
        <ele>202.80000305176</ele>
        <time>2017-06-11T14:01:37.000Z</time>
      </trkpt>
      <trkpt lat="48.87902" lon="-0.38049">
        <ele>203.19999694824</ele>
        <time>2017-06-11T14:01:45.000Z</time>
      </trkpt>
      <trkpt lat="48.87902" lon="-0.3805">
        <ele>203.60000610352</ele>
        <time>2017-06-11T14:01:46.000Z</time>
      </trkpt>
      <trkpt lat="48.87902" lon="-0.38052">
        <ele>204</ele>
        <time>2017-06-11T14:01:47.000Z</time>
      </trkpt>
      <trkpt lat="48.87902" lon="-0.38053">
        <ele>204.39999389648</ele>
        <time>2017-06-11T14:01:48.000Z</time>
      </trkpt>
      <trkpt lat="48.87902" lon="-0.38055">
        <ele>204.80000305176</ele>
        <time>2017-06-11T14:01:49.000Z</time>
      </trkpt>
      <trkpt lat="48.87901" lon="-0.38061">
        <ele>204.80000305176</ele>
        <time>2017-06-11T14:01:53.000Z</time>
      </trkpt>
      <trkpt lat="48.87899" lon="-0.38075">
        <ele>204.80000305176</ele>
        <time>2017-06-11T14:02:01.000Z</time>
      </trkpt>
      <trkpt lat="48.87898" lon="-0.38077">
        <ele>205.19999694824</ele>
        <time>2017-06-11T14:02:02.000Z</time>
      </trkpt>
      <trkpt lat="48.87898" lon="-0.38079">
        <ele>205.60000610352</ele>
        <time>2017-06-11T14:02:03.000Z</time>
      </trkpt>
      <trkpt lat="48.87898" lon="-0.38081">
        <ele>206</ele>
        <time>2017-06-11T14:02:04.000Z</time>
      </trkpt>
      <trkpt lat="48.87897" lon="-0.38082">
        <ele>206.39999389648</ele>
        <time>2017-06-11T14:02:05.000Z</time>
      </trkpt>
      <trkpt lat="48.87896" lon="-0.38084">
        <ele>206.80000305176</ele>
        <time>2017-06-11T14:02:06.000Z</time>
      </trkpt>
      <trkpt lat="48.87896" lon="-0.38086">
        <ele>206.80000305176</ele>
        <time>2017-06-11T14:02:07.000Z</time>
      </trkpt>
      <trkpt lat="48.87892" lon="-0.38102">
        <ele>206.80000305176</ele>
        <time>2017-06-11T14:02:16.000Z</time>
      </trkpt>
      <trkpt lat="48.87891" lon="-0.38107">
        <ele>207.19999694824</ele>
        <time>2017-06-11T14:02:19.000Z</time>
      </trkpt>
      <trkpt lat="48.87891" lon="-0.38109">
        <ele>207.80000305176</ele>
        <time>2017-06-11T14:02:20.000Z</time>
      </trkpt>
      <trkpt lat="48.8789" lon="-0.3811">
        <ele>208.19999694824</ele>
        <time>2017-06-11T14:02:21.000Z</time>
      </trkpt>
      <trkpt lat="48.8789" lon="-0.38112">
        <ele>208.60000610352</ele>
        <time>2017-06-11T14:02:22.000Z</time>
      </trkpt>
      <trkpt lat="48.87889" lon="-0.38114">
        <ele>209</ele>
        <time>2017-06-11T14:02:23.000Z</time>
      </trkpt>
      <trkpt lat="48.87889" lon="-0.38115">
        <ele>209</ele>
        <time>2017-06-11T14:02:24.000Z</time>
      </trkpt>
      <trkpt lat="48.87889" lon="-0.38119">
        <ele>209</ele>
        <time>2017-06-11T14:02:30.000Z</time>
      </trkpt>
      <trkpt lat="48.87888" lon="-0.38122">
        <ele>209</ele>
        <time>2017-06-11T14:02:36.000Z</time>
      </trkpt>
      <trkpt lat="48.87887" lon="-0.38123">
        <ele>209</ele>
        <time>2017-06-11T14:02:41.000Z</time>
      </trkpt>
      <trkpt lat="48.87886" lon="-0.38126">
        <ele>209</ele>
        <time>2017-06-11T14:02:43.000Z</time>
      </trkpt>
      <trkpt lat="48.87885" lon="-0.38128">
        <ele>209</ele>
        <time>2017-06-11T14:02:49.000Z</time>
      </trkpt>
      <trkpt lat="48.87885" lon="-0.3813">
        <ele>209</ele>
        <time>2017-06-11T14:02:56.000Z</time>
      </trkpt>
      <trkpt lat="48.87883" lon="-0.38136">
        <ele>209</ele>
        <time>2017-06-11T14:03:04.000Z</time>
      </trkpt>
      <trkpt lat="48.87883" lon="-0.38138">
        <ele>209.39999389648</ele>
        <time>2017-06-11T14:03:05.000Z</time>
      </trkpt>
      <trkpt lat="48.87882" lon="-0.38139">
        <ele>209.80000305176</ele>
        <time>2017-06-11T14:03:06.000Z</time>
      </trkpt>
      <trkpt lat="48.87882" lon="-0.3814">
        <ele>210.19999694824</ele>
        <time>2017-06-11T14:03:07.000Z</time>
      </trkpt>
      <trkpt lat="48.87882" lon="-0.3814">
        <ele>210.60000610352</ele>
        <time>2017-06-11T14:03:08.000Z</time>
      </trkpt>
      <trkpt lat="48.87882" lon="-0.3814">
        <ele>211</ele>
        <time>2017-06-11T14:03:09.000Z</time>
      </trkpt>
      <trkpt lat="48.87881" lon="-0.38142">
        <ele>211</ele>
        <time>2017-06-11T14:03:15.000Z</time>
      </trkpt>
      <trkpt lat="48.87877" lon="-0.38155">
        <ele>211</ele>
        <time>2017-06-11T14:03:20.000Z</time>
      </trkpt>
      <trkpt lat="48.87871" lon="-0.38174">
        <ele>211</ele>
        <time>2017-06-11T14:03:27.000Z</time>
      </trkpt>
      <trkpt lat="48.87862" lon="-0.38204">
        <ele>211</ele>
        <time>2017-06-11T14:03:36.000Z</time>
      </trkpt>
      <trkpt lat="48.87854" lon="-0.38233">
        <ele>211</ele>
        <time>2017-06-11T14:03:44.000Z</time>
      </trkpt>
      <trkpt lat="48.87853" lon="-0.38244">
        <ele>211.39999389648</ele>
        <time>2017-06-11T14:03:47.000Z</time>
      </trkpt>
      <trkpt lat="48.87852" lon="-0.38249">
        <ele>211.80000305176</ele>
        <time>2017-06-11T14:03:48.000Z</time>
      </trkpt>
      <trkpt lat="48.87852" lon="-0.38253">
        <ele>212.19999694824</ele>
        <time>2017-06-11T14:03:49.000Z</time>
      </trkpt>
      <trkpt lat="48.87852" lon="-0.38258">
        <ele>212.60000610352</ele>
        <time>2017-06-11T14:03:50.000Z</time>
      </trkpt>
      <trkpt lat="48.87851" lon="-0.38262">
        <ele>213</ele>
        <time>2017-06-11T14:03:51.000Z</time>
      </trkpt>
      <trkpt lat="48.87846" lon="-0.38295">
        <ele>213</ele>
        <time>2017-06-11T14:03:58.000Z</time>
      </trkpt>
      <trkpt lat="48.87845" lon="-0.38325">
        <ele>213</ele>
        <time>2017-06-11T14:04:04.000Z</time>
      </trkpt>
      <trkpt lat="48.87841" lon="-0.38357">
        <ele>213</ele>
        <time>2017-06-11T14:04:09.000Z</time>
      </trkpt>
      <trkpt lat="48.8784" lon="-0.38363">
        <ele>213</ele>
        <time>2017-06-11T14:04:10.000Z</time>
      </trkpt>
      <trkpt lat="48.87831" lon="-0.38417">
        <ele>213</ele>
        <time>2017-06-11T14:04:18.000Z</time>
      </trkpt>
      <trkpt lat="48.87823" lon="-0.38464">
        <ele>213</ele>
        <time>2017-06-11T14:04:24.000Z</time>
      </trkpt>
      <trkpt lat="48.87822" lon="-0.38472">
        <ele>212.60000610352</ele>
        <time>2017-06-11T14:04:25.000Z</time>
      </trkpt>
      <trkpt lat="48.8782" lon="-0.38481">
        <ele>212.19999694824</ele>
        <time>2017-06-11T14:04:26.000Z</time>
      </trkpt>
      <trkpt lat="48.87819" lon="-0.38489">
        <ele>211.80000305176</ele>
        <time>2017-06-11T14:04:27.000Z</time>
      </trkpt>
      <trkpt lat="48.87817" lon="-0.38497">
        <ele>211.39999389648</ele>
        <time>2017-06-11T14:04:28.000Z</time>
      </trkpt>
      <trkpt lat="48.87816" lon="-0.38505">
        <ele>211</ele>
        <time>2017-06-11T14:04:29.000Z</time>
      </trkpt>
      <trkpt lat="48.87813" lon="-0.38519">
        <ele>211</ele>
        <time>2017-06-11T14:04:31.000Z</time>
      </trkpt>
      <trkpt lat="48.87808" lon="-0.38545">
        <ele>210.60000610352</ele>
        <time>2017-06-11T14:04:35.000Z</time>
      </trkpt>
      <trkpt lat="48.87807" lon="-0.38552">
        <ele>210</ele>
        <time>2017-06-11T14:04:36.000Z</time>
      </trkpt>
      <trkpt lat="48.87805" lon="-0.3856">
        <ele>209.60000610352</ele>
        <time>2017-06-11T14:04:37.000Z</time>
      </trkpt>
      <trkpt lat="48.87804" lon="-0.38567">
        <ele>209.19999694824</ele>
        <time>2017-06-11T14:04:38.000Z</time>
      </trkpt>
      <trkpt lat="48.87803" lon="-0.38573">
        <ele>208.80000305176</ele>
        <time>2017-06-11T14:04:39.000Z</time>
      </trkpt>
      <trkpt lat="48.87795" lon="-0.38607">
        <ele>208.39999389648</ele>
        <time>2017-06-11T14:04:45.000Z</time>
      </trkpt>
      <trkpt lat="48.87796" lon="-0.38611">
        <ele>208</ele>
        <time>2017-06-11T14:04:46.000Z</time>
      </trkpt>
      <trkpt lat="48.87797" lon="-0.38614">
        <ele>207.60000610352</ele>
        <time>2017-06-11T14:04:47.000Z</time>
      </trkpt>
      <trkpt lat="48.87801" lon="-0.38618">
        <ele>207.19999694824</ele>
        <time>2017-06-11T14:04:48.000Z</time>
      </trkpt>
      <trkpt lat="48.87805" lon="-0.3862">
        <ele>206.80000305176</ele>
        <time>2017-06-11T14:04:49.000Z</time>
      </trkpt>
      <trkpt lat="48.87814" lon="-0.38623">
        <ele>206.80000305176</ele>
        <time>2017-06-11T14:04:51.000Z</time>
      </trkpt>
      <trkpt lat="48.87819" lon="-0.38625">
        <ele>206.80000305176</ele>
        <time>2017-06-11T14:04:52.000Z</time>
      </trkpt>
      <trkpt lat="48.87834" lon="-0.3863">
        <ele>206.19999694824</ele>
        <time>2017-06-11T14:04:55.000Z</time>
      </trkpt>
      <trkpt lat="48.87839" lon="-0.38631">
        <ele>205.80000305176</ele>
        <time>2017-06-11T14:04:56.000Z</time>
      </trkpt>
      <trkpt lat="48.87843" lon="-0.38632">
        <ele>205.39999389648</ele>
        <time>2017-06-11T14:04:57.000Z</time>
      </trkpt>
      <trkpt lat="48.87846" lon="-0.38634">
        <ele>204</ele>
        <time>2017-06-11T14:04:58.000Z</time>
      </trkpt>
      <trkpt lat="48.87851" lon="-0.38635">
        <ele>203.39999389648</ele>
        <time>2017-06-11T14:04:59.000Z</time>
      </trkpt>
      <trkpt lat="48.87855" lon="-0.38637">
        <ele>202.80000305176</ele>
        <time>2017-06-11T14:05:00.000Z</time>
      </trkpt>
      <trkpt lat="48.8786" lon="-0.38639">
        <ele>202</ele>
        <time>2017-06-11T14:05:01.000Z</time>
      </trkpt>
      <trkpt lat="48.87876" lon="-0.38647">
        <ele>202</ele>
        <time>2017-06-11T14:05:04.000Z</time>
      </trkpt>
      <trkpt lat="48.87888" lon="-0.38653">
        <ele>201.60000610352</ele>
        <time>2017-06-11T14:05:06.000Z</time>
      </trkpt>
      <trkpt lat="48.87894" lon="-0.38655">
        <ele>201.19999694824</ele>
        <time>2017-06-11T14:05:07.000Z</time>
      </trkpt>
      <trkpt lat="48.879" lon="-0.38657">
        <ele>200.80000305176</ele>
        <time>2017-06-11T14:05:08.000Z</time>
      </trkpt>
      <trkpt lat="48.87906" lon="-0.3866">
        <ele>200.19999694824</ele>
        <time>2017-06-11T14:05:09.000Z</time>
      </trkpt>
      <trkpt lat="48.87912" lon="-0.38663">
        <ele>199.80000305176</ele>
        <time>2017-06-11T14:05:10.000Z</time>
      </trkpt>
      <trkpt lat="48.87918" lon="-0.38665">
        <ele>199.39999389648</ele>
        <time>2017-06-11T14:05:11.000Z</time>
      </trkpt>
      <trkpt lat="48.87924" lon="-0.38667">
        <ele>199</ele>
        <time>2017-06-11T14:05:12.000Z</time>
      </trkpt>
      <trkpt lat="48.87929" lon="-0.3867">
        <ele>198.39999389648</ele>
        <time>2017-06-11T14:05:13.000Z</time>
      </trkpt>
      <trkpt lat="48.87935" lon="-0.38673">
        <ele>198</ele>
        <time>2017-06-11T14:05:14.000Z</time>
      </trkpt>
      <trkpt lat="48.87941" lon="-0.38675">
        <ele>197.60000610352</ele>
        <time>2017-06-11T14:05:15.000Z</time>
      </trkpt>
      <trkpt lat="48.87951" lon="-0.38679">
        <ele>197</ele>
        <time>2017-06-11T14:05:17.000Z</time>
      </trkpt>
      <trkpt lat="48.87957" lon="-0.38681">
        <ele>196.60000610352</ele>
        <time>2017-06-11T14:05:18.000Z</time>
      </trkpt>
      <trkpt lat="48.87962" lon="-0.38684">
        <ele>196.19999694824</ele>
        <time>2017-06-11T14:05:19.000Z</time>
      </trkpt>
      <trkpt lat="48.87968" lon="-0.38686">
        <ele>195.80000305176</ele>
        <time>2017-06-11T14:05:20.000Z</time>
      </trkpt>
      <trkpt lat="48.87974" lon="-0.38689">
        <ele>195.19999694824</ele>
        <time>2017-06-11T14:05:21.000Z</time>
      </trkpt>
      <trkpt lat="48.87981" lon="-0.38692">
        <ele>194.80000305176</ele>
        <time>2017-06-11T14:05:22.000Z</time>
      </trkpt>
      <trkpt lat="48.87988" lon="-0.38695">
        <ele>193.80000305176</ele>
        <time>2017-06-11T14:05:23.000Z</time>
      </trkpt>
      <trkpt lat="48.87994" lon="-0.38698">
        <ele>193.39999389648</ele>
        <time>2017-06-11T14:05:24.000Z</time>
      </trkpt>
      <trkpt lat="48.88" lon="-0.38701">
        <ele>192.80000305176</ele>
        <time>2017-06-11T14:05:25.000Z</time>
      </trkpt>
      <trkpt lat="48.88007" lon="-0.38704">
        <ele>192.39999389648</ele>
        <time>2017-06-11T14:05:26.000Z</time>
      </trkpt>
      <trkpt lat="48.88014" lon="-0.38707">
        <ele>192</ele>
        <time>2017-06-11T14:05:27.000Z</time>
      </trkpt>
      <trkpt lat="48.88021" lon="-0.3871">
        <ele>191.39999389648</ele>
        <time>2017-06-11T14:05:28.000Z</time>
      </trkpt>
      <trkpt lat="48.88028" lon="-0.38713">
        <ele>190.80000305176</ele>
        <time>2017-06-11T14:05:29.000Z</time>
      </trkpt>
      <trkpt lat="48.88036" lon="-0.38716">
        <ele>190.19999694824</ele>
        <time>2017-06-11T14:05:30.000Z</time>
      </trkpt>
      <trkpt lat="48.88044" lon="-0.38719">
        <ele>189.60000610352</ele>
        <time>2017-06-11T14:05:31.000Z</time>
      </trkpt>
      <trkpt lat="48.88052" lon="-0.38722">
        <ele>188.80000305176</ele>
        <time>2017-06-11T14:05:32.000Z</time>
      </trkpt>
      <trkpt lat="48.88059" lon="-0.38724">
        <ele>187.80000305176</ele>
        <time>2017-06-11T14:05:33.000Z</time>
      </trkpt>
      <trkpt lat="48.88067" lon="-0.38726">
        <ele>187</ele>
        <time>2017-06-11T14:05:34.000Z</time>
      </trkpt>
      <trkpt lat="48.88074" lon="-0.38728">
        <ele>186</ele>
        <time>2017-06-11T14:05:35.000Z</time>
      </trkpt>
      <trkpt lat="48.88081" lon="-0.38728">
        <ele>185.19999694824</ele>
        <time>2017-06-11T14:05:36.000Z</time>
      </trkpt>
      <trkpt lat="48.88087" lon="-0.38726">
        <ele>184.39999389648</ele>
        <time>2017-06-11T14:05:37.000Z</time>
      </trkpt>
      <trkpt lat="48.88094" lon="-0.38723">
        <ele>183.39999389648</ele>
        <time>2017-06-11T14:05:38.000Z</time>
      </trkpt>
      <trkpt lat="48.88101" lon="-0.3872">
        <ele>182.60000610352</ele>
        <time>2017-06-11T14:05:39.000Z</time>
      </trkpt>
      <trkpt lat="48.88108" lon="-0.38717">
        <ele>181.80000305176</ele>
        <time>2017-06-11T14:05:40.000Z</time>
      </trkpt>
      <trkpt lat="48.88115" lon="-0.38714">
        <ele>181</ele>
        <time>2017-06-11T14:05:41.000Z</time>
      </trkpt>
      <trkpt lat="48.88123" lon="-0.38711">
        <ele>180.19999694824</ele>
        <time>2017-06-11T14:05:42.000Z</time>
      </trkpt>
      <trkpt lat="48.8813" lon="-0.38708">
        <ele>179.39999389648</ele>
        <time>2017-06-11T14:05:43.000Z</time>
      </trkpt>
      <trkpt lat="48.88137" lon="-0.38704">
        <ele>178.60000610352</ele>
        <time>2017-06-11T14:05:44.000Z</time>
      </trkpt>
      <trkpt lat="48.88145" lon="-0.387">
        <ele>178.19999694824</ele>
        <time>2017-06-11T14:05:45.000Z</time>
      </trkpt>
      <trkpt lat="48.88152" lon="-0.38696">
        <ele>177.80000305176</ele>
        <time>2017-06-11T14:05:46.000Z</time>
      </trkpt>
      <trkpt lat="48.8816" lon="-0.38693">
        <ele>176.80000305176</ele>
        <time>2017-06-11T14:05:47.000Z</time>
      </trkpt>
      <trkpt lat="48.88167" lon="-0.38689">
        <ele>176.39999389648</ele>
        <time>2017-06-11T14:05:48.000Z</time>
      </trkpt>
      <trkpt lat="48.88182" lon="-0.38681">
        <ele>176</ele>
        <time>2017-06-11T14:05:50.000Z</time>
      </trkpt>
      <trkpt lat="48.88189" lon="-0.38677">
        <ele>175.60000610352</ele>
        <time>2017-06-11T14:05:51.000Z</time>
      </trkpt>
      <trkpt lat="48.88197" lon="-0.38673">
        <ele>175.19999694824</ele>
        <time>2017-06-11T14:05:52.000Z</time>
      </trkpt>
      <trkpt lat="48.88204" lon="-0.38669">
        <ele>174.60000610352</ele>
        <time>2017-06-11T14:05:53.000Z</time>
      </trkpt>
      <trkpt lat="48.88211" lon="-0.38666">
        <ele>174.19999694824</ele>
        <time>2017-06-11T14:05:54.000Z</time>
      </trkpt>
      <trkpt lat="48.88219" lon="-0.38662">
        <ele>173.80000305176</ele>
        <time>2017-06-11T14:05:55.000Z</time>
      </trkpt>
      <trkpt lat="48.88226" lon="-0.38659">
        <ele>173.39999389648</ele>
        <time>2017-06-11T14:05:56.000Z</time>
      </trkpt>
      <trkpt lat="48.88233" lon="-0.38657">
        <ele>173</ele>
        <time>2017-06-11T14:05:57.000Z</time>
      </trkpt>
      <trkpt lat="48.8824" lon="-0.38654">
        <ele>172.60000610352</ele>
        <time>2017-06-11T14:05:58.000Z</time>
      </trkpt>
      <trkpt lat="48.88247" lon="-0.38651">
        <ele>172.19999694824</ele>
        <time>2017-06-11T14:05:59.000Z</time>
      </trkpt>
      <trkpt lat="48.88279" lon="-0.38645">
        <ele>172.19999694824</ele>
        <time>2017-06-11T14:06:04.000Z</time>
      </trkpt>
      <trkpt lat="48.88296" lon="-0.38643">
        <ele>171.80000305176</ele>
        <time>2017-06-11T14:06:07.000Z</time>
      </trkpt>
      <trkpt lat="48.88301" lon="-0.38642">
        <ele>171.19999694824</ele>
        <time>2017-06-11T14:06:08.000Z</time>
      </trkpt>
      <trkpt lat="48.88307" lon="-0.38641">
        <ele>170.80000305176</ele>
        <time>2017-06-11T14:06:09.000Z</time>
      </trkpt>
      <trkpt lat="48.88312" lon="-0.3864">
        <ele>170.39999389648</ele>
        <time>2017-06-11T14:06:10.000Z</time>
      </trkpt>
      <trkpt lat="48.88318" lon="-0.3864">
        <ele>169.80000305176</ele>
        <time>2017-06-11T14:06:11.000Z</time>
      </trkpt>
      <trkpt lat="48.88335" lon="-0.38637">
        <ele>169.80000305176</ele>
        <time>2017-06-11T14:06:14.000Z</time>
      </trkpt>
      <trkpt lat="48.88345" lon="-0.38635">
        <ele>169.80000305176</ele>
        <time>2017-06-11T14:06:16.000Z</time>
      </trkpt>
      <trkpt lat="48.88369" lon="-0.3863">
        <ele>169.80000305176</ele>
        <time>2017-06-11T14:06:21.000Z</time>
      </trkpt>
      <trkpt lat="48.88373" lon="-0.38629">
        <ele>169.80000305176</ele>
        <time>2017-06-11T14:06:22.000Z</time>
      </trkpt>
      <trkpt lat="48.88391" lon="-0.38622">
        <ele>169.80000305176</ele>
        <time>2017-06-11T14:06:26.000Z</time>
      </trkpt>
      <trkpt lat="48.88405" lon="-0.38613">
        <ele>169.39999389648</ele>
        <time>2017-06-11T14:06:29.000Z</time>
      </trkpt>
      <trkpt lat="48.8841" lon="-0.3861">
        <ele>169</ele>
        <time>2017-06-11T14:06:30.000Z</time>
      </trkpt>
      <trkpt lat="48.88415" lon="-0.38606">
        <ele>168.39999389648</ele>
        <time>2017-06-11T14:06:31.000Z</time>
      </trkpt>
      <trkpt lat="48.8842" lon="-0.38602">
        <ele>168</ele>
        <time>2017-06-11T14:06:32.000Z</time>
      </trkpt>
      <trkpt lat="48.88425" lon="-0.38598">
        <ele>167.60000610352</ele>
        <time>2017-06-11T14:06:33.000Z</time>
      </trkpt>
      <trkpt lat="48.8843" lon="-0.38594">
        <ele>167.60000610352</ele>
        <time>2017-06-11T14:06:34.000Z</time>
      </trkpt>
      <trkpt lat="48.88435" lon="-0.38589">
        <ele>167.60000610352</ele>
        <time>2017-06-11T14:06:35.000Z</time>
      </trkpt>
      <trkpt lat="48.88445" lon="-0.38578">
        <ele>166.60000610352</ele>
        <time>2017-06-11T14:06:37.000Z</time>
      </trkpt>
      <trkpt lat="48.88449" lon="-0.38573">
        <ele>166.19999694824</ele>
        <time>2017-06-11T14:06:38.000Z</time>
      </trkpt>
      <trkpt lat="48.88454" lon="-0.38568">
        <ele>165.80000305176</ele>
        <time>2017-06-11T14:06:39.000Z</time>
      </trkpt>
      <trkpt lat="48.88458" lon="-0.38563">
        <ele>165.39999389648</ele>
        <time>2017-06-11T14:06:40.000Z</time>
      </trkpt>
      <trkpt lat="48.88462" lon="-0.38559">
        <ele>164.80000305176</ele>
        <time>2017-06-11T14:06:41.000Z</time>
      </trkpt>
      <trkpt lat="48.88465" lon="-0.38555">
        <ele>164.39999389648</ele>
        <time>2017-06-11T14:06:42.000Z</time>
      </trkpt>
      <trkpt lat="48.88469" lon="-0.38551">
        <ele>164</ele>
        <time>2017-06-11T14:06:43.000Z</time>
      </trkpt>
      <trkpt lat="48.88472" lon="-0.38546">
        <ele>163.60000610352</ele>
        <time>2017-06-11T14:06:44.000Z</time>
      </trkpt>
      <trkpt lat="48.88476" lon="-0.38542">
        <ele>163</ele>
        <time>2017-06-11T14:06:45.000Z</time>
      </trkpt>
      <trkpt lat="48.8848" lon="-0.38537">
        <ele>162.60000610352</ele>
        <time>2017-06-11T14:06:46.000Z</time>
      </trkpt>
      <trkpt lat="48.88484" lon="-0.38533">
        <ele>162.19999694824</ele>
        <time>2017-06-11T14:06:47.000Z</time>
      </trkpt>
      <trkpt lat="48.88487" lon="-0.38528">
        <ele>161.80000305176</ele>
        <time>2017-06-11T14:06:48.000Z</time>
      </trkpt>
      <trkpt lat="48.88491" lon="-0.38524">
        <ele>161.39999389648</ele>
        <time>2017-06-11T14:06:49.000Z</time>
      </trkpt>
      <trkpt lat="48.88494" lon="-0.38519">
        <ele>161</ele>
        <time>2017-06-11T14:06:50.000Z</time>
      </trkpt>
      <trkpt lat="48.88497" lon="-0.38515">
        <ele>161</ele>
        <time>2017-06-11T14:06:51.000Z</time>
      </trkpt>
      <trkpt lat="48.885" lon="-0.3851">
        <ele>160.60000610352</ele>
        <time>2017-06-11T14:06:52.000Z</time>
      </trkpt>
      <trkpt lat="48.88503" lon="-0.38505">
        <ele>160</ele>
        <time>2017-06-11T14:06:53.000Z</time>
      </trkpt>
      <trkpt lat="48.88505" lon="-0.385">
        <ele>159.60000610352</ele>
        <time>2017-06-11T14:06:54.000Z</time>
      </trkpt>
      <trkpt lat="48.88508" lon="-0.38494">
        <ele>159.19999694824</ele>
        <time>2017-06-11T14:06:55.000Z</time>
      </trkpt>
      <trkpt lat="48.88511" lon="-0.38488">
        <ele>158.39999389648</ele>
        <time>2017-06-11T14:06:56.000Z</time>
      </trkpt>
      <trkpt lat="48.88513" lon="-0.38483">
        <ele>157.80000305176</ele>
        <time>2017-06-11T14:06:57.000Z</time>
      </trkpt>
      <trkpt lat="48.88517" lon="-0.38478">
        <ele>157</ele>
        <time>2017-06-11T14:06:58.000Z</time>
      </trkpt>
      <trkpt lat="48.8852" lon="-0.38472">
        <ele>156.39999389648</ele>
        <time>2017-06-11T14:06:59.000Z</time>
      </trkpt>
      <trkpt lat="48.88523" lon="-0.38466">
        <ele>155.60000610352</ele>
        <time>2017-06-11T14:07:00.000Z</time>
      </trkpt>
      <trkpt lat="48.88526" lon="-0.38461">
        <ele>155.19999694824</ele>
        <time>2017-06-11T14:07:01.000Z</time>
      </trkpt>
      <trkpt lat="48.88529" lon="-0.38456">
        <ele>154.19999694824</ele>
        <time>2017-06-11T14:07:02.000Z</time>
      </trkpt>
      <trkpt lat="48.88533" lon="-0.38451">
        <ele>153.60000610352</ele>
        <time>2017-06-11T14:07:03.000Z</time>
      </trkpt>
      <trkpt lat="48.88536" lon="-0.38447">
        <ele>153</ele>
        <time>2017-06-11T14:07:04.000Z</time>
      </trkpt>
      <trkpt lat="48.88539" lon="-0.38441">
        <ele>152.39999389648</ele>
        <time>2017-06-11T14:07:05.000Z</time>
      </trkpt>
      <trkpt lat="48.88542" lon="-0.38435">
        <ele>151.80000305176</ele>
        <time>2017-06-11T14:07:06.000Z</time>
      </trkpt>
      <trkpt lat="48.88546" lon="-0.3843">
        <ele>151.19999694824</ele>
        <time>2017-06-11T14:07:07.000Z</time>
      </trkpt>
      <trkpt lat="48.88549" lon="-0.38425">
        <ele>150.80000305176</ele>
        <time>2017-06-11T14:07:08.000Z</time>
      </trkpt>
      <trkpt lat="48.88552" lon="-0.38421">
        <ele>150.19999694824</ele>
        <time>2017-06-11T14:07:09.000Z</time>
      </trkpt>
      <trkpt lat="48.88555" lon="-0.38416">
        <ele>149.80000305176</ele>
        <time>2017-06-11T14:07:10.000Z</time>
      </trkpt>
      <trkpt lat="48.88557" lon="-0.38413">
        <ele>149.39999389648</ele>
        <time>2017-06-11T14:07:11.000Z</time>
      </trkpt>
      <trkpt lat="48.88559" lon="-0.38409">
        <ele>149</ele>
        <time>2017-06-11T14:07:12.000Z</time>
      </trkpt>
      <trkpt lat="48.88561" lon="-0.38406">
        <ele>148.39999389648</ele>
        <time>2017-06-11T14:07:13.000Z</time>
      </trkpt>
      <trkpt lat="48.88563" lon="-0.38402">
        <ele>147.80000305176</ele>
        <time>2017-06-11T14:07:14.000Z</time>
      </trkpt>
      <trkpt lat="48.88566" lon="-0.38397">
        <ele>147.39999389648</ele>
        <time>2017-06-11T14:07:15.000Z</time>
      </trkpt>
      <trkpt lat="48.88569" lon="-0.38393">
        <ele>146.80000305176</ele>
        <time>2017-06-11T14:07:16.000Z</time>
      </trkpt>
      <trkpt lat="48.88577" lon="-0.38384">
        <ele>146.39999389648</ele>
        <time>2017-06-11T14:07:18.000Z</time>
      </trkpt>
      <trkpt lat="48.88581" lon="-0.3838">
        <ele>145.80000305176</ele>
        <time>2017-06-11T14:07:19.000Z</time>
      </trkpt>
      <trkpt lat="48.88586" lon="-0.38377">
        <ele>145.39999389648</ele>
        <time>2017-06-11T14:07:20.000Z</time>
      </trkpt>
      <trkpt lat="48.88592" lon="-0.38374">
        <ele>144.80000305176</ele>
        <time>2017-06-11T14:07:21.000Z</time>
      </trkpt>
      <trkpt lat="48.88597" lon="-0.38373">
        <ele>144.39999389648</ele>
        <time>2017-06-11T14:07:22.000Z</time>
      </trkpt>
      <trkpt lat="48.88603" lon="-0.38373">
        <ele>143.80000305176</ele>
        <time>2017-06-11T14:07:23.000Z</time>
      </trkpt>
      <trkpt lat="48.88608" lon="-0.38374">
        <ele>143.19999694824</ele>
        <time>2017-06-11T14:07:24.000Z</time>
      </trkpt>
      <trkpt lat="48.88612" lon="-0.38377">
        <ele>142.80000305176</ele>
        <time>2017-06-11T14:07:25.000Z</time>
      </trkpt>
      <trkpt lat="48.88616" lon="-0.38381">
        <ele>141.80000305176</ele>
        <time>2017-06-11T14:07:26.000Z</time>
      </trkpt>
      <trkpt lat="48.88621" lon="-0.38385">
        <ele>141.39999389648</ele>
        <time>2017-06-11T14:07:27.000Z</time>
      </trkpt>
      <trkpt lat="48.88625" lon="-0.38389">
        <ele>141</ele>
        <time>2017-06-11T14:07:28.000Z</time>
      </trkpt>
      <trkpt lat="48.88628" lon="-0.38392">
        <ele>140.60000610352</ele>
        <time>2017-06-11T14:07:29.000Z</time>
      </trkpt>
      <trkpt lat="48.88633" lon="-0.38395">
        <ele>140.19999694824</ele>
        <time>2017-06-11T14:07:30.000Z</time>
      </trkpt>
      <trkpt lat="48.88641" lon="-0.38399">
        <ele>139.60000610352</ele>
        <time>2017-06-11T14:07:32.000Z</time>
      </trkpt>
      <trkpt lat="48.88645" lon="-0.38401">
        <ele>139.19999694824</ele>
        <time>2017-06-11T14:07:33.000Z</time>
      </trkpt>
      <trkpt lat="48.88649" lon="-0.38402">
        <ele>138.80000305176</ele>
        <time>2017-06-11T14:07:34.000Z</time>
      </trkpt>
      <trkpt lat="48.88653" lon="-0.38403">
        <ele>138.39999389648</ele>
        <time>2017-06-11T14:07:35.000Z</time>
      </trkpt>
      <trkpt lat="48.88657" lon="-0.38404">
        <ele>137.80000305176</ele>
        <time>2017-06-11T14:07:36.000Z</time>
      </trkpt>
      <trkpt lat="48.88661" lon="-0.38404">
        <ele>137.39999389648</ele>
        <time>2017-06-11T14:07:37.000Z</time>
      </trkpt>
      <trkpt lat="48.88665" lon="-0.38405">
        <ele>136.80000305176</ele>
        <time>2017-06-11T14:07:38.000Z</time>
      </trkpt>
      <trkpt lat="48.88669" lon="-0.38405">
        <ele>136.19999694824</ele>
        <time>2017-06-11T14:07:39.000Z</time>
      </trkpt>
      <trkpt lat="48.88674" lon="-0.38405">
        <ele>135.60000610352</ele>
        <time>2017-06-11T14:07:40.000Z</time>
      </trkpt>
      <trkpt lat="48.88679" lon="-0.38404">
        <ele>134.80000305176</ele>
        <time>2017-06-11T14:07:41.000Z</time>
      </trkpt>
      <trkpt lat="48.88684" lon="-0.38402">
        <ele>134.19999694824</ele>
        <time>2017-06-11T14:07:42.000Z</time>
      </trkpt>
      <trkpt lat="48.88688" lon="-0.384">
        <ele>133.60000610352</ele>
        <time>2017-06-11T14:07:43.000Z</time>
      </trkpt>
      <trkpt lat="48.88693" lon="-0.38398">
        <ele>133</ele>
        <time>2017-06-11T14:07:44.000Z</time>
      </trkpt>
      <trkpt lat="48.88697" lon="-0.38395">
        <ele>132.60000610352</ele>
        <time>2017-06-11T14:07:45.000Z</time>
      </trkpt>
      <trkpt lat="48.88701" lon="-0.38393">
        <ele>132</ele>
        <time>2017-06-11T14:07:46.000Z</time>
      </trkpt>
      <trkpt lat="48.88706" lon="-0.38391">
        <ele>131.39999389648</ele>
        <time>2017-06-11T14:07:47.000Z</time>
      </trkpt>
      <trkpt lat="48.8871" lon="-0.38387">
        <ele>131</ele>
        <time>2017-06-11T14:07:48.000Z</time>
      </trkpt>
      <trkpt lat="48.88714" lon="-0.38383">
        <ele>130</ele>
        <time>2017-06-11T14:07:49.000Z</time>
      </trkpt>
      <trkpt lat="48.88718" lon="-0.38378">
        <ele>129.39999389648</ele>
        <time>2017-06-11T14:07:50.000Z</time>
      </trkpt>
      <trkpt lat="48.88722" lon="-0.38374">
        <ele>128.80000305176</ele>
        <time>2017-06-11T14:07:51.000Z</time>
      </trkpt>
      <trkpt lat="48.88728" lon="-0.38364">
        <ele>128.39999389648</ele>
        <time>2017-06-11T14:07:53.000Z</time>
      </trkpt>
      <trkpt lat="48.8873" lon="-0.38359">
        <ele>127.80000305176</ele>
        <time>2017-06-11T14:07:54.000Z</time>
      </trkpt>
      <trkpt lat="48.88731" lon="-0.38355">
        <ele>127.40000152588</ele>
        <time>2017-06-11T14:07:55.000Z</time>
      </trkpt>
      <trkpt lat="48.88733" lon="-0.38351">
        <ele>126.80000305176</ele>
        <time>2017-06-11T14:07:56.000Z</time>
      </trkpt>
      <trkpt lat="48.88734" lon="-0.38347">
        <ele>126.40000152588</ele>
        <time>2017-06-11T14:07:57.000Z</time>
      </trkpt>
      <trkpt lat="48.88736" lon="-0.38342">
        <ele>125.80000305176</ele>
        <time>2017-06-11T14:07:58.000Z</time>
      </trkpt>
      <trkpt lat="48.88737" lon="-0.38337">
        <ele>125.19999694824</ele>
        <time>2017-06-11T14:07:59.000Z</time>
      </trkpt>
      <trkpt lat="48.88737" lon="-0.38331">
        <ele>124.59999847412</ele>
        <time>2017-06-11T14:08:00.000Z</time>
      </trkpt>
      <trkpt lat="48.88739" lon="-0.38325">
        <ele>124</ele>
        <time>2017-06-11T14:08:01.000Z</time>
      </trkpt>
      <trkpt lat="48.88742" lon="-0.38321">
        <ele>123.59999847412</ele>
        <time>2017-06-11T14:08:02.000Z</time>
      </trkpt>
      <trkpt lat="48.88742" lon="-0.38315">
        <ele>123</ele>
        <time>2017-06-11T14:08:03.000Z</time>
      </trkpt>
      <trkpt lat="48.88743" lon="-0.3831">
        <ele>122.40000152588</ele>
        <time>2017-06-11T14:08:04.000Z</time>
      </trkpt>
      <trkpt lat="48.88743" lon="-0.38304">
        <ele>121.80000305176</ele>
        <time>2017-06-11T14:08:05.000Z</time>
      </trkpt>
      <trkpt lat="48.88744" lon="-0.38297">
        <ele>121.19999694824</ele>
        <time>2017-06-11T14:08:06.000Z</time>
      </trkpt>
      <trkpt lat="48.88744" lon="-0.38289">
        <ele>120.59999847412</ele>
        <time>2017-06-11T14:08:07.000Z</time>
      </trkpt>
      <trkpt lat="48.88743" lon="-0.38285">
        <ele>120</ele>
        <time>2017-06-11T14:08:08.000Z</time>
      </trkpt>
      <trkpt lat="48.88742" lon="-0.3828">
        <ele>118.80000305176</ele>
        <time>2017-06-11T14:08:09.000Z</time>
      </trkpt>
      <trkpt lat="48.88742" lon="-0.38275">
        <ele>118.40000152588</ele>
        <time>2017-06-11T14:08:10.000Z</time>
      </trkpt>
      <trkpt lat="48.88742" lon="-0.38268">
        <ele>117.80000305176</ele>
        <time>2017-06-11T14:08:11.000Z</time>
      </trkpt>
      <trkpt lat="48.88742" lon="-0.3826">
        <ele>117.40000152588</ele>
        <time>2017-06-11T14:08:12.000Z</time>
      </trkpt>
      <trkpt lat="48.88742" lon="-0.38253">
        <ele>116.80000305176</ele>
        <time>2017-06-11T14:08:13.000Z</time>
      </trkpt>
      <trkpt lat="48.88742" lon="-0.38242">
        <ele>116.40000152588</ele>
        <time>2017-06-11T14:08:15.000Z</time>
      </trkpt>
      <trkpt lat="48.88743" lon="-0.38236">
        <ele>116</ele>
        <time>2017-06-11T14:08:16.000Z</time>
      </trkpt>
      <trkpt lat="48.88744" lon="-0.38229">
        <ele>115.40000152588</ele>
        <time>2017-06-11T14:08:17.000Z</time>
      </trkpt>
      <trkpt lat="48.88745" lon="-0.38223">
        <ele>115</ele>
        <time>2017-06-11T14:08:18.000Z</time>
      </trkpt>
      <trkpt lat="48.88746" lon="-0.38217">
        <ele>114.40000152588</ele>
        <time>2017-06-11T14:08:19.000Z</time>
      </trkpt>
      <trkpt lat="48.88747" lon="-0.38206">
        <ele>114.40000152588</ele>
        <time>2017-06-11T14:08:23.000Z</time>
      </trkpt>
      <trkpt lat="48.88752" lon="-0.38176">
        <ele>114.40000152588</ele>
        <time>2017-06-11T14:08:29.000Z</time>
      </trkpt>
      <trkpt lat="48.88763" lon="-0.38153">
        <ele>114.40000152588</ele>
        <time>2017-06-11T14:08:35.000Z</time>
      </trkpt>
      <trkpt lat="48.88772" lon="-0.38142">
        <ele>114.40000152588</ele>
        <time>2017-06-11T14:08:39.000Z</time>
      </trkpt>
      <trkpt lat="48.88784" lon="-0.3813">
        <ele>114.40000152588</ele>
        <time>2017-06-11T14:08:45.000Z</time>
      </trkpt>
      <trkpt lat="48.88802" lon="-0.3811">
        <ele>114.40000152588</ele>
        <time>2017-06-11T14:08:52.000Z</time>
      </trkpt>
      <trkpt lat="48.88809" lon="-0.38099">
        <ele>114.40000152588</ele>
        <time>2017-06-11T14:08:56.000Z</time>
      </trkpt>
      <trkpt lat="48.88814" lon="-0.38092">
        <ele>114.40000152588</ele>
        <time>2017-06-11T14:08:58.000Z</time>
      </trkpt>
      <trkpt lat="48.88818" lon="-0.38085">
        <ele>114.40000152588</ele>
        <time>2017-06-11T14:09:01.000Z</time>
      </trkpt>
      <trkpt lat="48.88822" lon="-0.38076">
        <ele>114.40000152588</ele>
        <time>2017-06-11T14:09:05.000Z</time>
      </trkpt>
      <trkpt lat="48.88829" lon="-0.38063">
        <ele>114.40000152588</ele>
        <time>2017-06-11T14:09:11.000Z</time>
      </trkpt>
      <trkpt lat="48.88841" lon="-0.38052">
        <ele>114.40000152588</ele>
        <time>2017-06-11T14:09:20.000Z</time>
      </trkpt>
      <trkpt lat="48.88845" lon="-0.3805">
        <ele>114.40000152588</ele>
        <time>2017-06-11T14:09:22.000Z</time>
      </trkpt>
      <trkpt lat="48.88848" lon="-0.38047">
        <ele>114.40000152588</ele>
        <time>2017-06-11T14:09:26.000Z</time>
      </trkpt>
      <trkpt lat="48.88855" lon="-0.38046">
        <ele>114.40000152588</ele>
        <time>2017-06-11T14:09:32.000Z</time>
      </trkpt>
      <trkpt lat="48.88855" lon="-0.38046">
        <ele>114.40000152588</ele>
        <time>2017-06-11T14:09:35.000Z</time>
      </trkpt>
      <trkpt lat="48.88855" lon="-0.38046">
        <ele>114.40000152588</ele>
        <time>2017-06-11T14:09:37.000Z</time>
      </trkpt>
      <trkpt lat="48.8886" lon="-0.38045">
        <ele>114.40000152588</ele>
        <time>2017-06-11T14:09:46.000Z</time>
      </trkpt>
      <trkpt lat="48.88863" lon="-0.38042">
        <ele>114.40000152588</ele>
        <time>2017-06-11T14:09:53.000Z</time>
      </trkpt>
      <trkpt lat="48.88864" lon="-0.38039">
        <ele>114.40000152588</ele>
        <time>2017-06-11T14:10:01.000Z</time>
      </trkpt>
      <trkpt lat="48.88872" lon="-0.38038">
        <ele>114.40000152588</ele>
        <time>2017-06-11T14:10:06.000Z</time>
      </trkpt>
      <trkpt lat="48.88878" lon="-0.38034">
        <ele>114.80000305176</ele>
        <time>2017-06-11T14:10:11.000Z</time>
      </trkpt>
      <trkpt lat="48.88879" lon="-0.38031">
        <ele>115.40000152588</ele>
        <time>2017-06-11T14:10:12.000Z</time>
      </trkpt>
      <trkpt lat="48.8888" lon="-0.3803">
        <ele>116.19999694824</ele>
        <time>2017-06-11T14:10:13.000Z</time>
      </trkpt>
      <trkpt lat="48.88881" lon="-0.3803">
        <ele>116.59999847412</ele>
        <time>2017-06-11T14:10:14.000Z</time>
      </trkpt>
      <trkpt lat="48.88884" lon="-0.38028">
        <ele>116.59999847412</ele>
        <time>2017-06-11T14:10:16.000Z</time>
      </trkpt>
      <trkpt lat="48.88892" lon="-0.3803">
        <ele>116.59999847412</ele>
        <time>2017-06-11T14:10:22.000Z</time>
      </trkpt>
      <trkpt lat="48.88893" lon="-0.38032">
        <ele>116.59999847412</ele>
        <time>2017-06-11T14:10:23.000Z</time>
      </trkpt>
      <trkpt lat="48.88899" lon="-0.38045">
        <ele>117</ele>
        <time>2017-06-11T14:10:29.000Z</time>
      </trkpt>
      <trkpt lat="48.88899" lon="-0.38046">
        <ele>117.40000152588</ele>
        <time>2017-06-11T14:10:30.000Z</time>
      </trkpt>
      <trkpt lat="48.889" lon="-0.38047">
        <ele>117.80000305176</ele>
        <time>2017-06-11T14:10:31.000Z</time>
      </trkpt>
      <trkpt lat="48.889" lon="-0.38049">
        <ele>118.19999694824</ele>
        <time>2017-06-11T14:10:32.000Z</time>
      </trkpt>
      <trkpt lat="48.88899" lon="-0.38051">
        <ele>118.59999847412</ele>
        <time>2017-06-11T14:10:33.000Z</time>
      </trkpt>
      <trkpt lat="48.88897" lon="-0.38054">
        <ele>118.59999847412</ele>
        <time>2017-06-11T14:10:34.000Z</time>
      </trkpt>
      <trkpt lat="48.88893" lon="-0.38059">
        <ele>118.59999847412</ele>
        <time>2017-06-11T14:10:35.000Z</time>
      </trkpt>
      <trkpt lat="48.88886" lon="-0.3808">
        <ele>118.59999847412</ele>
        <time>2017-06-11T14:10:38.000Z</time>
      </trkpt>
      <trkpt lat="48.88882" lon="-0.38092">
        <ele>118.59999847412</ele>
        <time>2017-06-11T14:10:40.000Z</time>
      </trkpt>
      <trkpt lat="48.88867" lon="-0.38117">
        <ele>118.19999694824</ele>
        <time>2017-06-11T14:10:45.000Z</time>
      </trkpt>
      <trkpt lat="48.88863" lon="-0.38122">
        <ele>117.80000305176</ele>
        <time>2017-06-11T14:10:46.000Z</time>
      </trkpt>
      <trkpt lat="48.88859" lon="-0.38126">
        <ele>117.40000152588</ele>
        <time>2017-06-11T14:10:47.000Z</time>
      </trkpt>
      <trkpt lat="48.88855" lon="-0.38129">
        <ele>117</ele>
        <time>2017-06-11T14:10:48.000Z</time>
      </trkpt>
      <trkpt lat="48.8885" lon="-0.38133">
        <ele>116.59999847412</ele>
        <time>2017-06-11T14:10:49.000Z</time>
      </trkpt>
      <trkpt lat="48.88845" lon="-0.38137">
        <ele>116.59999847412</ele>
        <time>2017-06-11T14:10:50.000Z</time>
      </trkpt>
      <trkpt lat="48.88822" lon="-0.38154">
        <ele>116</ele>
        <time>2017-06-11T14:10:55.000Z</time>
      </trkpt>
      <trkpt lat="48.88818" lon="-0.38158">
        <ele>115.59999847412</ele>
        <time>2017-06-11T14:10:56.000Z</time>
      </trkpt>
      <trkpt lat="48.88815" lon="-0.38163">
        <ele>115.19999694824</ele>
        <time>2017-06-11T14:10:57.000Z</time>
      </trkpt>
      <trkpt lat="48.88812" lon="-0.38167">
        <ele>114.80000305176</ele>
        <time>2017-06-11T14:10:58.000Z</time>
      </trkpt>
      <trkpt lat="48.88808" lon="-0.38169">
        <ele>114.40000152588</ele>
        <time>2017-06-11T14:10:59.000Z</time>
      </trkpt>
      <trkpt lat="48.88803" lon="-0.38173">
        <ele>114.40000152588</ele>
        <time>2017-06-11T14:11:01.000Z</time>
      </trkpt>
      <trkpt lat="48.88801" lon="-0.38186">
        <ele>114.40000152588</ele>
        <time>2017-06-11T14:11:05.000Z</time>
      </trkpt>
      <trkpt lat="48.88799" lon="-0.38192">
        <ele>114</ele>
        <time>2017-06-11T14:11:07.000Z</time>
      </trkpt>
      <trkpt lat="48.88799" lon="-0.38196">
        <ele>113.59999847412</ele>
        <time>2017-06-11T14:11:08.000Z</time>
      </trkpt>
      <trkpt lat="48.88798" lon="-0.382">
        <ele>113.19999694824</ele>
        <time>2017-06-11T14:11:09.000Z</time>
      </trkpt>
      <trkpt lat="48.88798" lon="-0.38203">
        <ele>112.80000305176</ele>
        <time>2017-06-11T14:11:10.000Z</time>
      </trkpt>
      <trkpt lat="48.88798" lon="-0.38207">
        <ele>112.40000152588</ele>
        <time>2017-06-11T14:11:11.000Z</time>
      </trkpt>
      <trkpt lat="48.88799" lon="-0.38233">
        <ele>112.40000152588</ele>
        <time>2017-06-11T14:11:17.000Z</time>
      </trkpt>
      <trkpt lat="48.888" lon="-0.38261">
        <ele>112.40000152588</ele>
        <time>2017-06-11T14:11:23.000Z</time>
      </trkpt>
      <trkpt lat="48.88803" lon="-0.38294">
        <ele>112.40000152588</ele>
        <time>2017-06-11T14:11:29.000Z</time>
      </trkpt>
      <trkpt lat="48.88803" lon="-0.38321">
        <ele>112.40000152588</ele>
        <time>2017-06-11T14:11:35.000Z</time>
      </trkpt>
      <trkpt lat="48.88807" lon="-0.38348">
        <ele>112.40000152588</ele>
        <time>2017-06-11T14:11:41.000Z</time>
      </trkpt>
      <trkpt lat="48.88811" lon="-0.38376">
        <ele>112.40000152588</ele>
        <time>2017-06-11T14:11:47.000Z</time>
      </trkpt>
      <trkpt lat="48.88808" lon="-0.384">
        <ele>112</ele>
        <time>2017-06-11T14:11:52.000Z</time>
      </trkpt>
      <trkpt lat="48.88807" lon="-0.38406">
        <ele>111.59999847412</ele>
        <time>2017-06-11T14:11:53.000Z</time>
      </trkpt>
      <trkpt lat="48.88805" lon="-0.38412">
        <ele>111.19999694824</ele>
        <time>2017-06-11T14:11:54.000Z</time>
      </trkpt>
      <trkpt lat="48.88803" lon="-0.38417">
        <ele>110.59999847412</ele>
        <time>2017-06-11T14:11:55.000Z</time>
      </trkpt>
      <trkpt lat="48.88801" lon="-0.38422">
        <ele>110.19999694824</ele>
        <time>2017-06-11T14:11:56.000Z</time>
      </trkpt>
      <trkpt lat="48.88799" lon="-0.38426">
        <ele>110.19999694824</ele>
        <time>2017-06-11T14:11:57.000Z</time>
      </trkpt>
      <trkpt lat="48.88783" lon="-0.3846">
        <ele>110.19999694824</ele>
        <time>2017-06-11T14:12:03.000Z</time>
      </trkpt>
      <trkpt lat="48.88773" lon="-0.38479">
        <ele>110.19999694824</ele>
        <time>2017-06-11T14:12:06.000Z</time>
      </trkpt>
      <trkpt lat="48.88768" lon="-0.38492">
        <ele>109.80000305176</ele>
        <time>2017-06-11T14:12:08.000Z</time>
      </trkpt>
      <trkpt lat="48.88765" lon="-0.38497">
        <ele>109.40000152588</ele>
        <time>2017-06-11T14:12:09.000Z</time>
      </trkpt>
      <trkpt lat="48.88762" lon="-0.38502">
        <ele>109</ele>
        <time>2017-06-11T14:12:10.000Z</time>
      </trkpt>
      <trkpt lat="48.88759" lon="-0.38507">
        <ele>108.59999847412</ele>
        <time>2017-06-11T14:12:11.000Z</time>
      </trkpt>
      <trkpt lat="48.88755" lon="-0.38511">
        <ele>108.19999694824</ele>
        <time>2017-06-11T14:12:12.000Z</time>
      </trkpt>
      <trkpt lat="48.88747" lon="-0.38519">
        <ele>108.19999694824</ele>
        <time>2017-06-11T14:12:14.000Z</time>
      </trkpt>
      <trkpt lat="48.8873" lon="-0.38533">
        <ele>108.19999694824</ele>
        <time>2017-06-11T14:12:18.000Z</time>
      </trkpt>
      <trkpt lat="48.88724" lon="-0.38537">
        <ele>108.19999694824</ele>
        <time>2017-06-11T14:12:19.000Z</time>
      </trkpt>
      <trkpt lat="48.88699" lon="-0.38552">
        <ele>108.19999694824</ele>
        <time>2017-06-11T14:12:25.000Z</time>
      </trkpt>
      <trkpt lat="48.88695" lon="-0.38554">
        <ele>108.19999694824</ele>
        <time>2017-06-11T14:12:28.000Z</time>
      </trkpt>
      <trkpt lat="48.88695" lon="-0.38554">
        <ele>108.19999694824</ele>
        <time>2017-06-11T14:12:39.000Z</time>
      </trkpt>
      <trkpt lat="48.88685" lon="-0.38558">
        <ele>108.19999694824</ele>
        <time>2017-06-11T14:12:46.000Z</time>
      </trkpt>
      <trkpt lat="48.88673" lon="-0.38568">
        <ele>107.80000305176</ele>
        <time>2017-06-11T14:12:50.000Z</time>
      </trkpt>
      <trkpt lat="48.8867" lon="-0.38569">
        <ele>107.40000152588</ele>
        <time>2017-06-11T14:12:51.000Z</time>
      </trkpt>
      <trkpt lat="48.88668" lon="-0.38571">
        <ele>107</ele>
        <time>2017-06-11T14:12:52.000Z</time>
      </trkpt>
      <trkpt lat="48.88665" lon="-0.38574">
        <ele>106.59999847412</ele>
        <time>2017-06-11T14:12:53.000Z</time>
      </trkpt>
      <trkpt lat="48.88662" lon="-0.38576">
        <ele>106.19999694824</ele>
        <time>2017-06-11T14:12:54.000Z</time>
      </trkpt>
      <trkpt lat="48.8866" lon="-0.3858">
        <ele>106.19999694824</ele>
        <time>2017-06-11T14:12:55.000Z</time>
      </trkpt>
      <trkpt lat="48.8865" lon="-0.38589">
        <ele>106.19999694824</ele>
        <time>2017-06-11T14:12:59.000Z</time>
      </trkpt>
      <trkpt lat="48.88641" lon="-0.38611">
        <ele>106.19999694824</ele>
        <time>2017-06-11T14:13:04.000Z</time>
      </trkpt>
      <trkpt lat="48.88634" lon="-0.38637">
        <ele>106.19999694824</ele>
        <time>2017-06-11T14:13:10.000Z</time>
      </trkpt>
      <trkpt lat="48.88628" lon="-0.38654">
        <ele>106.19999694824</ele>
        <time>2017-06-11T14:13:16.000Z</time>
      </trkpt>
      <trkpt lat="48.88626" lon="-0.38679">
        <ele>105.80000305176</ele>
        <time>2017-06-11T14:13:22.000Z</time>
      </trkpt>
      <trkpt lat="48.88625" lon="-0.38685">
        <ele>105.40000152588</ele>
        <time>2017-06-11T14:13:23.000Z</time>
      </trkpt>
      <trkpt lat="48.88623" lon="-0.38691">
        <ele>105</ele>
        <time>2017-06-11T14:13:24.000Z</time>
      </trkpt>
      <trkpt lat="48.88622" lon="-0.38697">
        <ele>104.59999847412</ele>
        <time>2017-06-11T14:13:25.000Z</time>
      </trkpt>
      <trkpt lat="48.88621" lon="-0.38705">
        <ele>104</ele>
        <time>2017-06-11T14:13:26.000Z</time>
      </trkpt>
      <trkpt lat="48.88619" lon="-0.38718">
        <ele>104</ele>
        <time>2017-06-11T14:13:28.000Z</time>
      </trkpt>
      <trkpt lat="48.88615" lon="-0.38746">
        <ele>104</ele>
        <time>2017-06-11T14:13:33.000Z</time>
      </trkpt>
      <trkpt lat="48.88614" lon="-0.38749">
        <ele>104</ele>
        <time>2017-06-11T14:13:34.000Z</time>
      </trkpt>
      <trkpt lat="48.8861" lon="-0.3876">
        <ele>104</ele>
        <time>2017-06-11T14:13:37.000Z</time>
      </trkpt>
      <trkpt lat="48.88605" lon="-0.38766">
        <ele>103.59999847412</ele>
        <time>2017-06-11T14:13:39.000Z</time>
      </trkpt>
      <trkpt lat="48.88603" lon="-0.38773">
        <ele>103.19999694824</ele>
        <time>2017-06-11T14:13:40.000Z</time>
      </trkpt>
      <trkpt lat="48.88602" lon="-0.38779">
        <ele>102.80000305176</ele>
        <time>2017-06-11T14:13:41.000Z</time>
      </trkpt>
      <trkpt lat="48.88602" lon="-0.38782">
        <ele>102.40000152588</ele>
        <time>2017-06-11T14:13:42.000Z</time>
      </trkpt>
      <trkpt lat="48.88602" lon="-0.38786">
        <ele>101.80000305176</ele>
        <time>2017-06-11T14:13:43.000Z</time>
      </trkpt>
      <trkpt lat="48.88598" lon="-0.38813">
        <ele>101.80000305176</ele>
        <time>2017-06-11T14:13:48.000Z</time>
      </trkpt>
      <trkpt lat="48.88593" lon="-0.3884">
        <ele>101.80000305176</ele>
        <time>2017-06-11T14:13:54.000Z</time>
      </trkpt>
      <trkpt lat="48.88592" lon="-0.38848">
        <ele>101.80000305176</ele>
        <time>2017-06-11T14:13:58.000Z</time>
      </trkpt>
      <trkpt lat="48.8859" lon="-0.38853">
        <ele>102.19999694824</ele>
        <time>2017-06-11T14:14:01.000Z</time>
      </trkpt>
      <trkpt lat="48.8859" lon="-0.38855">
        <ele>102.59999847412</ele>
        <time>2017-06-11T14:14:02.000Z</time>
      </trkpt>
      <trkpt lat="48.88589" lon="-0.38858">
        <ele>103</ele>
        <time>2017-06-11T14:14:03.000Z</time>
      </trkpt>
      <trkpt lat="48.88589" lon="-0.3886">
        <ele>103.40000152588</ele>
        <time>2017-06-11T14:14:04.000Z</time>
      </trkpt>
      <trkpt lat="48.88588" lon="-0.38862">
        <ele>103.80000305176</ele>
        <time>2017-06-11T14:14:05.000Z</time>
      </trkpt>
      <trkpt lat="48.88582" lon="-0.38882">
        <ele>103.80000305176</ele>
        <time>2017-06-11T14:14:11.000Z</time>
      </trkpt>
      <trkpt lat="48.88579" lon="-0.38897">
        <ele>103.80000305176</ele>
        <time>2017-06-11T14:14:14.000Z</time>
      </trkpt>
      <trkpt lat="48.88568" lon="-0.38915">
        <ele>103.80000305176</ele>
        <time>2017-06-11T14:14:19.000Z</time>
      </trkpt>
      <trkpt lat="48.88566" lon="-0.38923">
        <ele>103.80000305176</ele>
        <time>2017-06-11T14:14:22.000Z</time>
      </trkpt>
      <trkpt lat="48.88565" lon="-0.38937">
        <ele>103.80000305176</ele>
        <time>2017-06-11T14:14:27.000Z</time>
      </trkpt>
      <trkpt lat="48.88563" lon="-0.3894">
        <ele>103.40000152588</ele>
        <time>2017-06-11T14:14:28.000Z</time>
      </trkpt>
      <trkpt lat="48.88562" lon="-0.38942">
        <ele>103</ele>
        <time>2017-06-11T14:14:29.000Z</time>
      </trkpt>
      <trkpt lat="48.8856" lon="-0.38944">
        <ele>102.59999847412</ele>
        <time>2017-06-11T14:14:30.000Z</time>
      </trkpt>
      <trkpt lat="48.88559" lon="-0.38946">
        <ele>102.19999694824</ele>
        <time>2017-06-11T14:14:31.000Z</time>
      </trkpt>
      <trkpt lat="48.88557" lon="-0.3895">
        <ele>101.80000305176</ele>
        <time>2017-06-11T14:14:32.000Z</time>
      </trkpt>
      <trkpt lat="48.88551" lon="-0.38963">
        <ele>101.19999694824</ele>
        <time>2017-06-11T14:14:35.000Z</time>
      </trkpt>
      <trkpt lat="48.88548" lon="-0.38967">
        <ele>100.80000305176</ele>
        <time>2017-06-11T14:14:36.000Z</time>
      </trkpt>
      <trkpt lat="48.88546" lon="-0.38971">
        <ele>100.40000152588</ele>
        <time>2017-06-11T14:14:37.000Z</time>
      </trkpt>
      <trkpt lat="48.88545" lon="-0.38975">
        <ele>100</ele>
        <time>2017-06-11T14:14:38.000Z</time>
      </trkpt>
      <trkpt lat="48.88543" lon="-0.38979">
        <ele>99.599998474121</ele>
        <time>2017-06-11T14:14:39.000Z</time>
      </trkpt>
      <trkpt lat="48.8854" lon="-0.38991">
        <ele>99.599998474121</ele>
        <time>2017-06-11T14:14:42.000Z</time>
      </trkpt>
      <trkpt lat="48.88539" lon="-0.38996">
        <ele>99.599998474121</ele>
        <time>2017-06-11T14:14:43.000Z</time>
      </trkpt>
      <trkpt lat="48.88537" lon="-0.39001">
        <ele>98.800003051758</ele>
        <time>2017-06-11T14:14:44.000Z</time>
      </trkpt>
      <trkpt lat="48.88535" lon="-0.39005">
        <ele>98.400001525879</ele>
        <time>2017-06-11T14:14:45.000Z</time>
      </trkpt>
      <trkpt lat="48.88534" lon="-0.39009">
        <ele>98</ele>
        <time>2017-06-11T14:14:46.000Z</time>
      </trkpt>
      <trkpt lat="48.88532" lon="-0.39013">
        <ele>97.400001525879</ele>
        <time>2017-06-11T14:14:47.000Z</time>
      </trkpt>
      <trkpt lat="48.88529" lon="-0.39022">
        <ele>97.400001525879</ele>
        <time>2017-06-11T14:14:50.000Z</time>
      </trkpt>
      <trkpt lat="48.88521" lon="-0.39041">
        <ele>97.400001525879</ele>
        <time>2017-06-11T14:14:55.000Z</time>
      </trkpt>
      <trkpt lat="48.88512" lon="-0.39057">
        <ele>97.400001525879</ele>
        <time>2017-06-11T14:15:00.000Z</time>
      </trkpt>
      <trkpt lat="48.88508" lon="-0.39069">
        <ele>97.400001525879</ele>
        <time>2017-06-11T14:15:05.000Z</time>
      </trkpt>
      <trkpt lat="48.88505" lon="-0.39083">
        <ele>97.400001525879</ele>
        <time>2017-06-11T14:15:10.000Z</time>
      </trkpt>
      <trkpt lat="48.88499" lon="-0.39096">
        <ele>97.400001525879</ele>
        <time>2017-06-11T14:15:15.000Z</time>
      </trkpt>
      <trkpt lat="48.88491" lon="-0.39104">
        <ele>97.400001525879</ele>
        <time>2017-06-11T14:15:21.000Z</time>
      </trkpt>
      <trkpt lat="48.88487" lon="-0.39104">
        <ele>97.400001525879</ele>
        <time>2017-06-11T14:15:24.000Z</time>
      </trkpt>
      <trkpt lat="48.88481" lon="-0.39106">
        <ele>97</ele>
        <time>2017-06-11T14:15:26.000Z</time>
      </trkpt>
      <trkpt lat="48.88477" lon="-0.39109">
        <ele>96.599998474121</ele>
        <time>2017-06-11T14:15:27.000Z</time>
      </trkpt>
      <trkpt lat="48.88475" lon="-0.39111">
        <ele>96.199996948242</ele>
        <time>2017-06-11T14:15:28.000Z</time>
      </trkpt>
      <trkpt lat="48.88472" lon="-0.39112">
        <ele>95.800003051758</ele>
        <time>2017-06-11T14:15:29.000Z</time>
      </trkpt>
      <trkpt lat="48.8847" lon="-0.39114">
        <ele>95.400001525879</ele>
        <time>2017-06-11T14:15:30.000Z</time>
      </trkpt>
      <trkpt lat="48.88469" lon="-0.39115">
        <ele>95.400001525879</ele>
        <time>2017-06-11T14:15:31.000Z</time>
      </trkpt>
      <trkpt lat="48.88458" lon="-0.39121">
        <ele>95.400001525879</ele>
        <time>2017-06-11T14:15:37.000Z</time>
      </trkpt>
      <trkpt lat="48.88449" lon="-0.39136">
        <ele>95.400001525879</ele>
        <time>2017-06-11T14:15:43.000Z</time>
      </trkpt>
      <trkpt lat="48.88447" lon="-0.39145">
        <ele>95.400001525879</ele>
        <time>2017-06-11T14:15:49.000Z</time>
      </trkpt>
      <trkpt lat="48.88447" lon="-0.39146">
        <ele>95.400001525879</ele>
        <time>2017-06-11T14:15:57.000Z</time>
      </trkpt>
      <trkpt lat="48.88447" lon="-0.39146">
        <ele>95.400001525879</ele>
        <time>2017-06-11T14:16:10.000Z</time>
      </trkpt>
      <trkpt lat="48.88447" lon="-0.39146">
        <ele>95.400001525879</ele>
        <time>2017-06-11T14:16:24.000Z</time>
      </trkpt>
      <trkpt lat="48.88447" lon="-0.39146">
        <ele>95.400001525879</ele>
        <time>2017-06-11T14:16:37.000Z</time>
      </trkpt>
      <trkpt lat="48.88447" lon="-0.39146">
        <ele>95.400001525879</ele>
        <time>2017-06-11T14:16:49.000Z</time>
      </trkpt>
      <trkpt lat="48.88447" lon="-0.39146">
        <ele>95.400001525879</ele>
        <time>2017-06-11T14:17:07.000Z</time>
      </trkpt>
      <trkpt lat="48.88447" lon="-0.39146">
        <ele>95.400001525879</ele>
        <time>2017-06-11T14:17:18.000Z</time>
      </trkpt>
      <trkpt lat="48.88447" lon="-0.39146">
        <ele>95.400001525879</ele>
        <time>2017-06-11T14:17:28.000Z</time>
      </trkpt>
      <trkpt lat="48.88446" lon="-0.39147">
        <ele>95.400001525879</ele>
        <time>2017-06-11T14:17:33.000Z</time>
      </trkpt>
      <trkpt lat="48.88442" lon="-0.39154">
        <ele>95.400001525879</ele>
        <time>2017-06-11T14:17:35.000Z</time>
      </trkpt>
      <trkpt lat="48.88438" lon="-0.39178">
        <ele>95.400001525879</ele>
        <time>2017-06-11T14:17:39.000Z</time>
      </trkpt>
      <trkpt lat="48.88438" lon="-0.39183">
        <ele>95.400001525879</ele>
        <time>2017-06-11T14:17:40.000Z</time>
      </trkpt>
      <trkpt lat="48.88437" lon="-0.39197">
        <ele>95</ele>
        <time>2017-06-11T14:17:42.000Z</time>
      </trkpt>
      <trkpt lat="48.88436" lon="-0.39202">
        <ele>94.599998474121</ele>
        <time>2017-06-11T14:17:43.000Z</time>
      </trkpt>
      <trkpt lat="48.88434" lon="-0.39207">
        <ele>94</ele>
        <time>2017-06-11T14:17:44.000Z</time>
      </trkpt>
      <trkpt lat="48.88432" lon="-0.3921">
        <ele>93.599998474121</ele>
        <time>2017-06-11T14:17:45.000Z</time>
      </trkpt>
      <trkpt lat="48.8843" lon="-0.39213">
        <ele>93</ele>
        <time>2017-06-11T14:17:46.000Z</time>
      </trkpt>
      <trkpt lat="48.88429" lon="-0.39215">
        <ele>92.599998474121</ele>
        <time>2017-06-11T14:17:47.000Z</time>
      </trkpt>
      <trkpt lat="48.88428" lon="-0.39216">
        <ele>92</ele>
        <time>2017-06-11T14:17:48.000Z</time>
      </trkpt>
      <trkpt lat="48.88428" lon="-0.39216">
        <ele>91.400001525879</ele>
        <time>2017-06-11T14:17:49.000Z</time>
      </trkpt>
      <trkpt lat="48.88428" lon="-0.39216">
        <ele>90.800003051758</ele>
        <time>2017-06-11T14:17:50.000Z</time>
      </trkpt>
      <trkpt lat="48.88427" lon="-0.39218">
        <ele>90.800003051758</ele>
        <time>2017-06-11T14:17:53.000Z</time>
      </trkpt>
      <trkpt lat="48.88424" lon="-0.39226">
        <ele>90.800003051758</ele>
        <time>2017-06-11T14:17:59.000Z</time>
      </trkpt>
      <trkpt lat="48.88423" lon="-0.39227">
        <ele>90.800003051758</ele>
        <time>2017-06-11T14:18:00.000Z</time>
      </trkpt>
      <trkpt lat="48.88421" lon="-0.39232">
        <ele>90.800003051758</ele>
        <time>2017-06-11T14:18:04.000Z</time>
      </trkpt>
      <trkpt lat="48.8842" lon="-0.39233">
        <ele>90.800003051758</ele>
        <time>2017-06-11T14:18:05.000Z</time>
      </trkpt>
      <trkpt lat="48.8842" lon="-0.39236">
        <ele>90.800003051758</ele>
        <time>2017-06-11T14:18:09.000Z</time>
      </trkpt>
      <trkpt lat="48.8842" lon="-0.39241">
        <ele>90.800003051758</ele>
        <time>2017-06-11T14:18:15.000Z</time>
      </trkpt>
      <trkpt lat="48.88419" lon="-0.39248">
        <ele>90.800003051758</ele>
        <time>2017-06-11T14:18:20.000Z</time>
      </trkpt>
      <trkpt lat="48.88418" lon="-0.39262">
        <ele>90.800003051758</ele>
        <time>2017-06-11T14:18:26.000Z</time>
      </trkpt>
      <trkpt lat="48.88419" lon="-0.39263">
        <ele>90.800003051758</ele>
        <time>2017-06-11T14:18:27.000Z</time>
      </trkpt>
      <trkpt lat="48.88419" lon="-0.3927">
        <ele>91.199996948242</ele>
        <time>2017-06-11T14:18:30.000Z</time>
      </trkpt>
      <trkpt lat="48.88419" lon="-0.39273">
        <ele>91.800003051758</ele>
        <time>2017-06-11T14:18:31.000Z</time>
      </trkpt>
      <trkpt lat="48.88419" lon="-0.39275">
        <ele>92.199996948242</ele>
        <time>2017-06-11T14:18:32.000Z</time>
      </trkpt>
      <trkpt lat="48.88419" lon="-0.39277">
        <ele>92.599998474121</ele>
        <time>2017-06-11T14:18:33.000Z</time>
      </trkpt>
      <trkpt lat="48.88418" lon="-0.39279">
        <ele>93</ele>
        <time>2017-06-11T14:18:34.000Z</time>
      </trkpt>
      <trkpt lat="48.88418" lon="-0.39287">
        <ele>93</ele>
        <time>2017-06-11T14:18:38.000Z</time>
      </trkpt>
      <trkpt lat="48.88418" lon="-0.39296">
        <ele>93.400001525879</ele>
        <time>2017-06-11T14:18:43.000Z</time>
      </trkpt>
      <trkpt lat="48.88417" lon="-0.39299">
        <ele>93.800003051758</ele>
        <time>2017-06-11T14:18:44.000Z</time>
      </trkpt>
      <trkpt lat="48.88416" lon="-0.39301">
        <ele>94.199996948242</ele>
        <time>2017-06-11T14:18:45.000Z</time>
      </trkpt>
      <trkpt lat="48.88415" lon="-0.39303">
        <ele>94.599998474121</ele>
        <time>2017-06-11T14:18:46.000Z</time>
      </trkpt>
      <trkpt lat="48.88415" lon="-0.39304">
        <ele>95</ele>
        <time>2017-06-11T14:18:47.000Z</time>
      </trkpt>
      <trkpt lat="48.88412" lon="-0.39311">
        <ele>95</ele>
        <time>2017-06-11T14:18:51.000Z</time>
      </trkpt>
      <trkpt lat="48.88411" lon="-0.39316">
        <ele>95</ele>
        <time>2017-06-11T14:18:54.000Z</time>
      </trkpt>
      <trkpt lat="48.8841" lon="-0.39325">
        <ele>95.400001525879</ele>
        <time>2017-06-11T14:18:58.000Z</time>
      </trkpt>
      <trkpt lat="48.88409" lon="-0.39327">
        <ele>95.800003051758</ele>
        <time>2017-06-11T14:18:59.000Z</time>
      </trkpt>
      <trkpt lat="48.88408" lon="-0.39331">
        <ele>96.199996948242</ele>
        <time>2017-06-11T14:19:00.000Z</time>
      </trkpt>
      <trkpt lat="48.88407" lon="-0.39334">
        <ele>96.800003051758</ele>
        <time>2017-06-11T14:19:01.000Z</time>
      </trkpt>
      <trkpt lat="48.88406" lon="-0.39338">
        <ele>97.199996948242</ele>
        <time>2017-06-11T14:19:02.000Z</time>
      </trkpt>
      <trkpt lat="48.88404" lon="-0.3935">
        <ele>97.199996948242</ele>
        <time>2017-06-11T14:19:05.000Z</time>
      </trkpt>
      <trkpt lat="48.88394" lon="-0.39369">
        <ele>97.199996948242</ele>
        <time>2017-06-11T14:19:12.000Z</time>
      </trkpt>
      <trkpt lat="48.8838" lon="-0.39383">
        <ele>97.199996948242</ele>
        <time>2017-06-11T14:19:18.000Z</time>
      </trkpt>
      <trkpt lat="48.88364" lon="-0.3939">
        <ele>97.199996948242</ele>
        <time>2017-06-11T14:19:26.000Z</time>
      </trkpt>
      <trkpt lat="48.88358" lon="-0.394">
        <ele>97.199996948242</ele>
        <time>2017-06-11T14:19:32.000Z</time>
      </trkpt>
      <trkpt lat="48.88358" lon="-0.39403">
        <ele>97.599998474121</ele>
        <time>2017-06-11T14:19:33.000Z</time>
      </trkpt>
      <trkpt lat="48.88359" lon="-0.39405">
        <ele>98</ele>
        <time>2017-06-11T14:19:34.000Z</time>
      </trkpt>
      <trkpt lat="48.88359" lon="-0.39408">
        <ele>98.400001525879</ele>
        <time>2017-06-11T14:19:35.000Z</time>
      </trkpt>
      <trkpt lat="48.88359" lon="-0.3941">
        <ele>98.800003051758</ele>
        <time>2017-06-11T14:19:36.000Z</time>
      </trkpt>
      <trkpt lat="48.88358" lon="-0.39414">
        <ele>99.199996948242</ele>
        <time>2017-06-11T14:19:37.000Z</time>
      </trkpt>
      <trkpt lat="48.88357" lon="-0.39417">
        <ele>99.199996948242</ele>
        <time>2017-06-11T14:19:38.000Z</time>
      </trkpt>
      <trkpt lat="48.88354" lon="-0.39437">
        <ele>99.199996948242</ele>
        <time>2017-06-11T14:19:44.000Z</time>
      </trkpt>
      <trkpt lat="48.88353" lon="-0.39444">
        <ele>99.800003051758</ele>
        <time>2017-06-11T14:19:46.000Z</time>
      </trkpt>
      <trkpt lat="48.88353" lon="-0.39447">
        <ele>100.19999694824</ele>
        <time>2017-06-11T14:19:47.000Z</time>
      </trkpt>
      <trkpt lat="48.88353" lon="-0.39449">
        <ele>100.59999847412</ele>
        <time>2017-06-11T14:19:48.000Z</time>
      </trkpt>
      <trkpt lat="48.88352" lon="-0.39452">
        <ele>101</ele>
        <time>2017-06-11T14:19:49.000Z</time>
      </trkpt>
      <trkpt lat="48.88352" lon="-0.39454">
        <ele>101.40000152588</ele>
        <time>2017-06-11T14:19:50.000Z</time>
      </trkpt>
      <trkpt lat="48.88352" lon="-0.39457">
        <ele>101.40000152588</ele>
        <time>2017-06-11T14:19:51.000Z</time>
      </trkpt>
      <trkpt lat="48.88351" lon="-0.39473">
        <ele>101.80000305176</ele>
        <time>2017-06-11T14:19:57.000Z</time>
      </trkpt>
      <trkpt lat="48.88351" lon="-0.39475">
        <ele>102.19999694824</ele>
        <time>2017-06-11T14:19:58.000Z</time>
      </trkpt>
      <trkpt lat="48.8835" lon="-0.39478">
        <ele>102.59999847412</ele>
        <time>2017-06-11T14:19:59.000Z</time>
      </trkpt>
      <trkpt lat="48.8835" lon="-0.3948">
        <ele>103</ele>
        <time>2017-06-11T14:20:00.000Z</time>
      </trkpt>
      <trkpt lat="48.88349" lon="-0.39482">
        <ele>103.59999847412</ele>
        <time>2017-06-11T14:20:01.000Z</time>
      </trkpt>
      <trkpt lat="48.88345" lon="-0.39497">
        <ele>104</ele>
        <time>2017-06-11T14:20:07.000Z</time>
      </trkpt>
      <trkpt lat="48.88345" lon="-0.39499">
        <ele>104.40000152588</ele>
        <time>2017-06-11T14:20:08.000Z</time>
      </trkpt>
      <trkpt lat="48.88344" lon="-0.39501">
        <ele>104.80000305176</ele>
        <time>2017-06-11T14:20:09.000Z</time>
      </trkpt>
      <trkpt lat="48.88344" lon="-0.39503">
        <ele>105.19999694824</ele>
        <time>2017-06-11T14:20:10.000Z</time>
      </trkpt>
      <trkpt lat="48.88344" lon="-0.39504">
        <ele>105.80000305176</ele>
        <time>2017-06-11T14:20:11.000Z</time>
      </trkpt>
      <trkpt lat="48.88344" lon="-0.39508">
        <ele>105.80000305176</ele>
        <time>2017-06-11T14:20:13.000Z</time>
      </trkpt>
      <trkpt lat="48.88342" lon="-0.39514">
        <ele>106.19999694824</ele>
        <time>2017-06-11T14:20:16.000Z</time>
      </trkpt>
      <trkpt lat="48.88342" lon="-0.39516">
        <ele>106.59999847412</ele>
        <time>2017-06-11T14:20:17.000Z</time>
      </trkpt>
      <trkpt lat="48.88341" lon="-0.39518">
        <ele>107</ele>
        <time>2017-06-11T14:20:18.000Z</time>
      </trkpt>
      <trkpt lat="48.8834" lon="-0.3952">
        <ele>107.40000152588</ele>
        <time>2017-06-11T14:20:19.000Z</time>
      </trkpt>
      <trkpt lat="48.8834" lon="-0.39521">
        <ele>107.80000305176</ele>
        <time>2017-06-11T14:20:20.000Z</time>
      </trkpt>
      <trkpt lat="48.88339" lon="-0.39523">
        <ele>107.80000305176</ele>
        <time>2017-06-11T14:20:21.000Z</time>
      </trkpt>
      <trkpt lat="48.88339" lon="-0.39526">
        <ele>107.80000305176</ele>
        <time>2017-06-11T14:20:27.000Z</time>
      </trkpt>
      <trkpt lat="48.88339" lon="-0.39525">
        <ele>108.19999694824</ele>
        <time>2017-06-11T14:20:28.000Z</time>
      </trkpt>
      <trkpt lat="48.88339" lon="-0.39525">
        <ele>108.59999847412</ele>
        <time>2017-06-11T14:20:29.000Z</time>
      </trkpt>
      <trkpt lat="48.88339" lon="-0.39525">
        <ele>109.40000152588</ele>
        <time>2017-06-11T14:20:30.000Z</time>
      </trkpt>
      <trkpt lat="48.88339" lon="-0.39525">
        <ele>109.80000305176</ele>
        <time>2017-06-11T14:20:31.000Z</time>
      </trkpt>
      <trkpt lat="48.88339" lon="-0.39525">
        <ele>109.80000305176</ele>
        <time>2017-06-11T14:20:36.000Z</time>
      </trkpt>
      <trkpt lat="48.88336" lon="-0.39527">
        <ele>109.80000305176</ele>
        <time>2017-06-11T14:20:43.000Z</time>
      </trkpt>
      <trkpt lat="48.88334" lon="-0.39534">
        <ele>109.80000305176</ele>
        <time>2017-06-11T14:20:48.000Z</time>
      </trkpt>
      <trkpt lat="48.88331" lon="-0.39542">
        <ele>109.80000305176</ele>
        <time>2017-06-11T14:20:54.000Z</time>
      </trkpt>
      <trkpt lat="48.8833" lon="-0.39544">
        <ele>110.19999694824</ele>
        <time>2017-06-11T14:20:56.000Z</time>
      </trkpt>
      <trkpt lat="48.88328" lon="-0.39545">
        <ele>110.59999847412</ele>
        <time>2017-06-11T14:20:57.000Z</time>
      </trkpt>
      <trkpt lat="48.88327" lon="-0.39547">
        <ele>111</ele>
        <time>2017-06-11T14:20:58.000Z</time>
      </trkpt>
      <trkpt lat="48.88326" lon="-0.39548">
        <ele>111.59999847412</ele>
        <time>2017-06-11T14:20:59.000Z</time>
      </trkpt>
      <trkpt lat="48.88325" lon="-0.39549">
        <ele>112</ele>
        <time>2017-06-11T14:21:00.000Z</time>
      </trkpt>
      <trkpt lat="48.88319" lon="-0.39556">
        <ele>112.40000152588</ele>
        <time>2017-06-11T14:21:08.000Z</time>
      </trkpt>
      <trkpt lat="48.88318" lon="-0.39557">
        <ele>112.80000305176</ele>
        <time>2017-06-11T14:21:09.000Z</time>
      </trkpt>
      <trkpt lat="48.88318" lon="-0.39557">
        <ele>113.19999694824</ele>
        <time>2017-06-11T14:21:10.000Z</time>
      </trkpt>
      <trkpt lat="48.88318" lon="-0.39557">
        <ele>113.59999847412</ele>
        <time>2017-06-11T14:21:11.000Z</time>
      </trkpt>
      <trkpt lat="48.88318" lon="-0.39557">
        <ele>114</ele>
        <time>2017-06-11T14:21:12.000Z</time>
      </trkpt>
      <trkpt lat="48.88318" lon="-0.39558">
        <ele>114</ele>
        <time>2017-06-11T14:21:14.000Z</time>
      </trkpt>
      <trkpt lat="48.88311" lon="-0.39564">
        <ele>114</ele>
        <time>2017-06-11T14:21:21.000Z</time>
      </trkpt>
      <trkpt lat="48.88307" lon="-0.39569">
        <ele>114.40000152588</ele>
        <time>2017-06-11T14:21:26.000Z</time>
      </trkpt>
      <trkpt lat="48.88306" lon="-0.3957">
        <ele>114.80000305176</ele>
        <time>2017-06-11T14:21:27.000Z</time>
      </trkpt>
      <trkpt lat="48.88306" lon="-0.3957">
        <ele>115.19999694824</ele>
        <time>2017-06-11T14:21:28.000Z</time>
      </trkpt>
      <trkpt lat="48.88306" lon="-0.3957">
        <ele>115.59999847412</ele>
        <time>2017-06-11T14:21:29.000Z</time>
      </trkpt>
      <trkpt lat="48.88306" lon="-0.3957">
        <ele>116</ele>
        <time>2017-06-11T14:21:30.000Z</time>
      </trkpt>
      <trkpt lat="48.88302" lon="-0.39571">
        <ele>116</ele>
        <time>2017-06-11T14:21:33.000Z</time>
      </trkpt>
      <trkpt lat="48.88299" lon="-0.39573">
        <ele>116</ele>
        <time>2017-06-11T14:21:36.000Z</time>
      </trkpt>
      <trkpt lat="48.88295" lon="-0.39578">
        <ele>116.40000152588</ele>
        <time>2017-06-11T14:21:42.000Z</time>
      </trkpt>
      <trkpt lat="48.88294" lon="-0.39578">
        <ele>116.80000305176</ele>
        <time>2017-06-11T14:21:43.000Z</time>
      </trkpt>
      <trkpt lat="48.88293" lon="-0.39578">
        <ele>117.59999847412</ele>
        <time>2017-06-11T14:21:44.000Z</time>
      </trkpt>
      <trkpt lat="48.88292" lon="-0.39578">
        <ele>118</ele>
        <time>2017-06-11T14:21:45.000Z</time>
      </trkpt>
      <trkpt lat="48.88289" lon="-0.39581">
        <ele>118</ele>
        <time>2017-06-11T14:21:49.000Z</time>
      </trkpt>
      <trkpt lat="48.88282" lon="-0.39588">
        <ele>118</ele>
        <time>2017-06-11T14:21:56.000Z</time>
      </trkpt>
      <trkpt lat="48.8828" lon="-0.39592">
        <ele>118.40000152588</ele>
        <time>2017-06-11T14:21:59.000Z</time>
      </trkpt>
      <trkpt lat="48.88279" lon="-0.39594">
        <ele>118.80000305176</ele>
        <time>2017-06-11T14:22:00.000Z</time>
      </trkpt>
      <trkpt lat="48.88278" lon="-0.39595">
        <ele>119.40000152588</ele>
        <time>2017-06-11T14:22:01.000Z</time>
      </trkpt>
      <trkpt lat="48.88278" lon="-0.39597">
        <ele>119.80000305176</ele>
        <time>2017-06-11T14:22:02.000Z</time>
      </trkpt>
      <trkpt lat="48.88277" lon="-0.39598">
        <ele>120.19999694824</ele>
        <time>2017-06-11T14:22:03.000Z</time>
      </trkpt>
      <trkpt lat="48.88277" lon="-0.396">
        <ele>120.19999694824</ele>
        <time>2017-06-11T14:22:04.000Z</time>
      </trkpt>
      <trkpt lat="48.88276" lon="-0.39602">
        <ele>120.19999694824</ele>
        <time>2017-06-11T14:22:05.000Z</time>
      </trkpt>
      <trkpt lat="48.88271" lon="-0.39616">
        <ele>120.19999694824</ele>
        <time>2017-06-11T14:22:12.000Z</time>
      </trkpt>
      <trkpt lat="48.88268" lon="-0.39624">
        <ele>120.59999847412</ele>
        <time>2017-06-11T14:22:17.000Z</time>
      </trkpt>
      <trkpt lat="48.88268" lon="-0.39626">
        <ele>121</ele>
        <time>2017-06-11T14:22:18.000Z</time>
      </trkpt>
      <trkpt lat="48.88267" lon="-0.39627">
        <ele>121.40000152588</ele>
        <time>2017-06-11T14:22:19.000Z</time>
      </trkpt>
      <trkpt lat="48.88266" lon="-0.39628">
        <ele>121.80000305176</ele>
        <time>2017-06-11T14:22:20.000Z</time>
      </trkpt>
      <trkpt lat="48.88266" lon="-0.39629">
        <ele>122.19999694824</ele>
        <time>2017-06-11T14:22:21.000Z</time>
      </trkpt>
      <trkpt lat="48.88262" lon="-0.39632">
        <ele>122.19999694824</ele>
        <time>2017-06-11T14:22:26.000Z</time>
      </trkpt>
      <trkpt lat="48.88261" lon="-0.39632">
        <ele>122.19999694824</ele>
        <time>2017-06-11T14:22:33.000Z</time>
      </trkpt>
      <trkpt lat="48.8826" lon="-0.39633">
        <ele>122.19999694824</ele>
        <time>2017-06-11T14:22:44.000Z</time>
      </trkpt>
      <trkpt lat="48.88258" lon="-0.39634">
        <ele>122.19999694824</ele>
        <time>2017-06-11T14:22:51.000Z</time>
      </trkpt>
      <trkpt lat="48.88257" lon="-0.39633">
        <ele>122.19999694824</ele>
        <time>2017-06-11T14:23:00.000Z</time>
      </trkpt>
      <trkpt lat="48.88252" lon="-0.39632">
        <ele>122.19999694824</ele>
        <time>2017-06-11T14:23:04.000Z</time>
      </trkpt>
      <trkpt lat="48.88251" lon="-0.39632">
        <ele>122.59999847412</ele>
        <time>2017-06-11T14:23:05.000Z</time>
      </trkpt>
      <trkpt lat="48.88251" lon="-0.39631">
        <ele>123</ele>
        <time>2017-06-11T14:23:06.000Z</time>
      </trkpt>
      <trkpt lat="48.88251" lon="-0.39631">
        <ele>123.40000152588</ele>
        <time>2017-06-11T14:23:07.000Z</time>
      </trkpt>
      <trkpt lat="48.8825" lon="-0.39631">
        <ele>123.80000305176</ele>
        <time>2017-06-11T14:23:08.000Z</time>
      </trkpt>
      <trkpt lat="48.88249" lon="-0.39631">
        <ele>124.19999694824</ele>
        <time>2017-06-11T14:23:09.000Z</time>
      </trkpt>
      <trkpt lat="48.88246" lon="-0.39629">
        <ele>124.19999694824</ele>
        <time>2017-06-11T14:23:12.000Z</time>
      </trkpt>
      <trkpt lat="48.88239" lon="-0.39627">
        <ele>124.19999694824</ele>
        <time>2017-06-11T14:23:18.000Z</time>
      </trkpt>
      <trkpt lat="48.88237" lon="-0.39627">
        <ele>124.59999847412</ele>
        <time>2017-06-11T14:23:20.000Z</time>
      </trkpt>
      <trkpt lat="48.88236" lon="-0.39627">
        <ele>125.40000152588</ele>
        <time>2017-06-11T14:23:21.000Z</time>
      </trkpt>
      <trkpt lat="48.88235" lon="-0.39626">
        <ele>125.80000305176</ele>
        <time>2017-06-11T14:23:22.000Z</time>
      </trkpt>
      <trkpt lat="48.88234" lon="-0.39626">
        <ele>126.19999694824</ele>
        <time>2017-06-11T14:23:23.000Z</time>
      </trkpt>
      <trkpt lat="48.8823" lon="-0.39626">
        <ele>126.19999694824</ele>
        <time>2017-06-11T14:23:26.000Z</time>
      </trkpt>
      <trkpt lat="48.88223" lon="-0.39623">
        <ele>126.19999694824</ele>
        <time>2017-06-11T14:23:33.000Z</time>
      </trkpt>
      <trkpt lat="48.88218" lon="-0.39622">
        <ele>126.59999847412</ele>
        <time>2017-06-11T14:23:37.000Z</time>
      </trkpt>
      <trkpt lat="48.88217" lon="-0.39622">
        <ele>127</ele>
        <time>2017-06-11T14:23:38.000Z</time>
      </trkpt>
      <trkpt lat="48.88216" lon="-0.39622">
        <ele>127.40000152588</ele>
        <time>2017-06-11T14:23:39.000Z</time>
      </trkpt>
      <trkpt lat="48.88215" lon="-0.39621">
        <ele>127.80000305176</ele>
        <time>2017-06-11T14:23:40.000Z</time>
      </trkpt>
      <trkpt lat="48.88214" lon="-0.39621">
        <ele>128.39999389648</ele>
        <time>2017-06-11T14:23:41.000Z</time>
      </trkpt>
      <trkpt lat="48.88203" lon="-0.39618">
        <ele>128.39999389648</ele>
        <time>2017-06-11T14:23:48.000Z</time>
      </trkpt>
      <trkpt lat="48.88198" lon="-0.39616">
        <ele>128.80000305176</ele>
        <time>2017-06-11T14:23:54.000Z</time>
      </trkpt>
      <trkpt lat="48.88197" lon="-0.39616">
        <ele>129.19999694824</ele>
        <time>2017-06-11T14:23:55.000Z</time>
      </trkpt>
      <trkpt lat="48.88196" lon="-0.39616">
        <ele>129.60000610352</ele>
        <time>2017-06-11T14:23:56.000Z</time>
      </trkpt>
      <trkpt lat="48.88195" lon="-0.39615">
        <ele>130</ele>
        <time>2017-06-11T14:23:57.000Z</time>
      </trkpt>
      <trkpt lat="48.88194" lon="-0.39615">
        <ele>130.39999389648</ele>
        <time>2017-06-11T14:23:58.000Z</time>
      </trkpt>
      <trkpt lat="48.88188" lon="-0.39613">
        <ele>130.39999389648</ele>
        <time>2017-06-11T14:24:03.000Z</time>
      </trkpt>
      <trkpt lat="48.88179" lon="-0.3961">
        <ele>130.80000305176</ele>
        <time>2017-06-11T14:24:09.000Z</time>
      </trkpt>
      <trkpt lat="48.88178" lon="-0.3961">
        <ele>131.60000610352</ele>
        <time>2017-06-11T14:24:10.000Z</time>
      </trkpt>
      <trkpt lat="48.88176" lon="-0.3961">
        <ele>132.19999694824</ele>
        <time>2017-06-11T14:24:11.000Z</time>
      </trkpt>
      <trkpt lat="48.88175" lon="-0.3961">
        <ele>132.60000610352</ele>
        <time>2017-06-11T14:24:12.000Z</time>
      </trkpt>
      <trkpt lat="48.88169" lon="-0.39608">
        <ele>132.60000610352</ele>
        <time>2017-06-11T14:24:18.000Z</time>
      </trkpt>
      <trkpt lat="48.88165" lon="-0.39607">
        <ele>133</ele>
        <time>2017-06-11T14:24:22.000Z</time>
      </trkpt>
      <trkpt lat="48.88165" lon="-0.39607">
        <ele>133.39999389648</ele>
        <time>2017-06-11T14:24:23.000Z</time>
      </trkpt>
      <trkpt lat="48.88164" lon="-0.39607">
        <ele>133.80000305176</ele>
        <time>2017-06-11T14:24:24.000Z</time>
      </trkpt>
      <trkpt lat="48.88164" lon="-0.39607">
        <ele>134.19999694824</ele>
        <time>2017-06-11T14:24:25.000Z</time>
      </trkpt>
      <trkpt lat="48.88164" lon="-0.39607">
        <ele>134.60000610352</ele>
        <time>2017-06-11T14:24:26.000Z</time>
      </trkpt>
      <trkpt lat="48.88164" lon="-0.39607">
        <ele>134.60000610352</ele>
        <time>2017-06-11T14:24:29.000Z</time>
      </trkpt>
      <trkpt lat="48.88161" lon="-0.39607">
        <ele>134.60000610352</ele>
        <time>2017-06-11T14:24:32.000Z</time>
      </trkpt>
      <trkpt lat="48.88153" lon="-0.39606">
        <ele>135</ele>
        <time>2017-06-11T14:24:39.000Z</time>
      </trkpt>
      <trkpt lat="48.88151" lon="-0.39606">
        <ele>135.39999389648</ele>
        <time>2017-06-11T14:24:40.000Z</time>
      </trkpt>
      <trkpt lat="48.8815" lon="-0.39606">
        <ele>135.80000305176</ele>
        <time>2017-06-11T14:24:41.000Z</time>
      </trkpt>
      <trkpt lat="48.88149" lon="-0.39606">
        <ele>136.19999694824</ele>
        <time>2017-06-11T14:24:42.000Z</time>
      </trkpt>
      <trkpt lat="48.88148" lon="-0.39606">
        <ele>136.60000610352</ele>
        <time>2017-06-11T14:24:43.000Z</time>
      </trkpt>
      <trkpt lat="48.88143" lon="-0.39608">
        <ele>136.60000610352</ele>
        <time>2017-06-11T14:24:49.000Z</time>
      </trkpt>
      <trkpt lat="48.88139" lon="-0.39608">
        <ele>137</ele>
        <time>2017-06-11T14:24:52.000Z</time>
      </trkpt>
      <trkpt lat="48.88138" lon="-0.39608">
        <ele>137.39999389648</ele>
        <time>2017-06-11T14:24:53.000Z</time>
      </trkpt>
      <trkpt lat="48.88137" lon="-0.39608">
        <ele>137.80000305176</ele>
        <time>2017-06-11T14:24:54.000Z</time>
      </trkpt>
      <trkpt lat="48.88136" lon="-0.39609">
        <ele>138.39999389648</ele>
        <time>2017-06-11T14:24:55.000Z</time>
      </trkpt>
      <trkpt lat="48.88135" lon="-0.39608">
        <ele>138.80000305176</ele>
        <time>2017-06-11T14:24:56.000Z</time>
      </trkpt>
      <trkpt lat="48.88135" lon="-0.39608">
        <ele>138.80000305176</ele>
        <time>2017-06-11T14:24:57.000Z</time>
      </trkpt>
      <trkpt lat="48.88131" lon="-0.3961">
        <ele>138.80000305176</ele>
        <time>2017-06-11T14:25:02.000Z</time>
      </trkpt>
      <trkpt lat="48.88125" lon="-0.39611">
        <ele>138.80000305176</ele>
        <time>2017-06-11T14:25:07.000Z</time>
      </trkpt>
      <trkpt lat="48.88124" lon="-0.39611">
        <ele>139.19999694824</ele>
        <time>2017-06-11T14:25:08.000Z</time>
      </trkpt>
      <trkpt lat="48.88122" lon="-0.39611">
        <ele>139.60000610352</ele>
        <time>2017-06-11T14:25:09.000Z</time>
      </trkpt>
      <trkpt lat="48.88121" lon="-0.39612">
        <ele>140</ele>
        <time>2017-06-11T14:25:10.000Z</time>
      </trkpt>
      <trkpt lat="48.88119" lon="-0.39612">
        <ele>140.39999389648</ele>
        <time>2017-06-11T14:25:11.000Z</time>
      </trkpt>
      <trkpt lat="48.88118" lon="-0.39612">
        <ele>140.80000305176</ele>
        <time>2017-06-11T14:25:12.000Z</time>
      </trkpt>
      <trkpt lat="48.88113" lon="-0.39612">
        <ele>140.80000305176</ele>
        <time>2017-06-11T14:25:16.000Z</time>
      </trkpt>
      <trkpt lat="48.88105" lon="-0.39617">
        <ele>141.19999694824</ele>
        <time>2017-06-11T14:25:23.000Z</time>
      </trkpt>
      <trkpt lat="48.88104" lon="-0.39617">
        <ele>142</ele>
        <time>2017-06-11T14:25:24.000Z</time>
      </trkpt>
      <trkpt lat="48.88103" lon="-0.39618">
        <ele>142.60000610352</ele>
        <time>2017-06-11T14:25:25.000Z</time>
      </trkpt>
      <trkpt lat="48.88102" lon="-0.39618">
        <ele>143</ele>
        <time>2017-06-11T14:25:26.000Z</time>
      </trkpt>
      <trkpt lat="48.881" lon="-0.3962">
        <ele>143</ele>
        <time>2017-06-11T14:25:30.000Z</time>
      </trkpt>
      <trkpt lat="48.88098" lon="-0.39622">
        <ele>143</ele>
        <time>2017-06-11T14:25:32.000Z</time>
      </trkpt>
      <trkpt lat="48.88097" lon="-0.39626">
        <ele>143</ele>
        <time>2017-06-11T14:25:35.000Z</time>
      </trkpt>
      <trkpt lat="48.88097" lon="-0.39626">
        <ele>143</ele>
        <time>2017-06-11T14:25:44.000Z</time>
      </trkpt>
      <trkpt lat="48.88096" lon="-0.39628">
        <ele>143</ele>
        <time>2017-06-11T14:25:48.000Z</time>
      </trkpt>
      <trkpt lat="48.88096" lon="-0.3963">
        <ele>143</ele>
        <time>2017-06-11T14:25:50.000Z</time>
      </trkpt>
      <trkpt lat="48.88095" lon="-0.39635">
        <ele>143</ele>
        <time>2017-06-11T14:25:52.000Z</time>
      </trkpt>
      <trkpt lat="48.88093" lon="-0.39647">
        <ele>143</ele>
        <time>2017-06-11T14:25:57.000Z</time>
      </trkpt>
      <trkpt lat="48.88087" lon="-0.39668">
        <ele>143.39999389648</ele>
        <time>2017-06-11T14:26:03.000Z</time>
      </trkpt>
      <trkpt lat="48.88086" lon="-0.39671">
        <ele>143.80000305176</ele>
        <time>2017-06-11T14:26:04.000Z</time>
      </trkpt>
      <trkpt lat="48.88085" lon="-0.39675">
        <ele>144.19999694824</ele>
        <time>2017-06-11T14:26:05.000Z</time>
      </trkpt>
      <trkpt lat="48.88084" lon="-0.39679">
        <ele>144.60000610352</ele>
        <time>2017-06-11T14:26:06.000Z</time>
      </trkpt>
      <trkpt lat="48.88083" lon="-0.39684">
        <ele>145</ele>
        <time>2017-06-11T14:26:07.000Z</time>
      </trkpt>
      <trkpt lat="48.88079" lon="-0.39703">
        <ele>145</ele>
        <time>2017-06-11T14:26:11.000Z</time>
      </trkpt>
      <trkpt lat="48.88068" lon="-0.39749">
        <ele>145</ele>
        <time>2017-06-11T14:26:20.000Z</time>
      </trkpt>
      <trkpt lat="48.88063" lon="-0.39768">
        <ele>145.39999389648</ele>
        <time>2017-06-11T14:26:24.000Z</time>
      </trkpt>
      <trkpt lat="48.88062" lon="-0.39772">
        <ele>145.80000305176</ele>
        <time>2017-06-11T14:26:25.000Z</time>
      </trkpt>
      <trkpt lat="48.88061" lon="-0.39777">
        <ele>146.19999694824</ele>
        <time>2017-06-11T14:26:26.000Z</time>
      </trkpt>
      <trkpt lat="48.8806" lon="-0.39781">
        <ele>146.60000610352</ele>
        <time>2017-06-11T14:26:27.000Z</time>
      </trkpt>
      <trkpt lat="48.88059" lon="-0.39785">
        <ele>147</ele>
        <time>2017-06-11T14:26:28.000Z</time>
      </trkpt>
      <trkpt lat="48.88058" lon="-0.39788">
        <ele>147</ele>
        <time>2017-06-11T14:26:29.000Z</time>
      </trkpt>
      <trkpt lat="48.88051" lon="-0.39817">
        <ele>147</ele>
        <time>2017-06-11T14:26:37.000Z</time>
      </trkpt>
      <trkpt lat="48.8804" lon="-0.39844">
        <ele>147</ele>
        <time>2017-06-11T14:26:46.000Z</time>
      </trkpt>
      <trkpt lat="48.88037" lon="-0.39846">
        <ele>147.60000610352</ele>
        <time>2017-06-11T14:26:47.000Z</time>
      </trkpt>
      <trkpt lat="48.88035" lon="-0.39847">
        <ele>148</ele>
        <time>2017-06-11T14:26:48.000Z</time>
      </trkpt>
      <trkpt lat="48.88032" lon="-0.39848">
        <ele>148.39999389648</ele>
        <time>2017-06-11T14:26:49.000Z</time>
      </trkpt>
      <trkpt lat="48.8803" lon="-0.39849">
        <ele>148.80000305176</ele>
        <time>2017-06-11T14:26:50.000Z</time>
      </trkpt>
      <trkpt lat="48.88028" lon="-0.39851">
        <ele>149.19999694824</ele>
        <time>2017-06-11T14:26:51.000Z</time>
      </trkpt>
      <trkpt lat="48.88026" lon="-0.39854">
        <ele>149.19999694824</ele>
        <time>2017-06-11T14:26:52.000Z</time>
      </trkpt>
      <trkpt lat="48.88023" lon="-0.39872">
        <ele>149.19999694824</ele>
        <time>2017-06-11T14:26:56.000Z</time>
      </trkpt>
      <trkpt lat="48.88024" lon="-0.39913">
        <ele>149.19999694824</ele>
        <time>2017-06-11T14:27:02.000Z</time>
      </trkpt>
      <trkpt lat="48.88025" lon="-0.3995">
        <ele>149.19999694824</ele>
        <time>2017-06-11T14:27:07.000Z</time>
      </trkpt>
      <trkpt lat="48.88028" lon="-0.39993">
        <ele>148.80000305176</ele>
        <time>2017-06-11T14:27:12.000Z</time>
      </trkpt>
      <trkpt lat="48.88028" lon="-0.40002">
        <ele>148.39999389648</ele>
        <time>2017-06-11T14:27:13.000Z</time>
      </trkpt>
      <trkpt lat="48.88029" lon="-0.4001">
        <ele>148</ele>
        <time>2017-06-11T14:27:14.000Z</time>
      </trkpt>
      <trkpt lat="48.88029" lon="-0.40019">
        <ele>147.39999389648</ele>
        <time>2017-06-11T14:27:15.000Z</time>
      </trkpt>
      <trkpt lat="48.88029" lon="-0.40028">
        <ele>147</ele>
        <time>2017-06-11T14:27:16.000Z</time>
      </trkpt>
      <trkpt lat="48.88027" lon="-0.4007">
        <ele>147</ele>
        <time>2017-06-11T14:27:21.000Z</time>
      </trkpt>
      <trkpt lat="48.88025" lon="-0.40101">
        <ele>146.60000610352</ele>
        <time>2017-06-11T14:27:25.000Z</time>
      </trkpt>
      <trkpt lat="48.88025" lon="-0.40108">
        <ele>146.19999694824</ele>
        <time>2017-06-11T14:27:26.000Z</time>
      </trkpt>
      <trkpt lat="48.88024" lon="-0.40114">
        <ele>145.39999389648</ele>
        <time>2017-06-11T14:27:27.000Z</time>
      </trkpt>
      <trkpt lat="48.88023" lon="-0.4012">
        <ele>144.80000305176</ele>
        <time>2017-06-11T14:27:28.000Z</time>
      </trkpt>
      <trkpt lat="48.8802" lon="-0.40144">
        <ele>144.80000305176</ele>
        <time>2017-06-11T14:27:32.000Z</time>
      </trkpt>
      <trkpt lat="48.88012" lon="-0.40181">
        <ele>144.80000305176</ele>
        <time>2017-06-11T14:27:39.000Z</time>
      </trkpt>
      <trkpt lat="48.88007" lon="-0.40207">
        <ele>144.80000305176</ele>
        <time>2017-06-11T14:27:46.000Z</time>
      </trkpt>
      <trkpt lat="48.8801" lon="-0.40228">
        <ele>144.80000305176</ele>
        <time>2017-06-11T14:27:50.000Z</time>
      </trkpt>
      <trkpt lat="48.88018" lon="-0.40264">
        <ele>144.80000305176</ele>
        <time>2017-06-11T14:27:54.000Z</time>
      </trkpt>
      <trkpt lat="48.88029" lon="-0.40325">
        <ele>144.80000305176</ele>
        <time>2017-06-11T14:28:00.000Z</time>
      </trkpt>
      <trkpt lat="48.88031" lon="-0.40336">
        <ele>144.39999389648</ele>
        <time>2017-06-11T14:28:01.000Z</time>
      </trkpt>
      <trkpt lat="48.88033" lon="-0.40348">
        <ele>144</ele>
        <time>2017-06-11T14:28:02.000Z</time>
      </trkpt>
      <trkpt lat="48.88035" lon="-0.40359">
        <ele>143.39999389648</ele>
        <time>2017-06-11T14:28:03.000Z</time>
      </trkpt>
      <trkpt lat="48.88038" lon="-0.40371">
        <ele>143</ele>
        <time>2017-06-11T14:28:04.000Z</time>
      </trkpt>
      <trkpt lat="48.8804" lon="-0.40382">
        <ele>142.39999389648</ele>
        <time>2017-06-11T14:28:05.000Z</time>
      </trkpt>
      <trkpt lat="48.88043" lon="-0.40394">
        <ele>142</ele>
        <time>2017-06-11T14:28:06.000Z</time>
      </trkpt>
      <trkpt lat="48.88045" lon="-0.40405">
        <ele>141.60000610352</ele>
        <time>2017-06-11T14:28:07.000Z</time>
      </trkpt>
      <trkpt lat="48.88047" lon="-0.40416">
        <ele>141.19999694824</ele>
        <time>2017-06-11T14:28:08.000Z</time>
      </trkpt>
      <trkpt lat="48.8805" lon="-0.40427">
        <ele>140.80000305176</ele>
        <time>2017-06-11T14:28:09.000Z</time>
      </trkpt>
      <trkpt lat="48.88052" lon="-0.40439">
        <ele>140.39999389648</ele>
        <time>2017-06-11T14:28:10.000Z</time>
      </trkpt>
      <trkpt lat="48.88055" lon="-0.40451">
        <ele>140</ele>
        <time>2017-06-11T14:28:11.000Z</time>
      </trkpt>
      <trkpt lat="48.88058" lon="-0.40462">
        <ele>139.60000610352</ele>
        <time>2017-06-11T14:28:12.000Z</time>
      </trkpt>
      <trkpt lat="48.8806" lon="-0.40474">
        <ele>139</ele>
        <time>2017-06-11T14:28:13.000Z</time>
      </trkpt>
      <trkpt lat="48.88063" lon="-0.40486">
        <ele>138.60000610352</ele>
        <time>2017-06-11T14:28:14.000Z</time>
      </trkpt>
      <trkpt lat="48.88065" lon="-0.40498">
        <ele>138.19999694824</ele>
        <time>2017-06-11T14:28:15.000Z</time>
      </trkpt>
      <trkpt lat="48.88068" lon="-0.40509">
        <ele>137.39999389648</ele>
        <time>2017-06-11T14:28:16.000Z</time>
      </trkpt>
      <trkpt lat="48.88071" lon="-0.40521">
        <ele>137</ele>
        <time>2017-06-11T14:28:17.000Z</time>
      </trkpt>
      <trkpt lat="48.88073" lon="-0.40533">
        <ele>136.60000610352</ele>
        <time>2017-06-11T14:28:18.000Z</time>
      </trkpt>
      <trkpt lat="48.88076" lon="-0.40546">
        <ele>136</ele>
        <time>2017-06-11T14:28:19.000Z</time>
      </trkpt>
      <trkpt lat="48.88079" lon="-0.40559">
        <ele>135.60000610352</ele>
        <time>2017-06-11T14:28:20.000Z</time>
      </trkpt>
      <trkpt lat="48.88081" lon="-0.40571">
        <ele>135</ele>
        <time>2017-06-11T14:28:21.000Z</time>
      </trkpt>
      <trkpt lat="48.88084" lon="-0.40584">
        <ele>134.60000610352</ele>
        <time>2017-06-11T14:28:22.000Z</time>
      </trkpt>
      <trkpt lat="48.88087" lon="-0.40597">
        <ele>134</ele>
        <time>2017-06-11T14:28:23.000Z</time>
      </trkpt>
      <trkpt lat="48.88089" lon="-0.40611">
        <ele>133.60000610352</ele>
        <time>2017-06-11T14:28:24.000Z</time>
      </trkpt>
      <trkpt lat="48.88091" lon="-0.40625">
        <ele>133.19999694824</ele>
        <time>2017-06-11T14:28:25.000Z</time>
      </trkpt>
      <trkpt lat="48.88094" lon="-0.40639">
        <ele>132.80000305176</ele>
        <time>2017-06-11T14:28:26.000Z</time>
      </trkpt>
      <trkpt lat="48.88095" lon="-0.40654">
        <ele>132.39999389648</ele>
        <time>2017-06-11T14:28:27.000Z</time>
      </trkpt>
      <trkpt lat="48.88096" lon="-0.40668">
        <ele>131.80000305176</ele>
        <time>2017-06-11T14:28:28.000Z</time>
      </trkpt>
      <trkpt lat="48.88097" lon="-0.40682">
        <ele>131.19999694824</ele>
        <time>2017-06-11T14:28:29.000Z</time>
      </trkpt>
      <trkpt lat="48.88097" lon="-0.40696">
        <ele>130.60000610352</ele>
        <time>2017-06-11T14:28:30.000Z</time>
      </trkpt>
      <trkpt lat="48.88097" lon="-0.4071">
        <ele>129.80000305176</ele>
        <time>2017-06-11T14:28:31.000Z</time>
      </trkpt>
      <trkpt lat="48.88096" lon="-0.40724">
        <ele>129.19999694824</ele>
        <time>2017-06-11T14:28:32.000Z</time>
      </trkpt>
      <trkpt lat="48.88095" lon="-0.40738">
        <ele>128.60000610352</ele>
        <time>2017-06-11T14:28:33.000Z</time>
      </trkpt>
      <trkpt lat="48.88094" lon="-0.40752">
        <ele>127.80000305176</ele>
        <time>2017-06-11T14:28:34.000Z</time>
      </trkpt>
      <trkpt lat="48.88093" lon="-0.40766">
        <ele>127.19999694824</ele>
        <time>2017-06-11T14:28:35.000Z</time>
      </trkpt>
      <trkpt lat="48.88091" lon="-0.40779">
        <ele>126.59999847412</ele>
        <time>2017-06-11T14:28:36.000Z</time>
      </trkpt>
      <trkpt lat="48.88089" lon="-0.40793">
        <ele>126</ele>
        <time>2017-06-11T14:28:37.000Z</time>
      </trkpt>
      <trkpt lat="48.88087" lon="-0.40806">
        <ele>125.40000152588</ele>
        <time>2017-06-11T14:28:38.000Z</time>
      </trkpt>
      <trkpt lat="48.88085" lon="-0.40819">
        <ele>124.80000305176</ele>
        <time>2017-06-11T14:28:39.000Z</time>
      </trkpt>
      <trkpt lat="48.88084" lon="-0.40832">
        <ele>124.19999694824</ele>
        <time>2017-06-11T14:28:40.000Z</time>
      </trkpt>
      <trkpt lat="48.88082" lon="-0.40845">
        <ele>123</ele>
        <time>2017-06-11T14:28:41.000Z</time>
      </trkpt>
      <trkpt lat="48.8808" lon="-0.40857">
        <ele>122.40000152588</ele>
        <time>2017-06-11T14:28:42.000Z</time>
      </trkpt>
      <trkpt lat="48.88079" lon="-0.40868">
        <ele>121.80000305176</ele>
        <time>2017-06-11T14:28:43.000Z</time>
      </trkpt>
      <trkpt lat="48.88077" lon="-0.4088">
        <ele>121.19999694824</ele>
        <time>2017-06-11T14:28:44.000Z</time>
      </trkpt>
      <trkpt lat="48.88077" lon="-0.40892">
        <ele>120.40000152588</ele>
        <time>2017-06-11T14:28:45.000Z</time>
      </trkpt>
      <trkpt lat="48.88077" lon="-0.40903">
        <ele>119.59999847412</ele>
        <time>2017-06-11T14:28:46.000Z</time>
      </trkpt>
      <trkpt lat="48.88078" lon="-0.40915">
        <ele>118.80000305176</ele>
        <time>2017-06-11T14:28:47.000Z</time>
      </trkpt>
      <trkpt lat="48.88078" lon="-0.40925">
        <ele>118</ele>
        <time>2017-06-11T14:28:48.000Z</time>
      </trkpt>
      <trkpt lat="48.88078" lon="-0.40935">
        <ele>117.40000152588</ele>
        <time>2017-06-11T14:28:49.000Z</time>
      </trkpt>
      <trkpt lat="48.88072" lon="-0.4095">
        <ele>116.80000305176</ele>
        <time>2017-06-11T14:28:51.000Z</time>
      </trkpt>
      <trkpt lat="48.88067" lon="-0.40954">
        <ele>116.40000152588</ele>
        <time>2017-06-11T14:28:52.000Z</time>
      </trkpt>
      <trkpt lat="48.88062" lon="-0.40954">
        <ele>116</ele>
        <time>2017-06-11T14:28:53.000Z</time>
      </trkpt>
      <trkpt lat="48.88056" lon="-0.40954">
        <ele>115.40000152588</ele>
        <time>2017-06-11T14:28:54.000Z</time>
      </trkpt>
      <trkpt lat="48.88051" lon="-0.40955">
        <ele>114.80000305176</ele>
        <time>2017-06-11T14:28:55.000Z</time>
      </trkpt>
      <trkpt lat="48.88046" lon="-0.40957">
        <ele>114.19999694824</ele>
        <time>2017-06-11T14:28:56.000Z</time>
      </trkpt>
      <trkpt lat="48.88041" lon="-0.40961">
        <ele>113.40000152588</ele>
        <time>2017-06-11T14:28:57.000Z</time>
      </trkpt>
      <trkpt lat="48.88036" lon="-0.40965">
        <ele>112.80000305176</ele>
        <time>2017-06-11T14:28:58.000Z</time>
      </trkpt>
      <trkpt lat="48.88031" lon="-0.4097">
        <ele>112.80000305176</ele>
        <time>2017-06-11T14:28:59.000Z</time>
      </trkpt>
      <trkpt lat="48.88009" lon="-0.40986">
        <ele>112.80000305176</ele>
        <time>2017-06-11T14:29:03.000Z</time>
      </trkpt>
      <trkpt lat="48.87996" lon="-0.40992">
        <ele>112</ele>
        <time>2017-06-11T14:29:05.000Z</time>
      </trkpt>
      <trkpt lat="48.87989" lon="-0.40995">
        <ele>111.59999847412</ele>
        <time>2017-06-11T14:29:06.000Z</time>
      </trkpt>
      <trkpt lat="48.87982" lon="-0.40997">
        <ele>111</ele>
        <time>2017-06-11T14:29:07.000Z</time>
      </trkpt>
      <trkpt lat="48.87975" lon="-0.40999">
        <ele>110.59999847412</ele>
        <time>2017-06-11T14:29:08.000Z</time>
      </trkpt>
      <trkpt lat="48.87967" lon="-0.41001">
        <ele>110.19999694824</ele>
        <time>2017-06-11T14:29:09.000Z</time>
      </trkpt>
      <trkpt lat="48.8796" lon="-0.41002">
        <ele>109.59999847412</ele>
        <time>2017-06-11T14:29:10.000Z</time>
      </trkpt>
      <trkpt lat="48.87951" lon="-0.41003">
        <ele>109.19999694824</ele>
        <time>2017-06-11T14:29:11.000Z</time>
      </trkpt>
      <trkpt lat="48.87943" lon="-0.41004">
        <ele>108.80000305176</ele>
        <time>2017-06-11T14:29:12.000Z</time>
      </trkpt>
      <trkpt lat="48.87934" lon="-0.41006">
        <ele>108.19999694824</ele>
        <time>2017-06-11T14:29:13.000Z</time>
      </trkpt>
      <trkpt lat="48.87926" lon="-0.41008">
        <ele>107.80000305176</ele>
        <time>2017-06-11T14:29:14.000Z</time>
      </trkpt>
      <trkpt lat="48.87917" lon="-0.4101">
        <ele>107.19999694824</ele>
        <time>2017-06-11T14:29:15.000Z</time>
      </trkpt>
      <trkpt lat="48.87909" lon="-0.41011">
        <ele>106.80000305176</ele>
        <time>2017-06-11T14:29:16.000Z</time>
      </trkpt>
      <trkpt lat="48.87901" lon="-0.41013">
        <ele>106.19999694824</ele>
        <time>2017-06-11T14:29:17.000Z</time>
      </trkpt>
      <trkpt lat="48.87892" lon="-0.41014">
        <ele>105.80000305176</ele>
        <time>2017-06-11T14:29:18.000Z</time>
      </trkpt>
      <trkpt lat="48.87884" lon="-0.41016">
        <ele>105.19999694824</ele>
        <time>2017-06-11T14:29:19.000Z</time>
      </trkpt>
      <trkpt lat="48.87874" lon="-0.41018">
        <ele>104.59999847412</ele>
        <time>2017-06-11T14:29:20.000Z</time>
      </trkpt>
      <trkpt lat="48.87866" lon="-0.4102">
        <ele>104.19999694824</ele>
        <time>2017-06-11T14:29:21.000Z</time>
      </trkpt>
      <trkpt lat="48.87857" lon="-0.41021">
        <ele>103.59999847412</ele>
        <time>2017-06-11T14:29:22.000Z</time>
      </trkpt>
      <trkpt lat="48.87848" lon="-0.41022">
        <ele>103.19999694824</ele>
        <time>2017-06-11T14:29:23.000Z</time>
      </trkpt>
      <trkpt lat="48.87839" lon="-0.41023">
        <ele>102.80000305176</ele>
        <time>2017-06-11T14:29:24.000Z</time>
      </trkpt>
      <trkpt lat="48.87829" lon="-0.41022">
        <ele>102.19999694824</ele>
        <time>2017-06-11T14:29:25.000Z</time>
      </trkpt>
      <trkpt lat="48.8782" lon="-0.4102">
        <ele>101.80000305176</ele>
        <time>2017-06-11T14:29:26.000Z</time>
      </trkpt>
      <trkpt lat="48.87811" lon="-0.41017">
        <ele>101.40000152588</ele>
        <time>2017-06-11T14:29:27.000Z</time>
      </trkpt>
      <trkpt lat="48.87802" lon="-0.41012">
        <ele>101</ele>
        <time>2017-06-11T14:29:28.000Z</time>
      </trkpt>
      <trkpt lat="48.87794" lon="-0.41006">
        <ele>100.40000152588</ele>
        <time>2017-06-11T14:29:29.000Z</time>
      </trkpt>
      <trkpt lat="48.87786" lon="-0.40999">
        <ele>99.599998474121</ele>
        <time>2017-06-11T14:29:30.000Z</time>
      </trkpt>
      <trkpt lat="48.87778" lon="-0.40992">
        <ele>99</ele>
        <time>2017-06-11T14:29:31.000Z</time>
      </trkpt>
      <trkpt lat="48.87759" lon="-0.40962">
        <ele>98.599998474121</ele>
        <time>2017-06-11T14:29:34.000Z</time>
      </trkpt>
      <trkpt lat="48.87754" lon="-0.40951">
        <ele>98.199996948242</ele>
        <time>2017-06-11T14:29:35.000Z</time>
      </trkpt>
      <trkpt lat="48.87749" lon="-0.40939">
        <ele>97.800003051758</ele>
        <time>2017-06-11T14:29:36.000Z</time>
      </trkpt>
      <trkpt lat="48.87744" lon="-0.40928">
        <ele>97.199996948242</ele>
        <time>2017-06-11T14:29:37.000Z</time>
      </trkpt>
      <trkpt lat="48.87739" lon="-0.40916">
        <ele>96.800003051758</ele>
        <time>2017-06-11T14:29:38.000Z</time>
      </trkpt>
      <trkpt lat="48.87735" lon="-0.40905">
        <ele>96.800003051758</ele>
        <time>2017-06-11T14:29:39.000Z</time>
      </trkpt>
      <trkpt lat="48.8773" lon="-0.40894">
        <ele>96.400001525879</ele>
        <time>2017-06-11T14:29:40.000Z</time>
      </trkpt>
      <trkpt lat="48.87726" lon="-0.40883">
        <ele>96</ele>
        <time>2017-06-11T14:29:41.000Z</time>
      </trkpt>
      <trkpt lat="48.87721" lon="-0.40872">
        <ele>95.599998474121</ele>
        <time>2017-06-11T14:29:42.000Z</time>
      </trkpt>
      <trkpt lat="48.87717" lon="-0.40862">
        <ele>95.199996948242</ele>
        <time>2017-06-11T14:29:43.000Z</time>
      </trkpt>
      <trkpt lat="48.87712" lon="-0.40851">
        <ele>94.800003051758</ele>
        <time>2017-06-11T14:29:44.000Z</time>
      </trkpt>
      <trkpt lat="48.87704" lon="-0.4083">
        <ele>94.400001525879</ele>
        <time>2017-06-11T14:29:46.000Z</time>
      </trkpt>
      <trkpt lat="48.87699" lon="-0.4082">
        <ele>94</ele>
        <time>2017-06-11T14:29:47.000Z</time>
      </trkpt>
      <trkpt lat="48.87694" lon="-0.4081">
        <ele>93.599998474121</ele>
        <time>2017-06-11T14:29:48.000Z</time>
      </trkpt>
      <trkpt lat="48.8769" lon="-0.408">
        <ele>93.199996948242</ele>
        <time>2017-06-11T14:29:49.000Z</time>
      </trkpt>
      <trkpt lat="48.87685" lon="-0.4079">
        <ele>92.599998474121</ele>
        <time>2017-06-11T14:29:50.000Z</time>
      </trkpt>
      <trkpt lat="48.87675" lon="-0.4077">
        <ele>92.199996948242</ele>
        <time>2017-06-11T14:29:52.000Z</time>
      </trkpt>
      <trkpt lat="48.87669" lon="-0.40762">
        <ele>91.800003051758</ele>
        <time>2017-06-11T14:29:53.000Z</time>
      </trkpt>
      <trkpt lat="48.87662" lon="-0.40754">
        <ele>91.400001525879</ele>
        <time>2017-06-11T14:29:54.000Z</time>
      </trkpt>
      <trkpt lat="48.87655" lon="-0.40746">
        <ele>90.599998474121</ele>
        <time>2017-06-11T14:29:55.000Z</time>
      </trkpt>
      <trkpt lat="48.87631" lon="-0.4073">
        <ele>90.599998474121</ele>
        <time>2017-06-11T14:29:58.000Z</time>
      </trkpt>
      <trkpt lat="48.87613" lon="-0.40724">
        <ele>90.199996948242</ele>
        <time>2017-06-11T14:30:00.000Z</time>
      </trkpt>
      <trkpt lat="48.87604" lon="-0.40721">
        <ele>89.800003051758</ele>
        <time>2017-06-11T14:30:01.000Z</time>
      </trkpt>
      <trkpt lat="48.87596" lon="-0.4072">
        <ele>89.400001525879</ele>
        <time>2017-06-11T14:30:02.000Z</time>
      </trkpt>
      <trkpt lat="48.87588" lon="-0.40719">
        <ele>89</ele>
        <time>2017-06-11T14:30:03.000Z</time>
      </trkpt>
      <trkpt lat="48.8758" lon="-0.40718">
        <ele>88.599998474121</ele>
        <time>2017-06-11T14:30:04.000Z</time>
      </trkpt>
      <trkpt lat="48.87572" lon="-0.40718">
        <ele>88.199996948242</ele>
        <time>2017-06-11T14:30:05.000Z</time>
      </trkpt>
      <trkpt lat="48.87563" lon="-0.40718">
        <ele>87.800003051758</ele>
        <time>2017-06-11T14:30:06.000Z</time>
      </trkpt>
      <trkpt lat="48.87555" lon="-0.40719">
        <ele>87.400001525879</ele>
        <time>2017-06-11T14:30:07.000Z</time>
      </trkpt>
      <trkpt lat="48.87547" lon="-0.40721">
        <ele>87</ele>
        <time>2017-06-11T14:30:08.000Z</time>
      </trkpt>
      <trkpt lat="48.87539" lon="-0.40723">
        <ele>86.599998474121</ele>
        <time>2017-06-11T14:30:09.000Z</time>
      </trkpt>
      <trkpt lat="48.87531" lon="-0.40725">
        <ele>86</ele>
        <time>2017-06-11T14:30:10.000Z</time>
      </trkpt>
      <trkpt lat="48.87523" lon="-0.40728">
        <ele>85.599998474121</ele>
        <time>2017-06-11T14:30:11.000Z</time>
      </trkpt>
      <trkpt lat="48.87515" lon="-0.4073">
        <ele>85.199996948242</ele>
        <time>2017-06-11T14:30:12.000Z</time>
      </trkpt>
      <trkpt lat="48.87507" lon="-0.40731">
        <ele>84.599998474121</ele>
        <time>2017-06-11T14:30:13.000Z</time>
      </trkpt>
      <trkpt lat="48.87498" lon="-0.40733">
        <ele>84</ele>
        <time>2017-06-11T14:30:14.000Z</time>
      </trkpt>
      <trkpt lat="48.8749" lon="-0.40735">
        <ele>83.599998474121</ele>
        <time>2017-06-11T14:30:15.000Z</time>
      </trkpt>
      <trkpt lat="48.87481" lon="-0.40737">
        <ele>82.800003051758</ele>
        <time>2017-06-11T14:30:16.000Z</time>
      </trkpt>
      <trkpt lat="48.87473" lon="-0.40739">
        <ele>82.199996948242</ele>
        <time>2017-06-11T14:30:17.000Z</time>
      </trkpt>
      <trkpt lat="48.87465" lon="-0.40741">
        <ele>81.400001525879</ele>
        <time>2017-06-11T14:30:18.000Z</time>
      </trkpt>
      <trkpt lat="48.87456" lon="-0.40743">
        <ele>80</ele>
        <time>2017-06-11T14:30:19.000Z</time>
      </trkpt>
      <trkpt lat="48.87448" lon="-0.40745">
        <ele>79.599998474121</ele>
        <time>2017-06-11T14:30:20.000Z</time>
      </trkpt>
      <trkpt lat="48.87439" lon="-0.40747">
        <ele>79.199996948242</ele>
        <time>2017-06-11T14:30:21.000Z</time>
      </trkpt>
      <trkpt lat="48.8743" lon="-0.40749">
        <ele>78.800003051758</ele>
        <time>2017-06-11T14:30:22.000Z</time>
      </trkpt>
      <trkpt lat="48.8742" lon="-0.40751">
        <ele>78</ele>
        <time>2017-06-11T14:30:23.000Z</time>
      </trkpt>
      <trkpt lat="48.87411" lon="-0.40753">
        <ele>77.400001525879</ele>
        <time>2017-06-11T14:30:24.000Z</time>
      </trkpt>
      <trkpt lat="48.87402" lon="-0.40755">
        <ele>76.599998474121</ele>
        <time>2017-06-11T14:30:25.000Z</time>
      </trkpt>
      <trkpt lat="48.87394" lon="-0.40756">
        <ele>76</ele>
        <time>2017-06-11T14:30:26.000Z</time>
      </trkpt>
      <trkpt lat="48.87386" lon="-0.40758">
        <ele>75.400001525879</ele>
        <time>2017-06-11T14:30:27.000Z</time>
      </trkpt>
      <trkpt lat="48.87379" lon="-0.40762">
        <ele>74.800003051758</ele>
        <time>2017-06-11T14:30:28.000Z</time>
      </trkpt>
      <trkpt lat="48.87373" lon="-0.40768">
        <ele>74.400001525879</ele>
        <time>2017-06-11T14:30:29.000Z</time>
      </trkpt>
      <trkpt lat="48.87367" lon="-0.40775">
        <ele>73.800003051758</ele>
        <time>2017-06-11T14:30:30.000Z</time>
      </trkpt>
      <trkpt lat="48.87364" lon="-0.40782">
        <ele>73.199996948242</ele>
        <time>2017-06-11T14:30:31.000Z</time>
      </trkpt>
      <trkpt lat="48.87361" lon="-0.4079">
        <ele>72.800003051758</ele>
        <time>2017-06-11T14:30:32.000Z</time>
      </trkpt>
      <trkpt lat="48.87359" lon="-0.40798">
        <ele>72.199996948242</ele>
        <time>2017-06-11T14:30:33.000Z</time>
      </trkpt>
      <trkpt lat="48.87357" lon="-0.40806">
        <ele>71.599998474121</ele>
        <time>2017-06-11T14:30:34.000Z</time>
      </trkpt>
      <trkpt lat="48.87356" lon="-0.40815">
        <ele>71</ele>
        <time>2017-06-11T14:30:35.000Z</time>
      </trkpt>
      <trkpt lat="48.87354" lon="-0.40824">
        <ele>70.400001525879</ele>
        <time>2017-06-11T14:30:36.000Z</time>
      </trkpt>
      <trkpt lat="48.87353" lon="-0.40833">
        <ele>70.400001525879</ele>
        <time>2017-06-11T14:30:37.000Z</time>
      </trkpt>
      <trkpt lat="48.87352" lon="-0.40852">
        <ele>70</ele>
        <time>2017-06-11T14:30:39.000Z</time>
      </trkpt>
      <trkpt lat="48.87351" lon="-0.40862">
        <ele>69.599998474121</ele>
        <time>2017-06-11T14:30:40.000Z</time>
      </trkpt>
      <trkpt lat="48.87351" lon="-0.40872">
        <ele>69.199996948242</ele>
        <time>2017-06-11T14:30:41.000Z</time>
      </trkpt>
      <trkpt lat="48.87351" lon="-0.40883">
        <ele>68.800003051758</ele>
        <time>2017-06-11T14:30:42.000Z</time>
      </trkpt>
      <trkpt lat="48.87352" lon="-0.40893">
        <ele>68.400001525879</ele>
        <time>2017-06-11T14:30:43.000Z</time>
      </trkpt>
      <trkpt lat="48.87359" lon="-0.40905">
        <ele>67.400001525879</ele>
        <time>2017-06-11T14:30:44.000Z</time>
      </trkpt>
      <trkpt lat="48.87364" lon="-0.40915">
        <ele>67</ele>
        <time>2017-06-11T14:30:45.000Z</time>
      </trkpt>
      <trkpt lat="48.87367" lon="-0.40925">
        <ele>66.599998474121</ele>
        <time>2017-06-11T14:30:46.000Z</time>
      </trkpt>
      <trkpt lat="48.8737" lon="-0.40934">
        <ele>66</ele>
        <time>2017-06-11T14:30:47.000Z</time>
      </trkpt>
      <trkpt lat="48.87373" lon="-0.40942">
        <ele>65.400001525879</ele>
        <time>2017-06-11T14:30:48.000Z</time>
      </trkpt>
      <trkpt lat="48.87375" lon="-0.40949">
        <ele>64.599998474121</ele>
        <time>2017-06-11T14:30:49.000Z</time>
      </trkpt>
      <trkpt lat="48.87377" lon="-0.40955">
        <ele>64</ele>
        <time>2017-06-11T14:30:50.000Z</time>
      </trkpt>
      <trkpt lat="48.87379" lon="-0.40962">
        <ele>63.400001525879</ele>
        <time>2017-06-11T14:30:51.000Z</time>
      </trkpt>
      <trkpt lat="48.8738" lon="-0.40969">
        <ele>63.400001525879</ele>
        <time>2017-06-11T14:30:52.000Z</time>
      </trkpt>
      <trkpt lat="48.87382" lon="-0.40976">
        <ele>63</ele>
        <time>2017-06-11T14:30:53.000Z</time>
      </trkpt>
      <trkpt lat="48.87382" lon="-0.40984">
        <ele>62.599998474121</ele>
        <time>2017-06-11T14:30:54.000Z</time>
      </trkpt>
      <trkpt lat="48.87382" lon="-0.40993">
        <ele>62.200000762939</ele>
        <time>2017-06-11T14:30:55.000Z</time>
      </trkpt>
      <trkpt lat="48.87382" lon="-0.41002">
        <ele>61.799999237061</ele>
        <time>2017-06-11T14:30:56.000Z</time>
      </trkpt>
      <trkpt lat="48.8738" lon="-0.41011">
        <ele>61.400001525879</ele>
        <time>2017-06-11T14:30:57.000Z</time>
      </trkpt>
      <trkpt lat="48.87377" lon="-0.41028">
        <ele>61</ele>
        <time>2017-06-11T14:30:59.000Z</time>
      </trkpt>
      <trkpt lat="48.87376" lon="-0.41035">
        <ele>60.599998474121</ele>
        <time>2017-06-11T14:31:00.000Z</time>
      </trkpt>
      <trkpt lat="48.87374" lon="-0.41043">
        <ele>60.200000762939</ele>
        <time>2017-06-11T14:31:01.000Z</time>
      </trkpt>
      <trkpt lat="48.87372" lon="-0.41049">
        <ele>59.799999237061</ele>
        <time>2017-06-11T14:31:02.000Z</time>
      </trkpt>
      <trkpt lat="48.87371" lon="-0.41056">
        <ele>59.400001525879</ele>
        <time>2017-06-11T14:31:03.000Z</time>
      </trkpt>
      <trkpt lat="48.87366" lon="-0.41077">
        <ele>59.400001525879</ele>
        <time>2017-06-11T14:31:07.000Z</time>
      </trkpt>
      <trkpt lat="48.87358" lon="-0.41114">
        <ele>59.400001525879</ele>
        <time>2017-06-11T14:31:14.000Z</time>
      </trkpt>
      <trkpt lat="48.87355" lon="-0.41127">
        <ele>59.400001525879</ele>
        <time>2017-06-11T14:31:17.000Z</time>
      </trkpt>
      <trkpt lat="48.87357" lon="-0.41129">
        <ele>59.400001525879</ele>
        <time>2017-06-11T14:31:18.000Z</time>
      </trkpt>
      <trkpt lat="48.87361" lon="-0.4113">
        <ele>59</ele>
        <time>2017-06-11T14:31:20.000Z</time>
      </trkpt>
      <trkpt lat="48.87363" lon="-0.41128">
        <ele>58.599998474121</ele>
        <time>2017-06-11T14:31:21.000Z</time>
      </trkpt>
      <trkpt lat="48.87365" lon="-0.41126">
        <ele>58</ele>
        <time>2017-06-11T14:31:22.000Z</time>
      </trkpt>
      <trkpt lat="48.87367" lon="-0.41123">
        <ele>57.599998474121</ele>
        <time>2017-06-11T14:31:23.000Z</time>
      </trkpt>
      <trkpt lat="48.87367" lon="-0.41122">
        <ele>57.200000762939</ele>
        <time>2017-06-11T14:31:24.000Z</time>
      </trkpt>
      <trkpt lat="48.87369" lon="-0.4112">
        <ele>57.200000762939</ele>
        <time>2017-06-11T14:31:27.000Z</time>
      </trkpt>
      <trkpt lat="48.87369" lon="-0.4112">
        <ele>56.799999237061</ele>
        <time>2017-06-11T14:31:28.000Z</time>
      </trkpt>
      <trkpt lat="48.87369" lon="-0.4112">
        <ele>56.400001525879</ele>
        <time>2017-06-11T14:31:29.000Z</time>
      </trkpt>
      <trkpt lat="48.87369" lon="-0.4112">
        <ele>56</ele>
        <time>2017-06-11T14:31:30.000Z</time>
      </trkpt>
      <trkpt lat="48.87369" lon="-0.4112">
        <ele>55.599998474121</ele>
        <time>2017-06-11T14:31:31.000Z</time>
      </trkpt>
      <trkpt lat="48.87369" lon="-0.4112">
        <ele>55.200000762939</ele>
        <time>2017-06-11T14:31:32.000Z</time>
      </trkpt>
      <trkpt lat="48.87368" lon="-0.41119">
        <ele>55.200000762939</ele>
        <time>2017-06-11T14:31:34.000Z</time>
      </trkpt>
      <trkpt lat="48.87364" lon="-0.41125">
        <ele>55.200000762939</ele>
        <time>2017-06-11T14:31:41.000Z</time>
      </trkpt>
      <trkpt lat="48.87357" lon="-0.41131">
        <ele>55.200000762939</ele>
        <time>2017-06-11T14:31:48.000Z</time>
      </trkpt>
      <trkpt lat="48.87355" lon="-0.41132">
        <ele>55.599998474121</ele>
        <time>2017-06-11T14:31:51.000Z</time>
      </trkpt>
      <trkpt lat="48.87355" lon="-0.41132">
        <ele>56.200000762939</ele>
        <time>2017-06-11T14:31:52.000Z</time>
      </trkpt>
      <trkpt lat="48.87354" lon="-0.41132">
        <ele>56.599998474121</ele>
        <time>2017-06-11T14:31:53.000Z</time>
      </trkpt>
      <trkpt lat="48.87353" lon="-0.41133">
        <ele>57</ele>
        <time>2017-06-11T14:31:54.000Z</time>
      </trkpt>
      <trkpt lat="48.87353" lon="-0.41133">
        <ele>57.400001525879</ele>
        <time>2017-06-11T14:31:55.000Z</time>
      </trkpt>
      <trkpt lat="48.87352" lon="-0.41133">
        <ele>57.400001525879</ele>
        <time>2017-06-11T14:31:56.000Z</time>
      </trkpt>
      <trkpt lat="48.8735" lon="-0.41133">
        <ele>57.400001525879</ele>
        <time>2017-06-11T14:32:03.000Z</time>
      </trkpt>
      <trkpt lat="48.87349" lon="-0.41134">
        <ele>57.400001525879</ele>
        <time>2017-06-11T14:32:10.000Z</time>
      </trkpt>
      <trkpt lat="48.87342" lon="-0.41139">
        <ele>57.400001525879</ele>
        <time>2017-06-11T14:32:17.000Z</time>
      </trkpt>
      <trkpt lat="48.87336" lon="-0.41143">
        <ele>57.400001525879</ele>
        <time>2017-06-11T14:32:22.000Z</time>
      </trkpt>
      <trkpt lat="48.87332" lon="-0.41147">
        <ele>57.400001525879</ele>
        <time>2017-06-11T14:32:28.000Z</time>
      </trkpt>
      <trkpt lat="48.87326" lon="-0.41155">
        <ele>57.400001525879</ele>
        <time>2017-06-11T14:32:34.000Z</time>
      </trkpt>
      <trkpt lat="48.87318" lon="-0.4116">
        <ele>57.400001525879</ele>
        <time>2017-06-11T14:32:39.000Z</time>
      </trkpt>
      <trkpt lat="48.87316" lon="-0.41159">
        <ele>57.400001525879</ele>
        <time>2017-06-11T14:32:40.000Z</time>
      </trkpt>
      <trkpt lat="48.87304" lon="-0.41144">
        <ele>57.400001525879</ele>
        <time>2017-06-11T14:32:49.000Z</time>
      </trkpt>
      <trkpt lat="48.87296" lon="-0.41135">
        <ele>57.400001525879</ele>
        <time>2017-06-11T14:32:57.000Z</time>
      </trkpt>
      <trkpt lat="48.87296" lon="-0.41132">
        <ele>57.400001525879</ele>
        <time>2017-06-11T14:32:59.000Z</time>
      </trkpt>
      <trkpt lat="48.87298" lon="-0.41128">
        <ele>57.400001525879</ele>
        <time>2017-06-11T14:33:01.000Z</time>
      </trkpt>
      <trkpt lat="48.87297" lon="-0.41124">
        <ele>57.400001525879</ele>
        <time>2017-06-11T14:33:06.000Z</time>
      </trkpt>
      <trkpt lat="48.87297" lon="-0.41123">
        <ele>57.400001525879</ele>
        <time>2017-06-11T14:33:14.000Z</time>
      </trkpt>
      <trkpt lat="48.87297" lon="-0.41123">
        <ele>57</ele>
        <time>2017-06-11T14:33:24.000Z</time>
      </trkpt>
      <trkpt lat="48.87297" lon="-0.41123">
        <ele>56.599998474121</ele>
        <time>2017-06-11T14:33:25.000Z</time>
      </trkpt>
      <trkpt lat="48.87297" lon="-0.41123">
        <ele>56.200000762939</ele>
        <time>2017-06-11T14:33:26.000Z</time>
      </trkpt>
      <trkpt lat="48.87297" lon="-0.41123">
        <ele>55.799999237061</ele>
        <time>2017-06-11T14:33:27.000Z</time>
      </trkpt>
      <trkpt lat="48.87297" lon="-0.41123">
        <ele>55.400001525879</ele>
        <time>2017-06-11T14:33:28.000Z</time>
      </trkpt>
      <trkpt lat="48.87297" lon="-0.41123">
        <ele>55.400001525879</ele>
        <time>2017-06-11T14:33:40.000Z</time>
      </trkpt>
      <trkpt lat="48.87297" lon="-0.41123">
        <ele>55.400001525879</ele>
        <time>2017-06-11T14:33:50.000Z</time>
      </trkpt>
      <trkpt lat="48.87297" lon="-0.41123">
        <ele>55.400001525879</ele>
        <time>2017-06-11T14:34:05.000Z</time>
      </trkpt>
      <trkpt lat="48.87297" lon="-0.41123">
        <ele>55.400001525879</ele>
        <time>2017-06-11T14:34:20.000Z</time>
      </trkpt>
      <trkpt lat="48.87297" lon="-0.41123">
        <ele>55.400001525879</ele>
        <time>2017-06-11T14:34:36.000Z</time>
      </trkpt>
      <trkpt lat="48.87297" lon="-0.41123">
        <ele>55.400001525879</ele>
        <time>2017-06-11T14:34:52.000Z</time>
      </trkpt>
      <trkpt lat="48.87297" lon="-0.41123">
        <ele>55.400001525879</ele>
        <time>2017-06-11T14:35:04.000Z</time>
      </trkpt>
      <trkpt lat="48.87296" lon="-0.41123">
        <ele>55.400001525879</ele>
        <time>2017-06-11T14:35:18.000Z</time>
      </trkpt>
      <trkpt lat="48.87296" lon="-0.41123">
        <ele>55.400001525879</ele>
        <time>2017-06-11T14:35:31.000Z</time>
      </trkpt>
      <trkpt lat="48.87296" lon="-0.41123">
        <ele>55.400001525879</ele>
        <time>2017-06-11T14:35:46.000Z</time>
      </trkpt>
      <trkpt lat="48.87296" lon="-0.41124">
        <ele>55.400001525879</ele>
        <time>2017-06-11T14:35:59.000Z</time>
      </trkpt>
      <trkpt lat="48.87296" lon="-0.41124">
        <ele>55.400001525879</ele>
        <time>2017-06-11T14:36:12.000Z</time>
      </trkpt>
      <trkpt lat="48.87296" lon="-0.41124">
        <ele>55.400001525879</ele>
        <time>2017-06-11T14:36:27.000Z</time>
      </trkpt>
      <trkpt lat="48.87296" lon="-0.41124">
        <ele>55.400001525879</ele>
        <time>2017-06-11T14:36:42.000Z</time>
      </trkpt>
      <trkpt lat="48.87296" lon="-0.41124">
        <ele>55.400001525879</ele>
        <time>2017-06-11T14:36:55.000Z</time>
      </trkpt>
      <trkpt lat="48.87296" lon="-0.41124">
        <ele>55.400001525879</ele>
        <time>2017-06-11T14:37:12.000Z</time>
      </trkpt>
      <trkpt lat="48.87296" lon="-0.41124">
        <ele>55.400001525879</ele>
        <time>2017-06-11T14:37:27.000Z</time>
      </trkpt>
      <trkpt lat="48.87296" lon="-0.41124">
        <ele>55.400001525879</ele>
        <time>2017-06-11T14:37:41.000Z</time>
      </trkpt>
      <trkpt lat="48.87296" lon="-0.41124">
        <ele>55.400001525879</ele>
        <time>2017-06-11T14:37:51.000Z</time>
      </trkpt>
      <trkpt lat="48.87296" lon="-0.41124">
        <ele>55.400001525879</ele>
        <time>2017-06-11T14:38:04.000Z</time>
      </trkpt>
      <trkpt lat="48.87296" lon="-0.41124">
        <ele>55.400001525879</ele>
        <time>2017-06-11T14:38:17.000Z</time>
      </trkpt>
      <trkpt lat="48.87296" lon="-0.41124">
        <ele>55.400001525879</ele>
        <time>2017-06-11T14:38:31.000Z</time>
      </trkpt>
      <trkpt lat="48.87296" lon="-0.41124">
        <ele>55.400001525879</ele>
        <time>2017-06-11T14:38:44.000Z</time>
      </trkpt>
      <trkpt lat="48.87296" lon="-0.41124">
        <ele>55.400001525879</ele>
        <time>2017-06-11T14:38:59.000Z</time>
      </trkpt>
      <trkpt lat="48.87296" lon="-0.41124">
        <ele>55.400001525879</ele>
        <time>2017-06-11T14:39:15.000Z</time>
      </trkpt>
      <trkpt lat="48.87296" lon="-0.41124">
        <ele>55.400001525879</ele>
        <time>2017-06-11T14:39:25.000Z</time>
      </trkpt>
      <trkpt lat="48.87296" lon="-0.41124">
        <ele>55.400001525879</ele>
        <time>2017-06-11T14:39:37.000Z</time>
      </trkpt>
      <trkpt lat="48.87296" lon="-0.41125">
        <ele>55.400001525879</ele>
        <time>2017-06-11T14:39:50.000Z</time>
      </trkpt>
      <trkpt lat="48.87296" lon="-0.41125">
        <ele>55.400001525879</ele>
        <time>2017-06-11T14:40:03.000Z</time>
      </trkpt>
      <trkpt lat="48.87296" lon="-0.41125">
        <ele>55.400001525879</ele>
        <time>2017-06-11T14:40:11.000Z</time>
      </trkpt>
      <trkpt lat="48.87296" lon="-0.41125">
        <ele>55.400001525879</ele>
        <time>2017-06-11T14:40:16.000Z</time>
      </trkpt>
      <trkpt lat="48.87296" lon="-0.41125">
        <ele>55.400001525879</ele>
        <time>2017-06-11T14:40:30.000Z</time>
      </trkpt>
      <trkpt lat="48.87296" lon="-0.41125">
        <ele>54.799999237061</ele>
        <time>2017-06-11T14:40:39.000Z</time>
      </trkpt>
      <trkpt lat="48.87296" lon="-0.41125">
        <ele>54.200000762939</ele>
        <time>2017-06-11T14:40:40.000Z</time>
      </trkpt>
      <trkpt lat="48.87296" lon="-0.41125">
        <ele>53.599998474121</ele>
        <time>2017-06-11T14:40:41.000Z</time>
      </trkpt>
      <trkpt lat="48.87296" lon="-0.41125">
        <ele>54.200000762939</ele>
        <time>2017-06-11T14:40:42.000Z</time>
      </trkpt>
      <trkpt lat="48.87296" lon="-0.41125">
        <ele>54.799999237061</ele>
        <time>2017-06-11T14:40:43.000Z</time>
      </trkpt>
      <trkpt lat="48.87296" lon="-0.41125">
        <ele>55.400001525879</ele>
        <time>2017-06-11T14:40:44.000Z</time>
      </trkpt>
      <trkpt lat="48.87296" lon="-0.41125">
        <ele>56</ele>
        <time>2017-06-11T14:40:45.000Z</time>
      </trkpt>
      <trkpt lat="48.87296" lon="-0.41125">
        <ele>55.599998474121</ele>
        <time>2017-06-11T14:40:46.000Z</time>
      </trkpt>
      <trkpt lat="48.87296" lon="-0.41125">
        <ele>55.400001525879</ele>
        <time>2017-06-11T14:40:47.000Z</time>
      </trkpt>
      <trkpt lat="48.87296" lon="-0.41125">
        <ele>54.400001525879</ele>
        <time>2017-06-11T14:40:48.000Z</time>
      </trkpt>
      <trkpt lat="48.87296" lon="-0.41125">
        <ele>54.200000762939</ele>
        <time>2017-06-11T14:40:49.000Z</time>
      </trkpt>
      <trkpt lat="48.87296" lon="-0.41125">
        <ele>54.200000762939</ele>
        <time>2017-06-11T14:40:50.000Z</time>
      </trkpt>
      <trkpt lat="48.87296" lon="-0.41125">
        <ele>54</ele>
        <time>2017-06-11T14:40:51.000Z</time>
      </trkpt>
      <trkpt lat="48.87296" lon="-0.41125">
        <ele>53.799999237061</ele>
        <time>2017-06-11T14:40:52.000Z</time>
      </trkpt>
      <trkpt lat="48.87296" lon="-0.41125">
        <ele>53.599998474121</ele>
        <time>2017-06-11T14:40:53.000Z</time>
      </trkpt>
      <trkpt lat="48.87296" lon="-0.41125">
        <ele>53.599998474121</ele>
        <time>2017-06-11T14:40:54.000Z</time>
      </trkpt>
      <trkpt lat="48.87296" lon="-0.41125">
        <ele>54.799999237061</ele>
        <time>2017-06-11T14:41:03.000Z</time>
      </trkpt>
      <trkpt lat="48.87296" lon="-0.41125">
        <ele>56</ele>
        <time>2017-06-11T14:41:04.000Z</time>
      </trkpt>
      <trkpt lat="48.87296" lon="-0.41125">
        <ele>57</ele>
        <time>2017-06-11T14:41:05.000Z</time>
      </trkpt>
      <trkpt lat="48.87296" lon="-0.41125">
        <ele>56.799999237061</ele>
        <time>2017-06-11T14:41:06.000Z</time>
      </trkpt>
      <trkpt lat="48.87296" lon="-0.41125">
        <ele>56.400001525879</ele>
        <time>2017-06-11T14:41:07.000Z</time>
      </trkpt>
      <trkpt lat="48.87296" lon="-0.41125">
        <ele>56</ele>
        <time>2017-06-11T14:41:08.000Z</time>
      </trkpt>
      <trkpt lat="48.87296" lon="-0.41125">
        <ele>55.799999237061</ele>
        <time>2017-06-11T14:41:09.000Z</time>
      </trkpt>
      <trkpt lat="48.87296" lon="-0.41125">
        <ele>55.400001525879</ele>
        <time>2017-06-11T14:41:10.000Z</time>
      </trkpt>
      <trkpt lat="48.87296" lon="-0.41125">
        <ele>56</ele>
        <time>2017-06-11T14:41:11.000Z</time>
      </trkpt>
      <trkpt lat="48.87296" lon="-0.41124">
        <ele>56.400001525879</ele>
        <time>2017-06-11T14:41:12.000Z</time>
      </trkpt>
      <trkpt lat="48.87295" lon="-0.41124">
        <ele>57</ele>
        <time>2017-06-11T14:41:13.000Z</time>
      </trkpt>
      <trkpt lat="48.87294" lon="-0.41123">
        <ele>57.400001525879</ele>
        <time>2017-06-11T14:41:14.000Z</time>
      </trkpt>
      <trkpt lat="48.87293" lon="-0.41124">
        <ele>58</ele>
        <time>2017-06-11T14:41:15.000Z</time>
      </trkpt>
      <trkpt lat="48.87291" lon="-0.41125">
        <ele>58</ele>
        <time>2017-06-11T14:41:19.000Z</time>
      </trkpt>
      <trkpt lat="48.87291" lon="-0.41125">
        <ele>58</ele>
        <time>2017-06-11T14:41:24.000Z</time>
      </trkpt>
      <trkpt lat="48.87292" lon="-0.41125">
        <ele>58</ele>
        <time>2017-06-11T14:41:30.000Z</time>
      </trkpt>
    </trkseg>
  </trk>
</gpx>